<?xml version='1.0' encoding='UTF-8'?><gpx version="1.1" creator="JPX - https://github.com/jenetics/jpx" xmlns="http://www.topografix.com/GPX/1/1"><trk><trkseg><trkpt lat="46.01744883196501" lon="11.890534022417956"><ele>268.0</ele><time>2026-04-09T10:02:29.006Z</time></trkpt><trkpt lat="46.01734767392205" lon="11.890480906543011"><ele>268.0</ele><time>2026-04-09T10:02:53.001Z</time></trkpt><trkpt lat="46.01730224558188" lon="11.890558490768553"><ele>268.0</ele><time>2026-04-09T10:03:03.001Z</time></trkpt><trkpt lat="46.01721174203516" lon="11.89042300734413"><ele>268.0</ele><time>2026-04-09T10:03:05.001Z</time></trkpt><trkpt lat="46.01709347480426" lon="11.890367797037083"><ele>268.0</ele><time>2026-04-09T10:03:07.001Z</time></trkpt><trkpt lat="46.01700930515078" lon="11.890316868496003"><ele>268.0</ele><time>2026-04-09T10:03:09Z</time></trkpt><trkpt lat="46.01694847369662" lon="11.890342468706422"><ele>268.0</ele><time>2026-04-09T10:03:12Z</time></trkpt><trkpt lat="46.01698231688122" lon="11.890455725285152"><ele>268.0</ele><time>2026-04-09T10:03:15Z</time></trkpt><trkpt lat="46.017094627577414" lon="11.890546185363853"><ele>268.0</ele><time>2026-04-09T10:03:17Z</time></trkpt><trkpt lat="46.01716110940201" lon="11.890613709656831"><ele>268.0</ele><time>2026-04-09T10:03:18Z</time></trkpt><trkpt lat="46.017215549144275" lon="11.890669454130537"><ele>268.0</ele><time>2026-04-09T10:03:19Z</time></trkpt><trkpt lat="46.017298182163465" lon="11.890791885263663"><ele>268.0</ele><time>2026-04-09T10:03:21Z</time></trkpt><trkpt lat="46.01728353436642" lon="11.890922522657705"><ele>268.0</ele><time>2026-04-09T10:03:22Z</time></trkpt><trkpt lat="46.01728816658908" lon="11.891019542031502"><ele>268.0</ele><time>2026-04-09T10:03:23Z</time></trkpt><trkpt lat="46.017297787168616" lon="11.891115870259833"><ele>268.0</ele><time>2026-04-09T10:03:24Z</time></trkpt><trkpt lat="46.017310275037374" lon="11.891214383865242"><ele>268.0</ele><time>2026-04-09T10:03:25Z</time></trkpt><trkpt lat="46.017319415838834" lon="11.891314223222452"><ele>268.0</ele><time>2026-04-09T10:03:26Z</time></trkpt><trkpt lat="46.01732820950903" lon="11.891413550875521"><ele>268.0</ele><time>2026-04-09T10:03:27Z</time></trkpt><trkpt lat="46.01734102322725" lon="11.891518620440834"><ele>268.0</ele><time>2026-04-09T10:03:28Z</time></trkpt><trkpt lat="46.017352672368666" lon="11.891622165970665"><ele>268.0</ele><time>2026-04-09T10:03:29Z</time></trkpt><trkpt lat="46.01736506681614" lon="11.891746195867917"><ele>268.0</ele><time>2026-04-09T10:03:30Z</time></trkpt><trkpt lat="46.017381815168434" lon="11.8918740800739"><ele>268.0</ele><time>2026-04-09T10:03:31Z</time></trkpt><trkpt lat="46.01740298855712" lon="11.89199907439573"><ele>268.0</ele><time>2026-04-09T10:03:32Z</time></trkpt><trkpt lat="46.01741512952854" lon="11.892129371768576"><ele>268.0</ele><time>2026-04-09T10:03:33Z</time></trkpt><trkpt lat="46.01742879480959" lon="11.892263777614897"><ele>268.0</ele><time>2026-04-09T10:03:34Z</time></trkpt><trkpt lat="46.0174386906573" lon="11.89237063496785"><ele>268.0</ele><time>2026-04-09T10:03:35Z</time></trkpt><trkpt lat="46.017436712496746" lon="11.892461824867121"><ele>268.0</ele><time>2026-04-09T10:03:36Z</time></trkpt><trkpt lat="46.017459674216106" lon="11.892616903044651"><ele>268.0</ele><time>2026-04-09T10:03:38Z</time></trkpt><trkpt lat="46.01745553659718" lon="11.89272081606916"><ele>268.0</ele><time>2026-04-09T10:03:40Z</time></trkpt><trkpt lat="46.01736977594893" lon="11.892777230525217"><ele>268.0</ele><time>2026-04-09T10:03:42Z</time></trkpt><trkpt lat="46.01726728361685" lon="11.892821398215245"><ele>268.0</ele><time>2026-04-09T10:03:44Z</time></trkpt><trkpt lat="46.01717307273113" lon="11.89287221691544"><ele>268.0</ele><time>2026-04-09T10:03:46Z</time></trkpt><trkpt lat="46.017074443824875" lon="11.892891074992331"><ele>268.0</ele><time>2026-04-09T10:03:48Z</time></trkpt><trkpt lat="46.016982032748274" lon="11.892836918980095"><ele>268.0</ele><time>2026-04-09T10:03:50Z</time></trkpt><trkpt lat="46.01689327231088" lon="11.89283676746336"><ele>268.0</ele><time>2026-04-09T10:03:52Z</time></trkpt><trkpt lat="46.016854020404736" lon="11.89292936781685"><ele>268.0</ele><time>2026-04-09T10:03:54Z</time></trkpt><trkpt lat="46.01686010556617" lon="11.893049952635918"><ele>268.0</ele><time>2026-04-09T10:03:56Z</time></trkpt><trkpt lat="46.016883603845365" lon="11.89320151923946"><ele>268.0</ele><time>2026-04-09T10:03:58Z</time></trkpt><trkpt lat="46.01690244963637" lon="11.893293142077857"><ele>268.0</ele><time>2026-04-09T10:03:59Z</time></trkpt><trkpt lat="46.016923873942595" lon="11.893393052641455"><ele>268.0</ele><time>2026-04-09T10:04:00Z</time></trkpt><trkpt lat="46.0169410522234" lon="11.893486326322062"><ele>268.0</ele><time>2026-04-09T10:04:01Z</time></trkpt><trkpt lat="46.01696106810504" lon="11.893581970672761"><ele>267.8333333333333</ele><time>2026-04-09T10:04:02Z</time></trkpt><trkpt lat="46.01698302246996" lon="11.89369017656185"><ele>267.66666666666663</ele><time>2026-04-09T10:04:03Z</time></trkpt><trkpt lat="46.01700395499016" lon="11.893804548592815"><ele>267.5</ele><time>2026-04-09T10:04:04Z</time></trkpt><trkpt lat="46.01702993221565" lon="11.893920926990589"><ele>267.3333333333333</ele><time>2026-04-09T10:04:05Z</time></trkpt><trkpt lat="46.017057799287414" lon="11.894042526961734"><ele>267.1666666666667</ele><time>2026-04-09T10:04:06Z</time></trkpt><trkpt lat="46.017082313559804" lon="11.894167727625556"><ele>267.0</ele><time>2026-04-09T10:04:07Z</time></trkpt><trkpt lat="46.01710753098289" lon="11.894292186865323"><ele>267.0</ele><time>2026-04-09T10:04:08Z</time></trkpt><trkpt lat="46.01713289427676" lon="11.894418044655245"><ele>267.0</ele><time>2026-04-09T10:04:09Z</time></trkpt><trkpt lat="46.01715977737155" lon="11.894547142003466"><ele>267.0</ele><time>2026-04-09T10:04:10Z</time></trkpt><trkpt lat="46.01718837101614" lon="11.894674685435229"><ele>267.0</ele><time>2026-04-09T10:04:11Z</time></trkpt><trkpt lat="46.01721755614193" lon="11.894800771004098"><ele>267.0</ele><time>2026-04-09T10:04:12Z</time></trkpt><trkpt lat="46.01724613211706" lon="11.89492979909139"><ele>267.0</ele><time>2026-04-09T10:04:13Z</time></trkpt><trkpt lat="46.0172703939734" lon="11.895055191628535"><ele>267.0</ele><time>2026-04-09T10:04:14Z</time></trkpt><trkpt lat="46.01729572847677" lon="11.895190047425734"><ele>267.0</ele><time>2026-04-09T10:04:15Z</time></trkpt><trkpt lat="46.01732703221784" lon="11.895340874043836"><ele>267.0</ele><time>2026-04-09T10:04:16Z</time></trkpt><trkpt lat="46.017359099198806" lon="11.89549106074508"><ele>267.0</ele><time>2026-04-09T10:04:17Z</time></trkpt><trkpt lat="46.01738767136496" lon="11.89561979338221"><ele>267.0</ele><time>2026-04-09T10:04:18Z</time></trkpt><trkpt lat="46.017414726772756" lon="11.895751343194252"><ele>267.0</ele><time>2026-04-09T10:04:19Z</time></trkpt><trkpt lat="46.017444037656304" lon="11.895889434892817"><ele>267.0</ele><time>2026-04-09T10:04:20Z</time></trkpt><trkpt lat="46.01747225574908" lon="11.896022360662753"><ele>267.0</ele><time>2026-04-09T10:04:21Z</time></trkpt><trkpt lat="46.017500094707785" lon="11.896161085235052"><ele>267.0</ele><time>2026-04-09T10:04:22Z</time></trkpt><trkpt lat="46.0175272243302" lon="11.896289000603314"><ele>267.4</ele><time>2026-04-09T10:04:23Z</time></trkpt><trkpt lat="46.01754965443333" lon="11.896391461269776"><ele>267.79999999999995</ele><time>2026-04-09T10:04:24Z</time></trkpt><trkpt lat="46.017589982697984" lon="11.896542296459629"><ele>268.2</ele><time>2026-04-09T10:04:26Z</time></trkpt><trkpt lat="46.017666608984435" lon="11.896613346285463"><ele>268.59999999999997</ele><time>2026-04-09T10:04:28Z</time></trkpt><trkpt lat="46.017781256057084" lon="11.896583009170127"><ele>269.0</ele><time>2026-04-09T10:04:30Z</time></trkpt><trkpt lat="46.01786087120582" lon="11.896552040774736"><ele>269.0</ele><time>2026-04-09T10:04:31Z</time></trkpt><trkpt lat="46.01794482838504" lon="11.896519906261151"><ele>269.0</ele><time>2026-04-09T10:04:32Z</time></trkpt><trkpt lat="46.01802789011529" lon="11.896483001592648"><ele>269.0</ele><time>2026-04-09T10:04:33Z</time></trkpt><trkpt lat="46.018106421750964" lon="11.896450847845973"><ele>269.0</ele><time>2026-04-09T10:04:34Z</time></trkpt><trkpt lat="46.01817062745493" lon="11.896429592520876"><ele>269.0</ele><time>2026-04-09T10:04:35Z</time></trkpt><trkpt lat="46.01825684220708" lon="11.896417432866325"><ele>269.0</ele><time>2026-04-09T10:04:37Z</time></trkpt><trkpt lat="46.01828654542762" lon="11.896327166893997"><ele>269.5</ele><time>2026-04-09T10:04:39Z</time></trkpt><trkpt lat="46.01835482737233" lon="11.896227048826747"><ele>270.0</ele><time>2026-04-09T10:04:43Z</time></trkpt><trkpt lat="46.018360677695796" lon="11.896322260130324"><ele>270.5</ele><time>2026-04-09T10:06:10Z</time></trkpt><trkpt lat="46.01857577308954" lon="11.896314661743688"><ele>271.0</ele><time>2026-04-09T10:06:23Z</time></trkpt><trkpt lat="46.018658554398556" lon="11.896328369860772"><ele>271.0</ele><time>2026-04-09T10:08:32.02Z</time></trkpt><trkpt lat="46.01857647135771" lon="11.896348790406556"><ele>271.0</ele><time>2026-04-09T10:08:41Z</time></trkpt><trkpt lat="46.01850546218397" lon="11.896345757869208"><ele>271.0</ele><time>2026-04-09T10:08:44Z</time></trkpt><trkpt lat="46.01834345908652" lon="11.896405659120108"><ele>271.0</ele><time>2026-04-09T10:08:46Z</time></trkpt><trkpt lat="46.01825405599372" lon="11.896415217553686"><ele>271.0</ele><time>2026-04-09T10:08:47Z</time></trkpt><trkpt lat="46.01828282430901" lon="11.896308304236719"><ele>270.66666666666663</ele><time>2026-04-09T10:08:52Z</time></trkpt><trkpt lat="46.01829402060435" lon="11.896207423422759"><ele>270.3333333333333</ele><time>2026-04-09T10:09:56Z</time></trkpt><trkpt lat="46.018223663114036" lon="11.896127214447002"><ele>270.0</ele><time>2026-04-09T10:10:39Z</time></trkpt><trkpt lat="46.01815171604981" lon="11.896144913255641"><ele>269.6666666666667</ele><time>2026-04-09T10:10:41Z</time></trkpt><trkpt lat="46.018074763892905" lon="11.896173526141364"><ele>269.33333333333337</ele><time>2026-04-09T10:10:43Z</time></trkpt><trkpt lat="46.017969630102634" lon="11.896212088934623"><ele>269.0</ele><time>2026-04-09T10:10:45Z</time></trkpt><trkpt lat="46.017906225781395" lon="11.896235007967004"><ele>269.0</ele><time>2026-04-09T10:10:46Z</time></trkpt><trkpt lat="46.01784009474902" lon="11.896263720137936"><ele>269.0</ele><time>2026-04-09T10:10:47Z</time></trkpt><trkpt lat="46.017727260764275" lon="11.896340854981903"><ele>269.0</ele><time>2026-04-09T10:10:49Z</time></trkpt><trkpt lat="46.017696492884994" lon="11.896493763167387"><ele>269.0</ele><time>2026-04-09T10:10:51Z</time></trkpt><trkpt lat="46.017639529693014" lon="11.896554806473207"><ele>269.0</ele><time>2026-04-09T10:10:53.001Z</time></trkpt><trkpt lat="46.01759966126331" lon="11.89668048036902"><ele>269.4</ele><time>2026-04-09T10:11:00.001Z</time></trkpt><trkpt lat="46.017624792915036" lon="11.896795495746263"><ele>269.79999999999995</ele><time>2026-04-09T10:11:01.001Z</time></trkpt><trkpt lat="46.017666653945504" lon="11.896936219366262"><ele>270.20000000000005</ele><time>2026-04-09T10:11:02.001Z</time></trkpt><trkpt lat="46.01769940026826" lon="11.897055114417947"><ele>270.6</ele><time>2026-04-09T10:11:03.001Z</time></trkpt><trkpt lat="46.01772651545211" lon="11.897176313502332"><ele>271.0</ele><time>2026-04-09T10:11:04.001Z</time></trkpt><trkpt lat="46.01773862834715" lon="11.897317170117926"><ele>271.0</ele><time>2026-04-09T10:11:05.001Z</time></trkpt><trkpt lat="46.01775080188983" lon="11.897475221676244"><ele>271.0</ele><time>2026-04-09T10:11:06.001Z</time></trkpt><trkpt lat="46.017767571115236" lon="11.897642825359474"><ele>271.0</ele><time>2026-04-09T10:11:07.001Z</time></trkpt><trkpt lat="46.01778389535259" lon="11.897803295042806"><ele>271.0</ele><time>2026-04-09T10:11:08Z</time></trkpt><trkpt lat="46.01780391557539" lon="11.89795440848418"><ele>271.0</ele><time>2026-04-09T10:11:09Z</time></trkpt><trkpt lat="46.01782063855853" lon="11.898111150908184"><ele>271.0</ele><time>2026-04-09T10:11:10Z</time></trkpt><trkpt lat="46.01783669371775" lon="11.898269505543482"><ele>271.0</ele><time>2026-04-09T10:11:11Z</time></trkpt><trkpt lat="46.01785189044973" lon="11.89842926542608"><ele>271.0</ele><time>2026-04-09T10:11:12Z</time></trkpt><trkpt lat="46.01786621215045" lon="11.898586104347043"><ele>271.0</ele><time>2026-04-09T10:11:13Z</time></trkpt><trkpt lat="46.01788421102828" lon="11.8987445347005"><ele>271.0</ele><time>2026-04-09T10:11:14Z</time></trkpt><trkpt lat="46.01790521429946" lon="11.898895550937839"><ele>270.8</ele><time>2026-04-09T10:11:15Z</time></trkpt><trkpt lat="46.01791894887647" lon="11.899048749044574"><ele>270.6</ele><time>2026-04-09T10:11:16Z</time></trkpt><trkpt lat="46.01793482829646" lon="11.899196136818656"><ele>270.4</ele><time>2026-04-09T10:11:17Z</time></trkpt><trkpt lat="46.017951818252335" lon="11.899341963737516"><ele>270.2</ele><time>2026-04-09T10:11:18Z</time></trkpt><trkpt lat="46.017970842896204" lon="11.899482020418395"><ele>270.0</ele><time>2026-04-09T10:11:19Z</time></trkpt><trkpt lat="46.01798763379772" lon="11.899609098828847"><ele>270.0</ele><time>2026-04-09T10:11:20Z</time></trkpt><trkpt lat="46.01800799584268" lon="11.899723329336247"><ele>270.0</ele><time>2026-04-09T10:11:21Z</time></trkpt><trkpt lat="46.01802378346045" lon="11.899835905955817"><ele>270.0</ele><time>2026-04-09T10:11:23Z</time></trkpt><trkpt lat="46.01805228328672" lon="11.899917193226806"><ele>270.0</ele><time>2026-04-09T10:11:33Z</time></trkpt><trkpt lat="46.018140691542555" lon="11.899951609342583"><ele>270.0</ele><time>2026-04-09T10:11:36Z</time></trkpt><trkpt lat="46.01818089197924" lon="11.899854902435306"><ele>270.0</ele><time>2026-04-09T10:11:37Z</time></trkpt><trkpt lat="46.01822347158724" lon="11.899728876840998"><ele>270.0</ele><time>2026-04-09T10:11:38Z</time></trkpt><trkpt lat="46.01826931165988" lon="11.899628605404903"><ele>270.0</ele><time>2026-04-09T10:11:39Z</time></trkpt><trkpt lat="46.018331772299895" lon="11.899540114506138"><ele>270.0</ele><time>2026-04-09T10:11:40Z</time></trkpt><trkpt lat="46.018413297046074" lon="11.899410924512889"><ele>270.0</ele><time>2026-04-09T10:11:41Z</time></trkpt><trkpt lat="46.01849383529598" lon="11.899286230905844"><ele>270.0</ele><time>2026-04-09T10:11:42Z</time></trkpt><trkpt lat="46.01857064562208" lon="11.899169595424297"><ele>270.0</ele><time>2026-04-09T10:11:43Z</time></trkpt><trkpt lat="46.01865472082531" lon="11.899040230720908"><ele>270.0</ele><time>2026-04-09T10:11:44Z</time></trkpt><trkpt lat="46.01873867416605" lon="11.898898181183808"><ele>270.0</ele><time>2026-04-09T10:11:45Z</time></trkpt><trkpt lat="46.018820871392464" lon="11.89874099981452"><ele>270.0</ele><time>2026-04-09T10:11:46Z</time></trkpt><trkpt lat="46.0188878632676" lon="11.898586436571595"><ele>270.0</ele><time>2026-04-09T10:11:47Z</time></trkpt><trkpt lat="46.018943512107754" lon="11.89842575288946"><ele>270.0</ele><time>2026-04-09T10:11:48Z</time></trkpt><trkpt lat="46.01901460953247" lon="11.898245395356648"><ele>270.0</ele><time>2026-04-09T10:11:49Z</time></trkpt><trkpt lat="46.01904248562228" lon="11.898036499677541"><ele>270.0</ele><time>2026-04-09T10:11:50Z</time></trkpt><trkpt lat="46.0190997625126" lon="11.897827835890055"><ele>270.3333333333333</ele><time>2026-04-09T10:11:51Z</time></trkpt><trkpt lat="46.019144819041905" lon="11.897599036352492"><ele>270.66666666666663</ele><time>2026-04-09T10:11:52Z</time></trkpt><trkpt lat="46.01919065630001" lon="11.897366016146663"><ele>271.0</ele><time>2026-04-09T10:11:53Z</time></trkpt><trkpt lat="46.019232958441044" lon="11.897150967216632"><ele>271.75</ele><time>2026-04-09T10:11:54Z</time></trkpt><trkpt lat="46.0192702436898" lon="11.896961894544301"><ele>272.5</ele><time>2026-04-09T10:11:55Z</time></trkpt><trkpt lat="46.01928892895743" lon="11.896789860808632"><ele>273.25</ele><time>2026-04-09T10:11:56Z</time></trkpt><trkpt lat="46.01932167877667" lon="11.89662846446588"><ele>274.0</ele><time>2026-04-09T10:11:57Z</time></trkpt><trkpt lat="46.0193507512905" lon="11.896470916074447"><ele>274.0</ele><time>2026-04-09T10:11:58Z</time></trkpt><trkpt lat="46.019376464615476" lon="11.89631087539641"><ele>274.0</ele><time>2026-04-09T10:11:59Z</time></trkpt><trkpt lat="46.01940070348305" lon="11.896167307903912"><ele>274.0</ele><time>2026-04-09T10:12:00Z</time></trkpt><trkpt lat="46.01941070408255" lon="11.89606748129308"><ele>274.0</ele><time>2026-04-09T10:12:01Z</time></trkpt><trkpt lat="46.01943247400856" lon="11.895924714466862"><ele>274.0</ele><time>2026-04-09T10:12:03Z</time></trkpt><trkpt lat="46.01945618937612" lon="11.895827295604036"><ele>274.0</ele><time>2026-04-09T10:12:05Z</time></trkpt><trkpt lat="46.019528775119916" lon="11.895766284039317"><ele>274.0</ele><time>2026-04-09T10:12:08Z</time></trkpt><trkpt lat="46.01962360118174" lon="11.89574509439167"><ele>274.0</ele><time>2026-04-09T10:12:10Z</time></trkpt><trkpt lat="46.01973744947291" lon="11.895810800394452"><ele>274.0</ele><time>2026-04-09T10:12:12Z</time></trkpt><trkpt lat="46.0198148134772" lon="11.895948682764631"><ele>274.0</ele><time>2026-04-09T10:12:14Z</time></trkpt><trkpt lat="46.01984972679371" lon="11.896053087635968"><ele>274.0</ele><time>2026-04-09T10:12:15Z</time></trkpt><trkpt lat="46.01988980831633" lon="11.896170766883175"><ele>274.0</ele><time>2026-04-09T10:12:16Z</time></trkpt><trkpt lat="46.0199348441453" lon="11.896306264801774"><ele>274.0</ele><time>2026-04-09T10:12:17Z</time></trkpt><trkpt lat="46.01997593506832" lon="11.89643619034652"><ele>274.0</ele><time>2026-04-09T10:12:18Z</time></trkpt><trkpt lat="46.020011826559724" lon="11.896550454136316"><ele>274.0</ele><time>2026-04-09T10:12:19Z</time></trkpt><trkpt lat="46.02005082961696" lon="11.896666098741772"><ele>274.2</ele><time>2026-04-09T10:12:20Z</time></trkpt><trkpt lat="46.0200810200454" lon="11.896795685720958"><ele>274.4</ele><time>2026-04-09T10:12:21Z</time></trkpt><trkpt lat="46.02012125331689" lon="11.896931501075827"><ele>274.6</ele><time>2026-04-09T10:12:22Z</time></trkpt><trkpt lat="46.020168297532706" lon="11.897076548808325"><ele>274.8</ele><time>2026-04-09T10:12:23Z</time></trkpt><trkpt lat="46.020219881911395" lon="11.897231956947435"><ele>275.0</ele><time>2026-04-09T10:12:24Z</time></trkpt><trkpt lat="46.02027146116236" lon="11.897402961700035"><ele>274.5</ele><time>2026-04-09T10:12:25Z</time></trkpt><trkpt lat="46.02031879734372" lon="11.89758635541619"><ele>274.0</ele><time>2026-04-09T10:12:26Z</time></trkpt><trkpt lat="46.02036297185055" lon="11.897761908914799"><ele>273.5</ele><time>2026-04-09T10:12:27Z</time></trkpt><trkpt lat="46.02039381237773" lon="11.897923059688312"><ele>273.0</ele><time>2026-04-09T10:12:28Z</time></trkpt><trkpt lat="46.02042570182978" lon="11.898075799594968"><ele>273.0</ele><time>2026-04-09T10:12:29Z</time></trkpt><trkpt lat="46.02045860787889" lon="11.898237660813761"><ele>273.0</ele><time>2026-04-09T10:12:30Z</time></trkpt><trkpt lat="46.020484407660035" lon="11.898397266038579"><ele>273.0</ele><time>2026-04-09T10:12:31Z</time></trkpt><trkpt lat="46.02050085549098" lon="11.898530999272568"><ele>273.0</ele><time>2026-04-09T10:12:32Z</time></trkpt><trkpt lat="46.02052155777715" lon="11.89865377421763"><ele>273.0</ele><time>2026-04-09T10:12:33Z</time></trkpt><trkpt lat="46.02054003246717" lon="11.89876373450404"><ele>272.8333333333333</ele><time>2026-04-09T10:12:34Z</time></trkpt><trkpt lat="46.02055684190513" lon="11.898867846175786"><ele>272.6666666666667</ele><time>2026-04-09T10:12:35Z</time></trkpt><trkpt lat="46.02057517633594" lon="11.898975875712935"><ele>272.5</ele><time>2026-04-09T10:12:36Z</time></trkpt><trkpt lat="46.02058764089802" lon="11.899066722534387"><ele>272.33333333333337</ele><time>2026-04-09T10:12:37Z</time></trkpt><trkpt lat="46.02061253586586" lon="11.899226895685763"><ele>272.1666666666667</ele><time>2026-04-09T10:12:39Z</time></trkpt><trkpt lat="46.020639775536694" lon="11.89938068581577"><ele>272.0</ele><time>2026-04-09T10:12:41Z</time></trkpt><trkpt lat="46.02065260581158" lon="11.899500789852906"><ele>272.33333333333337</ele><time>2026-04-09T10:12:43Z</time></trkpt><trkpt lat="46.02064878009936" lon="11.899594147889735"><ele>272.6666666666667</ele><time>2026-04-09T10:12:45Z</time></trkpt><trkpt lat="46.020654632495706" lon="11.899729131671672"><ele>273.0</ele><time>2026-04-09T10:12:47Z</time></trkpt><trkpt lat="46.02067218358318" lon="11.899826494669265"><ele>273.3333333333333</ele><time>2026-04-09T10:12:48Z</time></trkpt><trkpt lat="46.0207058918292" lon="11.89991724528077"><ele>273.66666666666663</ele><time>2026-04-09T10:12:49Z</time></trkpt><trkpt lat="46.02076090650323" lon="11.900060345143613"><ele>274.0</ele><time>2026-04-09T10:12:51Z</time></trkpt><trkpt lat="46.02078597415628" lon="11.900153957658441"><ele>274.0</ele><time>2026-04-09T10:12:52Z</time></trkpt><trkpt lat="46.02080827620307" lon="11.900268849424503"><ele>274.0</ele><time>2026-04-09T10:12:53Z</time></trkpt><trkpt lat="46.02084639119226" lon="11.900389189712218"><ele>274.0</ele><time>2026-04-09T10:12:54Z</time></trkpt><trkpt lat="46.02088982051211" lon="11.90051092218015"><ele>274.0</ele><time>2026-04-09T10:12:55Z</time></trkpt><trkpt lat="46.02092781145284" lon="11.900618022178191"><ele>274.0</ele><time>2026-04-09T10:12:56Z</time></trkpt><trkpt lat="46.02096612816475" lon="11.900716218703387"><ele>274.0</ele><time>2026-04-09T10:12:57Z</time></trkpt><trkpt lat="46.02099999766769" lon="11.900811544898758"><ele>274.0</ele><time>2026-04-09T10:12:58Z</time></trkpt><trkpt lat="46.021031136929324" lon="11.900901276668076"><ele>274.0</ele><time>2026-04-09T10:12:59.001Z</time></trkpt><trkpt lat="46.02106926807119" lon="11.900994616474538"><ele>274.0</ele><time>2026-04-09T10:13:00.001Z</time></trkpt><trkpt lat="46.02110807847505" lon="11.901096638139895"><ele>274.0</ele><time>2026-04-09T10:13:01.001Z</time></trkpt><trkpt lat="46.02115055599775" lon="11.90120261003762"><ele>274.0</ele><time>2026-04-09T10:13:02.001Z</time></trkpt><trkpt lat="46.021193069635196" lon="11.90131349795864"><ele>274.0</ele><time>2026-04-09T10:13:03.001Z</time></trkpt><trkpt lat="46.021235958797185" lon="11.90142916975002"><ele>274.0</ele><time>2026-04-09T10:13:04.001Z</time></trkpt><trkpt lat="46.021276055601085" lon="11.901551894374242"><ele>274.0</ele><time>2026-04-09T10:13:05.001Z</time></trkpt><trkpt lat="46.02130906555794" lon="11.901682781865027"><ele>274.0</ele><time>2026-04-09T10:13:06.001Z</time></trkpt><trkpt lat="46.021332372017646" lon="11.901817034063354"><ele>274.0</ele><time>2026-04-09T10:13:07.001Z</time></trkpt><trkpt lat="46.0213483225598" lon="11.901957152326599"><ele>274.0</ele><time>2026-04-09T10:13:08.001Z</time></trkpt><trkpt lat="46.021357097847876" lon="11.902100022621244"><ele>273.8333333333333</ele><time>2026-04-09T10:13:09.001Z</time></trkpt><trkpt lat="46.02136491849942" lon="11.902234221499256"><ele>273.66666666666663</ele><time>2026-04-09T10:13:10.001Z</time></trkpt><trkpt lat="46.02136459698656" lon="11.902354139015902"><ele>273.5</ele><time>2026-04-09T10:13:11.001Z</time></trkpt><trkpt lat="46.02137056643682" lon="11.902473848865693"><ele>273.3333333333333</ele><time>2026-04-09T10:13:12.001Z</time></trkpt><trkpt lat="46.02138211300128" lon="11.902598268754176"><ele>273.1666666666667</ele><time>2026-04-09T10:13:13.001Z</time></trkpt><trkpt lat="46.02138877333757" lon="11.902721205000654"><ele>273.0</ele><time>2026-04-09T10:13:14.001Z</time></trkpt><trkpt lat="46.021396770053364" lon="11.90284543692568"><ele>272.85714285714283</ele><time>2026-04-09T10:13:15.001Z</time></trkpt><trkpt lat="46.021403312961894" lon="11.902966074987525"><ele>272.7142857142857</ele><time>2026-04-09T10:13:16.001Z</time></trkpt><trkpt lat="46.021407638338964" lon="11.90307371662389"><ele>272.57142857142856</ele><time>2026-04-09T10:13:17.001Z</time></trkpt><trkpt lat="46.02141043129934" lon="11.90317515550922"><ele>272.42857142857144</ele><time>2026-04-09T10:13:18.001Z</time></trkpt><trkpt lat="46.02141321009164" lon="11.903275799028101"><ele>272.2857142857143</ele><time>2026-04-09T10:13:19.001Z</time></trkpt><trkpt lat="46.02141894914368" lon="11.903377794405477"><ele>272.1428571428571</ele><time>2026-04-09T10:13:20.001Z</time></trkpt><trkpt lat="46.02142496361507" lon="11.90347769205872"><ele>272.0</ele><time>2026-04-09T10:13:21.001Z</time></trkpt><trkpt lat="46.02143912651123" lon="11.903656997172492"><ele>272.0</ele><time>2026-04-09T10:13:23.001Z</time></trkpt><trkpt lat="46.021446589480405" lon="11.903769928851819"><ele>272.0</ele><time>2026-04-09T10:13:24Z</time></trkpt><trkpt lat="46.02145661405697" lon="11.90390069295557"><ele>272.0</ele><time>2026-04-09T10:13:25Z</time></trkpt><trkpt lat="46.02147090013282" lon="11.904050058250169"><ele>272.0</ele><time>2026-04-09T10:13:26Z</time></trkpt><trkpt lat="46.02147709952097" lon="11.904218673209298"><ele>272.0</ele><time>2026-04-09T10:13:27Z</time></trkpt><trkpt lat="46.02147219031917" lon="11.904402986864033"><ele>272.2</ele><time>2026-04-09T10:13:28Z</time></trkpt><trkpt lat="46.021469708107496" lon="11.90456405790598"><ele>272.4</ele><time>2026-04-09T10:13:29Z</time></trkpt><trkpt lat="46.02146989363822" lon="11.904707381647"><ele>272.6</ele><time>2026-04-09T10:13:30Z</time></trkpt><trkpt lat="46.021473966500025" lon="11.904838957832675"><ele>272.8</ele><time>2026-04-09T10:13:31Z</time></trkpt><trkpt lat="46.02146705121564" lon="11.904977114665423"><ele>273.0</ele><time>2026-04-09T10:13:32Z</time></trkpt><trkpt lat="46.02146621767608" lon="11.905124007908498"><ele>273.2</ele><time>2026-04-09T10:13:33Z</time></trkpt><trkpt lat="46.021480565732084" lon="11.905274159270878"><ele>273.4</ele><time>2026-04-09T10:13:34Z</time></trkpt><trkpt lat="46.02150128440234" lon="11.905425377479379"><ele>273.59999999999997</ele><time>2026-04-09T10:13:35Z</time></trkpt><trkpt lat="46.02151392767523" lon="11.905583347062377"><ele>273.8</ele><time>2026-04-09T10:13:36Z</time></trkpt><trkpt lat="46.021524352579725" lon="11.905729593664345"><ele>274.0</ele><time>2026-04-09T10:13:37Z</time></trkpt><trkpt lat="46.02153619203933" lon="11.90586700260242"><ele>273.8</ele><time>2026-04-09T10:13:38Z</time></trkpt><trkpt lat="46.021547021989" lon="11.906008168763597"><ele>273.59999999999997</ele><time>2026-04-09T10:13:39Z</time></trkpt><trkpt lat="46.021556129112405" lon="11.90616473165406"><ele>273.4</ele><time>2026-04-09T10:13:40Z</time></trkpt><trkpt lat="46.021568078194996" lon="11.90632896728689"><ele>273.2</ele><time>2026-04-09T10:13:41Z</time></trkpt><trkpt lat="46.02158524222591" lon="11.906499560955483"><ele>273.0</ele><time>2026-04-09T10:13:42Z</time></trkpt><trkpt lat="46.02160563023913" lon="11.90667992723586"><ele>272.6666666666667</ele><time>2026-04-09T10:13:43Z</time></trkpt><trkpt lat="46.02163310976939" lon="11.906883096840824"><ele>272.33333333333337</ele><time>2026-04-09T10:13:44Z</time></trkpt><trkpt lat="46.02166719550145" lon="11.907095572216955"><ele>272.0</ele><time>2026-04-09T10:13:45Z</time></trkpt><trkpt lat="46.021706789756934" lon="11.907317080366168"><ele>272.0</ele><time>2026-04-09T10:13:46Z</time></trkpt><trkpt lat="46.0217532509654" lon="11.907547554726849"><ele>272.0</ele><time>2026-04-09T10:13:47Z</time></trkpt><trkpt lat="46.02181020172009" lon="11.907813050748581"><ele>272.0</ele><time>2026-04-09T10:13:48Z</time></trkpt><trkpt lat="46.02186585609274" lon="11.908101685332054"><ele>272.6666666666667</ele><time>2026-04-09T10:13:49Z</time></trkpt><trkpt lat="46.02194624075488" lon="11.90841021216224"><ele>273.3333333333333</ele><time>2026-04-09T10:13:50Z</time></trkpt><trkpt lat="46.02201007873529" lon="11.908679669778557"><ele>274.0</ele><time>2026-04-09T10:13:51Z</time></trkpt><trkpt lat="46.02206804776005" lon="11.908925060479364"><ele>274.0</ele><time>2026-04-09T10:13:52Z</time></trkpt><trkpt lat="46.02211715909599" lon="11.90915035717549"><ele>274.0</ele><time>2026-04-09T10:13:53Z</time></trkpt><trkpt lat="46.02216456491241" lon="11.909354680207487"><ele>274.0</ele><time>2026-04-09T10:13:54Z</time></trkpt><trkpt lat="46.022209733226696" lon="11.909542781091766"><ele>274.25</ele><time>2026-04-09T10:13:55Z</time></trkpt><trkpt lat="46.02225245965349" lon="11.909720572678994"><ele>274.5</ele><time>2026-04-09T10:13:56Z</time></trkpt><trkpt lat="46.02229443881295" lon="11.90990425676905"><ele>274.75</ele><time>2026-04-09T10:13:57Z</time></trkpt><trkpt lat="46.02234039903277" lon="11.910089337348321"><ele>275.0</ele><time>2026-04-09T10:13:58Z</time></trkpt><trkpt lat="46.02238449841852" lon="11.910273789033045"><ele>275.25</ele><time>2026-04-09T10:13:59Z</time></trkpt><trkpt lat="46.02242316134027" lon="11.910455872418074"><ele>275.5</ele><time>2026-04-09T10:14:00Z</time></trkpt><trkpt lat="46.02246031650371" lon="11.910630764508289"><ele>275.75</ele><time>2026-04-09T10:14:01Z</time></trkpt><trkpt lat="46.02248582925692" lon="11.910799564453502"><ele>276.0</ele><time>2026-04-09T10:14:02Z</time></trkpt><trkpt lat="46.022504894274746" lon="11.91096508783161"><ele>276.2</ele><time>2026-04-09T10:14:03Z</time></trkpt><trkpt lat="46.02252452590674" lon="11.911117785926097"><ele>276.40000000000003</ele><time>2026-04-09T10:14:04Z</time></trkpt><trkpt lat="46.02253394849169" lon="11.9112550801229"><ele>276.6</ele><time>2026-04-09T10:14:05Z</time></trkpt><trkpt lat="46.022538629147085" lon="11.911382731108326"><ele>276.8</ele><time>2026-04-09T10:14:06Z</time></trkpt><trkpt lat="46.02254600593915" lon="11.91151320450984"><ele>277.0</ele><time>2026-04-09T10:14:07Z</time></trkpt><trkpt lat="46.0225527974426" lon="11.911644187166905"><ele>277.0</ele><time>2026-04-09T10:14:08Z</time></trkpt><trkpt lat="46.022563574877665" lon="11.91177108640915"><ele>277.0</ele><time>2026-04-09T10:14:09Z</time></trkpt><trkpt lat="46.02257035763007" lon="11.911898288414115"><ele>277.0</ele><time>2026-04-09T10:14:10Z</time></trkpt><trkpt lat="46.02257465374437" lon="11.912009302444575"><ele>277.0</ele><time>2026-04-09T10:14:11Z</time></trkpt><trkpt lat="46.02257347221785" lon="11.912108367190797"><ele>277.0</ele><time>2026-04-09T10:14:12Z</time></trkpt><trkpt lat="46.022557646704584" lon="11.912205425514287"><ele>277.0</ele><time>2026-04-09T10:14:13Z</time></trkpt><trkpt lat="46.022530683400745" lon="11.912306973513092"><ele>277.0</ele><time>2026-04-09T10:14:14Z</time></trkpt><trkpt lat="46.02252207266615" lon="11.912424674347116"><ele>277.0</ele><time>2026-04-09T10:14:15Z</time></trkpt><trkpt lat="46.02253869055991" lon="11.912541165553057"><ele>277.0</ele><time>2026-04-09T10:14:16Z</time></trkpt><trkpt lat="46.022571999952355" lon="11.912677532451223"><ele>277.0</ele><time>2026-04-09T10:14:17Z</time></trkpt><trkpt lat="46.0225945652844" lon="11.91283695208456"><ele>277.0</ele><time>2026-04-09T10:14:18Z</time></trkpt><trkpt lat="46.0226138569383" lon="11.9130358944945"><ele>276.5</ele><time>2026-04-09T10:14:19Z</time></trkpt><trkpt lat="46.02262589740014" lon="11.913210971512969"><ele>276.0</ele><time>2026-04-09T10:14:20Z</time></trkpt><trkpt lat="46.02263748587169" lon="11.913376961940001"><ele>275.5</ele><time>2026-04-09T10:14:21Z</time></trkpt><trkpt lat="46.02264403168879" lon="11.913556696133577"><ele>275.0</ele><time>2026-04-09T10:14:22Z</time></trkpt><trkpt lat="46.022654055804736" lon="11.913756660411696"><ele>275.0</ele><time>2026-04-09T10:14:23Z</time></trkpt><trkpt lat="46.02266358052184" lon="11.913973339440261"><ele>275.0</ele><time>2026-04-09T10:14:24Z</time></trkpt><trkpt lat="46.022675798318886" lon="11.914198517915784"><ele>275.0</ele><time>2026-04-09T10:14:25Z</time></trkpt><trkpt lat="46.02268012973127" lon="11.9144198139942"><ele>275.0</ele><time>2026-04-09T10:14:26Z</time></trkpt><trkpt lat="46.02269183793849" lon="11.914647303792776"><ele>275.0</ele><time>2026-04-09T10:14:27Z</time></trkpt><trkpt lat="46.0227107814391" lon="11.914915131280344"><ele>275.0</ele><time>2026-04-09T10:14:28Z</time></trkpt><trkpt lat="46.022726537054304" lon="11.915196625564613"><ele>276.0</ele><time>2026-04-09T10:14:29Z</time></trkpt><trkpt lat="46.02273685057429" lon="11.915456406651206"><ele>277.0</ele><time>2026-04-09T10:14:30Z</time></trkpt><trkpt lat="46.02274405077459" lon="11.915750093585627"><ele>278.0</ele><time>2026-04-09T10:14:31Z</time></trkpt><trkpt lat="46.02275420646975" lon="11.916047065749053"><ele>279.6666666666667</ele><time>2026-04-09T10:14:32Z</time></trkpt><trkpt lat="46.022770725950764" lon="11.91630994195832"><ele>281.3333333333333</ele><time>2026-04-09T10:14:33Z</time></trkpt><trkpt lat="46.022784061822435" lon="11.916543559097873"><ele>283.0</ele><time>2026-04-09T10:14:34Z</time></trkpt><trkpt lat="46.022790691841514" lon="11.916762480435596"><ele>283.75</ele><time>2026-04-09T10:14:35Z</time></trkpt><trkpt lat="46.02279592614745" lon="11.916971831310622"><ele>284.5</ele><time>2026-04-09T10:14:36Z</time></trkpt><trkpt lat="46.022803259894935" lon="11.917163765442188"><ele>285.25</ele><time>2026-04-09T10:14:37Z</time></trkpt><trkpt lat="46.02281340086537" lon="11.917328559746824"><ele>286.0</ele><time>2026-04-09T10:14:38Z</time></trkpt><trkpt lat="46.02282264352748" lon="11.917487503346576"><ele>286.25</ele><time>2026-04-09T10:14:39Z</time></trkpt><trkpt lat="46.0228288452313" lon="11.917636645836213"><ele>286.5</ele><time>2026-04-09T10:14:40Z</time></trkpt><trkpt lat="46.02283251820911" lon="11.917783628669973"><ele>286.75</ele><time>2026-04-09T10:14:41Z</time></trkpt><trkpt lat="46.022842773318374" lon="11.917962046293717"><ele>287.0</ele><time>2026-04-09T10:14:42Z</time></trkpt><trkpt lat="46.022860174592296" lon="11.91818017533565"><ele>288.33333333333337</ele><time>2026-04-09T10:14:43Z</time></trkpt><trkpt lat="46.022877741959896" lon="11.918437641407195"><ele>289.6666666666667</ele><time>2026-04-09T10:14:44Z</time></trkpt><trkpt lat="46.02288013931841" lon="11.918720022398528"><ele>291.0</ele><time>2026-04-09T10:14:45Z</time></trkpt><trkpt lat="46.02288530688009" lon="11.919005132595291"><ele>292.0</ele><time>2026-04-09T10:14:46Z</time></trkpt><trkpt lat="46.02290067833366" lon="11.919276710432078"><ele>293.0</ele><time>2026-04-09T10:14:47Z</time></trkpt><trkpt lat="46.022916081042446" lon="11.919570683764611"><ele>294.0</ele><time>2026-04-09T10:14:48Z</time></trkpt><trkpt lat="46.02292565065308" lon="11.91981007879151"><ele>294.0</ele><time>2026-04-09T10:14:49Z</time></trkpt><trkpt lat="46.02293259467805" lon="11.919997137005357"><ele>294.0</ele><time>2026-04-09T10:14:50Z</time></trkpt><trkpt lat="46.022939973121595" lon="11.920152565860443"><ele>294.0</ele><time>2026-04-09T10:14:51Z</time></trkpt><trkpt lat="46.02295150468877" lon="11.920300319844463"><ele>294.0</ele><time>2026-04-09T10:14:52Z</time></trkpt><trkpt lat="46.022965563066265" lon="11.920432056890474"><ele>294.0</ele><time>2026-04-09T10:14:53Z</time></trkpt><trkpt lat="46.022967708561964" lon="11.920549207252854"><ele>293.8333333333333</ele><time>2026-04-09T10:14:54Z</time></trkpt><trkpt lat="46.02297162020902" lon="11.9206621742405"><ele>293.6666666666667</ele><time>2026-04-09T10:14:55Z</time></trkpt><trkpt lat="46.02297373359697" lon="11.920786293356867"><ele>293.5</ele><time>2026-04-09T10:14:57Z</time></trkpt><trkpt lat="46.02293796644172" lon="11.920912741102258"><ele>293.33333333333337</ele><time>2026-04-09T10:15:00Z</time></trkpt><trkpt lat="46.02290291123942" lon="11.92098805904509"><ele>293.1666666666667</ele><time>2026-04-09T10:15:01Z</time></trkpt><trkpt lat="46.022846803004356" lon="11.921083083680152"><ele>293.0</ele><time>2026-04-09T10:15:02Z</time></trkpt><trkpt lat="46.02280672736644" lon="11.921186029053382"><ele>293.0</ele><time>2026-04-09T10:15:03Z</time></trkpt><trkpt lat="46.02278721322167" lon="11.921298685758543"><ele>293.0</ele><time>2026-04-09T10:15:04Z</time></trkpt><trkpt lat="46.022798889508636" lon="11.921419871569924"><ele>293.0</ele><time>2026-04-09T10:15:05.001Z</time></trkpt><trkpt lat="46.02283698562086" lon="11.921537792438466"><ele>293.0</ele><time>2026-04-09T10:15:06.001Z</time></trkpt><trkpt lat="46.02289366502645" lon="11.921647624971799"><ele>293.0</ele><time>2026-04-09T10:15:07.001Z</time></trkpt><trkpt lat="46.02296777437037" lon="11.921763101544613"><ele>293.0</ele><time>2026-04-09T10:15:08.001Z</time></trkpt><trkpt lat="46.02303636033715" lon="11.921878932234213"><ele>293.0</ele><time>2026-04-09T10:15:09.001Z</time></trkpt><trkpt lat="46.02308271474519" lon="11.92198135934208"><ele>293.0</ele><time>2026-04-09T10:15:10.001Z</time></trkpt><trkpt lat="46.023124600481644" lon="11.922067827266867"><ele>293.0</ele><time>2026-04-09T10:15:11.001Z</time></trkpt><trkpt lat="46.02317302038903" lon="11.922198456980992"><ele>293.0</ele><time>2026-04-09T10:15:13.001Z</time></trkpt><trkpt lat="46.02319527668916" lon="11.922300463396217"><ele>293.0</ele><time>2026-04-09T10:15:15.001Z</time></trkpt><trkpt lat="46.02323776783908" lon="11.92240570848217"><ele>293.0</ele><time>2026-04-09T10:15:21.001Z</time></trkpt><trkpt lat="46.023276191403795" lon="11.922491980757517"><ele>293.0</ele><time>2026-04-09T10:15:23.001Z</time></trkpt><trkpt lat="46.02331032204329" lon="11.922569810562326"><ele>293.0</ele><time>2026-04-09T10:15:25Z</time></trkpt><trkpt lat="46.0233470443041" lon="11.922659473261076"><ele>293.0</ele><time>2026-04-09T10:15:27Z</time></trkpt><trkpt lat="46.023404230030266" lon="11.922801488499749"><ele>293.0</ele><time>2026-04-09T10:15:29Z</time></trkpt><trkpt lat="46.02343808477057" lon="11.922880493868375"><ele>293.0</ele><time>2026-04-09T10:15:30Z</time></trkpt><trkpt lat="46.02351858764783" lon="11.923034640546813"><ele>293.4</ele><time>2026-04-09T10:15:32Z</time></trkpt><trkpt lat="46.02354788242598" lon="11.923127700474975"><ele>293.8</ele><time>2026-04-09T10:15:33Z</time></trkpt><trkpt lat="46.023579823306775" lon="11.92321547800645"><ele>294.2</ele><time>2026-04-09T10:15:34Z</time></trkpt><trkpt lat="46.023622689705476" lon="11.923307381606893"><ele>294.6</ele><time>2026-04-09T10:15:36Z</time></trkpt><trkpt lat="46.02372463111888" lon="11.923505365438546"><ele>295.0</ele><time>2026-04-09T10:15:38Z</time></trkpt><trkpt lat="46.02379397481664" lon="11.923635508485297"><ele>295.66666666666663</ele><time>2026-04-09T10:15:39Z</time></trkpt><trkpt lat="46.023881978706974" lon="11.923834592377982"><ele>296.3333333333333</ele><time>2026-04-09T10:15:40Z</time></trkpt><trkpt lat="46.02397668695969" lon="11.924011670302638"><ele>297.0</ele><time>2026-04-09T10:15:41Z</time></trkpt><trkpt lat="46.02407935925738" lon="11.924194475520112"><ele>297.0</ele><time>2026-04-09T10:15:42Z</time></trkpt><trkpt lat="46.02418452142528" lon="11.92437368464698"><ele>297.0</ele><time>2026-04-09T10:15:43Z</time></trkpt><trkpt lat="46.02428018717458" lon="11.924555064237905"><ele>297.0</ele><time>2026-04-09T10:15:44Z</time></trkpt><trkpt lat="46.02437530255126" lon="11.924726089323853"><ele>297.0</ele><time>2026-04-09T10:15:45Z</time></trkpt><trkpt lat="46.024463149470726" lon="11.924876519518055"><ele>297.0</ele><time>2026-04-09T10:15:46Z</time></trkpt><trkpt lat="46.02454988197424" lon="11.925014219188544"><ele>297.0</ele><time>2026-04-09T10:15:47Z</time></trkpt><trkpt lat="46.024635465312016" lon="11.925155682608263"><ele>297.0</ele><time>2026-04-09T10:15:48Z</time></trkpt><trkpt lat="46.02471255500337" lon="11.925309430216387"><ele>297.0</ele><time>2026-04-09T10:15:49Z</time></trkpt><trkpt lat="46.02477629576329" lon="11.925454986772284"><ele>297.0</ele><time>2026-04-09T10:15:50Z</time></trkpt><trkpt lat="46.02485807485471" lon="11.925595985289554"><ele>297.0</ele><time>2026-04-09T10:15:51Z</time></trkpt><trkpt lat="46.024926821058926" lon="11.925735669870452"><ele>297.0</ele><time>2026-04-09T10:15:52Z</time></trkpt><trkpt lat="46.02498912169239" lon="11.925883551891209"><ele>297.4</ele><time>2026-04-09T10:15:53Z</time></trkpt><trkpt lat="46.025051645351844" lon="11.92601875602058"><ele>297.79999999999995</ele><time>2026-04-09T10:15:54Z</time></trkpt><trkpt lat="46.02510675423338" lon="11.926142067632647"><ele>298.2</ele><time>2026-04-09T10:15:55Z</time></trkpt><trkpt lat="46.025156384776096" lon="11.926267790029176"><ele>298.59999999999997</ele><time>2026-04-09T10:15:56Z</time></trkpt><trkpt lat="46.02519474231831" lon="11.926409344619774"><ele>299.0</ele><time>2026-04-09T10:15:57Z</time></trkpt><trkpt lat="46.02524356542443" lon="11.926547940971824"><ele>299.0</ele><time>2026-04-09T10:15:58Z</time></trkpt><trkpt lat="46.02530507285507" lon="11.926694322701946"><ele>299.0</ele><time>2026-04-09T10:15:59Z</time></trkpt><trkpt lat="46.025362586298286" lon="11.926850054883387"><ele>299.0</ele><time>2026-04-09T10:16:00Z</time></trkpt><trkpt lat="46.02540369004705" lon="11.926974273460285"><ele>299.0</ele><time>2026-04-09T10:16:01Z</time></trkpt><trkpt lat="46.02543184508298" lon="11.927068628382665"><ele>299.0</ele><time>2026-04-09T10:16:02Z</time></trkpt><trkpt lat="46.02546253003917" lon="11.92716262104951"><ele>300.0</ele><time>2026-04-09T10:16:04Z</time></trkpt><trkpt lat="46.025497490307366" lon="11.927284105396915"><ele>301.0</ele><time>2026-04-09T10:16:11Z</time></trkpt><trkpt lat="46.02554060406196" lon="11.927422541453934"><ele>302.0</ele><time>2026-04-09T10:16:12Z</time></trkpt><trkpt lat="46.025590003227016" lon="11.92759415662389"><ele>303.0</ele><time>2026-04-09T10:16:13Z</time></trkpt><trkpt lat="46.02563900801003" lon="11.92775855772693"><ele>304.0</ele><time>2026-04-09T10:16:14Z</time></trkpt><trkpt lat="46.025696260947385" lon="11.927965489108116"><ele>305.0</ele><time>2026-04-09T10:16:15Z</time></trkpt><trkpt lat="46.02575271769082" lon="11.928159715355445"><ele>306.0</ele><time>2026-04-09T10:16:16Z</time></trkpt><trkpt lat="46.02581970928502" lon="11.928384009190344"><ele>304.3333333333333</ele><time>2026-04-09T10:16:17Z</time></trkpt><trkpt lat="46.025896999854076" lon="11.928640393293522"><ele>302.66666666666663</ele><time>2026-04-09T10:16:18Z</time></trkpt><trkpt lat="46.02596544547387" lon="11.92887387978284"><ele>301.0</ele><time>2026-04-09T10:16:19Z</time></trkpt><trkpt lat="46.02603000394862" lon="11.929098733625562"><ele>303.3333333333333</ele><time>2026-04-09T10:16:20Z</time></trkpt><trkpt lat="46.026096071837465" lon="11.92934957688435"><ele>305.6666666666667</ele><time>2026-04-09T10:16:21Z</time></trkpt><trkpt lat="46.02616646358241" lon="11.92958002730295"><ele>308.0</ele><time>2026-04-09T10:16:22Z</time></trkpt><trkpt lat="46.02623244480649" lon="11.929820974804556"><ele>309.6666666666667</ele><time>2026-04-09T10:16:23Z</time></trkpt><trkpt lat="46.02629484232811" lon="11.930069685606655"><ele>311.3333333333333</ele><time>2026-04-09T10:16:24Z</time></trkpt><trkpt lat="46.02635791179361" lon="11.930368956390181"><ele>313.0</ele><time>2026-04-09T10:16:25Z</time></trkpt><trkpt lat="46.02641182027166" lon="11.930665177259323"><ele>314.66666666666663</ele><time>2026-04-09T10:16:26Z</time></trkpt><trkpt lat="46.026461248788294" lon="11.93094464937449"><ele>316.3333333333333</ele><time>2026-04-09T10:16:27Z</time></trkpt><trkpt lat="46.026500281370744" lon="11.931243821697711"><ele>318.0</ele><time>2026-04-09T10:16:28Z</time></trkpt><trkpt lat="46.0265349485533" lon="11.931559089656403"><ele>318.5</ele><time>2026-04-09T10:16:29Z</time></trkpt><trkpt lat="46.02656417085506" lon="11.931902359694789"><ele>319.0</ele><time>2026-04-09T10:16:30Z</time></trkpt><trkpt lat="46.02658868763936" lon="11.932261481083925"><ele>321.0</ele><time>2026-04-09T10:16:31Z</time></trkpt><trkpt lat="46.0266061304346" lon="11.932589938500955"><ele>323.0</ele><time>2026-04-09T10:16:32Z</time></trkpt><trkpt lat="46.02662655688174" lon="11.932942912360398"><ele>323.0</ele><time>2026-04-09T10:16:33Z</time></trkpt><trkpt lat="46.0266439705236" lon="11.933306718468305"><ele>323.0</ele><time>2026-04-09T10:16:34Z</time></trkpt><trkpt lat="46.02666471398592" lon="11.93367675622099"><ele>315.5</ele><time>2026-04-09T10:16:35Z</time></trkpt><trkpt lat="46.02669142920304" lon="11.934051763727611"><ele>308.0</ele><time>2026-04-09T10:16:36Z</time></trkpt><trkpt lat="46.026727234953185" lon="11.934430609991992"><ele>308.0</ele><time>2026-04-09T10:16:37Z</time></trkpt><trkpt lat="46.02677730811078" lon="11.9348127847678"><ele>308.0</ele><time>2026-04-09T10:16:38Z</time></trkpt><trkpt lat="46.02684160992315" lon="11.935212537130313"><ele>308.0</ele><time>2026-04-09T10:16:39Z</time></trkpt><trkpt lat="46.02691712718311" lon="11.935626132392391"><ele>308.0</ele><time>2026-04-09T10:16:40Z</time></trkpt><trkpt lat="46.02699431696453" lon="11.93603227646425"><ele>311.5</ele><time>2026-04-09T10:16:41Z</time></trkpt><trkpt lat="46.0270633423155" lon="11.936402920405808"><ele>315.0</ele><time>2026-04-09T10:16:42Z</time></trkpt><trkpt lat="46.02712588894189" lon="11.93676111829264"><ele>315.5</ele><time>2026-04-09T10:16:43Z</time></trkpt><trkpt lat="46.027193334848285" lon="11.937119211985118"><ele>316.0</ele><time>2026-04-09T10:16:44Z</time></trkpt><trkpt lat="46.02726309252728" lon="11.937469349682138"><ele>314.0</ele><time>2026-04-09T10:16:45Z</time></trkpt><trkpt lat="46.027332255499125" lon="11.937817572756805"><ele>312.0</ele><time>2026-04-09T10:16:46Z</time></trkpt><trkpt lat="46.02740483347446" lon="11.938164331360031"><ele>309.5</ele><time>2026-04-09T10:16:47Z</time></trkpt><trkpt lat="46.02747684334437" lon="11.93851402309265"><ele>307.0</ele><time>2026-04-09T10:16:48Z</time></trkpt><trkpt lat="46.0275502523015" lon="11.938852097347514"><ele>306.0</ele><time>2026-04-09T10:16:49Z</time></trkpt><trkpt lat="46.02763755384392" lon="11.939186822570354"><ele>305.0</ele><time>2026-04-09T10:16:50Z</time></trkpt><trkpt lat="46.02773409727316" lon="11.939524211021535"><ele>305.0</ele><time>2026-04-09T10:16:51Z</time></trkpt><trkpt lat="46.02783526932951" lon="11.939871148738307"><ele>305.0</ele><time>2026-04-09T10:16:52Z</time></trkpt><trkpt lat="46.02793680844678" lon="11.940222863841074"><ele>307.5</ele><time>2026-04-09T10:16:53Z</time></trkpt><trkpt lat="46.02803839222686" lon="11.940573570188409"><ele>310.0</ele><time>2026-04-09T10:16:54Z</time></trkpt><trkpt lat="46.028136910592394" lon="11.940921156887116"><ele>310.5</ele><time>2026-04-09T10:16:55Z</time></trkpt><trkpt lat="46.02823649751598" lon="11.941266240515276"><ele>311.0</ele><time>2026-04-09T10:16:56Z</time></trkpt><trkpt lat="46.02833504071476" lon="11.9416102635236"><ele>313.0</ele><time>2026-04-09T10:16:57Z</time></trkpt><trkpt lat="46.028434722882565" lon="11.941954065692084"><ele>315.0</ele><time>2026-04-09T10:16:58Z</time></trkpt><trkpt lat="46.028529411036025" lon="11.942287315966967"><ele>315.0</ele><time>2026-04-09T10:16:59Z</time></trkpt><trkpt lat="46.028618627378684" lon="11.942591876690937"><ele>315.0</ele><time>2026-04-09T10:17:00Z</time></trkpt><trkpt lat="46.02870560875221" lon="11.942893645325174"><ele>315.0</ele><time>2026-04-09T10:17:01Z</time></trkpt><trkpt lat="46.02879056689473" lon="11.943189013703485"><ele>315.0</ele><time>2026-04-09T10:17:02Z</time></trkpt><trkpt lat="46.028874152436856" lon="11.943480225324153"><ele>315.0</ele><time>2026-04-09T10:17:03Z</time></trkpt><trkpt lat="46.028960608776366" lon="11.943780258326582"><ele>315.5</ele><time>2026-04-09T10:17:04Z</time></trkpt><trkpt lat="46.02905091506283" lon="11.944093911852145"><ele>316.0</ele><time>2026-04-09T10:17:05Z</time></trkpt><trkpt lat="46.02913709711627" lon="11.944413005263803"><ele>315.5</ele><time>2026-04-09T10:17:06Z</time></trkpt><trkpt lat="46.029218265163905" lon="11.94474131177683"><ele>315.0</ele><time>2026-04-09T10:17:07Z</time></trkpt><trkpt lat="46.0292932307534" lon="11.945076871262453"><ele>314.0</ele><time>2026-04-09T10:17:08Z</time></trkpt><trkpt lat="46.02935967681191" lon="11.945402008131374"><ele>313.0</ele><time>2026-04-09T10:17:09Z</time></trkpt><trkpt lat="46.02941687232055" lon="11.945730088887279"><ele>313.5</ele><time>2026-04-09T10:17:10Z</time></trkpt><trkpt lat="46.029476743293245" lon="11.946054522528257"><ele>314.0</ele><time>2026-04-09T10:17:11.001Z</time></trkpt><trkpt lat="46.02953449019859" lon="11.946362548622545"><ele>314.0</ele><time>2026-04-09T10:17:12.001Z</time></trkpt><trkpt lat="46.0295889471393" lon="11.946653533505737"><ele>314.0</ele><time>2026-04-09T10:17:13.001Z</time></trkpt><trkpt lat="46.02964005923763" lon="11.94693224076615"><ele>314.0</ele><time>2026-04-09T10:17:14.001Z</time></trkpt><trkpt lat="46.02968885135624" lon="11.947197051906176"><ele>313.6666666666667</ele><time>2026-04-09T10:17:15.001Z</time></trkpt><trkpt lat="46.02973627527646" lon="11.947453216817072"><ele>313.3333333333333</ele><time>2026-04-09T10:17:16.001Z</time></trkpt><trkpt lat="46.029784661879525" lon="11.947718073776128"><ele>313.0</ele><time>2026-04-09T10:17:17.001Z</time></trkpt><trkpt lat="46.02983499419167" lon="11.947988838780676"><ele>312.66666666666663</ele><time>2026-04-09T10:17:18.001Z</time></trkpt><trkpt lat="46.02988747589469" lon="11.948264179664775"><ele>312.3333333333333</ele><time>2026-04-09T10:17:19.001Z</time></trkpt><trkpt lat="46.029938155746336" lon="11.948541327860351"><ele>312.0</ele><time>2026-04-09T10:17:20.001Z</time></trkpt><trkpt lat="46.02998860530187" lon="11.948813488498855"><ele>312.0</ele><time>2026-04-09T10:17:21.001Z</time></trkpt><trkpt lat="46.03003472031173" lon="11.949067470122337"><ele>312.0</ele><time>2026-04-09T10:17:22Z</time></trkpt><trkpt lat="46.030078431605126" lon="11.949312387204538"><ele>312.0</ele><time>2026-04-09T10:17:23Z</time></trkpt><trkpt lat="46.03012094131775" lon="11.949550551357197"><ele>311.0</ele><time>2026-04-09T10:17:24Z</time></trkpt><trkpt lat="46.03016492017161" lon="11.949784509760645"><ele>310.0</ele><time>2026-04-09T10:17:25Z</time></trkpt><trkpt lat="46.03020888762083" lon="11.950015100639467"><ele>309.0</ele><time>2026-04-09T10:17:26Z</time></trkpt><trkpt lat="46.03025265336853" lon="11.950244687713573"><ele>308.3333333333333</ele><time>2026-04-09T10:17:27Z</time></trkpt><trkpt lat="46.030296948788944" lon="11.950476636499788"><ele>307.66666666666663</ele><time>2026-04-09T10:17:28Z</time></trkpt><trkpt lat="46.03034079991145" lon="11.950712218767634"><ele>307.0</ele><time>2026-04-09T10:17:29Z</time></trkpt><trkpt lat="46.03038660081562" lon="11.9509577685769"><ele>307.0</ele><time>2026-04-09T10:17:30Z</time></trkpt><trkpt lat="46.03043562567587" lon="11.95122012016655"><ele>307.0</ele><time>2026-04-09T10:17:31Z</time></trkpt><trkpt lat="46.03048470115653" lon="11.951486662497407"><ele>307.0</ele><time>2026-04-09T10:17:32Z</time></trkpt><trkpt lat="46.03052882411845" lon="11.951736851063815"><ele>306.0</ele><time>2026-04-09T10:17:33Z</time></trkpt><trkpt lat="46.03057058398326" lon="11.951974205582973"><ele>305.0</ele><time>2026-04-09T10:17:34Z</time></trkpt><trkpt lat="46.03060658343391" lon="11.952206816520437"><ele>304.0</ele><time>2026-04-09T10:17:35Z</time></trkpt><trkpt lat="46.03063988792548" lon="11.95244217078016"><ele>303.66666666666663</ele><time>2026-04-09T10:17:36Z</time></trkpt><trkpt lat="46.03066945137739" lon="11.952678306476189"><ele>303.3333333333333</ele><time>2026-04-09T10:17:37Z</time></trkpt><trkpt lat="46.03070014791452" lon="11.95292489601962"><ele>303.0</ele><time>2026-04-09T10:17:38Z</time></trkpt><trkpt lat="46.03072491828338" lon="11.953173881880666"><ele>303.0</ele><time>2026-04-09T10:17:39Z</time></trkpt><trkpt lat="46.03073934452902" lon="11.953397120831742"><ele>303.0</ele><time>2026-04-09T10:17:40Z</time></trkpt><trkpt lat="46.0307580320328" lon="11.9536109470691"><ele>303.0</ele><time>2026-04-09T10:17:41Z</time></trkpt><trkpt lat="46.030779849796744" lon="11.953821342563907"><ele>303.0</ele><time>2026-04-09T10:17:42Z</time></trkpt><trkpt lat="46.03079839731373" lon="11.954014331840566"><ele>303.0</ele><time>2026-04-09T10:17:43Z</time></trkpt><trkpt lat="46.03081556929652" lon="11.954197819031174"><ele>303.0</ele><time>2026-04-09T10:17:44Z</time></trkpt><trkpt lat="46.03083395939797" lon="11.954388130991289"><ele>303.0</ele><time>2026-04-09T10:17:45Z</time></trkpt><trkpt lat="46.030855503642975" lon="11.954596762376601"><ele>301.3333333333333</ele><time>2026-04-09T10:17:46Z</time></trkpt><trkpt lat="46.03087740305253" lon="11.954830583235688"><ele>299.66666666666663</ele><time>2026-04-09T10:17:47Z</time></trkpt><trkpt lat="46.030906948011065" lon="11.955094652509235"><ele>298.0</ele><time>2026-04-09T10:17:48Z</time></trkpt><trkpt lat="46.030940899964264" lon="11.955381125010799"><ele>297.66666666666663</ele><time>2026-04-09T10:17:49Z</time></trkpt><trkpt lat="46.03096237326214" lon="11.955649733375548"><ele>297.3333333333333</ele><time>2026-04-09T10:17:50Z</time></trkpt><trkpt lat="46.030985884208945" lon="11.955900535347167"><ele>297.0</ele><time>2026-04-09T10:17:51Z</time></trkpt><trkpt lat="46.03100521259551" lon="11.95613941857487"><ele>296.6666666666667</ele><time>2026-04-09T10:17:52Z</time></trkpt><trkpt lat="46.03102795378696" lon="11.956387049458547"><ele>296.33333333333337</ele><time>2026-04-09T10:17:53Z</time></trkpt><trkpt lat="46.03105420245606" lon="11.956643511673517"><ele>296.0</ele><time>2026-04-09T10:17:54Z</time></trkpt><trkpt lat="46.03108946297787" lon="11.956931852433744"><ele>295.0</ele><time>2026-04-09T10:17:55Z</time></trkpt><trkpt lat="46.031121821412185" lon="11.95724554299908"><ele>294.0</ele><time>2026-04-09T10:17:56Z</time></trkpt><trkpt lat="46.03114835409746" lon="11.957556932549027"><ele>293.0</ele><time>2026-04-09T10:17:57Z</time></trkpt><trkpt lat="46.03116941535666" lon="11.957852924719136"><ele>292.33333333333337</ele><time>2026-04-09T10:17:58Z</time></trkpt><trkpt lat="46.03119088510347" lon="11.958133817141293"><ele>291.6666666666667</ele><time>2026-04-09T10:17:59Z</time></trkpt><trkpt lat="46.03121009570162" lon="11.9584087880952"><ele>291.0</ele><time>2026-04-09T10:18:00Z</time></trkpt><trkpt lat="46.0312366727521" lon="11.958671454944133"><ele>290.75</ele><time>2026-04-09T10:18:01Z</time></trkpt><trkpt lat="46.03125964037166" lon="11.958915397572154"><ele>290.5</ele><time>2026-04-09T10:18:02Z</time></trkpt><trkpt lat="46.031278140521344" lon="11.959113212558716"><ele>290.25</ele><time>2026-04-09T10:18:03Z</time></trkpt><trkpt lat="46.031295647414154" lon="11.959289131994296"><ele>290.0</ele><time>2026-04-09T10:18:04Z</time></trkpt><trkpt lat="46.03131190593951" lon="11.959448821620933"><ele>289.6666666666667</ele><time>2026-04-09T10:18:05Z</time></trkpt><trkpt lat="46.03131983979067" lon="11.95958758059695"><ele>289.33333333333337</ele><time>2026-04-09T10:18:06Z</time></trkpt><trkpt lat="46.031313801436134" lon="11.959715646604728"><ele>289.0</ele><time>2026-04-09T10:18:07Z</time></trkpt><trkpt lat="46.03129186064694" lon="11.959830328628623"><ele>288.6666666666667</ele><time>2026-04-09T10:18:08Z</time></trkpt><trkpt lat="46.03126360517327" lon="11.959943764776607"><ele>288.3333333333333</ele><time>2026-04-09T10:18:09Z</time></trkpt><trkpt lat="46.03126573146046" lon="11.960052517313969"><ele>288.0</ele><time>2026-04-09T10:18:10Z</time></trkpt><trkpt lat="46.03130305877755" lon="11.960170599154777"><ele>287.75</ele><time>2026-04-09T10:18:11Z</time></trkpt><trkpt lat="46.03135772748401" lon="11.96030495802097"><ele>287.5</ele><time>2026-04-09T10:18:12Z</time></trkpt><trkpt lat="46.03139592909794" lon="11.960476125681465"><ele>287.25</ele><time>2026-04-09T10:18:13Z</time></trkpt><trkpt lat="46.03142063983001" lon="11.960681084584971"><ele>287.0</ele><time>2026-04-09T10:18:14Z</time></trkpt><trkpt lat="46.03143737218219" lon="11.960884801020454"><ele>286.5</ele><time>2026-04-09T10:18:15Z</time></trkpt><trkpt lat="46.03144965475978" lon="11.961071225974768"><ele>286.0</ele><time>2026-04-09T10:18:16Z</time></trkpt><trkpt lat="46.03146652410659" lon="11.961264678183843"><ele>285.5</ele><time>2026-04-09T10:18:17Z</time></trkpt><trkpt lat="46.03148848991422" lon="11.96146711405341"><ele>285.0</ele><time>2026-04-09T10:18:18Z</time></trkpt><trkpt lat="46.031510048182916" lon="11.961679233999476"><ele>285.3333333333333</ele><time>2026-04-09T10:18:19Z</time></trkpt><trkpt lat="46.031535291470405" lon="11.961894916355321"><ele>285.66666666666663</ele><time>2026-04-09T10:18:20Z</time></trkpt><trkpt lat="46.03157976776167" lon="11.962118874878229"><ele>286.0</ele><time>2026-04-09T10:18:21Z</time></trkpt><trkpt lat="46.031640626969434" lon="11.962348864034702"><ele>286.3333333333333</ele><time>2026-04-09T10:18:22Z</time></trkpt><trkpt lat="46.03172060798461" lon="11.962563792782971"><ele>286.6666666666667</ele><time>2026-04-09T10:18:23Z</time></trkpt><trkpt lat="46.031808315210384" lon="11.962769493631484"><ele>287.0</ele><time>2026-04-09T10:18:24Z</time></trkpt><trkpt lat="46.031913725648764" lon="11.962974110829657"><ele>287.0</ele><time>2026-04-09T10:18:25Z</time></trkpt><trkpt lat="46.032036974655924" lon="11.96317845050057"><ele>287.0</ele><time>2026-04-09T10:18:26Z</time></trkpt><trkpt lat="46.03216787364984" lon="11.963394947522291"><ele>287.0</ele><time>2026-04-09T10:18:27Z</time></trkpt><trkpt lat="46.03230032834131" lon="11.963619112885272"><ele>286.0</ele><time>2026-04-09T10:18:28Z</time></trkpt><trkpt lat="46.03244329337065" lon="11.963848650872213"><ele>285.0</ele><time>2026-04-09T10:18:29Z</time></trkpt><trkpt lat="46.03257848841121" lon="11.964077651689484"><ele>284.0</ele><time>2026-04-09T10:18:30Z</time></trkpt><trkpt lat="46.03269346653419" lon="11.964292592683309"><ele>281.0</ele><time>2026-04-09T10:18:31Z</time></trkpt><trkpt lat="46.032798957443156" lon="11.964511620671628"><ele>278.0</ele><time>2026-04-09T10:18:32Z</time></trkpt><trkpt lat="46.03290197433041" lon="11.96475213509244"><ele>275.0</ele><time>2026-04-09T10:18:33Z</time></trkpt><trkpt lat="46.03299185293278" lon="11.965011817505152"><ele>274.33333333333337</ele><time>2026-04-09T10:18:34Z</time></trkpt><trkpt lat="46.03307569731669" lon="11.965294907973751"><ele>273.6666666666667</ele><time>2026-04-09T10:18:35Z</time></trkpt><trkpt lat="46.03316919921635" lon="11.965589419552169"><ele>273.0</ele><time>2026-04-09T10:18:36Z</time></trkpt><trkpt lat="46.03326051489067" lon="11.96587375193312"><ele>273.6666666666667</ele><time>2026-04-09T10:18:37Z</time></trkpt><trkpt lat="46.033338015303215" lon="11.966140271311595"><ele>274.33333333333337</ele><time>2026-04-09T10:18:38Z</time></trkpt><trkpt lat="46.033398418010954" lon="11.966414454048676"><ele>275.0</ele><time>2026-04-09T10:18:39Z</time></trkpt><trkpt lat="46.03344395789233" lon="11.966699519838372"><ele>273.6666666666667</ele><time>2026-04-09T10:18:40Z</time></trkpt><trkpt lat="46.03346972736875" lon="11.96699448286905"><ele>272.3333333333333</ele><time>2026-04-09T10:18:41Z</time></trkpt><trkpt lat="46.033475439529816" lon="11.967299066426673"><ele>271.0</ele><time>2026-04-09T10:18:42Z</time></trkpt><trkpt lat="46.03346891617106" lon="11.967623308836716"><ele>269.3333333333333</ele><time>2026-04-09T10:18:43Z</time></trkpt><trkpt lat="46.03345972113359" lon="11.96792154584944"><ele>267.6666666666667</ele><time>2026-04-09T10:18:44Z</time></trkpt><trkpt lat="46.03345109767812" lon="11.96821145616528"><ele>266.0</ele><time>2026-04-09T10:18:45Z</time></trkpt><trkpt lat="46.033445611924364" lon="11.96850547806426"><ele>266.0</ele><time>2026-04-09T10:18:46Z</time></trkpt><trkpt lat="46.033442581164316" lon="11.96879496608868"><ele>266.0</ele><time>2026-04-09T10:18:47Z</time></trkpt><trkpt lat="46.03343782785017" lon="11.96908103722686"><ele>266.0</ele><time>2026-04-09T10:18:48Z</time></trkpt><trkpt lat="46.0334421669543" lon="11.969362858781354"><ele>266.0</ele><time>2026-04-09T10:18:49Z</time></trkpt><trkpt lat="46.0334679698942" lon="11.969644093304055"><ele>266.0</ele><time>2026-04-09T10:18:50Z</time></trkpt><trkpt lat="46.033507949626596" lon="11.969925267850474"><ele>266.0</ele><time>2026-04-09T10:18:51Z</time></trkpt><trkpt lat="46.03357032541165" lon="11.970206395921085"><ele>265.0</ele><time>2026-04-09T10:18:52Z</time></trkpt><trkpt lat="46.03365533157327" lon="11.970487896559701"><ele>264.0</ele><time>2026-04-09T10:18:53Z</time></trkpt><trkpt lat="46.03375809483422" lon="11.970775737798196"><ele>263.0</ele><time>2026-04-09T10:18:54Z</time></trkpt><trkpt lat="46.033881843545956" lon="11.971088589466518"><ele>262.5</ele><time>2026-04-09T10:18:55Z</time></trkpt><trkpt lat="46.034003273419934" lon="11.971414504051374"><ele>262.0</ele><time>2026-04-09T10:18:56Z</time></trkpt><trkpt lat="46.03412077158721" lon="11.971733654550386"><ele>263.5</ele><time>2026-04-09T10:18:57Z</time></trkpt><trkpt lat="46.03423795179598" lon="11.972040032754906"><ele>265.0</ele><time>2026-04-09T10:18:58Z</time></trkpt><trkpt lat="46.03436245748073" lon="11.972373473610077"><ele>264.5</ele><time>2026-04-09T10:18:59Z</time></trkpt><trkpt lat="46.034491286827645" lon="11.972715627488768"><ele>264.0</ele><time>2026-04-09T10:19:00Z</time></trkpt><trkpt lat="46.03462559091352" lon="11.973062040312477"><ele>265.5</ele><time>2026-04-09T10:19:01Z</time></trkpt><trkpt lat="46.03476509250372" lon="11.97341398661454"><ele>267.0</ele><time>2026-04-09T10:19:02Z</time></trkpt><trkpt lat="46.034907434821065" lon="11.973770746246215"><ele>266.0</ele><time>2026-04-09T10:19:03Z</time></trkpt><trkpt lat="46.03505217567688" lon="11.974130923233695"><ele>265.0</ele><time>2026-04-09T10:19:04Z</time></trkpt><trkpt lat="46.035201162383785" lon="11.974483831677695"><ele>263.5</ele><time>2026-04-09T10:19:05Z</time></trkpt><trkpt lat="46.03534697372593" lon="11.974840989890781"><ele>262.0</ele><time>2026-04-09T10:19:06Z</time></trkpt><trkpt lat="46.03549185459398" lon="11.975198672009697"><ele>262.0</ele><time>2026-04-09T10:19:07Z</time></trkpt><trkpt lat="46.03563801658778" lon="11.97555714640299"><ele>262.0</ele><time>2026-04-09T10:19:08Z</time></trkpt><trkpt lat="46.03577460592422" lon="11.975889556882393"><ele>259.5</ele><time>2026-04-09T10:19:09Z</time></trkpt><trkpt lat="46.03590628852205" lon="11.976202324037558"><ele>257.0</ele><time>2026-04-09T10:19:10Z</time></trkpt><trkpt lat="46.03603209934974" lon="11.976501732018749"><ele>258.0</ele><time>2026-04-09T10:19:11Z</time></trkpt><trkpt lat="46.03615081840985" lon="11.976790170121616"><ele>259.0</ele><time>2026-04-09T10:19:12Z</time></trkpt><trkpt lat="46.036261316462706" lon="11.977067789270949"><ele>259.0</ele><time>2026-04-09T10:19:13Z</time></trkpt><trkpt lat="46.036367797851355" lon="11.977329955584736"><ele>259.0</ele><time>2026-04-09T10:19:14Z</time></trkpt><trkpt lat="46.0364788435021" lon="11.977589771870653"><ele>259.0</ele><time>2026-04-09T10:19:15Z</time></trkpt><trkpt lat="46.03658890444314" lon="11.977857925788197"><ele>258.0</ele><time>2026-04-09T10:19:16Z</time></trkpt><trkpt lat="46.036705040836644" lon="11.978130415889973"><ele>257.0</ele><time>2026-04-09T10:19:17Z</time></trkpt><trkpt lat="46.03682436280563" lon="11.978410551753576"><ele>259.0</ele><time>2026-04-09T10:19:18Z</time></trkpt><trkpt lat="46.03693992979477" lon="11.978696234496661"><ele>261.0</ele><time>2026-04-09T10:19:19Z</time></trkpt><trkpt lat="46.037069649553914" lon="11.979003392084"><ele>259.0</ele><time>2026-04-09T10:19:20Z</time></trkpt><trkpt lat="46.037187453309556" lon="11.979289307639009"><ele>257.0</ele><time>2026-04-09T10:19:21Z</time></trkpt><trkpt lat="46.0372893685977" lon="11.979565003463474"><ele>255.0</ele><time>2026-04-09T10:19:22Z</time></trkpt><trkpt lat="46.037387869997275" lon="11.97983273822796"><ele>252.33333333333331</ele><time>2026-04-09T10:19:23Z</time></trkpt><trkpt lat="46.03748412035543" lon="11.980087472520374"><ele>249.66666666666666</ele><time>2026-04-09T10:19:24Z</time></trkpt><trkpt lat="46.03756363014948" lon="11.980287452187815"><ele>247.0</ele><time>2026-04-09T10:19:25Z</time></trkpt><trkpt lat="46.03763761200074" lon="11.980475475209943"><ele>247.0</ele><time>2026-04-09T10:19:26Z</time></trkpt><trkpt lat="46.03771220534411" lon="11.98065858823236"><ele>247.0</ele><time>2026-04-09T10:19:27Z</time></trkpt><trkpt lat="46.03778172666358" lon="11.980837166270971"><ele>247.0</ele><time>2026-04-09T10:19:28Z</time></trkpt><trkpt lat="46.03784970083279" lon="11.981008448728783"><ele>247.0</ele><time>2026-04-09T10:19:29Z</time></trkpt><trkpt lat="46.0379206172908" lon="11.981170762370866"><ele>247.0</ele><time>2026-04-09T10:19:30Z</time></trkpt><trkpt lat="46.03798987897352" lon="11.981326880215523"><ele>247.0</ele><time>2026-04-09T10:19:31Z</time></trkpt><trkpt lat="46.03805610929745" lon="11.981484598377051"><ele>247.0</ele><time>2026-04-09T10:19:32Z</time></trkpt><trkpt lat="46.038118611328585" lon="11.981644580206506"><ele>247.0</ele><time>2026-04-09T10:19:33Z</time></trkpt><trkpt lat="46.0381764681009" lon="11.981794251891817"><ele>246.8</ele><time>2026-04-09T10:19:34Z</time></trkpt><trkpt lat="46.03823214806999" lon="11.981934620687456"><ele>246.6</ele><time>2026-04-09T10:19:35Z</time></trkpt><trkpt lat="46.038287222612375" lon="11.982061307311564"><ele>246.40000000000003</ele><time>2026-04-09T10:19:36Z</time></trkpt><trkpt lat="46.03833866463792" lon="11.98217592589551"><ele>246.20000000000002</ele><time>2026-04-09T10:19:37Z</time></trkpt><trkpt lat="46.03838632183244" lon="11.982288952658001"><ele>246.0</ele><time>2026-04-09T10:19:38Z</time></trkpt><trkpt lat="46.03842967331398" lon="11.982391904824484"><ele>246.00000000000003</ele><time>2026-04-09T10:19:39Z</time></trkpt><trkpt lat="46.038468563121214" lon="11.982489785125013"><ele>246.0</ele><time>2026-04-09T10:19:40Z</time></trkpt><trkpt lat="46.03850461977469" lon="11.98258472009787"><ele>246.00000000000003</ele><time>2026-04-09T10:19:41Z</time></trkpt><trkpt lat="46.03853167895831" lon="11.982680008231073"><ele>246.00000000000003</ele><time>2026-04-09T10:19:42Z</time></trkpt><trkpt lat="46.03854116033288" lon="11.982778968266691"><ele>246.0</ele><time>2026-04-09T10:19:43Z</time></trkpt><trkpt lat="46.0385357381206" lon="11.982878054439517"><ele>246.00000000000003</ele><time>2026-04-09T10:19:44Z</time></trkpt><trkpt lat="46.038532628286674" lon="11.982989984599204"><ele>246.00000000000003</ele><time>2026-04-09T10:19:45Z</time></trkpt><trkpt lat="46.03855706573404" lon="11.983104221515227"><ele>246.0</ele><time>2026-04-09T10:19:46Z</time></trkpt><trkpt lat="46.0385990880547" lon="11.983218731196294"><ele>246.00000000000003</ele><time>2026-04-09T10:19:47Z</time></trkpt><trkpt lat="46.03865151534927" lon="11.983335176732378"><ele>246.00000000000003</ele><time>2026-04-09T10:19:48Z</time></trkpt><trkpt lat="46.03869477539753" lon="11.98346802537417"><ele>246.0</ele><time>2026-04-09T10:19:49Z</time></trkpt><trkpt lat="46.03872767831891" lon="11.983598302663633"><ele>246.0</ele><time>2026-04-09T10:19:50Z</time></trkpt><trkpt lat="46.03869860732815" lon="11.9837559153671"><ele>246.0</ele><time>2026-04-09T10:19:51Z</time></trkpt><trkpt lat="46.03868376753304" lon="11.983935090401056"><ele>246.0</ele><time>2026-04-09T10:19:52Z</time></trkpt><trkpt lat="46.03865118010545" lon="11.984127574872069"><ele>246.0</ele><time>2026-04-09T10:19:53Z</time></trkpt><trkpt lat="46.03859730039567" lon="11.984324424718421"><ele>246.0</ele><time>2026-04-09T10:19:54Z</time></trkpt><trkpt lat="46.03852949998779" lon="11.984501858438811"><ele>244.0</ele><time>2026-04-09T10:19:55Z</time></trkpt><trkpt lat="46.038454852874246" lon="11.984673496808968"><ele>242.0</ele><time>2026-04-09T10:19:56Z</time></trkpt><trkpt lat="46.03837873402889" lon="11.98486390199929"><ele>240.0</ele><time>2026-04-09T10:19:57Z</time></trkpt><trkpt lat="46.038302416177785" lon="11.985063976471418"><ele>240.66666666666669</ele><time>2026-04-09T10:19:58Z</time></trkpt><trkpt lat="46.03822134169242" lon="11.9852691973676"><ele>241.33333333333334</ele><time>2026-04-09T10:19:59Z</time></trkpt><trkpt lat="46.0381415827033" lon="11.985471421665007"><ele>242.0</ele><time>2026-04-09T10:20:00Z</time></trkpt><trkpt lat="46.03807606276154" lon="11.985664993824933"><ele>239.0</ele><time>2026-04-09T10:20:01Z</time></trkpt><trkpt lat="46.03803261786943" lon="11.985864312002883"><ele>236.0</ele><time>2026-04-09T10:20:02Z</time></trkpt><trkpt lat="46.03801503578958" lon="11.9860824796414"><ele>233.0</ele><time>2026-04-09T10:20:03Z</time></trkpt><trkpt lat="46.03801202682158" lon="11.986330885134949"><ele>233.0</ele><time>2026-04-09T10:20:04Z</time></trkpt><trkpt lat="46.03800762090789" lon="11.986621710491487"><ele>233.0</ele><time>2026-04-09T10:20:05Z</time></trkpt><trkpt lat="46.03799834131515" lon="11.98692616140039"><ele>233.0</ele><time>2026-04-09T10:20:06Z</time></trkpt><trkpt lat="46.03798990877878" lon="11.987190619864768"><ele>232.66666666666669</ele><time>2026-04-09T10:20:07Z</time></trkpt><trkpt lat="46.03798403601636" lon="11.987443054443343"><ele>232.33333333333331</ele><time>2026-04-09T10:20:08Z</time></trkpt><trkpt lat="46.03797971685478" lon="11.987685124465074"><ele>232.0</ele><time>2026-04-09T10:20:09Z</time></trkpt><trkpt lat="46.03798349278036" lon="11.987913298153854"><ele>232.66666666666666</ele><time>2026-04-09T10:20:10Z</time></trkpt><trkpt lat="46.03800500824897" lon="11.988142617408629"><ele>233.33333333333331</ele><time>2026-04-09T10:20:11Z</time></trkpt><trkpt lat="46.038034689560426" lon="11.988360713417642"><ele>234.0</ele><time>2026-04-09T10:20:12Z</time></trkpt><trkpt lat="46.0380637121126" lon="11.9885616909994"><ele>234.5</ele><time>2026-04-09T10:20:13Z</time></trkpt><trkpt lat="46.03808921148803" lon="11.988751682420304"><ele>235.0</ele><time>2026-04-09T10:20:14Z</time></trkpt><trkpt lat="46.03811327909907" lon="11.988930964192027"><ele>235.5</ele><time>2026-04-09T10:20:15Z</time></trkpt><trkpt lat="46.03813926104444" lon="11.989104718351562"><ele>236.0</ele><time>2026-04-09T10:20:16Z</time></trkpt><trkpt lat="46.03816439482981" lon="11.989276329811247"><ele>236.75</ele><time>2026-04-09T10:20:17Z</time></trkpt><trkpt lat="46.0381910120406" lon="11.989452159143353"><ele>237.5</ele><time>2026-04-09T10:20:18Z</time></trkpt><trkpt lat="46.038215849568125" lon="11.989639665017117"><ele>238.25</ele><time>2026-04-09T10:20:19Z</time></trkpt><trkpt lat="46.038230973098386" lon="11.989851515472473"><ele>239.0</ele><time>2026-04-09T10:20:20Z</time></trkpt><trkpt lat="46.03823161402952" lon="11.990081914032649"><ele>239.33333333333334</ele><time>2026-04-09T10:20:21Z</time></trkpt><trkpt lat="46.03821850284048" lon="11.990308189623583"><ele>239.66666666666669</ele><time>2026-04-09T10:20:22Z</time></trkpt><trkpt lat="46.03819486001448" lon="11.990532902936428"><ele>240.0</ele><time>2026-04-09T10:20:23Z</time></trkpt><trkpt lat="46.03817067967384" lon="11.99074122783244"><ele>240.0</ele><time>2026-04-09T10:20:24Z</time></trkpt><trkpt lat="46.03814944736751" lon="11.990937078943665"><ele>240.0</ele><time>2026-04-09T10:20:25Z</time></trkpt><trkpt lat="46.038129243143025" lon="11.991113968780283"><ele>240.0</ele><time>2026-04-09T10:20:26Z</time></trkpt><trkpt lat="46.038110900599754" lon="11.991287231325822"><ele>240.0</ele><time>2026-04-09T10:20:27Z</time></trkpt><trkpt lat="46.03809512112627" lon="11.991479970157942"><ele>240.33333333333331</ele><time>2026-04-09T10:20:28Z</time></trkpt><trkpt lat="46.038082077437814" lon="11.991681566882294"><ele>240.66666666666666</ele><time>2026-04-09T10:20:29Z</time></trkpt><trkpt lat="46.03807162202962" lon="11.99189664548502"><ele>241.0</ele><time>2026-04-09T10:20:30Z</time></trkpt><trkpt lat="46.03805534629286" lon="11.992138416458257"><ele>241.0</ele><time>2026-04-09T10:20:31Z</time></trkpt><trkpt lat="46.03803129777614" lon="11.99237545898854"><ele>241.0</ele><time>2026-04-09T10:20:32Z</time></trkpt><trkpt lat="46.03800698240429" lon="11.99259031775814"><ele>241.0</ele><time>2026-04-09T10:20:33Z</time></trkpt><trkpt lat="46.03798493727793" lon="11.992796031344268"><ele>240.75</ele><time>2026-04-09T10:20:34Z</time></trkpt><trkpt lat="46.037963445556194" lon="11.99300933924519"><ele>240.5</ele><time>2026-04-09T10:20:35Z</time></trkpt><trkpt lat="46.037941140543786" lon="11.993224223605322"><ele>240.25</ele><time>2026-04-09T10:20:36Z</time></trkpt><trkpt lat="46.037917967398386" lon="11.993434582900703"><ele>240.0</ele><time>2026-04-09T10:20:37Z</time></trkpt><trkpt lat="46.03788921996762" lon="11.99363716062373"><ele>240.0</ele><time>2026-04-09T10:20:38Z</time></trkpt><trkpt lat="46.03786221012788" lon="11.99384314667738"><ele>240.0</ele><time>2026-04-09T10:20:39Z</time></trkpt><trkpt lat="46.03784943120976" lon="11.994052847598818"><ele>240.0</ele><time>2026-04-09T10:20:40Z</time></trkpt><trkpt lat="46.03784832745652" lon="11.994270594242712"><ele>240.0</ele><time>2026-04-09T10:20:41Z</time></trkpt><trkpt lat="46.03784282290021" lon="11.994493006463795"><ele>240.66666666666669</ele><time>2026-04-09T10:20:42Z</time></trkpt><trkpt lat="46.03782911896811" lon="11.994774250541312"><ele>241.33333333333334</ele><time>2026-04-09T10:20:43Z</time></trkpt><trkpt lat="46.03780558198762" lon="11.995076641043491"><ele>242.0</ele><time>2026-04-09T10:20:44Z</time></trkpt><trkpt lat="46.037771122443225" lon="11.995398106704219"><ele>242.0</ele><time>2026-04-09T10:20:45Z</time></trkpt><trkpt lat="46.03773772449755" lon="11.995707508729613"><ele>242.0</ele><time>2026-04-09T10:20:46Z</time></trkpt><trkpt lat="46.03771522986935" lon="11.996032738062988"><ele>242.0</ele><time>2026-04-09T10:20:47Z</time></trkpt><trkpt lat="46.0377063906236" lon="11.996386411331507"><ele>241.5</ele><time>2026-04-09T10:20:48Z</time></trkpt><trkpt lat="46.03770469065102" lon="11.996747337562837"><ele>241.0</ele><time>2026-04-09T10:20:49Z</time></trkpt><trkpt lat="46.037710589634834" lon="11.997077432572427"><ele>241.0</ele><time>2026-04-09T10:20:50Z</time></trkpt><trkpt lat="46.03772222853125" lon="11.997417259775883"><ele>241.0</ele><time>2026-04-09T10:20:51Z</time></trkpt><trkpt lat="46.03773978888767" lon="11.997759534171426"><ele>241.5</ele><time>2026-04-09T10:20:52Z</time></trkpt><trkpt lat="46.037769262003934" lon="11.99810290407712"><ele>242.0</ele><time>2026-04-09T10:20:53Z</time></trkpt><trkpt lat="46.03780797486229" lon="11.99846111927968"><ele>242.0</ele><time>2026-04-09T10:20:54Z</time></trkpt><trkpt lat="46.03785049475318" lon="11.998823785880743"><ele>242.0</ele><time>2026-04-09T10:20:55Z</time></trkpt><trkpt lat="46.037900402956986" lon="11.999190333536584"><ele>241.5</ele><time>2026-04-09T10:20:56Z</time></trkpt><trkpt lat="46.03795974369975" lon="11.99955277446058"><ele>241.0</ele><time>2026-04-09T10:20:57Z</time></trkpt><trkpt lat="46.03802497554693" lon="11.999885257039084"><ele>241.0</ele><time>2026-04-09T10:20:58Z</time></trkpt><trkpt lat="46.03810329705402" lon="12.000212756438247"><ele>241.0</ele><time>2026-04-09T10:20:59Z</time></trkpt><trkpt lat="46.03820127719486" lon="12.000539754235358"><ele>242.5</ele><time>2026-04-09T10:21:00Z</time></trkpt><trkpt lat="46.038310058493046" lon="12.00086666218049"><ele>244.0</ele><time>2026-04-09T10:21:01Z</time></trkpt><trkpt lat="46.03842356873011" lon="12.001173221845194"><ele>244.0</ele><time>2026-04-09T10:21:02Z</time></trkpt><trkpt lat="46.038537133741336" lon="12.001445348675047"><ele>244.0</ele><time>2026-04-09T10:21:03Z</time></trkpt><trkpt lat="46.03865478971903" lon="12.001723359873505"><ele>244.0</ele><time>2026-04-09T10:21:04Z</time></trkpt><trkpt lat="46.03878128718356" lon="12.001995272889513"><ele>243.5</ele><time>2026-04-09T10:21:05Z</time></trkpt><trkpt lat="46.03892614160732" lon="12.0022483428974"><ele>243.0</ele><time>2026-04-09T10:21:06Z</time></trkpt><trkpt lat="46.039089283037285" lon="12.002515772290247"><ele>243.0</ele><time>2026-04-09T10:21:07Z</time></trkpt><trkpt lat="46.039254998962285" lon="12.00278504785697"><ele>243.0</ele><time>2026-04-09T10:21:08Z</time></trkpt><trkpt lat="46.03940709473791" lon="12.003023571538614"><ele>243.0</ele><time>2026-04-09T10:21:09Z</time></trkpt><trkpt lat="46.03954700333898" lon="12.00324974624149"><ele>243.0</ele><time>2026-04-09T10:21:10Z</time></trkpt><trkpt lat="46.039664271680294" lon="12.00346561105341"><ele>243.0</ele><time>2026-04-09T10:21:11Z</time></trkpt><trkpt lat="46.03977265696804" lon="12.003675511754638"><ele>243.0</ele><time>2026-04-09T10:21:12Z</time></trkpt><trkpt lat="46.03987340683713" lon="12.003878348402964"><ele>243.0</ele><time>2026-04-09T10:21:13Z</time></trkpt><trkpt lat="46.0399716795583" lon="12.004084462555271"><ele>243.0</ele><time>2026-04-09T10:21:14Z</time></trkpt><trkpt lat="46.04007810271771" lon="12.004312995368933"><ele>243.66666666666669</ele><time>2026-04-09T10:21:15Z</time></trkpt><trkpt lat="46.040193566144715" lon="12.004558186819885"><ele>244.33333333333334</ele><time>2026-04-09T10:21:16Z</time></trkpt><trkpt lat="46.04031746337542" lon="12.004816707837445"><ele>245.0</ele><time>2026-04-09T10:21:17Z</time></trkpt><trkpt lat="46.040438325675005" lon="12.005093906682232"><ele>245.5</ele><time>2026-04-09T10:21:18Z</time></trkpt><trkpt lat="46.04055819157225" lon="12.00538641157438"><ele>246.0</ele><time>2026-04-09T10:21:19Z</time></trkpt><trkpt lat="46.04067925668497" lon="12.005674522830791"><ele>246.0</ele><time>2026-04-09T10:21:20Z</time></trkpt><trkpt lat="46.04079207818733" lon="12.00593257579351"><ele>246.0</ele><time>2026-04-09T10:21:21Z</time></trkpt><trkpt lat="46.04090069612186" lon="12.006180589967972"><ele>246.0</ele><time>2026-04-09T10:21:22Z</time></trkpt><trkpt lat="46.0410063255059" lon="12.006425040901359"><ele>246.33333333333331</ele><time>2026-04-09T10:21:23Z</time></trkpt><trkpt lat="46.041109968634096" lon="12.006663708369755"><ele>246.66666666666666</ele><time>2026-04-09T10:21:24Z</time></trkpt><trkpt lat="46.04122578937147" lon="12.006907379609222"><ele>247.0</ele><time>2026-04-09T10:21:25Z</time></trkpt><trkpt lat="46.04135541557095" lon="12.00717762143211"><ele>247.0</ele><time>2026-04-09T10:21:26Z</time></trkpt><trkpt lat="46.04148807648513" lon="12.00747161101848"><ele>247.0</ele><time>2026-04-09T10:21:27Z</time></trkpt><trkpt lat="46.0416259487091" lon="12.007786537376589"><ele>247.5</ele><time>2026-04-09T10:21:28Z</time></trkpt><trkpt lat="46.04176918948584" lon="12.008117083391518"><ele>248.0</ele><time>2026-04-09T10:21:29Z</time></trkpt><trkpt lat="46.04190938820785" lon="12.0084456226281"><ele>248.5</ele><time>2026-04-09T10:21:30Z</time></trkpt><trkpt lat="46.04203088677257" lon="12.0087398979943"><ele>249.0</ele><time>2026-04-09T10:21:31Z</time></trkpt><trkpt lat="46.04213716535223" lon="12.009019215690039"><ele>249.33333333333331</ele><time>2026-04-09T10:21:32Z</time></trkpt><trkpt lat="46.04224656226863" lon="12.009288720726824"><ele>249.66666666666666</ele><time>2026-04-09T10:21:33Z</time></trkpt><trkpt lat="46.042362977892125" lon="12.009568576404591"><ele>250.0</ele><time>2026-04-09T10:21:34Z</time></trkpt><trkpt lat="46.04246191690546" lon="12.009813055356766"><ele>249.75</ele><time>2026-04-09T10:21:35Z</time></trkpt><trkpt lat="46.04254206292264" lon="12.010019827178162"><ele>249.5</ele><time>2026-04-09T10:21:36Z</time></trkpt><trkpt lat="46.042609127780075" lon="12.010209200480613"><ele>249.25</ele><time>2026-04-09T10:21:37Z</time></trkpt><trkpt lat="46.04266490427923" lon="12.01037946707724"><ele>249.0</ele><time>2026-04-09T10:21:38Z</time></trkpt><trkpt lat="46.042706388839534" lon="12.010531598691003"><ele>249.0</ele><time>2026-04-09T10:21:39Z</time></trkpt><trkpt lat="46.042740784826286" lon="12.01065708516837"><ele>248.99999999999997</ele><time>2026-04-09T10:21:40Z</time></trkpt><trkpt lat="46.04275758483099" lon="12.010776689189917"><ele>248.99999999999997</ele><time>2026-04-09T10:21:41Z</time></trkpt><trkpt lat="46.04275832988552" lon="12.010884980663864"><ele>249.0</ele><time>2026-04-09T10:21:42Z</time></trkpt><trkpt lat="46.04282592556517" lon="12.011024753556677"><ele>249.0</ele><time>2026-04-09T10:21:44Z</time></trkpt><trkpt lat="46.04294502888584" lon="12.011033919045168"><ele>249.0</ele><time>2026-04-09T10:21:46Z</time></trkpt><trkpt lat="46.04299717040006" lon="12.010968230880353"><ele>248.99999999999997</ele><time>2026-04-09T10:21:47Z</time></trkpt><trkpt lat="46.04303784256889" lon="12.010851966527671"><ele>248.99999999999997</ele><time>2026-04-09T10:21:48Z</time></trkpt><trkpt lat="46.04310214479062" lon="12.010719902619556"><ele>249.0</ele><time>2026-04-09T10:21:49Z</time></trkpt><trkpt lat="46.043202907325075" lon="12.010577000057227"><ele>249.0</ele><time>2026-04-09T10:21:50Z</time></trkpt><trkpt lat="46.043315743261815" lon="12.010455217778249"><ele>248.0</ele><time>2026-04-09T10:21:51Z</time></trkpt><trkpt lat="46.043451545324295" lon="12.010327600549184"><ele>247.0</ele><time>2026-04-09T10:21:52Z</time></trkpt><trkpt lat="46.043627398352264" lon="12.010173237510132"><ele>246.0</ele><time>2026-04-09T10:21:53Z</time></trkpt><trkpt lat="46.04379462787204" lon="12.01004082903292"><ele>245.0</ele><time>2026-04-09T10:21:54Z</time></trkpt><trkpt lat="46.04398515878112" lon="12.00989924437183"><ele>244.0</ele><time>2026-04-09T10:21:55Z</time></trkpt><trkpt lat="46.04416471401244" lon="12.009789079628206"><ele>243.0</ele><time>2026-04-09T10:21:56Z</time></trkpt><trkpt lat="46.044341793362975" lon="12.009729796774346"><ele>242.66666666666669</ele><time>2026-04-09T10:21:57Z</time></trkpt><trkpt lat="46.04452681918519" lon="12.009695547141618"><ele>242.33333333333334</ele><time>2026-04-09T10:21:58Z</time></trkpt><trkpt lat="46.04471399725685" lon="12.009685451771638"><ele>242.0</ele><time>2026-04-09T10:21:59Z</time></trkpt><trkpt lat="46.04489884680535" lon="12.009696669730026"><ele>242.33333333333334</ele><time>2026-04-09T10:22:00Z</time></trkpt><trkpt lat="46.045078900183974" lon="12.00974067519486"><ele>242.66666666666669</ele><time>2026-04-09T10:22:01Z</time></trkpt><trkpt lat="46.04526175943482" lon="12.009814097718516"><ele>243.0</ele><time>2026-04-09T10:22:02Z</time></trkpt><trkpt lat="46.04543862324505" lon="12.009915173481794"><ele>242.66666666666669</ele><time>2026-04-09T10:22:03Z</time></trkpt><trkpt lat="46.04560914054709" lon="12.010041242805915"><ele>242.33333333333334</ele><time>2026-04-09T10:22:04Z</time></trkpt><trkpt lat="46.04576999525782" lon="12.010193717887926"><ele>242.0</ele><time>2026-04-09T10:22:05Z</time></trkpt><trkpt lat="46.04591315432389" lon="12.010362240992878"><ele>241.66666666666669</ele><time>2026-04-09T10:22:06Z</time></trkpt><trkpt lat="46.04604380113042" lon="12.010551313161608"><ele>241.33333333333331</ele><time>2026-04-09T10:22:07Z</time></trkpt><trkpt lat="46.046164954736184" lon="12.010769563560178"><ele>241.0</ele><time>2026-04-09T10:22:08Z</time></trkpt><trkpt lat="46.04628334638626" lon="12.011020288199973"><ele>242.0</ele><time>2026-04-09T10:22:09Z</time></trkpt><trkpt lat="46.046400068844655" lon="12.011297171585761"><ele>243.0</ele><time>2026-04-09T10:22:10Z</time></trkpt><trkpt lat="46.046517966704315" lon="12.011590627521452"><ele>243.0</ele><time>2026-04-09T10:22:11Z</time></trkpt><trkpt lat="46.04663737526561" lon="12.01188067201635"><ele>243.0</ele><time>2026-04-09T10:22:12Z</time></trkpt><trkpt lat="46.046759343976" lon="12.012169278692218"><ele>243.0</ele><time>2026-04-09T10:22:13Z</time></trkpt><trkpt lat="46.046881236823545" lon="12.01245837642881"><ele>243.0</ele><time>2026-04-09T10:22:14Z</time></trkpt><trkpt lat="46.04699162906568" lon="12.012727533569125"><ele>243.33333333333331</ele><time>2026-04-09T10:22:15Z</time></trkpt><trkpt lat="46.047094826839945" lon="12.012974859698508"><ele>243.66666666666666</ele><time>2026-04-09T10:22:16Z</time></trkpt><trkpt lat="46.047192812422146" lon="12.013208000350275"><ele>244.0</ele><time>2026-04-09T10:22:17Z</time></trkpt><trkpt lat="46.04728324773654" lon="12.013429541151217"><ele>243.33333333333331</ele><time>2026-04-09T10:22:18Z</time></trkpt><trkpt lat="46.04737232472987" lon="12.013649992430324"><ele>242.66666666666669</ele><time>2026-04-09T10:22:19Z</time></trkpt><trkpt lat="46.04746643293248" lon="12.013885824495896"><ele>242.0</ele><time>2026-04-09T10:22:20Z</time></trkpt><trkpt lat="46.04756241331935" lon="12.014131124248456"><ele>243.33333333333334</ele><time>2026-04-09T10:22:21Z</time></trkpt><trkpt lat="46.04766305092529" lon="12.014381372716516"><ele>244.66666666666669</ele><time>2026-04-09T10:22:22Z</time></trkpt><trkpt lat="46.047768603125505" lon="12.01463647761055"><ele>246.0</ele><time>2026-04-09T10:22:23Z</time></trkpt><trkpt lat="46.0478776673082" lon="12.014897039188654"><ele>248.0</ele><time>2026-04-09T10:22:24Z</time></trkpt><trkpt lat="46.04799346486633" lon="12.015170979093824"><ele>250.0</ele><time>2026-04-09T10:22:25Z</time></trkpt><trkpt lat="46.04811397636764" lon="12.015458202457264"><ele>250.0</ele><time>2026-04-09T10:22:26Z</time></trkpt><trkpt lat="46.04823982916966" lon="12.015756813434843"><ele>250.0</ele><time>2026-04-09T10:22:27Z</time></trkpt><trkpt lat="46.04836871431062" lon="12.016066505589206"><ele>249.0</ele><time>2026-04-09T10:22:28Z</time></trkpt><trkpt lat="46.048496666147365" lon="12.016376683358862"><ele>248.0</ele><time>2026-04-09T10:22:29Z</time></trkpt><trkpt lat="46.04861142926375" lon="12.01665668950975"><ele>248.0</ele><time>2026-04-09T10:22:30Z</time></trkpt><trkpt lat="46.04871615891082" lon="12.016919116342805"><ele>248.0</ele><time>2026-04-09T10:22:31Z</time></trkpt><trkpt lat="46.048821887139034" lon="12.01719090186637"><ele>248.0</ele><time>2026-04-09T10:22:32Z</time></trkpt><trkpt lat="46.04892723948081" lon="12.017482230276599"><ele>248.5</ele><time>2026-04-09T10:22:33Z</time></trkpt><trkpt lat="46.0490260886891" lon="12.017787730878597"><ele>249.0</ele><time>2026-04-09T10:22:34Z</time></trkpt><trkpt lat="46.04911833508508" lon="12.0181126175797"><ele>248.5</ele><time>2026-04-09T10:22:35Z</time></trkpt><trkpt lat="46.04920136870428" lon="12.018450156429113"><ele>248.0</ele><time>2026-04-09T10:22:36Z</time></trkpt><trkpt lat="46.049277087763315" lon="12.018800662704741"><ele>247.5</ele><time>2026-04-09T10:22:37Z</time></trkpt><trkpt lat="46.0493436496181" lon="12.01916232336862"><ele>247.0</ele><time>2026-04-09T10:22:38Z</time></trkpt><trkpt lat="46.0493988142495" lon="12.019532415294567"><ele>247.0</ele><time>2026-04-09T10:22:39Z</time></trkpt><trkpt lat="46.04944003847315" lon="12.01991191530924"><ele>247.0</ele><time>2026-04-09T10:22:40Z</time></trkpt><trkpt lat="46.04946720398373" lon="12.02029969476988"><ele>249.0</ele><time>2026-04-09T10:22:41Z</time></trkpt><trkpt lat="46.04948030824084" lon="12.020692536791266"><ele>251.0</ele><time>2026-04-09T10:22:42Z</time></trkpt><trkpt lat="46.04948295064334" lon="12.021087833480927"><ele>251.5</ele><time>2026-04-09T10:22:43Z</time></trkpt><trkpt lat="46.049469949637746" lon="12.021487547557035"><ele>252.0</ele><time>2026-04-09T10:22:44Z</time></trkpt><trkpt lat="46.049451639700074" lon="12.021893026405218"><ele>253.5</ele><time>2026-04-09T10:22:45Z</time></trkpt><trkpt lat="46.04943557809754" lon="12.022299898174891"><ele>255.0</ele><time>2026-04-09T10:22:46Z</time></trkpt><trkpt lat="46.04942630487948" lon="12.022710377845916"><ele>255.5</ele><time>2026-04-09T10:22:47Z</time></trkpt><trkpt lat="46.04941475101578" lon="12.023120843820726"><ele>256.0</ele><time>2026-04-09T10:22:48Z</time></trkpt><trkpt lat="46.0494047319939" lon="12.023533871228905"><ele>256.0</ele><time>2026-04-09T10:22:49Z</time></trkpt><trkpt lat="46.04939025894404" lon="12.023948434297925"><ele>256.0</ele><time>2026-04-09T10:22:50Z</time></trkpt><trkpt lat="46.049374089320935" lon="12.024364432865285"><ele>256.0</ele><time>2026-04-09T10:22:51Z</time></trkpt><trkpt lat="46.049358970420116" lon="12.02478197875109"><ele>256.0</ele><time>2026-04-09T10:22:52Z</time></trkpt><trkpt lat="46.04934612731026" lon="12.02520194119269"><ele>256.0</ele><time>2026-04-09T10:22:53Z</time></trkpt><trkpt lat="46.04933325224896" lon="12.025623278357061"><ele>256.0</ele><time>2026-04-09T10:22:54Z</time></trkpt><trkpt lat="46.049318301291464" lon="12.02604837835612"><ele>255.5</ele><time>2026-04-09T10:22:55Z</time></trkpt><trkpt lat="46.04930126706671" lon="12.026475169631105"><ele>255.0</ele><time>2026-04-09T10:22:56Z</time></trkpt><trkpt lat="46.04928424387631" lon="12.026905173584177"><ele>254.5</ele><time>2026-04-09T10:22:57Z</time></trkpt><trkpt lat="46.04926817349403" lon="12.027330771895627"><ele>254.0</ele><time>2026-04-09T10:22:58Z</time></trkpt><trkpt lat="46.04925597254253" lon="12.027724655761455"><ele>255.5</ele><time>2026-04-09T10:22:59Z</time></trkpt><trkpt lat="46.049245376809175" lon="12.028098296161831"><ele>257.0</ele><time>2026-04-09T10:23:00Z</time></trkpt><trkpt lat="46.04923421485232" lon="12.028463742287707"><ele>257.5</ele><time>2026-04-09T10:23:01Z</time></trkpt><trkpt lat="46.049221517689624" lon="12.028827996023043"><ele>258.0</ele><time>2026-04-09T10:23:02Z</time></trkpt><trkpt lat="46.049207378366624" lon="12.029197526473428"><ele>258.5</ele><time>2026-04-09T10:23:03Z</time></trkpt><trkpt lat="46.04919422191071" lon="12.029571791790607"><ele>259.0</ele><time>2026-04-09T10:23:04Z</time></trkpt><trkpt lat="46.04918187066464" lon="12.029949879163304"><ele>259.0</ele><time>2026-04-09T10:23:05Z</time></trkpt><trkpt lat="46.04917565483185" lon="12.03037045965209"><ele>259.0</ele><time>2026-04-09T10:23:06Z</time></trkpt><trkpt lat="46.0491676748883" lon="12.030810015792198"><ele>258.5</ele><time>2026-04-09T10:23:07Z</time></trkpt><trkpt lat="46.049159944840184" lon="12.0312673184473"><ele>258.0</ele><time>2026-04-09T10:23:08Z</time></trkpt><trkpt lat="46.04912883011184" lon="12.031734208680623"><ele>265.0</ele><time>2026-04-09T10:23:09Z</time></trkpt><trkpt lat="46.04911158691392" lon="12.03221818381456"><ele>272.0</ele><time>2026-04-09T10:23:10Z</time></trkpt><trkpt lat="46.04910751316722" lon="12.032706215271247"><ele>272.0</ele><time>2026-04-09T10:23:11Z</time></trkpt><trkpt lat="46.04908682651819" lon="12.033188622133272"><ele>272.0</ele><time>2026-04-09T10:23:12Z</time></trkpt><trkpt lat="46.04907037660161" lon="12.033658324514233"><ele>272.0</ele><time>2026-04-09T10:23:13Z</time></trkpt><trkpt lat="46.04905608864807" lon="12.034129154098038"><ele>272.0</ele><time>2026-04-09T10:23:14Z</time></trkpt><trkpt lat="46.04904081657633" lon="12.034606248174862"><ele>274.5</ele><time>2026-04-09T10:23:15Z</time></trkpt><trkpt lat="46.04902182783259" lon="12.035083055369503"><ele>277.0</ele><time>2026-04-09T10:23:16Z</time></trkpt><trkpt lat="46.0490005817721" lon="12.035558565852078"><ele>281.0</ele><time>2026-04-09T10:23:17Z</time></trkpt><trkpt lat="46.0489773437251" lon="12.036036708230782"><ele>285.0</ele><time>2026-04-09T10:23:18Z</time></trkpt><trkpt lat="46.0489543205057" lon="12.036509954709672"><ele>286.0</ele><time>2026-04-09T10:23:19Z</time></trkpt><trkpt lat="46.04893653187519" lon="12.036951110498006"><ele>287.0</ele><time>2026-04-09T10:23:20Z</time></trkpt><trkpt lat="46.04891421208882" lon="12.037336157507365"><ele>286.0</ele><time>2026-04-09T10:23:21Z</time></trkpt><trkpt lat="46.04889904537931" lon="12.037666014091002"><ele>285.0</ele><time>2026-04-09T10:23:22Z</time></trkpt><trkpt lat="46.04888598138342" lon="12.037982113084079"><ele>284.0</ele><time>2026-04-09T10:23:23Z</time></trkpt><trkpt lat="46.048872566095596" lon="12.038265961430605"><ele>283.25</ele><time>2026-04-09T10:23:24Z</time></trkpt><trkpt lat="46.0488615931823" lon="12.038531182654955"><ele>282.5</ele><time>2026-04-09T10:23:24.999Z</time></trkpt><trkpt lat="46.048850257350686" lon="12.038730926698568"><ele>281.75</ele><time>2026-04-09T10:23:25.999Z</time></trkpt><trkpt lat="46.048848246017656" lon="12.038895548912956"><ele>281.0</ele><time>2026-04-09T10:23:26.999Z</time></trkpt><trkpt lat="46.048840826366366" lon="12.039051849460147"><ele>281.0</ele><time>2026-04-09T10:23:27.999Z</time></trkpt><trkpt lat="46.04882381030787" lon="12.039179062473048"><ele>281.0</ele><time>2026-04-09T10:23:29Z</time></trkpt><trkpt lat="46.04879417829054" lon="12.03927874004961"><ele>281.0</ele><time>2026-04-09T10:23:30Z</time></trkpt><trkpt lat="46.048755539974394" lon="12.039375422000147"><ele>281.0</ele><time>2026-04-09T10:23:31Z</time></trkpt><trkpt lat="46.04870188692588" lon="12.039474424797758"><ele>281.0</ele><time>2026-04-09T10:23:32Z</time></trkpt><trkpt lat="46.04867333237938" lon="12.039573566308034"><ele>281.0</ele><time>2026-04-09T10:23:33Z</time></trkpt><trkpt lat="46.04868544897832" lon="12.039670866489347"><ele>281.0</ele><time>2026-04-09T10:23:34Z</time></trkpt><trkpt lat="46.04872894857117" lon="12.039778052278255"><ele>281.0</ele><time>2026-04-09T10:23:35Z</time></trkpt><trkpt lat="46.04879712392075" lon="12.03991290132658"><ele>281.0</ele><time>2026-04-09T10:23:36Z</time></trkpt><trkpt lat="46.04885660884913" lon="12.040104855248186"><ele>281.0</ele><time>2026-04-09T10:23:37Z</time></trkpt><trkpt lat="46.04891173445582" lon="12.040334035829126"><ele>281.0</ele><time>2026-04-09T10:23:38Z</time></trkpt><trkpt lat="46.048956046800726" lon="12.040565718067219"><ele>281.0</ele><time>2026-04-09T10:23:39Z</time></trkpt><trkpt lat="46.04901304058502" lon="12.040858839588006"><ele>281.0</ele><time>2026-04-09T10:23:40Z</time></trkpt><trkpt lat="46.049083823897014" lon="12.04115489270464"><ele>282.33333333333337</ele><time>2026-04-09T10:23:41Z</time></trkpt><trkpt lat="46.04914869814795" lon="12.041423778875481"><ele>283.6666666666667</ele><time>2026-04-09T10:23:42Z</time></trkpt><trkpt lat="46.04922490221137" lon="12.041741292758708"><ele>285.0</ele><time>2026-04-09T10:23:43Z</time></trkpt><trkpt lat="46.04930661210266" lon="12.042091693410987"><ele>285.0</ele><time>2026-04-09T10:23:44Z</time></trkpt><trkpt lat="46.04937405885275" lon="12.042403042397153"><ele>285.0</ele><time>2026-04-09T10:23:45Z</time></trkpt><trkpt lat="46.04943881009617" lon="12.042732224527173"><ele>284.0</ele><time>2026-04-09T10:23:46Z</time></trkpt><trkpt lat="46.0494941422738" lon="12.043104584750566"><ele>283.0</ele><time>2026-04-09T10:23:47Z</time></trkpt><trkpt lat="46.04953487067773" lon="12.043491153055903"><ele>283.0</ele><time>2026-04-09T10:23:48Z</time></trkpt><trkpt lat="46.04956119985318" lon="12.043900097986787"><ele>283.0</ele><time>2026-04-09T10:23:49Z</time></trkpt><trkpt lat="46.04957596142434" lon="12.044270194010233"><ele>285.0</ele><time>2026-04-09T10:23:50Z</time></trkpt><trkpt lat="46.04959373005282" lon="12.044637211339147"><ele>287.0</ele><time>2026-04-09T10:23:51Z</time></trkpt><trkpt lat="46.04961062846541" lon="12.045013435857697"><ele>288.0</ele><time>2026-04-09T10:23:52Z</time></trkpt><trkpt lat="46.04962348567137" lon="12.045376881413947"><ele>289.0</ele><time>2026-04-09T10:23:53Z</time></trkpt><trkpt lat="46.04962814459508" lon="12.045719805837319"><ele>290.0</ele><time>2026-04-09T10:23:54Z</time></trkpt><trkpt lat="46.04962441062589" lon="12.046048787780991"><ele>291.0</ele><time>2026-04-09T10:23:55Z</time></trkpt><trkpt lat="46.04960967824568" lon="12.046379669633353"><ele>292.0</ele><time>2026-04-09T10:23:56Z</time></trkpt><trkpt lat="46.049578811317474" lon="12.046718463113212"><ele>293.0</ele><time>2026-04-09T10:23:57Z</time></trkpt><trkpt lat="46.04953678142506" lon="12.04704008390952"><ele>293.0</ele><time>2026-04-09T10:23:58Z</time></trkpt><trkpt lat="46.04948275794618" lon="12.047352285912385"><ele>293.0</ele><time>2026-04-09T10:23:59Z</time></trkpt><trkpt lat="46.04941936818445" lon="12.047656201249003"><ele>293.0</ele><time>2026-04-09T10:24:00Z</time></trkpt><trkpt lat="46.04935166597467" lon="12.047949959681981"><ele>293.33333333333337</ele><time>2026-04-09T10:24:01Z</time></trkpt><trkpt lat="46.04929010444316" lon="12.048229580669467"><ele>293.6666666666667</ele><time>2026-04-09T10:24:02Z</time></trkpt><trkpt lat="46.04923488708439" lon="12.048492328524768"><ele>294.0</ele><time>2026-04-09T10:24:03Z</time></trkpt><trkpt lat="46.04917647946021" lon="12.04876641727359"><ele>295.5</ele><time>2026-04-09T10:24:04Z</time></trkpt><trkpt lat="46.04911322469114" lon="12.049078869211913"><ele>297.0</ele><time>2026-04-09T10:24:05Z</time></trkpt><trkpt lat="46.0490518509402" lon="12.049404186596519"><ele>298.0</ele><time>2026-04-09T10:24:06Z</time></trkpt><trkpt lat="46.04900777706113" lon="12.049723653833855"><ele>299.0</ele><time>2026-04-09T10:24:07Z</time></trkpt><trkpt lat="46.048980693462696" lon="12.050077358124703"><ele>302.0</ele><time>2026-04-09T10:24:08Z</time></trkpt><trkpt lat="46.048958673671216" lon="12.05046806250596"><ele>305.0</ele><time>2026-04-09T10:24:09Z</time></trkpt><trkpt lat="46.04892693247747" lon="12.050881650352995"><ele>305.5</ele><time>2026-04-09T10:24:10Z</time></trkpt><trkpt lat="46.048888583325514" lon="12.051305535892993"><ele>306.0</ele><time>2026-04-09T10:24:11Z</time></trkpt><trkpt lat="46.048859830041955" lon="12.051679567958576"><ele>306.0</ele><time>2026-04-09T10:24:12Z</time></trkpt><trkpt lat="46.048839267932976" lon="12.052021396691046"><ele>306.0</ele><time>2026-04-09T10:24:13Z</time></trkpt><trkpt lat="46.04881605822393" lon="12.052343878182949"><ele>307.0</ele><time>2026-04-09T10:24:14Z</time></trkpt><trkpt lat="46.04879020630898" lon="12.052647999803215"><ele>308.0</ele><time>2026-04-09T10:24:15Z</time></trkpt><trkpt lat="46.048755286609854" lon="12.052944895347538"><ele>309.0</ele><time>2026-04-09T10:24:16Z</time></trkpt><trkpt lat="46.048705837585096" lon="12.053247510991332"><ele>309.3333333333333</ele><time>2026-04-09T10:24:17Z</time></trkpt><trkpt lat="46.04864955376859" lon="12.053518444058886"><ele>309.66666666666663</ele><time>2026-04-09T10:24:18Z</time></trkpt><trkpt lat="46.04858608896865" lon="12.05378429451755"><ele>310.0</ele><time>2026-04-09T10:24:19Z</time></trkpt><trkpt lat="46.04851351638272" lon="12.054059203612246"><ele>310.0</ele><time>2026-04-09T10:24:20Z</time></trkpt><trkpt lat="46.04844159394718" lon="12.054307715967134"><ele>310.0</ele><time>2026-04-09T10:24:21Z</time></trkpt><trkpt lat="46.04837069152843" lon="12.054550344597267"><ele>310.0</ele><time>2026-04-09T10:24:22Z</time></trkpt><trkpt lat="46.048302650308486" lon="12.054796537678135"><ele>310.3333333333333</ele><time>2026-04-09T10:24:23Z</time></trkpt><trkpt lat="46.04824059490689" lon="12.055050373492255"><ele>310.6666666666667</ele><time>2026-04-09T10:24:24Z</time></trkpt><trkpt lat="46.04819499729826" lon="12.055311748532146"><ele>311.0</ele><time>2026-04-09T10:24:25Z</time></trkpt><trkpt lat="46.04815884079011" lon="12.055612009071593"><ele>310.5</ele><time>2026-04-09T10:24:26Z</time></trkpt><trkpt lat="46.048123718084355" lon="12.05595081082454"><ele>310.0</ele><time>2026-04-09T10:24:27Z</time></trkpt><trkpt lat="46.04808765712589" lon="12.056288214944328"><ele>310.0</ele><time>2026-04-09T10:24:28Z</time></trkpt><trkpt lat="46.04806709376041" lon="12.056589251253683"><ele>310.0</ele><time>2026-04-09T10:24:29Z</time></trkpt><trkpt lat="46.048056754211906" lon="12.05688604428268"><ele>310.0</ele><time>2026-04-09T10:24:30Z</time></trkpt><trkpt lat="46.048046445605074" lon="12.057180876079695"><ele>310.66666666666663</ele><time>2026-04-09T10:24:31Z</time></trkpt><trkpt lat="46.04803718701484" lon="12.05745885698174"><ele>311.3333333333333</ele><time>2026-04-09T10:24:32Z</time></trkpt><trkpt lat="46.048031648913714" lon="12.057719005809908"><ele>312.0</ele><time>2026-04-09T10:24:33Z</time></trkpt><trkpt lat="46.04802602961401" lon="12.057974612612078"><ele>312.0</ele><time>2026-04-09T10:24:34Z</time></trkpt><trkpt lat="46.04801974851313" lon="12.058227305638834"><ele>312.0</ele><time>2026-04-09T10:24:35Z</time></trkpt><trkpt lat="46.04801350238568" lon="12.058477538081842"><ele>312.0</ele><time>2026-04-09T10:24:36Z</time></trkpt><trkpt lat="46.048008737522444" lon="12.058724706479115"><ele>312.3333333333333</ele><time>2026-04-09T10:24:37Z</time></trkpt><trkpt lat="46.04800626589736" lon="12.058965816368403"><ele>312.66666666666663</ele><time>2026-04-09T10:24:38Z</time></trkpt><trkpt lat="46.04800458145612" lon="12.059198652469853"><ele>313.0</ele><time>2026-04-09T10:24:39Z</time></trkpt><trkpt lat="46.04799864480935" lon="12.059427659966744"><ele>313.25</ele><time>2026-04-09T10:24:40Z</time></trkpt><trkpt lat="46.047992592754916" lon="12.0596492341389"><ele>313.5</ele><time>2026-04-09T10:24:41Z</time></trkpt><trkpt lat="46.04798603731071" lon="12.059854047901954"><ele>313.75</ele><time>2026-04-09T10:24:42Z</time></trkpt><trkpt lat="46.047979326665796" lon="12.060026027438514"><ele>314.0</ele><time>2026-04-09T10:24:43Z</time></trkpt><trkpt lat="46.04797348454203" lon="12.060168647914281"><ele>314.1666666666667</ele><time>2026-04-09T10:24:44Z</time></trkpt><trkpt lat="46.04796809642274" lon="12.060289331168196"><ele>314.33333333333337</ele><time>2026-04-09T10:24:45Z</time></trkpt><trkpt lat="46.04795874844475" lon="12.060396093586608"><ele>314.5</ele><time>2026-04-09T10:24:46Z</time></trkpt><trkpt lat="46.0479404665714" lon="12.060491293330124"><ele>314.6666666666667</ele><time>2026-04-09T10:24:47Z</time></trkpt><trkpt lat="46.047937526394115" lon="12.06059864886126"><ele>314.8333333333333</ele><time>2026-04-09T10:24:48Z</time></trkpt><trkpt lat="46.04789935042588" lon="12.060705420667377"><ele>315.0</ele><time>2026-04-09T10:24:49Z</time></trkpt><trkpt lat="46.047915426091365" lon="12.060830248422274"><ele>315.0</ele><time>2026-04-09T10:24:50Z</time></trkpt><trkpt lat="46.04794839920509" lon="12.060942953625537"><ele>315.0</ele><time>2026-04-09T10:24:51Z</time></trkpt><trkpt lat="46.04796626663302" lon="12.061073749544875"><ele>315.0</ele><time>2026-04-09T10:24:52Z</time></trkpt><trkpt lat="46.04797058773556" lon="12.061223484613038"><ele>315.0</ele><time>2026-04-09T10:24:53Z</time></trkpt><trkpt lat="46.04797650247552" lon="12.061406311796222"><ele>315.0</ele><time>2026-04-09T10:24:54Z</time></trkpt><trkpt lat="46.04797771595736" lon="12.061576035513712"><ele>314.3333333333333</ele><time>2026-04-09T10:24:55Z</time></trkpt><trkpt lat="46.04798036917362" lon="12.061746054903276"><ele>313.66666666666663</ele><time>2026-04-09T10:24:56Z</time></trkpt><trkpt lat="46.04798476494559" lon="12.06197031202973"><ele>313.0</ele><time>2026-04-09T10:24:57Z</time></trkpt><trkpt lat="46.04798323584356" lon="12.062223694167862"><ele>312.3333333333333</ele><time>2026-04-09T10:24:58Z</time></trkpt><trkpt lat="46.047977639387476" lon="12.062477276592272"><ele>311.6666666666667</ele><time>2026-04-09T10:24:59Z</time></trkpt><trkpt lat="46.047979797315975" lon="12.062755458167786"><ele>311.0</ele><time>2026-04-09T10:25:00Z</time></trkpt><trkpt lat="46.047981151553934" lon="12.063038077639105"><ele>311.0</ele><time>2026-04-09T10:25:01Z</time></trkpt><trkpt lat="46.04797937605324" lon="12.063296849593566"><ele>311.0</ele><time>2026-04-09T10:25:02Z</time></trkpt><trkpt lat="46.04797598960452" lon="12.063535202607376"><ele>311.0</ele><time>2026-04-09T10:25:03Z</time></trkpt><trkpt lat="46.04797335138644" lon="12.063764995108793"><ele>311.0</ele><time>2026-04-09T10:25:04Z</time></trkpt><trkpt lat="46.04798002965274" lon="12.064046788497821"><ele>311.0</ele><time>2026-04-09T10:25:05Z</time></trkpt><trkpt lat="46.047981140427915" lon="12.064354726707103"><ele>311.0</ele><time>2026-04-09T10:25:06Z</time></trkpt><trkpt lat="46.047979545392195" lon="12.06465275651122"><ele>311.0</ele><time>2026-04-09T10:25:07Z</time></trkpt><trkpt lat="46.0479857618727" lon="12.064934797848608"><ele>311.0</ele><time>2026-04-09T10:25:08Z</time></trkpt><trkpt lat="46.04800701552573" lon="12.065218766544152"><ele>311.0</ele><time>2026-04-09T10:25:09Z</time></trkpt><trkpt lat="46.04804629809633" lon="12.0655024726468"><ele>312.0</ele><time>2026-04-09T10:25:10Z</time></trkpt><trkpt lat="46.048104064716576" lon="12.065795493467219"><ele>313.0</ele><time>2026-04-09T10:25:11Z</time></trkpt><trkpt lat="46.04818492025603" lon="12.066095916860865"><ele>314.0</ele><time>2026-04-09T10:25:11.999Z</time></trkpt><trkpt lat="46.048282435716935" lon="12.066401411889245"><ele>313.0</ele><time>2026-04-09T10:25:12.999Z</time></trkpt><trkpt lat="46.04839667387404" lon="12.066694081090796"><ele>312.0</ele><time>2026-04-09T10:25:13.999Z</time></trkpt><trkpt lat="46.04852524222415" lon="12.066967809780671"><ele>312.0</ele><time>2026-04-09T10:25:14.999Z</time></trkpt><trkpt lat="46.04867083235948" lon="12.06722094913561"><ele>312.0</ele><time>2026-04-09T10:25:15.999Z</time></trkpt><trkpt lat="46.048834022194136" lon="12.067458640096133"><ele>310.5</ele><time>2026-04-09T10:25:16.999Z</time></trkpt><trkpt lat="46.04902197673091" lon="12.067685396499867"><ele>309.0</ele><time>2026-04-09T10:25:17.999Z</time></trkpt><trkpt lat="46.049233862747734" lon="12.06791184794594"><ele>310.5</ele><time>2026-04-09T10:25:18.999Z</time></trkpt><trkpt lat="46.04944878064026" lon="12.068131714473324"><ele>312.0</ele><time>2026-04-09T10:25:19.999Z</time></trkpt><trkpt lat="46.04964365418862" lon="12.068329121411768"><ele>312.0</ele><time>2026-04-09T10:25:20.999Z</time></trkpt><trkpt lat="46.04983514247449" lon="12.068524395596945"><ele>312.0</ele><time>2026-04-09T10:25:21.999Z</time></trkpt><trkpt lat="46.05001945637592" lon="12.068712005075723"><ele>310.3333333333333</ele><time>2026-04-09T10:25:22.999Z</time></trkpt><trkpt lat="46.05019090459429" lon="12.068893783257302"><ele>308.66666666666663</ele><time>2026-04-09T10:25:23.999Z</time></trkpt><trkpt lat="46.05035586330332" lon="12.069070032013155"><ele>307.0</ele><time>2026-04-09T10:25:24.999Z</time></trkpt><trkpt lat="46.050518213837655" lon="12.06924502250347"><ele>309.3333333333333</ele><time>2026-04-09T10:25:25.999Z</time></trkpt><trkpt lat="46.05068102092904" lon="12.069414248366403"><ele>311.6666666666667</ele><time>2026-04-09T10:25:26.999Z</time></trkpt><trkpt lat="46.05085174046728" lon="12.069586032934456"><ele>314.0</ele><time>2026-04-09T10:25:27.999Z</time></trkpt><trkpt lat="46.051041038276445" lon="12.069774535140063"><ele>315.5</ele><time>2026-04-09T10:25:28.999Z</time></trkpt><trkpt lat="46.05123997366706" lon="12.06997770859796"><ele>317.0</ele><time>2026-04-09T10:25:29.999Z</time></trkpt><trkpt lat="46.051442304887765" lon="12.070181024821196"><ele>313.0</ele><time>2026-04-09T10:25:30.999Z</time></trkpt><trkpt lat="46.05164907005061" lon="12.070383022389564"><ele>309.0</ele><time>2026-04-09T10:25:31.999Z</time></trkpt><trkpt lat="46.051862444428494" lon="12.070592032029271"><ele>310.5</ele><time>2026-04-09T10:25:32.999Z</time></trkpt><trkpt lat="46.05207870441876" lon="12.070807788444482"><ele>312.0</ele><time>2026-04-09T10:25:33.999Z</time></trkpt><trkpt lat="46.05229161855376" lon="12.071025552499547"><ele>309.0</ele><time>2026-04-09T10:25:35Z</time></trkpt><trkpt lat="46.052515382524675" lon="12.071266379544861"><ele>306.0</ele><time>2026-04-09T10:25:36Z</time></trkpt><trkpt lat="46.05274342484433" lon="12.071525654743565"><ele>309.5</ele><time>2026-04-09T10:25:37Z</time></trkpt><trkpt lat="46.05295038518001" lon="12.071760215962023"><ele>313.0</ele><time>2026-04-09T10:25:38Z</time></trkpt><trkpt lat="46.05315012985979" lon="12.071975861599345"><ele>308.5</ele><time>2026-04-09T10:25:39Z</time></trkpt><trkpt lat="46.0533487432292" lon="12.07218520894627"><ele>304.0</ele><time>2026-04-09T10:25:40Z</time></trkpt><trkpt lat="46.053544590802915" lon="12.072393731716877"><ele>306.5</ele><time>2026-04-09T10:25:41Z</time></trkpt><trkpt lat="46.05373234681736" lon="12.07259692351282"><ele>309.0</ele><time>2026-04-09T10:25:42Z</time></trkpt><trkpt lat="46.05390847064479" lon="12.07278607123804"><ele>309.0</ele><time>2026-04-09T10:25:43Z</time></trkpt><trkpt lat="46.05408229675222" lon="12.072964500323943"><ele>309.0</ele><time>2026-04-09T10:25:44Z</time></trkpt><trkpt lat="46.05425825887961" lon="12.073132100603887"><ele>309.0</ele><time>2026-04-09T10:25:45Z</time></trkpt><trkpt lat="46.05444063971485" lon="12.073286838438177"><ele>309.0</ele><time>2026-04-09T10:25:46Z</time></trkpt><trkpt lat="46.05463142938481" lon="12.073427616932273"><ele>309.0</ele><time>2026-04-09T10:25:47Z</time></trkpt><trkpt lat="46.05482080415028" lon="12.073549744363946"><ele>309.0</ele><time>2026-04-09T10:25:48Z</time></trkpt><trkpt lat="46.05500279348031" lon="12.073660790704718"><ele>307.0</ele><time>2026-04-09T10:25:49Z</time></trkpt><trkpt lat="46.05517753256845" lon="12.073768062537058"><ele>305.0</ele><time>2026-04-09T10:25:50Z</time></trkpt><trkpt lat="46.055342601587725" lon="12.073867723241065"><ele>303.0</ele><time>2026-04-09T10:25:51Z</time></trkpt><trkpt lat="46.05550547108454" lon="12.073960921842534"><ele>303.0</ele><time>2026-04-09T10:25:52Z</time></trkpt><trkpt lat="46.055671280264825" lon="12.074046178981243"><ele>303.0</ele><time>2026-04-09T10:25:53Z</time></trkpt><trkpt lat="46.055835919712536" lon="12.074124197608606"><ele>303.0</ele><time>2026-04-09T10:25:54Z</time></trkpt><trkpt lat="46.05600183360086" lon="12.074201083244649"><ele>304.3333333333333</ele><time>2026-04-09T10:25:55Z</time></trkpt><trkpt lat="46.0561607116805" lon="12.074271357471083"><ele>305.66666666666663</ele><time>2026-04-09T10:25:56Z</time></trkpt><trkpt lat="46.05631269150884" lon="12.074326330880695"><ele>307.0</ele><time>2026-04-09T10:25:57Z</time></trkpt><trkpt lat="46.05645946516219" lon="12.074372746243965"><ele>307.0</ele><time>2026-04-09T10:25:58Z</time></trkpt><trkpt lat="46.056605033002455" lon="12.074403954596333"><ele>307.0</ele><time>2026-04-09T10:25:59Z</time></trkpt><trkpt lat="46.05676628586962" lon="12.07442076040185"><ele>307.0</ele><time>2026-04-09T10:26:00Z</time></trkpt><trkpt lat="46.056942826779256" lon="12.074449117376517"><ele>307.0</ele><time>2026-04-09T10:26:01Z</time></trkpt><trkpt lat="46.05711994915734" lon="12.074487020928576"><ele>307.0</ele><time>2026-04-09T10:26:02Z</time></trkpt><trkpt lat="46.057296739312314" lon="12.074520093963732"><ele>307.0</ele><time>2026-04-09T10:26:03Z</time></trkpt><trkpt lat="46.05746113266912" lon="12.0745501293441"><ele>306.66666666666663</ele><time>2026-04-09T10:26:04Z</time></trkpt><trkpt lat="46.057614482019304" lon="12.074595550771585"><ele>306.3333333333333</ele><time>2026-04-09T10:26:05Z</time></trkpt><trkpt lat="46.05776791219644" lon="12.07466719260783"><ele>306.0</ele><time>2026-04-09T10:26:06Z</time></trkpt><trkpt lat="46.057915257215384" lon="12.074765315227983"><ele>306.0</ele><time>2026-04-09T10:26:07Z</time></trkpt><trkpt lat="46.05805485153741" lon="12.074886218541527"><ele>306.0</ele><time>2026-04-09T10:26:08Z</time></trkpt><trkpt lat="46.05818375256957" lon="12.075030316143856"><ele>306.0</ele><time>2026-04-09T10:26:09Z</time></trkpt><trkpt lat="46.05832416715151" lon="12.07513440534112"><ele>307.6666666666667</ele><time>2026-04-09T10:26:10Z</time></trkpt><trkpt lat="46.05846410808488" lon="12.075246734479476"><ele>309.33333333333337</ele><time>2026-04-09T10:26:11Z</time></trkpt><trkpt lat="46.05851719785234" lon="12.075607619481392"><ele>311.0</ele><time>2026-04-09T10:26:12Z</time></trkpt><trkpt lat="46.05861290221823" lon="12.075838254229257"><ele>311.0</ele><time>2026-04-09T10:26:13Z</time></trkpt><trkpt lat="46.05870703591171" lon="12.076097783093015"><ele>311.0</ele><time>2026-04-09T10:26:14Z</time></trkpt><trkpt lat="46.058796743801665" lon="12.076373076442078"><ele>311.0</ele><time>2026-04-09T10:26:15Z</time></trkpt><trkpt lat="46.05888637511971" lon="12.076641232766995"><ele>312.33333333333337</ele><time>2026-04-09T10:26:16Z</time></trkpt><trkpt lat="46.05896508240643" lon="12.076903253025243"><ele>313.6666666666667</ele><time>2026-04-09T10:26:17Z</time></trkpt><trkpt lat="46.0590412502733" lon="12.077175325134807"><ele>315.0</ele><time>2026-04-09T10:26:18Z</time></trkpt><trkpt lat="46.05912137046962" lon="12.077454802853815"><ele>312.3333333333333</ele><time>2026-04-09T10:26:19Z</time></trkpt><trkpt lat="46.05920854115667" lon="12.07774184503695"><ele>309.66666666666663</ele><time>2026-04-09T10:26:20Z</time></trkpt><trkpt lat="46.05929937976063" lon="12.078039423242213"><ele>307.0</ele><time>2026-04-09T10:26:21Z</time></trkpt><trkpt lat="46.05940012030562" lon="12.078373274085283"><ele>306.5</ele><time>2026-04-09T10:26:22Z</time></trkpt><trkpt lat="46.05951645236827" lon="12.07873236234082"><ele>306.0</ele><time>2026-04-09T10:26:23Z</time></trkpt><trkpt lat="46.05963149695248" lon="12.079118191559445"><ele>305.5</ele><time>2026-04-09T10:26:24Z</time></trkpt><trkpt lat="46.05974140048846" lon="12.07952294699166"><ele>305.0</ele><time>2026-04-09T10:26:25Z</time></trkpt><trkpt lat="46.05985248882063" lon="12.07994751657438"><ele>307.5</ele><time>2026-04-09T10:26:26Z</time></trkpt><trkpt lat="46.05996540512321" lon="12.080355217336692"><ele>310.0</ele><time>2026-04-09T10:26:27Z</time></trkpt><trkpt lat="46.06009002043998" lon="12.080780653103"><ele>310.5</ele><time>2026-04-09T10:26:28Z</time></trkpt><trkpt lat="46.060220313971705" lon="12.081221527452204"><ele>311.0</ele><time>2026-04-09T10:26:29Z</time></trkpt><trkpt lat="46.06034654259237" lon="12.08165180142344"><ele>312.0</ele><time>2026-04-09T10:26:30Z</time></trkpt><trkpt lat="46.06045951324121" lon="12.082034262679592"><ele>313.0</ele><time>2026-04-09T10:26:31Z</time></trkpt><trkpt lat="46.06056214341792" lon="12.082393753938328"><ele>313.5</ele><time>2026-04-09T10:26:32Z</time></trkpt><trkpt lat="46.0606623285115" lon="12.082734994544259"><ele>314.0</ele><time>2026-04-09T10:26:33Z</time></trkpt><trkpt lat="46.06075716717477" lon="12.08306117850327"><ele>314.5</ele><time>2026-04-09T10:26:34Z</time></trkpt><trkpt lat="46.06085045945162" lon="12.083374328764876"><ele>315.0</ele><time>2026-04-09T10:26:35Z</time></trkpt><trkpt lat="46.060945585901045" lon="12.083668649291315"><ele>315.0</ele><time>2026-04-09T10:26:36Z</time></trkpt><trkpt lat="46.06105215780167" lon="12.083947240891092"><ele>315.0</ele><time>2026-04-09T10:26:37Z</time></trkpt><trkpt lat="46.06118279782379" lon="12.084226697025667"><ele>314.5</ele><time>2026-04-09T10:26:38Z</time></trkpt><trkpt lat="46.06133802101437" lon="12.084494113584777"><ele>314.0</ele><time>2026-04-09T10:26:39Z</time></trkpt><trkpt lat="46.06149798296378" lon="12.084720953907441"><ele>316.5</ele><time>2026-04-09T10:26:40Z</time></trkpt><trkpt lat="46.061674854477076" lon="12.084928736579027"><ele>319.0</ele><time>2026-04-09T10:26:41Z</time></trkpt><trkpt lat="46.061880455695295" lon="12.085132605428193"><ele>319.0</ele><time>2026-04-09T10:26:42Z</time></trkpt><trkpt lat="46.0620886785076" lon="12.085304650003634"><ele>319.0</ele><time>2026-04-09T10:26:43Z</time></trkpt><trkpt lat="46.062272173608754" lon="12.0854484065808"><ele>319.0</ele><time>2026-04-09T10:26:44Z</time></trkpt><trkpt lat="46.062438006054464" lon="12.08559111765088"><ele>321.3333333333333</ele><time>2026-04-09T10:26:45Z</time></trkpt><trkpt lat="46.06259825302079" lon="12.085746121079646"><ele>323.6666666666667</ele><time>2026-04-09T10:26:46Z</time></trkpt><trkpt lat="46.06276107895023" lon="12.08594518142256"><ele>326.0</ele><time>2026-04-09T10:26:47Z</time></trkpt><trkpt lat="46.06291497042552" lon="12.086158904305565"><ele>326.0</ele><time>2026-04-09T10:26:48Z</time></trkpt><trkpt lat="46.063052953293074" lon="12.086347685798366"><ele>326.0</ele><time>2026-04-09T10:26:49Z</time></trkpt><trkpt lat="46.063183922536496" lon="12.086520866747415"><ele>326.0</ele><time>2026-04-09T10:26:50Z</time></trkpt><trkpt lat="46.063303708743064" lon="12.086677394058167"><ele>326.0</ele><time>2026-04-09T10:26:51Z</time></trkpt><trkpt lat="46.063412272945456" lon="12.08683532238578"><ele>326.0</ele><time>2026-04-09T10:26:52Z</time></trkpt><trkpt lat="46.0635065232781" lon="12.086996965919878"><ele>326.0</ele><time>2026-04-09T10:26:53Z</time></trkpt><trkpt lat="46.06359028129394" lon="12.087167613885917"><ele>326.0</ele><time>2026-04-09T10:26:54Z</time></trkpt><trkpt lat="46.06365778361178" lon="12.087367859985326"><ele>326.6666666666667</ele><time>2026-04-09T10:26:55Z</time></trkpt><trkpt lat="46.063714545945025" lon="12.08758371586226"><ele>327.3333333333333</ele><time>2026-04-09T10:26:56Z</time></trkpt><trkpt lat="46.06375915532141" lon="12.087828460718079"><ele>328.0</ele><time>2026-04-09T10:26:57Z</time></trkpt><trkpt lat="46.06381353947966" lon="12.088099561753003"><ele>327.3333333333333</ele><time>2026-04-09T10:26:58Z</time></trkpt><trkpt lat="46.06387372751778" lon="12.088392909487215"><ele>326.6666666666667</ele><time>2026-04-09T10:26:59Z</time></trkpt><trkpt lat="46.06393556973845" lon="12.088692488263977"><ele>326.0</ele><time>2026-04-09T10:27:00Z</time></trkpt><trkpt lat="46.06398856133969" lon="12.088973336578631"><ele>324.33333333333337</ele><time>2026-04-09T10:27:01Z</time></trkpt><trkpt lat="46.06404120175105" lon="12.089236275008998"><ele>322.6666666666667</ele><time>2026-04-09T10:27:02Z</time></trkpt><trkpt lat="46.06409836520312" lon="12.089496488901005"><ele>321.0</ele><time>2026-04-09T10:27:03Z</time></trkpt><trkpt lat="46.06415126199498" lon="12.08975247331512"><ele>320.3333333333333</ele><time>2026-04-09T10:27:04Z</time></trkpt><trkpt lat="46.064198774429066" lon="12.090008151473105"><ele>319.66666666666663</ele><time>2026-04-09T10:27:05Z</time></trkpt><trkpt lat="46.06424871977549" lon="12.090265627889352"><ele>319.0</ele><time>2026-04-09T10:27:05.999Z</time></trkpt><trkpt lat="46.064299529796756" lon="12.090525936744978"><ele>319.3333333333333</ele><time>2026-04-09T10:27:06.999Z</time></trkpt><trkpt lat="46.0643512350627" lon="12.090784202462709"><ele>319.6666666666667</ele><time>2026-04-09T10:27:07.999Z</time></trkpt><trkpt lat="46.064407668903705" lon="12.091044558500528"><ele>320.0</ele><time>2026-04-09T10:27:08.999Z</time></trkpt><trkpt lat="46.06445963179185" lon="12.091305983832983"><ele>320.0</ele><time>2026-04-09T10:27:09.999Z</time></trkpt><trkpt lat="46.06451361071598" lon="12.091570306196399"><ele>320.0</ele><time>2026-04-09T10:27:10.999Z</time></trkpt><trkpt lat="46.06456454812514" lon="12.091824939611925"><ele>320.0</ele><time>2026-04-09T10:27:11.999Z</time></trkpt><trkpt lat="46.06461497005652" lon="12.092072300328498"><ele>319.6666666666667</ele><time>2026-04-09T10:27:12.999Z</time></trkpt><trkpt lat="46.06466429618635" lon="12.092322831407577"><ele>319.3333333333333</ele><time>2026-04-09T10:27:13.999Z</time></trkpt><trkpt lat="46.06471368836191" lon="12.09257292180002"><ele>319.0</ele><time>2026-04-09T10:27:14.999Z</time></trkpt><trkpt lat="46.06476365844042" lon="12.092825152958062"><ele>318.3333333333333</ele><time>2026-04-09T10:27:15.999Z</time></trkpt><trkpt lat="46.06481602039026" lon="12.093083289231481"><ele>317.6666666666667</ele><time>2026-04-09T10:27:16.999Z</time></trkpt><trkpt lat="46.06487313479816" lon="12.0933565719693"><ele>317.0</ele><time>2026-04-09T10:27:17.999Z</time></trkpt><trkpt lat="46.064928581776066" lon="12.09364429776129"><ele>318.33333333333337</ele><time>2026-04-09T10:27:18.999Z</time></trkpt><trkpt lat="46.06498941100057" lon="12.093939145928065"><ele>319.6666666666667</ele><time>2026-04-09T10:27:19.999Z</time></trkpt><trkpt lat="46.06505066099152" lon="12.09424157438253"><ele>321.0</ele><time>2026-04-09T10:27:20.999Z</time></trkpt><trkpt lat="46.0651133266917" lon="12.094544945481925"><ele>321.0</ele><time>2026-04-09T10:27:21.999Z</time></trkpt><trkpt lat="46.06517456903644" lon="12.094842361932598"><ele>321.0</ele><time>2026-04-09T10:27:22.999Z</time></trkpt><trkpt lat="46.06523376534967" lon="12.095130984638633"><ele>321.0</ele><time>2026-04-09T10:27:23.999Z</time></trkpt><trkpt lat="46.065292951926" lon="12.095417911139176"><ele>321.5</ele><time>2026-04-09T10:27:24.999Z</time></trkpt><trkpt lat="46.06535626414974" lon="12.095719592023535"><ele>322.0</ele><time>2026-04-09T10:27:25.999Z</time></trkpt><trkpt lat="46.06542365346002" lon="12.096045447715516"><ele>323.0</ele><time>2026-04-09T10:27:26.999Z</time></trkpt><trkpt lat="46.065495865355665" lon="12.096382054993768"><ele>324.0</ele><time>2026-04-09T10:27:27.999Z</time></trkpt><trkpt lat="46.06557064032583" lon="12.096729901789214"><ele>324.0</ele><time>2026-04-09T10:27:28.999Z</time></trkpt><trkpt lat="46.06564244968102" lon="12.09708151781295"><ele>324.0</ele><time>2026-04-09T10:27:29.999Z</time></trkpt><trkpt lat="46.06570886377393" lon="12.097403249592583"><ele>324.0</ele><time>2026-04-09T10:27:30.999Z</time></trkpt><trkpt lat="46.06577568453325" lon="12.097708407987788"><ele>324.0</ele><time>2026-04-09T10:27:31.999Z</time></trkpt><trkpt lat="46.065840600488" lon="12.09801428592115"><ele>324.0</ele><time>2026-04-09T10:27:32.999Z</time></trkpt><trkpt lat="46.06590304427937" lon="12.098320788772684"><ele>324.3333333333333</ele><time>2026-04-09T10:27:33.999Z</time></trkpt><trkpt lat="46.06596586119019" lon="12.098630412632804"><ele>324.66666666666663</ele><time>2026-04-09T10:27:34.999Z</time></trkpt><trkpt lat="46.066029358801686" lon="12.098940436407247"><ele>325.0</ele><time>2026-04-09T10:27:35.999Z</time></trkpt><trkpt lat="46.06609423128653" lon="12.099253360303566"><ele>325.0</ele><time>2026-04-09T10:27:36.999Z</time></trkpt><trkpt lat="46.06616024827231" lon="12.099569323662045"><ele>325.0</ele><time>2026-04-09T10:27:37.999Z</time></trkpt><trkpt lat="46.06623513372783" lon="12.099882921598192"><ele>326.0</ele><time>2026-04-09T10:27:38.999Z</time></trkpt><trkpt lat="46.06631117724921" lon="12.100204788162314"><ele>327.0</ele><time>2026-04-09T10:27:39.999Z</time></trkpt><trkpt lat="46.066389665192624" lon="12.100531456353636"><ele>327.0</ele><time>2026-04-09T10:27:41Z</time></trkpt><trkpt lat="46.0664690907125" lon="12.100866330106255"><ele>327.0</ele><time>2026-04-09T10:27:42Z</time></trkpt><trkpt lat="46.06654891266904" lon="12.101209074278637"><ele>327.0</ele><time>2026-04-09T10:27:43Z</time></trkpt><trkpt lat="46.06663122145974" lon="12.101554610578495"><ele>327.0</ele><time>2026-04-09T10:27:44Z</time></trkpt><trkpt lat="46.06671774587775" lon="12.101905328604996"><ele>327.5</ele><time>2026-04-09T10:27:45Z</time></trkpt><trkpt lat="46.06681057506538" lon="12.102275377747826"><ele>328.0</ele><time>2026-04-09T10:27:46Z</time></trkpt><trkpt lat="46.066907147245466" lon="12.102664486068333"><ele>328.5</ele><time>2026-04-09T10:27:47Z</time></trkpt><trkpt lat="46.067006856215194" lon="12.103065319375652"><ele>329.0</ele><time>2026-04-09T10:27:48Z</time></trkpt><trkpt lat="46.06710754275287" lon="12.103478946688373"><ele>329.5</ele><time>2026-04-09T10:27:49Z</time></trkpt><trkpt lat="46.067210958177355" lon="12.103900236978586"><ele>330.0</ele><time>2026-04-09T10:27:50Z</time></trkpt><trkpt lat="46.06731676383849" lon="12.104325413004146"><ele>331.0</ele><time>2026-04-09T10:27:51Z</time></trkpt><trkpt lat="46.067422680220616" lon="12.104746131878388"><ele>332.0</ele><time>2026-04-09T10:27:52Z</time></trkpt><trkpt lat="46.067518559450335" lon="12.105127925252242"><ele>332.0</ele><time>2026-04-09T10:27:53Z</time></trkpt><trkpt lat="46.06761141493514" lon="12.105492933082981"><ele>332.0</ele><time>2026-04-09T10:27:54Z</time></trkpt><trkpt lat="46.06770248594013" lon="12.105856700603084"><ele>333.0</ele><time>2026-04-09T10:27:55Z</time></trkpt><trkpt lat="46.067792345758335" lon="12.106224236038816"><ele>334.0</ele><time>2026-04-09T10:27:56Z</time></trkpt><trkpt lat="46.06788434637465" lon="12.106596401160191"><ele>335.0</ele><time>2026-04-09T10:27:57Z</time></trkpt><trkpt lat="46.06798086408175" lon="12.106976045979904"><ele>336.0</ele><time>2026-04-09T10:27:58Z</time></trkpt><trkpt lat="46.06808210859005" lon="12.10736191694883"><ele>335.5</ele><time>2026-04-09T10:27:59Z</time></trkpt><trkpt lat="46.068182989355854" lon="12.107754622074335"><ele>335.0</ele><time>2026-04-09T10:28:00Z</time></trkpt><trkpt lat="46.06828229465995" lon="12.108150816949438"><ele>335.5</ele><time>2026-04-09T10:28:01Z</time></trkpt><trkpt lat="46.06837152948976" lon="12.108517282276742"><ele>336.0</ele><time>2026-04-09T10:28:02Z</time></trkpt><trkpt lat="46.06845315228866" lon="12.108858865683832"><ele>337.0</ele><time>2026-04-09T10:28:03Z</time></trkpt><trkpt lat="46.06852899191737" lon="12.109183286589424"><ele>338.0</ele><time>2026-04-09T10:28:04Z</time></trkpt><trkpt lat="46.068594596533" lon="12.109493061891854"><ele>338.0</ele><time>2026-04-09T10:28:05Z</time></trkpt><trkpt lat="46.0686485756115" lon="12.109810969366537"><ele>338.0</ele><time>2026-04-09T10:28:06Z</time></trkpt><trkpt lat="46.06869338993102" lon="12.110142088771054"><ele>337.5</ele><time>2026-04-09T10:28:07Z</time></trkpt><trkpt lat="46.06872964666625" lon="12.11049368637168"><ele>337.0</ele><time>2026-04-09T10:28:08Z</time></trkpt><trkpt lat="46.06876286345365" lon="12.110866470701943"><ele>338.5</ele><time>2026-04-09T10:28:09Z</time></trkpt><trkpt lat="46.068792260264885" lon="12.111257836798437"><ele>340.0</ele><time>2026-04-09T10:28:10Z</time></trkpt><trkpt lat="46.068821299853646" lon="12.11165930019421"><ele>343.0</ele><time>2026-04-09T10:28:11Z</time></trkpt><trkpt lat="46.06885629916499" lon="12.112072823649678"><ele>346.0</ele><time>2026-04-09T10:28:12Z</time></trkpt><trkpt lat="46.06889498694576" lon="12.112495805586924"><ele>348.0</ele><time>2026-04-09T10:28:13Z</time></trkpt><trkpt lat="46.06893344434116" lon="12.112930928612649"><ele>350.0</ele><time>2026-04-09T10:28:14Z</time></trkpt><trkpt lat="46.06896566610811" lon="12.113369109427104"><ele>349.5</ele><time>2026-04-09T10:28:15Z</time></trkpt><trkpt lat="46.06899190758771" lon="12.113773582144496"><ele>349.0</ele><time>2026-04-09T10:28:16Z</time></trkpt><trkpt lat="46.069017616416446" lon="12.114155337030931"><ele>349.0</ele><time>2026-04-09T10:28:17Z</time></trkpt><trkpt lat="46.069046463115214" lon="12.114536196109656"><ele>349.0</ele><time>2026-04-09T10:28:18Z</time></trkpt><trkpt lat="46.06907127761465" lon="12.114921450908634"><ele>346.0</ele><time>2026-04-09T10:28:19Z</time></trkpt><trkpt lat="46.06909613098092" lon="12.115301139619357"><ele>343.0</ele><time>2026-04-09T10:28:20Z</time></trkpt><trkpt lat="46.06912587853809" lon="12.115668700020224"><ele>338.0</ele><time>2026-04-09T10:28:21Z</time></trkpt><trkpt lat="46.06915983546304" lon="12.116027720681117"><ele>333.0</ele><time>2026-04-09T10:28:22Z</time></trkpt><trkpt lat="46.069201686648" lon="12.116385517813708"><ele>332.5</ele><time>2026-04-09T10:28:23Z</time></trkpt><trkpt lat="46.069253314268664" lon="12.116733912607405"><ele>332.0</ele><time>2026-04-09T10:28:24Z</time></trkpt><trkpt lat="46.06931922854974" lon="12.117068284322663"><ele>332.0</ele><time>2026-04-09T10:28:25Z</time></trkpt><trkpt lat="46.06939353644832" lon="12.117387440430521"><ele>332.0</ele><time>2026-04-09T10:28:26Z</time></trkpt><trkpt lat="46.06947380243285" lon="12.117691459871068"><ele>334.6666666666667</ele><time>2026-04-09T10:28:27Z</time></trkpt><trkpt lat="46.06955380457956" lon="12.11797043722019"><ele>337.3333333333333</ele><time>2026-04-09T10:28:28Z</time></trkpt><trkpt lat="46.069637868444865" lon="12.118231344260272"><ele>340.0</ele><time>2026-04-09T10:28:29Z</time></trkpt><trkpt lat="46.0697323637875" lon="12.118476461399005"><ele>341.0</ele><time>2026-04-09T10:28:30Z</time></trkpt><trkpt lat="46.06983280446429" lon="12.1187123949577"><ele>342.0</ele><time>2026-04-09T10:28:31Z</time></trkpt><trkpt lat="46.069929129948264" lon="12.118945842360558"><ele>343.0</ele><time>2026-04-09T10:28:32Z</time></trkpt><trkpt lat="46.07002027925579" lon="12.119172161765295"><ele>343.0</ele><time>2026-04-09T10:28:33Z</time></trkpt><trkpt lat="46.07010474761109" lon="12.11938920948199"><ele>343.0</ele><time>2026-04-09T10:28:34Z</time></trkpt><trkpt lat="46.07018584403552" lon="12.119597930362334"><ele>343.0</ele><time>2026-04-09T10:28:35Z</time></trkpt><trkpt lat="46.070264754109985" lon="12.11980435344999"><ele>343.0</ele><time>2026-04-09T10:28:36Z</time></trkpt><trkpt lat="46.07034708265036" lon="12.120011243253511"><ele>343.0</ele><time>2026-04-09T10:28:37Z</time></trkpt><trkpt lat="46.070433334945264" lon="12.120218965702007"><ele>343.0</ele><time>2026-04-09T10:28:38Z</time></trkpt><trkpt lat="46.070523948232506" lon="12.120426681164378"><ele>343.0</ele><time>2026-04-09T10:28:39Z</time></trkpt><trkpt lat="46.07061549233066" lon="12.120640084653555"><ele>343.0</ele><time>2026-04-09T10:28:40Z</time></trkpt><trkpt lat="46.07070599114922" lon="12.120854034976945"><ele>343.0</ele><time>2026-04-09T10:28:41Z</time></trkpt><trkpt lat="46.070799753202934" lon="12.121071786810802"><ele>342.66666666666663</ele><time>2026-04-09T10:28:42Z</time></trkpt><trkpt lat="46.07089115650598" lon="12.121299876480164"><ele>342.3333333333333</ele><time>2026-04-09T10:28:43Z</time></trkpt><trkpt lat="46.0709846301191" lon="12.121534292267965"><ele>342.0</ele><time>2026-04-09T10:28:44Z</time></trkpt><trkpt lat="46.07108517024296" lon="12.121768317723914"><ele>342.0</ele><time>2026-04-09T10:28:45Z</time></trkpt><trkpt lat="46.0711930954981" lon="12.122001036622052"><ele>342.0</ele><time>2026-04-09T10:28:46Z</time></trkpt><trkpt lat="46.0713057664667" lon="12.122231419445981"><ele>342.0</ele><time>2026-04-09T10:28:47Z</time></trkpt><trkpt lat="46.071414102069355" lon="12.122443849224258"><ele>342.0</ele><time>2026-04-09T10:28:48Z</time></trkpt><trkpt lat="46.07152072834802" lon="12.122643677869217"><ele>342.0</ele><time>2026-04-09T10:28:49Z</time></trkpt><trkpt lat="46.071633273978335" lon="12.122841001242799"><ele>342.0</ele><time>2026-04-09T10:28:50Z</time></trkpt><trkpt lat="46.07175132124847" lon="12.123041046558509"><ele>340.6666666666667</ele><time>2026-04-09T10:28:51Z</time></trkpt><trkpt lat="46.07187409761059" lon="12.123243447378908"><ele>339.33333333333337</ele><time>2026-04-09T10:28:52Z</time></trkpt><trkpt lat="46.072008464096335" lon="12.123446617057134"><ele>338.0</ele><time>2026-04-09T10:28:53Z</time></trkpt><trkpt lat="46.07216631552782" lon="12.123662660147076"><ele>338.0</ele><time>2026-04-09T10:28:54Z</time></trkpt><trkpt lat="46.07234225717078" lon="12.123877366800645"><ele>338.0</ele><time>2026-04-09T10:28:55Z</time></trkpt><trkpt lat="46.072535040254444" lon="12.124095442991852"><ele>338.0</ele><time>2026-04-09T10:28:56Z</time></trkpt><trkpt lat="46.07273196442898" lon="12.12432763806315"><ele>338.0</ele><time>2026-04-09T10:28:57Z</time></trkpt><trkpt lat="46.07293317472724" lon="12.124565620342718"><ele>338.0</ele><time>2026-04-09T10:28:58Z</time></trkpt><trkpt lat="46.07314458769191" lon="12.124801511845654"><ele>338.0</ele><time>2026-04-09T10:28:59Z</time></trkpt><trkpt lat="46.07334397365859" lon="12.125017924485158"><ele>335.5</ele><time>2026-04-09T10:29:00Z</time></trkpt><trkpt lat="46.07353045599115" lon="12.125221838879463"><ele>333.0</ele><time>2026-04-09T10:29:01Z</time></trkpt><trkpt lat="46.07370914881701" lon="12.12541690393086"><ele>333.0</ele><time>2026-04-09T10:29:02Z</time></trkpt><trkpt lat="46.07387797382828" lon="12.125602292443672"><ele>333.0</ele><time>2026-04-09T10:29:02.999Z</time></trkpt><trkpt lat="46.074041214118104" lon="12.125782268667454"><ele>333.0</ele><time>2026-04-09T10:29:03.999Z</time></trkpt><trkpt lat="46.074209441330844" lon="12.125962117096464"><ele>334.0</ele><time>2026-04-09T10:29:04.999Z</time></trkpt><trkpt lat="46.07438606827421" lon="12.126148747410145"><ele>335.0</ele><time>2026-04-09T10:29:05.999Z</time></trkpt><trkpt lat="46.074566537804415" lon="12.126337962084909"><ele>336.0</ele><time>2026-04-09T10:29:06.999Z</time></trkpt><trkpt lat="46.07474545062262" lon="12.12652755247728"><ele>336.3333333333333</ele><time>2026-04-09T10:29:07.999Z</time></trkpt><trkpt lat="46.074924208986346" lon="12.126719252325234"><ele>336.66666666666663</ele><time>2026-04-09T10:29:08.999Z</time></trkpt><trkpt lat="46.07509967366097" lon="12.126909423072677"><ele>337.0</ele><time>2026-04-09T10:29:09.999Z</time></trkpt><trkpt lat="46.075266574442956" lon="12.127091025548086"><ele>336.3333333333333</ele><time>2026-04-09T10:29:10.999Z</time></trkpt><trkpt lat="46.075436395229765" lon="12.127272962781486"><ele>335.6666666666667</ele><time>2026-04-09T10:29:11.999Z</time></trkpt><trkpt lat="46.07562136832829" lon="12.127466665345215"><ele>335.0</ele><time>2026-04-09T10:29:12.999Z</time></trkpt><trkpt lat="46.07582567378295" lon="12.12767638074024"><ele>332.0</ele><time>2026-04-09T10:29:13.999Z</time></trkpt><trkpt lat="46.07604447922295" lon="12.12790092525601"><ele>329.0</ele><time>2026-04-09T10:29:14.999Z</time></trkpt><trkpt lat="46.076272834212396" lon="12.12814068140354"><ele>328.5</ele><time>2026-04-09T10:29:15.999Z</time></trkpt><trkpt lat="46.076513202093096" lon="12.128388538767403"><ele>328.0</ele><time>2026-04-09T10:29:16.999Z</time></trkpt><trkpt lat="46.07675886150635" lon="12.128643440340369"><ele>328.0</ele><time>2026-04-09T10:29:17.999Z</time></trkpt><trkpt lat="46.076998880925856" lon="12.128904292166835"><ele>328.0</ele><time>2026-04-09T10:29:18.999Z</time></trkpt><trkpt lat="46.07722955883966" lon="12.129167221572269"><ele>325.0</ele><time>2026-04-09T10:29:19.999Z</time></trkpt><trkpt lat="46.077457945087204" lon="12.129429836970067"><ele>322.0</ele><time>2026-04-09T10:29:20.999Z</time></trkpt><trkpt lat="46.077685517984804" lon="12.129684087020117"><ele>323.5</ele><time>2026-04-09T10:29:21.999Z</time></trkpt><trkpt lat="46.07791481920542" lon="12.129933474066831"><ele>325.0</ele><time>2026-04-09T10:29:22.999Z</time></trkpt><trkpt lat="46.07814503494487" lon="12.130180919247302"><ele>323.0</ele><time>2026-04-09T10:29:23.999Z</time></trkpt><trkpt lat="46.078374363412955" lon="12.130425382727239"><ele>321.0</ele><time>2026-04-09T10:29:24.999Z</time></trkpt><trkpt lat="46.07860139132286" lon="12.13066586237048"><ele>322.5</ele><time>2026-04-09T10:29:25.999Z</time></trkpt><trkpt lat="46.07882486237606" lon="12.130905798942404"><ele>324.0</ele><time>2026-04-09T10:29:26.999Z</time></trkpt><trkpt lat="46.0790431330386" lon="12.131144703857789"><ele>324.5</ele><time>2026-04-09T10:29:27.999Z</time></trkpt><trkpt lat="46.07925959556619" lon="12.131380692601827"><ele>325.0</ele><time>2026-04-09T10:29:28.999Z</time></trkpt><trkpt lat="46.07947431245248" lon="12.131613022985997"><ele>325.0</ele><time>2026-04-09T10:29:29.999Z</time></trkpt><trkpt lat="46.079687852551174" lon="12.131841603211777"><ele>325.0</ele><time>2026-04-09T10:29:30.999Z</time></trkpt><trkpt lat="46.07990304995554" lon="12.132071642711837"><ele>323.0</ele><time>2026-04-09T10:29:31.999Z</time></trkpt><trkpt lat="46.08012082956392" lon="12.132304329817629"><ele>321.0</ele><time>2026-04-09T10:29:32.999Z</time></trkpt><trkpt lat="46.08033975532243" lon="12.132540687487374"><ele>321.0</ele><time>2026-04-09T10:29:33.999Z</time></trkpt><trkpt lat="46.08055769465083" lon="12.132778578427155"><ele>321.0</ele><time>2026-04-09T10:29:34.999Z</time></trkpt><trkpt lat="46.08075846336493" lon="12.132998772423518"><ele>319.5</ele><time>2026-04-09T10:29:35.999Z</time></trkpt><trkpt lat="46.08095386358684" lon="12.13320687274477"><ele>318.0</ele><time>2026-04-09T10:29:36.999Z</time></trkpt><trkpt lat="46.081147996111035" lon="12.13341317532212"><ele>318.0</ele><time>2026-04-09T10:29:37.999Z</time></trkpt><trkpt lat="46.08133845040337" lon="12.133628771246388"><ele>318.0</ele><time>2026-04-09T10:29:38.999Z</time></trkpt><trkpt lat="46.08152394244619" lon="12.133864875815753"><ele>318.5</ele><time>2026-04-09T10:29:39.999Z</time></trkpt><trkpt lat="46.08170114223584" lon="12.134116201032889"><ele>319.0</ele><time>2026-04-09T10:29:40.999Z</time></trkpt><trkpt lat="46.08187049687153" lon="12.13438290135512"><ele>319.0</ele><time>2026-04-09T10:29:41.999Z</time></trkpt><trkpt lat="46.08202267074492" lon="12.13466670816254"><ele>319.0</ele><time>2026-04-09T10:29:42.999Z</time></trkpt><trkpt lat="46.08215895737152" lon="12.134946317997102"><ele>319.5</ele><time>2026-04-09T10:29:43.999Z</time></trkpt><trkpt lat="46.08228444795018" lon="12.135221166279965"><ele>320.0</ele><time>2026-04-09T10:29:44.999Z</time></trkpt><trkpt lat="46.08240223244985" lon="12.135514957587395"><ele>321.5</ele><time>2026-04-09T10:29:45.999Z</time></trkpt><trkpt lat="46.08251343699225" lon="12.135835369156965"><ele>323.0</ele><time>2026-04-09T10:29:47Z</time></trkpt><trkpt lat="46.082618017390004" lon="12.136169911265739"><ele>323.0</ele><time>2026-04-09T10:29:48Z</time></trkpt><trkpt lat="46.08270809006923" lon="12.136505612463193"><ele>323.0</ele><time>2026-04-09T10:29:49Z</time></trkpt><trkpt lat="46.08278351199164" lon="12.136854134878618"><ele>323.0</ele><time>2026-04-09T10:29:50Z</time></trkpt><trkpt lat="46.08285600659799" lon="12.137235318158346"><ele>323.0</ele><time>2026-04-09T10:29:51Z</time></trkpt><trkpt lat="46.08292427577126" lon="12.137632350048078"><ele>324.0</ele><time>2026-04-09T10:29:52Z</time></trkpt><trkpt lat="46.08299119532282" lon="12.138040048907651"><ele>325.0</ele><time>2026-04-09T10:29:53Z</time></trkpt><trkpt lat="46.083064042469225" lon="12.138462023153135"><ele>326.0</ele><time>2026-04-09T10:29:54Z</time></trkpt><trkpt lat="46.083142858470204" lon="12.138901048296294"><ele>327.0</ele><time>2026-04-09T10:29:55Z</time></trkpt><trkpt lat="46.08322361821088" lon="12.139353791669823"><ele>326.5</ele><time>2026-04-09T10:29:56Z</time></trkpt><trkpt lat="46.08330658944477" lon="12.13981841509707"><ele>326.0</ele><time>2026-04-09T10:29:57Z</time></trkpt><trkpt lat="46.083386359690685" lon="12.140290116062062"><ele>327.5</ele><time>2026-04-09T10:29:58Z</time></trkpt><trkpt lat="46.08346271151967" lon="12.140725265274812"><ele>329.0</ele><time>2026-04-09T10:29:59Z</time></trkpt><trkpt lat="46.083528737418774" lon="12.14113276633733"><ele>329.0</ele><time>2026-04-09T10:30:00Z</time></trkpt><trkpt lat="46.08359579094375" lon="12.141521754789498"><ele>329.0</ele><time>2026-04-09T10:30:01Z</time></trkpt><trkpt lat="46.08366328179294" lon="12.141911751532277"><ele>329.0</ele><time>2026-04-09T10:30:02Z</time></trkpt><trkpt lat="46.08373249662864" lon="12.142311205168541"><ele>329.0</ele><time>2026-04-09T10:30:03Z</time></trkpt><trkpt lat="46.08379945283518" lon="12.142719832332666"><ele>329.0</ele><time>2026-04-09T10:30:04Z</time></trkpt><trkpt lat="46.0838697199136" lon="12.143117380939907"><ele>329.0</ele><time>2026-04-09T10:30:05Z</time></trkpt><trkpt lat="46.08394042530875" lon="12.143511647989879"><ele>330.0</ele><time>2026-04-09T10:30:06Z</time></trkpt><trkpt lat="46.08401060637491" lon="12.143912643349926"><ele>331.0</ele><time>2026-04-09T10:30:07Z</time></trkpt><trkpt lat="46.08408021671505" lon="12.144317352802299"><ele>330.0</ele><time>2026-04-09T10:30:08Z</time></trkpt><trkpt lat="46.084154283486434" lon="12.144727129020579"><ele>329.0</ele><time>2026-04-09T10:30:09Z</time></trkpt><trkpt lat="46.08423247464165" lon="12.14513797513905"><ele>329.0</ele><time>2026-04-09T10:30:10Z</time></trkpt><trkpt lat="46.08431916479883" lon="12.145544742945818"><ele>329.0</ele><time>2026-04-09T10:30:11Z</time></trkpt><trkpt lat="46.08441539377363" lon="12.145936981653401"><ele>330.0</ele><time>2026-04-09T10:30:12Z</time></trkpt><trkpt lat="46.08451999737432" lon="12.146318253399173"><ele>331.0</ele><time>2026-04-09T10:30:13Z</time></trkpt><trkpt lat="46.0846223438269" lon="12.146671618236308"><ele>331.5</ele><time>2026-04-09T10:30:14Z</time></trkpt><trkpt lat="46.084722311546834" lon="12.1470021550129"><ele>332.0</ele><time>2026-04-09T10:30:15Z</time></trkpt><trkpt lat="46.0848208681233" lon="12.147328508045149"><ele>330.5</ele><time>2026-04-09T10:30:16Z</time></trkpt><trkpt lat="46.0849213057155" lon="12.147650803689121"><ele>329.0</ele><time>2026-04-09T10:30:17Z</time></trkpt><trkpt lat="46.08502565864431" lon="12.147967850758354"><ele>326.0</ele><time>2026-04-09T10:30:18Z</time></trkpt><trkpt lat="46.085132586469236" lon="12.148286517048591"><ele>323.0</ele><time>2026-04-09T10:30:19Z</time></trkpt><trkpt lat="46.085237533995105" lon="12.148609234989504"><ele>323.0</ele><time>2026-04-09T10:30:20Z</time></trkpt><trkpt lat="46.08534310308329" lon="12.148932919477003"><ele>323.0</ele><time>2026-04-09T10:30:21Z</time></trkpt><trkpt lat="46.08544904948145" lon="12.149264049746202"><ele>323.0</ele><time>2026-04-09T10:30:22Z</time></trkpt><trkpt lat="46.08555910613992" lon="12.149601642017844"><ele>323.0</ele><time>2026-04-09T10:30:23Z</time></trkpt><trkpt lat="46.0856719335203" lon="12.149946207102271"><ele>328.5</ele><time>2026-04-09T10:30:24Z</time></trkpt><trkpt lat="46.08578674277914" lon="12.150295026804526"><ele>334.0</ele><time>2026-04-09T10:30:25Z</time></trkpt><trkpt lat="46.08590236567937" lon="12.150648209446528"><ele>336.0</ele><time>2026-04-09T10:30:26Z</time></trkpt><trkpt lat="46.08601956783609" lon="12.151002837334298"><ele>338.0</ele><time>2026-04-09T10:30:27Z</time></trkpt><trkpt lat="46.08614121436904" lon="12.151364191064284"><ele>340.0</ele><time>2026-04-09T10:30:28Z</time></trkpt><trkpt lat="46.086262228154624" lon="12.151735075761946"><ele>342.0</ele><time>2026-04-09T10:30:29Z</time></trkpt><trkpt lat="46.08639429293489" lon="12.152123699350193"><ele>341.5</ele><time>2026-04-09T10:30:30Z</time></trkpt><trkpt lat="46.08653161097336" lon="12.152527231552634"><ele>341.0</ele><time>2026-04-09T10:30:31Z</time></trkpt><trkpt lat="46.08667500141722" lon="12.15293883381813"><ele>338.5</ele><time>2026-04-09T10:30:32Z</time></trkpt><trkpt lat="46.086819779369925" lon="12.153367807206848"><ele>336.0</ele><time>2026-04-09T10:30:33Z</time></trkpt><trkpt lat="46.086964889843735" lon="12.153822237418415"><ele>337.0</ele><time>2026-04-09T10:30:34Z</time></trkpt><trkpt lat="46.08711061367184" lon="12.154292044359108"><ele>338.0</ele><time>2026-04-09T10:30:35Z</time></trkpt><trkpt lat="46.08725803612543" lon="12.154771311656349"><ele>336.5</ele><time>2026-04-09T10:30:36Z</time></trkpt><trkpt lat="46.08741150388509" lon="12.155259011945992"><ele>335.0</ele><time>2026-04-09T10:30:37Z</time></trkpt><trkpt lat="46.08757075440491" lon="12.155750115775536"><ele>330.0</ele><time>2026-04-09T10:30:38Z</time></trkpt><trkpt lat="46.08771921179262" lon="12.156201776587265"><ele>325.0</ele><time>2026-04-09T10:30:39Z</time></trkpt><trkpt lat="46.087858671050874" lon="12.156622528278259"><ele>325.0</ele><time>2026-04-09T10:30:40Z</time></trkpt><trkpt lat="46.087985641528064" lon="12.157016477652476"><ele>325.0</ele><time>2026-04-09T10:30:41Z</time></trkpt><trkpt lat="46.088105380104146" lon="12.157389083453472"><ele>325.5</ele><time>2026-04-09T10:30:42Z</time></trkpt><trkpt lat="46.08821868354862" lon="12.15774155290919"><ele>326.0</ele><time>2026-04-09T10:30:43Z</time></trkpt><trkpt lat="46.08832507809562" lon="12.15807118373694"><ele>327.5</ele><time>2026-04-09T10:30:44Z</time></trkpt><trkpt lat="46.08842456461727" lon="12.158384121117356"><ele>329.0</ele><time>2026-04-09T10:30:45Z</time></trkpt><trkpt lat="46.08852257495776" lon="12.158697120961952"><ele>329.0</ele><time>2026-04-09T10:30:46Z</time></trkpt><trkpt lat="46.08862589436823" lon="12.159014786615037"><ele>329.0</ele><time>2026-04-09T10:30:47Z</time></trkpt><trkpt lat="46.088738198308356" lon="12.159330068854592"><ele>330.0</ele><time>2026-04-09T10:30:48Z</time></trkpt><trkpt lat="46.08884501960881" lon="12.159646431451"><ele>331.0</ele><time>2026-04-09T10:30:49Z</time></trkpt><trkpt lat="46.08895243308343" lon="12.159963268198556"><ele>331.66666666666663</ele><time>2026-04-09T10:30:50Z</time></trkpt><trkpt lat="46.08905449245475" lon="12.160255225442866"><ele>332.3333333333333</ele><time>2026-04-09T10:30:51Z</time></trkpt><trkpt lat="46.08915115850279" lon="12.16052426913246"><ele>333.0</ele><time>2026-04-09T10:30:52Z</time></trkpt><trkpt lat="46.08924710688709" lon="12.160766321008094"><ele>335.0</ele><time>2026-04-09T10:30:53Z</time></trkpt><trkpt lat="46.089340347050005" lon="12.16099554098682"><ele>337.0</ele><time>2026-04-09T10:30:54Z</time></trkpt><trkpt lat="46.089426190442005" lon="12.161214705847279"><ele>339.0</ele><time>2026-04-09T10:30:55Z</time></trkpt><trkpt lat="46.089511248780916" lon="12.161438894457035"><ele>338.3333333333333</ele><time>2026-04-09T10:30:56Z</time></trkpt><trkpt lat="46.08959896625784" lon="12.161666614884094"><ele>337.66666666666663</ele><time>2026-04-09T10:30:57Z</time></trkpt><trkpt lat="46.08968792389106" lon="12.161903889537536"><ele>337.0</ele><time>2026-04-09T10:30:58Z</time></trkpt><trkpt lat="46.0897882884045" lon="12.162142426092243"><ele>336.66666666666663</ele><time>2026-04-09T10:30:59Z</time></trkpt><trkpt lat="46.08989163917826" lon="12.162387647904925"><ele>336.3333333333333</ele><time>2026-04-09T10:30:59.999Z</time></trkpt><trkpt lat="46.089990494160425" lon="12.16262819564729"><ele>336.0</ele><time>2026-04-09T10:31:00.999Z</time></trkpt><trkpt lat="46.09008618487401" lon="12.162857630720001"><ele>337.3333333333333</ele><time>2026-04-09T10:31:01.999Z</time></trkpt><trkpt lat="46.090173218769586" lon="12.163073027929542"><ele>338.66666666666663</ele><time>2026-04-09T10:31:02.999Z</time></trkpt><trkpt lat="46.090260243649396" lon="12.163290854872256"><ele>340.0</ele><time>2026-04-09T10:31:03.999Z</time></trkpt><trkpt lat="46.090354648557934" lon="12.16351698207946"><ele>340.0</ele><time>2026-04-09T10:31:04.999Z</time></trkpt><trkpt lat="46.09045605576104" lon="12.163758909728536"><ele>340.0</ele><time>2026-04-09T10:31:05.999Z</time></trkpt><trkpt lat="46.09056259619833" lon="12.164012763809126"><ele>340.0</ele><time>2026-04-09T10:31:06.999Z</time></trkpt><trkpt lat="46.09066529636159" lon="12.164259220129084"><ele>341.66666666666663</ele><time>2026-04-09T10:31:07.999Z</time></trkpt><trkpt lat="46.0907638885402" lon="12.164486230502936"><ele>343.3333333333333</ele><time>2026-04-09T10:31:08.999Z</time></trkpt><trkpt lat="46.09086642858968" lon="12.164694154220367"><ele>345.0</ele><time>2026-04-09T10:31:09.999Z</time></trkpt><trkpt lat="46.09096760037457" lon="12.164894625147475"><ele>345.0</ele><time>2026-04-09T10:31:10.999Z</time></trkpt><trkpt lat="46.09106936608892" lon="12.165092528872176"><ele>345.0</ele><time>2026-04-09T10:31:11.999Z</time></trkpt><trkpt lat="46.09117213136623" lon="12.165289648361881"><ele>345.0</ele><time>2026-04-09T10:31:12.999Z</time></trkpt><trkpt lat="46.09127907595151" lon="12.165481808723236"><ele>345.0</ele><time>2026-04-09T10:31:13.999Z</time></trkpt><trkpt lat="46.091392367420966" lon="12.165667613084022"><ele>345.0</ele><time>2026-04-09T10:31:14.999Z</time></trkpt><trkpt lat="46.09150959384474" lon="12.16585831919325"><ele>345.0</ele><time>2026-04-09T10:31:15.999Z</time></trkpt><trkpt lat="46.09162911242487" lon="12.166050110398212"><ele>345.6666666666667</ele><time>2026-04-09T10:31:16.999Z</time></trkpt><trkpt lat="46.091747860587425" lon="12.166239657092138"><ele>346.33333333333337</ele><time>2026-04-09T10:31:17.999Z</time></trkpt><trkpt lat="46.09186689751695" lon="12.166428132656085"><ele>347.0</ele><time>2026-04-09T10:31:18.999Z</time></trkpt><trkpt lat="46.09198674454479" lon="12.166618483075062"><ele>347.0</ele><time>2026-04-09T10:31:19.999Z</time></trkpt><trkpt lat="46.09210443756581" lon="12.16681197462143"><ele>347.0</ele><time>2026-04-09T10:31:20.999Z</time></trkpt><trkpt lat="46.092223810943395" lon="12.167009958035214"><ele>347.0</ele><time>2026-04-09T10:31:21.999Z</time></trkpt><trkpt lat="46.09234140195691" lon="12.167204236680215"><ele>347.33333333333337</ele><time>2026-04-09T10:31:22.999Z</time></trkpt><trkpt lat="46.09245464567107" lon="12.167394208183149"><ele>347.6666666666667</ele><time>2026-04-09T10:31:23.999Z</time></trkpt><trkpt lat="46.09256922630724" lon="12.167578602292348"><ele>348.0</ele><time>2026-04-09T10:31:24.999Z</time></trkpt><trkpt lat="46.092684656116646" lon="12.167764997648796"><ele>348.0</ele><time>2026-04-09T10:31:25.999Z</time></trkpt><trkpt lat="46.09279726980485" lon="12.167954367468722"><ele>348.0</ele><time>2026-04-09T10:31:26.999Z</time></trkpt><trkpt lat="46.09291170696236" lon="12.168145372825213"><ele>348.0</ele><time>2026-04-09T10:31:27.999Z</time></trkpt><trkpt lat="46.09302978570606" lon="12.168337718549761"><ele>348.0</ele><time>2026-04-09T10:31:28.999Z</time></trkpt><trkpt lat="46.093150194007464" lon="12.168532666963337"><ele>348.0</ele><time>2026-04-09T10:31:29.999Z</time></trkpt><trkpt lat="46.0932739198133" lon="12.168729800835367"><ele>348.0</ele><time>2026-04-09T10:31:30.999Z</time></trkpt><trkpt lat="46.09340169258568" lon="12.168938262656138"><ele>349.3333333333333</ele><time>2026-04-09T10:31:31.999Z</time></trkpt><trkpt lat="46.09353130805101" lon="12.169151884362694"><ele>350.66666666666663</ele><time>2026-04-09T10:31:32.999Z</time></trkpt><trkpt lat="46.09365950899859" lon="12.169363019218835"><ele>352.0</ele><time>2026-04-09T10:31:33.999Z</time></trkpt><trkpt lat="46.093790086570024" lon="12.169569846601528"><ele>352.0</ele><time>2026-04-09T10:31:34.999Z</time></trkpt><trkpt lat="46.09392151691749" lon="12.169777093294996"><ele>352.0</ele><time>2026-04-09T10:31:35.999Z</time></trkpt><trkpt lat="46.09404913770602" lon="12.169980296618593"><ele>352.0</ele><time>2026-04-09T10:31:36.999Z</time></trkpt><trkpt lat="46.09417364082535" lon="12.170184445119475"><ele>352.0</ele><time>2026-04-09T10:31:37.999Z</time></trkpt><trkpt lat="46.0942949357684" lon="12.170389355884694"><ele>352.0</ele><time>2026-04-09T10:31:38.999Z</time></trkpt><trkpt lat="46.09442094584277" lon="12.170592340375757"><ele>352.0</ele><time>2026-04-09T10:31:39.999Z</time></trkpt><trkpt lat="46.09454678123555" lon="12.170792023064285"><ele>350.3333333333333</ele><time>2026-04-09T10:31:40.999Z</time></trkpt><trkpt lat="46.09466755465043" lon="12.170984207935552"><ele>348.6666666666667</ele><time>2026-04-09T10:31:41.999Z</time></trkpt><trkpt lat="46.09478316241286" lon="12.171164652730482"><ele>347.0</ele><time>2026-04-09T10:31:42.999Z</time></trkpt><trkpt lat="46.09489839954464" lon="12.17132906107771"><ele>346.33333333333337</ele><time>2026-04-09T10:31:43.999Z</time></trkpt><trkpt lat="46.095018141405205" lon="12.171473495401282"><ele>345.6666666666667</ele><time>2026-04-09T10:31:44.999Z</time></trkpt><trkpt lat="46.09513682640191" lon="12.171613851851912"><ele>345.0</ele><time>2026-04-09T10:31:45.999Z</time></trkpt><trkpt lat="46.09525811190443" lon="12.17175320436295"><ele>345.0</ele><time>2026-04-09T10:31:46.999Z</time></trkpt><trkpt lat="46.095385007815295" lon="12.171887583397032"><ele>345.0</ele><time>2026-04-09T10:31:47.999Z</time></trkpt><trkpt lat="46.0955109701749" lon="12.172008438723319"><ele>345.0</ele><time>2026-04-09T10:31:48.999Z</time></trkpt><trkpt lat="46.09563455002595" lon="12.172121081431737"><ele>345.0</ele><time>2026-04-09T10:31:49.999Z</time></trkpt><trkpt lat="46.09575728648874" lon="12.17222808031335"><ele>345.0</ele><time>2026-04-09T10:31:50.999Z</time></trkpt><trkpt lat="46.09586931993766" lon="12.172317618221088"><ele>345.0</ele><time>2026-04-09T10:31:51.999Z</time></trkpt><trkpt lat="46.0959772511135" lon="12.172381671690315"><ele>345.0</ele><time>2026-04-09T10:31:53Z</time></trkpt><trkpt lat="46.09607341142989" lon="12.172429667533269"><ele>345.0</ele><time>2026-04-09T10:31:54Z</time></trkpt><trkpt lat="46.09616039624392" lon="12.172474845398886"><ele>345.0</ele><time>2026-04-09T10:31:55Z</time></trkpt><trkpt lat="46.09623992557495" lon="12.17252399040648"><ele>345.0</ele><time>2026-04-09T10:31:56Z</time></trkpt><trkpt lat="46.096315612887196" lon="12.172571783546852"><ele>345.0</ele><time>2026-04-09T10:31:57Z</time></trkpt><trkpt lat="46.096394798025734" lon="12.172607397003294"><ele>345.0</ele><time>2026-04-09T10:31:58Z</time></trkpt><trkpt lat="46.096462031730994" lon="12.172647221210632"><ele>345.0</ele><time>2026-04-09T10:31:59Z</time></trkpt><trkpt lat="46.09652304715517" lon="12.172689557460924"><ele>345.8</ele><time>2026-04-09T10:32:00Z</time></trkpt><trkpt lat="46.09661720846281" lon="12.172784351987115"><ele>346.6</ele><time>2026-04-09T10:32:02Z</time></trkpt><trkpt lat="46.096658197069466" lon="12.172863886413579"><ele>347.4</ele><time>2026-04-09T10:32:05Z</time></trkpt><trkpt lat="46.096700581858286" lon="12.172957360356753"><ele>348.2</ele><time>2026-04-09T10:32:08Z</time></trkpt><trkpt lat="46.09677734567689" lon="12.17307870675516"><ele>349.0</ele><time>2026-04-09T10:32:10Z</time></trkpt><trkpt lat="46.096774249103404" lon="12.173206803425863"><ele>349.0</ele><time>2026-04-09T10:32:11Z</time></trkpt><trkpt lat="46.096814759132236" lon="12.173321492582168"><ele>349.0</ele><time>2026-04-09T10:32:12Z</time></trkpt><trkpt lat="46.096854787727715" lon="12.173433911995529"><ele>349.0</ele><time>2026-04-09T10:32:13Z</time></trkpt><trkpt lat="46.09689539253309" lon="12.173546383621867"><ele>349.0</ele><time>2026-04-09T10:32:14Z</time></trkpt><trkpt lat="46.09694318757708" lon="12.173677190004051"><ele>349.0</ele><time>2026-04-09T10:32:15Z</time></trkpt><trkpt lat="46.096998021535455" lon="12.173822928924443"><ele>349.0</ele><time>2026-04-09T10:32:16Z</time></trkpt><trkpt lat="46.0970658570689" lon="12.173980995293459"><ele>349.0</ele><time>2026-04-09T10:32:17Z</time></trkpt><trkpt lat="46.09712834532797" lon="12.174121729534495"><ele>349.0</ele><time>2026-04-09T10:32:18Z</time></trkpt><trkpt lat="46.09718909077247" lon="12.174266821751297"><ele>349.0</ele><time>2026-04-09T10:32:19Z</time></trkpt><trkpt lat="46.097245610896245" lon="12.174417742871718"><ele>349.25</ele><time>2026-04-09T10:32:20Z</time></trkpt><trkpt lat="46.09730161057729" lon="12.174571343870012"><ele>349.5</ele><time>2026-04-09T10:32:21Z</time></trkpt><trkpt lat="46.09736059194684" lon="12.174730960299236"><ele>349.75</ele><time>2026-04-09T10:32:22Z</time></trkpt><trkpt lat="46.0974232354664" lon="12.17488665901447"><ele>350.0</ele><time>2026-04-09T10:32:23Z</time></trkpt><trkpt lat="46.097484716769145" lon="12.175045029571038"><ele>351.0</ele><time>2026-04-09T10:32:24Z</time></trkpt><trkpt lat="46.09754371535763" lon="12.175198491672786"><ele>352.0</ele><time>2026-04-09T10:32:25Z</time></trkpt><trkpt lat="46.09760304963686" lon="12.175353561716403"><ele>353.0</ele><time>2026-04-09T10:32:26Z</time></trkpt><trkpt lat="46.09766468992655" lon="12.175500685913004"><ele>354.0</ele><time>2026-04-09T10:32:27Z</time></trkpt><trkpt lat="46.09773185477288" lon="12.175634923804092"><ele>354.0</ele><time>2026-04-09T10:32:28Z</time></trkpt><trkpt lat="46.09780712967363" lon="12.17575312237983"><ele>354.0</ele><time>2026-04-09T10:32:29Z</time></trkpt><trkpt lat="46.09788868897853" lon="12.175858833544092"><ele>354.0</ele><time>2026-04-09T10:32:30Z</time></trkpt><trkpt lat="46.09798640656572" lon="12.175941826261376"><ele>354.0</ele><time>2026-04-09T10:32:31Z</time></trkpt><trkpt lat="46.09808519758363" lon="12.17602488873593"><ele>354.0</ele><time>2026-04-09T10:32:32Z</time></trkpt><trkpt lat="46.098189790865966" lon="12.1761064846807"><ele>354.0</ele><time>2026-04-09T10:32:33Z</time></trkpt><trkpt lat="46.098299435155425" lon="12.176187429092627"><ele>354.0</ele><time>2026-04-09T10:32:34Z</time></trkpt><trkpt lat="46.09840906216207" lon="12.176270545475065"><ele>354.0</ele><time>2026-04-09T10:32:35Z</time></trkpt><trkpt lat="46.098519767659404" lon="12.17635179162205"><ele>354.0</ele><time>2026-04-09T10:32:36Z</time></trkpt><trkpt lat="46.0986224335938" lon="12.176435922508885"><ele>354.0</ele><time>2026-04-09T10:32:37Z</time></trkpt><trkpt lat="46.09871644415392" lon="12.176515470811575"><ele>354.0</ele><time>2026-04-09T10:32:38Z</time></trkpt><trkpt lat="46.09880326130506" lon="12.17660671024567"><ele>354.0</ele><time>2026-04-09T10:32:39Z</time></trkpt><trkpt lat="46.0988833625041" lon="12.176726538291286"><ele>354.0</ele><time>2026-04-09T10:32:40Z</time></trkpt><trkpt lat="46.09894643289129" lon="12.176870484732982"><ele>354.25</ele><time>2026-04-09T10:32:41Z</time></trkpt><trkpt lat="46.098991656280816" lon="12.177028936584229"><ele>354.5</ele><time>2026-04-09T10:32:42Z</time></trkpt><trkpt lat="46.09901552554033" lon="12.177200136879486"><ele>354.75</ele><time>2026-04-09T10:32:43Z</time></trkpt><trkpt lat="46.099023465576586" lon="12.177375488297491"><ele>355.0</ele><time>2026-04-09T10:32:44Z</time></trkpt><trkpt lat="46.09902045885318" lon="12.177547213303873"><ele>355.0</ele><time>2026-04-09T10:32:45Z</time></trkpt><trkpt lat="46.099004396177115" lon="12.177709032064643"><ele>355.0</ele><time>2026-04-09T10:32:46Z</time></trkpt><trkpt lat="46.09898551076905" lon="12.177867720694545"><ele>355.0</ele><time>2026-04-09T10:32:47Z</time></trkpt><trkpt lat="46.09896810609355" lon="12.17801511154752"><ele>355.0</ele><time>2026-04-09T10:32:48Z</time></trkpt><trkpt lat="46.0989510236325" lon="12.178168356044656"><ele>355.0</ele><time>2026-04-09T10:32:49Z</time></trkpt><trkpt lat="46.098934761592886" lon="12.178313754074514"><ele>355.75</ele><time>2026-04-09T10:32:50Z</time></trkpt><trkpt lat="46.09891400687179" lon="12.178457929053064"><ele>356.5</ele><time>2026-04-09T10:32:51Z</time></trkpt><trkpt lat="46.09889317161134" lon="12.178622251620164"><ele>357.25</ele><time>2026-04-09T10:32:52Z</time></trkpt><trkpt lat="46.098874461383296" lon="12.178817631103188"><ele>358.0</ele><time>2026-04-09T10:32:53Z</time></trkpt><trkpt lat="46.09884959541573" lon="12.179021641630428"><ele>358.79999999999995</ele><time>2026-04-09T10:32:54Z</time></trkpt><trkpt lat="46.09882954569237" lon="12.17919636272356"><ele>359.6</ele><time>2026-04-09T10:32:55Z</time></trkpt><trkpt lat="46.09881445680002" lon="12.17935407098104"><ele>360.4</ele><time>2026-04-09T10:32:56Z</time></trkpt><trkpt lat="46.098809328117326" lon="12.179494729476197"><ele>361.20000000000005</ele><time>2026-04-09T10:32:57Z</time></trkpt><trkpt lat="46.09881116615095" lon="12.17961392660294"><ele>362.0</ele><time>2026-04-09T10:32:58Z</time></trkpt><trkpt lat="46.098812966904426" lon="12.179734016713194"><ele>362.1666666666667</ele><time>2026-04-09T10:32:59Z</time></trkpt><trkpt lat="46.09881875033371" lon="12.17986558351873"><ele>362.33333333333337</ele><time>2026-04-09T10:33:00Z</time></trkpt><trkpt lat="46.09882382244563" lon="12.179983463381104"><ele>362.5</ele><time>2026-04-09T10:33:01Z</time></trkpt><trkpt lat="46.0988306914431" lon="12.180095781491096"><ele>362.6666666666667</ele><time>2026-04-09T10:33:02Z</time></trkpt><trkpt lat="46.09883704120629" lon="12.180209323228413"><ele>362.8333333333333</ele><time>2026-04-09T10:33:02.999Z</time></trkpt><trkpt lat="46.098841418018125" lon="12.180304664003042"><ele>363.0</ele><time>2026-04-09T10:33:03.999Z</time></trkpt><trkpt lat="46.09885378933211" lon="12.180404766063026"><ele>363.0</ele><time>2026-04-09T10:33:04.999Z</time></trkpt><trkpt lat="46.098872149579435" lon="12.18050633802729"><ele>363.0</ele><time>2026-04-09T10:33:05.999Z</time></trkpt><trkpt lat="46.09888761067192" lon="12.180619037729246"><ele>363.0</ele><time>2026-04-09T10:33:06.999Z</time></trkpt><trkpt lat="46.09890419341812" lon="12.18073377683397"><ele>363.0</ele><time>2026-04-09T10:33:07.999Z</time></trkpt><trkpt lat="46.09891880093842" lon="12.180847938905492"><ele>363.0</ele><time>2026-04-09T10:33:08.999Z</time></trkpt><trkpt lat="46.098935947211025" lon="12.180967357381816"><ele>363.0</ele><time>2026-04-09T10:33:09.999Z</time></trkpt><trkpt lat="46.09895507370409" lon="12.181095725075854"><ele>362.8333333333333</ele><time>2026-04-09T10:33:10.999Z</time></trkpt><trkpt lat="46.09897737433021" lon="12.181227876663542"><ele>362.6666666666667</ele><time>2026-04-09T10:33:11.999Z</time></trkpt><trkpt lat="46.098989985667394" lon="12.181352006208249"><ele>362.5</ele><time>2026-04-09T10:33:12.999Z</time></trkpt><trkpt lat="46.0989982733176" lon="12.18146225934773"><ele>362.33333333333337</ele><time>2026-04-09T10:33:13.999Z</time></trkpt><trkpt lat="46.0990063684896" lon="12.181555784084765"><ele>362.1666666666667</ele><time>2026-04-09T10:33:14.999Z</time></trkpt><trkpt lat="46.09901518961052" lon="12.181718651395695"><ele>362.0</ele><time>2026-04-09T10:33:16.999Z</time></trkpt><trkpt lat="46.099019973587936" lon="12.181815095775463"><ele>361.6</ele><time>2026-04-09T10:33:17.999Z</time></trkpt><trkpt lat="46.09902181793394" lon="12.181997364499434"><ele>361.20000000000005</ele><time>2026-04-09T10:33:19.999Z</time></trkpt><trkpt lat="46.09902372411783" lon="12.182113747918383"><ele>360.8</ele><time>2026-04-09T10:33:20.999Z</time></trkpt><trkpt lat="46.09903358177871" lon="12.182237699394696"><ele>360.4</ele><time>2026-04-09T10:33:21.999Z</time></trkpt><trkpt lat="46.09904606469163" lon="12.182369868250067"><ele>360.0</ele><time>2026-04-09T10:33:22.999Z</time></trkpt><trkpt lat="46.099052678997126" lon="12.182507372370807"><ele>359.4</ele><time>2026-04-09T10:33:23.999Z</time></trkpt><trkpt lat="46.09905494678956" lon="12.182648871389942"><ele>358.8</ele><time>2026-04-09T10:33:24.999Z</time></trkpt><trkpt lat="46.099059729688804" lon="12.182796163879976"><ele>358.20000000000005</ele><time>2026-04-09T10:33:25.999Z</time></trkpt><trkpt lat="46.099067006332106" lon="12.182948199578421"><ele>357.6</ele><time>2026-04-09T10:33:26.999Z</time></trkpt><trkpt lat="46.09907737949648" lon="12.183106998374015"><ele>357.0</ele><time>2026-04-09T10:33:27.999Z</time></trkpt><trkpt lat="46.09909303443103" lon="12.183266248281528"><ele>358.40000000000003</ele><time>2026-04-09T10:33:28.999Z</time></trkpt><trkpt lat="46.09910836494823" lon="12.183412455424534"><ele>359.8</ele><time>2026-04-09T10:33:29.999Z</time></trkpt><trkpt lat="46.09912330721974" lon="12.183550453495421"><ele>361.2</ele><time>2026-04-09T10:33:30.999Z</time></trkpt><trkpt lat="46.09913900693386" lon="12.183683543151634"><ele>362.6</ele><time>2026-04-09T10:33:31.999Z</time></trkpt><trkpt lat="46.099154223270304" lon="12.183822253539363"><ele>364.0</ele><time>2026-04-09T10:33:32.999Z</time></trkpt><trkpt lat="46.09917731592173" lon="12.183969508748708"><ele>363.75</ele><time>2026-04-09T10:33:33.999Z</time></trkpt><trkpt lat="46.09920538719376" lon="12.184120134048342"><ele>363.5</ele><time>2026-04-09T10:33:34.999Z</time></trkpt><trkpt lat="46.09924196219411" lon="12.184281682790944"><ele>363.25</ele><time>2026-04-09T10:33:35.999Z</time></trkpt><trkpt lat="46.09928342659767" lon="12.184449470483672"><ele>363.0</ele><time>2026-04-09T10:33:36.999Z</time></trkpt><trkpt lat="46.099334840131014" lon="12.18462104942031"><ele>363.0</ele><time>2026-04-09T10:33:37.999Z</time></trkpt><trkpt lat="46.099394889073096" lon="12.184791667510485"><ele>363.0</ele><time>2026-04-09T10:33:38.999Z</time></trkpt><trkpt lat="46.09945678505024" lon="12.184968532096306"><ele>363.0</ele><time>2026-04-09T10:33:39.999Z</time></trkpt><trkpt lat="46.099516860517674" lon="12.18514871814981"><ele>363.0</ele><time>2026-04-09T10:33:40.999Z</time></trkpt><trkpt lat="46.09957552342251" lon="12.185319300516063"><ele>363.0</ele><time>2026-04-09T10:33:41.999Z</time></trkpt><trkpt lat="46.09963503863666" lon="12.18548915259975"><ele>363.0</ele><time>2026-04-09T10:33:42.999Z</time></trkpt><trkpt lat="46.09969540285699" lon="12.185659835632961"><ele>363.0</ele><time>2026-04-09T10:33:43.999Z</time></trkpt><trkpt lat="46.099756255514265" lon="12.185832381831666"><ele>363.0</ele><time>2026-04-09T10:33:44.999Z</time></trkpt><trkpt lat="46.09981913508419" lon="12.186005124904828"><ele>363.0</ele><time>2026-04-09T10:33:45.999Z</time></trkpt><trkpt lat="46.099879424190554" lon="12.186166481400013"><ele>363.0</ele><time>2026-04-09T10:33:46.999Z</time></trkpt><trkpt lat="46.09993489951589" lon="12.186323862514627"><ele>363.0</ele><time>2026-04-09T10:33:47.999Z</time></trkpt><trkpt lat="46.09998164999829" lon="12.186484318758"><ele>363.0</ele><time>2026-04-09T10:33:48.999Z</time></trkpt><trkpt lat="46.10003668528638" lon="12.186643122088634"><ele>361.75</ele><time>2026-04-09T10:33:49.999Z</time></trkpt><trkpt lat="46.10009865706743" lon="12.186807429722437"><ele>360.5</ele><time>2026-04-09T10:33:50.999Z</time></trkpt><trkpt lat="46.100157281832665" lon="12.18697483478428"><ele>359.25</ele><time>2026-04-09T10:33:51.999Z</time></trkpt><trkpt lat="46.10021619826663" lon="12.187145634668783"><ele>358.0</ele><time>2026-04-09T10:33:52.999Z</time></trkpt><trkpt lat="46.10027946914016" lon="12.187299934955206"><ele>358.2</ele><time>2026-04-09T10:33:53.999Z</time></trkpt><trkpt lat="46.10035162219386" lon="12.18743133136814"><ele>358.4</ele><time>2026-04-09T10:33:54.999Z</time></trkpt><trkpt lat="46.10042906890564" lon="12.187541221249925"><ele>358.59999999999997</ele><time>2026-04-09T10:33:55.999Z</time></trkpt><trkpt lat="46.1005196697838" lon="12.187627887079493"><ele>358.79999999999995</ele><time>2026-04-09T10:33:56.999Z</time></trkpt><trkpt lat="46.10061348222941" lon="12.187701752349655"><ele>359.0</ele><time>2026-04-09T10:33:57.999Z</time></trkpt><trkpt lat="46.1007268818733" lon="12.187776941950107"><ele>357.6666666666667</ele><time>2026-04-09T10:33:59Z</time></trkpt><trkpt lat="46.100859652133735" lon="12.18784390009785"><ele>356.3333333333333</ele><time>2026-04-09T10:34:00Z</time></trkpt><trkpt lat="46.10100976440922" lon="12.187902143238778"><ele>355.0</ele><time>2026-04-09T10:34:01Z</time></trkpt><trkpt lat="46.101169150143654" lon="12.18795840505736"><ele>355.0</ele><time>2026-04-09T10:34:02Z</time></trkpt><trkpt lat="46.10132850712274" lon="12.18801574092781"><ele>355.0</ele><time>2026-04-09T10:34:03Z</time></trkpt><trkpt lat="46.101482779807924" lon="12.188067261379551"><ele>355.0</ele><time>2026-04-09T10:34:04Z</time></trkpt><trkpt lat="46.1016267166584" lon="12.188114813318505"><ele>355.0</ele><time>2026-04-09T10:34:05Z</time></trkpt><trkpt lat="46.10176021931765" lon="12.188162514342492"><ele>355.0</ele><time>2026-04-09T10:34:06Z</time></trkpt><trkpt lat="46.10189342250153" lon="12.188204997416026"><ele>355.0</ele><time>2026-04-09T10:34:07Z</time></trkpt><trkpt lat="46.102024644457906" lon="12.188246594546914"><ele>355.0</ele><time>2026-04-09T10:34:08Z</time></trkpt><trkpt lat="46.10215429792389" lon="12.188294815528117"><ele>355.0</ele><time>2026-04-09T10:34:09Z</time></trkpt><trkpt lat="46.1022890463886" lon="12.188342686716371"><ele>355.0</ele><time>2026-04-09T10:34:10Z</time></trkpt><trkpt lat="46.102422072017646" lon="12.188389519897742"><ele>355.0</ele><time>2026-04-09T10:34:11Z</time></trkpt><trkpt lat="46.10255500100945" lon="12.188432924758816"><ele>355.0</ele><time>2026-04-09T10:34:12Z</time></trkpt><trkpt lat="46.102688833335804" lon="12.18847834240974"><ele>355.5</ele><time>2026-04-09T10:34:13Z</time></trkpt><trkpt lat="46.102820679178635" lon="12.188527727698814"><ele>356.0</ele><time>2026-04-09T10:34:14Z</time></trkpt><trkpt lat="46.10294184971918" lon="12.188567999137506"><ele>356.5</ele><time>2026-04-09T10:34:15Z</time></trkpt><trkpt lat="46.1030654520636" lon="12.188607637247534"><ele>357.0</ele><time>2026-04-09T10:34:16Z</time></trkpt><trkpt lat="46.10318963879243" lon="12.188647935692758"><ele>357.25</ele><time>2026-04-09T10:34:17Z</time></trkpt><trkpt lat="46.10331324485099" lon="12.188690929673696"><ele>357.5</ele><time>2026-04-09T10:34:18Z</time></trkpt><trkpt lat="46.10344007883483" lon="12.188737373155005"><ele>357.75</ele><time>2026-04-09T10:34:19Z</time></trkpt><trkpt lat="46.103570884280835" lon="12.18878344223031"><ele>358.0</ele><time>2026-04-09T10:34:20Z</time></trkpt><trkpt lat="46.10370437932193" lon="12.18882830853103"><ele>358.0</ele><time>2026-04-09T10:34:21Z</time></trkpt><trkpt lat="46.103832599413295" lon="12.188872247919656"><ele>358.0</ele><time>2026-04-09T10:34:22Z</time></trkpt><trkpt lat="46.1039501839397" lon="12.18891172992893"><ele>358.0</ele><time>2026-04-09T10:34:23Z</time></trkpt><trkpt lat="46.10405812831822" lon="12.188948201162725"><ele>358.0</ele><time>2026-04-09T10:34:24Z</time></trkpt><trkpt lat="46.10415605036739" lon="12.188985924551437"><ele>358.3333333333333</ele><time>2026-04-09T10:34:25Z</time></trkpt><trkpt lat="46.10423681675218" lon="12.189010341918637"><ele>358.66666666666663</ele><time>2026-04-09T10:34:26Z</time></trkpt><trkpt lat="46.10429965402828" lon="12.18903141587427"><ele>359.0</ele><time>2026-04-09T10:34:27Z</time></trkpt><trkpt lat="46.10441869754335" lon="12.18907651736089"><ele>359.3333333333333</ele><time>2026-04-09T10:34:29Z</time></trkpt><trkpt lat="46.104500100112226" lon="12.189107426989231"><ele>359.6666666666667</ele><time>2026-04-09T10:34:30Z</time></trkpt><trkpt lat="46.10459101796825" lon="12.189140461652132"><ele>360.0</ele><time>2026-04-09T10:34:31Z</time></trkpt><trkpt lat="46.104683349904874" lon="12.18919042594819"><ele>360.0</ele><time>2026-04-09T10:34:32Z</time></trkpt><trkpt lat="46.1047806524307" lon="12.189255687206263"><ele>360.0</ele><time>2026-04-09T10:34:33Z</time></trkpt><trkpt lat="46.1048714576978" lon="12.189348501528837"><ele>360.0</ele><time>2026-04-09T10:34:34Z</time></trkpt><trkpt lat="46.104951847848696" lon="12.18945752476689"><ele>360.0</ele><time>2026-04-09T10:34:35Z</time></trkpt><trkpt lat="46.105026851372614" lon="12.189578691424167"><ele>360.0</ele><time>2026-04-09T10:34:36Z</time></trkpt><trkpt lat="46.10510833994239" lon="12.189720835082827"><ele>360.0</ele><time>2026-04-09T10:34:37Z</time></trkpt><trkpt lat="46.105199137795495" lon="12.189887249483748"><ele>360.0</ele><time>2026-04-09T10:34:38Z</time></trkpt><trkpt lat="46.10528471513139" lon="12.190034102504994"><ele>360.0</ele><time>2026-04-09T10:34:39Z</time></trkpt><trkpt lat="46.10536385110332" lon="12.190168201590952"><ele>360.0</ele><time>2026-04-09T10:34:40Z</time></trkpt><trkpt lat="46.10544090559236" lon="12.190300834003024"><ele>360.0</ele><time>2026-04-09T10:34:41Z</time></trkpt><trkpt lat="46.10552423878713" lon="12.19042913720339"><ele>360.0</ele><time>2026-04-09T10:34:42Z</time></trkpt><trkpt lat="46.10560894961524" lon="12.190561723429465"><ele>360.0</ele><time>2026-04-09T10:34:43Z</time></trkpt><trkpt lat="46.10568778265633" lon="12.190709930962708"><ele>360.0</ele><time>2026-04-09T10:34:44Z</time></trkpt><trkpt lat="46.10577004855533" lon="12.190860791676375"><ele>360.25</ele><time>2026-04-09T10:34:45Z</time></trkpt><trkpt lat="46.105859883835976" lon="12.191009081869204"><ele>360.5</ele><time>2026-04-09T10:34:46Z</time></trkpt><trkpt lat="46.105949814793725" lon="12.191167690166717"><ele>360.75</ele><time>2026-04-09T10:34:47Z</time></trkpt><trkpt lat="46.10603556247928" lon="12.191317581825778"><ele>361.0</ele><time>2026-04-09T10:34:48Z</time></trkpt><trkpt lat="46.10612591670278" lon="12.191470046842142"><ele>361.0</ele><time>2026-04-09T10:34:49Z</time></trkpt><trkpt lat="46.10621745862627" lon="12.19163091333675"><ele>361.0</ele><time>2026-04-09T10:34:50Z</time></trkpt><trkpt lat="46.10630862419629" lon="12.191789576561929"><ele>361.0</ele><time>2026-04-09T10:34:51Z</time></trkpt><trkpt lat="46.1063991492606" lon="12.191943581572719"><ele>361.0</ele><time>2026-04-09T10:34:52Z</time></trkpt><trkpt lat="46.10648143542531" lon="12.192082022926515"><ele>361.0</ele><time>2026-04-09T10:34:53Z</time></trkpt><trkpt lat="46.106560100328956" lon="12.1922103229612"><ele>361.0</ele><time>2026-04-09T10:34:54Z</time></trkpt><trkpt lat="46.10663350389242" lon="12.192331576082841"><ele>361.0</ele><time>2026-04-09T10:34:55Z</time></trkpt><trkpt lat="46.10669818551315" lon="12.19245119758998"><ele>361.0</ele><time>2026-04-09T10:34:56Z</time></trkpt><trkpt lat="46.10675735357172" lon="12.192559112070109"><ele>361.0</ele><time>2026-04-09T10:34:57Z</time></trkpt><trkpt lat="46.10680976800719" lon="12.192649031951753"><ele>360.8333333333333</ele><time>2026-04-09T10:34:58Z</time></trkpt><trkpt lat="46.106858740101515" lon="12.192730434719994"><ele>360.66666666666663</ele><time>2026-04-09T10:34:59Z</time></trkpt><trkpt lat="46.10691568389726" lon="12.192774356626591"><ele>360.5</ele><time>2026-04-09T10:35:00Z</time></trkpt><trkpt lat="46.106962564484185" lon="12.192871084465464"><ele>360.3333333333333</ele><time>2026-04-09T10:35:01Z</time></trkpt><trkpt lat="46.10702668645833" lon="12.192920609354033"><ele>360.1666666666667</ele><time>2026-04-09T10:35:02Z</time></trkpt><trkpt lat="46.10710138566748" lon="12.192928555650857"><ele>360.0</ele><time>2026-04-09T10:35:03Z</time></trkpt><trkpt lat="46.10722840649967" lon="12.192865485837132"><ele>360.0</ele><time>2026-04-09T10:35:04.999Z</time></trkpt><trkpt lat="46.107238475684596" lon="12.192760856385314"><ele>360.0</ele><time>2026-04-09T10:35:05.999Z</time></trkpt><trkpt lat="46.107234890086396" lon="12.19266982062274"><ele>360.0</ele><time>2026-04-09T10:35:06.999Z</time></trkpt><trkpt lat="46.107206629060116" lon="12.192578043225488"><ele>360.0</ele><time>2026-04-09T10:35:07.999Z</time></trkpt><trkpt lat="46.1071609017211" lon="12.192492313474999"><ele>360.0</ele><time>2026-04-09T10:35:08.999Z</time></trkpt><trkpt lat="46.107098811594" lon="12.192407274720251"><ele>360.0</ele><time>2026-04-09T10:35:09.999Z</time></trkpt><trkpt lat="46.1070407572994" lon="12.19230046095562"><ele>359.75</ele><time>2026-04-09T10:35:10.999Z</time></trkpt><trkpt lat="46.1070271613328" lon="12.19215051242768"><ele>359.5</ele><time>2026-04-09T10:35:11.999Z</time></trkpt><trkpt lat="46.106994880113156" lon="12.19197638750139"><ele>359.25</ele><time>2026-04-09T10:35:12.999Z</time></trkpt><trkpt lat="46.106954788502044" lon="12.19176829167488"><ele>359.0</ele><time>2026-04-09T10:35:13.999Z</time></trkpt><trkpt lat="46.10690993997967" lon="12.191550276322449"><ele>359.0</ele><time>2026-04-09T10:35:14.999Z</time></trkpt><trkpt lat="46.10686699672628" lon="12.191360651090632"><ele>359.0</ele><time>2026-04-09T10:35:15.999Z</time></trkpt><trkpt lat="46.106819463402005" lon="12.191168582162799"><ele>359.0</ele><time>2026-04-09T10:35:16.999Z</time></trkpt><trkpt lat="46.106751756003355" lon="12.190973832534"><ele>359.0</ele><time>2026-04-09T10:35:17.999Z</time></trkpt><trkpt lat="46.10669269075994" lon="12.190760479598703"><ele>358.6666666666667</ele><time>2026-04-09T10:35:18.999Z</time></trkpt><trkpt lat="46.106643334191496" lon="12.190529468181456"><ele>358.3333333333333</ele><time>2026-04-09T10:35:19.999Z</time></trkpt><trkpt lat="46.10657215849233" lon="12.190284455330191"><ele>358.0</ele><time>2026-04-09T10:35:20.999Z</time></trkpt><trkpt lat="46.10650622907598" lon="12.190062728200912"><ele>356.66666666666663</ele><time>2026-04-09T10:35:21.999Z</time></trkpt><trkpt lat="46.10643786852595" lon="12.18984137779089"><ele>355.3333333333333</ele><time>2026-04-09T10:35:22.999Z</time></trkpt><trkpt lat="46.10636309224294" lon="12.189611031293866"><ele>354.0</ele><time>2026-04-09T10:35:23.999Z</time></trkpt><trkpt lat="46.10628571183031" lon="12.189390104415132"><ele>354.0</ele><time>2026-04-09T10:35:24.999Z</time></trkpt><trkpt lat="46.10621088813675" lon="12.189182922302823"><ele>354.0</ele><time>2026-04-09T10:35:25.999Z</time></trkpt><trkpt lat="46.10613297238446" lon="12.188975816597829"><ele>354.0</ele><time>2026-04-09T10:35:26.999Z</time></trkpt><trkpt lat="46.106038899941076" lon="12.188777012818942"><ele>354.3333333333333</ele><time>2026-04-09T10:35:27.999Z</time></trkpt><trkpt lat="46.10595578605518" lon="12.188561970578299"><ele>354.66666666666663</ele><time>2026-04-09T10:35:28.999Z</time></trkpt><trkpt lat="46.105859038678005" lon="12.188326396658294"><ele>355.0</ele><time>2026-04-09T10:35:29.999Z</time></trkpt><trkpt lat="46.10574712658261" lon="12.188055764191665"><ele>355.3333333333333</ele><time>2026-04-09T10:35:30.999Z</time></trkpt><trkpt lat="46.10563636843392" lon="12.187775870794455"><ele>355.6666666666667</ele><time>2026-04-09T10:35:31.999Z</time></trkpt><trkpt lat="46.105533456379916" lon="12.187514033818717"><ele>356.0</ele><time>2026-04-09T10:35:32.999Z</time></trkpt><trkpt lat="46.10542672056224" lon="12.187249085219987"><ele>355.33333333333337</ele><time>2026-04-09T10:35:33.999Z</time></trkpt><trkpt lat="46.10533157062464" lon="12.186966830299575"><ele>354.6666666666667</ele><time>2026-04-09T10:35:34.999Z</time></trkpt><trkpt lat="46.10522376521432" lon="12.186695226880502"><ele>354.0</ele><time>2026-04-09T10:35:35.999Z</time></trkpt><trkpt lat="46.1051025673551" lon="12.186438004244879"><ele>354.3333333333333</ele><time>2026-04-09T10:35:36.999Z</time></trkpt><trkpt lat="46.10500817671797" lon="12.186152076137661"><ele>354.66666666666663</ele><time>2026-04-09T10:35:37.999Z</time></trkpt><trkpt lat="46.10489498367694" lon="12.185866899168602"><ele>355.0</ele><time>2026-04-09T10:35:38.999Z</time></trkpt><trkpt lat="46.10477702095469" lon="12.185569722436691"><ele>354.0</ele><time>2026-04-09T10:35:39.999Z</time></trkpt><trkpt lat="46.10465807815628" lon="12.185270819606114"><ele>353.0</ele><time>2026-04-09T10:35:40.999Z</time></trkpt><trkpt lat="46.10454078950034" lon="12.184976074092287"><ele>352.0</ele><time>2026-04-09T10:35:41.999Z</time></trkpt><trkpt lat="46.104430584828705" lon="12.184699130601098"><ele>351.0</ele><time>2026-04-09T10:35:42.999Z</time></trkpt><trkpt lat="46.104307926351005" lon="12.18443896263804"><ele>350.0</ele><time>2026-04-09T10:35:43.999Z</time></trkpt><trkpt lat="46.10420689258921" lon="12.184179031074446"><ele>349.6666666666667</ele><time>2026-04-09T10:35:44.999Z</time></trkpt><trkpt lat="46.10410715802259" lon="12.183921357938964"><ele>349.3333333333333</ele><time>2026-04-09T10:35:45.999Z</time></trkpt><trkpt lat="46.103990569766104" lon="12.183631040979567"><ele>349.0</ele><time>2026-04-09T10:35:46.999Z</time></trkpt><trkpt lat="46.103858098282075" lon="12.183306489129285"><ele>347.5</ele><time>2026-04-09T10:35:47.999Z</time></trkpt><trkpt lat="46.10371984105271" lon="12.182958224550434"><ele>346.0</ele><time>2026-04-09T10:35:48.999Z</time></trkpt><trkpt lat="46.10358894519439" lon="12.18262852040158"><ele>345.5</ele><time>2026-04-09T10:35:49.999Z</time></trkpt><trkpt lat="46.1034683374897" lon="12.182325099664892"><ele>345.0</ele><time>2026-04-09T10:35:50.999Z</time></trkpt><trkpt lat="46.1033497650241" lon="12.182027420751577"><ele>344.5</ele><time>2026-04-09T10:35:51.999Z</time></trkpt><trkpt lat="46.1032298583353" lon="12.181727151836498"><ele>344.0</ele><time>2026-04-09T10:35:52.999Z</time></trkpt><trkpt lat="46.10310947347042" lon="12.18142454249204"><ele>343.5</ele><time>2026-04-09T10:35:53.999Z</time></trkpt><trkpt lat="46.10298689253845" lon="12.181115019249344"><ele>343.0</ele><time>2026-04-09T10:35:54.999Z</time></trkpt><trkpt lat="46.10286260671461" lon="12.180800055165276"><ele>343.0</ele><time>2026-04-09T10:35:55.999Z</time></trkpt><trkpt lat="46.10273448933284" lon="12.180480289762414"><ele>343.0</ele><time>2026-04-09T10:35:56.999Z</time></trkpt><trkpt lat="46.10260618616223" lon="12.180167577555011"><ele>343.0</ele><time>2026-04-09T10:35:57.999Z</time></trkpt><trkpt lat="46.102495659829756" lon="12.179849389141223"><ele>343.0</ele><time>2026-04-09T10:35:58.999Z</time></trkpt><trkpt lat="46.10236904871919" lon="12.179533395176774"><ele>343.0</ele><time>2026-04-09T10:35:59.999Z</time></trkpt><trkpt lat="46.102224033796915" lon="12.17921804731159"><ele>343.0</ele><time>2026-04-09T10:36:00.999Z</time></trkpt><trkpt lat="46.10209757865933" lon="12.178853547091457"><ele>343.0</ele><time>2026-04-09T10:36:01.999Z</time></trkpt><trkpt lat="46.10194865592797" lon="12.17847995442341"><ele>343.0</ele><time>2026-04-09T10:36:02.999Z</time></trkpt><trkpt lat="46.10179673613437" lon="12.178098843569435"><ele>343.0</ele><time>2026-04-09T10:36:03.999Z</time></trkpt><trkpt lat="46.101632134958" lon="12.17772943339115"><ele>343.0</ele><time>2026-04-09T10:36:05Z</time></trkpt><trkpt lat="46.10148447696952" lon="12.177351113830534"><ele>343.0</ele><time>2026-04-09T10:36:06Z</time></trkpt><trkpt lat="46.10133912633472" lon="12.176990600448027"><ele>343.0</ele><time>2026-04-09T10:36:07Z</time></trkpt><trkpt lat="46.10121869809033" lon="12.176646406068006"><ele>342.5</ele><time>2026-04-09T10:36:08Z</time></trkpt><trkpt lat="46.101094504484216" lon="12.176333743758995"><ele>342.0</ele><time>2026-04-09T10:36:09Z</time></trkpt><trkpt lat="46.10095914828029" lon="12.176027868989955"><ele>342.0</ele><time>2026-04-09T10:36:10Z</time></trkpt><trkpt lat="46.10082814090954" lon="12.175724957312863"><ele>342.0</ele><time>2026-04-09T10:36:11Z</time></trkpt><trkpt lat="46.100682415002005" lon="12.175436932846253"><ele>344.5</ele><time>2026-04-09T10:36:12Z</time></trkpt><trkpt lat="46.10052872773735" lon="12.175172393594446"><ele>347.0</ele><time>2026-04-09T10:36:13Z</time></trkpt><trkpt lat="46.10036057781419" lon="12.174928781462912"><ele>345.5</ele><time>2026-04-09T10:36:14Z</time></trkpt><trkpt lat="46.10019613946339" lon="12.174682192422448"><ele>344.0</ele><time>2026-04-09T10:36:15Z</time></trkpt><trkpt lat="46.100025296178735" lon="12.174451350150271"><ele>345.5</ele><time>2026-04-09T10:36:16Z</time></trkpt><trkpt lat="46.09985362654693" lon="12.174228054427921"><ele>347.0</ele><time>2026-04-09T10:36:17Z</time></trkpt><trkpt lat="46.09959372965368" lon="12.174155172066774"><ele>346.5</ele><time>2026-04-09T10:36:18Z</time></trkpt><trkpt lat="46.099387593789935" lon="12.174020167172472"><ele>346.0</ele><time>2026-04-09T10:36:19Z</time></trkpt><trkpt lat="46.099171916980204" lon="12.173900385964428"><ele>347.5</ele><time>2026-04-09T10:36:20Z</time></trkpt><trkpt lat="46.09894711624424" lon="12.173788652793691"><ele>349.0</ele><time>2026-04-09T10:36:21Z</time></trkpt><trkpt lat="46.09870830807388" lon="12.173679338608824"><ele>349.0</ele><time>2026-04-09T10:36:22Z</time></trkpt><trkpt lat="46.098464511987984" lon="12.173562951292206"><ele>349.0</ele><time>2026-04-09T10:36:23Z</time></trkpt><trkpt lat="46.098247691578294" lon="12.17346496857071"><ele>349.66666666666663</ele><time>2026-04-09T10:36:24Z</time></trkpt><trkpt lat="46.09804225328676" lon="12.173363190738812"><ele>350.3333333333333</ele><time>2026-04-09T10:36:25Z</time></trkpt><trkpt lat="46.097852132704375" lon="12.173276656182102"><ele>351.0</ele><time>2026-04-09T10:36:26Z</time></trkpt><trkpt lat="46.0976943411748" lon="12.173206323539942"><ele>350.8</ele><time>2026-04-09T10:36:27Z</time></trkpt><trkpt lat="46.09757054693204" lon="12.173155109418282"><ele>350.6</ele><time>2026-04-09T10:36:28Z</time></trkpt><trkpt lat="46.09746023754436" lon="12.173108965245628"><ele>350.4</ele><time>2026-04-09T10:36:29Z</time></trkpt><trkpt lat="46.09736468091382" lon="12.17306707069141"><ele>350.2</ele><time>2026-04-09T10:36:30Z</time></trkpt><trkpt lat="46.09729042298746" lon="12.173037982803953"><ele>350.0</ele><time>2026-04-09T10:36:31Z</time></trkpt><trkpt lat="46.097226958273225" lon="12.173006858227929"><ele>350.0</ele><time>2026-04-09T10:36:32Z</time></trkpt><trkpt lat="46.09716206044533" lon="12.17296521235143"><ele>350.0</ele><time>2026-04-09T10:36:33Z</time></trkpt><trkpt lat="46.09708310531337" lon="12.172925882108071"><ele>350.0</ele><time>2026-04-09T10:36:34Z</time></trkpt><trkpt lat="46.09700491447188" lon="12.172895348862642"><ele>350.0</ele><time>2026-04-09T10:36:35Z</time></trkpt><trkpt lat="46.096887984746246" lon="12.1728069554467"><ele>350.0</ele><time>2026-04-09T10:36:37Z</time></trkpt><trkpt lat="46.09681063559809" lon="12.172755104306347"><ele>350.0</ele><time>2026-04-09T10:36:38Z</time></trkpt><trkpt lat="46.09674687061035" lon="12.172721497800309"><ele>350.0</ele><time>2026-04-09T10:36:39Z</time></trkpt><trkpt lat="46.09668566595772" lon="12.17268329905699"><ele>350.0</ele><time>2026-04-09T10:36:40Z</time></trkpt><trkpt lat="46.096592358939986" lon="12.172621085703303"><ele>350.0</ele><time>2026-04-09T10:36:42Z</time></trkpt><trkpt lat="46.096504679531265" lon="12.17253212318312"><ele>350.0</ele><time>2026-04-09T10:36:44Z</time></trkpt><trkpt lat="46.09641712050411" lon="12.17240912464264"><ele>349.83333333333337</ele><time>2026-04-09T10:36:46Z</time></trkpt><trkpt lat="46.09636602115449" lon="12.1723462169417"><ele>349.6666666666667</ele><time>2026-04-09T10:36:47Z</time></trkpt><trkpt lat="46.09628022299075" lon="12.172331239820071"><ele>349.5</ele><time>2026-04-09T10:36:48Z</time></trkpt><trkpt lat="46.09619698954386" lon="12.172365064610975"><ele>349.3333333333333</ele><time>2026-04-09T10:36:49Z</time></trkpt><trkpt lat="46.0961083592136" lon="12.172364410865972"><ele>349.16666666666663</ele><time>2026-04-09T10:36:50Z</time></trkpt><trkpt lat="46.096009874124256" lon="12.172333870048366"><ele>349.0</ele><time>2026-04-09T10:36:51Z</time></trkpt><trkpt lat="46.095897572217865" lon="12.172265183874012"><ele>349.0</ele><time>2026-04-09T10:36:52Z</time></trkpt><trkpt lat="46.09578916426787" lon="12.172183310498578"><ele>349.0</ele><time>2026-04-09T10:36:53Z</time></trkpt><trkpt lat="46.09566038096908" lon="12.17208250091622"><ele>349.0</ele><time>2026-04-09T10:36:54Z</time></trkpt><trkpt lat="46.09551689084767" lon="12.171955335131313"><ele>349.0</ele><time>2026-04-09T10:36:55Z</time></trkpt><trkpt lat="46.09538079358295" lon="12.171825620783158"><ele>349.66666666666663</ele><time>2026-04-09T10:36:56Z</time></trkpt><trkpt lat="46.09525320241247" lon="12.171664434720363"><ele>350.3333333333333</ele><time>2026-04-09T10:36:57Z</time></trkpt><trkpt lat="46.095104082905095" lon="12.171493815808882"><ele>351.0</ele><time>2026-04-09T10:36:58Z</time></trkpt><trkpt lat="46.09494376812185" lon="12.171288971613583"><ele>349.0</ele><time>2026-04-09T10:36:59Z</time></trkpt><trkpt lat="46.09478625699105" lon="12.171066582484936"><ele>347.0</ele><time>2026-04-09T10:37:00Z</time></trkpt><trkpt lat="46.09462762887879" lon="12.170822451839255"><ele>349.5</ele><time>2026-04-09T10:37:01Z</time></trkpt><trkpt lat="46.09447388907062" lon="12.17056941362543"><ele>352.0</ele><time>2026-04-09T10:37:02Z</time></trkpt><trkpt lat="46.094330784233414" lon="12.170333672106791"><ele>352.0</ele><time>2026-04-09T10:37:03Z</time></trkpt><trkpt lat="46.09418279644717" lon="12.170095330731058"><ele>352.0</ele><time>2026-04-09T10:37:04Z</time></trkpt><trkpt lat="46.09404535143255" lon="12.169873808413138"><ele>352.0</ele><time>2026-04-09T10:37:05Z</time></trkpt><trkpt lat="46.09391617103537" lon="12.16966551337289"><ele>352.0</ele><time>2026-04-09T10:37:06Z</time></trkpt><trkpt lat="46.093790154138404" lon="12.169462319155905"><ele>352.0</ele><time>2026-04-09T10:37:07Z</time></trkpt><trkpt lat="46.09366433775359" lon="12.169258697130692"><ele>352.0</ele><time>2026-04-09T10:37:08Z</time></trkpt><trkpt lat="46.09352612333114" lon="12.169069124415268"><ele>352.0</ele><time>2026-04-09T10:37:09Z</time></trkpt><trkpt lat="46.093399217384466" lon="12.168859541100918"><ele>352.0</ele><time>2026-04-09T10:37:09.999Z</time></trkpt><trkpt lat="46.09326022212791" lon="12.168634612718652"><ele>352.0</ele><time>2026-04-09T10:37:10.999Z</time></trkpt><trkpt lat="46.09312930576813" lon="12.168388926904397"><ele>350.0</ele><time>2026-04-09T10:37:11.999Z</time></trkpt><trkpt lat="46.092970562199824" lon="12.168134372914585"><ele>348.0</ele><time>2026-04-09T10:37:12.999Z</time></trkpt><trkpt lat="46.092800048120445" lon="12.16786075927175"><ele>348.0</ele><time>2026-04-09T10:37:13.999Z</time></trkpt><trkpt lat="46.092641544585874" lon="12.167603309945106"><ele>348.0</ele><time>2026-04-09T10:37:14.999Z</time></trkpt><trkpt lat="46.092494697689325" lon="12.167363898753829"><ele>347.6666666666667</ele><time>2026-04-09T10:37:15.999Z</time></trkpt><trkpt lat="46.09235691677346" lon="12.167135499373481"><ele>347.33333333333337</ele><time>2026-04-09T10:37:16.999Z</time></trkpt><trkpt lat="46.09221963211119" lon="12.16690792160922"><ele>347.0</ele><time>2026-04-09T10:37:17.999Z</time></trkpt><trkpt lat="46.092063283540455" lon="12.166650277597538"><ele>348.0</ele><time>2026-04-09T10:37:18.999Z</time></trkpt><trkpt lat="46.09189375530629" lon="12.166374292522118"><ele>349.0</ele><time>2026-04-09T10:37:19.999Z</time></trkpt><trkpt lat="46.091743614471575" lon="12.166128990101821"><ele>349.0</ele><time>2026-04-09T10:37:20.999Z</time></trkpt><trkpt lat="46.09160127881527" lon="12.165896151054227"><ele>349.0</ele><time>2026-04-09T10:37:21.999Z</time></trkpt><trkpt lat="46.091461038195135" lon="12.16566685930149"><ele>349.0</ele><time>2026-04-09T10:37:22.999Z</time></trkpt><trkpt lat="46.09131118925443" lon="12.16547330177533"><ele>348.0</ele><time>2026-04-09T10:37:23.999Z</time></trkpt><trkpt lat="46.091187475615904" lon="12.165256955128577"><ele>347.0</ele><time>2026-04-09T10:37:24.999Z</time></trkpt><trkpt lat="46.091073926022794" lon="12.165038865135813"><ele>346.0</ele><time>2026-04-09T10:37:25.999Z</time></trkpt><trkpt lat="46.09096545134471" lon="12.164819221206772"><ele>346.0</ele><time>2026-04-09T10:37:26.999Z</time></trkpt><trkpt lat="46.09085493030084" lon="12.164590441329917"><ele>346.0</ele><time>2026-04-09T10:37:27.999Z</time></trkpt><trkpt lat="46.090758845011955" lon="12.164334261766873"><ele>346.0</ele><time>2026-04-09T10:37:28.999Z</time></trkpt><trkpt lat="46.090648096404216" lon="12.164083360139058"><ele>344.0</ele><time>2026-04-09T10:37:29.999Z</time></trkpt><trkpt lat="46.09053771727" lon="12.163819468905375"><ele>342.0</ele><time>2026-04-09T10:37:30.999Z</time></trkpt><trkpt lat="46.09042750195144" lon="12.163550167088012"><ele>340.0</ele><time>2026-04-09T10:37:31.999Z</time></trkpt><trkpt lat="46.090319712105675" lon="12.163283307663699"><ele>340.0</ele><time>2026-04-09T10:37:32.999Z</time></trkpt><trkpt lat="46.09021194679227" lon="12.163016508993948"><ele>340.0</ele><time>2026-04-09T10:37:33.999Z</time></trkpt><trkpt lat="46.09010221760115" lon="12.162746023818407"><ele>340.0</ele><time>2026-04-09T10:37:34.999Z</time></trkpt><trkpt lat="46.08998932356897" lon="12.16246959587429"><ele>339.0</ele><time>2026-04-09T10:37:35.999Z</time></trkpt><trkpt lat="46.08988085792245" lon="12.162203031621242"><ele>338.0</ele><time>2026-04-09T10:37:36.999Z</time></trkpt><trkpt lat="46.08978058642521" lon="12.161952035326715"><ele>337.0</ele><time>2026-04-09T10:37:37.999Z</time></trkpt><trkpt lat="46.08968168571688" lon="12.161705306002814"><ele>337.66666666666663</ele><time>2026-04-09T10:37:38.999Z</time></trkpt><trkpt lat="46.089580107281236" lon="12.161455003456972"><ele>338.3333333333333</ele><time>2026-04-09T10:37:39.999Z</time></trkpt><trkpt lat="46.08947926266641" lon="12.161203193459764"><ele>339.0</ele><time>2026-04-09T10:37:40.999Z</time></trkpt><trkpt lat="46.08937847977383" lon="12.160951475799378"><ele>338.3333333333333</ele><time>2026-04-09T10:37:41.999Z</time></trkpt><trkpt lat="46.089274188185975" lon="12.160691409724015"><ele>337.66666666666663</ele><time>2026-04-09T10:37:42.999Z</time></trkpt><trkpt lat="46.089155148912496" lon="12.160434357627388"><ele>337.0</ele><time>2026-04-09T10:37:43.999Z</time></trkpt><trkpt lat="46.08905979890791" lon="12.160174511366304"><ele>335.66666666666663</ele><time>2026-04-09T10:37:44.999Z</time></trkpt><trkpt lat="46.088965815893694" lon="12.159904110539893"><ele>334.3333333333333</ele><time>2026-04-09T10:37:45.999Z</time></trkpt><trkpt lat="46.088887063041994" lon="12.159616169669407"><ele>333.0</ele><time>2026-04-09T10:37:46.999Z</time></trkpt><trkpt lat="46.08879436664955" lon="12.15933039153132"><ele>332.0</ele><time>2026-04-09T10:37:47.999Z</time></trkpt><trkpt lat="46.088698718513726" lon="12.159037531973773"><ele>331.0</ele><time>2026-04-09T10:37:48.999Z</time></trkpt><trkpt lat="46.08859811446401" lon="12.158731032213154"><ele>330.0</ele><time>2026-04-09T10:37:49.999Z</time></trkpt><trkpt lat="46.08850009953684" lon="12.158433297345416"><ele>329.0</ele><time>2026-04-09T10:37:50.999Z</time></trkpt><trkpt lat="46.0884038437948" lon="12.158137015807025"><ele>327.5</ele><time>2026-04-09T10:37:51.999Z</time></trkpt><trkpt lat="46.08830762191131" lon="12.157837772257365"><ele>326.0</ele><time>2026-04-09T10:37:52.999Z</time></trkpt><trkpt lat="46.08820757889792" lon="12.157526614937584"><ele>325.5</ele><time>2026-04-09T10:37:53.999Z</time></trkpt><trkpt lat="46.08809786821598" lon="12.157186290382125"><ele>325.0</ele><time>2026-04-09T10:37:54.999Z</time></trkpt><trkpt lat="46.087980933686126" lon="12.156824704157506"><ele>324.5</ele><time>2026-04-09T10:37:55.999Z</time></trkpt><trkpt lat="46.08785721807981" lon="12.1564469798922"><ele>324.0</ele><time>2026-04-09T10:37:56.999Z</time></trkpt><trkpt lat="46.087734087721444" lon="12.156071220808668"><ele>324.0</ele><time>2026-04-09T10:37:57.999Z</time></trkpt><trkpt lat="46.08762165231292" lon="12.155728150660737"><ele>324.0</ele><time>2026-04-09T10:37:58.999Z</time></trkpt><trkpt lat="46.087512855315616" lon="12.155394970488603"><ele>329.5</ele><time>2026-04-09T10:37:59.999Z</time></trkpt><trkpt lat="46.087406704934516" lon="12.155069679517283"><ele>335.0</ele><time>2026-04-09T10:38:00.999Z</time></trkpt><trkpt lat="46.08730574617141" lon="12.154759633255244"><ele>335.33333333333337</ele><time>2026-04-09T10:38:01.999Z</time></trkpt><trkpt lat="46.08721175776378" lon="12.154466483682006"><ele>335.6666666666667</ele><time>2026-04-09T10:38:02.999Z</time></trkpt><trkpt lat="46.08712131705036" lon="12.154184000432172"><ele>336.0</ele><time>2026-04-09T10:38:03.999Z</time></trkpt><trkpt lat="46.08703081907424" lon="12.1539018562535"><ele>336.0</ele><time>2026-04-09T10:38:04.999Z</time></trkpt><trkpt lat="46.086938893643335" lon="12.153618828783967"><ele>336.0</ele><time>2026-04-09T10:38:05.999Z</time></trkpt><trkpt lat="46.08684751861476" lon="12.153338367583396"><ele>336.0</ele><time>2026-04-09T10:38:06.999Z</time></trkpt><trkpt lat="46.08675438213343" lon="12.153052931933388"><ele>337.0</ele><time>2026-04-09T10:38:07.999Z</time></trkpt><trkpt lat="46.08666519611533" lon="12.15278047020317"><ele>338.0</ele><time>2026-04-09T10:38:08.999Z</time></trkpt><trkpt lat="46.086582162652775" lon="12.152526804340408"><ele>339.0</ele><time>2026-04-09T10:38:09.999Z</time></trkpt><trkpt lat="46.08650137515606" lon="12.152281775182102"><ele>338.6666666666667</ele><time>2026-04-09T10:38:11Z</time></trkpt><trkpt lat="46.08642103040301" lon="12.1520358117987"><ele>338.33333333333337</ele><time>2026-04-09T10:38:12Z</time></trkpt><trkpt lat="46.08634127096779" lon="12.15178652225097"><ele>338.0</ele><time>2026-04-09T10:38:13Z</time></trkpt><trkpt lat="46.086261842052316" lon="12.151538265667487"><ele>338.0</ele><time>2026-04-09T10:38:14Z</time></trkpt><trkpt lat="46.086182754323126" lon="12.151291077324528"><ele>338.0</ele><time>2026-04-09T10:38:15Z</time></trkpt><trkpt lat="46.086103511046495" lon="12.151043404364696"><ele>338.0</ele><time>2026-04-09T10:38:16Z</time></trkpt><trkpt lat="46.08602791891463" lon="12.150807142970548"><ele>336.6666666666667</ele><time>2026-04-09T10:38:17Z</time></trkpt><trkpt lat="46.08592415163136" lon="12.150599415038572"><ele>335.3333333333333</ele><time>2026-04-09T10:38:18Z</time></trkpt><trkpt lat="46.08585045861553" lon="12.150368906106365"><ele>334.0</ele><time>2026-04-09T10:38:19Z</time></trkpt><trkpt lat="46.085772960574964" lon="12.15013715501076"><ele>330.66666666666663</ele><time>2026-04-09T10:38:20Z</time></trkpt><trkpt lat="46.08568657677415" lon="12.14988069647012"><ele>327.3333333333333</ele><time>2026-04-09T10:38:21Z</time></trkpt><trkpt lat="46.085596436005304" lon="12.149602932812867"><ele>324.0</ele><time>2026-04-09T10:38:22Z</time></trkpt><trkpt lat="46.08551315299601" lon="12.149348594473857"><ele>323.6666666666667</ele><time>2026-04-09T10:38:23Z</time></trkpt><trkpt lat="46.085438624175495" lon="12.149110475618926"><ele>323.33333333333337</ele><time>2026-04-09T10:38:24Z</time></trkpt><trkpt lat="46.08536698648634" lon="12.148876540570374"><ele>323.0</ele><time>2026-04-09T10:38:25Z</time></trkpt><trkpt lat="46.08529413772358" lon="12.148646344170581"><ele>323.0</ele><time>2026-04-09T10:38:26Z</time></trkpt><trkpt lat="46.08522395469889" lon="12.148433864804787"><ele>323.0</ele><time>2026-04-09T10:38:27Z</time></trkpt><trkpt lat="46.08515811677572" lon="12.148235181366896"><ele>323.0</ele><time>2026-04-09T10:38:28Z</time></trkpt><trkpt lat="46.08509897702472" lon="12.148047996377596"><ele>323.25</ele><time>2026-04-09T10:38:29Z</time></trkpt><trkpt lat="46.085039906615215" lon="12.147862131624219"><ele>323.5</ele><time>2026-04-09T10:38:30Z</time></trkpt><trkpt lat="46.08498161606045" lon="12.147679783211213"><ele>323.75</ele><time>2026-04-09T10:38:31Z</time></trkpt><trkpt lat="46.08492046529446" lon="12.14749011044967"><ele>324.0</ele><time>2026-04-09T10:38:32Z</time></trkpt><trkpt lat="46.084857461828314" lon="12.147298294388715"><ele>326.6666666666667</ele><time>2026-04-09T10:38:33Z</time></trkpt><trkpt lat="46.08479292409457" lon="12.147099449553158"><ele>329.33333333333337</ele><time>2026-04-09T10:38:34Z</time></trkpt><trkpt lat="46.084727486401086" lon="12.146883633807468"><ele>332.0</ele><time>2026-04-09T10:38:35Z</time></trkpt><trkpt lat="46.084641253198626" lon="12.146633261884297"><ele>331.6666666666667</ele><time>2026-04-09T10:38:36Z</time></trkpt><trkpt lat="46.08455563539548" lon="12.146361696619866"><ele>331.3333333333333</ele><time>2026-04-09T10:38:37Z</time></trkpt><trkpt lat="46.08448442951077" lon="12.14610542112591"><ele>331.0</ele><time>2026-04-09T10:38:38Z</time></trkpt><trkpt lat="46.08441990452575" lon="12.145857651500044"><ele>330.3333333333333</ele><time>2026-04-09T10:38:39Z</time></trkpt><trkpt lat="46.084361155059526" lon="12.145597177934443"><ele>329.6666666666667</ele><time>2026-04-09T10:38:40Z</time></trkpt><trkpt lat="46.08431126899209" lon="12.145351196841778"><ele>329.0</ele><time>2026-04-09T10:38:41Z</time></trkpt><trkpt lat="46.08426683190183" lon="12.145124144248985"><ele>329.0</ele><time>2026-04-09T10:38:42Z</time></trkpt><trkpt lat="46.08422822131897" lon="12.144912103027995"><ele>329.0</ele><time>2026-04-09T10:38:43Z</time></trkpt><trkpt lat="46.084194319098884" lon="12.144709904911588"><ele>329.0</ele><time>2026-04-09T10:38:44Z</time></trkpt><trkpt lat="46.08415895090634" lon="12.144510379122876"><ele>329.0</ele><time>2026-04-09T10:38:45Z</time></trkpt><trkpt lat="46.084124548386185" lon="12.144307192412587"><ele>329.5</ele><time>2026-04-09T10:38:46Z</time></trkpt><trkpt lat="46.084089510359675" lon="12.14410154137759"><ele>330.0</ele><time>2026-04-09T10:38:47Z</time></trkpt><trkpt lat="46.08405233614447" lon="12.143893276400465"><ele>330.5</ele><time>2026-04-09T10:38:48Z</time></trkpt><trkpt lat="46.08401593028426" lon="12.14368902177648"><ele>331.0</ele><time>2026-04-09T10:38:49Z</time></trkpt><trkpt lat="46.083988124112736" lon="12.143491899643864"><ele>331.0</ele><time>2026-04-09T10:38:50Z</time></trkpt><trkpt lat="46.08396731464135" lon="12.143308667721785"><ele>331.0</ele><time>2026-04-09T10:38:51Z</time></trkpt><trkpt lat="46.08395201228925" lon="12.143169165340536"><ele>331.0</ele><time>2026-04-09T10:38:52Z</time></trkpt><trkpt lat="46.08394703285469" lon="12.143066251535743"><ele>331.0</ele><time>2026-04-09T10:38:53Z</time></trkpt><trkpt lat="46.08394331507041" lon="12.142918696856446"><ele>331.0</ele><time>2026-04-09T10:38:55Z</time></trkpt><trkpt lat="46.08393667989778" lon="12.142809005214088"><ele>330.66666666666663</ele><time>2026-04-09T10:38:57Z</time></trkpt><trkpt lat="46.08388431440992" lon="12.142756376010954"><ele>330.3333333333333</ele><time>2026-04-09T10:44:52Z</time></trkpt><trkpt lat="46.08384833314018" lon="12.142653927548167"><ele>330.0</ele><time>2026-04-09T10:44:54Z</time></trkpt><trkpt lat="46.08386820217662" lon="12.142553095150074"><ele>329.6666666666667</ele><time>2026-04-09T10:44:56Z</time></trkpt><trkpt lat="46.083841610471296" lon="12.142439621810597"><ele>329.33333333333337</ele><time>2026-04-09T10:44:58Z</time></trkpt><trkpt lat="46.083747792983225" lon="12.142464204917324"><ele>329.0</ele><time>2026-04-09T10:45:24.999Z</time></trkpt><trkpt lat="46.08374325733104" lon="12.142649988418079"><ele>329.0</ele><time>2026-04-09T10:45:26.999Z</time></trkpt><trkpt lat="46.08377039258833" lon="12.142765890414926"><ele>329.0</ele><time>2026-04-09T10:45:27.999Z</time></trkpt><trkpt lat="46.08379526778824" lon="12.142883708053544"><ele>329.0</ele><time>2026-04-09T10:45:28.999Z</time></trkpt><trkpt lat="46.08381840961596" lon="12.142986612554395"><ele>329.0</ele><time>2026-04-09T10:45:29.999Z</time></trkpt><trkpt lat="46.08385171003206" lon="12.143117692191355"><ele>329.0</ele><time>2026-04-09T10:45:30.999Z</time></trkpt><trkpt lat="46.083888818163366" lon="12.143304566447014"><ele>329.5</ele><time>2026-04-09T10:45:31.999Z</time></trkpt><trkpt lat="46.083920183764455" lon="12.143484318936602"><ele>330.0</ele><time>2026-04-09T10:45:32.999Z</time></trkpt><trkpt lat="46.08394762405469" lon="12.143653211770234"><ele>330.5</ele><time>2026-04-09T10:45:33.999Z</time></trkpt><trkpt lat="46.08397820486013" lon="12.14382738440519"><ele>331.0</ele><time>2026-04-09T10:45:34.999Z</time></trkpt><trkpt lat="46.08401617086237" lon="12.144037071555509"><ele>331.3333333333333</ele><time>2026-04-09T10:45:35.999Z</time></trkpt><trkpt lat="46.084055262271995" lon="12.144281670208969"><ele>331.6666666666667</ele><time>2026-04-09T10:45:36.999Z</time></trkpt><trkpt lat="46.08410206228575" lon="12.14451058055254"><ele>332.0</ele><time>2026-04-09T10:45:37.999Z</time></trkpt><trkpt lat="46.08414310105361" lon="12.144730765548056"><ele>331.0</ele><time>2026-04-09T10:45:38.999Z</time></trkpt><trkpt lat="46.08418872363613" lon="12.144960041882374"><ele>330.0</ele><time>2026-04-09T10:45:39.999Z</time></trkpt><trkpt lat="46.084237485046685" lon="12.145197884032731"><ele>329.0</ele><time>2026-04-09T10:45:40.999Z</time></trkpt><trkpt lat="46.084288911796826" lon="12.145433089548156"><ele>329.0</ele><time>2026-04-09T10:45:41.999Z</time></trkpt><trkpt lat="46.08434622342375" lon="12.145681358775867"><ele>329.0</ele><time>2026-04-09T10:45:42.999Z</time></trkpt><trkpt lat="46.08441836621422" lon="12.145961028333721"><ele>329.0</ele><time>2026-04-09T10:45:43.999Z</time></trkpt><trkpt lat="46.08449353411391" lon="12.146253862689003"><ele>329.6666666666667</ele><time>2026-04-09T10:45:44.999Z</time></trkpt><trkpt lat="46.084571348632295" lon="12.146526980605568"><ele>330.3333333333333</ele><time>2026-04-09T10:45:45.999Z</time></trkpt><trkpt lat="46.084665173100134" lon="12.146837552586097"><ele>331.0</ele><time>2026-04-09T10:45:46.999Z</time></trkpt><trkpt lat="46.08476856205339" lon="12.147171643824008"><ele>330.0</ele><time>2026-04-09T10:45:47.999Z</time></trkpt><trkpt lat="46.08486933077477" lon="12.147486763829274"><ele>329.0</ele><time>2026-04-09T10:45:48.999Z</time></trkpt><trkpt lat="46.08496148206317" lon="12.147775212561726"><ele>327.33333333333337</ele><time>2026-04-09T10:45:49.999Z</time></trkpt><trkpt lat="46.08505529866181" lon="12.148069271127122"><ele>325.6666666666667</ele><time>2026-04-09T10:45:50.999Z</time></trkpt><trkpt lat="46.08514786327929" lon="12.148361737715566"><ele>324.0</ele><time>2026-04-09T10:45:51.999Z</time></trkpt><trkpt lat="46.085241818681396" lon="12.148654953679205"><ele>323.6666666666667</ele><time>2026-04-09T10:45:52.999Z</time></trkpt><trkpt lat="46.085335442039465" lon="12.148946547578106"><ele>323.33333333333337</ele><time>2026-04-09T10:45:53.999Z</time></trkpt><trkpt lat="46.08543073652896" lon="12.14923891174778"><ele>323.0</ele><time>2026-04-09T10:45:54.999Z</time></trkpt><trkpt lat="46.08553314200402" lon="12.149551930149544"><ele>323.5</ele><time>2026-04-09T10:45:55.999Z</time></trkpt><trkpt lat="46.085637229427626" lon="12.149877619033687"><ele>324.0</ele><time>2026-04-09T10:45:56.999Z</time></trkpt><trkpt lat="46.08574553131535" lon="12.150208351514328"><ele>329.0</ele><time>2026-04-09T10:45:57.999Z</time></trkpt><trkpt lat="46.08585842522493" lon="12.150545747208936"><ele>334.0</ele><time>2026-04-09T10:45:58.999Z</time></trkpt><trkpt lat="46.08597367598974" lon="12.150892500303883"><ele>336.0</ele><time>2026-04-09T10:45:59.999Z</time></trkpt><trkpt lat="46.086090842130545" lon="12.151247693485368"><ele>338.0</ele><time>2026-04-09T10:46:00.999Z</time></trkpt><trkpt lat="46.086210391015484" lon="12.151608452708219"><ele>340.0</ele><time>2026-04-09T10:46:01.999Z</time></trkpt><trkpt lat="46.08633217303053" lon="12.15198453699108"><ele>342.0</ele><time>2026-04-09T10:46:02.999Z</time></trkpt><trkpt lat="46.08645262019162" lon="12.15235051946838"><ele>341.5</ele><time>2026-04-09T10:46:03.999Z</time></trkpt><trkpt lat="46.0865732228892" lon="12.152722799828833"><ele>341.0</ele><time>2026-04-09T10:46:04.999Z</time></trkpt><trkpt lat="46.0866958699468" lon="12.153099785103068"><ele>338.5</ele><time>2026-04-09T10:46:05.999Z</time></trkpt><trkpt lat="46.08682524460442" lon="12.153477800751997"><ele>336.0</ele><time>2026-04-09T10:46:06.999Z</time></trkpt><trkpt lat="46.08695105025186" lon="12.153855166513432"><ele>337.0</ele><time>2026-04-09T10:46:07.999Z</time></trkpt><trkpt lat="46.08708103876344" lon="12.154237104405214"><ele>338.0</ele><time>2026-04-09T10:46:08.999Z</time></trkpt><trkpt lat="46.087203632555806" lon="12.154618874626001"><ele>336.5</ele><time>2026-04-09T10:46:09.999Z</time></trkpt><trkpt lat="46.087326522745144" lon="12.155002013749867"><ele>335.0</ele><time>2026-04-09T10:46:10.999Z</time></trkpt><trkpt lat="46.087450889306375" lon="12.155385019664354"><ele>329.5</ele><time>2026-04-09T10:46:11.999Z</time></trkpt><trkpt lat="46.087574811131574" lon="12.15576073699671"><ele>324.0</ele><time>2026-04-09T10:46:12.999Z</time></trkpt><trkpt lat="46.087687339216295" lon="12.15610642434291"><ele>324.0</ele><time>2026-04-09T10:46:13.999Z</time></trkpt><trkpt lat="46.08779482172043" lon="12.156435052079846"><ele>324.0</ele><time>2026-04-09T10:46:14.999Z</time></trkpt><trkpt lat="46.08790053533093" lon="12.156756294574159"><ele>324.5</ele><time>2026-04-09T10:46:15.999Z</time></trkpt><trkpt lat="46.088001923178176" lon="12.157076277392258"><ele>325.0</ele><time>2026-04-09T10:46:16.999Z</time></trkpt><trkpt lat="46.088103034038625" lon="12.157396312094292"><ele>325.5</ele><time>2026-04-09T10:46:17.999Z</time></trkpt><trkpt lat="46.08820639000994" lon="12.157719834342483"><ele>326.0</ele><time>2026-04-09T10:46:18.999Z</time></trkpt><trkpt lat="46.08831672235665" lon="12.158056281610936"><ele>327.5</ele><time>2026-04-09T10:46:19.999Z</time></trkpt><trkpt lat="46.0884285837244" lon="12.158401879255925"><ele>329.0</ele><time>2026-04-09T10:46:20.999Z</time></trkpt><trkpt lat="46.088540165583645" lon="12.158751781013327"><ele>330.0</ele><time>2026-04-09T10:46:21.999Z</time></trkpt><trkpt lat="46.08865554966618" lon="12.15910474155746"><ele>331.0</ele><time>2026-04-09T10:46:22.999Z</time></trkpt><trkpt lat="46.088773098715144" lon="12.159458299654425"><ele>331.0</ele><time>2026-04-09T10:46:23.999Z</time></trkpt><trkpt lat="46.088891211209756" lon="12.159814558222843"><ele>331.0</ele><time>2026-04-09T10:46:24.999Z</time></trkpt><trkpt lat="46.08901446900512" lon="12.160165872091824"><ele>334.0</ele><time>2026-04-09T10:46:25.999Z</time></trkpt><trkpt lat="46.08914274777397" lon="12.160508112369982"><ele>337.0</ele><time>2026-04-09T10:46:26.999Z</time></trkpt><trkpt lat="46.08926907376573" lon="12.160826741670036"><ele>338.0</ele><time>2026-04-09T10:46:27.999Z</time></trkpt><trkpt lat="46.08938614158092" lon="12.161123122121886"><ele>339.0</ele><time>2026-04-09T10:46:28.999Z</time></trkpt><trkpt lat="46.08949209548198" lon="12.161398938723414"><ele>338.3333333333333</ele><time>2026-04-09T10:46:29.999Z</time></trkpt><trkpt lat="46.089582041343256" lon="12.161647845307284"><ele>337.66666666666663</ele><time>2026-04-09T10:46:30.999Z</time></trkpt><trkpt lat="46.08966494629828" lon="12.161884279565399"><ele>337.0</ele><time>2026-04-09T10:46:31.999Z</time></trkpt><trkpt lat="46.08974361734346" lon="12.16210106085054"><ele>337.0</ele><time>2026-04-09T10:46:32.999Z</time></trkpt><trkpt lat="46.08981972073095" lon="12.162290894752049"><ele>337.0</ele><time>2026-04-09T10:46:33.999Z</time></trkpt><trkpt lat="46.08988703701096" lon="12.16245808244898"><ele>337.0</ele><time>2026-04-09T10:46:35Z</time></trkpt><trkpt lat="46.089942451037686" lon="12.162605750820097"><ele>337.0</ele><time>2026-04-09T10:46:36Z</time></trkpt><trkpt lat="46.089985304425895" lon="12.162752599515995"><ele>336.6</ele><time>2026-04-09T10:46:37Z</time></trkpt><trkpt lat="46.09001030202186" lon="12.162898807049352"><ele>336.20000000000005</ele><time>2026-04-09T10:46:38Z</time></trkpt><trkpt lat="46.09001719187466" lon="12.163040703431161"><ele>335.8</ele><time>2026-04-09T10:46:39Z</time></trkpt><trkpt lat="46.09001883814684" lon="12.163171465955038"><ele>335.4</ele><time>2026-04-09T10:46:40Z</time></trkpt><trkpt lat="46.08996589623604" lon="12.16328761225905"><ele>335.0</ele><time>2026-04-09T10:46:41Z</time></trkpt><trkpt lat="46.089883126544045" lon="12.163368481837422"><ele>335.0</ele><time>2026-04-09T10:46:42Z</time></trkpt><trkpt lat="46.08980809871616" lon="12.163469767627939"><ele>335.0</ele><time>2026-04-09T10:46:43Z</time></trkpt><trkpt lat="46.08970312787809" lon="12.163470417531435"><ele>335.0</ele><time>2026-04-09T10:46:44Z</time></trkpt><trkpt lat="46.08960775602895" lon="12.163452430574425"><ele>335.0</ele><time>2026-04-09T10:46:45Z</time></trkpt><trkpt lat="46.08951354990336" lon="12.163393471792297"><ele>335.0</ele><time>2026-04-09T10:46:46Z</time></trkpt><trkpt lat="46.08943594564756" lon="12.163300359687469"><ele>335.2</ele><time>2026-04-09T10:46:47Z</time></trkpt><trkpt lat="46.08938463110221" lon="12.163177575487492"><ele>335.4</ele><time>2026-04-09T10:46:48Z</time></trkpt><trkpt lat="46.08937883828928" lon="12.163038631968748"><ele>335.6</ele><time>2026-04-09T10:46:49Z</time></trkpt><trkpt lat="46.08936813880269" lon="12.162909318151543"><ele>335.8</ele><time>2026-04-09T10:46:50Z</time></trkpt><trkpt lat="46.089416732766836" lon="12.16278801006333"><ele>336.0</ele><time>2026-04-09T10:46:51Z</time></trkpt><trkpt lat="46.089455365679534" lon="12.162663107007123"><ele>336.0</ele><time>2026-04-09T10:46:52Z</time></trkpt><trkpt lat="46.08951352276651" lon="12.162593036805525"><ele>336.0</ele><time>2026-04-09T10:46:53Z</time></trkpt><trkpt lat="46.08957105649728" lon="12.162536801055241"><ele>336.0</ele><time>2026-04-09T10:46:55Z</time></trkpt><trkpt lat="46.089500615732035" lon="12.162362620791507"><ele>336.0</ele><time>2026-04-09T10:47:04Z</time></trkpt><trkpt lat="46.08948896115069" lon="12.162262482150746"><ele>336.0</ele><time>2026-04-09T10:47:05Z</time></trkpt><trkpt lat="46.089427173021924" lon="12.162156505382649"><ele>336.25</ele><time>2026-04-09T10:47:06Z</time></trkpt><trkpt lat="46.08941277958506" lon="12.16202745832117"><ele>336.5</ele><time>2026-04-09T10:47:07Z</time></trkpt><trkpt lat="46.0893647326672" lon="12.161853024655397"><ele>336.75</ele><time>2026-04-09T10:47:08Z</time></trkpt><trkpt lat="46.089343169431565" lon="12.16165556738294"><ele>337.0</ele><time>2026-04-09T10:47:09Z</time></trkpt><trkpt lat="46.089331294982486" lon="12.161483445992333"><ele>337.5</ele><time>2026-04-09T10:47:10Z</time></trkpt><trkpt lat="46.08930860073719" lon="12.16133619721526"><ele>338.0</ele><time>2026-04-09T10:47:11Z</time></trkpt><trkpt lat="46.0892729467416" lon="12.161188650319625"><ele>338.5</ele><time>2026-04-09T10:47:12Z</time></trkpt><trkpt lat="46.08922405903799" lon="12.161029379128673"><ele>339.0</ele><time>2026-04-09T10:47:13Z</time></trkpt><trkpt lat="46.08915096794894" lon="12.160875731583085"><ele>337.5</ele><time>2026-04-09T10:47:14Z</time></trkpt><trkpt lat="46.089061192152386" lon="12.16073585298534"><ele>336.0</ele><time>2026-04-09T10:47:15Z</time></trkpt><trkpt lat="46.088959209001054" lon="12.16061751323348"><ele>334.5</ele><time>2026-04-09T10:47:16Z</time></trkpt><trkpt lat="46.08885471936543" lon="12.160525195916447"><ele>333.0</ele><time>2026-04-09T10:47:17Z</time></trkpt><trkpt lat="46.08873983167469" lon="12.16046663484919"><ele>333.0</ele><time>2026-04-09T10:47:18Z</time></trkpt><trkpt lat="46.088616915249034" lon="12.160423837709017"><ele>333.0</ele><time>2026-04-09T10:47:19Z</time></trkpt><trkpt lat="46.08848755452584" lon="12.160392164329263"><ele>333.0</ele><time>2026-04-09T10:47:20Z</time></trkpt><trkpt lat="46.08835452181912" lon="12.160368733410554"><ele>333.0</ele><time>2026-04-09T10:47:21Z</time></trkpt><trkpt lat="46.08822647982215" lon="12.160337343276458"><ele>332.79999999999995</ele><time>2026-04-09T10:47:22Z</time></trkpt><trkpt lat="46.08810670544071" lon="12.160301760492821"><ele>332.6</ele><time>2026-04-09T10:47:23Z</time></trkpt><trkpt lat="46.08799856868701" lon="12.160263598839556"><ele>332.4</ele><time>2026-04-09T10:47:24Z</time></trkpt><trkpt lat="46.0879031485752" lon="12.160232060017876"><ele>332.20000000000005</ele><time>2026-04-09T10:47:25Z</time></trkpt><trkpt lat="46.08781573999201" lon="12.160186867913943"><ele>332.0</ele><time>2026-04-09T10:47:27Z</time></trkpt><trkpt lat="46.08773439504507" lon="12.160169149810121"><ele>332.0</ele><time>2026-04-09T10:47:31Z</time></trkpt><trkpt lat="46.08766216425548" lon="12.160098733612692"><ele>332.0</ele><time>2026-04-09T10:47:33Z</time></trkpt><trkpt lat="46.0875990006737" lon="12.160047206414754"><ele>332.0</ele><time>2026-04-09T10:47:34Z</time></trkpt><trkpt lat="46.08753793790735" lon="12.15999843371459"><ele>332.0</ele><time>2026-04-09T10:47:35Z</time></trkpt><trkpt lat="46.08746915692008" lon="12.159930485260544"><ele>332.0</ele><time>2026-04-09T10:47:36Z</time></trkpt><trkpt lat="46.08737709018969" lon="12.159818916333434"><ele>332.0</ele><time>2026-04-09T10:47:37Z</time></trkpt><trkpt lat="46.08729358613539" lon="12.159707579839754"><ele>332.83333333333337</ele><time>2026-04-09T10:47:37.999Z</time></trkpt><trkpt lat="46.087228871430526" lon="12.159611675714123"><ele>333.6666666666667</ele><time>2026-04-09T10:47:38.999Z</time></trkpt><trkpt lat="46.087196817187596" lon="12.159507639209368"><ele>334.5</ele><time>2026-04-09T10:47:39.999Z</time></trkpt><trkpt lat="46.08716415053318" lon="12.159427289689694"><ele>335.3333333333333</ele><time>2026-04-09T10:47:40.999Z</time></trkpt><trkpt lat="46.0871242733041" lon="12.159319663377948"><ele>336.16666666666663</ele><time>2026-04-09T10:47:42.999Z</time></trkpt><trkpt lat="46.08709244269052" lon="12.159234746338337"><ele>337.0</ele><time>2026-04-09T10:47:45.999Z</time></trkpt><trkpt lat="46.0870189391952" lon="12.159383491117625"><ele>337.0</ele><time>2026-04-09T10:47:46.999Z</time></trkpt><trkpt lat="46.08689149675655" lon="12.159451703845354"><ele>337.0</ele><time>2026-04-09T10:47:48.999Z</time></trkpt><trkpt lat="46.0868395886731" lon="12.159514081615772"><ele>337.0</ele><time>2026-04-09T10:47:49.999Z</time></trkpt><trkpt lat="46.08679697364707" lon="12.159593348911738"><ele>337.0</ele><time>2026-04-09T10:47:50.999Z</time></trkpt><trkpt lat="46.08676062462551" lon="12.159714556399186"><ele>337.0</ele><time>2026-04-09T10:47:51.999Z</time></trkpt><trkpt lat="46.08672172244787" lon="12.159860832962606"><ele>336.8</ele><time>2026-04-09T10:47:52.999Z</time></trkpt><trkpt lat="46.08668665684487" lon="12.16000066384803"><ele>336.6</ele><time>2026-04-09T10:47:53.999Z</time></trkpt><trkpt lat="46.08665180395319" lon="12.160134887382972"><ele>336.40000000000003</ele><time>2026-04-09T10:47:54.999Z</time></trkpt><trkpt lat="46.08662460338717" lon="12.160267383999487"><ele>336.20000000000005</ele><time>2026-04-09T10:47:55.999Z</time></trkpt><trkpt lat="46.08659358868346" lon="12.160380503587236"><ele>336.0</ele><time>2026-04-09T10:47:56.999Z</time></trkpt><trkpt lat="46.08654870959761" lon="12.160477764362188"><ele>337.20000000000005</ele><time>2026-04-09T10:47:57.999Z</time></trkpt><trkpt lat="46.08648692987944" lon="12.160565733392765"><ele>338.40000000000003</ele><time>2026-04-09T10:47:58.999Z</time></trkpt><trkpt lat="46.08640731884515" lon="12.160644037025317"><ele>339.6</ele><time>2026-04-09T10:47:59.999Z</time></trkpt><trkpt lat="46.086308473067675" lon="12.160720576322335"><ele>340.8</ele><time>2026-04-09T10:48:00.999Z</time></trkpt><trkpt lat="46.086187728452714" lon="12.160796340823032"><ele>342.0</ele><time>2026-04-09T10:48:01.999Z</time></trkpt><trkpt lat="46.086093198900066" lon="12.160865936773613"><ele>342.20000000000005</ele><time>2026-04-09T10:48:02.999Z</time></trkpt><trkpt lat="46.0860185595862" lon="12.16090986881682"><ele>342.4</ele><time>2026-04-09T10:48:03.999Z</time></trkpt><trkpt lat="46.08594343296934" lon="12.160921686582157"><ele>342.6</ele><time>2026-04-09T10:48:04.999Z</time></trkpt><trkpt lat="46.08585385502726" lon="12.160908526648516"><ele>342.79999999999995</ele><time>2026-04-09T10:48:05.999Z</time></trkpt><trkpt lat="46.085772504884694" lon="12.160844786343844"><ele>343.0</ele><time>2026-04-09T10:48:06.999Z</time></trkpt><trkpt lat="46.08567002772414" lon="12.160762474809165"><ele>344.3333333333333</ele><time>2026-04-09T10:48:07.999Z</time></trkpt><trkpt lat="46.08552824098225" lon="12.160665906509196"><ele>345.6666666666667</ele><time>2026-04-09T10:48:08.999Z</time></trkpt><trkpt lat="46.08540029524704" lon="12.160560943719787"><ele>347.0</ele><time>2026-04-09T10:48:09.999Z</time></trkpt><trkpt lat="46.085253435989266" lon="12.160446528756449"><ele>347.0</ele><time>2026-04-09T10:48:10.999Z</time></trkpt><trkpt lat="46.08509449725999" lon="12.160309148981264"><ele>347.0</ele><time>2026-04-09T10:48:11.999Z</time></trkpt><trkpt lat="46.08492900431621" lon="12.16022177672498"><ele>347.0</ele><time>2026-04-09T10:48:12.999Z</time></trkpt><trkpt lat="46.08474896868636" lon="12.160113969688522"><ele>348.6666666666667</ele><time>2026-04-09T10:48:13.999Z</time></trkpt><trkpt lat="46.084555897245004" lon="12.160003790920003"><ele>350.3333333333333</ele><time>2026-04-09T10:48:14.999Z</time></trkpt><trkpt lat="46.084379661408114" lon="12.159905979216095"><ele>352.0</ele><time>2026-04-09T10:48:15.999Z</time></trkpt><trkpt lat="46.084240813725415" lon="12.159824147369795"><ele>352.0</ele><time>2026-04-09T10:48:16.999Z</time></trkpt><trkpt lat="46.08413205393824" lon="12.159760403276575"><ele>352.0</ele><time>2026-04-09T10:48:17.999Z</time></trkpt><trkpt lat="46.08403757022224" lon="12.159706043770095"><ele>352.0</ele><time>2026-04-09T10:48:18.999Z</time></trkpt><trkpt lat="46.08395448142783" lon="12.159694924768727"><ele>352.0</ele><time>2026-04-09T10:48:19.999Z</time></trkpt><trkpt lat="46.08387122398322" lon="12.159711278963165"><ele>352.0</ele><time>2026-04-09T10:48:20.999Z</time></trkpt><trkpt lat="46.083788262700466" lon="12.159758364189306"><ele>353.6</ele><time>2026-04-09T10:48:21.999Z</time></trkpt><trkpt lat="46.083717379976854" lon="12.159840653357223"><ele>355.20000000000005</ele><time>2026-04-09T10:48:22.999Z</time></trkpt><trkpt lat="46.08365523223166" lon="12.159956473051693"><ele>356.8</ele><time>2026-04-09T10:48:23.999Z</time></trkpt><trkpt lat="46.083599999981935" lon="12.16011686339086"><ele>358.4</ele><time>2026-04-09T10:48:24.999Z</time></trkpt><trkpt lat="46.08354457524929" lon="12.160289318387605"><ele>360.0</ele><time>2026-04-09T10:48:25.999Z</time></trkpt><trkpt lat="46.08348583978472" lon="12.160442845569364"><ele>360.4</ele><time>2026-04-09T10:48:26.999Z</time></trkpt><trkpt lat="46.08341304031294" lon="12.160575650649163"><ele>360.8</ele><time>2026-04-09T10:48:27.999Z</time></trkpt><trkpt lat="46.083321376795865" lon="12.160660728358593"><ele>361.20000000000005</ele><time>2026-04-09T10:48:28.999Z</time></trkpt><trkpt lat="46.08322117831748" lon="12.160735138354688"><ele>361.6</ele><time>2026-04-09T10:48:29.999Z</time></trkpt><trkpt lat="46.08312816420042" lon="12.160798682138614"><ele>362.0</ele><time>2026-04-09T10:48:30.999Z</time></trkpt><trkpt lat="46.083036536781066" lon="12.160852279467639"><ele>362.40000000000003</ele><time>2026-04-09T10:48:31.999Z</time></trkpt><trkpt lat="46.08294039971272" lon="12.160882072953875"><ele>362.8</ele><time>2026-04-09T10:48:32.999Z</time></trkpt><trkpt lat="46.082840344788885" lon="12.160872324622371"><ele>363.2</ele><time>2026-04-09T10:48:33.999Z</time></trkpt><trkpt lat="46.082730056028275" lon="12.160841991412026"><ele>363.6</ele><time>2026-04-09T10:48:34.999Z</time></trkpt><trkpt lat="46.082607307463704" lon="12.16080510094192"><ele>364.0</ele><time>2026-04-09T10:48:35.999Z</time></trkpt><trkpt lat="46.08247486863801" lon="12.160758912282956"><ele>363.4</ele><time>2026-04-09T10:48:36.999Z</time></trkpt><trkpt lat="46.082350110596444" lon="12.160732620197953"><ele>362.79999999999995</ele><time>2026-04-09T10:48:37.999Z</time></trkpt><trkpt lat="46.08222675770702" lon="12.160725788688996"><ele>362.20000000000005</ele><time>2026-04-09T10:48:38.999Z</time></trkpt><trkpt lat="46.0821215230375" lon="12.160724910710504"><ele>361.6</ele><time>2026-04-09T10:48:39.999Z</time></trkpt><trkpt lat="46.0820467298736" lon="12.1607255979596"><ele>361.0</ele><time>2026-04-09T10:48:41Z</time></trkpt><trkpt lat="46.081981121876574" lon="12.160749909253825"><ele>361.0</ele><time>2026-04-09T10:48:42Z</time></trkpt><trkpt lat="46.08191551909973" lon="12.16081014847299"><ele>361.0</ele><time>2026-04-09T10:48:43Z</time></trkpt><trkpt lat="46.081840593245964" lon="12.160923958638024"><ele>361.0</ele><time>2026-04-09T10:48:44Z</time></trkpt><trkpt lat="46.081740682611795" lon="12.161077325364195"><ele>361.0</ele><time>2026-04-09T10:48:45Z</time></trkpt><trkpt lat="46.08166616322955" lon="12.161215135802552"><ele>360.66666666666663</ele><time>2026-04-09T10:48:46Z</time></trkpt><trkpt lat="46.081594439205766" lon="12.161385737968416"><ele>360.3333333333333</ele><time>2026-04-09T10:48:47Z</time></trkpt><trkpt lat="46.08151635790577" lon="12.161614457112977"><ele>360.0</ele><time>2026-04-09T10:48:48Z</time></trkpt><trkpt lat="46.081435587096465" lon="12.161850915895956"><ele>360.0</ele><time>2026-04-09T10:48:49Z</time></trkpt><trkpt lat="46.08136237958728" lon="12.162072148520394"><ele>360.0</ele><time>2026-04-09T10:48:50Z</time></trkpt><trkpt lat="46.08129931472332" lon="12.162315575320754"><ele>360.0</ele><time>2026-04-09T10:48:51Z</time></trkpt><trkpt lat="46.0812579610965" lon="12.162540375585143"><ele>364.3333333333333</ele><time>2026-04-09T10:48:52Z</time></trkpt><trkpt lat="46.08118962163274" lon="12.162741045282157"><ele>368.66666666666663</ele><time>2026-04-09T10:48:53Z</time></trkpt><trkpt lat="46.08112381992384" lon="12.162967252062632"><ele>373.0</ele><time>2026-04-09T10:48:54Z</time></trkpt><trkpt lat="46.08102429761125" lon="12.163181500164903"><ele>373.5</ele><time>2026-04-09T10:48:55Z</time></trkpt><trkpt lat="46.08094947464526" lon="12.16338120399177"><ele>374.0</ele><time>2026-04-09T10:48:56Z</time></trkpt><trkpt lat="46.08090016403638" lon="12.163572628339603"><ele>374.5</ele><time>2026-04-09T10:48:57Z</time></trkpt><trkpt lat="46.08085379791126" lon="12.163738022269206"><ele>375.0</ele><time>2026-04-09T10:48:58Z</time></trkpt><trkpt lat="46.08081625379848" lon="12.163889564456133"><ele>375.0</ele><time>2026-04-09T10:48:59Z</time></trkpt><trkpt lat="46.08078104318386" lon="12.164026664992114"><ele>375.0</ele><time>2026-04-09T10:49:00Z</time></trkpt><trkpt lat="46.08076143849845" lon="12.16415228468046"><ele>375.0</ele><time>2026-04-09T10:49:01Z</time></trkpt><trkpt lat="46.08073600389333" lon="12.16426074942775"><ele>375.0</ele><time>2026-04-09T10:49:02Z</time></trkpt><trkpt lat="46.080695764977975" lon="12.164376014063796"><ele>375.0</ele><time>2026-04-09T10:49:03Z</time></trkpt><trkpt lat="46.08063930647312" lon="12.164518216808013"><ele>375.5</ele><time>2026-04-09T10:49:04Z</time></trkpt><trkpt lat="46.080586272859726" lon="12.164678621353005"><ele>376.0</ele><time>2026-04-09T10:49:05Z</time></trkpt><trkpt lat="46.08057472155163" lon="12.164831028598783"><ele>376.5</ele><time>2026-04-09T10:49:06Z</time></trkpt><trkpt lat="46.08056428713457" lon="12.164981932269306"><ele>377.0</ele><time>2026-04-09T10:49:07Z</time></trkpt><trkpt lat="46.080573300147584" lon="12.165162514403798"><ele>378.33333333333337</ele><time>2026-04-09T10:49:08Z</time></trkpt><trkpt lat="46.08057792032332" lon="12.165390025957723"><ele>379.6666666666667</ele><time>2026-04-09T10:49:09Z</time></trkpt><trkpt lat="46.08059322404574" lon="12.165652630325756"><ele>381.0</ele><time>2026-04-09T10:49:10Z</time></trkpt><trkpt lat="46.08061187155948" lon="12.165884877014449"><ele>381.6666666666667</ele><time>2026-04-09T10:49:11Z</time></trkpt><trkpt lat="46.08058027529744" lon="12.1661078569691"><ele>382.33333333333337</ele><time>2026-04-09T10:49:12Z</time></trkpt><trkpt lat="46.08056090064031" lon="12.166321712194899"><ele>383.0</ele><time>2026-04-09T10:49:13Z</time></trkpt><trkpt lat="46.080486302689245" lon="12.166532981445911"><ele>384.0</ele><time>2026-04-09T10:49:14Z</time></trkpt><trkpt lat="46.080414350924855" lon="12.166773467131451"><ele>385.0</ele><time>2026-04-09T10:49:15Z</time></trkpt><trkpt lat="46.08032157935195" lon="12.167035514881196"><ele>386.0</ele><time>2026-04-09T10:49:16Z</time></trkpt><trkpt lat="46.08022158633749" lon="12.16731416601274"><ele>385.3333333333333</ele><time>2026-04-09T10:49:17Z</time></trkpt><trkpt lat="46.08013337857349" lon="12.167571662870618"><ele>384.66666666666663</ele><time>2026-04-09T10:49:18Z</time></trkpt><trkpt lat="46.080046946194344" lon="12.167861494249133"><ele>384.0</ele><time>2026-04-09T10:49:19Z</time></trkpt><trkpt lat="46.07997061761067" lon="12.168142955012584"><ele>386.0</ele><time>2026-04-09T10:49:20Z</time></trkpt><trkpt lat="46.079914067007365" lon="12.168396458939721"><ele>388.0</ele><time>2026-04-09T10:49:21Z</time></trkpt><trkpt lat="46.079877616616116" lon="12.168637667680418"><ele>390.0</ele><time>2026-04-09T10:49:22Z</time></trkpt><trkpt lat="46.079852823771034" lon="12.168859158189878"><ele>390.25</ele><time>2026-04-09T10:49:23Z</time></trkpt><trkpt lat="46.07986146967335" lon="12.169066408141559"><ele>390.5</ele><time>2026-04-09T10:49:24Z</time></trkpt><trkpt lat="46.07986617638885" lon="12.169265394212681"><ele>390.75</ele><time>2026-04-09T10:49:25Z</time></trkpt><trkpt lat="46.07988389990379" lon="12.16948240544691"><ele>391.0</ele><time>2026-04-09T10:49:26Z</time></trkpt><trkpt lat="46.079911440531355" lon="12.169711243097842"><ele>391.5</ele><time>2026-04-09T10:49:27Z</time></trkpt><trkpt lat="46.07991433358183" lon="12.169912903830093"><ele>392.0</ele><time>2026-04-09T10:49:28Z</time></trkpt><trkpt lat="46.079930380610065" lon="12.17007826812415"><ele>392.5</ele><time>2026-04-09T10:49:29Z</time></trkpt><trkpt lat="46.079935218962845" lon="12.170250607037932"><ele>393.0</ele><time>2026-04-09T10:49:30Z</time></trkpt><trkpt lat="46.07991986624476" lon="12.17042652139284"><ele>393.5</ele><time>2026-04-09T10:49:31Z</time></trkpt><trkpt lat="46.07988259930577" lon="12.170604130287556"><ele>394.0</ele><time>2026-04-09T10:49:32Z</time></trkpt><trkpt lat="46.07982344826197" lon="12.170796297824774"><ele>394.5</ele><time>2026-04-09T10:49:33Z</time></trkpt><trkpt lat="46.079755171286564" lon="12.171025830115626"><ele>395.0</ele><time>2026-04-09T10:49:34Z</time></trkpt><trkpt lat="46.07970496878495" lon="12.171236350699061"><ele>396.0</ele><time>2026-04-09T10:49:35Z</time></trkpt><trkpt lat="46.07966473657556" lon="12.171426175030152"><ele>397.0</ele><time>2026-04-09T10:49:36Z</time></trkpt><trkpt lat="46.079661658146634" lon="12.171598471549785"><ele>398.0</ele><time>2026-04-09T10:49:37Z</time></trkpt><trkpt lat="46.079654510137146" lon="12.171753366204156"><ele>399.0</ele><time>2026-04-09T10:49:38Z</time></trkpt><trkpt lat="46.079652714642904" lon="12.171906624391381"><ele>399.25</ele><time>2026-04-09T10:49:39Z</time></trkpt><trkpt lat="46.07964417433368" lon="12.172068495496081"><ele>399.5</ele><time>2026-04-09T10:49:40Z</time></trkpt><trkpt lat="46.07965220462547" lon="12.17222850033817"><ele>399.75</ele><time>2026-04-09T10:49:41Z</time></trkpt><trkpt lat="46.07966504847389" lon="12.172389182668045"><ele>400.0</ele><time>2026-04-09T10:49:42Z</time></trkpt><trkpt lat="46.07968120979691" lon="12.172551762060488"><ele>401.25</ele><time>2026-04-09T10:49:43Z</time></trkpt><trkpt lat="46.079691934697024" lon="12.172720733723018"><ele>402.5</ele><time>2026-04-09T10:49:44Z</time></trkpt><trkpt lat="46.07970369841779" lon="12.172887985167856"><ele>403.75</ele><time>2026-04-09T10:49:45Z</time></trkpt><trkpt lat="46.07971812790582" lon="12.173051121090717"><ele>405.0</ele><time>2026-04-09T10:49:46Z</time></trkpt><trkpt lat="46.07972856303406" lon="12.17321607155347"><ele>405.8</ele><time>2026-04-09T10:49:47Z</time></trkpt><trkpt lat="46.07973371173635" lon="12.17337310185184"><ele>406.6</ele><time>2026-04-09T10:49:48Z</time></trkpt><trkpt lat="46.079709012576885" lon="12.173522281903614"><ele>407.4</ele><time>2026-04-09T10:49:49Z</time></trkpt><trkpt lat="46.07966427675307" lon="12.173654489323223"><ele>408.2</ele><time>2026-04-09T10:49:50Z</time></trkpt><trkpt lat="46.0796177462367" lon="12.173769443552398"><ele>409.0</ele><time>2026-04-09T10:49:51Z</time></trkpt><trkpt lat="46.07956941490658" lon="12.173884976728349"><ele>409.0</ele><time>2026-04-09T10:49:52Z</time></trkpt><trkpt lat="46.07952627929701" lon="12.174014361619966"><ele>409.0</ele><time>2026-04-09T10:49:53Z</time></trkpt><trkpt lat="46.079453033627196" lon="12.174130882166127"><ele>409.0</ele><time>2026-04-09T10:49:54Z</time></trkpt><trkpt lat="46.07938346978589" lon="12.17425104672534"><ele>409.0</ele><time>2026-04-09T10:49:55Z</time></trkpt><trkpt lat="46.07931870564323" lon="12.174363865465603"><ele>409.0</ele><time>2026-04-09T10:49:56Z</time></trkpt><trkpt lat="46.079250817191316" lon="12.174470678020514"><ele>408.85714285714283</ele><time>2026-04-09T10:49:57Z</time></trkpt><trkpt lat="46.07919473627665" lon="12.174559948913831"><ele>408.7142857142857</ele><time>2026-04-09T10:49:57.999Z</time></trkpt><trkpt lat="46.07914931873743" lon="12.174629752525895"><ele>408.57142857142856</ele><time>2026-04-09T10:49:58.999Z</time></trkpt><trkpt lat="46.07910376070586" lon="12.174697101916495"><ele>408.42857142857144</ele><time>2026-04-09T10:49:59.999Z</time></trkpt><trkpt lat="46.079060296913156" lon="12.174770530566535"><ele>408.28571428571433</ele><time>2026-04-09T10:50:00.999Z</time></trkpt><trkpt lat="46.07901303512419" lon="12.174849168582139"><ele>408.14285714285717</ele><time>2026-04-09T10:50:01.999Z</time></trkpt><trkpt lat="46.07897446690348" lon="12.174942381367165"><ele>408.0</ele><time>2026-04-09T10:50:02.999Z</time></trkpt><trkpt lat="46.07894919618918" lon="12.175055734356391"><ele>408.79999999999995</ele><time>2026-04-09T10:50:03.999Z</time></trkpt><trkpt lat="46.078927441734145" lon="12.175182889540404"><ele>409.6</ele><time>2026-04-09T10:50:04.999Z</time></trkpt><trkpt lat="46.078924061568955" lon="12.175291201149783"><ele>410.4</ele><time>2026-04-09T10:50:05.999Z</time></trkpt><trkpt lat="46.07891289355591" lon="12.175478635993453"><ele>411.20000000000005</ele><time>2026-04-09T10:50:07.999Z</time></trkpt><trkpt lat="46.07891168759999" lon="12.175576445609778"><ele>412.0</ele><time>2026-04-09T10:50:08.999Z</time></trkpt><trkpt lat="46.078911214758584" lon="12.175727702695182"><ele>413.1666666666667</ele><time>2026-04-09T10:50:10.999Z</time></trkpt><trkpt lat="46.07890547708341" lon="12.175886068079642"><ele>414.33333333333337</ele><time>2026-04-09T10:50:12.999Z</time></trkpt><trkpt lat="46.078900931908066" lon="12.175981291458791"><ele>415.5</ele><time>2026-04-09T10:50:13.999Z</time></trkpt><trkpt lat="46.078910285935095" lon="12.176073985433792"><ele>416.66666666666663</ele><time>2026-04-09T10:50:14.999Z</time></trkpt><trkpt lat="46.07891740228088" lon="12.176178667164248"><ele>417.8333333333333</ele><time>2026-04-09T10:50:15.999Z</time></trkpt><trkpt lat="46.078938270145116" lon="12.176294462392166"><ele>419.0</ele><time>2026-04-09T10:50:16.999Z</time></trkpt><trkpt lat="46.078944814407876" lon="12.176406408230921"><ele>418.99999999999994</ele><time>2026-04-09T10:50:17.999Z</time></trkpt><trkpt lat="46.0789454301779" lon="12.176509262459918"><ele>419.0</ele><time>2026-04-09T10:50:18.999Z</time></trkpt><trkpt lat="46.078954025965174" lon="12.176613103651844"><ele>419.0</ele><time>2026-04-09T10:50:19.999Z</time></trkpt><trkpt lat="46.078962486998364" lon="12.176706769557912"><ele>419.0</ele><time>2026-04-09T10:50:20.999Z</time></trkpt><trkpt lat="46.07897628676869" lon="12.176816903547762"><ele>418.99999999999994</ele><time>2026-04-09T10:50:22.999Z</time></trkpt><trkpt lat="46.07900393464583" lon="12.176958845787286"><ele>419.0</ele><time>2026-04-09T10:50:24.999Z</time></trkpt><trkpt lat="46.07901683549453" lon="12.177064585245269"><ele>419.3333333333333</ele><time>2026-04-09T10:50:25.999Z</time></trkpt><trkpt lat="46.079028920077135" lon="12.177193568067418"><ele>419.66666666666663</ele><time>2026-04-09T10:50:26.999Z</time></trkpt><trkpt lat="46.07903254228698" lon="12.177300491451424"><ele>420.0</ele><time>2026-04-09T10:50:27.999Z</time></trkpt><trkpt lat="46.07903654138981" lon="12.177415041271562"><ele>420.33333333333337</ele><time>2026-04-09T10:50:28.999Z</time></trkpt><trkpt lat="46.07904051679975" lon="12.17754710992054"><ele>420.6666666666667</ele><time>2026-04-09T10:50:29.999Z</time></trkpt><trkpt lat="46.07904181751112" lon="12.177681367578705"><ele>421.0</ele><time>2026-04-09T10:50:30.999Z</time></trkpt><trkpt lat="46.07904137581536" lon="12.177821321839817"><ele>421.6</ele><time>2026-04-09T10:50:31.999Z</time></trkpt><trkpt lat="46.07903881600242" lon="12.177965317549537"><ele>422.20000000000005</ele><time>2026-04-09T10:50:32.999Z</time></trkpt><trkpt lat="46.07903356898343" lon="12.178110606499688"><ele>422.79999999999995</ele><time>2026-04-09T10:50:33.999Z</time></trkpt><trkpt lat="46.0790266608349" lon="12.17827772775905"><ele>423.4</ele><time>2026-04-09T10:50:34.999Z</time></trkpt><trkpt lat="46.07902537513318" lon="12.178440349142138"><ele>424.0</ele><time>2026-04-09T10:50:35.999Z</time></trkpt><trkpt lat="46.07902553279736" lon="12.178593166477052"><ele>425.25</ele><time>2026-04-09T10:50:36.999Z</time></trkpt><trkpt lat="46.07902247516115" lon="12.178755488832763"><ele>426.5</ele><time>2026-04-09T10:50:37.999Z</time></trkpt><trkpt lat="46.07901847652701" lon="12.178916001878711"><ele>427.75</ele><time>2026-04-09T10:50:38.999Z</time></trkpt><trkpt lat="46.07900526221525" lon="12.179093465142381"><ele>429.0</ele><time>2026-04-09T10:50:39.999Z</time></trkpt><trkpt lat="46.078966789440344" lon="12.179295410703062"><ele>430.25</ele><time>2026-04-09T10:50:40.999Z</time></trkpt><trkpt lat="46.078910167501256" lon="12.17948910036267"><ele>431.5</ele><time>2026-04-09T10:50:41.999Z</time></trkpt><trkpt lat="46.07884995925608" lon="12.179650170126102"><ele>432.75</ele><time>2026-04-09T10:50:42.999Z</time></trkpt><trkpt lat="46.07878178861596" lon="12.179803155481506"><ele>434.0</ele><time>2026-04-09T10:50:43.999Z</time></trkpt><trkpt lat="46.07871803214902" lon="12.179967248219572"><ele>434.5</ele><time>2026-04-09T10:50:44.999Z</time></trkpt><trkpt lat="46.07864964613631" lon="12.18012496235045"><ele>435.0</ele><time>2026-04-09T10:50:45.999Z</time></trkpt><trkpt lat="46.07858037361292" lon="12.18027861999753"><ele>435.5</ele><time>2026-04-09T10:50:47Z</time></trkpt><trkpt lat="46.07851317636673" lon="12.180435199587727"><ele>436.0</ele><time>2026-04-09T10:50:48Z</time></trkpt><trkpt lat="46.078449772398145" lon="12.180592550301066"><ele>437.25</ele><time>2026-04-09T10:50:49Z</time></trkpt><trkpt lat="46.07838516496216" lon="12.180747506959564"><ele>438.5</ele><time>2026-04-09T10:50:50Z</time></trkpt><trkpt lat="46.078310510322105" lon="12.18089591205035"><ele>439.75</ele><time>2026-04-09T10:50:51Z</time></trkpt><trkpt lat="46.07822876503101" lon="12.181033236007723"><ele>441.0</ele><time>2026-04-09T10:50:52Z</time></trkpt><trkpt lat="46.078144341378774" lon="12.181187887588633"><ele>441.33333333333337</ele><time>2026-04-09T10:50:53Z</time></trkpt><trkpt lat="46.07805189063337" lon="12.181394167013524"><ele>441.6666666666667</ele><time>2026-04-09T10:50:54Z</time></trkpt><trkpt lat="46.07794287448715" lon="12.181644332382872"><ele>442.0</ele><time>2026-04-09T10:50:55Z</time></trkpt><trkpt lat="46.077831008596846" lon="12.181918897510057"><ele>443.33333333333337</ele><time>2026-04-09T10:50:56Z</time></trkpt><trkpt lat="46.077741342836575" lon="12.182151007643075"><ele>444.66666666666663</ele><time>2026-04-09T10:50:57Z</time></trkpt><trkpt lat="46.07764888254631" lon="12.182351113253583"><ele>446.0</ele><time>2026-04-09T10:50:58Z</time></trkpt><trkpt lat="46.07754998932703" lon="12.182530616165668"><ele>446.25</ele><time>2026-04-09T10:50:59Z</time></trkpt><trkpt lat="46.077449424466955" lon="12.182690010291674"><ele>446.5</ele><time>2026-04-09T10:51:00Z</time></trkpt><trkpt lat="46.07736278818061" lon="12.182831696009337"><ele>446.75</ele><time>2026-04-09T10:51:01Z</time></trkpt><trkpt lat="46.07729920893548" lon="12.182973917545647"><ele>447.0</ele><time>2026-04-09T10:51:02Z</time></trkpt><trkpt lat="46.07723115367598" lon="12.183098373060059"><ele>449.0</ele><time>2026-04-09T10:51:03Z</time></trkpt><trkpt lat="46.0771423934164" lon="12.183201817824845"><ele>451.0</ele><time>2026-04-09T10:51:04Z</time></trkpt><trkpt lat="46.077045332221154" lon="12.183297335146142"><ele>453.0</ele><time>2026-04-09T10:51:05Z</time></trkpt><trkpt lat="46.07694087977153" lon="12.183381722558893"><ele>455.0</ele><time>2026-04-09T10:51:06Z</time></trkpt><trkpt lat="46.07681240415391" lon="12.183474197003699"><ele>455.0</ele><time>2026-04-09T10:51:07Z</time></trkpt><trkpt lat="46.07665648074026" lon="12.183577074410355"><ele>455.0</ele><time>2026-04-09T10:51:08Z</time></trkpt><trkpt lat="46.076520199659846" lon="12.183663266693117"><ele>455.0</ele><time>2026-04-09T10:51:09Z</time></trkpt><trkpt lat="46.07639698020821" lon="12.183714780338402"><ele>455.0</ele><time>2026-04-09T10:51:10Z</time></trkpt><trkpt lat="46.076260239910276" lon="12.183738269730597"><ele>455.3333333333333</ele><time>2026-04-09T10:51:11Z</time></trkpt><trkpt lat="46.07609811726948" lon="12.183745044999641"><ele>455.66666666666663</ele><time>2026-04-09T10:51:12Z</time></trkpt><trkpt lat="46.075912981476975" lon="12.183770343774837"><ele>456.0</ele><time>2026-04-09T10:51:13Z</time></trkpt><trkpt lat="46.075745331068994" lon="12.183805823648449"><ele>456.66666666666663</ele><time>2026-04-09T10:51:14Z</time></trkpt><trkpt lat="46.07557869018996" lon="12.183841783118156"><ele>457.3333333333333</ele><time>2026-04-09T10:51:15Z</time></trkpt><trkpt lat="46.07541102037292" lon="12.183852381335731"><ele>458.0</ele><time>2026-04-09T10:51:16Z</time></trkpt><trkpt lat="46.07525010726835" lon="12.18383824243779"><ele>458.0</ele><time>2026-04-09T10:51:17Z</time></trkpt><trkpt lat="46.07511484308806" lon="12.183833982073443"><ele>458.0</ele><time>2026-04-09T10:51:18Z</time></trkpt><trkpt lat="46.07499207762526" lon="12.183806869265025"><ele>458.0</ele><time>2026-04-09T10:51:19Z</time></trkpt><trkpt lat="46.07488059276165" lon="12.18375540470948"><ele>458.0</ele><time>2026-04-09T10:51:20Z</time></trkpt><trkpt lat="46.07477984121782" lon="12.183727217964508"><ele>455.0</ele><time>2026-04-09T10:51:21Z</time></trkpt><trkpt lat="46.0746696136209" lon="12.18373564423788"><ele>452.0</ele><time>2026-04-09T10:51:22Z</time></trkpt><trkpt lat="46.07456554120419" lon="12.18379078651142"><ele>449.0</ele><time>2026-04-09T10:51:23Z</time></trkpt><trkpt lat="46.07446889016603" lon="12.1838781390135"><ele>446.0</ele><time>2026-04-09T10:51:24Z</time></trkpt><trkpt lat="46.074369242955676" lon="12.183991541962163"><ele>446.66666666666663</ele><time>2026-04-09T10:51:25Z</time></trkpt><trkpt lat="46.07425288180791" lon="12.184127122350096"><ele>447.33333333333337</ele><time>2026-04-09T10:51:26Z</time></trkpt><trkpt lat="46.07412268151887" lon="12.18427350700622"><ele>448.0</ele><time>2026-04-09T10:51:27Z</time></trkpt><trkpt lat="46.07400351906363" lon="12.1844099623471"><ele>448.0</ele><time>2026-04-09T10:51:28Z</time></trkpt><trkpt lat="46.07391433883113" lon="12.18452703868576"><ele>448.0</ele><time>2026-04-09T10:51:29Z</time></trkpt><trkpt lat="46.07384331749993" lon="12.18465810966928"><ele>448.0</ele><time>2026-04-09T10:51:30Z</time></trkpt><trkpt lat="46.07377622149982" lon="12.184814469842523"><ele>448.0</ele><time>2026-04-09T10:51:31Z</time></trkpt><trkpt lat="46.07371976978075" lon="12.184990993930139"><ele>452.0</ele><time>2026-04-09T10:51:32Z</time></trkpt><trkpt lat="46.073674082782695" lon="12.185155648830264"><ele>456.0</ele><time>2026-04-09T10:51:33Z</time></trkpt><trkpt lat="46.07364542980004" lon="12.18532606307889"><ele>460.0</ele><time>2026-04-09T10:51:34Z</time></trkpt><trkpt lat="46.07363333693973" lon="12.185514647213346"><ele>464.0</ele><time>2026-04-09T10:51:35Z</time></trkpt><trkpt lat="46.073633163875364" lon="12.18572265954657"><ele>467.3333333333333</ele><time>2026-04-09T10:51:36Z</time></trkpt><trkpt lat="46.073640133748235" lon="12.18596768383798"><ele>470.66666666666663</ele><time>2026-04-09T10:51:37Z</time></trkpt><trkpt lat="46.07366346728961" lon="12.186238282398907"><ele>474.0</ele><time>2026-04-09T10:51:38Z</time></trkpt><trkpt lat="46.07369383627267" lon="12.186461545607914"><ele>475.75</ele><time>2026-04-09T10:51:39Z</time></trkpt><trkpt lat="46.07372924888948" lon="12.18666602061396"><ele>477.5</ele><time>2026-04-09T10:51:40Z</time></trkpt><trkpt lat="46.073755702313534" lon="12.186865019022934"><ele>479.25</ele><time>2026-04-09T10:51:41Z</time></trkpt><trkpt lat="46.073773726694235" lon="12.18704654132879"><ele>481.0</ele><time>2026-04-09T10:51:42Z</time></trkpt><trkpt lat="46.07376897286968" lon="12.187218287335673"><ele>483.5</ele><time>2026-04-09T10:51:43Z</time></trkpt><trkpt lat="46.0737469897467" lon="12.187394449876992"><ele>486.0</ele><time>2026-04-09T10:51:44Z</time></trkpt><trkpt lat="46.07372193134251" lon="12.187577213671192"><ele>488.5</ele><time>2026-04-09T10:51:45Z</time></trkpt><trkpt lat="46.07369929919941" lon="12.187754178690213"><ele>491.0</ele><time>2026-04-09T10:51:46Z</time></trkpt><trkpt lat="46.073683038855926" lon="12.187923994878174"><ele>491.0</ele><time>2026-04-09T10:51:47Z</time></trkpt><trkpt lat="46.07368834114706" lon="12.18809950262053"><ele>491.0</ele><time>2026-04-09T10:51:48Z</time></trkpt><trkpt lat="46.073719691271975" lon="12.188275560072936"><ele>491.0</ele><time>2026-04-09T10:51:49Z</time></trkpt><trkpt lat="46.0737594564241" lon="12.188456734233505"><ele>491.0</ele><time>2026-04-09T10:51:50Z</time></trkpt><trkpt lat="46.07378767282963" lon="12.188590586033051"><ele>493.75</ele><time>2026-04-09T10:51:51Z</time></trkpt><trkpt lat="46.073809922364354" lon="12.188726905572745"><ele>496.5</ele><time>2026-04-09T10:51:52Z</time></trkpt><trkpt lat="46.07383606592621" lon="12.188895180925554"><ele>499.25</ele><time>2026-04-09T10:51:53Z</time></trkpt><trkpt lat="46.07385347965076" lon="12.189072242157833"><ele>502.0</ele><time>2026-04-09T10:51:54Z</time></trkpt><trkpt lat="46.073877365817786" lon="12.18924269653297"><ele>505.20000000000005</ele><time>2026-04-09T10:51:55Z</time></trkpt><trkpt lat="46.073916816150714" lon="12.189364974345194"><ele>508.40000000000003</ele><time>2026-04-09T10:51:56Z</time></trkpt><trkpt lat="46.073969475313355" lon="12.189459909002052"><ele>511.59999999999997</ele><time>2026-04-09T10:51:57Z</time></trkpt><trkpt lat="46.07403843819761" lon="12.189545844316667"><ele>514.8</ele><time>2026-04-09T10:51:58Z</time></trkpt><trkpt lat="46.07413196535051" lon="12.189617153933874"><ele>518.0</ele><time>2026-04-09T10:51:59Z</time></trkpt><trkpt lat="46.07423714183715" lon="12.18968904665858"><ele>520.6</ele><time>2026-04-09T10:52:00Z</time></trkpt><trkpt lat="46.07432263261879" lon="12.189750455844688"><ele>523.1999999999999</ele><time>2026-04-09T10:52:01Z</time></trkpt><trkpt lat="46.074391963282544" lon="12.189797544619214"><ele>525.8</ele><time>2026-04-09T10:52:02Z</time></trkpt><trkpt lat="46.07446384259881" lon="12.189842725859762"><ele>528.4</ele><time>2026-04-09T10:52:03Z</time></trkpt><trkpt lat="46.074546731523355" lon="12.18992030827684"><ele>531.0</ele><time>2026-04-09T10:52:04.999Z</time></trkpt><trkpt lat="46.074521942984546" lon="12.190085862560968"><ele>533.3333333333334</ele><time>2026-04-09T10:52:06.999Z</time></trkpt><trkpt lat="46.07446550761246" lon="12.190156516023386"><ele>535.6666666666666</ele><time>2026-04-09T10:52:07.999Z</time></trkpt><trkpt lat="46.07441592994452" lon="12.19024120186163"><ele>538.0</ele><time>2026-04-09T10:52:08.999Z</time></trkpt><trkpt lat="46.074370668707196" lon="12.190308068288733"><ele>540.3333333333333</ele><time>2026-04-09T10:52:09.999Z</time></trkpt><trkpt lat="46.07432893403356" lon="12.1904249249559"><ele>542.6666666666666</ele><time>2026-04-09T10:52:11.999Z</time></trkpt><trkpt lat="46.07439495538151" lon="12.190542437546316"><ele>545.0</ele><time>2026-04-09T10:52:13.999Z</time></trkpt><trkpt lat="46.07448411656602" lon="12.190550377042186"><ele>545.0</ele><time>2026-04-09T10:52:14.999Z</time></trkpt><trkpt lat="46.07456949200834" lon="12.19052847015692"><ele>545.0</ele><time>2026-04-09T10:52:15.999Z</time></trkpt><trkpt lat="46.0746494790688" lon="12.190525213992887"><ele>545.0</ele><time>2026-04-09T10:52:16.999Z</time></trkpt><trkpt lat="46.07471545538395" lon="12.190544359351415"><ele>545.0</ele><time>2026-04-09T10:52:17.999Z</time></trkpt><trkpt lat="46.074820739376406" lon="12.190615065533747"><ele>545.0</ele><time>2026-04-09T10:52:19.999Z</time></trkpt><trkpt lat="46.074885381502895" lon="12.190762466201953"><ele>549.4</ele><time>2026-04-09T10:52:21.999Z</time></trkpt><trkpt lat="46.07491423902833" lon="12.190845635842392"><ele>553.8</ele><time>2026-04-09T10:52:22.999Z</time></trkpt><trkpt lat="46.07498055170379" lon="12.19097757366378"><ele>558.2</ele><time>2026-04-09T10:52:24.999Z</time></trkpt><trkpt lat="46.075152972675404" lon="12.191019901138707"><ele>562.6</ele><time>2026-04-09T10:52:39.999Z</time></trkpt><trkpt lat="46.07518159217499" lon="12.190937185380855"><ele>567.0</ele><time>2026-04-09T10:52:40.999Z</time></trkpt><trkpt lat="46.075208497591426" lon="12.190831129721328"><ele>567.0</ele><time>2026-04-09T10:52:41.999Z</time></trkpt><trkpt lat="46.07523182985825" lon="12.190739394841888"><ele>567.0</ele><time>2026-04-09T10:52:42.999Z</time></trkpt><trkpt lat="46.075295547258285" lon="12.190685101118431"><ele>567.0</ele><time>2026-04-09T10:52:43.999Z</time></trkpt><trkpt lat="46.075349701105786" lon="12.190560474699708"><ele>567.0</ele><time>2026-04-09T10:52:45.999Z</time></trkpt><trkpt lat="46.075414673906586" lon="12.190499931152438"><ele>567.0</ele><time>2026-04-09T10:52:46.999Z</time></trkpt><trkpt lat="46.075492745209466" lon="12.190471249760858"><ele>567.0</ele><time>2026-04-09T10:52:47.999Z</time></trkpt><trkpt lat="46.075561875199405" lon="12.190459426037357"><ele>563.8000000000001</ele><time>2026-04-09T10:52:48.999Z</time></trkpt><trkpt lat="46.07563634259188" lon="12.190445156332343"><ele>560.6</ele><time>2026-04-09T10:52:49.999Z</time></trkpt><trkpt lat="46.07572288238121" lon="12.190484032237123"><ele>557.4000000000001</ele><time>2026-04-09T10:52:50.999Z</time></trkpt><trkpt lat="46.07582917552701" lon="12.190503081744419"><ele>554.2</ele><time>2026-04-09T10:52:51.999Z</time></trkpt><trkpt lat="46.07593023525995" lon="12.190518815811242"><ele>551.0</ele><time>2026-04-09T10:52:53Z</time></trkpt><trkpt lat="46.07603180183437" lon="12.190537423137686"><ele>550.5</ele><time>2026-04-09T10:52:54Z</time></trkpt><trkpt lat="46.07613921810204" lon="12.190546251283001"><ele>550.0</ele><time>2026-04-09T10:52:55Z</time></trkpt><trkpt lat="46.07624368412094" lon="12.190502810085007"><ele>549.5</ele><time>2026-04-09T10:52:56Z</time></trkpt><trkpt lat="46.07636858248285" lon="12.190418522694209"><ele>549.0</ele><time>2026-04-09T10:52:57Z</time></trkpt><trkpt lat="46.07649107995837" lon="12.190336990645593"><ele>548.75</ele><time>2026-04-09T10:52:58Z</time></trkpt><trkpt lat="46.07661539582615" lon="12.190252457853397"><ele>548.5</ele><time>2026-04-09T10:52:59Z</time></trkpt><trkpt lat="46.07676565833673" lon="12.190209524383997"><ele>548.25</ele><time>2026-04-09T10:53:00Z</time></trkpt><trkpt lat="46.07691456969988" lon="12.190161631004601"><ele>548.0</ele><time>2026-04-09T10:53:01Z</time></trkpt><trkpt lat="46.07705366556087" lon="12.19014328009571"><ele>548.0</ele><time>2026-04-09T10:53:02Z</time></trkpt><trkpt lat="46.07720381867545" lon="12.190087668332795"><ele>548.0</ele><time>2026-04-09T10:53:03Z</time></trkpt><trkpt lat="46.077366807210616" lon="12.190023733912213"><ele>548.0</ele><time>2026-04-09T10:53:04Z</time></trkpt><trkpt lat="46.077504296958935" lon="12.18993245954622"><ele>542.0</ele><time>2026-04-09T10:53:05Z</time></trkpt><trkpt lat="46.0776639733392" lon="12.189809896627224"><ele>536.0</ele><time>2026-04-09T10:53:06Z</time></trkpt><trkpt lat="46.07785779264356" lon="12.189687312083684"><ele>530.0</ele><time>2026-04-09T10:53:07Z</time></trkpt><trkpt lat="46.078018093654194" lon="12.189567413006579"><ele>530.0</ele><time>2026-04-09T10:53:08Z</time></trkpt><trkpt lat="46.07813977011662" lon="12.189441703032047"><ele>530.0</ele><time>2026-04-09T10:53:09Z</time></trkpt><trkpt lat="46.07826764188753" lon="12.189370630803408"><ele>530.0</ele><time>2026-04-09T10:53:10Z</time></trkpt><trkpt lat="46.07838770678578" lon="12.189291625711501"><ele>530.0</ele><time>2026-04-09T10:53:11Z</time></trkpt><trkpt lat="46.07851388762378" lon="12.189236952792111"><ele>529.75</ele><time>2026-04-09T10:53:12Z</time></trkpt><trkpt lat="46.07864522566177" lon="12.189214443039011"><ele>529.5</ele><time>2026-04-09T10:53:13Z</time></trkpt><trkpt lat="46.07878275094283" lon="12.189218794644557"><ele>529.25</ele><time>2026-04-09T10:53:14Z</time></trkpt><trkpt lat="46.0789237975804" lon="12.189245249896967"><ele>529.0</ele><time>2026-04-09T10:53:15Z</time></trkpt><trkpt lat="46.07908177598239" lon="12.189275415120507"><ele>527.3333333333334</ele><time>2026-04-09T10:53:16Z</time></trkpt><trkpt lat="46.0792502657528" lon="12.18928591411565"><ele>525.6666666666666</ele><time>2026-04-09T10:53:17Z</time></trkpt><trkpt lat="46.079425257899906" lon="12.189265663021347"><ele>524.0</ele><time>2026-04-09T10:53:18Z</time></trkpt><trkpt lat="46.07958748497856" lon="12.18924076144379"><ele>524.0</ele><time>2026-04-09T10:53:19Z</time></trkpt><trkpt lat="46.07974217588161" lon="12.1892193542373"><ele>524.0</ele><time>2026-04-09T10:53:20Z</time></trkpt><trkpt lat="46.079907199716004" lon="12.189198947460277"><ele>524.0</ele><time>2026-04-09T10:53:21Z</time></trkpt><trkpt lat="46.0800611063847" lon="12.189176850519559"><ele>524.0</ele><time>2026-04-09T10:53:22Z</time></trkpt><trkpt lat="46.08020729313571" lon="12.189171496911843"><ele>524.0</ele><time>2026-04-09T10:53:23Z</time></trkpt><trkpt lat="46.08035994316441" lon="12.189166918281966"><ele>524.0</ele><time>2026-04-09T10:53:24Z</time></trkpt><trkpt lat="46.08049819907056" lon="12.1891575308418"><ele>524.0</ele><time>2026-04-09T10:53:25Z</time></trkpt><trkpt lat="46.08060508506057" lon="12.189149495514037"><ele>524.0</ele><time>2026-04-09T10:53:26Z</time></trkpt><trkpt lat="46.080695801506565" lon="12.189144176637159"><ele>524.0</ele><time>2026-04-09T10:53:27Z</time></trkpt><trkpt lat="46.080762409975826" lon="12.189139940649161"><ele>524.0</ele><time>2026-04-09T10:53:28Z</time></trkpt><trkpt lat="46.08086349796073" lon="12.189125063988625"><ele>524.0</ele><time>2026-04-09T10:53:30Z</time></trkpt><trkpt lat="46.08090380554391" lon="12.188980006807823"><ele>524.0</ele><time>2026-04-09T10:53:32Z</time></trkpt><trkpt lat="46.08086046213373" lon="12.188907607070025"><ele>524.0</ele><time>2026-04-09T10:53:33Z</time></trkpt><trkpt lat="46.080760326610154" lon="12.188907638273442"><ele>520.6666666666666</ele><time>2026-04-09T10:53:34Z</time></trkpt><trkpt lat="46.080673634613206" lon="12.188883047031934"><ele>517.3333333333333</ele><time>2026-04-09T10:53:35Z</time></trkpt><trkpt lat="46.08059266901581" lon="12.188862834585896"><ele>514.0</ele><time>2026-04-09T10:53:36Z</time></trkpt><trkpt lat="46.080498426955955" lon="12.18882096010509"><ele>510.66666666666663</ele><time>2026-04-09T10:53:37Z</time></trkpt><trkpt lat="46.0804277293669" lon="12.188803930616459"><ele>507.3333333333333</ele><time>2026-04-09T10:53:38Z</time></trkpt><trkpt lat="46.080373440564635" lon="12.188751470846924"><ele>504.0</ele><time>2026-04-09T10:53:40Z</time></trkpt><trkpt lat="46.08033549586028" lon="12.188637335528355"><ele>504.0</ele><time>2026-04-09T10:55:32Z</time></trkpt><trkpt lat="46.080402219267704" lon="12.188624212633437"><ele>504.0</ele><time>2026-04-09T10:55:34Z</time></trkpt><trkpt lat="46.08052310155581" lon="12.188608185020103"><ele>504.0</ele><time>2026-04-09T10:55:36Z</time></trkpt><trkpt lat="46.08059324780339" lon="12.188614386220072"><ele>504.0</ele><time>2026-04-09T10:55:37Z</time></trkpt><trkpt lat="46.080663015821166" lon="12.188608149181622"><ele>504.0</ele><time>2026-04-09T10:55:38Z</time></trkpt><trkpt lat="46.08073061445271" lon="12.188591475506207"><ele>504.0</ele><time>2026-04-09T10:55:39Z</time></trkpt><trkpt lat="46.08081966410791" lon="12.1885942911107"><ele>504.0</ele><time>2026-04-09T10:55:41Z</time></trkpt><trkpt lat="46.08087148206368" lon="12.188522350240444"><ele>504.0</ele><time>2026-04-09T10:55:45Z</time></trkpt><trkpt lat="46.080792082503116" lon="12.188564506237562"><ele>504.0</ele><time>2026-04-09T10:55:55Z</time></trkpt><trkpt lat="46.08070735714577" lon="12.188599828914949"><ele>504.0</ele><time>2026-04-09T10:55:56Z</time></trkpt><trkpt lat="46.080609005026446" lon="12.18861207155019"><ele>504.0</ele><time>2026-04-09T10:55:57Z</time></trkpt><trkpt lat="46.08052925586409" lon="12.18861120532716"><ele>504.0</ele><time>2026-04-09T10:55:58Z</time></trkpt><trkpt lat="46.08043125718257" lon="12.188607103962816"><ele>504.0</ele><time>2026-04-09T10:56:00Z</time></trkpt><trkpt lat="46.080362599441756" lon="12.188619379185006"><ele>504.0</ele><time>2026-04-09T10:56:02Z</time></trkpt><trkpt lat="46.08031086103384" lon="12.188713138531252"><ele>504.0</ele><time>2026-04-09T10:56:04Z</time></trkpt><trkpt lat="46.08039111407055" lon="12.188819338894694"><ele>504.0</ele><time>2026-04-09T10:56:06Z</time></trkpt><trkpt lat="46.08048306905314" lon="12.188852585482937"><ele>504.0</ele><time>2026-04-09T10:56:07Z</time></trkpt><trkpt lat="46.080571917996245" lon="12.188873669685526"><ele>504.0</ele><time>2026-04-09T10:56:08Z</time></trkpt><trkpt lat="46.08066934299141" lon="12.188904159264956"><ele>504.0</ele><time>2026-04-09T10:56:09Z</time></trkpt><trkpt lat="46.08076339336508" lon="12.188918802890916"><ele>504.0</ele><time>2026-04-09T10:56:10Z</time></trkpt><trkpt lat="46.080848180714945" lon="12.188934854218722"><ele>504.0</ele><time>2026-04-09T10:56:11.999Z</time></trkpt><trkpt lat="46.08085646114001" lon="12.189070472852816"><ele>504.0</ele><time>2026-04-09T10:56:13.999Z</time></trkpt><trkpt lat="46.08072123368587" lon="12.189090222314313"><ele>504.0</ele><time>2026-04-09T10:56:15.999Z</time></trkpt><trkpt lat="46.08061639085113" lon="12.189098397999274"><ele>509.0</ele><time>2026-04-09T10:56:16.999Z</time></trkpt><trkpt lat="46.08051827397867" lon="12.18910693062867"><ele>514.0</ele><time>2026-04-09T10:56:17.999Z</time></trkpt><trkpt lat="46.08042123228779" lon="12.18911396041459"><ele>519.0</ele><time>2026-04-09T10:56:18.999Z</time></trkpt><trkpt lat="46.080291312422716" lon="12.189120610328649"><ele>524.0</ele><time>2026-04-09T10:56:19.999Z</time></trkpt><trkpt lat="46.08016641095215" lon="12.189123799721843"><ele>524.0</ele><time>2026-04-09T10:56:20.999Z</time></trkpt><trkpt lat="46.080045785213684" lon="12.189124631051714"><ele>524.0</ele><time>2026-04-09T10:56:21.999Z</time></trkpt><trkpt lat="46.07991095523812" lon="12.189146679613168"><ele>524.0</ele><time>2026-04-09T10:56:22.999Z</time></trkpt><trkpt lat="46.07977429609297" lon="12.1891816485766"><ele>524.0</ele><time>2026-04-09T10:56:23.999Z</time></trkpt><trkpt lat="46.079639270805586" lon="12.189191490074535"><ele>524.0</ele><time>2026-04-09T10:56:24.999Z</time></trkpt><trkpt lat="46.07949406426665" lon="12.189217152679834"><ele>524.0</ele><time>2026-04-09T10:56:25.999Z</time></trkpt><trkpt lat="46.07933274831607" lon="12.189240538474694"><ele>524.0</ele><time>2026-04-09T10:56:26.999Z</time></trkpt><trkpt lat="46.07917175662074" lon="12.18925633810502"><ele>525.25</ele><time>2026-04-09T10:56:27.999Z</time></trkpt><trkpt lat="46.07903485233419" lon="12.189233566934771"><ele>526.5</ele><time>2026-04-09T10:56:28.999Z</time></trkpt><trkpt lat="46.078908167909695" lon="12.189209197596366"><ele>527.75</ele><time>2026-04-09T10:56:29.999Z</time></trkpt><trkpt lat="46.07878738801255" lon="12.189186025850356"><ele>529.0</ele><time>2026-04-09T10:56:30.999Z</time></trkpt><trkpt lat="46.07866461513692" lon="12.189178895903792"><ele>529.0</ele><time>2026-04-09T10:56:31.999Z</time></trkpt><trkpt lat="46.07854060052862" lon="12.18919594387986"><ele>529.0</ele><time>2026-04-09T10:56:32.999Z</time></trkpt><trkpt lat="46.0784147218855" lon="12.18924903433326"><ele>529.0</ele><time>2026-04-09T10:56:33.999Z</time></trkpt><trkpt lat="46.078285384090385" lon="12.189321230507979"><ele>529.0</ele><time>2026-04-09T10:56:34.999Z</time></trkpt><trkpt lat="46.07813011322611" lon="12.189443191423937"><ele>529.3333333333334</ele><time>2026-04-09T10:56:35.999Z</time></trkpt><trkpt lat="46.07797148125474" lon="12.189569402397286"><ele>529.6666666666666</ele><time>2026-04-09T10:56:36.999Z</time></trkpt><trkpt lat="46.07783602829584" lon="12.189667276646109"><ele>530.0</ele><time>2026-04-09T10:56:37.999Z</time></trkpt><trkpt lat="46.07769707948972" lon="12.189762151840542"><ele>533.5</ele><time>2026-04-09T10:56:38.999Z</time></trkpt><trkpt lat="46.07755617509914" lon="12.189862423149034"><ele>537.0</ele><time>2026-04-09T10:56:39.999Z</time></trkpt><trkpt lat="46.077415529353345" lon="12.189949933074109"><ele>540.5</ele><time>2026-04-09T10:56:40.999Z</time></trkpt><trkpt lat="46.077290069115875" lon="12.190021098721209"><ele>544.0</ele><time>2026-04-09T10:56:41.999Z</time></trkpt><trkpt lat="46.07715859920444" lon="12.190091628372492"><ele>545.3333333333334</ele><time>2026-04-09T10:56:42.999Z</time></trkpt><trkpt lat="46.07701609880954" lon="12.190101145537554"><ele>546.6666666666666</ele><time>2026-04-09T10:56:43.999Z</time></trkpt><trkpt lat="46.076862389666076" lon="12.190124477092056"><ele>548.0</ele><time>2026-04-09T10:56:44.999Z</time></trkpt><trkpt lat="46.07671138245107" lon="12.190201117088007"><ele>548.3333333333333</ele><time>2026-04-09T10:56:45.999Z</time></trkpt><trkpt lat="46.0765610973444" lon="12.190284284365717"><ele>548.6666666666666</ele><time>2026-04-09T10:56:46.999Z</time></trkpt><trkpt lat="46.07641344304524" lon="12.190383598505543"><ele>549.0</ele><time>2026-04-09T10:56:47.999Z</time></trkpt><trkpt lat="46.07628989088191" lon="12.190464607953768"><ele>549.0</ele><time>2026-04-09T10:56:48.999Z</time></trkpt><trkpt lat="46.076186362459126" lon="12.190503910883203"><ele>549.0</ele><time>2026-04-09T10:56:49.999Z</time></trkpt><trkpt lat="46.07607392397478" lon="12.190518791544225"><ele>549.0</ele><time>2026-04-09T10:56:50.999Z</time></trkpt><trkpt lat="46.075955247460556" lon="12.190470556673654"><ele>549.0</ele><time>2026-04-09T10:56:51.999Z</time></trkpt><trkpt lat="46.075811716134865" lon="12.190468622937717"><ele>549.4</ele><time>2026-04-09T10:56:52.999Z</time></trkpt><trkpt lat="46.075668450320244" lon="12.190439031500233"><ele>549.8</ele><time>2026-04-09T10:56:53.999Z</time></trkpt><trkpt lat="46.07554474962499" lon="12.190433287008908"><ele>550.2</ele><time>2026-04-09T10:56:54.999Z</time></trkpt><trkpt lat="46.075453351701086" lon="12.190445807088796"><ele>550.6</ele><time>2026-04-09T10:56:55.999Z</time></trkpt><trkpt lat="46.075382118823455" lon="12.190471850861575"><ele>551.0</ele><time>2026-04-09T10:56:56.999Z</time></trkpt><trkpt lat="46.075326635182925" lon="12.190524958662994"><ele>554.2</ele><time>2026-04-09T10:56:57.999Z</time></trkpt><trkpt lat="46.07524395387146" lon="12.190682900931394"><ele>557.4000000000001</ele><time>2026-04-09T10:56:59.999Z</time></trkpt><trkpt lat="46.075212989806325" lon="12.19081143516765"><ele>560.6</ele><time>2026-04-09T10:57:00.999Z</time></trkpt><trkpt lat="46.075177718677" lon="12.190934810016"><ele>563.8000000000001</ele><time>2026-04-09T10:57:01.999Z</time></trkpt><trkpt lat="46.07512108686104" lon="12.19101950056907"><ele>567.0</ele><time>2026-04-09T10:57:02.999Z</time></trkpt><trkpt lat="46.075055411275535" lon="12.191068081922673"><ele>567.0</ele><time>2026-04-09T10:57:03.999Z</time></trkpt><trkpt lat="46.07497856865446" lon="12.19107812824447"><ele>567.0</ele><time>2026-04-09T10:57:05Z</time></trkpt><trkpt lat="46.07488084098497" lon="12.191069478855166"><ele>567.0</ele><time>2026-04-09T10:57:06Z</time></trkpt><trkpt lat="46.07476347180262" lon="12.191074633931354"><ele>567.0</ele><time>2026-04-09T10:57:07Z</time></trkpt><trkpt lat="46.074623658384304" lon="12.191071208272794"><ele>567.0</ele><time>2026-04-09T10:57:08Z</time></trkpt><trkpt lat="46.074498570102136" lon="12.191067452161883"><ele>567.25</ele><time>2026-04-09T10:57:09Z</time></trkpt><trkpt lat="46.07439067441455" lon="12.19107025472566"><ele>567.5</ele><time>2026-04-09T10:57:10Z</time></trkpt><trkpt lat="46.07428500946736" lon="12.191104265776612"><ele>567.75</ele><time>2026-04-09T10:57:11Z</time></trkpt><trkpt lat="46.074179354330255" lon="12.191180118283462"><ele>568.0</ele><time>2026-04-09T10:57:12Z</time></trkpt><trkpt lat="46.07405582900281" lon="12.191260459861631"><ele>568.0</ele><time>2026-04-09T10:57:13Z</time></trkpt><trkpt lat="46.07392674970375" lon="12.191325594970898"><ele>568.0</ele><time>2026-04-09T10:57:14Z</time></trkpt><trkpt lat="46.07380063985528" lon="12.191437247139888"><ele>568.0</ele><time>2026-04-09T10:57:15Z</time></trkpt><trkpt lat="46.07366335936959" lon="12.191592732123233"><ele>572.1999999999999</ele><time>2026-04-09T10:57:16Z</time></trkpt><trkpt lat="46.07353910286887" lon="12.191741290945904"><ele>576.4</ele><time>2026-04-09T10:57:17Z</time></trkpt><trkpt lat="46.07346634180279" lon="12.1918379039218"><ele>580.5999999999999</ele><time>2026-04-09T10:57:18Z</time></trkpt><trkpt lat="46.0734016437688" lon="12.191897028673527"><ele>584.8</ele><time>2026-04-09T10:57:19Z</time></trkpt><trkpt lat="46.07332142961984" lon="12.191919161836585"><ele>589.0</ele><time>2026-04-09T10:57:20Z</time></trkpt><trkpt lat="46.073245054527455" lon="12.191858657489641"><ele>590.5</ele><time>2026-04-09T10:57:21Z</time></trkpt><trkpt lat="46.073141946099845" lon="12.191825440362559"><ele>592.0</ele><time>2026-04-09T10:57:22Z</time></trkpt><trkpt lat="46.0730094621762" lon="12.191793655130807"><ele>593.5</ele><time>2026-04-09T10:57:23Z</time></trkpt><trkpt lat="46.07284130813847" lon="12.191768655575869"><ele>595.0</ele><time>2026-04-09T10:57:24Z</time></trkpt><trkpt lat="46.072664756097126" lon="12.191781328731718"><ele>595.0</ele><time>2026-04-09T10:57:25Z</time></trkpt><trkpt lat="46.07251059851094" lon="12.191766499448972"><ele>595.0</ele><time>2026-04-09T10:57:26Z</time></trkpt><trkpt lat="46.07231516680524" lon="12.191778132816209"><ele>595.0</ele><time>2026-04-09T10:57:27Z</time></trkpt><trkpt lat="46.07211356546015" lon="12.19181030610218"><ele>597.6666666666667</ele><time>2026-04-09T10:57:28Z</time></trkpt><trkpt lat="46.0719405018893" lon="12.191839767355484"><ele>600.3333333333334</ele><time>2026-04-09T10:57:29Z</time></trkpt><trkpt lat="46.07178289526566" lon="12.191870991140837"><ele>603.0</ele><time>2026-04-09T10:57:30Z</time></trkpt><trkpt lat="46.07163684774863" lon="12.191917099635157"><ele>602.25</ele><time>2026-04-09T10:57:31Z</time></trkpt><trkpt lat="46.071490839829416" lon="12.191991669728248"><ele>601.5</ele><time>2026-04-09T10:57:32Z</time></trkpt><trkpt lat="46.07135249753037" lon="12.192078035732068"><ele>600.75</ele><time>2026-04-09T10:57:33Z</time></trkpt><trkpt lat="46.07123121341857" lon="12.192147467155163"><ele>600.0</ele><time>2026-04-09T10:57:34Z</time></trkpt><trkpt lat="46.071113457073984" lon="12.192208073807796"><ele>600.0</ele><time>2026-04-09T10:57:35Z</time></trkpt><trkpt lat="46.070983719020326" lon="12.192287244300541"><ele>600.0</ele><time>2026-04-09T10:57:36Z</time></trkpt><trkpt lat="46.070840737165824" lon="12.192373258206604"><ele>600.0</ele><time>2026-04-09T10:57:37Z</time></trkpt><trkpt lat="46.07069387904351" lon="12.192444302324882"><ele>602.75</ele><time>2026-04-09T10:57:38Z</time></trkpt><trkpt lat="46.07054042667658" lon="12.192503518143956"><ele>605.5</ele><time>2026-04-09T10:57:39Z</time></trkpt><trkpt lat="46.070384345364175" lon="12.192553990410346"><ele>608.25</ele><time>2026-04-09T10:57:40Z</time></trkpt><trkpt lat="46.07026018113856" lon="12.1926112933993"><ele>611.0</ele><time>2026-04-09T10:57:41Z</time></trkpt><trkpt lat="46.0701666579793" lon="12.192666768653238"><ele>611.0</ele><time>2026-04-09T10:57:42Z</time></trkpt><trkpt lat="46.070080165475616" lon="12.192729977539942"><ele>611.0</ele><time>2026-04-09T10:57:43Z</time></trkpt><trkpt lat="46.07001427561866" lon="12.192796992261947"><ele>611.0</ele><time>2026-04-09T10:57:44Z</time></trkpt><trkpt lat="46.06996396134815" lon="12.192874842500023"><ele>611.0</ele><time>2026-04-09T10:57:45Z</time></trkpt><trkpt lat="46.06992041152809" lon="12.192989688392874"><ele>611.0</ele><time>2026-04-09T10:57:46Z</time></trkpt><trkpt lat="46.069871627997294" lon="12.193144551174797"><ele>610.25</ele><time>2026-04-09T10:57:47Z</time></trkpt><trkpt lat="46.069811778119735" lon="12.193313860744052"><ele>609.5</ele><time>2026-04-09T10:57:48Z</time></trkpt><trkpt lat="46.06976253620846" lon="12.19345776876614"><ele>608.75</ele><time>2026-04-09T10:57:49Z</time></trkpt><trkpt lat="46.06970104409411" lon="12.193605901668798"><ele>608.0</ele><time>2026-04-09T10:57:50Z</time></trkpt><trkpt lat="46.06962905973191" lon="12.193757957452014"><ele>608.0</ele><time>2026-04-09T10:57:51Z</time></trkpt><trkpt lat="46.069541083880765" lon="12.193898155248823"><ele>608.0</ele><time>2026-04-09T10:57:52Z</time></trkpt><trkpt lat="46.06944251562649" lon="12.194029106544015"><ele>608.0</ele><time>2026-04-09T10:57:53Z</time></trkpt><trkpt lat="46.06935535961614" lon="12.194147327674532"><ele>608.0</ele><time>2026-04-09T10:57:54Z</time></trkpt><trkpt lat="46.06929730525427" lon="12.194261645631224"><ele>610.1999999999999</ele><time>2026-04-09T10:57:55Z</time></trkpt><trkpt lat="46.069254778112736" lon="12.194387497179038"><ele>612.4</ele><time>2026-04-09T10:57:56Z</time></trkpt><trkpt lat="46.06923436163492" lon="12.194514891003406"><ele>614.5999999999999</ele><time>2026-04-09T10:57:57Z</time></trkpt><trkpt lat="46.06923404733751" lon="12.194643875426452"><ele>616.8</ele><time>2026-04-09T10:57:58Z</time></trkpt><trkpt lat="46.0692556990304" lon="12.194796617755609"><ele>619.0</ele><time>2026-04-09T10:57:59Z</time></trkpt><trkpt lat="46.0692867102256" lon="12.194932938620267"><ele>618.0</ele><time>2026-04-09T10:58:00Z</time></trkpt><trkpt lat="46.06930082905022" lon="12.195045423329846"><ele>617.0</ele><time>2026-04-09T10:58:01Z</time></trkpt><trkpt lat="46.06927645059498" lon="12.195139937925733"><ele>616.0</ele><time>2026-04-09T10:58:02Z</time></trkpt><trkpt lat="46.06922243960082" lon="12.195227475552782"><ele>615.0</ele><time>2026-04-09T10:58:03Z</time></trkpt><trkpt lat="46.06914337047596" lon="12.195273298930209"><ele>614.0</ele><time>2026-04-09T10:58:04Z</time></trkpt><trkpt lat="46.06905189993952" lon="12.19527618679273"><ele>613.0</ele><time>2026-04-09T10:58:05Z</time></trkpt><trkpt lat="46.06894929249128" lon="12.195255284713538"><ele>613.0</ele><time>2026-04-09T10:58:06Z</time></trkpt><trkpt lat="46.06884511167457" lon="12.195263768740213"><ele>613.0</ele><time>2026-04-09T10:58:07Z</time></trkpt><trkpt lat="46.0687395079752" lon="12.195318490105521"><ele>613.0</ele><time>2026-04-09T10:58:08Z</time></trkpt><trkpt lat="46.06862981462841" lon="12.195381294802681"><ele>613.0</ele><time>2026-04-09T10:58:09Z</time></trkpt><trkpt lat="46.06851999516604" lon="12.195448659045706"><ele>613.0</ele><time>2026-04-09T10:58:10Z</time></trkpt><trkpt lat="46.068410400767476" lon="12.19552370667483"><ele>613.0</ele><time>2026-04-09T10:58:11Z</time></trkpt><trkpt lat="46.06831199094125" lon="12.19562782227273"><ele>613.0</ele><time>2026-04-09T10:58:12Z</time></trkpt><trkpt lat="46.068233229332506" lon="12.195747802143575"><ele>613.0</ele><time>2026-04-09T10:58:13Z</time></trkpt><trkpt lat="46.06813297390791" lon="12.195853433028736"><ele>614.3333333333334</ele><time>2026-04-09T10:58:14Z</time></trkpt><trkpt lat="46.06800508984759" lon="12.195931057049295"><ele>615.6666666666666</ele><time>2026-04-09T10:58:15Z</time></trkpt><trkpt lat="46.067853720051154" lon="12.195980426713533"><ele>617.0</ele><time>2026-04-09T10:58:16Z</time></trkpt><trkpt lat="46.067676419591706" lon="12.196029973755788"><ele>617.0</ele><time>2026-04-09T10:58:17Z</time></trkpt><trkpt lat="46.06751829301696" lon="12.196052643263581"><ele>617.0</ele><time>2026-04-09T10:58:18Z</time></trkpt><trkpt lat="46.067384596270635" lon="12.19605700248142"><ele>617.0</ele><time>2026-04-09T10:58:19Z</time></trkpt><trkpt lat="46.067264324279996" lon="12.19607738616403"><ele>617.0</ele><time>2026-04-09T10:58:20Z</time></trkpt><trkpt lat="46.06716079940034" lon="12.196106645657194"><ele>616.5</ele><time>2026-04-09T10:58:21Z</time></trkpt><trkpt lat="46.06707131462377" lon="12.196143320643229"><ele>616.0</ele><time>2026-04-09T10:58:22Z</time></trkpt><trkpt lat="46.06698811928374" lon="12.196193985262722"><ele>615.5</ele><time>2026-04-09T10:58:22.999Z</time></trkpt><trkpt lat="46.066928915382405" lon="12.196265888512363"><ele>615.0</ele><time>2026-04-09T10:58:23.999Z</time></trkpt><trkpt lat="46.0668984564463" lon="12.19636928582923"><ele>614.5</ele><time>2026-04-09T10:58:24.999Z</time></trkpt><trkpt lat="46.06689825070993" lon="12.19650078614675"><ele>614.0</ele><time>2026-04-09T10:58:25.999Z</time></trkpt><trkpt lat="46.06690458642477" lon="12.196664670243187"><ele>614.0</ele><time>2026-04-09T10:58:26.999Z</time></trkpt><trkpt lat="46.06688261821306" lon="12.196845849687922"><ele>614.0</ele><time>2026-04-09T10:58:27.999Z</time></trkpt><trkpt lat="46.06684859291152" lon="12.19700992973009"><ele>614.0</ele><time>2026-04-09T10:58:28.999Z</time></trkpt><trkpt lat="46.06682091829078" lon="12.197137870647236"><ele>614.0</ele><time>2026-04-09T10:58:29.999Z</time></trkpt><trkpt lat="46.06682809060703" lon="12.197269746759213"><ele>614.0</ele><time>2026-04-09T10:58:30.999Z</time></trkpt><trkpt lat="46.06685426623206" lon="12.197424318203485"><ele>615.6</ele><time>2026-04-09T10:58:31.999Z</time></trkpt><trkpt lat="46.066861107520005" lon="12.197582975584872"><ele>617.2</ele><time>2026-04-09T10:58:32.999Z</time></trkpt><trkpt lat="46.066834468349086" lon="12.197716383121529"><ele>618.8000000000001</ele><time>2026-04-09T10:58:33.999Z</time></trkpt><trkpt lat="46.06677487937303" lon="12.197826969708423"><ele>620.4</ele><time>2026-04-09T10:58:34.999Z</time></trkpt><trkpt lat="46.066685922910274" lon="12.197927413876284"><ele>622.0</ele><time>2026-04-09T10:58:35.999Z</time></trkpt><trkpt lat="46.06662060360223" lon="12.198074443952795"><ele>614.6666666666667</ele><time>2026-04-09T10:58:36.999Z</time></trkpt><trkpt lat="46.06658793222613" lon="12.198275759179255"><ele>607.3333333333334</ele><time>2026-04-09T10:58:37.999Z</time></trkpt><trkpt lat="46.06655123365368" lon="12.198522714901708"><ele>600.0</ele><time>2026-04-09T10:58:38.999Z</time></trkpt><trkpt lat="46.06650175023525" lon="12.1987068461174"><ele>600.0</ele><time>2026-04-09T10:58:39.999Z</time></trkpt><trkpt lat="46.066437730024525" lon="12.19887341536514"><ele>600.0</ele><time>2026-04-09T10:58:40.999Z</time></trkpt><trkpt lat="46.06634214534171" lon="12.199051309483542"><ele>600.0</ele><time>2026-04-09T10:58:41.999Z</time></trkpt><trkpt lat="46.066238802285945" lon="12.19920373151986"><ele>600.0</ele><time>2026-04-09T10:58:42.999Z</time></trkpt><trkpt lat="46.06614576919332" lon="12.199391920769084"><ele>605.5</ele><time>2026-04-09T10:58:43.999Z</time></trkpt><trkpt lat="46.066066776670894" lon="12.19957665626853"><ele>611.0</ele><time>2026-04-09T10:58:44.999Z</time></trkpt><trkpt lat="46.06600789292744" lon="12.199756078933934"><ele>616.5</ele><time>2026-04-09T10:58:45.999Z</time></trkpt><trkpt lat="46.065952541386196" lon="12.199943350048898"><ele>622.0</ele><time>2026-04-09T10:58:46.999Z</time></trkpt><trkpt lat="46.065908600147765" lon="12.20011626521404"><ele>624.25</ele><time>2026-04-09T10:58:47.999Z</time></trkpt><trkpt lat="46.06584111373176" lon="12.200268006935339"><ele>626.5</ele><time>2026-04-09T10:58:48.999Z</time></trkpt><trkpt lat="46.065745600898374" lon="12.200418309466214"><ele>628.75</ele><time>2026-04-09T10:58:49.999Z</time></trkpt><trkpt lat="46.065619468320634" lon="12.200558610305313"><ele>631.0</ele><time>2026-04-09T10:58:50.999Z</time></trkpt><trkpt lat="46.06547377330985" lon="12.200705631704086"><ele>631.0</ele><time>2026-04-09T10:58:51.999Z</time></trkpt><trkpt lat="46.06535233828787" lon="12.200849591695235"><ele>631.0</ele><time>2026-04-09T10:58:52.999Z</time></trkpt><trkpt lat="46.06524438247598" lon="12.20103099096497"><ele>631.0</ele><time>2026-04-09T10:58:53.999Z</time></trkpt><trkpt lat="46.065143343681726" lon="12.20121619124627"><ele>631.0</ele><time>2026-04-09T10:58:54.999Z</time></trkpt><trkpt lat="46.06507436722625" lon="12.201388085450187"><ele>631.0</ele><time>2026-04-09T10:58:55.999Z</time></trkpt><trkpt lat="46.06502207533201" lon="12.201585862336012"><ele>631.0</ele><time>2026-04-09T10:58:56.999Z</time></trkpt><trkpt lat="46.06498893606651" lon="12.201830646086643"><ele>629.6666666666667</ele><time>2026-04-09T10:58:57.999Z</time></trkpt><trkpt lat="46.0649642876336" lon="12.20212534274221"><ele>628.3333333333334</ele><time>2026-04-09T10:58:58.999Z</time></trkpt><trkpt lat="46.06493616247031" lon="12.20241195538003"><ele>627.0</ele><time>2026-04-09T10:58:59.999Z</time></trkpt><trkpt lat="46.06490756272989" lon="12.20269907657624"><ele>627.0</ele><time>2026-04-09T10:59:00.999Z</time></trkpt><trkpt lat="46.06487825226165" lon="12.20294406831429"><ele>627.0</ele><time>2026-04-09T10:59:01.999Z</time></trkpt><trkpt lat="46.064840654403504" lon="12.203151404007786"><ele>627.0</ele><time>2026-04-09T10:59:02.999Z</time></trkpt><trkpt lat="46.064784913453074" lon="12.203329140776788"><ele>629.5</ele><time>2026-04-09T10:59:03.999Z</time></trkpt><trkpt lat="46.06472272410452" lon="12.203513966761554"><ele>632.0</ele><time>2026-04-09T10:59:04.999Z</time></trkpt><trkpt lat="46.06468272407974" lon="12.203692965044846"><ele>634.5</ele><time>2026-04-09T10:59:05.999Z</time></trkpt><trkpt lat="46.06463589384856" lon="12.203844536332289"><ele>637.0</ele><time>2026-04-09T10:59:06.999Z</time></trkpt><trkpt lat="46.064561201479464" lon="12.203977037325576"><ele>640.5</ele><time>2026-04-09T10:59:07.999Z</time></trkpt><trkpt lat="46.06446412993637" lon="12.204093664008251"><ele>644.0</ele><time>2026-04-09T10:59:08.999Z</time></trkpt><trkpt lat="46.06434795170465" lon="12.204202119930065"><ele>647.5</ele><time>2026-04-09T10:59:09.999Z</time></trkpt><trkpt lat="46.06423372209566" lon="12.204322203764915"><ele>651.0</ele><time>2026-04-09T10:59:11Z</time></trkpt><trkpt lat="46.06413755245299" lon="12.20443320113526"><ele>648.8</ele><time>2026-04-09T10:59:12Z</time></trkpt><trkpt lat="46.0640346149631" lon="12.204506308797308"><ele>646.5999999999999</ele><time>2026-04-09T10:59:13Z</time></trkpt><trkpt lat="46.063930652268446" lon="12.204528579699792"><ele>644.4</ele><time>2026-04-09T10:59:14Z</time></trkpt><trkpt lat="46.06382072155937" lon="12.204517429419328"><ele>642.2</ele><time>2026-04-09T10:59:15Z</time></trkpt><trkpt lat="46.06372745698845" lon="12.204515810560801"><ele>640.0</ele><time>2026-04-09T10:59:16Z</time></trkpt><trkpt lat="46.063630967095825" lon="12.204557020332707"><ele>640.0</ele><time>2026-04-09T10:59:17Z</time></trkpt><trkpt lat="46.06351588884519" lon="12.204650797736344"><ele>640.0</ele><time>2026-04-09T10:59:18Z</time></trkpt><trkpt lat="46.06340140013428" lon="12.204741595157653"><ele>640.0</ele><time>2026-04-09T10:59:19Z</time></trkpt><trkpt lat="46.06327656430043" lon="12.204840507194286"><ele>640.0</ele><time>2026-04-09T10:59:20Z</time></trkpt><trkpt lat="46.06315645689966" lon="12.20494515981959"><ele>641.2</ele><time>2026-04-09T10:59:21Z</time></trkpt><trkpt lat="46.06306890740657" lon="12.205036380891352"><ele>642.4</ele><time>2026-04-09T10:59:22Z</time></trkpt><trkpt lat="46.06300375634397" lon="12.2051394049558"><ele>643.5999999999999</ele><time>2026-04-09T10:59:23Z</time></trkpt><trkpt lat="46.06295534590151" lon="12.205264259881858"><ele>644.8</ele><time>2026-04-09T10:59:24Z</time></trkpt><trkpt lat="46.06291939411158" lon="12.205422240465417"><ele>646.0</ele><time>2026-04-09T10:59:25Z</time></trkpt><trkpt lat="46.062888170639525" lon="12.205626977871038"><ele>647.75</ele><time>2026-04-09T10:59:26Z</time></trkpt><trkpt lat="46.062858356966125" lon="12.205809641162164"><ele>649.5</ele><time>2026-04-09T10:59:27Z</time></trkpt><trkpt lat="46.062828230152164" lon="12.205993895179818"><ele>651.25</ele><time>2026-04-09T10:59:28Z</time></trkpt><trkpt lat="46.062771918764085" lon="12.206145873699231"><ele>653.0</ele><time>2026-04-09T10:59:29Z</time></trkpt><trkpt lat="46.06270646943551" lon="12.206264354094975"><ele>653.0</ele><time>2026-04-09T10:59:30Z</time></trkpt><trkpt lat="46.06260985016347" lon="12.20638171339909"><ele>653.0</ele><time>2026-04-09T10:59:31Z</time></trkpt><trkpt lat="46.06247768920069" lon="12.2065021245978"><ele>653.0</ele><time>2026-04-09T10:59:32Z</time></trkpt><trkpt lat="46.06236160142622" lon="12.206624774055884"><ele>653.0</ele><time>2026-04-09T10:59:33Z</time></trkpt><trkpt lat="46.06226421102215" lon="12.20676325300031"><ele>649.3333333333333</ele><time>2026-04-09T10:59:34Z</time></trkpt><trkpt lat="46.062146793254534" lon="12.206946706843707"><ele>645.6666666666666</ele><time>2026-04-09T10:59:35Z</time></trkpt><trkpt lat="46.062029293666924" lon="12.20711159286389"><ele>642.0</ele><time>2026-04-09T10:59:36Z</time></trkpt><trkpt lat="46.061888936346136" lon="12.207292084730561"><ele>644.6666666666666</ele><time>2026-04-09T10:59:37Z</time></trkpt><trkpt lat="46.06178356229352" lon="12.207462895773679"><ele>647.3333333333333</ele><time>2026-04-09T10:59:38Z</time></trkpt><trkpt lat="46.061699491176" lon="12.20766405548341"><ele>650.0</ele><time>2026-04-09T10:59:39Z</time></trkpt><trkpt lat="46.06162711490296" lon="12.20790745224979"><ele>646.3333333333333</ele><time>2026-04-09T10:59:40Z</time></trkpt><trkpt lat="46.061572922955534" lon="12.20818341026255"><ele>642.6666666666666</ele><time>2026-04-09T10:59:41Z</time></trkpt><trkpt lat="46.06152204500345" lon="12.208511007899173"><ele>639.0</ele><time>2026-04-09T10:59:42Z</time></trkpt><trkpt lat="46.061470560411706" lon="12.208793336496383"><ele>641.75</ele><time>2026-04-09T10:59:43Z</time></trkpt><trkpt lat="46.06141657926273" lon="12.209008402570358"><ele>644.5</ele><time>2026-04-09T10:59:44Z</time></trkpt><trkpt lat="46.06137778919887" lon="12.209166203878345"><ele>647.25</ele><time>2026-04-09T10:59:45Z</time></trkpt><trkpt lat="46.06133162396411" lon="12.20929707402095"><ele>650.0</ele><time>2026-04-09T10:59:46Z</time></trkpt><trkpt lat="46.06126550640153" lon="12.209423365335732"><ele>650.0</ele><time>2026-04-09T10:59:47Z</time></trkpt><trkpt lat="46.06117277896236" lon="12.209534382507828"><ele>650.0</ele><time>2026-04-09T10:59:48Z</time></trkpt><trkpt lat="46.06108042753535" lon="12.209656824575967"><ele>650.0</ele><time>2026-04-09T10:59:49Z</time></trkpt><trkpt lat="46.061005739127154" lon="12.209815397639385"><ele>650.0</ele><time>2026-04-09T10:59:50Z</time></trkpt><trkpt lat="46.06095831951804" lon="12.210008192616506"><ele>653.3333333333333</ele><time>2026-04-09T10:59:51Z</time></trkpt><trkpt lat="46.06092064955968" lon="12.210201973223606"><ele>656.6666666666666</ele><time>2026-04-09T10:59:52Z</time></trkpt><trkpt lat="46.060895860266555" lon="12.210402289762953"><ele>660.0</ele><time>2026-04-09T10:59:53Z</time></trkpt><trkpt lat="46.06086894248775" lon="12.210659450467766"><ele>662.0</ele><time>2026-04-09T10:59:54Z</time></trkpt><trkpt lat="46.060847625507314" lon="12.210908645615936"><ele>664.0</ele><time>2026-04-09T10:59:55Z</time></trkpt><trkpt lat="46.06081146867518" lon="12.21118501887303"><ele>666.0</ele><time>2026-04-09T10:59:56Z</time></trkpt><trkpt lat="46.060761387754404" lon="12.211411778912705"><ele>663.75</ele><time>2026-04-09T10:59:57Z</time></trkpt><trkpt lat="46.06069971402373" lon="12.211598964911348"><ele>661.5</ele><time>2026-04-09T10:59:58Z</time></trkpt><trkpt lat="46.06064615459918" lon="12.21172634477899"><ele>659.25</ele><time>2026-04-09T10:59:59Z</time></trkpt><trkpt lat="46.06061087936108" lon="12.21189194726489"><ele>657.0</ele><time>2026-04-09T11:00:00Z</time></trkpt><trkpt lat="46.06059050767549" lon="12.212080293697024"><ele>657.0</ele><time>2026-04-09T11:00:01Z</time></trkpt><trkpt lat="46.060578342414004" lon="12.212225399726018"><ele>657.0</ele><time>2026-04-09T11:00:02Z</time></trkpt><trkpt lat="46.06055710429481" lon="12.212355927149437"><ele>657.0</ele><time>2026-04-09T11:00:03Z</time></trkpt><trkpt lat="46.06053580722565" lon="12.212470872198415"><ele>657.0</ele><time>2026-04-09T11:00:04Z</time></trkpt><trkpt lat="46.06049802693336" lon="12.212575071018605"><ele>657.0</ele><time>2026-04-09T11:00:05Z</time></trkpt><trkpt lat="46.06043341013774" lon="12.212650281008237"><ele>657.0</ele><time>2026-04-09T11:00:06Z</time></trkpt><trkpt lat="46.06035173655859" lon="12.21270560576172"><ele>660.0</ele><time>2026-04-09T11:00:07Z</time></trkpt><trkpt lat="46.06025163816617" lon="12.212720007988198"><ele>663.0</ele><time>2026-04-09T11:00:08Z</time></trkpt><trkpt lat="46.06013359152954" lon="12.212722187455414"><ele>666.0</ele><time>2026-04-09T11:00:09Z</time></trkpt><trkpt lat="46.05999816347536" lon="12.21275590070959"><ele>669.0</ele><time>2026-04-09T11:00:10Z</time></trkpt><trkpt lat="46.059868554489256" lon="12.212836198554031"><ele>669.6666666666666</ele><time>2026-04-09T11:00:11Z</time></trkpt><trkpt lat="46.05975250091088" lon="12.21292430711972"><ele>670.3333333333333</ele><time>2026-04-09T11:00:12Z</time></trkpt><trkpt lat="46.05960576778917" lon="12.213034660269903"><ele>671.0</ele><time>2026-04-09T11:00:13Z</time></trkpt><trkpt lat="46.05945581504828" lon="12.213143977191997"><ele>674.25</ele><time>2026-04-09T11:00:14Z</time></trkpt><trkpt lat="46.05931273683853" lon="12.213225273090117"><ele>677.5</ele><time>2026-04-09T11:00:15Z</time></trkpt><trkpt lat="46.0591690247789" lon="12.213274477506095"><ele>680.75</ele><time>2026-04-09T11:00:16Z</time></trkpt><trkpt lat="46.05904191736292" lon="12.213311956926438"><ele>684.0</ele><time>2026-04-09T11:00:17Z</time></trkpt><trkpt lat="46.058933855594546" lon="12.213366175762536"><ele>684.0</ele><time>2026-04-09T11:00:18Z</time></trkpt><trkpt lat="46.05883625301126" lon="12.213467250931995"><ele>684.0</ele><time>2026-04-09T11:00:19Z</time></trkpt><trkpt lat="46.05873174845525" lon="12.213606187384334"><ele>684.0</ele><time>2026-04-09T11:00:20Z</time></trkpt><trkpt lat="46.05861384150055" lon="12.21375806688608"><ele>684.0</ele><time>2026-04-09T11:00:21Z</time></trkpt><trkpt lat="46.05853318908537" lon="12.213866915746339"><ele>687.5</ele><time>2026-04-09T11:00:22Z</time></trkpt><trkpt lat="46.05846842449654" lon="12.213998706627743"><ele>691.0</ele><time>2026-04-09T11:00:23Z</time></trkpt><trkpt lat="46.05842570120459" lon="12.214163499748635"><ele>694.5</ele><time>2026-04-09T11:00:24Z</time></trkpt><trkpt lat="46.05838921729732" lon="12.21435711575428"><ele>698.0</ele><time>2026-04-09T11:00:25Z</time></trkpt><trkpt lat="46.05836143879366" lon="12.214508041006944"><ele>698.0</ele><time>2026-04-09T11:00:26Z</time></trkpt><trkpt lat="46.058343934534136" lon="12.214617017400881"><ele>698.0</ele><time>2026-04-09T11:00:27Z</time></trkpt><trkpt lat="46.058309344859076" lon="12.214695132636294"><ele>698.0</ele><time>2026-04-09T11:00:28Z</time></trkpt><trkpt lat="46.05824778815609" lon="12.214741826072038"><ele>698.0</ele><time>2026-04-09T11:00:29Z</time></trkpt><trkpt lat="46.05816785407505" lon="12.214746658236692"><ele>698.0</ele><time>2026-04-09T11:00:30Z</time></trkpt><trkpt lat="46.05808924023199" lon="12.214677603450623"><ele>698.0</ele><time>2026-04-09T11:00:31Z</time></trkpt><trkpt lat="46.05799442977077" lon="12.214610645468422"><ele>697.1666666666666</ele><time>2026-04-09T11:00:32Z</time></trkpt><trkpt lat="46.057906666388874" lon="12.21453990527751"><ele>696.3333333333333</ele><time>2026-04-09T11:00:33Z</time></trkpt><trkpt lat="46.0578389044558" lon="12.214499167860998"><ele>695.5</ele><time>2026-04-09T11:00:34Z</time></trkpt><trkpt lat="46.05776818642943" lon="12.214485839473527"><ele>694.6666666666666</ele><time>2026-04-09T11:00:35Z</time></trkpt><trkpt lat="46.05767834509047" lon="12.214537176611575"><ele>693.8333333333334</ele><time>2026-04-09T11:00:36Z</time></trkpt><trkpt lat="46.057582896413685" lon="12.214599627666837"><ele>693.0</ele><time>2026-04-09T11:00:37Z</time></trkpt><trkpt lat="46.05750091227008" lon="12.214657696060529"><ele>693.0</ele><time>2026-04-09T11:00:38Z</time></trkpt><trkpt lat="46.05740975586243" lon="12.21471104010147"><ele>693.0</ele><time>2026-04-09T11:00:40Z</time></trkpt><trkpt lat="46.05740756485227" lon="12.214845845091277"><ele>693.0</ele><time>2026-04-09T11:00:43Z</time></trkpt><trkpt lat="46.05753387053035" lon="12.214811202083228"><ele>693.0</ele><time>2026-04-09T11:00:45Z</time></trkpt><trkpt lat="46.05761505370346" lon="12.214754143727097"><ele>693.0</ele><time>2026-04-09T11:00:45.999Z</time></trkpt><trkpt lat="46.05767936739443" lon="12.21471853481388"><ele>693.0</ele><time>2026-04-09T11:00:46.999Z</time></trkpt><trkpt lat="46.05774020828918" lon="12.214688512552748"><ele>693.0</ele><time>2026-04-09T11:00:47.999Z</time></trkpt><trkpt lat="46.05779530126002" lon="12.214754065588737"><ele>693.0</ele><time>2026-04-09T11:00:48.999Z</time></trkpt><trkpt lat="46.05786615702899" lon="12.214854430833455"><ele>693.0</ele><time>2026-04-09T11:00:49.999Z</time></trkpt><trkpt lat="46.05793754340823" lon="12.214968064896793"><ele>693.0</ele><time>2026-04-09T11:00:50.999Z</time></trkpt><trkpt lat="46.05799900996276" lon="12.21506740198651"><ele>693.0</ele><time>2026-04-09T11:00:51.999Z</time></trkpt><trkpt lat="46.05807499559755" lon="12.215201351382323"><ele>698.8</ele><time>2026-04-09T11:00:52.999Z</time></trkpt><trkpt lat="46.0581494407718" lon="12.215324488598311"><ele>704.5999999999999</ele><time>2026-04-09T11:00:53.999Z</time></trkpt><trkpt lat="46.05820969386837" lon="12.215389493979602"><ele>710.4000000000001</ele><time>2026-04-09T11:00:54.999Z</time></trkpt><trkpt lat="46.05828423304454" lon="12.21548202404559"><ele>716.2</ele><time>2026-04-09T11:00:56.999Z</time></trkpt><trkpt lat="46.05819300541225" lon="12.215582638955743"><ele>722.0</ele><time>2026-04-09T11:00:58.999Z</time></trkpt><trkpt lat="46.05808827104285" lon="12.21545479817501"><ele>722.0</ele><time>2026-04-09T11:01:00.999Z</time></trkpt><trkpt lat="46.058029335068426" lon="12.215341487983585"><ele>722.0</ele><time>2026-04-09T11:01:01.999Z</time></trkpt><trkpt lat="46.057968977105816" lon="12.21523512933794"><ele>722.0</ele><time>2026-04-09T11:01:02.999Z</time></trkpt><trkpt lat="46.05790633582736" lon="12.21516851003248"><ele>722.0</ele><time>2026-04-09T11:01:03.999Z</time></trkpt><trkpt lat="46.05783618522755" lon="12.215124763623246"><ele>722.0</ele><time>2026-04-09T11:01:04.999Z</time></trkpt><trkpt lat="46.05774493270305" lon="12.215112949021297"><ele>722.0</ele><time>2026-04-09T11:01:05.999Z</time></trkpt><trkpt lat="46.057634360299026" lon="12.215129077640453"><ele>722.0</ele><time>2026-04-09T11:01:06.999Z</time></trkpt><trkpt lat="46.05750907679449" lon="12.21514717524122"><ele>722.0</ele><time>2026-04-09T11:01:07.999Z</time></trkpt><trkpt lat="46.05738923411236" lon="12.215152850817699"><ele>722.0</ele><time>2026-04-09T11:01:08.999Z</time></trkpt><trkpt lat="46.05730193667015" lon="12.215148681587019"><ele>722.0</ele><time>2026-04-09T11:01:09.999Z</time></trkpt><trkpt lat="46.05722138956893" lon="12.215178876475303"><ele>722.0</ele><time>2026-04-09T11:01:11.999Z</time></trkpt><trkpt lat="46.05721641292919" lon="12.21533077091875"><ele>722.0</ele><time>2026-04-09T11:01:13.999Z</time></trkpt><trkpt lat="46.057272724016784" lon="12.215380072312952"><ele>722.0</ele><time>2026-04-09T11:01:14.999Z</time></trkpt><trkpt lat="46.057352921495166" lon="12.215375515759538"><ele>722.0</ele><time>2026-04-09T11:01:15.999Z</time></trkpt><trkpt lat="46.057429559866904" lon="12.215354377359304"><ele>722.0</ele><time>2026-04-09T11:01:17Z</time></trkpt><trkpt lat="46.05749615867338" lon="12.21536307271698"><ele>722.0</ele><time>2026-04-09T11:01:18Z</time></trkpt><trkpt lat="46.05754464077164" lon="12.215505375489318"><ele>722.0</ele><time>2026-04-09T11:01:20Z</time></trkpt><trkpt lat="46.05753418697506" lon="12.215614511285981"><ele>725.2</ele><time>2026-04-09T11:01:21Z</time></trkpt><trkpt lat="46.057525660020886" lon="12.21575922307545"><ele>728.4000000000001</ele><time>2026-04-09T11:01:22Z</time></trkpt><trkpt lat="46.057512827849564" lon="12.215910920500026"><ele>731.5999999999999</ele><time>2026-04-09T11:01:23Z</time></trkpt><trkpt lat="46.05749891568862" lon="12.216042597760248"><ele>734.8</ele><time>2026-04-09T11:01:24Z</time></trkpt><trkpt lat="46.05747022354854" lon="12.216182963113972"><ele>738.0</ele><time>2026-04-09T11:01:25Z</time></trkpt><trkpt lat="46.05743980308394" lon="12.216338190536684"><ele>741.5</ele><time>2026-04-09T11:01:26Z</time></trkpt><trkpt lat="46.057391434991175" lon="12.21648655597016"><ele>745.0</ele><time>2026-04-09T11:01:27Z</time></trkpt><trkpt lat="46.057327737301826" lon="12.216625114425337"><ele>748.5</ele><time>2026-04-09T11:01:28Z</time></trkpt><trkpt lat="46.05725818469082" lon="12.21676180237681"><ele>752.0</ele><time>2026-04-09T11:01:29Z</time></trkpt><trkpt lat="46.05718444786243" lon="12.216925678028208"><ele>752.0</ele><time>2026-04-09T11:01:30Z</time></trkpt><trkpt lat="46.05710126571291" lon="12.217061510791732"><ele>752.0</ele><time>2026-04-09T11:01:31Z</time></trkpt><trkpt lat="46.05700951200895" lon="12.217170650179238"><ele>752.0</ele><time>2026-04-09T11:01:32Z</time></trkpt><trkpt lat="46.05690438109162" lon="12.217303890964743"><ele>752.0</ele><time>2026-04-09T11:01:33Z</time></trkpt><trkpt lat="46.05681264486008" lon="12.21745436472524"><ele>753.0</ele><time>2026-04-09T11:01:34Z</time></trkpt><trkpt lat="46.05675361920147" lon="12.217603979464682"><ele>754.0</ele><time>2026-04-09T11:01:35Z</time></trkpt><trkpt lat="46.05671054835731" lon="12.217783862291343"><ele>755.0</ele><time>2026-04-09T11:01:36Z</time></trkpt><trkpt lat="46.056663958524126" lon="12.21800317525625"><ele>756.0</ele><time>2026-04-09T11:01:37Z</time></trkpt><trkpt lat="46.056613795204456" lon="12.218223381201296"><ele>753.5</ele><time>2026-04-09T11:01:38Z</time></trkpt><trkpt lat="46.05657909110544" lon="12.218414225556577"><ele>751.0</ele><time>2026-04-09T11:01:39Z</time></trkpt><trkpt lat="46.05657067201951" lon="12.218580453861474"><ele>748.5</ele><time>2026-04-09T11:01:40Z</time></trkpt><trkpt lat="46.056581100062125" lon="12.218748877727508"><ele>746.0</ele><time>2026-04-09T11:01:41Z</time></trkpt><trkpt lat="46.0566003211326" lon="12.218942931058457"><ele>748.5</ele><time>2026-04-09T11:01:42Z</time></trkpt><trkpt lat="46.0566007603832" lon="12.219142396075886"><ele>751.0</ele><time>2026-04-09T11:01:43Z</time></trkpt><trkpt lat="46.05657883247956" lon="12.219317417530917"><ele>753.5</ele><time>2026-04-09T11:01:44Z</time></trkpt><trkpt lat="46.05653571707999" lon="12.21947682092571"><ele>756.0</ele><time>2026-04-09T11:01:45Z</time></trkpt><trkpt lat="46.056472121147955" lon="12.219638705099946"><ele>756.0</ele><time>2026-04-09T11:01:46Z</time></trkpt><trkpt lat="46.056405827093194" lon="12.219811729582808"><ele>756.0</ele><time>2026-04-09T11:01:47Z</time></trkpt><trkpt lat="46.056355432440505" lon="12.219947098046486"><ele>756.0</ele><time>2026-04-09T11:01:48Z</time></trkpt><trkpt lat="46.056295494924484" lon="12.220058379013594"><ele>756.0</ele><time>2026-04-09T11:01:49Z</time></trkpt><trkpt lat="46.056220198969385" lon="12.220141404259332"><ele>756.0</ele><time>2026-04-09T11:01:50Z</time></trkpt><trkpt lat="46.05612706871507" lon="12.220202310585229"><ele>756.75</ele><time>2026-04-09T11:01:51Z</time></trkpt><trkpt lat="46.05601014201722" lon="12.220245284653057"><ele>757.5</ele><time>2026-04-09T11:01:52Z</time></trkpt><trkpt lat="46.05587075602247" lon="12.220298479234524"><ele>758.25</ele><time>2026-04-09T11:01:53Z</time></trkpt><trkpt lat="46.055736345153385" lon="12.220358701475165"><ele>759.0</ele><time>2026-04-09T11:01:54Z</time></trkpt><trkpt lat="46.05562171473028" lon="12.220421632649963"><ele>759.0</ele><time>2026-04-09T11:01:55Z</time></trkpt><trkpt lat="46.05550690456257" lon="12.22049095248933"><ele>759.0</ele><time>2026-04-09T11:01:56Z</time></trkpt><trkpt lat="46.05539138437862" lon="12.220576284381941"><ele>759.0</ele><time>2026-04-09T11:01:57Z</time></trkpt><trkpt lat="46.055275897178426" lon="12.220675088828767"><ele>759.0</ele><time>2026-04-09T11:01:58Z</time></trkpt><trkpt lat="46.05515388840432" lon="12.22079962598024"><ele>761.0</ele><time>2026-04-09T11:01:59Z</time></trkpt><trkpt lat="46.05501879020165" lon="12.220944811506874"><ele>763.0</ele><time>2026-04-09T11:02:00Z</time></trkpt><trkpt lat="46.054885688778064" lon="12.221082613025105"><ele>765.0</ele><time>2026-04-09T11:02:01Z</time></trkpt><trkpt lat="46.05475419832615" lon="12.221225045968918"><ele>767.0</ele><time>2026-04-09T11:02:02Z</time></trkpt><trkpt lat="46.05461060742726" lon="12.2213938507736"><ele>769.0</ele><time>2026-04-09T11:02:03Z</time></trkpt><trkpt lat="46.05446281939033" lon="12.221575132612392"><ele>771.0</ele><time>2026-04-09T11:02:04Z</time></trkpt><trkpt lat="46.0543058272222" lon="12.221766471038771"><ele>771.0</ele><time>2026-04-09T11:02:05Z</time></trkpt><trkpt lat="46.054149637043814" lon="12.221945243854625"><ele>771.0</ele><time>2026-04-09T11:02:06Z</time></trkpt><trkpt lat="46.05401275674068" lon="12.222105298475071"><ele>771.0</ele><time>2026-04-09T11:02:07Z</time></trkpt><trkpt lat="46.05388612889484" lon="12.222255957192765"><ele>772.5</ele><time>2026-04-09T11:02:08Z</time></trkpt><trkpt lat="46.05376256390821" lon="12.222401988237019"><ele>774.0</ele><time>2026-04-09T11:02:09Z</time></trkpt><trkpt lat="46.053658730593924" lon="12.222544668930286"><ele>775.5</ele><time>2026-04-09T11:02:10Z</time></trkpt><trkpt lat="46.053565519127496" lon="12.222680527922297"><ele>777.0</ele><time>2026-04-09T11:02:11Z</time></trkpt><trkpt lat="46.05348438269273" lon="12.222844805707428"><ele>777.0</ele><time>2026-04-09T11:02:12Z</time></trkpt><trkpt lat="46.053403752468775" lon="12.22305049180231"><ele>777.0</ele><time>2026-04-09T11:02:13Z</time></trkpt><trkpt lat="46.053324769448004" lon="12.223289117226624"><ele>777.0</ele><time>2026-04-09T11:02:14Z</time></trkpt><trkpt lat="46.05322298716572" lon="12.22354362169571"><ele>778.3333333333333</ele><time>2026-04-09T11:02:15Z</time></trkpt><trkpt lat="46.05310784083413" lon="12.223764152450578"><ele>779.6666666666666</ele><time>2026-04-09T11:02:16Z</time></trkpt><trkpt lat="46.052987895651896" lon="12.223935699184667"><ele>781.0</ele><time>2026-04-09T11:02:17Z</time></trkpt><trkpt lat="46.05287854960635" lon="12.224077851428268"><ele>781.0</ele><time>2026-04-09T11:02:18Z</time></trkpt><trkpt lat="46.05279517370895" lon="12.224224197427578"><ele>781.0</ele><time>2026-04-09T11:02:19Z</time></trkpt><trkpt lat="46.05273670630652" lon="12.224395606923169"><ele>781.0</ele><time>2026-04-09T11:02:20Z</time></trkpt><trkpt lat="46.05269914269538" lon="12.22459763515084"><ele>781.0</ele><time>2026-04-09T11:02:21Z</time></trkpt><trkpt lat="46.05268006561227" lon="12.224837594730051"><ele>782.0</ele><time>2026-04-09T11:02:22Z</time></trkpt><trkpt lat="46.05268444794292" lon="12.22510047008916"><ele>783.0</ele><time>2026-04-09T11:02:23Z</time></trkpt><trkpt lat="46.052705135649646" lon="12.225362157301829"><ele>784.0</ele><time>2026-04-09T11:02:24Z</time></trkpt><trkpt lat="46.0527169485403" lon="12.225603178230982"><ele>784.5</ele><time>2026-04-09T11:02:25Z</time></trkpt><trkpt lat="46.05272426619798" lon="12.22581069919765"><ele>785.0</ele><time>2026-04-09T11:02:26Z</time></trkpt><trkpt lat="46.052739577380535" lon="12.226002945212175"><ele>785.5</ele><time>2026-04-09T11:02:27Z</time></trkpt><trkpt lat="46.05277147657835" lon="12.226190139350953"><ele>786.0</ele><time>2026-04-09T11:02:28Z</time></trkpt><trkpt lat="46.05282941927348" lon="12.22637191354708"><ele>788.3333333333333</ele><time>2026-04-09T11:02:29Z</time></trkpt><trkpt lat="46.05291517480675" lon="12.226560698250985"><ele>790.6666666666666</ele><time>2026-04-09T11:02:30Z</time></trkpt><trkpt lat="46.05302706554906" lon="12.226754468296326"><ele>793.0</ele><time>2026-04-09T11:02:31Z</time></trkpt><trkpt lat="46.05313686016411" lon="12.226921880617866"><ele>793.0</ele><time>2026-04-09T11:02:32Z</time></trkpt><trkpt lat="46.05323702506808" lon="12.227058807161141"><ele>793.0</ele><time>2026-04-09T11:02:33Z</time></trkpt><trkpt lat="46.05332889584182" lon="12.227180355555726"><ele>793.0</ele><time>2026-04-09T11:02:34Z</time></trkpt><trkpt lat="46.05341142278299" lon="12.227293953037487"><ele>793.0</ele><time>2026-04-09T11:02:35Z</time></trkpt><trkpt lat="46.05349244104325" lon="12.227409205451153"><ele>793.0</ele><time>2026-04-09T11:02:36Z</time></trkpt><trkpt lat="46.053590308266806" lon="12.227555422501766"><ele>793.0</ele><time>2026-04-09T11:02:37Z</time></trkpt><trkpt lat="46.05370247438337" lon="12.227712077877497"><ele>793.0</ele><time>2026-04-09T11:02:38Z</time></trkpt><trkpt lat="46.05381170411417" lon="12.227856582986291"><ele>793.0</ele><time>2026-04-09T11:02:39Z</time></trkpt><trkpt lat="46.05390112192957" lon="12.22797251323432"><ele>793.0</ele><time>2026-04-09T11:02:40Z</time></trkpt><trkpt lat="46.05397685171849" lon="12.228055155468148"><ele>793.0</ele><time>2026-04-09T11:02:41Z</time></trkpt><trkpt lat="46.05404567982751" lon="12.228112684537537"><ele>793.0</ele><time>2026-04-09T11:02:42Z</time></trkpt><trkpt lat="46.054129425602376" lon="12.22821379576458"><ele>793.0</ele><time>2026-04-09T11:02:44Z</time></trkpt><trkpt lat="46.05407130512909" lon="12.228435168697947"><ele>793.0</ele><time>2026-04-09T11:02:48Z</time></trkpt><trkpt lat="46.05398919458012" lon="12.228463480677599"><ele>793.9999999999999</ele><time>2026-04-09T11:02:49Z</time></trkpt><trkpt lat="46.053896686793664" lon="12.228505143869759"><ele>795.0</ele><time>2026-04-09T11:02:50Z</time></trkpt><trkpt lat="46.05382452661376" lon="12.228530713039707"><ele>796.0</ele><time>2026-04-09T11:02:51Z</time></trkpt><trkpt lat="46.053734128047104" lon="12.22855615133974"><ele>797.0</ele><time>2026-04-09T11:02:52Z</time></trkpt><trkpt lat="46.053649677678195" lon="12.22855805659418"><ele>797.9999999999999</ele><time>2026-04-09T11:02:53Z</time></trkpt><trkpt lat="46.05358727785825" lon="12.228514607109013"><ele>799.0</ele><time>2026-04-09T11:02:54Z</time></trkpt><trkpt lat="46.05351526914943" lon="12.228433618578693"><ele>799.0</ele><time>2026-04-09T11:02:55Z</time></trkpt><trkpt lat="46.05341480001504" lon="12.228366331255689"><ele>799.0</ele><time>2026-04-09T11:02:56Z</time></trkpt><trkpt lat="46.05327207238173" lon="12.228290662480056"><ele>799.0</ele><time>2026-04-09T11:02:57Z</time></trkpt><trkpt lat="46.05310028200302" lon="12.22823037342149"><ele>799.0</ele><time>2026-04-09T11:02:58Z</time></trkpt><trkpt lat="46.05292972339501" lon="12.228191676724425"><ele>801.6666666666666</ele><time>2026-04-09T11:02:59Z</time></trkpt><trkpt lat="46.05272489897156" lon="12.228127052089864"><ele>804.3333333333333</ele><time>2026-04-09T11:03:00Z</time></trkpt><trkpt lat="46.05252380110715" lon="12.22807349695094"><ele>807.0</ele><time>2026-04-09T11:03:01Z</time></trkpt><trkpt lat="46.05233930138118" lon="12.228019114012334"><ele>809.6666666666667</ele><time>2026-04-09T11:03:02Z</time></trkpt><trkpt lat="46.052138924423616" lon="12.227955034384845"><ele>812.3333333333334</ele><time>2026-04-09T11:03:03Z</time></trkpt><trkpt lat="46.05194208809063" lon="12.227897521434924"><ele>815.0</ele><time>2026-04-09T11:03:04Z</time></trkpt><trkpt lat="46.051784082245355" lon="12.227853518049141"><ele>815.0</ele><time>2026-04-09T11:03:05Z</time></trkpt><trkpt lat="46.05164785200305" lon="12.227802329570567"><ele>815.0</ele><time>2026-04-09T11:03:06Z</time></trkpt><trkpt lat="46.05151346242507" lon="12.227722057164575"><ele>815.0</ele><time>2026-04-09T11:03:07Z</time></trkpt><trkpt lat="46.05138424180988" lon="12.227622098055493"><ele>815.0</ele><time>2026-04-09T11:03:07.999Z</time></trkpt><trkpt lat="46.05127427590765" lon="12.227497534467933"><ele>816.0</ele><time>2026-04-09T11:03:08.999Z</time></trkpt><trkpt lat="46.05120014661827" lon="12.227339151603251"><ele>817.0</ele><time>2026-04-09T11:03:09.999Z</time></trkpt><trkpt lat="46.051130456469735" lon="12.22720307642176"><ele>818.0</ele><time>2026-04-09T11:03:10.999Z</time></trkpt><trkpt lat="46.051061102342096" lon="12.227046594045712"><ele>819.0</ele><time>2026-04-09T11:03:11.999Z</time></trkpt><trkpt lat="46.05099170820645" lon="12.226901088138186"><ele>819.0</ele><time>2026-04-09T11:03:12.999Z</time></trkpt><trkpt lat="46.050903849428465" lon="12.22676820633642"><ele>819.0</ele><time>2026-04-09T11:03:13.999Z</time></trkpt><trkpt lat="46.05078782190029" lon="12.22664925235139"><ele>819.0</ele><time>2026-04-09T11:03:14.999Z</time></trkpt><trkpt lat="46.050641027752555" lon="12.226509281379869"><ele>819.0</ele><time>2026-04-09T11:03:15.999Z</time></trkpt><trkpt lat="46.050475025271105" lon="12.226356811915425"><ele>820.3333333333333</ele><time>2026-04-09T11:03:16.999Z</time></trkpt><trkpt lat="46.05031316977985" lon="12.226210238563725"><ele>821.6666666666666</ele><time>2026-04-09T11:03:17.999Z</time></trkpt><trkpt lat="46.0501512038668" lon="12.226064131751514"><ele>823.0</ele><time>2026-04-09T11:03:18.999Z</time></trkpt><trkpt lat="46.049959523080936" lon="12.225890272704474"><ele>822.5</ele><time>2026-04-09T11:03:19.999Z</time></trkpt><trkpt lat="46.04975819513771" lon="12.225698206171282"><ele>822.0</ele><time>2026-04-09T11:03:20.999Z</time></trkpt><trkpt lat="46.04956432598413" lon="12.225520777868386"><ele>822.0</ele><time>2026-04-09T11:03:21.999Z</time></trkpt><trkpt lat="46.04939389292042" lon="12.2253640359605"><ele>822.0</ele><time>2026-04-09T11:03:23Z</time></trkpt><trkpt lat="46.04924254457158" lon="12.225229166515216"><ele>822.0</ele><time>2026-04-09T11:03:24Z</time></trkpt><trkpt lat="46.04912620518046" lon="12.225139338082233"><ele>824.0</ele><time>2026-04-09T11:03:25Z</time></trkpt><trkpt lat="46.0490191896509" lon="12.225109572870796"><ele>826.0</ele><time>2026-04-09T11:03:26Z</time></trkpt><trkpt lat="46.04890003794625" lon="12.22508183020495"><ele>828.0</ele><time>2026-04-09T11:03:27Z</time></trkpt><trkpt lat="46.04876796282654" lon="12.225079370288823"><ele>830.0</ele><time>2026-04-09T11:03:28Z</time></trkpt><trkpt lat="46.04861792183175" lon="12.225085923305214"><ele>830.0</ele><time>2026-04-09T11:03:29Z</time></trkpt><trkpt lat="46.0484652818021" lon="12.22507207322881"><ele>830.0</ele><time>2026-04-09T11:03:30Z</time></trkpt><trkpt lat="46.0483152277456" lon="12.225030989752378"><ele>830.0</ele><time>2026-04-09T11:03:31Z</time></trkpt><trkpt lat="46.04815999891055" lon="12.224964652869359"><ele>830.0</ele><time>2026-04-09T11:03:32Z</time></trkpt><trkpt lat="46.048002668625614" lon="12.224893972271895"><ele>830.0</ele><time>2026-04-09T11:03:33Z</time></trkpt><trkpt lat="46.04785399418193" lon="12.2248158547453"><ele>830.0</ele><time>2026-04-09T11:03:34Z</time></trkpt><trkpt lat="46.04772548436425" lon="12.22472847190484"><ele>830.0</ele><time>2026-04-09T11:03:35Z</time></trkpt><trkpt lat="46.047623942423996" lon="12.22464863118522"><ele>830.0</ele><time>2026-04-09T11:03:36Z</time></trkpt><trkpt lat="46.04753043788012" lon="12.22456329901538"><ele>830.0</ele><time>2026-04-09T11:03:37Z</time></trkpt><trkpt lat="46.0474410772196" lon="12.224440069653905"><ele>830.0</ele><time>2026-04-09T11:03:38Z</time></trkpt><trkpt lat="46.047324727299056" lon="12.22431029237082"><ele>829.6666666666667</ele><time>2026-04-09T11:03:39Z</time></trkpt><trkpt lat="46.04719049031865" lon="12.224170762799279"><ele>829.3333333333333</ele><time>2026-04-09T11:03:40Z</time></trkpt><trkpt lat="46.04704702841354" lon="12.224054244480893"><ele>829.0</ele><time>2026-04-09T11:03:41Z</time></trkpt><trkpt lat="46.04692318631192" lon="12.22392478558277"><ele>829.0</ele><time>2026-04-09T11:03:42Z</time></trkpt><trkpt lat="46.046826044973535" lon="12.223787742287756"><ele>829.0</ele><time>2026-04-09T11:03:43Z</time></trkpt><trkpt lat="46.046729679387425" lon="12.223675659396372"><ele>829.0</ele><time>2026-04-09T11:03:44Z</time></trkpt><trkpt lat="46.04666085067819" lon="12.223552221885647"><ele>829.0</ele><time>2026-04-09T11:03:45Z</time></trkpt><trkpt lat="46.04661626423511" lon="12.22341015635134"><ele>828.6</ele><time>2026-04-09T11:03:46Z</time></trkpt><trkpt lat="46.04658628955663" lon="12.22324241836976"><ele>828.2</ele><time>2026-04-09T11:03:47Z</time></trkpt><trkpt lat="46.046551318520535" lon="12.223079784981708"><ele>827.8000000000001</ele><time>2026-04-09T11:03:48Z</time></trkpt><trkpt lat="46.04651109382842" lon="12.22295171741134"><ele>827.4000000000001</ele><time>2026-04-09T11:03:49Z</time></trkpt><trkpt lat="46.04643700565213" lon="12.222842759336828"><ele>827.0</ele><time>2026-04-09T11:03:50Z</time></trkpt><trkpt lat="46.046332235566155" lon="12.222805546557275"><ele>827.0000000000001</ele><time>2026-04-09T11:03:51Z</time></trkpt><trkpt lat="46.0462398720733" lon="12.222781016226346"><ele>827.0</ele><time>2026-04-09T11:03:52Z</time></trkpt><trkpt lat="46.04615665647535" lon="12.222751379435456"><ele>827.0</ele><time>2026-04-09T11:03:53Z</time></trkpt><trkpt lat="46.04611370748003" lon="12.222643721783728"><ele>827.0</ele><time>2026-04-09T11:03:54Z</time></trkpt><trkpt lat="46.04611317693641" lon="12.222547724479574"><ele>827.0000000000001</ele><time>2026-04-09T11:03:55Z</time></trkpt><trkpt lat="46.04611851341169" lon="12.222456855728716"><ele>827.0</ele><time>2026-04-09T11:03:56Z</time></trkpt><trkpt lat="46.04616474698937" lon="12.222383657023604"><ele>826.75</ele><time>2026-04-09T11:03:57Z</time></trkpt><trkpt lat="46.04623214745217" lon="12.22225840232338"><ele>826.5</ele><time>2026-04-09T11:03:58Z</time></trkpt><trkpt lat="46.04632144315445" lon="12.222080776280684"><ele>826.25</ele><time>2026-04-09T11:03:59Z</time></trkpt><trkpt lat="46.046410095350694" lon="12.22190799374437"><ele>826.0</ele><time>2026-04-09T11:04:00Z</time></trkpt><trkpt lat="46.046482435660245" lon="12.22177596727899"><ele>826.0</ele><time>2026-04-09T11:04:01Z</time></trkpt><trkpt lat="46.0465592238373" lon="12.221671647768343"><ele>826.0</ele><time>2026-04-09T11:04:02Z</time></trkpt><trkpt lat="46.04667290547596" lon="12.221622195841688"><ele>826.0</ele><time>2026-04-09T11:04:03Z</time></trkpt><trkpt lat="46.04680266661259" lon="12.221596246717775"><ele>826.0</ele><time>2026-04-09T11:04:04Z</time></trkpt><trkpt lat="46.04693106238921" lon="12.221574702041249"><ele>825.4</ele><time>2026-04-09T11:04:05Z</time></trkpt><trkpt lat="46.04703924609368" lon="12.221534593461"><ele>824.8</ele><time>2026-04-09T11:04:06Z</time></trkpt><trkpt lat="46.04713739114367" lon="12.22149092831212"><ele>824.1999999999999</ele><time>2026-04-09T11:04:07Z</time></trkpt><trkpt lat="46.04721381281504" lon="12.221385260954454"><ele>823.5999999999999</ele><time>2026-04-09T11:04:08Z</time></trkpt><trkpt lat="46.047275241297854" lon="12.221240507873935"><ele>823.0</ele><time>2026-04-09T11:04:09Z</time></trkpt><trkpt lat="46.047294776198285" lon="12.221073629791324"><ele>823.0</ele><time>2026-04-09T11:04:10Z</time></trkpt><trkpt lat="46.04726231614002" lon="12.220899049007349"><ele>823.0</ele><time>2026-04-09T11:04:11Z</time></trkpt><trkpt lat="46.047245719378424" lon="12.22068918832885"><ele>823.0</ele><time>2026-04-09T11:04:12Z</time></trkpt><trkpt lat="46.04720330244334" lon="12.220429007273887"><ele>821.0</ele><time>2026-04-09T11:04:13Z</time></trkpt><trkpt lat="46.047156822491864" lon="12.220146102746353"><ele>819.0</ele><time>2026-04-09T11:04:14Z</time></trkpt><trkpt lat="46.04711573963094" lon="12.219889399854482"><ele>817.0</ele><time>2026-04-09T11:04:15Z</time></trkpt><trkpt lat="46.047072543711266" lon="12.219616998124133"><ele>815.8</ele><time>2026-04-09T11:04:16Z</time></trkpt><trkpt lat="46.04703739281016" lon="12.219397332890754"><ele>814.6</ele><time>2026-04-09T11:04:17Z</time></trkpt><trkpt lat="46.04701129634915" lon="12.219238879128795"><ele>813.4</ele><time>2026-04-09T11:04:18Z</time></trkpt><trkpt lat="46.04699003619438" lon="12.219119287284991"><ele>812.1999999999999</ele><time>2026-04-09T11:04:19Z</time></trkpt><trkpt lat="46.04693111372905" lon="12.21903692865329"><ele>811.0</ele><time>2026-04-09T11:04:20Z</time></trkpt><trkpt lat="46.04687229691882" lon="12.218987283267662"><ele>811.0</ele><time>2026-04-09T11:04:21Z</time></trkpt><trkpt lat="46.04675295601822" lon="12.219021525030652"><ele>811.0</ele><time>2026-04-09T11:04:23Z</time></trkpt><trkpt lat="46.046706547746034" lon="12.219093600661235"><ele>811.0</ele><time>2026-04-09T11:04:24Z</time></trkpt><trkpt lat="46.04666141793595" lon="12.219200738902718"><ele>811.0</ele><time>2026-04-09T11:04:25Z</time></trkpt><trkpt lat="46.046603684467485" lon="12.219338933402527"><ele>811.0</ele><time>2026-04-09T11:04:26Z</time></trkpt><trkpt lat="46.046524165653615" lon="12.219499642855636"><ele>808.75</ele><time>2026-04-09T11:04:27Z</time></trkpt><trkpt lat="46.04644247502883" lon="12.219651163107692"><ele>806.5</ele><time>2026-04-09T11:04:28Z</time></trkpt><trkpt lat="46.04635730538077" lon="12.219814574750512"><ele>804.25</ele><time>2026-04-09T11:04:29Z</time></trkpt><trkpt lat="46.046299047412056" lon="12.219990772293809"><ele>802.0</ele><time>2026-04-09T11:04:30Z</time></trkpt><trkpt lat="46.04625633876583" lon="12.220151868665397"><ele>802.0</ele><time>2026-04-09T11:04:31Z</time></trkpt><trkpt lat="46.046200359147775" lon="12.220285331728222"><ele>802.0</ele><time>2026-04-09T11:04:32Z</time></trkpt><trkpt lat="46.046132929320066" lon="12.220395245660152"><ele>802.0</ele><time>2026-04-09T11:04:33Z</time></trkpt><trkpt lat="46.04603609418592" lon="12.220429147061209"><ele>802.0</ele><time>2026-04-09T11:04:34Z</time></trkpt><trkpt lat="46.04594756589399" lon="12.220433299479689"><ele>802.0</ele><time>2026-04-09T11:04:35Z</time></trkpt><trkpt lat="46.04585349010048" lon="12.220416330126582"><ele>805.4000000000001</ele><time>2026-04-09T11:04:36Z</time></trkpt><trkpt lat="46.04575708972435" lon="12.220369592321509"><ele>808.8000000000001</ele><time>2026-04-09T11:04:37Z</time></trkpt><trkpt lat="46.045648844400255" lon="12.220311621042919"><ele>812.2</ele><time>2026-04-09T11:04:38Z</time></trkpt><trkpt lat="46.04554843221864" lon="12.220251611196705"><ele>815.6</ele><time>2026-04-09T11:04:39Z</time></trkpt><trkpt lat="46.0454602765244" lon="12.22019084820422"><ele>819.0</ele><time>2026-04-09T11:04:40Z</time></trkpt><trkpt lat="46.045394003666814" lon="12.220107394474452"><ele>819.0</ele><time>2026-04-09T11:04:41Z</time></trkpt><trkpt lat="46.04533618304105" lon="12.22000029255967"><ele>819.0</ele><time>2026-04-09T11:04:42Z</time></trkpt><trkpt lat="46.04529307111813" lon="12.219890601412136"><ele>819.0</ele><time>2026-04-09T11:04:43Z</time></trkpt><trkpt lat="46.045271433948784" lon="12.219794312412"><ele>819.0</ele><time>2026-04-09T11:04:44Z</time></trkpt><trkpt lat="46.04527049256078" lon="12.219702382225394"><ele>819.0</ele><time>2026-04-09T11:04:45Z</time></trkpt><trkpt lat="46.045292373564905" lon="12.219601136765112"><ele>819.0</ele><time>2026-04-09T11:04:46Z</time></trkpt><trkpt lat="46.04534060502916" lon="12.219489281959891"><ele>819.6</ele><time>2026-04-09T11:04:47Z</time></trkpt><trkpt lat="46.045404989812155" lon="12.219369518492016"><ele>820.2</ele><time>2026-04-09T11:04:48Z</time></trkpt><trkpt lat="46.045446458215416" lon="12.219228026621497"><ele>820.8000000000001</ele><time>2026-04-09T11:04:49Z</time></trkpt><trkpt lat="46.04544284173939" lon="12.219071129241474"><ele>821.4000000000001</ele><time>2026-04-09T11:04:50Z</time></trkpt><trkpt lat="46.04541867633179" lon="12.21892488361673"><ele>822.0</ele><time>2026-04-09T11:04:51Z</time></trkpt><trkpt lat="46.04543671496706" lon="12.218793476280705"><ele>823.5</ele><time>2026-04-09T11:04:52Z</time></trkpt><trkpt lat="46.045487519471116" lon="12.21867679659169"><ele>825.0</ele><time>2026-04-09T11:04:53Z</time></trkpt><trkpt lat="46.045547973265116" lon="12.218530392550104"><ele>826.5</ele><time>2026-04-09T11:04:54Z</time></trkpt><trkpt lat="46.04560538446704" lon="12.218370128468846"><ele>828.0</ele><time>2026-04-09T11:04:55Z</time></trkpt><trkpt lat="46.0456522652698" lon="12.21821105161324"><ele>829.0</ele><time>2026-04-09T11:04:56Z</time></trkpt><trkpt lat="46.045671795142795" lon="12.218069327700459"><ele>830.0</ele><time>2026-04-09T11:04:57Z</time></trkpt><trkpt lat="46.0456613283263" lon="12.217885683312726"><ele>831.0</ele><time>2026-04-09T11:04:58Z</time></trkpt><trkpt lat="46.04562594576014" lon="12.217658285440452"><ele>832.0</ele><time>2026-04-09T11:04:59Z</time></trkpt><trkpt lat="46.045589074721" lon="12.217463088654139"><ele>831.6666666666666</ele><time>2026-04-09T11:05:00Z</time></trkpt><trkpt lat="46.045544776852836" lon="12.217245338065815"><ele>831.3333333333333</ele><time>2026-04-09T11:05:01Z</time></trkpt><trkpt lat="46.04549422194248" lon="12.217005905841685"><ele>831.0</ele><time>2026-04-09T11:05:02Z</time></trkpt><trkpt lat="46.04543874978158" lon="12.216747201871422"><ele>831.0</ele><time>2026-04-09T11:05:03Z</time></trkpt><trkpt lat="46.04538873574365" lon="12.216508325178108"><ele>831.0</ele><time>2026-04-09T11:05:04Z</time></trkpt><trkpt lat="46.045334738521746" lon="12.21624979984989"><ele>831.0</ele><time>2026-04-09T11:05:05Z</time></trkpt><trkpt lat="46.0452763565158" lon="12.215970282156254"><ele>830.0</ele><time>2026-04-09T11:05:06Z</time></trkpt><trkpt lat="46.045217532818825" lon="12.215682633231228"><ele>829.0</ele><time>2026-04-09T11:05:07Z</time></trkpt><trkpt lat="46.04515717879575" lon="12.215382727622043"><ele>828.0</ele><time>2026-04-09T11:05:08Z</time></trkpt><trkpt lat="46.04509252473731" lon="12.215058922839047"><ele>827.3333333333333</ele><time>2026-04-09T11:05:09Z</time></trkpt><trkpt lat="46.045031511057886" lon="12.214756678099484"><ele>826.6666666666666</ele><time>2026-04-09T11:05:10Z</time></trkpt><trkpt lat="46.04496582454844" lon="12.214441397973252"><ele>826.0</ele><time>2026-04-09T11:05:11Z</time></trkpt><trkpt lat="46.04489560982844" lon="12.214104383891362"><ele>831.0</ele><time>2026-04-09T11:05:11.999Z</time></trkpt><trkpt lat="46.04483012303682" lon="12.213793248106509"><ele>836.0</ele><time>2026-04-09T11:05:12.999Z</time></trkpt><trkpt lat="46.04477093482189" lon="12.213511369834368"><ele>841.0</ele><time>2026-04-09T11:05:13.999Z</time></trkpt><trkpt lat="46.04471520423108" lon="12.213237438799624"><ele>841.6666666666666</ele><time>2026-04-09T11:05:14.999Z</time></trkpt><trkpt lat="46.04466041407726" lon="12.212974250775316"><ele>842.3333333333333</ele><time>2026-04-09T11:05:15.999Z</time></trkpt><trkpt lat="46.04460584260217" lon="12.212723397964352"><ele>843.0</ele><time>2026-04-09T11:05:16.999Z</time></trkpt><trkpt lat="46.04455455979427" lon="12.212483271671198"><ele>843.25</ele><time>2026-04-09T11:05:17.999Z</time></trkpt><trkpt lat="46.04450991071042" lon="12.212251655204003"><ele>843.5</ele><time>2026-04-09T11:05:18.999Z</time></trkpt><trkpt lat="46.0444680528359" lon="12.21205189214037"><ele>843.75</ele><time>2026-04-09T11:05:19.999Z</time></trkpt><trkpt lat="46.044420025337054" lon="12.211870673985151"><ele>844.0</ele><time>2026-04-09T11:05:20.999Z</time></trkpt><trkpt lat="46.04435024954058" lon="12.211694251985454"><ele>844.0</ele><time>2026-04-09T11:05:21.999Z</time></trkpt><trkpt lat="46.04425809034879" lon="12.211504816282636"><ele>844.0</ele><time>2026-04-09T11:05:22.999Z</time></trkpt><trkpt lat="46.044151143593105" lon="12.211307285119407"><ele>844.0</ele><time>2026-04-09T11:05:23.999Z</time></trkpt><trkpt lat="46.044033522354205" lon="12.211097872063435"><ele>843.6666666666666</ele><time>2026-04-09T11:05:24.999Z</time></trkpt><trkpt lat="46.043906343728835" lon="12.210871983155664"><ele>843.3333333333333</ele><time>2026-04-09T11:05:25.999Z</time></trkpt><trkpt lat="46.04380001293256" lon="12.210676298900658"><ele>843.0</ele><time>2026-04-09T11:05:26.999Z</time></trkpt><trkpt lat="46.04371610401188" lon="12.21051958179525"><ele>843.0</ele><time>2026-04-09T11:05:27.999Z</time></trkpt><trkpt lat="46.043624141306985" lon="12.210407916890432"><ele>843.0</ele><time>2026-04-09T11:05:29Z</time></trkpt><trkpt lat="46.043541620140154" lon="12.210301367747507"><ele>843.0</ele><time>2026-04-09T11:05:30Z</time></trkpt><trkpt lat="46.04345904636976" lon="12.21020691735275"><ele>843.0</ele><time>2026-04-09T11:05:31Z</time></trkpt><trkpt lat="46.04337349518714" lon="12.210114968408217"><ele>843.0</ele><time>2026-04-09T11:05:32Z</time></trkpt><trkpt lat="46.04329369446027" lon="12.209997986953885"><ele>842.0</ele><time>2026-04-09T11:05:33Z</time></trkpt><trkpt lat="46.04324187526185" lon="12.20984173780801"><ele>841.0</ele><time>2026-04-09T11:05:34Z</time></trkpt><trkpt lat="46.04319025710089" lon="12.209682707426593"><ele>840.0</ele><time>2026-04-09T11:05:35Z</time></trkpt><trkpt lat="46.04313661866603" lon="12.209498581889711"><ele>839.0</ele><time>2026-04-09T11:05:36Z</time></trkpt><trkpt lat="46.04308448497135" lon="12.209310655374251"><ele>839.0</ele><time>2026-04-09T11:05:37Z</time></trkpt><trkpt lat="46.04303580170503" lon="12.20914276847142"><ele>839.0</ele><time>2026-04-09T11:05:38Z</time></trkpt><trkpt lat="46.042980440199464" lon="12.20898424995685"><ele>839.0</ele><time>2026-04-09T11:05:39Z</time></trkpt><trkpt lat="46.04289790796135" lon="12.208855296953304"><ele>839.0</ele><time>2026-04-09T11:05:40Z</time></trkpt><trkpt lat="46.04280396597801" lon="12.208749797967537"><ele>837.3333333333334</ele><time>2026-04-09T11:05:41Z</time></trkpt><trkpt lat="46.042673546521506" lon="12.20869307090868"><ele>835.6666666666667</ele><time>2026-04-09T11:05:42Z</time></trkpt><trkpt lat="46.042546701336455" lon="12.208586770014847"><ele>834.0</ele><time>2026-04-09T11:05:43Z</time></trkpt><trkpt lat="46.042405423321654" lon="12.208425649004974"><ele>834.0</ele><time>2026-04-09T11:05:44Z</time></trkpt><trkpt lat="46.04227793688728" lon="12.208262539565887"><ele>834.0</ele><time>2026-04-09T11:05:45Z</time></trkpt><trkpt lat="46.04216804851993" lon="12.208121236615298"><ele>834.0</ele><time>2026-04-09T11:05:46Z</time></trkpt><trkpt lat="46.04203986638852" lon="12.208009587282788"><ele>834.0</ele><time>2026-04-09T11:05:47Z</time></trkpt><trkpt lat="46.04190074629376" lon="12.207927543399082"><ele>834.0</ele><time>2026-04-09T11:05:48Z</time></trkpt><trkpt lat="46.041777539714616" lon="12.20785949209861"><ele>834.0</ele><time>2026-04-09T11:05:49Z</time></trkpt><trkpt lat="46.04168241986488" lon="12.207795302564111"><ele>834.0</ele><time>2026-04-09T11:05:50Z</time></trkpt><trkpt lat="46.041601100752686" lon="12.207718643330287"><ele>834.8000000000001</ele><time>2026-04-09T11:05:51Z</time></trkpt><trkpt lat="46.04155034737562" lon="12.207601210741915"><ele>835.6</ele><time>2026-04-09T11:05:52Z</time></trkpt><trkpt lat="46.04149277553364" lon="12.207484358683246"><ele>836.4</ele><time>2026-04-09T11:05:53Z</time></trkpt><trkpt lat="46.04141918959402" lon="12.207351931490514"><ele>837.2</ele><time>2026-04-09T11:05:54Z</time></trkpt><trkpt lat="46.04134432664801" lon="12.207192696268601"><ele>838.0</ele><time>2026-04-09T11:05:55Z</time></trkpt><trkpt lat="46.04128376237745" lon="12.207057263972262"><ele>838.0</ele><time>2026-04-09T11:05:56Z</time></trkpt><trkpt lat="46.04123545947144" lon="12.206909361131387"><ele>838.0</ele><time>2026-04-09T11:05:57Z</time></trkpt><trkpt lat="46.0411647068074" lon="12.206767612609072"><ele>838.0</ele><time>2026-04-09T11:05:58Z</time></trkpt><trkpt lat="46.0410941721168" lon="12.206621672437144"><ele>838.0</ele><time>2026-04-09T11:05:59Z</time></trkpt><trkpt lat="46.04102029897955" lon="12.206469453580784"><ele>837.25</ele><time>2026-04-09T11:06:00Z</time></trkpt><trkpt lat="46.040944836589546" lon="12.206316517237104"><ele>836.5</ele><time>2026-04-09T11:06:01Z</time></trkpt><trkpt lat="46.04085641491351" lon="12.20616712273755"><ele>835.75</ele><time>2026-04-09T11:06:02Z</time></trkpt><trkpt lat="46.04074335551015" lon="12.206013493437544"><ele>835.0</ele><time>2026-04-09T11:06:03Z</time></trkpt><trkpt lat="46.040620360033515" lon="12.205851183708381"><ele>835.0</ele><time>2026-04-09T11:06:04Z</time></trkpt><trkpt lat="46.04050338573477" lon="12.205692086684017"><ele>835.0</ele><time>2026-04-09T11:06:05Z</time></trkpt><trkpt lat="46.0403788937333" lon="12.205527359119786"><ele>835.0</ele><time>2026-04-09T11:06:06Z</time></trkpt><trkpt lat="46.040267845143674" lon="12.205381736918152"><ele>832.75</ele><time>2026-04-09T11:06:07Z</time></trkpt><trkpt lat="46.04018050194888" lon="12.20526375191565"><ele>830.5</ele><time>2026-04-09T11:06:08Z</time></trkpt><trkpt lat="46.04009686589693" lon="12.205173031252755"><ele>828.25</ele><time>2026-04-09T11:06:09Z</time></trkpt><trkpt lat="46.03999869282196" lon="12.20508952787373"><ele>826.0</ele><time>2026-04-09T11:06:10Z</time></trkpt><trkpt lat="46.03989568476779" lon="12.205010095394636"><ele>826.8</ele><time>2026-04-09T11:06:11Z</time></trkpt><trkpt lat="46.03980473127917" lon="12.204937894533023"><ele>827.5999999999999</ele><time>2026-04-09T11:06:12Z</time></trkpt><trkpt lat="46.03972155156114" lon="12.20485686565122"><ele>828.4</ele><time>2026-04-09T11:06:13Z</time></trkpt><trkpt lat="46.03965336412689" lon="12.204775373455384"><ele>829.2</ele><time>2026-04-09T11:06:14Z</time></trkpt><trkpt lat="46.03959917442139" lon="12.204658128357892"><ele>830.0</ele><time>2026-04-09T11:06:15Z</time></trkpt><trkpt lat="46.03955838951566" lon="12.20452709660211"><ele>822.0</ele><time>2026-04-09T11:06:16Z</time></trkpt><trkpt lat="46.045404989812155" lon="12.219369518492016"><ele>822.0</ele><time>2026-04-09T11:04:48Z</time></trkpt><trkpt lat="46.045446458215416" lon="12.219228026621497"><ele>822.0</ele><time>2026-04-09T11:04:49Z</time></trkpt><trkpt lat="46.04544284173939" lon="12.219071129241474"><ele>822.0</ele><time>2026-04-09T11:04:50Z</time></trkpt><trkpt lat="46.04541867633179" lon="12.21892488361673"><ele>822.0</ele><time>2026-04-09T11:04:51Z</time></trkpt><trkpt lat="46.04543671496706" lon="12.218793476280705"><ele>822.0</ele><time>2026-04-09T11:04:52Z</time></trkpt><trkpt lat="46.045487519471116" lon="12.21867679659169"><ele>823.5</ele><time>2026-04-09T11:04:53Z</time></trkpt><trkpt lat="46.045547973265116" lon="12.218530392550104"><ele>825.0</ele><time>2026-04-09T11:04:54Z</time></trkpt><trkpt lat="46.04560538446704" lon="12.218370128468846"><ele>826.5</ele><time>2026-04-09T11:04:55Z</time></trkpt><trkpt lat="46.0456522652698" lon="12.21821105161324"><ele>828.0</ele><time>2026-04-09T11:04:56Z</time></trkpt><trkpt lat="46.045671795142795" lon="12.218069327700459"><ele>828.75</ele><time>2026-04-09T11:04:57Z</time></trkpt><trkpt lat="46.0456613283263" lon="12.217885683312726"><ele>829.5</ele><time>2026-04-09T11:04:58Z</time></trkpt><trkpt lat="46.04562594576014" lon="12.217658285440452"><ele>830.25</ele><time>2026-04-09T11:04:59Z</time></trkpt><trkpt lat="46.045589074721" lon="12.217463088654139"><ele>831.0</ele><time>2026-04-09T11:05:00Z</time></trkpt><trkpt lat="46.045544776852836" lon="12.217245338065815"><ele>831.0</ele><time>2026-04-09T11:05:01Z</time></trkpt><trkpt lat="46.04549422194248" lon="12.217005905841685"><ele>831.0</ele><time>2026-04-09T11:05:02Z</time></trkpt><trkpt lat="46.04543874978158" lon="12.216747201871422"><ele>831.0</ele><time>2026-04-09T11:05:03Z</time></trkpt><trkpt lat="46.04538873574365" lon="12.216508325178108"><ele>830.0</ele><time>2026-04-09T11:05:04Z</time></trkpt><trkpt lat="46.045334738521746" lon="12.21624979984989"><ele>829.0</ele><time>2026-04-09T11:05:05Z</time></trkpt><trkpt lat="46.0452763565158" lon="12.215970282156254"><ele>828.0</ele><time>2026-04-09T11:05:06Z</time></trkpt><trkpt lat="46.045217532818825" lon="12.215682633231228"><ele>827.0</ele><time>2026-04-09T11:05:07Z</time></trkpt><trkpt lat="46.04515717879575" lon="12.215382727622043"><ele>826.0</ele><time>2026-04-09T11:05:08Z</time></trkpt><trkpt lat="46.04509252473731" lon="12.215058922839047"><ele>826.0</ele><time>2026-04-09T11:05:09Z</time></trkpt><trkpt lat="46.045031511057886" lon="12.214756678099484"><ele>826.0</ele><time>2026-04-09T11:05:10Z</time></trkpt><trkpt lat="46.04496582454844" lon="12.214441397973252"><ele>826.0</ele><time>2026-04-09T11:05:11Z</time></trkpt><trkpt lat="46.04489560982844" lon="12.214104383891362"><ele>831.0</ele><time>2026-04-09T11:05:11.999Z</time></trkpt><trkpt lat="46.04483012303682" lon="12.213793248106509"><ele>836.0</ele><time>2026-04-09T11:05:12.999Z</time></trkpt><trkpt lat="46.04477093482189" lon="12.213511369834368"><ele>841.0</ele><time>2026-04-09T11:05:13.999Z</time></trkpt><trkpt lat="46.04471520423108" lon="12.213237438799624"><ele>841.6666666666666</ele><time>2026-04-09T11:05:14.999Z</time></trkpt><trkpt lat="46.04466041407726" lon="12.212974250775316"><ele>842.3333333333333</ele><time>2026-04-09T11:05:15.999Z</time></trkpt><trkpt lat="46.04460584260217" lon="12.212723397964352"><ele>843.0</ele><time>2026-04-09T11:05:16.999Z</time></trkpt><trkpt lat="46.04455455979427" lon="12.212483271671198"><ele>843.25</ele><time>2026-04-09T11:05:17.999Z</time></trkpt><trkpt lat="46.04450991071042" lon="12.212251655204003"><ele>843.5</ele><time>2026-04-09T11:05:18.999Z</time></trkpt><trkpt lat="46.0444680528359" lon="12.21205189214037"><ele>843.75</ele><time>2026-04-09T11:05:19.999Z</time></trkpt><trkpt lat="46.044420025337054" lon="12.211870673985151"><ele>844.0</ele><time>2026-04-09T11:05:20.999Z</time></trkpt><trkpt lat="46.04435024954058" lon="12.211694251985454"><ele>844.0</ele><time>2026-04-09T11:05:21.999Z</time></trkpt><trkpt lat="46.04425809034879" lon="12.211504816282636"><ele>844.0</ele><time>2026-04-09T11:05:22.999Z</time></trkpt><trkpt lat="46.044151143593105" lon="12.211307285119407"><ele>844.0</ele><time>2026-04-09T11:05:23.999Z</time></trkpt><trkpt lat="46.044033522354205" lon="12.211097872063435"><ele>843.6666666666666</ele><time>2026-04-09T11:05:24.999Z</time></trkpt><trkpt lat="46.043906343728835" lon="12.210871983155664"><ele>843.3333333333333</ele><time>2026-04-09T11:05:25.999Z</time></trkpt><trkpt lat="46.04380001293256" lon="12.210676298900658"><ele>843.0</ele><time>2026-04-09T11:05:26.999Z</time></trkpt><trkpt lat="46.04371610401188" lon="12.21051958179525"><ele>843.0</ele><time>2026-04-09T11:05:27.999Z</time></trkpt><trkpt lat="46.043624141306985" lon="12.210407916890432"><ele>843.0</ele><time>2026-04-09T11:05:29Z</time></trkpt><trkpt lat="46.043541620140154" lon="12.210301367747507"><ele>843.0</ele><time>2026-04-09T11:05:30Z</time></trkpt><trkpt lat="46.04345904636976" lon="12.21020691735275"><ele>843.0</ele><time>2026-04-09T11:05:31Z</time></trkpt><trkpt lat="46.04337349518714" lon="12.210114968408217"><ele>843.0</ele><time>2026-04-09T11:05:32Z</time></trkpt><trkpt lat="46.04329369446027" lon="12.209997986953885"><ele>842.0</ele><time>2026-04-09T11:05:33Z</time></trkpt><trkpt lat="46.04324187526185" lon="12.20984173780801"><ele>841.0</ele><time>2026-04-09T11:05:34Z</time></trkpt><trkpt lat="46.04319025710089" lon="12.209682707426593"><ele>840.0</ele><time>2026-04-09T11:05:35Z</time></trkpt><trkpt lat="46.04313661866603" lon="12.209498581889711"><ele>839.0</ele><time>2026-04-09T11:05:36Z</time></trkpt><trkpt lat="46.04308448497135" lon="12.209310655374251"><ele>839.0</ele><time>2026-04-09T11:05:37Z</time></trkpt><trkpt lat="46.04303580170503" lon="12.20914276847142"><ele>839.0</ele><time>2026-04-09T11:05:38Z</time></trkpt><trkpt lat="46.042980440199464" lon="12.20898424995685"><ele>839.0</ele><time>2026-04-09T11:05:39Z</time></trkpt><trkpt lat="46.04289790796135" lon="12.208855296953304"><ele>839.0</ele><time>2026-04-09T11:05:40Z</time></trkpt><trkpt lat="46.04280396597801" lon="12.208749797967537"><ele>837.3333333333334</ele><time>2026-04-09T11:05:41Z</time></trkpt><trkpt lat="46.042673546521506" lon="12.20869307090868"><ele>835.6666666666667</ele><time>2026-04-09T11:05:42Z</time></trkpt><trkpt lat="46.042546701336455" lon="12.208586770014847"><ele>834.0</ele><time>2026-04-09T11:05:43Z</time></trkpt><trkpt lat="46.042405423321654" lon="12.208425649004974"><ele>834.0</ele><time>2026-04-09T11:05:44Z</time></trkpt><trkpt lat="46.04227793688728" lon="12.208262539565887"><ele>834.0</ele><time>2026-04-09T11:05:45Z</time></trkpt><trkpt lat="46.04216804851993" lon="12.208121236615298"><ele>834.0</ele><time>2026-04-09T11:05:46Z</time></trkpt><trkpt lat="46.04203986638852" lon="12.208009587282788"><ele>834.0</ele><time>2026-04-09T11:05:47Z</time></trkpt><trkpt lat="46.04190074629376" lon="12.207927543399082"><ele>834.0</ele><time>2026-04-09T11:05:48Z</time></trkpt><trkpt lat="46.041777539714616" lon="12.20785949209861"><ele>834.0</ele><time>2026-04-09T11:05:49Z</time></trkpt><trkpt lat="46.04168241986488" lon="12.207795302564111"><ele>834.0</ele><time>2026-04-09T11:05:50Z</time></trkpt><trkpt lat="46.041601100752686" lon="12.207718643330287"><ele>834.8000000000001</ele><time>2026-04-09T11:05:51Z</time></trkpt><trkpt lat="46.04155034737562" lon="12.207601210741915"><ele>835.6</ele><time>2026-04-09T11:05:52Z</time></trkpt><trkpt lat="46.04149277553364" lon="12.207484358683246"><ele>836.4</ele><time>2026-04-09T11:05:53Z</time></trkpt><trkpt lat="46.04141918959402" lon="12.207351931490514"><ele>837.2</ele><time>2026-04-09T11:05:54Z</time></trkpt><trkpt lat="46.04134432664801" lon="12.207192696268601"><ele>838.0</ele><time>2026-04-09T11:05:55Z</time></trkpt><trkpt lat="46.04128376237745" lon="12.207057263972262"><ele>838.0</ele><time>2026-04-09T11:05:56Z</time></trkpt><trkpt lat="46.04123545947144" lon="12.206909361131387"><ele>838.0</ele><time>2026-04-09T11:05:57Z</time></trkpt><trkpt lat="46.0411647068074" lon="12.206767612609072"><ele>838.0</ele><time>2026-04-09T11:05:58Z</time></trkpt><trkpt lat="46.0410941721168" lon="12.206621672437144"><ele>838.0</ele><time>2026-04-09T11:05:59Z</time></trkpt><trkpt lat="46.04102029897955" lon="12.206469453580784"><ele>837.25</ele><time>2026-04-09T11:06:00Z</time></trkpt><trkpt lat="46.040944836589546" lon="12.206316517237104"><ele>836.5</ele><time>2026-04-09T11:06:01Z</time></trkpt><trkpt lat="46.04085641491351" lon="12.20616712273755"><ele>835.75</ele><time>2026-04-09T11:06:02Z</time></trkpt><trkpt lat="46.04074335551015" lon="12.206013493437544"><ele>835.0</ele><time>2026-04-09T11:06:03Z</time></trkpt><trkpt lat="46.040620360033515" lon="12.205851183708381"><ele>835.0</ele><time>2026-04-09T11:06:04Z</time></trkpt><trkpt lat="46.04050338573477" lon="12.205692086684017"><ele>835.0</ele><time>2026-04-09T11:06:05Z</time></trkpt><trkpt lat="46.0403788937333" lon="12.205527359119786"><ele>835.0</ele><time>2026-04-09T11:06:06Z</time></trkpt><trkpt lat="46.040267845143674" lon="12.205381736918152"><ele>832.75</ele><time>2026-04-09T11:06:07Z</time></trkpt><trkpt lat="46.04018050194888" lon="12.20526375191565"><ele>830.5</ele><time>2026-04-09T11:06:08Z</time></trkpt><trkpt lat="46.04009686589693" lon="12.205173031252755"><ele>828.25</ele><time>2026-04-09T11:06:09Z</time></trkpt><trkpt lat="46.03999869282196" lon="12.20508952787373"><ele>826.0</ele><time>2026-04-09T11:06:10Z</time></trkpt><trkpt lat="46.03989568476779" lon="12.205010095394636"><ele>826.8</ele><time>2026-04-09T11:06:11Z</time></trkpt><trkpt lat="46.03980473127917" lon="12.204937894533023"><ele>827.5999999999999</ele><time>2026-04-09T11:06:12Z</time></trkpt><trkpt lat="46.03972155156114" lon="12.20485686565122"><ele>828.4</ele><time>2026-04-09T11:06:13Z</time></trkpt><trkpt lat="46.03965336412689" lon="12.204775373455384"><ele>829.2</ele><time>2026-04-09T11:06:14Z</time></trkpt><trkpt lat="46.03959917442139" lon="12.204658128357892"><ele>830.0</ele><time>2026-04-09T11:06:15Z</time></trkpt><trkpt lat="46.03955838951566" lon="12.20452709660211"><ele>830.0</ele><time>2026-04-09T11:06:16Z</time></trkpt><trkpt lat="46.03955082422434" lon="12.204372705740036"><ele>830.0</ele><time>2026-04-09T11:06:17Z</time></trkpt><trkpt lat="46.03952338169395" lon="12.204197443675158"><ele>830.0</ele><time>2026-04-09T11:06:18Z</time></trkpt><trkpt lat="46.03952042701893" lon="12.204000095373774"><ele>830.0</ele><time>2026-04-09T11:06:19Z</time></trkpt><trkpt lat="46.03952924768518" lon="12.203785649206738"><ele>826.25</ele><time>2026-04-09T11:06:20Z</time></trkpt><trkpt lat="46.03951643516483" lon="12.203585066846818"><ele>822.5</ele><time>2026-04-09T11:06:21Z</time></trkpt><trkpt lat="46.03951240044648" lon="12.20338411053256"><ele>818.75</ele><time>2026-04-09T11:06:22Z</time></trkpt><trkpt lat="46.039514751456615" lon="12.203194440906717"><ele>815.0</ele><time>2026-04-09T11:06:23Z</time></trkpt><trkpt lat="46.03951244624218" lon="12.203026858531574"><ele>810.75</ele><time>2026-04-09T11:06:24Z</time></trkpt><trkpt lat="46.03950356499761" lon="12.20287268717481"><ele>806.5</ele><time>2026-04-09T11:06:25Z</time></trkpt><trkpt lat="46.03947868459212" lon="12.202710638237532"><ele>802.25</ele><time>2026-04-09T11:06:26Z</time></trkpt><trkpt lat="46.03945595494655" lon="12.202567174071646"><ele>798.0</ele><time>2026-04-09T11:06:27Z</time></trkpt><trkpt lat="46.03938918025599" lon="12.202399197680526"><ele>796.0</ele><time>2026-04-09T11:06:28Z</time></trkpt><trkpt lat="46.03929995724313" lon="12.202241175188234"><ele>794.0</ele><time>2026-04-09T11:06:29Z</time></trkpt><trkpt lat="46.039213005201646" lon="12.202097584422845"><ele>792.0</ele><time>2026-04-09T11:06:30Z</time></trkpt><trkpt lat="46.03912664074121" lon="12.201957599877113"><ele>790.0</ele><time>2026-04-09T11:06:31Z</time></trkpt><trkpt lat="46.03903538729148" lon="12.201837573418238"><ele>790.0</ele><time>2026-04-09T11:06:32Z</time></trkpt><trkpt lat="46.03896931485449" lon="12.20169048389907"><ele>790.0</ele><time>2026-04-09T11:06:33Z</time></trkpt><trkpt lat="46.03892686134376" lon="12.20152766397204"><ele>790.0</ele><time>2026-04-09T11:06:34Z</time></trkpt><trkpt lat="46.03891309629325" lon="12.201354351513421"><ele>790.0</ele><time>2026-04-09T11:06:35Z</time></trkpt><trkpt lat="46.03890970604148" lon="12.201152871660987"><ele>787.3333333333333</ele><time>2026-04-09T11:06:36Z</time></trkpt><trkpt lat="46.03891840109602" lon="12.200920116352814"><ele>784.6666666666667</ele><time>2026-04-09T11:06:37Z</time></trkpt><trkpt lat="46.03893754772764" lon="12.200701241924053"><ele>782.0</ele><time>2026-04-09T11:06:38Z</time></trkpt><trkpt lat="46.038959073368666" lon="12.200506694427778"><ele>781.25</ele><time>2026-04-09T11:06:39Z</time></trkpt><trkpt lat="46.03899183727373" lon="12.200327951735733"><ele>780.5</ele><time>2026-04-09T11:06:40Z</time></trkpt><trkpt lat="46.03901280142164" lon="12.200169125574241"><ele>779.75</ele><time>2026-04-09T11:06:41Z</time></trkpt><trkpt lat="46.039087803919465" lon="12.20003741668833"><ele>779.0</ele><time>2026-04-09T11:06:42Z</time></trkpt><trkpt lat="46.03915774498322" lon="12.199923421046352"><ele>778.75</ele><time>2026-04-09T11:06:43Z</time></trkpt><trkpt lat="46.039239056926895" lon="12.199822771626888"><ele>778.5</ele><time>2026-04-09T11:06:44Z</time></trkpt><trkpt lat="46.03933800576997" lon="12.199738012045003"><ele>778.25</ele><time>2026-04-09T11:06:45Z</time></trkpt><trkpt lat="46.03944937677031" lon="12.199668494235086"><ele>778.0</ele><time>2026-04-09T11:06:46Z</time></trkpt><trkpt lat="46.03957195981326" lon="12.199614925018055"><ele>778.0</ele><time>2026-04-09T11:06:47Z</time></trkpt><trkpt lat="46.03969697298571" lon="12.199549254222037"><ele>778.0</ele><time>2026-04-09T11:06:48Z</time></trkpt><trkpt lat="46.03980884185421" lon="12.199485134638204"><ele>778.0</ele><time>2026-04-09T11:06:49Z</time></trkpt><trkpt lat="46.039899935484925" lon="12.199406681388014"><ele>778.0</ele><time>2026-04-09T11:06:50Z</time></trkpt><trkpt lat="46.03997751895944" lon="12.19930561642574"><ele>777.2</ele><time>2026-04-09T11:06:51Z</time></trkpt><trkpt lat="46.040038405413064" lon="12.19918401715131"><ele>776.4</ele><time>2026-04-09T11:06:52Z</time></trkpt><trkpt lat="46.04007783732738" lon="12.199037609141627"><ele>775.6</ele><time>2026-04-09T11:06:53Z</time></trkpt><trkpt lat="46.04009516677494" lon="12.198880694330844"><ele>774.8000000000001</ele><time>2026-04-09T11:06:54Z</time></trkpt><trkpt lat="46.04009562778961" lon="12.19873413483324"><ele>774.0</ele><time>2026-04-09T11:06:55Z</time></trkpt><trkpt lat="46.04006459821011" lon="12.198595569601988"><ele>772.0</ele><time>2026-04-09T11:06:56Z</time></trkpt><trkpt lat="46.040017775215716" lon="12.198468741281062"><ele>770.0</ele><time>2026-04-09T11:06:57Z</time></trkpt><trkpt lat="46.03995502171449" lon="12.19833006709601"><ele>768.0</ele><time>2026-04-09T11:06:58Z</time></trkpt><trkpt lat="46.03988410381282" lon="12.198184158393964"><ele>766.0</ele><time>2026-04-09T11:06:59Z</time></trkpt><trkpt lat="46.039819913534345" lon="12.198047582356715"><ele>761.25</ele><time>2026-04-09T11:07:00Z</time></trkpt><trkpt lat="46.03976332631057" lon="12.197910084384658"><ele>756.5</ele><time>2026-04-09T11:07:01Z</time></trkpt><trkpt lat="46.03972849782076" lon="12.197758900246152"><ele>751.75</ele><time>2026-04-09T11:07:02Z</time></trkpt><trkpt lat="46.039702647666886" lon="12.197590400831952"><ele>747.0</ele><time>2026-04-09T11:07:03Z</time></trkpt><trkpt lat="46.03967719006034" lon="12.197400254832052"><ele>743.25</ele><time>2026-04-09T11:07:04Z</time></trkpt><trkpt lat="46.03965031014726" lon="12.197197311770456"><ele>739.5</ele><time>2026-04-09T11:07:05Z</time></trkpt><trkpt lat="46.039621935862115" lon="12.196993806950598"><ele>735.75</ele><time>2026-04-09T11:07:06Z</time></trkpt><trkpt lat="46.03959974183099" lon="12.196800627541878"><ele>732.0</ele><time>2026-04-09T11:07:07Z</time></trkpt><trkpt lat="46.03960096380166" lon="12.19659815877041"><ele>729.0</ele><time>2026-04-09T11:07:08Z</time></trkpt><trkpt lat="46.03961457075079" lon="12.196395636361565"><ele>726.0</ele><time>2026-04-09T11:07:09Z</time></trkpt><trkpt lat="46.03963182496857" lon="12.19622587942507"><ele>723.0</ele><time>2026-04-09T11:07:10Z</time></trkpt><trkpt lat="46.03965841756473" lon="12.196073531776687"><ele>720.0</ele><time>2026-04-09T11:07:11Z</time></trkpt><trkpt lat="46.03970996316635" lon="12.195931578947445"><ele>720.0</ele><time>2026-04-09T11:07:12Z</time></trkpt><trkpt lat="46.03978740125335" lon="12.19579525817295"><ele>720.0</ele><time>2026-04-09T11:07:13Z</time></trkpt><trkpt lat="46.03987015497724" lon="12.195644728958555"><ele>720.0</ele><time>2026-04-09T11:07:14Z</time></trkpt><trkpt lat="46.0399290926625" lon="12.195476705660486"><ele>720.0</ele><time>2026-04-09T11:07:15Z</time></trkpt><trkpt lat="46.03997270763883" lon="12.195298515538623"><ele>720.25</ele><time>2026-04-09T11:07:16Z</time></trkpt><trkpt lat="46.04003265215785" lon="12.19511849852428"><ele>720.5</ele><time>2026-04-09T11:07:17Z</time></trkpt><trkpt lat="46.04003700885068" lon="12.194928841124383"><ele>720.75</ele><time>2026-04-09T11:07:17.999Z</time></trkpt><trkpt lat="46.0400383468782" lon="12.19475837552492"><ele>721.0</ele><time>2026-04-09T11:07:18.999Z</time></trkpt><trkpt lat="46.040042054118864" lon="12.194605952704576"><ele>721.0</ele><time>2026-04-09T11:07:19.999Z</time></trkpt><trkpt lat="46.040052843517266" lon="12.19446807953436"><ele>721.0</ele><time>2026-04-09T11:07:20.999Z</time></trkpt><trkpt lat="46.04006478717885" lon="12.194323031526489"><ele>721.0</ele><time>2026-04-09T11:07:21.999Z</time></trkpt><trkpt lat="46.04007448539337" lon="12.194174850434958"><ele>721.0</ele><time>2026-04-09T11:07:22.999Z</time></trkpt><trkpt lat="46.04005044393588" lon="12.193998663996366"><ele>721.0</ele><time>2026-04-09T11:07:23.999Z</time></trkpt><trkpt lat="46.04002565148788" lon="12.193820650833109"><ele>720.6666666666667</ele><time>2026-04-09T11:07:24.999Z</time></trkpt><trkpt lat="46.03999667250743" lon="12.193612577516157"><ele>720.3333333333334</ele><time>2026-04-09T11:07:25.999Z</time></trkpt><trkpt lat="46.03996400905258" lon="12.193376461246208"><ele>720.0</ele><time>2026-04-09T11:07:26.999Z</time></trkpt><trkpt lat="46.03993361722131" lon="12.193143748164452"><ele>716.0</ele><time>2026-04-09T11:07:27.999Z</time></trkpt><trkpt lat="46.03990689256885" lon="12.192936304214516"><ele>712.0</ele><time>2026-04-09T11:07:28.999Z</time></trkpt><trkpt lat="46.03988375629716" lon="12.192751289678649"><ele>708.0</ele><time>2026-04-09T11:07:29.999Z</time></trkpt><trkpt lat="46.03987422691853" lon="12.192577558723656"><ele>704.0</ele><time>2026-04-09T11:07:30.999Z</time></trkpt><trkpt lat="46.039891868345414" lon="12.192403787294147"><ele>706.25</ele><time>2026-04-09T11:07:31.999Z</time></trkpt><trkpt lat="46.039947466502866" lon="12.192249872586032"><ele>708.5</ele><time>2026-04-09T11:07:32.999Z</time></trkpt><trkpt lat="46.04001885724653" lon="12.192108104182529"><ele>710.75</ele><time>2026-04-09T11:07:33.999Z</time></trkpt><trkpt lat="46.04011164967421" lon="12.191969850216669"><ele>713.0</ele><time>2026-04-09T11:07:35Z</time></trkpt><trkpt lat="46.04023060137519" lon="12.19181871801302"><ele>717.6666666666666</ele><time>2026-04-09T11:07:36Z</time></trkpt><trkpt lat="46.040377350488576" lon="12.191644229719124"><ele>722.3333333333334</ele><time>2026-04-09T11:07:37Z</time></trkpt><trkpt lat="46.04051774184803" lon="12.191475303528131"><ele>727.0</ele><time>2026-04-09T11:07:38Z</time></trkpt><trkpt lat="46.040667249841796" lon="12.191291455805004"><ele>727.3333333333334</ele><time>2026-04-09T11:07:39Z</time></trkpt><trkpt lat="46.04083304830605" lon="12.191081417559765"><ele>727.6666666666666</ele><time>2026-04-09T11:07:40Z</time></trkpt><trkpt lat="46.04098543510353" lon="12.1908870936388"><ele>728.0</ele><time>2026-04-09T11:07:41Z</time></trkpt><trkpt lat="46.041154665014304" lon="12.19067104012005"><ele>730.0</ele><time>2026-04-09T11:07:42Z</time></trkpt><trkpt lat="46.04130493885396" lon="12.190479035132228"><ele>732.0</ele><time>2026-04-09T11:07:43Z</time></trkpt><trkpt lat="46.04143533823654" lon="12.190315869686437"><ele>734.0</ele><time>2026-04-09T11:07:44Z</time></trkpt><trkpt lat="46.04155658672516" lon="12.190173787942568"><ele>734.3333333333333</ele><time>2026-04-09T11:07:45Z</time></trkpt><trkpt lat="46.04168414753153" lon="12.190048746978727"><ele>734.6666666666666</ele><time>2026-04-09T11:07:46Z</time></trkpt><trkpt lat="46.041824605806404" lon="12.189976679018878"><ele>735.0</ele><time>2026-04-09T11:07:47Z</time></trkpt><trkpt lat="46.04196897351182" lon="12.189909121683554"><ele>737.3333333333334</ele><time>2026-04-09T11:07:48Z</time></trkpt><trkpt lat="46.04209770550158" lon="12.189819538080851"><ele>739.6666666666667</ele><time>2026-04-09T11:07:49Z</time></trkpt><trkpt lat="46.04222050897866" lon="12.189667608703376"><ele>742.0</ele><time>2026-04-09T11:07:50Z</time></trkpt><trkpt lat="46.042353202218216" lon="12.189488024050322"><ele>742.0</ele><time>2026-04-09T11:07:51Z</time></trkpt><trkpt lat="46.042506256331" lon="12.18928148496112"><ele>742.0</ele><time>2026-04-09T11:07:52Z</time></trkpt><trkpt lat="46.04267092570465" lon="12.189064062557442"><ele>742.0</ele><time>2026-04-09T11:07:53Z</time></trkpt><trkpt lat="46.042818604230014" lon="12.188867727882231"><ele>742.0</ele><time>2026-04-09T11:07:54Z</time></trkpt><trkpt lat="46.04297051032649" lon="12.188665731493831"><ele>742.0</ele><time>2026-04-09T11:07:55Z</time></trkpt><trkpt lat="46.04312172615233" lon="12.188464653066262"><ele>742.0</ele><time>2026-04-09T11:07:56Z</time></trkpt><trkpt lat="46.043263010602026" lon="12.188278144614369"><ele>742.5</ele><time>2026-04-09T11:07:57Z</time></trkpt><trkpt lat="46.04337856033556" lon="12.188128238522424"><ele>743.0</ele><time>2026-04-09T11:07:58Z</time></trkpt><trkpt lat="46.043470039682425" lon="12.188003767328524"><ele>743.5</ele><time>2026-04-09T11:07:59Z</time></trkpt><trkpt lat="46.043542745386524" lon="12.187885392826768"><ele>744.0</ele><time>2026-04-09T11:08:00Z</time></trkpt><trkpt lat="46.043599029733656" lon="12.187758976452926"><ele>744.0</ele><time>2026-04-09T11:08:01Z</time></trkpt><trkpt lat="46.04362379897592" lon="12.187617068592811"><ele>744.0</ele><time>2026-04-09T11:08:02Z</time></trkpt><trkpt lat="46.04363258514047" lon="12.187472488995406"><ele>744.0</ele><time>2026-04-09T11:08:03Z</time></trkpt><trkpt lat="46.043630048482385" lon="12.18731249715676"><ele>744.0</ele><time>2026-04-09T11:08:04Z</time></trkpt><trkpt lat="46.043613574961846" lon="12.187137328143429"><ele>744.0</ele><time>2026-04-09T11:08:05Z</time></trkpt><trkpt lat="46.04358867753108" lon="12.18694891849777"><ele>743.8000000000001</ele><time>2026-04-09T11:08:06Z</time></trkpt><trkpt lat="46.043571710668125" lon="12.186776499078235"><ele>743.6</ele><time>2026-04-09T11:08:07Z</time></trkpt><trkpt lat="46.04357283275026" lon="12.186636022893909"><ele>743.4</ele><time>2026-04-09T11:08:08Z</time></trkpt><trkpt lat="46.04359153298656" lon="12.186508420842145"><ele>743.2</ele><time>2026-04-09T11:08:09Z</time></trkpt><trkpt lat="46.04363139233204" lon="12.186383577002282"><ele>743.0</ele><time>2026-04-09T11:08:10Z</time></trkpt><trkpt lat="46.043696226549116" lon="12.186296968579558"><ele>743.0</ele><time>2026-04-09T11:08:11Z</time></trkpt><trkpt lat="46.043772774172815" lon="12.186227067458592"><ele>743.0</ele><time>2026-04-09T11:08:12Z</time></trkpt><trkpt lat="46.04386142786959" lon="12.186158951968713"><ele>743.0</ele><time>2026-04-09T11:08:13Z</time></trkpt><trkpt lat="46.04394787718278" lon="12.186066485295363"><ele>743.0</ele><time>2026-04-09T11:08:14Z</time></trkpt><trkpt lat="46.0440323093118" lon="12.185983869579584"><ele>743.0</ele><time>2026-04-09T11:08:15Z</time></trkpt><trkpt lat="46.04410779617947" lon="12.185904722442965"><ele>744.2</ele><time>2026-04-09T11:08:16Z</time></trkpt><trkpt lat="46.04414944362453" lon="12.185787691788557"><ele>745.4</ele><time>2026-04-09T11:08:17Z</time></trkpt><trkpt lat="46.044144500540625" lon="12.185632640314365"><ele>746.6</ele><time>2026-04-09T11:08:18Z</time></trkpt><trkpt lat="46.04410935052798" lon="12.185482510345066"><ele>747.8000000000001</ele><time>2026-04-09T11:08:19Z</time></trkpt><trkpt lat="46.044050877218915" lon="12.185354015026041"><ele>749.0</ele><time>2026-04-09T11:08:20Z</time></trkpt><trkpt lat="46.0439426276431" lon="12.185273975942552"><ele>749.5</ele><time>2026-04-09T11:08:21Z</time></trkpt><trkpt lat="46.04383938264638" lon="12.185180545451331"><ele>750.0</ele><time>2026-04-09T11:08:22Z</time></trkpt><trkpt lat="46.04372473617536" lon="12.185057091040436"><ele>750.5</ele><time>2026-04-09T11:08:23Z</time></trkpt><trkpt lat="46.043581123411464" lon="12.184933665785652"><ele>751.0</ele><time>2026-04-09T11:08:24Z</time></trkpt><trkpt lat="46.043433307058216" lon="12.1848304944858"><ele>753.0</ele><time>2026-04-09T11:08:25Z</time></trkpt><trkpt lat="46.043304604040564" lon="12.184747089588681"><ele>755.0</ele><time>2026-04-09T11:08:26Z</time></trkpt><trkpt lat="46.04315212880236" lon="12.184685834615086"><ele>757.0</ele><time>2026-04-09T11:08:27Z</time></trkpt><trkpt lat="46.04299224433486" lon="12.184633345256977"><ele>757.0</ele><time>2026-04-09T11:08:28Z</time></trkpt><trkpt lat="46.042866915879145" lon="12.184581114673607"><ele>757.0</ele><time>2026-04-09T11:08:29Z</time></trkpt><trkpt lat="46.042765766245225" lon="12.184503515437658"><ele>757.0</ele><time>2026-04-09T11:08:30Z</time></trkpt><trkpt lat="46.042663178146384" lon="12.184456249788251"><ele>757.0</ele><time>2026-04-09T11:08:31Z</time></trkpt><trkpt lat="46.04256755514424" lon="12.184385236430444"><ele>757.0</ele><time>2026-04-09T11:08:32Z</time></trkpt><trkpt lat="46.04248522871914" lon="12.184286247976646"><ele>757.0</ele><time>2026-04-09T11:08:33Z</time></trkpt><trkpt lat="46.0424162218049" lon="12.184193738307753"><ele>757.0</ele><time>2026-04-09T11:08:34Z</time></trkpt><trkpt lat="46.042372708916695" lon="12.184093656681082"><ele>757.0</ele><time>2026-04-09T11:08:35Z</time></trkpt><trkpt lat="46.04234922101309" lon="12.183981274836063"><ele>757.0</ele><time>2026-04-09T11:08:36Z</time></trkpt><trkpt lat="46.042324254040636" lon="12.183840931805616"><ele>753.5</ele><time>2026-04-09T11:08:37Z</time></trkpt><trkpt lat="46.042295707244826" lon="12.183678070612586"><ele>750.0</ele><time>2026-04-09T11:08:38Z</time></trkpt><trkpt lat="46.042266225884845" lon="12.18350173675957"><ele>746.5</ele><time>2026-04-09T11:08:39Z</time></trkpt><trkpt lat="46.04223369699687" lon="12.183307623532762"><ele>743.0</ele><time>2026-04-09T11:08:40Z</time></trkpt><trkpt lat="46.04219840908552" lon="12.18310486069174"><ele>742.75</ele><time>2026-04-09T11:08:41Z</time></trkpt><trkpt lat="46.042165838883925" lon="12.182917713644347"><ele>742.5</ele><time>2026-04-09T11:08:42Z</time></trkpt><trkpt lat="46.042135596947894" lon="12.182742100497874"><ele>742.25</ele><time>2026-04-09T11:08:43Z</time></trkpt><trkpt lat="46.04210714794218" lon="12.182565490175909"><ele>742.0</ele><time>2026-04-09T11:08:44Z</time></trkpt><trkpt lat="46.042079764731966" lon="12.182382191876814"><ele>741.2</ele><time>2026-04-09T11:08:45Z</time></trkpt><trkpt lat="46.042054840007765" lon="12.182212562685901"><ele>740.4000000000001</ele><time>2026-04-09T11:08:46Z</time></trkpt><trkpt lat="46.04203581801745" lon="12.182058109784485"><ele>739.5999999999999</ele><time>2026-04-09T11:08:47Z</time></trkpt><trkpt lat="46.042029126143106" lon="12.18191272339361"><ele>738.8</ele><time>2026-04-09T11:08:48Z</time></trkpt><trkpt lat="46.04203637578353" lon="12.181774796559118"><ele>738.0</ele><time>2026-04-09T11:08:49Z</time></trkpt><trkpt lat="46.04205753780922" lon="12.181637934635424"><ele>736.5</ele><time>2026-04-09T11:08:50Z</time></trkpt><trkpt lat="46.042094234030436" lon="12.18148515045365"><ele>735.0</ele><time>2026-04-09T11:08:51Z</time></trkpt><trkpt lat="46.04214706190139" lon="12.181322919992438"><ele>733.5</ele><time>2026-04-09T11:08:52Z</time></trkpt><trkpt lat="46.04220417966565" lon="12.181144673676581"><ele>732.0</ele><time>2026-04-09T11:08:53Z</time></trkpt><trkpt lat="46.04222696207213" lon="12.180928252539417"><ele>732.0</ele><time>2026-04-09T11:08:54Z</time></trkpt><trkpt lat="46.042273458283596" lon="12.180688128032381"><ele>732.0</ele><time>2026-04-09T11:08:55Z</time></trkpt><trkpt lat="46.042304800550745" lon="12.180424419843769"><ele>732.0</ele><time>2026-04-09T11:08:56Z</time></trkpt><trkpt lat="46.04233500088084" lon="12.180196896202517"><ele>731.5</ele><time>2026-04-09T11:08:57Z</time></trkpt><trkpt lat="46.04236845575659" lon="12.180013543381845"><ele>731.0</ele><time>2026-04-09T11:08:58Z</time></trkpt><trkpt lat="46.04240593418254" lon="12.179863450769538"><ele>730.5</ele><time>2026-04-09T11:08:59Z</time></trkpt><trkpt lat="46.0424569060519" lon="12.17972509912548"><ele>730.0</ele><time>2026-04-09T11:09:00Z</time></trkpt><trkpt lat="46.042529615227004" lon="12.1796054285935"><ele>730.0</ele><time>2026-04-09T11:09:01Z</time></trkpt><trkpt lat="46.04262143014935" lon="12.179493091504154"><ele>730.0</ele><time>2026-04-09T11:09:02Z</time></trkpt><trkpt lat="46.04271822966107" lon="12.179365495484532"><ele>730.0</ele><time>2026-04-09T11:09:03Z</time></trkpt><trkpt lat="46.042818423774335" lon="12.17922839298682"><ele>730.0</ele><time>2026-04-09T11:09:04Z</time></trkpt><trkpt lat="46.0429163351414" lon="12.179080982578562"><ele>727.5</ele><time>2026-04-09T11:09:05Z</time></trkpt><trkpt lat="46.04299335403912" lon="12.178927263852325"><ele>725.0</ele><time>2026-04-09T11:09:06Z</time></trkpt><trkpt lat="46.043077229648105" lon="12.178792969393365"><ele>722.5</ele><time>2026-04-09T11:09:07Z</time></trkpt><trkpt lat="46.043162348016686" lon="12.178660266051445"><ele>720.0</ele><time>2026-04-09T11:09:08Z</time></trkpt><trkpt lat="46.04324465094204" lon="12.178519153664967"><ele>719.75</ele><time>2026-04-09T11:09:09Z</time></trkpt><trkpt lat="46.043327082163" lon="12.178386911469524"><ele>719.5</ele><time>2026-04-09T11:09:10Z</time></trkpt><trkpt lat="46.04342799783233" lon="12.178259237242175"><ele>719.25</ele><time>2026-04-09T11:09:11Z</time></trkpt><trkpt lat="46.04354270430293" lon="12.178130638156258"><ele>719.0</ele><time>2026-04-09T11:09:12Z</time></trkpt><trkpt lat="46.043637513543636" lon="12.177989366718915"><ele>719.0</ele><time>2026-04-09T11:09:13Z</time></trkpt><trkpt lat="46.04372248672542" lon="12.177840034655807"><ele>719.0</ele><time>2026-04-09T11:09:14Z</time></trkpt><trkpt lat="46.04380955788611" lon="12.17766859507494"><ele>719.0</ele><time>2026-04-09T11:09:15Z</time></trkpt><trkpt lat="46.04390114898939" lon="12.177469167279419"><ele>719.0</ele><time>2026-04-09T11:09:16Z</time></trkpt><trkpt lat="46.04399605497517" lon="12.177285122493318"><ele>718.0</ele><time>2026-04-09T11:09:17Z</time></trkpt><trkpt lat="46.0440845087539" lon="12.177111660116001"><ele>717.0</ele><time>2026-04-09T11:09:18Z</time></trkpt><trkpt lat="46.0441698552928" lon="12.176941219321765"><ele>716.0</ele><time>2026-04-09T11:09:19Z</time></trkpt><trkpt lat="46.04426351904249" lon="12.17676303696332"><ele>716.0</ele><time>2026-04-09T11:09:19.999Z</time></trkpt><trkpt lat="46.04435039488232" lon="12.176585214033793"><ele>716.0</ele><time>2026-04-09T11:09:20.999Z</time></trkpt><trkpt lat="46.04442360411161" lon="12.176436514111744"><ele>716.0</ele><time>2026-04-09T11:09:21.999Z</time></trkpt><trkpt lat="46.044478439671614" lon="12.17632746009236"><ele>716.0</ele><time>2026-04-09T11:09:22.999Z</time></trkpt><trkpt lat="46.04454693948746" lon="12.1762392769632"><ele>714.8</ele><time>2026-04-09T11:09:23.999Z</time></trkpt><trkpt lat="46.04460453336285" lon="12.176153537549633"><ele>713.5999999999999</ele><time>2026-04-09T11:09:24.999Z</time></trkpt><trkpt lat="46.04467834459132" lon="12.176073523169835"><ele>712.4</ele><time>2026-04-09T11:09:25.999Z</time></trkpt><trkpt lat="46.0447737702296" lon="12.176002471816364"><ele>711.2</ele><time>2026-04-09T11:09:26.999Z</time></trkpt><trkpt lat="46.04487142939452" lon="12.175931725200522"><ele>710.0</ele><time>2026-04-09T11:09:27.999Z</time></trkpt><trkpt lat="46.044969750034575" lon="12.175855398273079"><ele>710.0</ele><time>2026-04-09T11:09:28.999Z</time></trkpt><trkpt lat="46.04508156513335" lon="12.175768305745896"><ele>710.0</ele><time>2026-04-09T11:09:29.999Z</time></trkpt><trkpt lat="46.0451954918494" lon="12.175679568323936"><ele>710.0</ele><time>2026-04-09T11:09:30.999Z</time></trkpt><trkpt lat="46.04530523836846" lon="12.175592428297863"><ele>710.0</ele><time>2026-04-09T11:09:31.999Z</time></trkpt><trkpt lat="46.04540819039264" lon="12.175499334962609"><ele>707.8</ele><time>2026-04-09T11:09:32.999Z</time></trkpt><trkpt lat="46.04549031400745" lon="12.175384946263705"><ele>705.6</ele><time>2026-04-09T11:09:33.999Z</time></trkpt><trkpt lat="46.04556275922737" lon="12.175265681528604"><ele>703.4000000000001</ele><time>2026-04-09T11:09:34.999Z</time></trkpt><trkpt lat="46.045633091489506" lon="12.175150056706679"><ele>701.2</ele><time>2026-04-09T11:09:35.999Z</time></trkpt><trkpt lat="46.04570478500558" lon="12.175031502911953"><ele>699.0</ele><time>2026-04-09T11:09:36.999Z</time></trkpt><trkpt lat="46.045790244976914" lon="12.174922735550949"><ele>696.25</ele><time>2026-04-09T11:09:37.999Z</time></trkpt><trkpt lat="46.04589095267903" lon="12.174824121943015"><ele>693.5</ele><time>2026-04-09T11:09:38.999Z</time></trkpt><trkpt lat="46.04601089922457" lon="12.174739704845923"><ele>690.75</ele><time>2026-04-09T11:09:39.999Z</time></trkpt><trkpt lat="46.046144930232025" lon="12.174655461873652"><ele>688.0</ele><time>2026-04-09T11:09:41Z</time></trkpt><trkpt lat="46.046271600114025" lon="12.174587717770313"><ele>688.0</ele><time>2026-04-09T11:09:42Z</time></trkpt><trkpt lat="46.04639236354857" lon="12.174511913565011"><ele>688.0</ele><time>2026-04-09T11:09:43Z</time></trkpt><trkpt lat="46.04651461511971" lon="12.174420162178205"><ele>688.0</ele><time>2026-04-09T11:09:44Z</time></trkpt><trkpt lat="46.04663617375694" lon="12.174310999100463"><ele>688.0</ele><time>2026-04-09T11:09:45Z</time></trkpt><trkpt lat="46.04673771136282" lon="12.174173535424005"><ele>688.0</ele><time>2026-04-09T11:09:46Z</time></trkpt><trkpt lat="46.046834017759984" lon="12.174058874692237"><ele>688.0</ele><time>2026-04-09T11:09:47Z</time></trkpt><trkpt lat="46.04691981693042" lon="12.173934977850298"><ele>688.0</ele><time>2026-04-09T11:09:48Z</time></trkpt><trkpt lat="46.04702018466632" lon="12.17381610074468"><ele>688.0</ele><time>2026-04-09T11:09:49Z</time></trkpt><trkpt lat="46.04709955081176" lon="12.173652977286368"><ele>685.75</ele><time>2026-04-09T11:09:50Z</time></trkpt><trkpt lat="46.04719753699971" lon="12.173507258387557"><ele>683.5</ele><time>2026-04-09T11:09:51Z</time></trkpt><trkpt lat="46.04728598069825" lon="12.173366520606342"><ele>681.25</ele><time>2026-04-09T11:09:52Z</time></trkpt><trkpt lat="46.0473652042399" lon="12.173237115301754"><ele>679.0</ele><time>2026-04-09T11:09:53Z</time></trkpt><trkpt lat="46.04742814857639" lon="12.173140462081122"><ele>678.6666666666667</ele><time>2026-04-09T11:09:54Z</time></trkpt><trkpt lat="46.047477585785884" lon="12.173044649269016"><ele>678.3333333333334</ele><time>2026-04-09T11:09:55Z</time></trkpt><trkpt lat="46.047505189995796" lon="12.17293095900836"><ele>678.0</ele><time>2026-04-09T11:09:56Z</time></trkpt><trkpt lat="46.04750719509436" lon="12.172818327312589"><ele>677.6666666666666</ele><time>2026-04-09T11:09:57Z</time></trkpt><trkpt lat="46.0474964211972" lon="12.172706275797958"><ele>677.3333333333333</ele><time>2026-04-09T11:09:58Z</time></trkpt><trkpt lat="46.047472970836026" lon="12.172606594511466"><ele>677.0</ele><time>2026-04-09T11:09:59Z</time></trkpt><trkpt lat="46.04743135340202" lon="12.172515525004004"><ele>676.3333333333333</ele><time>2026-04-09T11:10:00Z</time></trkpt><trkpt lat="46.04737411363858" lon="12.172436585468699"><ele>675.6666666666666</ele><time>2026-04-09T11:10:01Z</time></trkpt><trkpt lat="46.047308521244176" lon="12.172373079205602"><ele>675.0</ele><time>2026-04-09T11:10:02Z</time></trkpt><trkpt lat="46.04723413546787" lon="12.172318533931158"><ele>674.3333333333334</ele><time>2026-04-09T11:10:03Z</time></trkpt><trkpt lat="46.04714590893895" lon="12.172267514624107"><ele>673.6666666666667</ele><time>2026-04-09T11:10:04Z</time></trkpt><trkpt lat="46.047055719401094" lon="12.172211739471011"><ele>673.0</ele><time>2026-04-09T11:10:05Z</time></trkpt><trkpt lat="46.04695445815212" lon="12.172148260954469"><ele>672.0</ele><time>2026-04-09T11:10:06Z</time></trkpt><trkpt lat="46.04681795046203" lon="12.172057767084647"><ele>671.0</ele><time>2026-04-09T11:10:07Z</time></trkpt><trkpt lat="46.046695436738915" lon="12.171978826494872"><ele>670.0</ele><time>2026-04-09T11:10:08Z</time></trkpt><trkpt lat="46.04657094610164" lon="12.171893732429801"><ele>669.0</ele><time>2026-04-09T11:10:09Z</time></trkpt><trkpt lat="46.04643625750053" lon="12.171801603971224"><ele>668.0</ele><time>2026-04-09T11:10:10Z</time></trkpt><trkpt lat="46.046301812856" lon="12.171708989488442"><ele>667.0</ele><time>2026-04-09T11:10:11Z</time></trkpt><trkpt lat="46.04618055695245" lon="12.171621627054625"><ele>666.0</ele><time>2026-04-09T11:10:12Z</time></trkpt><trkpt lat="46.04605696525954" lon="12.171539764430074"><ele>665.0</ele><time>2026-04-09T11:10:13Z</time></trkpt><trkpt lat="46.04592919474289" lon="12.171451671022957"><ele>665.0</ele><time>2026-04-09T11:10:14Z</time></trkpt><trkpt lat="46.04583480209531" lon="12.17138665359159"><ele>665.0</ele><time>2026-04-09T11:10:15Z</time></trkpt><trkpt lat="46.045741412121835" lon="12.171317395265454"><ele>665.0</ele><time>2026-04-09T11:10:17Z</time></trkpt><trkpt lat="46.04566127213163" lon="12.171252638819949"><ele>665.0</ele><time>2026-04-09T11:10:19Z</time></trkpt><trkpt lat="46.04559193632907" lon="12.171219642507245"><ele>665.0</ele><time>2026-04-09T11:10:20Z</time></trkpt><trkpt lat="46.045524019616686" lon="12.171163780272044"><ele>664.0</ele><time>2026-04-09T11:10:21Z</time></trkpt><trkpt lat="46.045423732124675" lon="12.171147741823534"><ele>663.0</ele><time>2026-04-09T11:10:22Z</time></trkpt><trkpt lat="46.04531041686473" lon="12.171093392209238"><ele>662.0</ele><time>2026-04-09T11:10:23Z</time></trkpt><trkpt lat="46.04518839671455" lon="12.1710213557185"><ele>661.0</ele><time>2026-04-09T11:10:24Z</time></trkpt><trkpt lat="46.04507998837261" lon="12.170953414151068"><ele>661.0</ele><time>2026-04-09T11:10:25Z</time></trkpt><trkpt lat="46.0449658909894" lon="12.170888978956535"><ele>661.0</ele><time>2026-04-09T11:10:26Z</time></trkpt><trkpt lat="46.04485106859707" lon="12.170823625319292"><ele>661.0</ele><time>2026-04-09T11:10:27Z</time></trkpt><trkpt lat="46.04473406282782" lon="12.170738240734902"><ele>661.0</ele><time>2026-04-09T11:10:28Z</time></trkpt><trkpt lat="46.04462691254613" lon="12.17064011412693"><ele>660.5</ele><time>2026-04-09T11:10:29Z</time></trkpt><trkpt lat="46.04454976463269" lon="12.170523373233324"><ele>660.0</ele><time>2026-04-09T11:10:30Z</time></trkpt><trkpt lat="46.04447815103655" lon="12.170387243021189"><ele>659.5</ele><time>2026-04-09T11:10:31Z</time></trkpt><trkpt lat="46.04439980810328" lon="12.170227266448771"><ele>659.0</ele><time>2026-04-09T11:10:32Z</time></trkpt><trkpt lat="46.044319318134676" lon="12.170042708860235"><ele>659.6666666666666</ele><time>2026-04-09T11:10:33Z</time></trkpt><trkpt lat="46.04422867583845" lon="12.169840121423478"><ele>660.3333333333334</ele><time>2026-04-09T11:10:34Z</time></trkpt><trkpt lat="46.04413771881781" lon="12.16963587649677"><ele>661.0</ele><time>2026-04-09T11:10:35Z</time></trkpt><trkpt lat="46.04406046413605" lon="12.169450926317495"><ele>659.3333333333334</ele><time>2026-04-09T11:10:36Z</time></trkpt><trkpt lat="46.043984574532814" lon="12.169263867596582"><ele>657.6666666666666</ele><time>2026-04-09T11:10:37Z</time></trkpt><trkpt lat="46.04391337886943" lon="12.169049164759583"><ele>656.0</ele><time>2026-04-09T11:10:38Z</time></trkpt><trkpt lat="46.04384513663309" lon="12.168819972272"><ele>656.0</ele><time>2026-04-09T11:10:39Z</time></trkpt><trkpt lat="46.04378149281209" lon="12.168611814003874"><ele>656.0</ele><time>2026-04-09T11:10:40Z</time></trkpt><trkpt lat="46.043707716553904" lon="12.168406824680645"><ele>656.0</ele><time>2026-04-09T11:10:41Z</time></trkpt><trkpt lat="46.04362043891273" lon="12.168216200776774"><ele>656.25</ele><time>2026-04-09T11:10:42Z</time></trkpt><trkpt lat="46.043532537010925" lon="12.168046925487058"><ele>656.5</ele><time>2026-04-09T11:10:43Z</time></trkpt><trkpt lat="46.0434567910231" lon="12.167902562821011"><ele>656.75</ele><time>2026-04-09T11:10:44Z</time></trkpt><trkpt lat="46.04338386539726" lon="12.167761523402929"><ele>657.0</ele><time>2026-04-09T11:10:45Z</time></trkpt><trkpt lat="46.0433064807755" lon="12.167615630480228"><ele>653.0</ele><time>2026-04-09T11:10:46Z</time></trkpt><trkpt lat="46.04322320479968" lon="12.167447391421575"><ele>649.0</ele><time>2026-04-09T11:10:47Z</time></trkpt><trkpt lat="46.04313366076458" lon="12.167266906190964"><ele>645.0</ele><time>2026-04-09T11:10:48Z</time></trkpt><trkpt lat="46.043036983251845" lon="12.167088134909644"><ele>644.25</ele><time>2026-04-09T11:10:49Z</time></trkpt><trkpt lat="46.04295009933049" lon="12.166915184878883"><ele>643.5</ele><time>2026-04-09T11:10:50Z</time></trkpt><trkpt lat="46.04287628943968" lon="12.166733747478483"><ele>642.75</ele><time>2026-04-09T11:10:51Z</time></trkpt><trkpt lat="46.04281551403243" lon="12.166545793676644"><ele>642.0</ele><time>2026-04-09T11:10:52Z</time></trkpt><trkpt lat="46.04277134716152" lon="12.166358951009439"><ele>640.75</ele><time>2026-04-09T11:10:53Z</time></trkpt><trkpt lat="46.04273752913328" lon="12.166189494025636"><ele>639.5</ele><time>2026-04-09T11:10:54Z</time></trkpt><trkpt lat="46.042704184220675" lon="12.166029521264228"><ele>638.25</ele><time>2026-04-09T11:10:55Z</time></trkpt><trkpt lat="46.04267617707754" lon="12.165879614999898"><ele>637.0</ele><time>2026-04-09T11:10:56Z</time></trkpt><trkpt lat="46.042664704280206" lon="12.165726181545999"><ele>634.2</ele><time>2026-04-09T11:10:57Z</time></trkpt><trkpt lat="46.0426974018068" lon="12.165570766332383"><ele>631.4000000000001</ele><time>2026-04-09T11:10:58Z</time></trkpt><trkpt lat="46.0427122736666" lon="12.165412138255501"><ele>628.5999999999999</ele><time>2026-04-09T11:10:59Z</time></trkpt><trkpt lat="46.04274025432664" lon="12.165275030114675"><ele>625.8</ele><time>2026-04-09T11:11:00Z</time></trkpt><trkpt lat="46.042780489531175" lon="12.165145887837973"><ele>623.0</ele><time>2026-04-09T11:11:01Z</time></trkpt><trkpt lat="46.042839559249714" lon="12.16502768733922"><ele>623.0</ele><time>2026-04-09T11:11:02Z</time></trkpt><trkpt lat="46.04290619828677" lon="12.16489471337686"><ele>623.0</ele><time>2026-04-09T11:11:03Z</time></trkpt><trkpt lat="46.04297052920051" lon="12.164780558670781"><ele>623.0</ele><time>2026-04-09T11:11:04Z</time></trkpt><trkpt lat="46.04303509719786" lon="12.164688816721391"><ele>623.0</ele><time>2026-04-09T11:11:05Z</time></trkpt><trkpt lat="46.04309556079921" lon="12.164615768883078"><ele>623.0</ele><time>2026-04-09T11:11:06Z</time></trkpt><trkpt lat="46.043171374006995" lon="12.164489329784912"><ele>620.8</ele><time>2026-04-09T11:11:08Z</time></trkpt><trkpt lat="46.043114769383244" lon="12.164328891271625"><ele>618.5999999999999</ele><time>2026-04-09T11:11:10Z</time></trkpt><trkpt lat="46.04298784101129" lon="12.164317952399553"><ele>616.4000000000001</ele><time>2026-04-09T11:11:12Z</time></trkpt><trkpt lat="46.04291561109121" lon="12.16438803434493"><ele>614.2</ele><time>2026-04-09T11:11:13Z</time></trkpt><trkpt lat="46.04284282193763" lon="12.164459889764442"><ele>612.0</ele><time>2026-04-09T11:11:14Z</time></trkpt><trkpt lat="46.04276392566161" lon="12.164528254663116"><ele>612.0</ele><time>2026-04-09T11:11:15Z</time></trkpt><trkpt lat="46.04267376255241" lon="12.164604223032446"><ele>612.0</ele><time>2026-04-09T11:11:16Z</time></trkpt><trkpt lat="46.042570968626876" lon="12.164680336613243"><ele>612.0</ele><time>2026-04-09T11:11:17Z</time></trkpt><trkpt lat="46.04246105873089" lon="12.164760804254238"><ele>612.0</ele><time>2026-04-09T11:11:18Z</time></trkpt><trkpt lat="46.042359926262996" lon="12.164848321246666"><ele>611.4</ele><time>2026-04-09T11:11:19Z</time></trkpt><trkpt lat="46.04226127070425" lon="12.164926334110076"><ele>610.8000000000001</ele><time>2026-04-09T11:11:19.999Z</time></trkpt><trkpt lat="46.04215539782449" lon="12.16499470732428"><ele>610.2</ele><time>2026-04-09T11:11:20.999Z</time></trkpt><trkpt lat="46.042064471092836" lon="12.165061798803444"><ele>609.6</ele><time>2026-04-09T11:11:21.999Z</time></trkpt><trkpt lat="46.04198161024377" lon="12.165084857755499"><ele>609.0</ele><time>2026-04-09T11:11:22.999Z</time></trkpt><trkpt lat="46.04191924640785" lon="12.165137282222751"><ele>609.0</ele><time>2026-04-09T11:11:23.999Z</time></trkpt><trkpt lat="46.041856416023606" lon="12.165125797939456"><ele>609.0</ele><time>2026-04-09T11:11:24.999Z</time></trkpt><trkpt lat="46.04178849397715" lon="12.16497829987629"><ele>609.0</ele><time>2026-04-09T11:11:26.999Z</time></trkpt><trkpt lat="46.04179355763306" lon="12.164880044347095"><ele>609.0</ele><time>2026-04-09T11:11:27.999Z</time></trkpt><trkpt lat="46.04184940885149" lon="12.164790341644514"><ele>609.0</ele><time>2026-04-09T11:11:28.999Z</time></trkpt><trkpt lat="46.04189955670456" lon="12.164660213332246"><ele>609.0</ele><time>2026-04-09T11:11:29.999Z</time></trkpt><trkpt lat="46.04195853916757" lon="12.164511266506945"><ele>606.5</ele><time>2026-04-09T11:11:30.999Z</time></trkpt><trkpt lat="46.042019849513274" lon="12.164345329617007"><ele>604.0</ele><time>2026-04-09T11:11:31.999Z</time></trkpt><trkpt lat="46.042073682099556" lon="12.164189676059658"><ele>601.5</ele><time>2026-04-09T11:11:32.999Z</time></trkpt><trkpt lat="46.04212769185063" lon="12.164041771966039"><ele>599.0</ele><time>2026-04-09T11:11:33.999Z</time></trkpt><trkpt lat="46.04219096638948" lon="12.163904325901374"><ele>597.6</ele><time>2026-04-09T11:11:34.999Z</time></trkpt><trkpt lat="46.04227770038734" lon="12.163785557401626"><ele>596.2</ele><time>2026-04-09T11:11:35.999Z</time></trkpt><trkpt lat="46.04234488346257" lon="12.16365845178066"><ele>594.8000000000001</ele><time>2026-04-09T11:11:36.999Z</time></trkpt><trkpt lat="46.04241385201261" lon="12.163572837074502"><ele>593.4</ele><time>2026-04-09T11:11:37.999Z</time></trkpt><trkpt lat="46.04245998933458" lon="12.163495237348856"><ele>592.0</ele><time>2026-04-09T11:11:38.999Z</time></trkpt><trkpt lat="46.042457015113136" lon="12.163325611094287"><ele>592.0</ele><time>2026-04-09T11:11:40.999Z</time></trkpt><trkpt lat="46.042341201948155" lon="12.163222811667653"><ele>592.0</ele><time>2026-04-09T11:11:42.999Z</time></trkpt><trkpt lat="46.042264277641685" lon="12.163233809716086"><ele>592.0</ele><time>2026-04-09T11:11:43.999Z</time></trkpt><trkpt lat="46.04218120734507" lon="12.163253023208409"><ele>592.0</ele><time>2026-04-09T11:11:44.999Z</time></trkpt><trkpt lat="46.04208214429658" lon="12.163285374178582"><ele>592.0</ele><time>2026-04-09T11:11:45.999Z</time></trkpt><trkpt lat="46.041964055176194" lon="12.163328323019396"><ele>592.0</ele><time>2026-04-09T11:11:47Z</time></trkpt><trkpt lat="46.04185112843503" lon="12.163363355555633"><ele>592.0</ele><time>2026-04-09T11:11:48Z</time></trkpt><trkpt lat="46.041724560371996" lon="12.163394453049188"><ele>592.0</ele><time>2026-04-09T11:11:49Z</time></trkpt><trkpt lat="46.041593287997095" lon="12.163425696133245"><ele>592.0</ele><time>2026-04-09T11:11:50Z</time></trkpt><trkpt lat="46.04146755752425" lon="12.163458956615601"><ele>588.75</ele><time>2026-04-09T11:11:51Z</time></trkpt><trkpt lat="46.041348621878114" lon="12.163486144261586"><ele>585.5</ele><time>2026-04-09T11:11:52Z</time></trkpt><trkpt lat="46.04123813015095" lon="12.16353330253497"><ele>582.25</ele><time>2026-04-09T11:11:53Z</time></trkpt><trkpt lat="46.04113405706633" lon="12.163590778745391"><ele>579.0</ele><time>2026-04-09T11:11:54Z</time></trkpt><trkpt lat="46.04103671838584" lon="12.163654616272638"><ele>579.0</ele><time>2026-04-09T11:11:55Z</time></trkpt><trkpt lat="46.040953618131866" lon="12.163717247836756"><ele>579.0</ele><time>2026-04-09T11:11:56Z</time></trkpt><trkpt lat="46.04088123662747" lon="12.163773751838312"><ele>579.0</ele><time>2026-04-09T11:11:57Z</time></trkpt><trkpt lat="46.040805431689094" lon="12.163809917489377"><ele>579.0</ele><time>2026-04-09T11:11:58Z</time></trkpt><trkpt lat="46.0407266481508" lon="12.16381043905655"><ele>579.0</ele><time>2026-04-09T11:11:59Z</time></trkpt><trkpt lat="46.04065181738087" lon="12.163785854283555"><ele>579.0</ele><time>2026-04-09T11:12:00Z</time></trkpt><trkpt lat="46.04058732746027" lon="12.1637387481608"><ele>578.6666666666666</ele><time>2026-04-09T11:12:01Z</time></trkpt><trkpt lat="46.04051653356835" lon="12.163761763482844"><ele>578.3333333333334</ele><time>2026-04-09T11:12:02Z</time></trkpt><trkpt lat="46.040449646235906" lon="12.163812004723233"><ele>578.0</ele><time>2026-04-09T11:12:03Z</time></trkpt><trkpt lat="46.04037991211354" lon="12.163883134628483"><ele>577.6666666666667</ele><time>2026-04-09T11:12:04Z</time></trkpt><trkpt lat="46.04031393291762" lon="12.163956117676266"><ele>577.3333333333334</ele><time>2026-04-09T11:12:05Z</time></trkpt><trkpt lat="46.0402534354352" lon="12.164016355620658"><ele>577.0</ele><time>2026-04-09T11:12:06Z</time></trkpt><trkpt lat="46.04019265980638" lon="12.164073125306913"><ele>577.0</ele><time>2026-04-09T11:12:07Z</time></trkpt><trkpt lat="46.040128520092544" lon="12.164128722695137"><ele>577.0</ele><time>2026-04-09T11:12:08Z</time></trkpt><trkpt lat="46.04005858700761" lon="12.164183938990833"><ele>577.0</ele><time>2026-04-09T11:12:09Z</time></trkpt><trkpt lat="46.039983514452295" lon="12.164220028619669"><ele>577.0</ele><time>2026-04-09T11:12:10Z</time></trkpt><trkpt lat="46.03990993369715" lon="12.164224501510672"><ele>577.0</ele><time>2026-04-09T11:12:11Z</time></trkpt><trkpt lat="46.039834264217355" lon="12.164208724668564"><ele>577.0</ele><time>2026-04-09T11:12:12Z</time></trkpt><trkpt lat="46.039759194508704" lon="12.164159695988694"><ele>575.25</ele><time>2026-04-09T11:12:13Z</time></trkpt><trkpt lat="46.03968055905364" lon="12.164085678541158"><ele>573.5</ele><time>2026-04-09T11:12:14Z</time></trkpt><trkpt lat="46.039600171073864" lon="12.163975476743518"><ele>571.75</ele><time>2026-04-09T11:12:15Z</time></trkpt><trkpt lat="46.03951570945326" lon="12.163839991374934"><ele>570.0</ele><time>2026-04-09T11:12:16Z</time></trkpt><trkpt lat="46.039439893311815" lon="12.163707808075575"><ele>570.0</ele><time>2026-04-09T11:12:17Z</time></trkpt><trkpt lat="46.039348331622776" lon="12.1635709343589"><ele>570.0</ele><time>2026-04-09T11:12:18Z</time></trkpt><trkpt lat="46.0392530386854" lon="12.163415457982616"><ele>570.0</ele><time>2026-04-09T11:12:19Z</time></trkpt><trkpt lat="46.039182881653815" lon="12.163236828144328"><ele>570.0</ele><time>2026-04-09T11:12:20Z</time></trkpt><trkpt lat="46.03909642284243" lon="12.163083162013853"><ele>568.0</ele><time>2026-04-09T11:12:21Z</time></trkpt><trkpt lat="46.039003904060074" lon="12.162952097795259"><ele>566.0</ele><time>2026-04-09T11:12:22Z</time></trkpt><trkpt lat="46.03893344265072" lon="12.162813899775482"><ele>564.0</ele><time>2026-04-09T11:12:23Z</time></trkpt><trkpt lat="46.038872263822455" lon="12.16268345145275"><ele>562.0</ele><time>2026-04-09T11:12:24Z</time></trkpt><trkpt lat="46.03881673052335" lon="12.162559465422856"><ele>562.0</ele><time>2026-04-09T11:12:25Z</time></trkpt><trkpt lat="46.03877748116383" lon="12.162462109306144"><ele>562.0</ele><time>2026-04-09T11:12:26Z</time></trkpt><trkpt lat="46.03871836513183" lon="12.162323409343662"><ele>562.0</ele><time>2026-04-09T11:12:28Z</time></trkpt><trkpt lat="46.038680500873255" lon="12.16224808517118"><ele>562.0</ele><time>2026-04-09T11:12:36Z</time></trkpt><trkpt lat="46.038604337478986" lon="12.16223673660272"><ele>562.0</ele><time>2026-04-09T11:12:39Z</time></trkpt><trkpt lat="46.03852562375953" lon="12.162371855021954"><ele>562.0</ele><time>2026-04-09T11:12:41Z</time></trkpt><trkpt lat="46.038459022947826" lon="12.162474222478204"><ele>562.0</ele><time>2026-04-09T11:12:42Z</time></trkpt><trkpt lat="46.03839400807697" lon="12.162556411285099"><ele>562.0</ele><time>2026-04-09T11:12:43Z</time></trkpt><trkpt lat="46.03833723410026" lon="12.16263076749495"><ele>562.0</ele><time>2026-04-09T11:12:44Z</time></trkpt><trkpt lat="46.038293549253915" lon="12.162727398493747"><ele>562.0</ele><time>2026-04-09T11:12:45Z</time></trkpt><trkpt lat="46.038276323103915" lon="12.162836081397113"><ele>562.0</ele><time>2026-04-09T11:12:46Z</time></trkpt><trkpt lat="46.038280125936055" lon="12.162946541210228"><ele>562.0</ele><time>2026-04-09T11:12:47Z</time></trkpt><trkpt lat="46.038310220352656" lon="12.163063222260773"><ele>562.0</ele><time>2026-04-09T11:12:48Z</time></trkpt><trkpt lat="46.03837259840046" lon="12.16319248312649"><ele>562.0</ele><time>2026-04-09T11:12:49Z</time></trkpt><trkpt lat="46.03846694825402" lon="12.163361802241731"><ele>562.0</ele><time>2026-04-09T11:12:50Z</time></trkpt><trkpt lat="46.03855989551433" lon="12.163530518225096"><ele>560.0</ele><time>2026-04-09T11:12:51Z</time></trkpt><trkpt lat="46.038645446306155" lon="12.163703954557597"><ele>558.0</ele><time>2026-04-09T11:12:52Z</time></trkpt><trkpt lat="46.03874175583867" lon="12.163890278510884"><ele>556.0</ele><time>2026-04-09T11:12:53Z</time></trkpt><trkpt lat="46.03884384536315" lon="12.164073258648239"><ele>553.2</ele><time>2026-04-09T11:12:54Z</time></trkpt><trkpt lat="46.038921557332365" lon="12.164231763008743"><ele>550.4000000000001</ele><time>2026-04-09T11:12:55Z</time></trkpt><trkpt lat="46.038992169734556" lon="12.164364390059918"><ele>547.6</ele><time>2026-04-09T11:12:56Z</time></trkpt><trkpt lat="46.03904520994035" lon="12.164471696970004"><ele>544.8000000000001</ele><time>2026-04-09T11:12:57Z</time></trkpt><trkpt lat="46.03906936815535" lon="12.164598698709328"><ele>542.0</ele><time>2026-04-09T11:12:58Z</time></trkpt><trkpt lat="46.039047943681105" lon="12.164735142901648"><ele>540.6</ele><time>2026-04-09T11:12:59Z</time></trkpt><trkpt lat="46.039017339952686" lon="12.164866479944743"><ele>539.2</ele><time>2026-04-09T11:13:00Z</time></trkpt><trkpt lat="46.03895877550398" lon="12.165001963442773"><ele>537.8</ele><time>2026-04-09T11:13:01Z</time></trkpt><trkpt lat="46.038898532754196" lon="12.165141576743418"><ele>536.4</ele><time>2026-04-09T11:13:02Z</time></trkpt><trkpt lat="46.03883562858435" lon="12.165283100422412"><ele>535.0</ele><time>2026-04-09T11:13:03Z</time></trkpt><trkpt lat="46.03876952216495" lon="12.16544060179122"><ele>535.0</ele><time>2026-04-09T11:13:04Z</time></trkpt><trkpt lat="46.038704471292945" lon="12.165595763275244"><ele>535.0</ele><time>2026-04-09T11:13:05Z</time></trkpt><trkpt lat="46.03866068553162" lon="12.165726897390922"><ele>535.0</ele><time>2026-04-09T11:13:06Z</time></trkpt><trkpt lat="46.03863847430982" lon="12.16584689273386"><ele>535.0</ele><time>2026-04-09T11:13:07Z</time></trkpt><trkpt lat="46.03861934075308" lon="12.165946540690141"><ele>535.0</ele><time>2026-04-09T11:13:08Z</time></trkpt><trkpt lat="46.03861672715824" lon="12.166103358749279"><ele>535.0</ele><time>2026-04-09T11:13:10Z</time></trkpt><trkpt lat="46.038518851466854" lon="12.166156835242353"><ele>535.0</ele><time>2026-04-09T11:13:12Z</time></trkpt><trkpt lat="46.03848256888471" lon="12.166082646868913"><ele>535.0</ele><time>2026-04-09T11:13:12.999Z</time></trkpt><trkpt lat="46.0384818398335" lon="12.16598561720342"><ele>535.0</ele><time>2026-04-09T11:13:13.999Z</time></trkpt><trkpt lat="46.03852055271895" lon="12.165873012505775"><ele>535.0</ele><time>2026-04-09T11:13:14.999Z</time></trkpt><trkpt lat="46.03857129817926" lon="12.165730759302413"><ele>535.0</ele><time>2026-04-09T11:13:15.999Z</time></trkpt><trkpt lat="46.03861413965169" lon="12.165578758232014"><ele>535.0</ele><time>2026-04-09T11:13:16.999Z</time></trkpt><trkpt lat="46.03865782126786" lon="12.165422412205976"><ele>535.0</ele><time>2026-04-09T11:13:17.999Z</time></trkpt><trkpt lat="46.03869635082825" lon="12.165245994725183"><ele>535.0</ele><time>2026-04-09T11:13:18.999Z</time></trkpt><trkpt lat="46.038706879972864" lon="12.165082614726234"><ele>535.0</ele><time>2026-04-09T11:13:19.999Z</time></trkpt><trkpt lat="46.03868816642043" lon="12.16491177250215"><ele>536.75</ele><time>2026-04-09T11:13:20.999Z</time></trkpt><trkpt lat="46.038646947385104" lon="12.164717877460648"><ele>538.5</ele><time>2026-04-09T11:13:21.999Z</time></trkpt><trkpt lat="46.03860408909444" lon="12.164538232089853"><ele>540.25</ele><time>2026-04-09T11:13:22.999Z</time></trkpt><trkpt lat="46.03855946192894" lon="12.164384299825349"><ele>542.0</ele><time>2026-04-09T11:13:23.999Z</time></trkpt><trkpt lat="46.0385272829981" lon="12.164235305877696"><ele>542.0</ele><time>2026-04-09T11:13:24.999Z</time></trkpt><trkpt lat="46.038428142923756" lon="12.164121279785292"><ele>542.0</ele><time>2026-04-09T11:13:25.999Z</time></trkpt><trkpt lat="46.03832732886852" lon="12.163998817533383"><ele>542.0</ele><time>2026-04-09T11:13:26.999Z</time></trkpt><trkpt lat="46.03822118078298" lon="12.163882343963714"><ele>542.0</ele><time>2026-04-09T11:13:27.999Z</time></trkpt><trkpt lat="46.03812729288301" lon="12.163789919101847"><ele>537.8000000000001</ele><time>2026-04-09T11:13:28.999Z</time></trkpt><trkpt lat="46.03807597357133" lon="12.163694420374823"><ele>533.6</ele><time>2026-04-09T11:13:29.999Z</time></trkpt><trkpt lat="46.03803159722149" lon="12.16362170080198"><ele>529.4000000000001</ele><time>2026-04-09T11:13:30.999Z</time></trkpt><trkpt lat="46.037943781207844" lon="12.163555342219682"><ele>525.2</ele><time>2026-04-09T11:13:32.999Z</time></trkpt><trkpt lat="46.03785402510406" lon="12.163678213042157"><ele>521.0</ele><time>2026-04-09T11:13:34.999Z</time></trkpt><trkpt lat="46.03791601345594" lon="12.16384746154547"><ele>521.0</ele><time>2026-04-09T11:13:36.999Z</time></trkpt><trkpt lat="46.038006948800444" lon="12.163938365320194"><ele>521.0</ele><time>2026-04-09T11:13:37.999Z</time></trkpt><trkpt lat="46.03807630938192" lon="12.16403184337154"><ele>521.0</ele><time>2026-04-09T11:13:38.999Z</time></trkpt><trkpt lat="46.038145590308176" lon="12.16416010961929"><ele>521.0</ele><time>2026-04-09T11:13:39.999Z</time></trkpt><trkpt lat="46.03818706794155" lon="12.164303217301237"><ele>521.0</ele><time>2026-04-09T11:13:40.999Z</time></trkpt><trkpt lat="46.03819468917867" lon="12.164459213662475"><ele>518.75</ele><time>2026-04-09T11:13:41.999Z</time></trkpt><trkpt lat="46.0381775662758" lon="12.164644256035343"><ele>516.5</ele><time>2026-04-09T11:13:42.999Z</time></trkpt><trkpt lat="46.03815501449749" lon="12.164836287784972"><ele>514.25</ele><time>2026-04-09T11:13:43.999Z</time></trkpt><trkpt lat="46.03813990248904" lon="12.165034231233022"><ele>512.0</ele><time>2026-04-09T11:13:44.999Z</time></trkpt><trkpt lat="46.038116204680534" lon="12.165261270818055"><ele>512.5</ele><time>2026-04-09T11:13:45.999Z</time></trkpt><trkpt lat="46.03808138984676" lon="12.165451449973862"><ele>513.0</ele><time>2026-04-09T11:13:46.999Z</time></trkpt><trkpt lat="46.03802865783554" lon="12.165624348597424"><ele>513.5</ele><time>2026-04-09T11:13:47.999Z</time></trkpt><trkpt lat="46.03796081071771" lon="12.165784580153117"><ele>514.0</ele><time>2026-04-09T11:13:48.999Z</time></trkpt><trkpt lat="46.03787147165906" lon="12.16596108007491"><ele>514.0</ele><time>2026-04-09T11:13:49.999Z</time></trkpt><trkpt lat="46.03775280568754" lon="12.166155659986607"><ele>514.0</ele><time>2026-04-09T11:13:50.999Z</time></trkpt><trkpt lat="46.037626763012064" lon="12.166335051329778"><ele>514.0</ele><time>2026-04-09T11:13:51.999Z</time></trkpt><trkpt lat="46.03749262193396" lon="12.166523194020467"><ele>512.3333333333334</ele><time>2026-04-09T11:13:53Z</time></trkpt><trkpt lat="46.03735118037975" lon="12.166716294795897"><ele>510.66666666666663</ele><time>2026-04-09T11:13:54Z</time></trkpt><trkpt lat="46.03722325272425" lon="12.166909219565197"><ele>509.0</ele><time>2026-04-09T11:13:55Z</time></trkpt><trkpt lat="46.03708929365279" lon="12.16708473124091"><ele>509.0</ele><time>2026-04-09T11:13:56Z</time></trkpt><trkpt lat="46.03699186237945" lon="12.167276502435822"><ele>509.0</ele><time>2026-04-09T11:13:57Z</time></trkpt><trkpt lat="46.03690929093893" lon="12.167412141958296"><ele>509.0</ele><time>2026-04-09T11:13:58Z</time></trkpt><trkpt lat="46.036843076504496" lon="12.16751083604184"><ele>509.0</ele><time>2026-04-09T11:13:59Z</time></trkpt><trkpt lat="46.03677075484562" lon="12.167592927121778"><ele>509.79999999999995</ele><time>2026-04-09T11:14:00Z</time></trkpt><trkpt lat="46.03669175378478" lon="12.167649091159712"><ele>510.59999999999997</ele><time>2026-04-09T11:14:01Z</time></trkpt><trkpt lat="46.03660864023622" lon="12.167655886038826"><ele>511.4</ele><time>2026-04-09T11:14:02Z</time></trkpt><trkpt lat="46.036525439694785" lon="12.167610730827471"><ele>512.1999999999999</ele><time>2026-04-09T11:14:03Z</time></trkpt><trkpt lat="46.03643351675623" lon="12.167523537081815"><ele>513.0</ele><time>2026-04-09T11:14:04Z</time></trkpt><trkpt lat="46.0363410206524" lon="12.167394376313258"><ele>516.25</ele><time>2026-04-09T11:14:05Z</time></trkpt><trkpt lat="46.03622710351316" lon="12.167274350260044"><ele>519.5</ele><time>2026-04-09T11:14:06Z</time></trkpt><trkpt lat="46.03612320486817" lon="12.167165968547545"><ele>522.75</ele><time>2026-04-09T11:14:07Z</time></trkpt><trkpt lat="46.03601466464571" lon="12.167053943151934"><ele>526.0</ele><time>2026-04-09T11:14:08Z</time></trkpt><trkpt lat="46.035903738856774" lon="12.166956157822202"><ele>526.0</ele><time>2026-04-09T11:14:09Z</time></trkpt><trkpt lat="46.035817585011145" lon="12.166889448924586"><ele>526.0</ele><time>2026-04-09T11:14:10Z</time></trkpt><trkpt lat="46.035738929306596" lon="12.16688111829235"><ele>526.0</ele><time>2026-04-09T11:14:11Z</time></trkpt><trkpt lat="46.035664980099064" lon="12.166864402638584"><ele>526.0</ele><time>2026-04-09T11:14:12Z</time></trkpt><trkpt lat="46.03558849994655" lon="12.166986363039346"><ele>526.0</ele><time>2026-04-09T11:14:13Z</time></trkpt><trkpt lat="46.03550160873001" lon="12.167088803307582"><ele>532.8</ele><time>2026-04-09T11:14:14Z</time></trkpt><trkpt lat="46.03540943691044" lon="12.167195195271697"><ele>539.6</ele><time>2026-04-09T11:14:15Z</time></trkpt><trkpt lat="46.03533723987734" lon="12.167293072995648"><ele>546.4</ele><time>2026-04-09T11:14:16Z</time></trkpt><trkpt lat="46.03529994627164" lon="12.167370675997883"><ele>553.2</ele><time>2026-04-09T11:14:17Z</time></trkpt><trkpt lat="46.03523279126064" lon="12.16744565406542"><ele>560.0</ele><time>2026-04-09T11:14:19Z</time></trkpt><trkpt lat="46.03518771201594" lon="12.167319402067895"><ele>561.0</ele><time>2026-04-09T11:14:22Z</time></trkpt><trkpt lat="46.035243208369934" lon="12.16723863937905"><ele>562.0</ele><time>2026-04-09T11:14:23Z</time></trkpt><trkpt lat="46.03532263821279" lon="12.167136152877646"><ele>563.0</ele><time>2026-04-09T11:14:24Z</time></trkpt><trkpt lat="46.035388552147325" lon="12.167017758515724"><ele>564.0</ele><time>2026-04-09T11:14:25Z</time></trkpt><trkpt lat="46.03545534934444" lon="12.166883001503283"><ele>565.0</ele><time>2026-04-09T11:14:26Z</time></trkpt><trkpt lat="46.03554328810101" lon="12.166718223506344"><ele>565.0</ele><time>2026-04-09T11:14:27Z</time></trkpt><trkpt lat="46.03562798749452" lon="12.166566053281034"><ele>565.0</ele><time>2026-04-09T11:14:28Z</time></trkpt><trkpt lat="46.035707192324914" lon="12.16642400983604"><ele>565.0</ele><time>2026-04-09T11:14:29Z</time></trkpt><trkpt lat="46.03576212554735" lon="12.16627745992251"><ele>565.0</ele><time>2026-04-09T11:14:30Z</time></trkpt><trkpt lat="46.035790440490906" lon="12.166109762829711"><ele>566.75</ele><time>2026-04-09T11:14:31Z</time></trkpt><trkpt lat="46.03578844321327" lon="12.165936735113668"><ele>568.5</ele><time>2026-04-09T11:14:32Z</time></trkpt><trkpt lat="46.035752506795326" lon="12.165744752951808"><ele>570.25</ele><time>2026-04-09T11:14:33Z</time></trkpt><trkpt lat="46.035713804884665" lon="12.165523554713348"><ele>572.0</ele><time>2026-04-09T11:14:34Z</time></trkpt><trkpt lat="46.03571744610476" lon="12.165316132760987"><ele>572.0</ele><time>2026-04-09T11:14:35Z</time></trkpt><trkpt lat="46.03575019033318" lon="12.16512053830669"><ele>572.0</ele><time>2026-04-09T11:14:36Z</time></trkpt><trkpt lat="46.03580860323926" lon="12.1649522141217"><ele>572.0</ele><time>2026-04-09T11:14:37Z</time></trkpt><trkpt lat="46.03587365759114" lon="12.16481756932531"><ele>572.0</ele><time>2026-04-09T11:14:38Z</time></trkpt><trkpt lat="46.035893762451984" lon="12.164676614076175"><ele>571.5</ele><time>2026-04-09T11:14:39Z</time></trkpt><trkpt lat="46.035871951466206" lon="12.164523629487078"><ele>571.0</ele><time>2026-04-09T11:14:40Z</time></trkpt><trkpt lat="46.03582194954609" lon="12.164368062919559"><ele>570.5</ele><time>2026-04-09T11:14:41Z</time></trkpt><trkpt lat="46.03573547905353" lon="12.164195417994453"><ele>570.0</ele><time>2026-04-09T11:14:42Z</time></trkpt><trkpt lat="46.03563914456799" lon="12.16398149685912"><ele>567.6666666666666</ele><time>2026-04-09T11:14:43Z</time></trkpt><trkpt lat="46.03554690737501" lon="12.163729909244733"><ele>565.3333333333333</ele><time>2026-04-09T11:14:44Z</time></trkpt><trkpt lat="46.03544591945528" lon="12.163529553735039"><ele>563.0</ele><time>2026-04-09T11:14:45Z</time></trkpt><trkpt lat="46.035372188562306" lon="12.163353450348504"><ele>561.25</ele><time>2026-04-09T11:14:46Z</time></trkpt><trkpt lat="46.0353161461303" lon="12.163183622459833"><ele>559.5</ele><time>2026-04-09T11:14:47Z</time></trkpt><trkpt lat="46.0352773422325" lon="12.163032689878623"><ele>557.75</ele><time>2026-04-09T11:14:48Z</time></trkpt><trkpt lat="46.03527584243395" lon="12.16287127275542"><ele>556.0</ele><time>2026-04-09T11:14:49Z</time></trkpt><trkpt lat="46.03529355241191" lon="12.162692002128711"><ele>556.0</ele><time>2026-04-09T11:14:50Z</time></trkpt><trkpt lat="46.03530685783142" lon="12.162527906327224"><ele>556.0</ele><time>2026-04-09T11:14:51Z</time></trkpt><trkpt lat="46.035295857479774" lon="12.162388919397399"><ele>556.0</ele><time>2026-04-09T11:14:52Z</time></trkpt><trkpt lat="46.03524379496747" lon="12.16226402801128"><ele>556.0</ele><time>2026-04-09T11:14:53Z</time></trkpt><trkpt lat="46.035184064598" lon="12.162155699123291"><ele>556.0</ele><time>2026-04-09T11:14:54Z</time></trkpt><trkpt lat="46.03510077443681" lon="12.162082575323609"><ele>551.25</ele><time>2026-04-09T11:14:55Z</time></trkpt><trkpt lat="46.03499902823004" lon="12.16204425566416"><ele>546.5</ele><time>2026-04-09T11:14:56Z</time></trkpt><trkpt lat="46.034902476907625" lon="12.16196795636877"><ele>541.75</ele><time>2026-04-09T11:14:57Z</time></trkpt><trkpt lat="46.034794593834086" lon="12.16189875290825"><ele>537.0</ele><time>2026-04-09T11:14:58Z</time></trkpt><trkpt lat="46.034672287276614" lon="12.161938814908654"><ele>536.6</ele><time>2026-04-09T11:14:59Z</time></trkpt><trkpt lat="46.03460492698646" lon="12.161911355380878"><ele>536.2</ele><time>2026-04-09T11:15:00Z</time></trkpt><trkpt lat="46.034492690635716" lon="12.161981939319931"><ele>535.8</ele><time>2026-04-09T11:15:02Z</time></trkpt><trkpt lat="46.03445399089406" lon="12.162081198580859"><ele>535.4</ele><time>2026-04-09T11:15:03Z</time></trkpt><trkpt lat="46.03444055837369" lon="12.162214181697875"><ele>535.0</ele><time>2026-04-09T11:15:04Z</time></trkpt><trkpt lat="46.034427899057285" lon="12.162367901425366"><ele>536.75</ele><time>2026-04-09T11:15:05Z</time></trkpt><trkpt lat="46.03439536621345" lon="12.162531410407293"><ele>538.5</ele><time>2026-04-09T11:15:06Z</time></trkpt><trkpt lat="46.034329291397974" lon="12.162667415879437"><ele>540.25</ele><time>2026-04-09T11:15:07Z</time></trkpt><trkpt lat="46.03424308686227" lon="12.162770167798968"><ele>542.0</ele><time>2026-04-09T11:15:08Z</time></trkpt><trkpt lat="46.03413705519162" lon="12.162843043176201"><ele>542.0</ele><time>2026-04-09T11:15:09Z</time></trkpt><trkpt lat="46.03401957614219" lon="12.162882387216936"><ele>542.0</ele><time>2026-04-09T11:15:10Z</time></trkpt><trkpt lat="46.03389890359829" lon="12.162916652841918"><ele>542.0</ele><time>2026-04-09T11:15:11Z</time></trkpt><trkpt lat="46.03379054642359" lon="12.162995140757035"><ele>542.0</ele><time>2026-04-09T11:15:12Z</time></trkpt><trkpt lat="46.033688854363426" lon="12.163143224388323"><ele>544.8000000000001</ele><time>2026-04-09T11:15:13Z</time></trkpt><trkpt lat="46.033594165966875" lon="12.16330278698297"><ele>547.6</ele><time>2026-04-09T11:15:14Z</time></trkpt><trkpt lat="46.03352237212146" lon="12.16341995175316"><ele>550.4000000000001</ele><time>2026-04-09T11:15:15Z</time></trkpt><trkpt lat="46.03345776724993" lon="12.163510727538046"><ele>553.2</ele><time>2026-04-09T11:15:15.999Z</time></trkpt><trkpt lat="46.03338463599574" lon="12.163557660187298"><ele>556.0</ele><time>2026-04-09T11:15:16.999Z</time></trkpt><trkpt lat="46.0333082108482" lon="12.163563576443446"><ele>557.6</ele><time>2026-04-09T11:15:17.999Z</time></trkpt><trkpt lat="46.03323010189783" lon="12.163535377875343"><ele>559.2</ele><time>2026-04-09T11:15:18.999Z</time></trkpt><trkpt lat="46.033151197296476" lon="12.163456573027318"><ele>560.8</ele><time>2026-04-09T11:15:19.999Z</time></trkpt><trkpt lat="46.033065039100165" lon="12.16336807369888"><ele>562.4</ele><time>2026-04-09T11:15:20.999Z</time></trkpt><trkpt lat="46.0329765596442" lon="12.163288940217631"><ele>564.0</ele><time>2026-04-09T11:15:21.999Z</time></trkpt><trkpt lat="46.0328802991529" lon="12.163245429455483"><ele>564.0</ele><time>2026-04-09T11:15:22.999Z</time></trkpt><trkpt lat="46.032772479563924" lon="12.163248779240352"><ele>564.0</ele><time>2026-04-09T11:15:23.999Z</time></trkpt><trkpt lat="46.032643476358196" lon="12.163308900807591"><ele>564.0</ele><time>2026-04-09T11:15:24.999Z</time></trkpt><trkpt lat="46.032494630245665" lon="12.163388526788522"><ele>564.0</ele><time>2026-04-09T11:15:25.999Z</time></trkpt><trkpt lat="46.03237430880997" lon="12.1634275937733"><ele>564.4</ele><time>2026-04-09T11:15:26.999Z</time></trkpt><trkpt lat="46.032279348534544" lon="12.163445502243103"><ele>564.8</ele><time>2026-04-09T11:15:27.999Z</time></trkpt><trkpt lat="46.03219498796915" lon="12.163461013790071"><ele>565.2</ele><time>2026-04-09T11:15:28.999Z</time></trkpt><trkpt lat="46.032109016777376" lon="12.1634743598723"><ele>565.6</ele><time>2026-04-09T11:15:29.999Z</time></trkpt><trkpt lat="46.03199347900013" lon="12.163496882880487"><ele>566.0</ele><time>2026-04-09T11:15:30.999Z</time></trkpt><trkpt lat="46.031846511263964" lon="12.163521960161725"><ele>566.0</ele><time>2026-04-09T11:15:31.999Z</time></trkpt><trkpt lat="46.03171051756773" lon="12.163539458408124"><ele>566.0</ele><time>2026-04-09T11:15:32.999Z</time></trkpt><trkpt lat="46.03156957191593" lon="12.163544553388197"><ele>566.0</ele><time>2026-04-09T11:15:33.999Z</time></trkpt><trkpt lat="46.03139412907004" lon="12.163532653514462"><ele>566.6666666666666</ele><time>2026-04-09T11:15:34.999Z</time></trkpt><trkpt lat="46.03119718520294" lon="12.163513028297844"><ele>567.3333333333334</ele><time>2026-04-09T11:15:35.999Z</time></trkpt><trkpt lat="46.031007264794475" lon="12.163492220242155"><ele>568.0</ele><time>2026-04-09T11:15:36.999Z</time></trkpt><trkpt lat="46.03081669105384" lon="12.163462215480651"><ele>569.0</ele><time>2026-04-09T11:15:37.999Z</time></trkpt><trkpt lat="46.03060342759837" lon="12.163415417982353"><ele>570.0</ele><time>2026-04-09T11:15:38.999Z</time></trkpt><trkpt lat="46.03039010568395" lon="12.163370600985157"><ele>571.0</ele><time>2026-04-09T11:15:39.999Z</time></trkpt><trkpt lat="46.03015195477209" lon="12.16334302622661"><ele>572.6666666666667</ele><time>2026-04-09T11:15:40.999Z</time></trkpt><trkpt lat="46.02993262304126" lon="12.163330248619245"><ele>574.3333333333334</ele><time>2026-04-09T11:15:41.999Z</time></trkpt><trkpt lat="46.02973531060309" lon="12.163329809614632"><ele>576.0</ele><time>2026-04-09T11:15:42.999Z</time></trkpt><trkpt lat="46.02954879953089" lon="12.16331804868243"><ele>576.0</ele><time>2026-04-09T11:15:43.999Z</time></trkpt><trkpt lat="46.0293597631232" lon="12.163277157889327"><ele>576.0</ele><time>2026-04-09T11:15:44.999Z</time></trkpt><trkpt lat="46.02917572362659" lon="12.163196406185914"><ele>576.0</ele><time>2026-04-09T11:15:45.999Z</time></trkpt><trkpt lat="46.02898584852848" lon="12.163090365848625"><ele>576.0</ele><time>2026-04-09T11:15:46.999Z</time></trkpt><trkpt lat="46.02880998324762" lon="12.162970117172732"><ele>576.0</ele><time>2026-04-09T11:15:47.999Z</time></trkpt><trkpt lat="46.02865683182595" lon="12.162869971907234"><ele>576.0</ele><time>2026-04-09T11:15:48.999Z</time></trkpt><trkpt lat="46.028509467697674" lon="12.162807357738151"><ele>576.0</ele><time>2026-04-09T11:15:49.999Z</time></trkpt><trkpt lat="46.028334685487536" lon="12.162774604489353"><ele>576.0</ele><time>2026-04-09T11:15:50.999Z</time></trkpt><trkpt lat="46.028133419834056" lon="12.162746025754563"><ele>576.0</ele><time>2026-04-09T11:15:51.999Z</time></trkpt><trkpt lat="46.02792356523356" lon="12.162708707389633"><ele>579.6666666666666</ele><time>2026-04-09T11:15:52.999Z</time></trkpt><trkpt lat="46.02771975090447" lon="12.162690182124662"><ele>583.3333333333333</ele><time>2026-04-09T11:15:53.999Z</time></trkpt><trkpt lat="46.02749073030349" lon="12.162685884284471"><ele>587.0</ele><time>2026-04-09T11:15:54.999Z</time></trkpt><trkpt lat="46.027264018239265" lon="12.162670595468262"><ele>589.3333333333333</ele><time>2026-04-09T11:15:55.999Z</time></trkpt><trkpt lat="46.02707347790799" lon="12.162634295542055"><ele>591.6666666666666</ele><time>2026-04-09T11:15:56.999Z</time></trkpt><trkpt lat="46.026910425486065" lon="12.16259232267943"><ele>594.0</ele><time>2026-04-09T11:15:57.999Z</time></trkpt><trkpt lat="46.02676519022259" lon="12.162573967686672"><ele>597.75</ele><time>2026-04-09T11:15:59Z</time></trkpt><trkpt lat="46.02661019672988" lon="12.16258652717123"><ele>601.5</ele><time>2026-04-09T11:16:00Z</time></trkpt><trkpt lat="46.026454761327216" lon="12.162629402453309"><ele>605.25</ele><time>2026-04-09T11:16:01Z</time></trkpt><trkpt lat="46.0263351914845" lon="12.162654148328006"><ele>609.0</ele><time>2026-04-09T11:16:02Z</time></trkpt><trkpt lat="46.02623406512363" lon="12.162657078680501"><ele>609.0</ele><time>2026-04-09T11:16:03Z</time></trkpt><trkpt lat="46.02612417037523" lon="12.162638961569284"><ele>609.0</ele><time>2026-04-09T11:16:04Z</time></trkpt><trkpt lat="46.026006514621535" lon="12.16257882974772"><ele>609.0</ele><time>2026-04-09T11:16:05Z</time></trkpt><trkpt lat="46.02587959590975" lon="12.162485506721014"><ele>609.0</ele><time>2026-04-09T11:16:06Z</time></trkpt><trkpt lat="46.025751528338894" lon="12.162368904348364"><ele>605.75</ele><time>2026-04-09T11:16:07Z</time></trkpt><trkpt lat="46.025642136331186" lon="12.16226796035033"><ele>602.5</ele><time>2026-04-09T11:16:08Z</time></trkpt><trkpt lat="46.02552195322903" lon="12.162169676110434"><ele>599.25</ele><time>2026-04-09T11:16:09Z</time></trkpt><trkpt lat="46.02539151472422" lon="12.162103965145858"><ele>596.0</ele><time>2026-04-09T11:16:10Z</time></trkpt><trkpt lat="46.02524460089728" lon="12.162077665995698"><ele>596.0</ele><time>2026-04-09T11:16:11Z</time></trkpt><trkpt lat="46.025077567854034" lon="12.162077608818475"><ele>596.0</ele><time>2026-04-09T11:16:12Z</time></trkpt><trkpt lat="46.02488245689943" lon="12.162080064706048"><ele>596.0</ele><time>2026-04-09T11:16:13Z</time></trkpt><trkpt lat="46.02470703525211" lon="12.162073063050691"><ele>597.3333333333333</ele><time>2026-04-09T11:16:14Z</time></trkpt><trkpt lat="46.024524522094936" lon="12.162054604367754"><ele>598.6666666666666</ele><time>2026-04-09T11:16:15Z</time></trkpt><trkpt lat="46.02434235374341" lon="12.162051291826339"><ele>600.0</ele><time>2026-04-09T11:16:16Z</time></trkpt><trkpt lat="46.02418460195895" lon="12.162083706745557"><ele>604.0</ele><time>2026-04-09T11:16:17Z</time></trkpt><trkpt lat="46.02403585583609" lon="12.162147534746106"><ele>608.0</ele><time>2026-04-09T11:16:18Z</time></trkpt><trkpt lat="46.02387704937741" lon="12.162254457870645"><ele>612.0</ele><time>2026-04-09T11:16:19Z</time></trkpt><trkpt lat="46.02370849444155" lon="12.162392136967247"><ele>614.0</ele><time>2026-04-09T11:16:20Z</time></trkpt><trkpt lat="46.02351778937242" lon="12.16252959373915"><ele>616.0</ele><time>2026-04-09T11:16:21Z</time></trkpt><trkpt lat="46.02330701721054" lon="12.162639050760566"><ele>618.0</ele><time>2026-04-09T11:16:22Z</time></trkpt><trkpt lat="46.02312638893296" lon="12.162721582360096"><ele>619.0</ele><time>2026-04-09T11:16:23Z</time></trkpt><trkpt lat="46.02296833843385" lon="12.162797157210948"><ele>620.0</ele><time>2026-04-09T11:16:24Z</time></trkpt><trkpt lat="46.022802904945046" lon="12.162864334735199"><ele>621.0</ele><time>2026-04-09T11:16:25Z</time></trkpt><trkpt lat="46.02259947791499" lon="12.162923134634775"><ele>620.5</ele><time>2026-04-09T11:16:26Z</time></trkpt><trkpt lat="46.022370999112766" lon="12.16297956515086"><ele>620.0</ele><time>2026-04-09T11:16:27Z</time></trkpt><trkpt lat="46.02214253403521" lon="12.163048655848621"><ele>620.0</ele><time>2026-04-09T11:16:28Z</time></trkpt><trkpt lat="46.02193323072567" lon="12.163144257211112"><ele>620.0</ele><time>2026-04-09T11:16:29Z</time></trkpt><trkpt lat="46.02169853249687" lon="12.163255384505355"><ele>625.0</ele><time>2026-04-09T11:16:30Z</time></trkpt><trkpt lat="46.02144471596911" lon="12.163353000846653"><ele>630.0</ele><time>2026-04-09T11:16:31Z</time></trkpt><trkpt lat="46.02117639521094" lon="12.163440130803785"><ele>630.0</ele><time>2026-04-09T11:16:32Z</time></trkpt><trkpt lat="46.0209362035161" lon="12.16351147598667"><ele>630.0</ele><time>2026-04-09T11:16:33Z</time></trkpt><trkpt lat="46.02074954087315" lon="12.163570395810833"><ele>630.0</ele><time>2026-04-09T11:16:34Z</time></trkpt><trkpt lat="46.020597815551724" lon="12.163614405876018"><ele>633.5</ele><time>2026-04-09T11:16:35Z</time></trkpt><trkpt lat="46.02047602412883" lon="12.163648400780628"><ele>637.0</ele><time>2026-04-09T11:16:36Z</time></trkpt><trkpt lat="46.02036571556646" lon="12.163693545564577"><ele>640.5</ele><time>2026-04-09T11:16:37Z</time></trkpt><trkpt lat="46.020267358360904" lon="12.163795529238396"><ele>644.0</ele><time>2026-04-09T11:16:38Z</time></trkpt><trkpt lat="46.02016378405402" lon="12.163953152091711"><ele>644.3333333333333</ele><time>2026-04-09T11:16:39Z</time></trkpt><trkpt lat="46.020037670038704" lon="12.16413669574302"><ele>644.6666666666666</ele><time>2026-04-09T11:16:40Z</time></trkpt><trkpt lat="46.01987678618621" lon="12.164325713597824"><ele>645.0</ele><time>2026-04-09T11:16:41Z</time></trkpt><trkpt lat="46.019691157718384" lon="12.164512838756359"><ele>645.0</ele><time>2026-04-09T11:16:42Z</time></trkpt><trkpt lat="46.01951352375717" lon="12.16469546129278"><ele>645.0</ele><time>2026-04-09T11:16:43Z</time></trkpt><trkpt lat="46.01933400531179" lon="12.164899494561878"><ele>645.0</ele><time>2026-04-09T11:16:44Z</time></trkpt><trkpt lat="46.0191316095752" lon="12.165115465750432"><ele>650.5</ele><time>2026-04-09T11:16:45Z</time></trkpt><trkpt lat="46.018908631397586" lon="12.165328964408502"><ele>656.0</ele><time>2026-04-09T11:16:46Z</time></trkpt><trkpt lat="46.01867981868515" lon="12.165540916859653"><ele>659.3333333333333</ele><time>2026-04-09T11:16:47Z</time></trkpt><trkpt lat="46.01849204823532" lon="12.16572102001684"><ele>662.6666666666666</ele><time>2026-04-09T11:16:48Z</time></trkpt><trkpt lat="46.01834544422717" lon="12.16586026087421"><ele>666.0</ele><time>2026-04-09T11:16:49Z</time></trkpt><trkpt lat="46.018219033525064" lon="12.165963538511413"><ele>666.0</ele><time>2026-04-09T11:16:50Z</time></trkpt><trkpt lat="46.018099023815054" lon="12.16604460885181"><ele>666.0</ele><time>2026-04-09T11:16:51Z</time></trkpt><trkpt lat="46.017983782204375" lon="12.166102391363946"><ele>666.0</ele><time>2026-04-09T11:16:52Z</time></trkpt><trkpt lat="46.017859398282916" lon="12.166139502716229"><ele>666.0</ele><time>2026-04-09T11:16:53Z</time></trkpt><trkpt lat="46.01772728747469" lon="12.166162604229548"><ele>666.0</ele><time>2026-04-09T11:16:54Z</time></trkpt><trkpt lat="46.01760029446993" lon="12.166211262112256"><ele>666.0</ele><time>2026-04-09T11:16:55Z</time></trkpt><trkpt lat="46.01748302731311" lon="12.166304286912"><ele>666.0</ele><time>2026-04-09T11:16:56Z</time></trkpt><trkpt lat="46.01736229355635" lon="12.166433155144"><ele>666.0</ele><time>2026-04-09T11:16:57Z</time></trkpt><trkpt lat="46.017236236177254" lon="12.166557862019404"><ele>666.25</ele><time>2026-04-09T11:16:58Z</time></trkpt><trkpt lat="46.01710988439378" lon="12.166645336007603"><ele>666.5</ele><time>2026-04-09T11:16:59Z</time></trkpt><trkpt lat="46.016983082639555" lon="12.166706447849071"><ele>666.75</ele><time>2026-04-09T11:17:00Z</time></trkpt><trkpt lat="46.016832939103274" lon="12.166752130199088"><ele>667.0</ele><time>2026-04-09T11:17:01Z</time></trkpt><trkpt lat="46.01664126670902" lon="12.166796453954692"><ele>663.0</ele><time>2026-04-09T11:17:02Z</time></trkpt><trkpt lat="46.01641380145115" lon="12.166821392474107"><ele>659.0</ele><time>2026-04-09T11:17:03Z</time></trkpt><trkpt lat="46.01617048520582" lon="12.166886098116695"><ele>659.0</ele><time>2026-04-09T11:17:04Z</time></trkpt><trkpt lat="46.01593256791431" lon="12.166950700817452"><ele>659.0</ele><time>2026-04-09T11:17:05Z</time></trkpt><trkpt lat="46.015673734527354" lon="12.16702098295551"><ele>656.0</ele><time>2026-04-09T11:17:06Z</time></trkpt><trkpt lat="46.01543239346594" lon="12.167108263948418"><ele>653.0</ele><time>2026-04-09T11:17:07Z</time></trkpt><trkpt lat="46.01521247403014" lon="12.167149378392113"><ele>653.0</ele><time>2026-04-09T11:17:08Z</time></trkpt><trkpt lat="46.01500832990981" lon="12.167170402687235"><ele>653.0</ele><time>2026-04-09T11:17:09Z</time></trkpt><trkpt lat="46.01478417779231" lon="12.16717258667301"><ele>653.0</ele><time>2026-04-09T11:17:10Z</time></trkpt><trkpt lat="46.01453239657585" lon="12.167142956650398"><ele>654.0</ele><time>2026-04-09T11:17:11Z</time></trkpt><trkpt lat="46.014279531686334" lon="12.167189731893068"><ele>655.0</ele><time>2026-04-09T11:17:12Z</time></trkpt><trkpt lat="46.01405968811521" lon="12.167205820269011"><ele>653.3333333333334</ele><time>2026-04-09T11:17:13Z</time></trkpt><trkpt lat="46.013869154512626" lon="12.167216057683985"><ele>651.6666666666666</ele><time>2026-04-09T11:17:14Z</time></trkpt><trkpt lat="46.01367293728717" lon="12.167218070069723"><ele>650.0</ele><time>2026-04-09T11:17:15Z</time></trkpt><trkpt lat="46.01345479897038" lon="12.167295787955135"><ele>661.0</ele><time>2026-04-09T11:17:16Z</time></trkpt><trkpt lat="46.013210960880365" lon="12.167360872028015"><ele>672.0</ele><time>2026-04-09T11:17:17Z</time></trkpt><trkpt lat="46.01295193372368" lon="12.16743313962318"><ele>672.0</ele><time>2026-04-09T11:17:18Z</time></trkpt><trkpt lat="46.012707695666194" lon="12.16747969442456"><ele>672.0</ele><time>2026-04-09T11:17:19Z</time></trkpt><trkpt lat="46.012495981071545" lon="12.167541774385574"><ele>672.0</ele><time>2026-04-09T11:17:20Z</time></trkpt><trkpt lat="46.012304140428725" lon="12.167589708425684"><ele>672.0</ele><time>2026-04-09T11:17:20.999Z</time></trkpt><trkpt lat="46.0121112488737" lon="12.167585387891071"><ele>672.0</ele><time>2026-04-09T11:17:21.999Z</time></trkpt><trkpt lat="46.011908121628686" lon="12.167578213945426"><ele>672.0</ele><time>2026-04-09T11:17:22.999Z</time></trkpt><trkpt lat="46.011710719432" lon="12.167571242077818"><ele>672.0</ele><time>2026-04-09T11:17:23.999Z</time></trkpt><trkpt lat="46.011551367056974" lon="12.16756987883524"><ele>672.0</ele><time>2026-04-09T11:17:24.999Z</time></trkpt><trkpt lat="46.01140876431635" lon="12.167586086604238"><ele>671.3333333333334</ele><time>2026-04-09T11:17:25.999Z</time></trkpt><trkpt lat="46.01127351507897" lon="12.167625808919535"><ele>670.6666666666667</ele><time>2026-04-09T11:17:26.999Z</time></trkpt><trkpt lat="46.01112941474919" lon="12.167693589951709"><ele>670.0</ele><time>2026-04-09T11:17:27.999Z</time></trkpt><trkpt lat="46.01097440033544" lon="12.16777916422791"><ele>670.3333333333334</ele><time>2026-04-09T11:17:28.999Z</time></trkpt><trkpt lat="46.01080432820881" lon="12.16788584479187"><ele>670.6666666666666</ele><time>2026-04-09T11:17:29.999Z</time></trkpt><trkpt lat="46.01062913150708" lon="12.168014751388297"><ele>671.0</ele><time>2026-04-09T11:17:30.999Z</time></trkpt><trkpt lat="46.010426654609894" lon="12.168110232307637"><ele>671.0</ele><time>2026-04-09T11:17:31.999Z</time></trkpt><trkpt lat="46.01021290443826" lon="12.168192854333888"><ele>671.0</ele><time>2026-04-09T11:17:32.999Z</time></trkpt><trkpt lat="46.0099925619075" lon="12.16826665688478"><ele>671.0</ele><time>2026-04-09T11:17:33.999Z</time></trkpt><trkpt lat="46.009768342993574" lon="12.16834226963031"><ele>675.5</ele><time>2026-04-09T11:17:34.999Z</time></trkpt><trkpt lat="46.0095284032653" lon="12.168423281381127"><ele>680.0</ele><time>2026-04-09T11:17:35.999Z</time></trkpt><trkpt lat="46.009293604481144" lon="12.168476558404622"><ele>681.6666666666666</ele><time>2026-04-09T11:17:36.999Z</time></trkpt><trkpt lat="46.00909169253883" lon="12.168548098144578"><ele>683.3333333333334</ele><time>2026-04-09T11:17:37.999Z</time></trkpt><trkpt lat="46.00890726441013" lon="12.168629463239853"><ele>685.0</ele><time>2026-04-09T11:17:38.999Z</time></trkpt><trkpt lat="46.00874814793771" lon="12.168750631174289"><ele>685.0</ele><time>2026-04-09T11:17:39.999Z</time></trkpt><trkpt lat="46.008598456851004" lon="12.16883461928237"><ele>685.0</ele><time>2026-04-09T11:17:40.999Z</time></trkpt><trkpt lat="46.00845928574502" lon="12.168904964905733"><ele>685.0</ele><time>2026-04-09T11:17:41.999Z</time></trkpt><trkpt lat="46.00833087645651" lon="12.168964590820256"><ele>685.0</ele><time>2026-04-09T11:17:42.999Z</time></trkpt><trkpt lat="46.00820961507301" lon="12.16897891341439"><ele>686.25</ele><time>2026-04-09T11:17:43.999Z</time></trkpt><trkpt lat="46.00808790331118" lon="12.169017355576118"><ele>687.5</ele><time>2026-04-09T11:17:44.999Z</time></trkpt><trkpt lat="46.00796480324995" lon="12.169056236223518"><ele>688.75</ele><time>2026-04-09T11:17:45.999Z</time></trkpt><trkpt lat="46.007836405282774" lon="12.169095142970258"><ele>690.0</ele><time>2026-04-09T11:17:46.999Z</time></trkpt><trkpt lat="46.00770694455444" lon="12.169154165777853"><ele>692.25</ele><time>2026-04-09T11:17:47.999Z</time></trkpt><trkpt lat="46.00756913446243" lon="12.169171817912687"><ele>694.5</ele><time>2026-04-09T11:17:48.999Z</time></trkpt><trkpt lat="46.00742801388591" lon="12.169235300335414"><ele>696.75</ele><time>2026-04-09T11:17:49.999Z</time></trkpt><trkpt lat="46.00729275469423" lon="12.169269003533257"><ele>699.0</ele><time>2026-04-09T11:17:50.999Z</time></trkpt><trkpt lat="46.00718109544161" lon="12.169301856042198"><ele>699.75</ele><time>2026-04-09T11:17:51.999Z</time></trkpt><trkpt lat="46.007071658404314" lon="12.16933474755481"><ele>700.5</ele><time>2026-04-09T11:17:52.999Z</time></trkpt><trkpt lat="46.006951878924426" lon="12.169369272278669"><ele>701.25</ele><time>2026-04-09T11:17:53.999Z</time></trkpt><trkpt lat="46.00681192785121" lon="12.169411042404235"><ele>702.0</ele><time>2026-04-09T11:17:54.999Z</time></trkpt><trkpt lat="46.00666673068917" lon="12.169454081751221"><ele>705.3333333333334</ele><time>2026-04-09T11:17:55.999Z</time></trkpt><trkpt lat="46.00650624939942" lon="12.169500211655341"><ele>708.6666666666667</ele><time>2026-04-09T11:17:56.999Z</time></trkpt><trkpt lat="46.00634934764084" lon="12.169547348300183"><ele>712.0</ele><time>2026-04-09T11:17:57.999Z</time></trkpt><trkpt lat="46.00620810944947" lon="12.16959946410826"><ele>712.0</ele><time>2026-04-09T11:17:58.999Z</time></trkpt><trkpt lat="46.006084320692615" lon="12.169652884963456"><ele>712.0</ele><time>2026-04-09T11:17:59.999Z</time></trkpt><trkpt lat="46.005968929985535" lon="12.169695828673499"><ele>712.0</ele><time>2026-04-09T11:18:00.999Z</time></trkpt><trkpt lat="46.00585889620131" lon="12.16972196857617"><ele>712.0</ele><time>2026-04-09T11:18:01.999Z</time></trkpt><trkpt lat="46.0057572882243" lon="12.16972715778745"><ele>711.75</ele><time>2026-04-09T11:18:02.999Z</time></trkpt><trkpt lat="46.005647072524766" lon="12.169728787146436"><ele>711.5</ele><time>2026-04-09T11:18:03.999Z</time></trkpt><trkpt lat="46.005527769109314" lon="12.169736852052656"><ele>711.25</ele><time>2026-04-09T11:18:05Z</time></trkpt><trkpt lat="46.00541194381214" lon="12.169743199284897"><ele>711.0</ele><time>2026-04-09T11:18:06Z</time></trkpt><trkpt lat="46.005307346052106" lon="12.169741268477313"><ele>711.0</ele><time>2026-04-09T11:18:07Z</time></trkpt><trkpt lat="46.00521802375667" lon="12.169742706914912"><ele>711.0</ele><time>2026-04-09T11:18:08Z</time></trkpt><trkpt lat="46.00512732424286" lon="12.169709090131295"><ele>711.0</ele><time>2026-04-09T11:18:09Z</time></trkpt><trkpt lat="46.00504326010717" lon="12.169706962921046"><ele>711.0</ele><time>2026-04-09T11:18:10Z</time></trkpt><trkpt lat="46.004966120981244" lon="12.16970795454094"><ele>711.0</ele><time>2026-04-09T11:18:11Z</time></trkpt><trkpt lat="46.004904810464204" lon="12.169730022382184"><ele>711.0</ele><time>2026-04-09T11:18:12Z</time></trkpt><trkpt lat="46.00484155885292" lon="12.1697344926822"><ele>710.1999999999999</ele><time>2026-04-09T11:18:14Z</time></trkpt><trkpt lat="46.00478469256098" lon="12.169824936986663"><ele>709.4</ele><time>2026-04-09T11:18:42Z</time></trkpt><trkpt lat="46.00471272660463" lon="12.16986141479923"><ele>708.6</ele><time>2026-04-09T11:21:21.999Z</time></trkpt><trkpt lat="46.0046546374756" lon="12.169982227428884"><ele>707.8</ele><time>2026-04-09T11:21:23.999Z</time></trkpt><trkpt lat="46.0045967978349" lon="12.170126351301864"><ele>707.0</ele><time>2026-04-09T11:21:25.999Z</time></trkpt><trkpt lat="46.00454109225126" lon="12.170276190135118"><ele>707.0</ele><time>2026-04-09T11:21:28.016Z</time></trkpt><trkpt lat="46.00451139029431" lon="12.17036174184927"><ele>707.0</ele><time>2026-04-09T11:21:29.018Z</time></trkpt><trkpt lat="46.004468009599904" lon="12.170438387704532"><ele>707.0</ele><time>2026-04-09T11:21:30.018Z</time></trkpt><trkpt lat="46.00458362609707" lon="12.1696499269569"><ele>707.0</ele><time>2026-04-09T11:21:35.999Z</time></trkpt><trkpt lat="46.00467596338901" lon="12.169462558149908"><ele>707.0</ele><time>2026-04-09T11:21:37.999Z</time></trkpt><trkpt lat="46.004664144105746" lon="12.169335543493402"><ele>707.0</ele><time>2026-04-09T11:21:38.999Z</time></trkpt><trkpt lat="46.00462728415444" lon="12.169201107070762"><ele>707.0</ele><time>2026-04-09T11:21:39.999Z</time></trkpt><trkpt lat="46.00455202557329" lon="12.169091307288559"><ele>707.0</ele><time>2026-04-09T11:21:40.999Z</time></trkpt><trkpt lat="46.00438314418097" lon="12.169056589821826"><ele>707.0</ele><time>2026-04-09T11:21:41.999Z</time></trkpt><trkpt lat="46.00429489804206" lon="12.16902562336625"><ele>707.0</ele><time>2026-04-09T11:21:42.999Z</time></trkpt><trkpt lat="46.004213705767846" lon="12.168978305923329"><ele>707.0</ele><time>2026-04-09T11:21:43.999Z</time></trkpt><trkpt lat="46.0041370810882" lon="12.168924961014588"><ele>707.0</ele><time>2026-04-09T11:21:44.999Z</time></trkpt><trkpt lat="46.00405806999553" lon="12.168870420752809"><ele>712.0</ele><time>2026-04-09T11:21:45.999Z</time></trkpt><trkpt lat="46.00397585741675" lon="12.168820828238744"><ele>717.0</ele><time>2026-04-09T11:21:46.999Z</time></trkpt><trkpt lat="46.00389349904015" lon="12.168790944678074"><ele>722.0</ele><time>2026-04-09T11:21:47.999Z</time></trkpt><trkpt lat="46.003801970241724" lon="12.168812926731965"><ele>727.0</ele><time>2026-04-09T11:21:48.999Z</time></trkpt><trkpt lat="46.003730785854444" lon="12.16878867598736"><ele>732.0</ele><time>2026-04-09T11:21:49.999Z</time></trkpt><trkpt lat="46.00365322836191" lon="12.168794372407651"><ele>737.0</ele><time>2026-04-09T11:21:50.999Z</time></trkpt><trkpt lat="46.0035656660513" lon="12.16867637857137"><ele>737.0</ele><time>2026-04-09T11:21:51.999Z</time></trkpt><trkpt lat="46.00347320977851" lon="12.16865825897365"><ele>737.0</ele><time>2026-04-09T11:21:52.999Z</time></trkpt><trkpt lat="46.00338005130546" lon="12.168623367429333"><ele>737.0</ele><time>2026-04-09T11:21:54.017Z</time></trkpt><trkpt lat="46.004312261981894" lon="12.169125387456425"><ele>732.0</ele><time>2026-04-09T11:21:56.999Z</time></trkpt><trkpt lat="46.004385829180926" lon="12.169155300987223"><ele>727.0</ele><time>2026-04-09T11:21:57.999Z</time></trkpt><trkpt lat="46.00442941163182" lon="12.16926103482368"><ele>722.0</ele><time>2026-04-09T11:21:58.999Z</time></trkpt><trkpt lat="46.00447041735043" lon="12.169330473749499"><ele>717.0</ele><time>2026-04-09T11:21:59.999Z</time></trkpt><trkpt lat="46.004472968601505" lon="12.169497793857307"><ele>712.0</ele><time>2026-04-09T11:22:01.999Z</time></trkpt><trkpt lat="46.004411827435696" lon="12.169529788334138"><ele>707.0</ele><time>2026-04-09T11:22:02.999Z</time></trkpt><trkpt lat="46.00433637004526" lon="12.169507811377358"><ele>707.0</ele><time>2026-04-09T11:22:03.999Z</time></trkpt><trkpt lat="46.004291967983114" lon="12.169310724752004"><ele>707.0</ele><time>2026-04-09T11:22:04.999Z</time></trkpt><trkpt lat="46.00418865022332" lon="12.16926304086118"><ele>707.0</ele><time>2026-04-09T11:22:05.999Z</time></trkpt><trkpt lat="46.00407965033228" lon="12.169214438523827"><ele>707.0</ele><time>2026-04-09T11:22:06.999Z</time></trkpt><trkpt lat="46.00399018325886" lon="12.16917500470967"><ele>710.8333333333333</ele><time>2026-04-09T11:22:07.999Z</time></trkpt><trkpt lat="46.00391634176757" lon="12.169142253745473"><ele>714.6666666666666</ele><time>2026-04-09T11:22:08.999Z</time></trkpt><trkpt lat="46.00382936174689" lon="12.169135186768054"><ele>718.5</ele><time>2026-04-09T11:22:10.018Z</time></trkpt><trkpt lat="46.003755701116525" lon="12.169122540935328"><ele>722.3333333333334</ele><time>2026-04-09T11:22:11.018Z</time></trkpt><trkpt lat="46.003679460578105" lon="12.16914353277804"><ele>726.1666666666667</ele><time>2026-04-09T11:22:12.018Z</time></trkpt><trkpt lat="46.00363177852579" lon="12.169216573927987"><ele>730.0</ele><time>2026-04-09T11:22:13.017Z</time></trkpt><trkpt lat="46.00410648625903" lon="12.169532496493467"><ele>726.1666666666667</ele><time>2026-04-09T11:22:16.999Z</time></trkpt><trkpt lat="46.004169572985916" lon="12.169591191147479"><ele>722.3333333333334</ele><time>2026-04-09T11:22:17.999Z</time></trkpt><trkpt lat="46.00423066772564" lon="12.169689975881925"><ele>718.5</ele><time>2026-04-09T11:22:18.999Z</time></trkpt><trkpt lat="46.00431787056925" lon="12.16976708969506"><ele>714.6666666666666</ele><time>2026-04-09T11:22:19.999Z</time></trkpt><trkpt lat="46.00437117201851" lon="12.169857440555788"><ele>710.8333333333333</ele><time>2026-04-09T11:22:20.999Z</time></trkpt><trkpt lat="46.004438870264295" lon="12.169949767130536"><ele>707.0</ele><time>2026-04-09T11:22:21.999Z</time></trkpt><trkpt lat="46.0045003901265" lon="12.170048807795787"><ele>714.6666666666666</ele><time>2026-04-09T11:22:22.998Z</time></trkpt><trkpt lat="46.004460727769725" lon="12.17014466995607"><ele>722.3333333333334</ele><time>2026-04-09T11:22:24.018Z</time></trkpt><trkpt lat="46.004193783780565" lon="12.169928541418322"><ele>730.0</ele><time>2026-04-09T11:22:28.999Z</time></trkpt><trkpt lat="46.00413788522702" lon="12.16985310394335"><ele>730.0</ele><time>2026-04-09T11:22:29.999Z</time></trkpt><trkpt lat="46.004087214931346" lon="12.16976159029025"><ele>730.0</ele><time>2026-04-09T11:22:30.999Z</time></trkpt><trkpt lat="46.004012324150146" lon="12.1696793065284"><ele>730.0</ele><time>2026-04-09T11:22:31.999Z</time></trkpt><trkpt lat="46.00392778787385" lon="12.16960936740361"><ele>730.0</ele><time>2026-04-09T11:22:32.999Z</time></trkpt><trkpt lat="46.00382153531839" lon="12.169492184705836"><ele>730.0</ele><time>2026-04-09T11:22:34.999Z</time></trkpt><trkpt lat="46.00375291598415" lon="12.169446196978242"><ele>730.0</ele><time>2026-04-09T11:22:36.017Z</time></trkpt><trkpt lat="46.003571612001394" lon="12.16927976528816"><ele>730.0</ele><time>2026-04-09T11:22:38.02Z</time></trkpt><trkpt lat="46.003508347613135" lon="12.169214555935156"><ele>730.0</ele><time>2026-04-09T11:22:39.019Z</time></trkpt><trkpt lat="46.00344508861421" lon="12.169148758951044"><ele>730.0</ele><time>2026-04-09T11:22:40.019Z</time></trkpt><trkpt lat="46.00406637885236" lon="12.169883530598291"><ele>725.8</ele><time>2026-04-09T11:22:43.999Z</time></trkpt><trkpt lat="46.004130840741105" lon="12.16996439205242"><ele>721.6</ele><time>2026-04-09T11:22:44.999Z</time></trkpt><trkpt lat="46.00413813399423" lon="12.1700704130011"><ele>717.4000000000001</ele><time>2026-04-09T11:22:46.999Z</time></trkpt><trkpt lat="46.00420443643437" lon="12.170158180525965"><ele>713.2</ele><time>2026-04-09T11:22:47.999Z</time></trkpt><trkpt lat="46.00429950550727" lon="12.170296032648043"><ele>709.0</ele><time>2026-04-09T11:22:48.999Z</time></trkpt><trkpt lat="46.00437020357221" lon="12.17041366195004"><ele>703.0</ele><time>2026-04-09T11:22:49.999Z</time></trkpt><trkpt lat="46.00445457474475" lon="12.170514847544966"><ele>697.0</ele><time>2026-04-09T11:22:50.999Z</time></trkpt><trkpt lat="46.00453204065671" lon="12.170600141375571"><ele>691.0</ele><time>2026-04-09T11:22:51.999Z</time></trkpt><trkpt lat="46.00460353495277" lon="12.17068348072179"><ele>685.0</ele><time>2026-04-09T11:22:52.999Z</time></trkpt><trkpt lat="46.00467300749248" lon="12.170778891450613"><ele>679.0</ele><time>2026-04-09T11:22:53.999Z</time></trkpt><trkpt lat="46.00473598875474" lon="12.170887361933342"><ele>670.8000000000001</ele><time>2026-04-09T11:22:54.999Z</time></trkpt><trkpt lat="46.00475703441067" lon="12.171038311110507"><ele>662.6</ele><time>2026-04-09T11:22:55.999Z</time></trkpt><trkpt lat="46.00479832715758" lon="12.171197450520635"><ele>654.4</ele><time>2026-04-09T11:22:56.999Z</time></trkpt><trkpt lat="46.00480988510304" lon="12.171355889459253"><ele>646.2</ele><time>2026-04-09T11:22:57.999Z</time></trkpt><trkpt lat="46.00479488120624" lon="12.171517699696532"><ele>638.0</ele><time>2026-04-09T11:22:58.999Z</time></trkpt><trkpt lat="46.004771792554564" lon="12.171662893755485"><ele>638.0</ele><time>2026-04-09T11:22:59.999Z</time></trkpt><trkpt lat="46.00474496437431" lon="12.171805710286645"><ele>638.0</ele><time>2026-04-09T11:23:00.999Z</time></trkpt><trkpt lat="46.004722309556335" lon="12.17196217895763"><ele>638.0</ele><time>2026-04-09T11:23:01.999Z</time></trkpt><trkpt lat="46.00469647244354" lon="12.172098778472256"><ele>638.0</ele><time>2026-04-09T11:23:02.999Z</time></trkpt><trkpt lat="46.00466606056033" lon="12.172219588264415"><ele>638.0</ele><time>2026-04-09T11:23:03.999Z</time></trkpt><trkpt lat="46.00464115370702" lon="12.172415889404817"><ele>638.0</ele><time>2026-04-09T11:23:05.999Z</time></trkpt><trkpt lat="46.00456123666978" lon="12.172407303790811"><ele>638.0</ele><time>2026-04-09T11:23:08.999Z</time></trkpt><trkpt lat="46.00459497652732" lon="12.172215417444916"><ele>638.0</ele><time>2026-04-09T11:23:10.999Z</time></trkpt><trkpt lat="46.004596579732464" lon="12.17206750000219"><ele>638.0</ele><time>2026-04-09T11:23:11.999Z</time></trkpt><trkpt lat="46.00460761511953" lon="12.171901103003302"><ele>638.0</ele><time>2026-04-09T11:23:12.999Z</time></trkpt><trkpt lat="46.0046325717857" lon="12.171747746224586"><ele>638.0</ele><time>2026-04-09T11:23:13.999Z</time></trkpt><trkpt lat="46.00464102796679" lon="12.171582867194232"><ele>638.0</ele><time>2026-04-09T11:23:14.999Z</time></trkpt><trkpt lat="46.004634189515826" lon="12.171414864405154"><ele>638.0</ele><time>2026-04-09T11:23:15.999Z</time></trkpt><trkpt lat="46.00461983117292" lon="12.171253703801229"><ele>638.0</ele><time>2026-04-09T11:23:16.999Z</time></trkpt><trkpt lat="46.00458699238341" lon="12.171109673547354"><ele>646.2</ele><time>2026-04-09T11:23:17.999Z</time></trkpt><trkpt lat="46.00452159626846" lon="12.170984205638417"><ele>654.4</ele><time>2026-04-09T11:23:18.999Z</time></trkpt><trkpt lat="46.00442559795026" lon="12.170879195329915"><ele>662.6</ele><time>2026-04-09T11:23:19.999Z</time></trkpt><trkpt lat="46.004331218519965" lon="12.170777639908234"><ele>670.8000000000001</ele><time>2026-04-09T11:23:20.999Z</time></trkpt><trkpt lat="46.00425833907753" lon="12.17070136315739"><ele>679.0</ele><time>2026-04-09T11:23:21.999Z</time></trkpt><trkpt lat="46.00417027367284" lon="12.170610800161901"><ele>685.0</ele><time>2026-04-09T11:23:23.999Z</time></trkpt><trkpt lat="46.00409509859149" lon="12.170689490182811"><ele>691.0</ele><time>2026-04-09T11:23:25.999Z</time></trkpt><trkpt lat="46.00414595360096" lon="12.170829344209807"><ele>697.0</ele><time>2026-04-09T11:23:27.999Z</time></trkpt><trkpt lat="46.00422287853943" lon="12.170900706662096"><ele>703.0</ele><time>2026-04-09T11:23:28.999Z</time></trkpt><trkpt lat="46.00430137746438" lon="12.170985150575506"><ele>709.0</ele><time>2026-04-09T11:23:29.999Z</time></trkpt><trkpt lat="46.00436125512678" lon="12.171088995091996"><ele>717.2</ele><time>2026-04-09T11:23:30.999Z</time></trkpt><trkpt lat="46.00440804787625" lon="12.17122854989433"><ele>725.4000000000001</ele><time>2026-04-09T11:23:31.999Z</time></trkpt><trkpt lat="46.004428804693674" lon="12.171381338847082"><ele>733.6</ele><time>2026-04-09T11:23:32.999Z</time></trkpt><trkpt lat="46.00442694254887" lon="12.171539301101165"><ele>741.8</ele><time>2026-04-09T11:23:33.999Z</time></trkpt><trkpt lat="46.00437917655781" lon="12.171701069717024"><ele>750.0</ele><time>2026-04-09T11:23:34.999Z</time></trkpt><trkpt lat="46.00433836273246" lon="12.171892905166233"><ele>712.6666666666666</ele><time>2026-04-09T11:23:35.999Z</time></trkpt><trkpt lat="46.0042862781949" lon="12.172077586095497"><ele>675.3333333333333</ele><time>2026-04-09T11:23:36.999Z</time></trkpt><trkpt lat="46.004227789761075" lon="12.172274612503497"><ele>638.0</ele><time>2026-04-09T11:23:37.999Z</time></trkpt><trkpt lat="46.004155223490024" lon="12.17248790044858"><ele>638.0</ele><time>2026-04-09T11:23:38.999Z</time></trkpt><trkpt lat="46.00408051115253" lon="12.172702514049496"><ele>638.0</ele><time>2026-04-09T11:23:39.999Z</time></trkpt><trkpt lat="46.00401301213299" lon="12.172908530222603"><ele>638.0</ele><time>2026-04-09T11:23:40.999Z</time></trkpt><trkpt lat="46.003946437584446" lon="12.173089480807063"><ele>638.0</ele><time>2026-04-09T11:23:41.999Z</time></trkpt><trkpt lat="46.00388633740218" lon="12.1732402713646"><ele>638.0</ele><time>2026-04-09T11:23:42.999Z</time></trkpt><trkpt lat="46.00381654712365" lon="12.173370394345596"><ele>638.0</ele><time>2026-04-09T11:23:43.999Z</time></trkpt><trkpt lat="46.00371955231784" lon="12.173459578683056"><ele>638.0</ele><time>2026-04-09T11:23:44.999Z</time></trkpt><trkpt lat="46.00361669016861" lon="12.173522819206507"><ele>638.0</ele><time>2026-04-09T11:23:45.999Z</time></trkpt><trkpt lat="46.00350391098426" lon="12.17356326902252"><ele>638.0</ele><time>2026-04-09T11:23:46.999Z</time></trkpt><trkpt lat="46.00336977212171" lon="12.173583591557817"><ele>638.0</ele><time>2026-04-09T11:23:47.999Z</time></trkpt><trkpt lat="46.00324059869957" lon="12.173587959243921"><ele>638.0</ele><time>2026-04-09T11:23:48.999Z</time></trkpt><trkpt lat="46.00312301180031" lon="12.173556171021561"><ele>638.0</ele><time>2026-04-09T11:23:49.999Z</time></trkpt><trkpt lat="46.003010148307006" lon="12.173499394732099"><ele>638.0</ele><time>2026-04-09T11:23:50.999Z</time></trkpt><trkpt lat="46.00289279817872" lon="12.17341263098047"><ele>638.0</ele><time>2026-04-09T11:23:51.999Z</time></trkpt><trkpt lat="46.00277604690956" lon="12.173315206981856"><ele>638.0</ele><time>2026-04-09T11:23:52.999Z</time></trkpt><trkpt lat="46.00265951848001" lon="12.1732570899528"><ele>638.0</ele><time>2026-04-09T11:23:53.999Z</time></trkpt><trkpt lat="46.00255937585307" lon="12.17320130307453"><ele>638.0</ele><time>2026-04-09T11:23:54.999Z</time></trkpt><trkpt lat="46.00245868686086" lon="12.173183738026188"><ele>638.0</ele><time>2026-04-09T11:23:55.999Z</time></trkpt><trkpt lat="46.00235785676335" lon="12.173205564136202"><ele>638.0</ele><time>2026-04-09T11:23:56.999Z</time></trkpt><trkpt lat="46.00224663786031" lon="12.17325197318664"><ele>638.0</ele><time>2026-04-09T11:23:57.999Z</time></trkpt><trkpt lat="46.0021195785092" lon="12.173316783726687"><ele>638.0</ele><time>2026-04-09T11:23:58.999Z</time></trkpt><trkpt lat="46.001976853533584" lon="12.17340994387605"><ele>638.0</ele><time>2026-04-09T11:23:59.999Z</time></trkpt><trkpt lat="46.001845027138" lon="12.173496286424891"><ele>638.0</ele><time>2026-04-09T11:24:00.999Z</time></trkpt><trkpt lat="46.001732256114096" lon="12.173520628667035"><ele>638.0</ele><time>2026-04-09T11:24:01.999Z</time></trkpt><trkpt lat="46.00162311969596" lon="12.173511870611438"><ele>638.0</ele><time>2026-04-09T11:24:02.999Z</time></trkpt><trkpt lat="46.00152325518417" lon="12.173459068691486"><ele>638.0</ele><time>2026-04-09T11:24:03.999Z</time></trkpt><trkpt lat="46.00141784460264" lon="12.17338545681613"><ele>638.0</ele><time>2026-04-09T11:24:04.999Z</time></trkpt><trkpt lat="46.00129089113215" lon="12.17330581091883"><ele>638.0</ele><time>2026-04-09T11:24:05.999Z</time></trkpt><trkpt lat="46.00116383094404" lon="12.173260991657115"><ele>638.0</ele><time>2026-04-09T11:24:06.999Z</time></trkpt><trkpt lat="46.00104290196487" lon="12.173241507564828"><ele>638.0</ele><time>2026-04-09T11:24:07.999Z</time></trkpt><trkpt lat="46.000931651250106" lon="12.173236037100075"><ele>638.0</ele><time>2026-04-09T11:24:08.999Z</time></trkpt><trkpt lat="46.00083199387911" lon="12.173283604947853"><ele>638.0</ele><time>2026-04-09T11:24:09.999Z</time></trkpt><trkpt lat="46.000747155072766" lon="12.173347968599543"><ele>638.0</ele><time>2026-04-09T11:24:10.999Z</time></trkpt><trkpt lat="46.00065851595513" lon="12.17339367970651"><ele>638.0</ele><time>2026-04-09T11:24:11.999Z</time></trkpt><trkpt lat="46.00059091430512" lon="12.173445885454184"><ele>638.0</ele><time>2026-04-09T11:24:12.999Z</time></trkpt><trkpt lat="46.00051508173153" lon="12.173478204488204"><ele>638.0</ele><time>2026-04-09T11:24:14.999Z</time></trkpt><trkpt lat="46.000490788776844" lon="12.173385919129746"><ele>638.0</ele><time>2026-04-09T11:24:16.999Z</time></trkpt><trkpt lat="46.00061107989994" lon="12.173319293760597"><ele>638.0</ele><time>2026-04-09T11:24:18.999Z</time></trkpt><trkpt lat="46.0007014685835" lon="12.17326198401256"><ele>608.8</ele><time>2026-04-09T11:24:19.999Z</time></trkpt><trkpt lat="46.00077445845373" lon="12.173185940893376"><ele>579.5999999999999</ele><time>2026-04-09T11:24:20.999Z</time></trkpt><trkpt lat="46.00085699347761" lon="12.17313640507738"><ele>550.4000000000001</ele><time>2026-04-09T11:24:21.999Z</time></trkpt><trkpt lat="46.00096109795153" lon="12.173085788473097"><ele>521.2</ele><time>2026-04-09T11:24:22.999Z</time></trkpt><trkpt lat="46.001082671518766" lon="12.173046800141673"><ele>492.0</ele><time>2026-04-09T11:24:23.999Z</time></trkpt><trkpt lat="46.001199293491254" lon="12.173028555236217"><ele>492.0</ele><time>2026-04-09T11:24:24.999Z</time></trkpt><trkpt lat="46.00132505397756" lon="12.173013770485287"><ele>492.0</ele><time>2026-04-09T11:24:25.999Z</time></trkpt><trkpt lat="46.00145176767242" lon="12.1730145019119"><ele>492.0</ele><time>2026-04-09T11:24:26.999Z</time></trkpt><trkpt lat="46.00156480459586" lon="12.173022910256162"><ele>492.0</ele><time>2026-04-09T11:24:27.999Z</time></trkpt><trkpt lat="46.00167076539934" lon="12.172960294030329"><ele>492.0</ele><time>2026-04-09T11:24:29Z</time></trkpt><trkpt lat="46.001789764210116" lon="12.172837199375156"><ele>492.0</ele><time>2026-04-09T11:24:30Z</time></trkpt><trkpt lat="46.00192631685203" lon="12.172689771978755"><ele>492.0</ele><time>2026-04-09T11:24:31Z</time></trkpt><trkpt lat="46.00204614073034" lon="12.172559710885613"><ele>539.0</ele><time>2026-04-09T11:24:32Z</time></trkpt><trkpt lat="46.002148215237234" lon="12.172458970841713"><ele>586.0</ele><time>2026-04-09T11:24:33Z</time></trkpt><trkpt lat="46.002227059907206" lon="12.172382681795089"><ele>633.0</ele><time>2026-04-09T11:24:34Z</time></trkpt><trkpt lat="46.002280119595234" lon="12.172292680316776"><ele>680.0</ele><time>2026-04-09T11:24:35Z</time></trkpt><trkpt lat="46.00230783527757" lon="12.172176856945752"><ele>727.0</ele><time>2026-04-09T11:24:36Z</time></trkpt><trkpt lat="46.002302174931174" lon="12.17206547162794"><ele>727.0</ele><time>2026-04-09T11:24:37Z</time></trkpt><trkpt lat="46.00225940020677" lon="12.171964975390633"><ele>727.0</ele><time>2026-04-09T11:24:38Z</time></trkpt><trkpt lat="46.00218749278876" lon="12.171902950504057"><ele>727.0</ele><time>2026-04-09T11:24:39Z</time></trkpt><trkpt lat="46.00210132558507" lon="12.171891886180479"><ele>727.0</ele><time>2026-04-09T11:24:40Z</time></trkpt><trkpt lat="46.00199938300874" lon="12.17191529041523"><ele>727.0</ele><time>2026-04-09T11:24:41Z</time></trkpt><trkpt lat="46.00187986201125" lon="12.171980162806456"><ele>727.0</ele><time>2026-04-09T11:24:42Z</time></trkpt><trkpt lat="46.00174818706255" lon="12.17204446997526"><ele>727.0</ele><time>2026-04-09T11:24:43Z</time></trkpt><trkpt lat="46.001616109169696" lon="12.172041508959488"><ele>727.0</ele><time>2026-04-09T11:24:44Z</time></trkpt><trkpt lat="46.00149837163184" lon="12.172017149978728"><ele>727.0</ele><time>2026-04-09T11:24:45Z</time></trkpt><trkpt lat="46.001371452204566" lon="12.171969960473618"><ele>727.0</ele><time>2026-04-09T11:24:46Z</time></trkpt><trkpt lat="46.00123042110738" lon="12.171908756116117"><ele>727.0</ele><time>2026-04-09T11:24:47Z</time></trkpt><trkpt lat="46.001106465213724" lon="12.171874289823387"><ele>727.0</ele><time>2026-04-09T11:24:48Z</time></trkpt><trkpt lat="46.000979413269995" lon="12.17183973883833"><ele>727.0</ele><time>2026-04-09T11:24:49Z</time></trkpt><trkpt lat="46.00084938679853" lon="12.171812493000106"><ele>727.0</ele><time>2026-04-09T11:24:50Z</time></trkpt><trkpt lat="46.00069965691907" lon="12.171798728367406"><ele>727.0</ele><time>2026-04-09T11:24:51Z</time></trkpt><trkpt lat="46.000512533043064" lon="12.171832183790988"><ele>727.0</ele><time>2026-04-09T11:24:52Z</time></trkpt><trkpt lat="46.00031331272852" lon="12.171878975457709"><ele>727.0</ele><time>2026-04-09T11:24:53Z</time></trkpt><trkpt lat="46.000138128684355" lon="12.17188080854139"><ele>727.0</ele><time>2026-04-09T11:24:54Z</time></trkpt><trkpt lat="45.999972011473695" lon="12.171886299574856"><ele>727.0</ele><time>2026-04-09T11:24:55Z</time></trkpt><trkpt lat="45.99983457505608" lon="12.171885616739827"><ele>727.0</ele><time>2026-04-09T11:24:56Z</time></trkpt><trkpt lat="45.9997090193133" lon="12.171868049242972"><ele>727.0</ele><time>2026-04-09T11:24:57Z</time></trkpt><trkpt lat="45.999594597280776" lon="12.171816226773865"><ele>727.0</ele><time>2026-04-09T11:24:58Z</time></trkpt><trkpt lat="45.999492545318965" lon="12.171780201117006"><ele>727.0</ele><time>2026-04-09T11:24:59Z</time></trkpt><trkpt lat="45.999434509206225" lon="12.17171792497636"><ele>727.0</ele><time>2026-04-09T11:25:00Z</time></trkpt><trkpt lat="45.999343891883086" lon="12.171710281727178"><ele>727.0</ele><time>2026-04-09T11:25:02Z</time></trkpt><trkpt lat="45.99932669537995" lon="12.171849727711342"><ele>727.0</ele><time>2026-04-09T11:25:04Z</time></trkpt><trkpt lat="45.99944987583746" lon="12.171949193738657"><ele>727.0</ele><time>2026-04-09T11:25:06Z</time></trkpt><trkpt lat="45.999555757003556" lon="12.17200485498211"><ele>727.0</ele><time>2026-04-09T11:25:07Z</time></trkpt><trkpt lat="45.99964767891667" lon="12.172055210863642"><ele>680.0</ele><time>2026-04-09T11:25:08Z</time></trkpt><trkpt lat="45.999748443283075" lon="12.172108981998749"><ele>633.0</ele><time>2026-04-09T11:25:09Z</time></trkpt><trkpt lat="45.99986372244247" lon="12.172170774790091"><ele>586.0</ele><time>2026-04-09T11:25:10Z</time></trkpt><trkpt lat="45.9999741423696" lon="12.172221027309257"><ele>539.0</ele><time>2026-04-09T11:25:11Z</time></trkpt><trkpt lat="46.000052315975594" lon="12.172271098238799"><ele>492.0</ele><time>2026-04-09T11:25:12Z</time></trkpt><trkpt lat="46.00014230930394" lon="12.172370263181405"><ele>492.0</ele><time>2026-04-09T11:25:14Z</time></trkpt><trkpt lat="46.0001331207387" lon="12.172543799456598"><ele>492.00000000000006</ele><time>2026-04-09T11:25:16Z</time></trkpt><trkpt lat="46.00007833443924" lon="12.17264408080823"><ele>492.00000000000006</ele><time>2026-04-09T11:25:17Z</time></trkpt><trkpt lat="45.99999848094744" lon="12.172732977195889"><ele>492.0</ele><time>2026-04-09T11:25:18Z</time></trkpt><trkpt lat="45.99989542343409" lon="12.172774134168836"><ele>492.0</ele><time>2026-04-09T11:25:19Z</time></trkpt><trkpt lat="45.99978349794201" lon="12.172855395477963"><ele>492.0</ele><time>2026-04-09T11:25:20Z</time></trkpt><trkpt lat="45.999640832983886" lon="12.172972340289093"><ele>492.0</ele><time>2026-04-09T11:25:21Z</time></trkpt><trkpt lat="45.99949902166304" lon="12.173064521889225"><ele>492.0</ele><time>2026-04-09T11:25:22Z</time></trkpt><trkpt lat="45.99936043779163" lon="12.173154929383609"><ele>492.0</ele><time>2026-04-09T11:25:23Z</time></trkpt><trkpt lat="45.99923002782425" lon="12.173245362815175"><ele>492.0</ele><time>2026-04-09T11:25:24Z</time></trkpt><trkpt lat="45.999098503800184" lon="12.173324181709562"><ele>492.0</ele><time>2026-04-09T11:25:25Z</time></trkpt><trkpt lat="45.99895860363519" lon="12.173347439121144"><ele>492.0</ele><time>2026-04-09T11:25:26Z</time></trkpt><trkpt lat="45.99880263736891" lon="12.17334335874219"><ele>474.0</ele><time>2026-04-09T11:25:27Z</time></trkpt><trkpt lat="45.99863895804791" lon="12.173405036057687"><ele>456.0</ele><time>2026-04-09T11:25:28Z</time></trkpt><trkpt lat="45.99844316647164" lon="12.173468842918986"><ele>438.0</ele><time>2026-04-09T11:25:29Z</time></trkpt><trkpt lat="45.99822327187389" lon="12.173563436458"><ele>438.0</ele><time>2026-04-09T11:25:30Z</time></trkpt><trkpt lat="45.99803226933449" lon="12.173653172018753"><ele>438.0</ele><time>2026-04-09T11:25:31Z</time></trkpt><trkpt lat="45.99788514423097" lon="12.173723665941967"><ele>438.0</ele><time>2026-04-09T11:25:32Z</time></trkpt><trkpt lat="45.997756542809995" lon="12.173761204618698"><ele>438.0</ele><time>2026-04-09T11:25:33Z</time></trkpt><trkpt lat="45.99764092579931" lon="12.173785465388397"><ele>437.99999999999994</ele><time>2026-04-09T11:25:34Z</time></trkpt><trkpt lat="45.99753819644803" lon="12.173788577687366"><ele>437.99999999999994</ele><time>2026-04-09T11:25:35Z</time></trkpt><trkpt lat="45.99743787961013" lon="12.173756805996423"><ele>438.0</ele><time>2026-04-09T11:25:36Z</time></trkpt><trkpt lat="45.99735804720546" lon="12.173657101906675"><ele>438.0</ele><time>2026-04-09T11:25:37Z</time></trkpt><trkpt lat="45.99725911267096" lon="12.173587633482551"><ele>440.5</ele><time>2026-04-09T11:25:38Z</time></trkpt><trkpt lat="45.9971404921971" lon="12.173581122296397"><ele>443.0</ele><time>2026-04-09T11:25:39Z</time></trkpt><trkpt lat="45.997019101874656" lon="12.173570174258163"><ele>445.5</ele><time>2026-04-09T11:25:40Z</time></trkpt><trkpt lat="45.99690077107302" lon="12.17358500928116"><ele>448.0</ele><time>2026-04-09T11:25:41Z</time></trkpt><trkpt lat="45.99678688417822" lon="12.173583301244806"><ele>448.0</ele><time>2026-04-09T11:25:42Z</time></trkpt><trkpt lat="45.99669211708642" lon="12.173596696741418"><ele>447.99999999999994</ele><time>2026-04-09T11:25:43Z</time></trkpt><trkpt lat="45.996620261935064" lon="12.173740281737864"><ele>447.99999999999994</ele><time>2026-04-09T11:25:44Z</time></trkpt><trkpt lat="45.996559135267475" lon="12.173823008697276"><ele>448.0</ele><time>2026-04-09T11:25:45Z</time></trkpt><trkpt lat="45.996518593287746" lon="12.173902006185484"><ele>448.0</ele><time>2026-04-09T11:25:46Z</time></trkpt><trkpt lat="45.996460261475264" lon="12.174012982142354"><ele>446.2</ele><time>2026-04-09T11:25:48Z</time></trkpt><trkpt lat="45.99637269183055" lon="12.173971982116319"><ele>444.4</ele><time>2026-04-09T11:25:50Z</time></trkpt><trkpt lat="45.996409272547" lon="12.17381117771555"><ele>442.59999999999997</ele><time>2026-04-09T11:25:52Z</time></trkpt><trkpt lat="45.99649683249356" lon="12.173702796550339"><ele>440.79999999999995</ele><time>2026-04-09T11:25:53Z</time></trkpt><trkpt lat="45.99656287065978" lon="12.173604992263378"><ele>439.0</ele><time>2026-04-09T11:25:54Z</time></trkpt><trkpt lat="45.99664063752045" lon="12.17350519334634"><ele>440.79999999999995</ele><time>2026-04-09T11:25:55Z</time></trkpt><trkpt lat="45.99673173716996" lon="12.17341401110348"><ele>442.59999999999997</ele><time>2026-04-09T11:25:56Z</time></trkpt><trkpt lat="45.996820112468335" lon="12.17335158078047"><ele>444.4</ele><time>2026-04-09T11:25:57Z</time></trkpt><trkpt lat="45.99690673264308" lon="12.173300135988494"><ele>446.2</ele><time>2026-04-09T11:25:58Z</time></trkpt><trkpt lat="45.99700420482371" lon="12.173242210603036"><ele>448.0</ele><time>2026-04-09T11:25:59Z</time></trkpt><trkpt lat="45.99712512372289" lon="12.173189329936264"><ele>449.25</ele><time>2026-04-09T11:26:00Z</time></trkpt><trkpt lat="45.997253022223745" lon="12.173162106715543"><ele>450.5</ele><time>2026-04-09T11:26:01Z</time></trkpt><trkpt lat="45.99738727428711" lon="12.173162387358246"><ele>451.75</ele><time>2026-04-09T11:26:02Z</time></trkpt><trkpt lat="45.997522822546905" lon="12.173164397252101"><ele>453.0</ele><time>2026-04-09T11:26:03Z</time></trkpt><trkpt lat="45.99763229821738" lon="12.173163128840967"><ele>453.0</ele><time>2026-04-09T11:26:04Z</time></trkpt><trkpt lat="45.99772942443132" lon="12.173159136979718"><ele>453.0</ele><time>2026-04-09T11:26:05Z</time></trkpt><trkpt lat="45.99781312111074" lon="12.17312845953355"><ele>453.0</ele><time>2026-04-09T11:26:06Z</time></trkpt><trkpt lat="45.997877964158526" lon="12.17306469604085"><ele>453.0</ele><time>2026-04-09T11:26:07Z</time></trkpt><trkpt lat="45.997918233489955" lon="12.172975453562584"><ele>453.0</ele><time>2026-04-09T11:26:08Z</time></trkpt><trkpt lat="45.99793016722872" lon="12.172865684712628"><ele>453.0</ele><time>2026-04-09T11:26:09Z</time></trkpt><trkpt lat="45.99790881729064" lon="12.172742935882763"><ele>453.0</ele><time>2026-04-09T11:26:10Z</time></trkpt><trkpt lat="45.997856551006606" lon="12.172637614825097"><ele>452.99999999999994</ele><time>2026-04-09T11:26:11Z</time></trkpt><trkpt lat="45.99777483359752" lon="12.17257892990875"><ele>452.99999999999994</ele><time>2026-04-09T11:26:12Z</time></trkpt><trkpt lat="45.99767438280221" lon="12.172555778228817"><ele>453.0</ele><time>2026-04-09T11:26:13Z</time></trkpt><trkpt lat="45.997543136852876" lon="12.172554837443563"><ele>453.0</ele><time>2026-04-09T11:26:14Z</time></trkpt><trkpt lat="45.99737942051882" lon="12.172501646148884"><ele>446.66666666666663</ele><time>2026-04-09T11:26:15Z</time></trkpt><trkpt lat="45.9972095381099" lon="12.172451306648306"><ele>440.3333333333333</ele><time>2026-04-09T11:26:16Z</time></trkpt><trkpt lat="45.99705813198491" lon="12.172409653900948"><ele>434.0</ele><time>2026-04-09T11:26:17Z</time></trkpt><trkpt lat="45.996890775274764" lon="12.172363614780004"><ele>438.0</ele><time>2026-04-09T11:26:18Z</time></trkpt><trkpt lat="45.99671940890787" lon="12.172316472614568"><ele>442.0</ele><time>2026-04-09T11:26:19Z</time></trkpt><trkpt lat="45.99656825388232" lon="12.172300774601307"><ele>446.0</ele><time>2026-04-09T11:26:20Z</time></trkpt><trkpt lat="45.99644791122019" lon="12.172272170444074"><ele>450.0</ele><time>2026-04-09T11:26:21Z</time></trkpt><trkpt lat="45.99632644107177" lon="12.172279020939193"><ele>450.0</ele><time>2026-04-09T11:26:22Z</time></trkpt><trkpt lat="45.99619369642138" lon="12.172337776120877"><ele>450.0</ele><time>2026-04-09T11:26:23Z</time></trkpt><trkpt lat="45.99602786789837" lon="12.172440085485787"><ele>450.0</ele><time>2026-04-09T11:26:24Z</time></trkpt><trkpt lat="45.99584433793654" lon="12.172555701826214"><ele>441.0</ele><time>2026-04-09T11:26:25Z</time></trkpt><trkpt lat="45.99566252569996" lon="12.172659192880316"><ele>432.0</ele><time>2026-04-09T11:26:26Z</time></trkpt><trkpt lat="45.99548253143316" lon="12.172747210981651"><ele>423.0</ele><time>2026-04-09T11:26:27Z</time></trkpt><trkpt lat="45.99529976723075" lon="12.17284418949572"><ele>423.0</ele><time>2026-04-09T11:26:28Z</time></trkpt><trkpt lat="45.995133656460915" lon="12.172935278998153"><ele>423.0</ele><time>2026-04-09T11:26:29Z</time></trkpt><trkpt lat="45.99498302455938" lon="12.172992914680572"><ele>423.0</ele><time>2026-04-09T11:26:30Z</time></trkpt><trkpt lat="45.99483235801097" lon="12.173027504343894"><ele>421.33333333333337</ele><time>2026-04-09T11:26:30.999Z</time></trkpt><trkpt lat="45.99468115461166" lon="12.173044385712494"><ele>419.6666666666667</ele><time>2026-04-09T11:26:31.999Z</time></trkpt><trkpt lat="45.99452564085894" lon="12.173034469033974"><ele>418.0</ele><time>2026-04-09T11:26:32.999Z</time></trkpt><trkpt lat="45.994338797357585" lon="12.172992875065754"><ele>415.33333333333337</ele><time>2026-04-09T11:26:33.999Z</time></trkpt><trkpt lat="45.99415182101344" lon="12.172970638999104"><ele>412.66666666666663</ele><time>2026-04-09T11:26:35.001Z</time></trkpt><trkpt lat="45.99401010898393" lon="12.17295062829228"><ele>410.0</ele><time>2026-04-09T11:26:36.001Z</time></trkpt><trkpt lat="45.993876167449045" lon="12.172918032428539"><ele>410.0</ele><time>2026-04-09T11:26:37.001Z</time></trkpt><trkpt lat="45.99374397572562" lon="12.172847175075873"><ele>410.0</ele><time>2026-04-09T11:26:38.001Z</time></trkpt><trkpt lat="45.99361605326285" lon="12.172757699236131"><ele>410.0</ele><time>2026-04-09T11:26:39.001Z</time></trkpt><trkpt lat="45.993505911153214" lon="12.172695541332226"><ele>410.0</ele><time>2026-04-09T11:26:40.001Z</time></trkpt><trkpt lat="45.993389744569036" lon="12.172678313859768"><ele>408.75</ele><time>2026-04-09T11:26:41.001Z</time></trkpt><trkpt lat="45.993270996203" lon="12.172703084406862"><ele>407.5</ele><time>2026-04-09T11:26:42.001Z</time></trkpt><trkpt lat="45.99314007978793" lon="12.172752048362218"><ele>406.25</ele><time>2026-04-09T11:26:43.001Z</time></trkpt><trkpt lat="45.99300183825431" lon="12.172805032854246"><ele>405.0</ele><time>2026-04-09T11:26:44.001Z</time></trkpt><trkpt lat="45.992885229890774" lon="12.172843497116494"><ele>405.0</ele><time>2026-04-09T11:26:45.001Z</time></trkpt><trkpt lat="45.99278049032022" lon="12.172864889994576"><ele>405.0</ele><time>2026-04-09T11:26:46.001Z</time></trkpt><trkpt lat="45.99266684824567" lon="12.172849014271055"><ele>405.0</ele><time>2026-04-09T11:26:47.001Z</time></trkpt><trkpt lat="45.99255047116693" lon="12.172788413006597"><ele>405.0</ele><time>2026-04-09T11:26:48.001Z</time></trkpt><trkpt lat="45.99243399593527" lon="12.17270948503586"><ele>402.4</ele><time>2026-04-09T11:26:49.001Z</time></trkpt><trkpt lat="45.992335694409455" lon="12.172629896975067"><ele>399.8</ele><time>2026-04-09T11:26:50.001Z</time></trkpt><trkpt lat="45.99224556856666" lon="12.172555607699673"><ele>397.20000000000005</ele><time>2026-04-09T11:26:51Z</time></trkpt><trkpt lat="45.99217186556224" lon="12.172494330242564"><ele>394.6</ele><time>2026-04-09T11:26:52Z</time></trkpt><trkpt lat="45.99211605876532" lon="12.172449273126084"><ele>392.0</ele><time>2026-04-09T11:26:53Z</time></trkpt><trkpt lat="45.99202271621881" lon="12.172447057420882"><ele>392.0</ele><time>2026-04-09T11:26:55Z</time></trkpt><trkpt lat="45.9919991390125" lon="12.172558079923737"><ele>392.0</ele><time>2026-04-09T11:26:57Z</time></trkpt><trkpt lat="45.992104687889665" lon="12.17269751747234"><ele>392.0</ele><time>2026-04-09T11:26:59Z</time></trkpt><trkpt lat="45.99219078486688" lon="12.172744610806948"><ele>392.0</ele><time>2026-04-09T11:27:00Z</time></trkpt><trkpt lat="45.99226883561066" lon="12.172791126995861"><ele>392.0</ele><time>2026-04-09T11:27:01Z</time></trkpt><trkpt lat="45.99235142249934" lon="12.172864697759799"><ele>392.0</ele><time>2026-04-09T11:27:02Z</time></trkpt><trkpt lat="45.992457015563105" lon="12.172974106536257"><ele>392.0</ele><time>2026-04-09T11:27:03Z</time></trkpt><trkpt lat="45.99256983793909" lon="12.173084664924549"><ele>392.0</ele><time>2026-04-09T11:27:04Z</time></trkpt><trkpt lat="45.992669066610375" lon="12.173200082364636"><ele>392.0</ele><time>2026-04-09T11:27:05Z</time></trkpt><trkpt lat="45.99277283555878" lon="12.173323263824102"><ele>390.6</ele><time>2026-04-09T11:27:06Z</time></trkpt><trkpt lat="45.992879623156824" lon="12.173450222088464"><ele>389.20000000000005</ele><time>2026-04-09T11:27:07Z</time></trkpt><trkpt lat="45.99298313138217" lon="12.173558460364333"><ele>387.8</ele><time>2026-04-09T11:27:08Z</time></trkpt><trkpt lat="45.993064845670176" lon="12.17364036761349"><ele>386.4</ele><time>2026-04-09T11:27:09Z</time></trkpt><trkpt lat="45.9931255125653" lon="12.173703111982329"><ele>385.0</ele><time>2026-04-09T11:27:10Z</time></trkpt><trkpt lat="45.99317399353957" lon="12.173832200314273"><ele>385.0</ele><time>2026-04-09T11:27:12Z</time></trkpt><trkpt lat="45.99309198523728" lon="12.173944556501036"><ele>385.0</ele><time>2026-04-09T11:27:14Z</time></trkpt><trkpt lat="45.9929613053657" lon="12.173857280230184"><ele>385.0</ele><time>2026-04-09T11:27:16Z</time></trkpt><trkpt lat="45.99288626087631" lon="12.173754819378773"><ele>385.0</ele><time>2026-04-09T11:27:17Z</time></trkpt><trkpt lat="45.992805885498655" lon="12.17364092740245"><ele>385.0</ele><time>2026-04-09T11:27:18Z</time></trkpt><trkpt lat="45.99271464657273" lon="12.17353702021363"><ele>385.0</ele><time>2026-04-09T11:27:19Z</time></trkpt><trkpt lat="45.9925994600581" lon="12.173406683491626"><ele>385.0</ele><time>2026-04-09T11:27:20Z</time></trkpt><trkpt lat="45.99247894182876" lon="12.173287089853645"><ele>385.0</ele><time>2026-04-09T11:27:21Z</time></trkpt><trkpt lat="45.992356430332826" lon="12.17317998303792"><ele>386.75</ele><time>2026-04-09T11:27:22Z</time></trkpt><trkpt lat="45.99221161060843" lon="12.173090064168573"><ele>388.5</ele><time>2026-04-09T11:27:23Z</time></trkpt><trkpt lat="45.99207222251633" lon="12.173017037595105"><ele>390.25</ele><time>2026-04-09T11:27:24Z</time></trkpt><trkpt lat="45.991942814415516" lon="12.172973794394371"><ele>392.0</ele><time>2026-04-09T11:27:25Z</time></trkpt><trkpt lat="45.99182563801767" lon="12.172939409977703"><ele>392.0</ele><time>2026-04-09T11:27:26Z</time></trkpt><trkpt lat="45.99172141692978" lon="12.17285572717609"><ele>392.0</ele><time>2026-04-09T11:27:27Z</time></trkpt><trkpt lat="45.99163027181835" lon="12.172721660514897"><ele>392.0</ele><time>2026-04-09T11:27:28Z</time></trkpt><trkpt lat="45.99153454635351" lon="12.172555482394454"><ele>392.0</ele><time>2026-04-09T11:27:29Z</time></trkpt><trkpt lat="45.9914332854486" lon="12.172404315606453"><ele>396.25</ele><time>2026-04-09T11:27:30Z</time></trkpt><trkpt lat="45.99132913965504" lon="12.172306965872705"><ele>400.5</ele><time>2026-04-09T11:27:31Z</time></trkpt><trkpt lat="45.99120840538479" lon="12.17224639405613"><ele>404.75</ele><time>2026-04-09T11:27:32Z</time></trkpt><trkpt lat="45.991077036648115" lon="12.172213897593018"><ele>409.0</ele><time>2026-04-09T11:27:33Z</time></trkpt><trkpt lat="45.9909365258705" lon="12.17220591114643"><ele>405.5</ele><time>2026-04-09T11:27:34Z</time></trkpt><trkpt lat="45.9908029377039" lon="12.172176418976159"><ele>402.0</ele><time>2026-04-09T11:27:35Z</time></trkpt><trkpt lat="45.99067631726989" lon="12.172098291547774"><ele>398.5</ele><time>2026-04-09T11:27:36Z</time></trkpt><trkpt lat="45.990549334015746" lon="12.17201895523476"><ele>395.0</ele><time>2026-04-09T11:27:37Z</time></trkpt><trkpt lat="45.99041485959898" lon="12.171967102689308"><ele>395.0</ele><time>2026-04-09T11:27:38Z</time></trkpt><trkpt lat="45.990274611532506" lon="12.171948382845759"><ele>395.0</ele><time>2026-04-09T11:27:39Z</time></trkpt><trkpt lat="45.990125163621784" lon="12.171943665362"><ele>395.0</ele><time>2026-04-09T11:27:40Z</time></trkpt><trkpt lat="45.989972547850236" lon="12.171935595993041"><ele>395.0</ele><time>2026-04-09T11:27:41Z</time></trkpt><trkpt lat="45.98983307114857" lon="12.171905856279489"><ele>389.0</ele><time>2026-04-09T11:27:42Z</time></trkpt><trkpt lat="45.9896979004013" lon="12.171857300404149"><ele>383.0</ele><time>2026-04-09T11:27:43Z</time></trkpt><trkpt lat="45.989568639555415" lon="12.171806591564788"><ele>377.0</ele><time>2026-04-09T11:27:44Z</time></trkpt><trkpt lat="45.98944519124694" lon="12.17174476466328"><ele>371.0</ele><time>2026-04-09T11:27:45Z</time></trkpt><trkpt lat="45.98932894552413" lon="12.171674382762642"><ele>371.0</ele><time>2026-04-09T11:27:46Z</time></trkpt><trkpt lat="45.98920837147939" lon="12.1716087176818"><ele>371.0</ele><time>2026-04-09T11:27:47Z</time></trkpt><trkpt lat="45.98909708128909" lon="12.171548198641553"><ele>371.0</ele><time>2026-04-09T11:27:48Z</time></trkpt><trkpt lat="45.98901239100111" lon="12.17151427696766"><ele>371.0</ele><time>2026-04-09T11:27:49Z</time></trkpt><trkpt lat="45.98893422201178" lon="12.171499445308903"><ele>371.0</ele><time>2026-04-09T11:27:50Z</time></trkpt><trkpt lat="45.9888338654931" lon="12.171564391905115"><ele>366.5</ele><time>2026-04-09T11:27:52Z</time></trkpt><trkpt lat="45.988832715322125" lon="12.171714997292218"><ele>362.0</ele><time>2026-04-09T11:27:54Z</time></trkpt><trkpt lat="45.98894847265839" lon="12.171815704397744"><ele>357.5</ele><time>2026-04-09T11:27:56Z</time></trkpt><trkpt lat="45.98905936705471" lon="12.171841143314195"><ele>353.0</ele><time>2026-04-09T11:27:57Z</time></trkpt><trkpt lat="45.989161081262985" lon="12.171868748881558"><ele>357.5</ele><time>2026-04-09T11:27:58Z</time></trkpt><trkpt lat="45.989277913757135" lon="12.171915925399505"><ele>362.0</ele><time>2026-04-09T11:27:59Z</time></trkpt><trkpt lat="45.98942744398925" lon="12.171979643830781"><ele>366.5</ele><time>2026-04-09T11:28:00Z</time></trkpt><trkpt lat="45.98956713894471" lon="12.172048061011337"><ele>371.0</ele><time>2026-04-09T11:28:01Z</time></trkpt><trkpt lat="45.98971473133934" lon="12.172115402131519"><ele>371.0</ele><time>2026-04-09T11:28:02Z</time></trkpt><trkpt lat="45.989877394033186" lon="12.172176209595209"><ele>371.0</ele><time>2026-04-09T11:28:03Z</time></trkpt><trkpt lat="45.99002394227687" lon="12.172206894844473"><ele>371.0</ele><time>2026-04-09T11:28:04Z</time></trkpt><trkpt lat="45.990130049153144" lon="12.172214061541839"><ele>371.0</ele><time>2026-04-09T11:28:05Z</time></trkpt><trkpt lat="45.99019366934325" lon="12.172224384504531"><ele>367.1666666666667</ele><time>2026-04-09T11:28:06Z</time></trkpt><trkpt lat="45.990258662610536" lon="12.172238031204753"><ele>363.33333333333337</ele><time>2026-04-09T11:28:07Z</time></trkpt><trkpt lat="45.99031560099213" lon="12.172388981735686"><ele>359.5</ele><time>2026-04-09T11:28:09Z</time></trkpt><trkpt lat="45.99028217488767" lon="12.172468636004904"><ele>355.6666666666667</ele><time>2026-04-09T11:28:10Z</time></trkpt><trkpt lat="45.99021910913842" lon="12.172497537744887"><ele>351.8333333333333</ele><time>2026-04-09T11:28:11Z</time></trkpt><trkpt lat="45.990137571154634" lon="12.172477370176539"><ele>348.0</ele><time>2026-04-09T11:28:12Z</time></trkpt><trkpt lat="45.99002223005936" lon="12.172442554831637"><ele>346.25</ele><time>2026-04-09T11:28:13Z</time></trkpt><trkpt lat="45.98987168295625" lon="12.172417829604177"><ele>344.5</ele><time>2026-04-09T11:28:14Z</time></trkpt><trkpt lat="45.989720084921146" lon="12.172393263319156"><ele>342.75</ele><time>2026-04-09T11:28:15Z</time></trkpt><trkpt lat="45.98958054988662" lon="12.172364011088805"><ele>341.0</ele><time>2026-04-09T11:28:16Z</time></trkpt><trkpt lat="45.98942992356965" lon="12.172345858362284"><ele>337.75</ele><time>2026-04-09T11:28:17Z</time></trkpt><trkpt lat="45.9892866839169" lon="12.172341101922987"><ele>334.5</ele><time>2026-04-09T11:28:18Z</time></trkpt><trkpt lat="45.98915676771509" lon="12.172363589567912"><ele>331.25</ele><time>2026-04-09T11:28:19Z</time></trkpt><trkpt lat="45.98903394910075" lon="12.172398327854848"><ele>328.0</ele><time>2026-04-09T11:28:20Z</time></trkpt><trkpt lat="45.988915638305976" lon="12.172429361536135"><ele>328.0</ele><time>2026-04-09T11:28:21Z</time></trkpt><trkpt lat="45.98880117162484" lon="12.172451209068512"><ele>328.0</ele><time>2026-04-09T11:28:22Z</time></trkpt><trkpt lat="45.988679419916366" lon="12.172461291104284"><ele>328.0</ele><time>2026-04-09T11:28:23Z</time></trkpt><trkpt lat="45.98853851861037" lon="12.172471015870354"><ele>328.0</ele><time>2026-04-09T11:28:24Z</time></trkpt><trkpt lat="45.98838312974066" lon="12.172477275561336"><ele>324.66666666666663</ele><time>2026-04-09T11:28:25Z</time></trkpt><trkpt lat="45.98822564072586" lon="12.17247827790043"><ele>321.3333333333333</ele><time>2026-04-09T11:28:26Z</time></trkpt><trkpt lat="45.98807725604289" lon="12.172443733579865"><ele>318.0</ele><time>2026-04-09T11:28:27Z</time></trkpt><trkpt lat="45.98791966168417" lon="12.172383985509876"><ele>317.3333333333333</ele><time>2026-04-09T11:28:28Z</time></trkpt><trkpt lat="45.987772479832984" lon="12.172317706874548"><ele>316.66666666666663</ele><time>2026-04-09T11:28:29Z</time></trkpt><trkpt lat="45.987615111738926" lon="12.172267968435454"><ele>316.0</ele><time>2026-04-09T11:28:30Z</time></trkpt><trkpt lat="45.987459993923984" lon="12.172233789548603"><ele>316.0</ele><time>2026-04-09T11:28:31Z</time></trkpt><trkpt lat="45.98729930240226" lon="12.172221129294392"><ele>316.0</ele><time>2026-04-09T11:28:32Z</time></trkpt><trkpt lat="45.9871320853007" lon="12.1722235880985"><ele>316.0</ele><time>2026-04-09T11:28:33Z</time></trkpt><trkpt lat="45.986960964197245" lon="12.172230253586282"><ele>316.0</ele><time>2026-04-09T11:28:34Z</time></trkpt><trkpt lat="45.98678554151544" lon="12.172240423801467"><ele>316.0</ele><time>2026-04-09T11:28:35Z</time></trkpt><trkpt lat="45.98660275005443" lon="12.172256430868948"><ele>316.0</ele><time>2026-04-09T11:28:36Z</time></trkpt><trkpt lat="45.986422197184154" lon="12.172278184816543"><ele>313.0</ele><time>2026-04-09T11:28:37Z</time></trkpt><trkpt lat="45.98625263860519" lon="12.17230833308933"><ele>310.0</ele><time>2026-04-09T11:28:38Z</time></trkpt><trkpt lat="45.98609142398838" lon="12.17235805296079"><ele>307.0</ele><time>2026-04-09T11:28:39Z</time></trkpt><trkpt lat="45.98593428991581" lon="12.172426540109274"><ele>304.66666666666663</ele><time>2026-04-09T11:28:40Z</time></trkpt><trkpt lat="45.9857712128027" lon="12.172508997309816"><ele>302.3333333333333</ele><time>2026-04-09T11:28:41.001Z</time></trkpt><trkpt lat="45.98562161458319" lon="12.172581541692267"><ele>300.0</ele><time>2026-04-09T11:28:42.001Z</time></trkpt><trkpt lat="45.98547993587878" lon="12.172641214528678"><ele>300.0</ele><time>2026-04-09T11:28:43.001Z</time></trkpt><trkpt lat="45.98534215451404" lon="12.17269201398635"><ele>300.0</ele><time>2026-04-09T11:28:44.001Z</time></trkpt><trkpt lat="45.98520662004485" lon="12.172730777330814"><ele>300.0</ele><time>2026-04-09T11:28:45.001Z</time></trkpt><trkpt lat="45.98507259561472" lon="12.172764346779967"><ele>300.0</ele><time>2026-04-09T11:28:46.001Z</time></trkpt><trkpt lat="45.98492814061658" lon="12.172797820304524"><ele>297.6666666666667</ele><time>2026-04-09T11:28:47.001Z</time></trkpt><trkpt lat="45.9847735802613" lon="12.172846083214525"><ele>295.33333333333337</ele><time>2026-04-09T11:28:48.001Z</time></trkpt><trkpt lat="45.9846013301734" lon="12.172899875459349"><ele>293.0</ele><time>2026-04-09T11:28:49.001Z</time></trkpt><trkpt lat="45.984416390152795" lon="12.172950858219776"><ele>293.0</ele><time>2026-04-09T11:28:50.001Z</time></trkpt><trkpt lat="45.984219313107246" lon="12.172980480262746"><ele>293.0</ele><time>2026-04-09T11:28:51.001Z</time></trkpt><trkpt lat="45.98402535395711" lon="12.173035086053595"><ele>293.0</ele><time>2026-04-09T11:28:52.001Z</time></trkpt><trkpt lat="45.98383476962993" lon="12.173120345143802"><ele>291.0</ele><time>2026-04-09T11:28:53.001Z</time></trkpt><trkpt lat="45.98364313352386" lon="12.173191119924276"><ele>289.0</ele><time>2026-04-09T11:28:54.001Z</time></trkpt><trkpt lat="45.98345855785868" lon="12.173241209197712"><ele>287.0</ele><time>2026-04-09T11:28:55.001Z</time></trkpt><trkpt lat="45.983292084302235" lon="12.17332689299204"><ele>285.33333333333337</ele><time>2026-04-09T11:28:56.001Z</time></trkpt><trkpt lat="45.983124809308535" lon="12.173389042804578"><ele>283.6666666666667</ele><time>2026-04-09T11:28:57.001Z</time></trkpt><trkpt lat="45.982966689658674" lon="12.173454806998109"><ele>282.0</ele><time>2026-04-09T11:28:58.001Z</time></trkpt><trkpt lat="45.98281197040361" lon="12.173519844952974"><ele>282.0</ele><time>2026-04-09T11:28:59.001Z</time></trkpt><trkpt lat="45.982655618873174" lon="12.173585554545216"><ele>282.0</ele><time>2026-04-09T11:29:00Z</time></trkpt><trkpt lat="45.98249707479996" lon="12.173653749792377"><ele>282.0</ele><time>2026-04-09T11:29:01Z</time></trkpt><trkpt lat="45.982333833065276" lon="12.173721693005657"><ele>279.0</ele><time>2026-04-09T11:29:02Z</time></trkpt><trkpt lat="45.98216815609094" lon="12.173790577940522"><ele>276.0</ele><time>2026-04-09T11:29:03Z</time></trkpt><trkpt lat="45.98199918713028" lon="12.17385950068445"><ele>273.0</ele><time>2026-04-09T11:29:04Z</time></trkpt><trkpt lat="45.98183318235889" lon="12.173925740686778"><ele>273.3333333333333</ele><time>2026-04-09T11:29:05Z</time></trkpt><trkpt lat="45.981676305441916" lon="12.173988276070363"><ele>273.66666666666663</ele><time>2026-04-09T11:29:06Z</time></trkpt><trkpt lat="45.98152854786504" lon="12.174044492447779"><ele>274.0</ele><time>2026-04-09T11:29:07Z</time></trkpt><trkpt lat="45.98138500618139" lon="12.17410281277878"><ele>274.0</ele><time>2026-04-09T11:29:08Z</time></trkpt><trkpt lat="45.98124923599231" lon="12.174161147366382"><ele>274.0</ele><time>2026-04-09T11:29:09Z</time></trkpt><trkpt lat="45.98113183944761" lon="12.174210529732367"><ele>274.0</ele><time>2026-04-09T11:29:10Z</time></trkpt><trkpt lat="45.98102810805401" lon="12.174248528230304"><ele>274.0</ele><time>2026-04-09T11:29:11Z</time></trkpt><trkpt lat="45.98093964693445" lon="12.174287513964142"><ele>274.0</ele><time>2026-04-09T11:29:12Z</time></trkpt><trkpt lat="45.9808725323275" lon="12.174314860061443"><ele>274.0</ele><time>2026-04-09T11:29:13Z</time></trkpt><trkpt lat="45.980774243166316" lon="12.17436272805226"><ele>274.0</ele><time>2026-04-09T11:29:15Z</time></trkpt><trkpt lat="45.980687702086584" lon="12.17438002132697"><ele>274.0</ele><time>2026-04-09T11:29:23Z</time></trkpt><trkpt lat="45.980582744978044" lon="12.174421765363277"><ele>274.0</ele><time>2026-04-09T11:29:25Z</time></trkpt><trkpt lat="45.98049856232054" lon="12.174468003779754"><ele>273.2</ele><time>2026-04-09T11:29:26Z</time></trkpt><trkpt lat="45.98042323997086" lon="12.174496712203304"><ele>272.4</ele><time>2026-04-09T11:29:27Z</time></trkpt><trkpt lat="45.980345369435504" lon="12.174531543610087"><ele>271.6</ele><time>2026-04-09T11:29:28Z</time></trkpt><trkpt lat="45.98025619272063" lon="12.174572714112383"><ele>270.8</ele><time>2026-04-09T11:29:29Z</time></trkpt><trkpt lat="45.98014877343138" lon="12.174595285950415"><ele>270.0</ele><time>2026-04-09T11:29:30Z</time></trkpt><trkpt lat="45.98003251135398" lon="12.17467160660358"><ele>269.0</ele><time>2026-04-09T11:29:31Z</time></trkpt><trkpt lat="45.97991824268808" lon="12.174714135168136"><ele>268.0</ele><time>2026-04-09T11:29:32Z</time></trkpt><trkpt lat="45.97979871787032" lon="12.174757538075319"><ele>267.0</ele><time>2026-04-09T11:29:33Z</time></trkpt><trkpt lat="45.97967866414393" lon="12.174804630322084"><ele>266.0</ele><time>2026-04-09T11:29:34Z</time></trkpt><trkpt lat="45.97955736346334" lon="12.174857692528313"><ele>265.83333333333337</ele><time>2026-04-09T11:29:35Z</time></trkpt><trkpt lat="45.97944915586796" lon="12.1748975602449"><ele>265.6666666666667</ele><time>2026-04-09T11:29:36Z</time></trkpt><trkpt lat="45.97935057659655" lon="12.174933734013935"><ele>265.5</ele><time>2026-04-09T11:29:37Z</time></trkpt><trkpt lat="45.979284823289184" lon="12.174941601199261"><ele>265.3333333333333</ele><time>2026-04-09T11:29:38Z</time></trkpt><trkpt lat="45.97920060197525" lon="12.174921427356468"><ele>265.16666666666663</ele><time>2026-04-09T11:29:40Z</time></trkpt><trkpt lat="45.979125452752164" lon="12.174917823427828"><ele>265.0</ele><time>2026-04-09T11:29:42Z</time></trkpt><trkpt lat="45.97909609232142" lon="12.17502264989907"><ele>260.0</ele><time>2026-04-09T11:30:43.999Z</time></trkpt><trkpt lat="45.9790414861792" lon="12.175069953386986"><ele>260.0</ele><time>2026-04-09T11:30:51Z</time></trkpt></trkseg><trkseg><trkpt lat="45.974447499072156" lon="12.175461938616051"><ele>242.0</ele><time>2026-04-09T11:39:55.996Z</time></trkpt><trkpt lat="45.974372370156864" lon="12.175484797509291"><ele>242.0</ele><time>2026-04-09T11:40:19.999Z</time></trkpt><trkpt lat="45.97430831294738" lon="12.175503122562734"><ele>242.0</ele><time>2026-04-09T11:40:20.999Z</time></trkpt><trkpt lat="45.974210062582344" lon="12.175518755153165"><ele>242.0</ele><time>2026-04-09T11:40:22.999Z</time></trkpt><trkpt lat="45.97406002986948" lon="12.175534543711736"><ele>242.0</ele><time>2026-04-09T11:40:24.999Z</time></trkpt><trkpt lat="45.97397848100619" lon="12.175545484267724"><ele>241.66666666666669</ele><time>2026-04-09T11:40:25.999Z</time></trkpt><trkpt lat="45.97390374271796" lon="12.17554984593859"><ele>241.33333333333334</ele><time>2026-04-09T11:40:26.999Z</time></trkpt><trkpt lat="45.97383040856413" lon="12.175534398117891"><ele>241.0</ele><time>2026-04-09T11:40:27.999Z</time></trkpt><trkpt lat="45.973771511310474" lon="12.175491786523766"><ele>240.66666666666669</ele><time>2026-04-09T11:40:28.999Z</time></trkpt><trkpt lat="45.97370911422203" lon="12.175404203863014"><ele>240.33333333333334</ele><time>2026-04-09T11:40:30.999Z</time></trkpt><trkpt lat="45.97367567620197" lon="12.175210706874132"><ele>240.0</ele><time>2026-04-09T11:40:48Z</time></trkpt><trkpt lat="45.97365589457968" lon="12.175057702568852"><ele>240.0</ele><time>2026-04-09T11:40:49Z</time></trkpt><trkpt lat="45.97363914203617" lon="12.174928127169956"><ele>240.0</ele><time>2026-04-09T11:40:50Z</time></trkpt><trkpt lat="45.97362517690744" lon="12.17482011150019"><ele>240.0</ele><time>2026-04-09T11:40:51Z</time></trkpt><trkpt lat="45.973608483598596" lon="12.174707181133256"><ele>240.0</ele><time>2026-04-09T11:40:52Z</time></trkpt><trkpt lat="45.97359105102488" lon="12.174592779123182"><ele>240.0</ele><time>2026-04-09T11:40:53Z</time></trkpt><trkpt lat="45.97356959052025" lon="12.17445958462274"><ele>240.0</ele><time>2026-04-09T11:40:54Z</time></trkpt><trkpt lat="45.97354587168672" lon="12.174330344131446"><ele>239.6</ele><time>2026-04-09T11:40:55Z</time></trkpt><trkpt lat="45.97352147424605" lon="12.17420965731763"><ele>239.2</ele><time>2026-04-09T11:40:56Z</time></trkpt><trkpt lat="45.97349385559807" lon="12.174085549988474"><ele>238.8</ele><time>2026-04-09T11:40:57Z</time></trkpt><trkpt lat="45.97345234267747" lon="12.17396915277734"><ele>238.4</ele><time>2026-04-09T11:40:58Z</time></trkpt><trkpt lat="45.9734258471188" lon="12.173839612239084"><ele>238.0</ele><time>2026-04-09T11:40:59Z</time></trkpt><trkpt lat="45.97339525937311" lon="12.173709409122281"><ele>238.5</ele><time>2026-04-09T11:41:00Z</time></trkpt><trkpt lat="45.973353500318915" lon="12.17355422010886"><ele>239.0</ele><time>2026-04-09T11:41:01Z</time></trkpt><trkpt lat="45.973310526764024" lon="12.17339663766747"><ele>239.5</ele><time>2026-04-09T11:41:02Z</time></trkpt><trkpt lat="45.973266683843754" lon="12.173248309372728"><ele>240.0</ele><time>2026-04-09T11:41:03Z</time></trkpt><trkpt lat="45.97321603552914" lon="12.173084984606934"><ele>244.0</ele><time>2026-04-09T11:41:04Z</time></trkpt><trkpt lat="45.97316336431284" lon="12.172902359326638"><ele>248.0</ele><time>2026-04-09T11:41:05Z</time></trkpt><trkpt lat="45.97310155307152" lon="12.172682547057558"><ele>252.0</ele><time>2026-04-09T11:41:06Z</time></trkpt><trkpt lat="45.973025260911406" lon="12.172433048346726"><ele>259.6666666666667</ele><time>2026-04-09T11:41:07Z</time></trkpt><trkpt lat="45.97294267062455" lon="12.172148684637476"><ele>267.33333333333337</ele><time>2026-04-09T11:41:08Z</time></trkpt><trkpt lat="45.972876289954314" lon="12.171898465166166"><ele>275.0</ele><time>2026-04-09T11:41:09Z</time></trkpt><trkpt lat="45.9728108719782" lon="12.171660992851152"><ele>282.33333333333337</ele><time>2026-04-09T11:41:10Z</time></trkpt><trkpt lat="45.97273230444019" lon="12.17139160008064"><ele>289.6666666666667</ele><time>2026-04-09T11:41:11Z</time></trkpt><trkpt lat="45.97264911607086" lon="12.171110758935225"><ele>297.0</ele><time>2026-04-09T11:41:12Z</time></trkpt><trkpt lat="45.972573958375875" lon="12.170832280216777"><ele>300.6666666666667</ele><time>2026-04-09T11:41:13Z</time></trkpt><trkpt lat="45.97252746003592" lon="12.170555659782119"><ele>304.33333333333337</ele><time>2026-04-09T11:41:14Z</time></trkpt><trkpt lat="45.97247528377117" lon="12.170283434855394"><ele>308.0</ele><time>2026-04-09T11:41:15Z</time></trkpt><trkpt lat="45.97240548647006" lon="12.169997067190234"><ele>290.6666666666667</ele><time>2026-04-09T11:41:16Z</time></trkpt><trkpt lat="45.972354926183975" lon="12.169711665441815"><ele>273.3333333333333</ele><time>2026-04-09T11:41:17Z</time></trkpt><trkpt lat="45.97230630925122" lon="12.169447478588195"><ele>256.0</ele><time>2026-04-09T11:41:18Z</time></trkpt><trkpt lat="45.97226659085041" lon="12.169192248516834"><ele>258.66666666666663</ele><time>2026-04-09T11:41:19Z</time></trkpt><trkpt lat="45.97222213373337" lon="12.168932785371432"><ele>261.3333333333333</ele><time>2026-04-09T11:41:20Z</time></trkpt><trkpt lat="45.97217921719597" lon="12.168683230762102"><ele>264.0</ele><time>2026-04-09T11:41:21Z</time></trkpt><trkpt lat="45.97213138445055" lon="12.168427847317107"><ele>265.3333333333333</ele><time>2026-04-09T11:41:22Z</time></trkpt><trkpt lat="45.97208635627752" lon="12.168171040241548"><ele>266.66666666666663</ele><time>2026-04-09T11:41:23Z</time></trkpt><trkpt lat="45.97203701011834" lon="12.1679058508714"><ele>268.0</ele><time>2026-04-09T11:41:24Z</time></trkpt><trkpt lat="45.97199100910864" lon="12.167640325661749"><ele>268.0</ele><time>2026-04-09T11:41:25Z</time></trkpt><trkpt lat="45.97194307212962" lon="12.167369003419235"><ele>268.0</ele><time>2026-04-09T11:41:26Z</time></trkpt><trkpt lat="45.9718924045703" lon="12.167079985019654"><ele>268.0</ele><time>2026-04-09T11:41:27Z</time></trkpt><trkpt lat="45.97183918982849" lon="12.166792209461017"><ele>268.66666666666663</ele><time>2026-04-09T11:41:28Z</time></trkpt><trkpt lat="45.97181563657267" lon="12.166531904835434"><ele>269.3333333333333</ele><time>2026-04-09T11:41:29Z</time></trkpt><trkpt lat="45.97179244766327" lon="12.166280767524077"><ele>270.0</ele><time>2026-04-09T11:41:30Z</time></trkpt><trkpt lat="45.97177893018007" lon="12.166020818023942"><ele>268.3333333333333</ele><time>2026-04-09T11:41:31Z</time></trkpt><trkpt lat="45.97176854036157" lon="12.165746318661052"><ele>266.66666666666663</ele><time>2026-04-09T11:41:32Z</time></trkpt><trkpt lat="45.97175955748097" lon="12.165479171033006"><ele>265.0</ele><time>2026-04-09T11:41:33Z</time></trkpt><trkpt lat="45.97175451796402" lon="12.165223808225937"><ele>263.0</ele><time>2026-04-09T11:41:34Z</time></trkpt><trkpt lat="45.97174822998274" lon="12.164906737458628"><ele>261.0</ele><time>2026-04-09T11:41:35Z</time></trkpt><trkpt lat="45.97174150609521" lon="12.164567686212704"><ele>261.0</ele><time>2026-04-09T11:41:36Z</time></trkpt><trkpt lat="45.97173575174485" lon="12.164271318859596"><ele>261.0</ele><time>2026-04-09T11:41:37Z</time></trkpt><trkpt lat="45.97173127636678" lon="12.16399827276824"><ele>261.0</ele><time>2026-04-09T11:41:38Z</time></trkpt><trkpt lat="45.97172607783778" lon="12.163681107052911"><ele>261.0</ele><time>2026-04-09T11:41:39Z</time></trkpt><trkpt lat="45.97172036739595" lon="12.16334453362164"><ele>261.0</ele><time>2026-04-09T11:41:40Z</time></trkpt><trkpt lat="45.971717904582285" lon="12.163052372252544"><ele>261.0</ele><time>2026-04-09T11:41:41Z</time></trkpt><trkpt lat="45.9717047698603" lon="12.162789190135735"><ele>261.0</ele><time>2026-04-09T11:41:42Z</time></trkpt><trkpt lat="45.971709686969994" lon="12.162552535991603"><ele>261.0</ele><time>2026-04-09T11:41:43Z</time></trkpt><trkpt lat="45.97172173538852" lon="12.16231474319988"><ele>261.0</ele><time>2026-04-09T11:41:44Z</time></trkpt><trkpt lat="45.97172260701526" lon="12.162074047382282"><ele>261.0</ele><time>2026-04-09T11:41:45Z</time></trkpt><trkpt lat="45.971713488846056" lon="12.161843742280704"><ele>261.0</ele><time>2026-04-09T11:41:46Z</time></trkpt><trkpt lat="45.971699230561946" lon="12.16162584006193"><ele>261.0</ele><time>2026-04-09T11:41:47Z</time></trkpt><trkpt lat="45.9716741774686" lon="12.161409092953775"><ele>258.3333333333333</ele><time>2026-04-09T11:41:48Z</time></trkpt><trkpt lat="45.97162314726522" lon="12.161152440853526"><ele>255.66666666666666</ele><time>2026-04-09T11:41:49Z</time></trkpt><trkpt lat="45.971546915682666" lon="12.16084830287834"><ele>253.0</ele><time>2026-04-09T11:41:50Z</time></trkpt><trkpt lat="45.97146929457956" lon="12.160503084648035"><ele>253.0</ele><time>2026-04-09T11:41:51Z</time></trkpt><trkpt lat="45.97135541643765" lon="12.160098110557284"><ele>253.0</ele><time>2026-04-09T11:41:52Z</time></trkpt><trkpt lat="45.971261055499276" lon="12.159731596427717"><ele>261.0</ele><time>2026-04-09T11:41:53Z</time></trkpt><trkpt lat="45.97115636166903" lon="12.1593458637901"><ele>269.0</ele><time>2026-04-09T11:41:54Z</time></trkpt><trkpt lat="45.97105987456511" lon="12.15898236743024"><ele>273.5</ele><time>2026-04-09T11:41:55Z</time></trkpt><trkpt lat="45.97097291937741" lon="12.158657535442591"><ele>278.0</ele><time>2026-04-09T11:41:56Z</time></trkpt><trkpt lat="45.970883958384455" lon="12.158347806396186"><ele>267.5</ele><time>2026-04-09T11:41:57Z</time></trkpt><trkpt lat="45.97077745932969" lon="12.158044663589857"><ele>257.0</ele><time>2026-04-09T11:41:58Z</time></trkpt><trkpt lat="45.9706485118709" lon="12.157749915707516"><ele>257.0</ele><time>2026-04-09T11:41:59Z</time></trkpt><trkpt lat="45.97049775455593" lon="12.157457773280377"><ele>257.0</ele><time>2026-04-09T11:42:00Z</time></trkpt><trkpt lat="45.970337071848824" lon="12.15717958678314"><ele>263.5</ele><time>2026-04-09T11:42:01Z</time></trkpt><trkpt lat="45.97017928192845" lon="12.156911314708088"><ele>270.0</ele><time>2026-04-09T11:42:02Z</time></trkpt><trkpt lat="45.970034613230986" lon="12.156621264294309"><ele>260.5</ele><time>2026-04-09T11:42:03Z</time></trkpt><trkpt lat="45.96986778391754" lon="12.156316800746911"><ele>251.0</ele><time>2026-04-09T11:42:04Z</time></trkpt><trkpt lat="45.969691180768386" lon="12.155991735596489"><ele>256.5</ele><time>2026-04-09T11:42:05Z</time></trkpt><trkpt lat="45.96951251063433" lon="12.155660208808325"><ele>262.0</ele><time>2026-04-09T11:42:06Z</time></trkpt><trkpt lat="45.969345635007485" lon="12.15535584404359"><ele>258.5</ele><time>2026-04-09T11:42:07Z</time></trkpt><trkpt lat="45.96918509040979" lon="12.155093962127525"><ele>255.0</ele><time>2026-04-09T11:42:08Z</time></trkpt><trkpt lat="45.96905461272815" lon="12.154838656220326"><ele>255.0</ele><time>2026-04-09T11:42:09Z</time></trkpt><trkpt lat="45.96892619126205" lon="12.154603663475031"><ele>255.0</ele><time>2026-04-09T11:42:10Z</time></trkpt><trkpt lat="45.96880339875147" lon="12.154377976048933"><ele>255.0</ele><time>2026-04-09T11:42:11Z</time></trkpt><trkpt lat="45.96868962636984" lon="12.154169736069866"><ele>257.3333333333333</ele><time>2026-04-09T11:42:12Z</time></trkpt><trkpt lat="45.96858588492078" lon="12.153975836698544"><ele>259.66666666666663</ele><time>2026-04-09T11:42:13Z</time></trkpt><trkpt lat="45.96849242738185" lon="12.153796119195702"><ele>262.0</ele><time>2026-04-09T11:42:14Z</time></trkpt><trkpt lat="45.968405285962014" lon="12.153624214096768"><ele>259.0</ele><time>2026-04-09T11:42:15Z</time></trkpt><trkpt lat="45.968318073229774" lon="12.153440257389965"><ele>256.0</ele><time>2026-04-09T11:42:16Z</time></trkpt><trkpt lat="45.96825000199898" lon="12.153217891352122"><ele>253.0</ele><time>2026-04-09T11:42:17Z</time></trkpt><trkpt lat="45.968165973764606" lon="12.153007572976831"><ele>253.0</ele><time>2026-04-09T11:42:18Z</time></trkpt><trkpt lat="45.96810069637355" lon="12.152812552313343"><ele>253.0</ele><time>2026-04-09T11:42:19Z</time></trkpt><trkpt lat="45.9680393272216" lon="12.152612590809802"><ele>253.0</ele><time>2026-04-09T11:42:20Z</time></trkpt><trkpt lat="45.967970515056116" lon="12.152365680897878"><ele>257.0</ele><time>2026-04-09T11:42:21Z</time></trkpt><trkpt lat="45.967878188928246" lon="12.152078978797984"><ele>261.0</ele><time>2026-04-09T11:42:22Z</time></trkpt><trkpt lat="45.96778930880797" lon="12.151751595250326"><ele>261.0</ele><time>2026-04-09T11:42:23Z</time></trkpt><trkpt lat="45.96768876149878" lon="12.15141146366461"><ele>261.0</ele><time>2026-04-09T11:42:24Z</time></trkpt><trkpt lat="45.967596948544944" lon="12.151098858540903"><ele>256.5</ele><time>2026-04-09T11:42:25Z</time></trkpt><trkpt lat="45.96750676498702" lon="12.150789535850736"><ele>252.0</ele><time>2026-04-09T11:42:26Z</time></trkpt><trkpt lat="45.96740627723833" lon="12.150447194619185"><ele>251.5</ele><time>2026-04-09T11:42:27Z</time></trkpt><trkpt lat="45.96729643987445" lon="12.150094454196667"><ele>251.0</ele><time>2026-04-09T11:42:28Z</time></trkpt><trkpt lat="45.96718290728464" lon="12.149749791553448"><ele>251.0</ele><time>2026-04-09T11:42:29Z</time></trkpt><trkpt lat="45.96706708902828" lon="12.14940841945665"><ele>251.0</ele><time>2026-04-09T11:42:30Z</time></trkpt><trkpt lat="45.966948102189235" lon="12.14907137834082"><ele>250.5</ele><time>2026-04-09T11:42:31Z</time></trkpt><trkpt lat="45.966827704006725" lon="12.148733809978415"><ele>250.0</ele><time>2026-04-09T11:42:32Z</time></trkpt><trkpt lat="45.96669450196213" lon="12.148389005295991"><ele>246.5</ele><time>2026-04-09T11:42:33Z</time></trkpt><trkpt lat="45.966564053475594" lon="12.148060301220651"><ele>243.0</ele><time>2026-04-09T11:42:34Z</time></trkpt><trkpt lat="45.966440271132335" lon="12.147756629850742"><ele>243.0</ele><time>2026-04-09T11:42:35Z</time></trkpt><trkpt lat="45.966322739037935" lon="12.14746965472077"><ele>243.0</ele><time>2026-04-09T11:42:36Z</time></trkpt><trkpt lat="45.96621414964406" lon="12.147198564682714"><ele>243.0</ele><time>2026-04-09T11:42:37Z</time></trkpt><trkpt lat="45.96611346674646" lon="12.146946764308307"><ele>242.33333333333331</ele><time>2026-04-09T11:42:38Z</time></trkpt><trkpt lat="45.96601744550579" lon="12.146706450455635"><ele>241.66666666666666</ele><time>2026-04-09T11:42:39Z</time></trkpt><trkpt lat="45.96592620257427" lon="12.146474058612561"><ele>241.0</ele><time>2026-04-09T11:42:40Z</time></trkpt><trkpt lat="45.96584455573239" lon="12.146248378728975"><ele>239.66666666666666</ele><time>2026-04-09T11:42:41Z</time></trkpt><trkpt lat="45.96577173237665" lon="12.146023283897847"><ele>238.33333333333331</ele><time>2026-04-09T11:42:42Z</time></trkpt><trkpt lat="45.96571258817722" lon="12.14579745106005"><ele>237.0</ele><time>2026-04-09T11:42:43Z</time></trkpt><trkpt lat="45.965659934078495" lon="12.14556622181567"><ele>237.0</ele><time>2026-04-09T11:42:44Z</time></trkpt><trkpt lat="45.96561169054885" lon="12.145319037104203"><ele>237.0</ele><time>2026-04-09T11:42:45Z</time></trkpt><trkpt lat="45.96557322081533" lon="12.14506529709628"><ele>237.0</ele><time>2026-04-09T11:42:46Z</time></trkpt><trkpt lat="45.96554505096654" lon="12.144813530383027"><ele>237.0</ele><time>2026-04-09T11:42:47Z</time></trkpt><trkpt lat="45.96552258434153" lon="12.14457049989613"><ele>237.0</ele><time>2026-04-09T11:42:48Z</time></trkpt><trkpt lat="45.965504040024896" lon="12.14432362553224"><ele>237.0</ele><time>2026-04-09T11:42:49Z</time></trkpt><trkpt lat="45.96548992966381" lon="12.144073874228905"><ele>238.0</ele><time>2026-04-09T11:42:50Z</time></trkpt><trkpt lat="45.96547550577059" lon="12.143823667417687"><ele>239.0</ele><time>2026-04-09T11:42:51Z</time></trkpt><trkpt lat="45.96547333094076" lon="12.14357629303895"><ele>240.0</ele><time>2026-04-09T11:42:52Z</time></trkpt><trkpt lat="45.96545992048062" lon="12.143342765691271"><ele>240.25</ele><time>2026-04-09T11:42:53Z</time></trkpt><trkpt lat="45.96544859890834" lon="12.14312880068819"><ele>240.5</ele><time>2026-04-09T11:42:54Z</time></trkpt><trkpt lat="45.96542286386842" lon="12.142934112347275"><ele>240.75</ele><time>2026-04-09T11:42:55Z</time></trkpt><trkpt lat="45.965413993482684" lon="12.142749376702952"><ele>241.0</ele><time>2026-04-09T11:42:56Z</time></trkpt><trkpt lat="45.965406076755045" lon="12.142582949095308"><ele>240.99999999999997</ele><time>2026-04-09T11:42:57Z</time></trkpt><trkpt lat="45.9654060108466" lon="12.142433091526936"><ele>241.0</ele><time>2026-04-09T11:42:58Z</time></trkpt><trkpt lat="45.96541052393113" lon="12.142296275887654"><ele>241.0</ele><time>2026-04-09T11:42:59Z</time></trkpt><trkpt lat="45.96541639111424" lon="12.142174780402094"><ele>241.0</ele><time>2026-04-09T11:43:00Z</time></trkpt><trkpt lat="45.96542258855359" lon="12.142068691238013"><ele>240.99999999999997</ele><time>2026-04-09T11:43:01Z</time></trkpt><trkpt lat="45.96543444540241" lon="12.14195407355303"><ele>241.0</ele><time>2026-04-09T11:43:02Z</time></trkpt><trkpt lat="45.96544359230269" lon="12.141823752525502"><ele>241.16666666666666</ele><time>2026-04-09T11:43:03Z</time></trkpt><trkpt lat="45.965422695702415" lon="12.141695972819807"><ele>241.33333333333331</ele><time>2026-04-09T11:43:04Z</time></trkpt><trkpt lat="45.96540227543545" lon="12.141586123899073"><ele>241.5</ele><time>2026-04-09T11:43:05Z</time></trkpt><trkpt lat="45.96539370481487" lon="12.141471273825621"><ele>241.66666666666669</ele><time>2026-04-09T11:43:06Z</time></trkpt><trkpt lat="45.96539527804759" lon="12.14134387701914"><ele>241.83333333333334</ele><time>2026-04-09T11:43:07Z</time></trkpt><trkpt lat="45.965406180359984" lon="12.141197601286196"><ele>242.0</ele><time>2026-04-09T11:43:08Z</time></trkpt><trkpt lat="45.965417884003" lon="12.141025949655264"><ele>242.0</ele><time>2026-04-09T11:43:09Z</time></trkpt><trkpt lat="45.96545453820698" lon="12.140845637426327"><ele>242.0</ele><time>2026-04-09T11:43:10Z</time></trkpt><trkpt lat="45.965473324383844" lon="12.140684167100803"><ele>242.0</ele><time>2026-04-09T11:43:11Z</time></trkpt><trkpt lat="45.96549198361661" lon="12.14053560972695"><ele>242.0</ele><time>2026-04-09T11:43:12Z</time></trkpt><trkpt lat="45.96551288396456" lon="12.140371422385678"><ele>241.25</ele><time>2026-04-09T11:43:13Z</time></trkpt><trkpt lat="45.9655367492382" lon="12.14018394316753"><ele>240.5</ele><time>2026-04-09T11:43:14Z</time></trkpt><trkpt lat="45.965562679035315" lon="12.139980248702603"><ele>239.75</ele><time>2026-04-09T11:43:15Z</time></trkpt><trkpt lat="45.96556990016103" lon="12.139748608886364"><ele>239.0</ele><time>2026-04-09T11:43:16Z</time></trkpt><trkpt lat="45.96560080462981" lon="12.139523048219601"><ele>239.0</ele><time>2026-04-09T11:43:17Z</time></trkpt><trkpt lat="45.965627355026385" lon="12.139297140024533"><ele>239.0</ele><time>2026-04-09T11:43:18Z</time></trkpt><trkpt lat="45.965655224416956" lon="12.139102074739935"><ele>239.0</ele><time>2026-04-09T11:43:19Z</time></trkpt><trkpt lat="45.96570118718765" lon="12.13893119583231"><ele>239.0</ele><time>2026-04-09T11:43:20Z</time></trkpt><trkpt lat="45.96572048475619" lon="12.138769923131337"><ele>239.0</ele><time>2026-04-09T11:43:21Z</time></trkpt><trkpt lat="45.965738348616945" lon="12.138620632224848"><ele>238.99999999999997</ele><time>2026-04-09T11:43:22Z</time></trkpt><trkpt lat="45.96575484791742" lon="12.138473149463744"><ele>238.99999999999997</ele><time>2026-04-09T11:43:23Z</time></trkpt><trkpt lat="45.96577198231541" lon="12.138314756082254"><ele>239.0</ele><time>2026-04-09T11:43:24Z</time></trkpt><trkpt lat="45.96577400694833" lon="12.138154067974916"><ele>239.0</ele><time>2026-04-09T11:43:25Z</time></trkpt><trkpt lat="45.96579873898459" lon="12.138004142018767"><ele>238.66666666666669</ele><time>2026-04-09T11:43:26Z</time></trkpt><trkpt lat="45.96582917826147" lon="12.137872297928414"><ele>238.33333333333334</ele><time>2026-04-09T11:43:27Z</time></trkpt><trkpt lat="45.965862393198094" lon="12.13776711766682"><ele>238.0</ele><time>2026-04-09T11:43:28Z</time></trkpt><trkpt lat="45.96590519029793" lon="12.137671656670326"><ele>237.66666666666669</ele><time>2026-04-09T11:43:29Z</time></trkpt><trkpt lat="45.96593642286012" lon="12.137566481048287"><ele>237.33333333333334</ele><time>2026-04-09T11:43:30Z</time></trkpt><trkpt lat="45.96593239055022" lon="12.13744089877731"><ele>237.0</ele><time>2026-04-09T11:43:31Z</time></trkpt><trkpt lat="45.96590898178394" lon="12.137325969377684"><ele>237.6</ele><time>2026-04-09T11:43:32Z</time></trkpt><trkpt lat="45.96588570634205" lon="12.137210471949434"><ele>238.2</ele><time>2026-04-09T11:43:33Z</time></trkpt><trkpt lat="45.965864248397075" lon="12.137078097206409"><ele>238.8</ele><time>2026-04-09T11:43:34Z</time></trkpt><trkpt lat="45.96585789239403" lon="12.136930592676515"><ele>239.4</ele><time>2026-04-09T11:43:35Z</time></trkpt><trkpt lat="45.96585809110253" lon="12.136777118843613"><ele>240.0</ele><time>2026-04-09T11:43:36Z</time></trkpt><trkpt lat="45.96585561987377" lon="12.136625584010687"><ele>240.4</ele><time>2026-04-09T11:43:37Z</time></trkpt><trkpt lat="45.965846809862285" lon="12.136489939389143"><ele>240.8</ele><time>2026-04-09T11:43:38Z</time></trkpt><trkpt lat="45.96583472581486" lon="12.136358476332312"><ele>241.2</ele><time>2026-04-09T11:43:39Z</time></trkpt><trkpt lat="45.9658167163525" lon="12.136214710394192"><ele>241.6</ele><time>2026-04-09T11:43:40Z</time></trkpt><trkpt lat="45.965795572104064" lon="12.136068405054338"><ele>242.0</ele><time>2026-04-09T11:43:41Z</time></trkpt><trkpt lat="45.965771604693394" lon="12.135930017762625"><ele>242.0</ele><time>2026-04-09T11:43:42Z</time></trkpt><trkpt lat="45.965746702983814" lon="12.135794841395674"><ele>242.0</ele><time>2026-04-09T11:43:43Z</time></trkpt><trkpt lat="45.96572110988895" lon="12.135658279541222"><ele>242.0</ele><time>2026-04-09T11:43:44Z</time></trkpt><trkpt lat="45.96569254114708" lon="12.1355196760036"><ele>242.0</ele><time>2026-04-09T11:43:45Z</time></trkpt><trkpt lat="45.96565913181727" lon="12.135386902193101"><ele>242.0</ele><time>2026-04-09T11:43:46Z</time></trkpt><trkpt lat="45.96562085880248" lon="12.135263761044879"><ele>241.39999999999998</ele><time>2026-04-09T11:43:47Z</time></trkpt><trkpt lat="45.96557823569446" lon="12.13514817585828"><ele>240.79999999999998</ele><time>2026-04-09T11:43:48Z</time></trkpt><trkpt lat="45.96553126931844" lon="12.135031001308715"><ele>240.2</ele><time>2026-04-09T11:43:49Z</time></trkpt><trkpt lat="45.96548002117146" lon="12.134917707512773"><ele>239.6</ele><time>2026-04-09T11:43:50Z</time></trkpt><trkpt lat="45.965423020067284" lon="12.134801226588813"><ele>239.0</ele><time>2026-04-09T11:43:51Z</time></trkpt><trkpt lat="45.965357161414644" lon="12.134683540821138"><ele>238.0</ele><time>2026-04-09T11:43:52Z</time></trkpt><trkpt lat="45.9652866940112" lon="12.134563125082792"><ele>237.0</ele><time>2026-04-09T11:43:53Z</time></trkpt><trkpt lat="45.96520889431255" lon="12.134441645429982"><ele>236.0</ele><time>2026-04-09T11:43:54Z</time></trkpt><trkpt lat="45.96512353525679" lon="12.134323217125624"><ele>235.0</ele><time>2026-04-09T11:43:55Z</time></trkpt><trkpt lat="45.96502772884356" lon="12.134203656981907"><ele>235.0</ele><time>2026-04-09T11:43:56Z</time></trkpt><trkpt lat="45.96492479437862" lon="12.134077029868038"><ele>235.0</ele><time>2026-04-09T11:43:57Z</time></trkpt><trkpt lat="45.96481702812224" lon="12.133933475146472"><ele>235.0</ele><time>2026-04-09T11:43:58Z</time></trkpt><trkpt lat="45.96470612708974" lon="12.133778483223827"><ele>235.0</ele><time>2026-04-09T11:43:59Z</time></trkpt><trkpt lat="45.964595456448784" lon="12.133630267189604"><ele>234.25</ele><time>2026-04-09T11:44:00Z</time></trkpt><trkpt lat="45.96449145994106" lon="12.133491400663612"><ele>233.5</ele><time>2026-04-09T11:44:01Z</time></trkpt><trkpt lat="45.96438692858795" lon="12.133350552803195"><ele>232.75</ele><time>2026-04-09T11:44:02Z</time></trkpt><trkpt lat="45.964292003502706" lon="12.133219981435465"><ele>232.0</ele><time>2026-04-09T11:44:03Z</time></trkpt><trkpt lat="45.96420330937427" lon="12.133098605179027"><ele>231.2</ele><time>2026-04-09T11:44:04Z</time></trkpt><trkpt lat="45.96412405796954" lon="12.13298486435617"><ele>230.39999999999998</ele><time>2026-04-09T11:44:05Z</time></trkpt><trkpt lat="45.964061256007085" lon="12.132884446601073"><ele>229.60000000000002</ele><time>2026-04-09T11:44:06Z</time></trkpt><trkpt lat="45.963993324945214" lon="12.132783389377915"><ele>228.8</ele><time>2026-04-09T11:44:07Z</time></trkpt><trkpt lat="45.96388407169693" lon="12.132650099343733"><ele>228.0</ele><time>2026-04-09T11:44:08Z</time></trkpt><trkpt lat="45.963743928270866" lon="12.13246811479691"><ele>227.66666666666669</ele><time>2026-04-09T11:44:09Z</time></trkpt><trkpt lat="45.96361509666803" lon="12.132292070730493"><ele>227.33333333333334</ele><time>2026-04-09T11:44:10.001Z</time></trkpt><trkpt lat="45.963455623618124" lon="12.132074213893372"><ele>227.0</ele><time>2026-04-09T11:44:11.001Z</time></trkpt><trkpt lat="45.963295438045584" lon="12.131858741269998"><ele>227.0</ele><time>2026-04-09T11:44:12.001Z</time></trkpt><trkpt lat="45.96311936998669" lon="12.131622114841402"><ele>227.0</ele><time>2026-04-09T11:44:13.001Z</time></trkpt><trkpt lat="45.96291889384156" lon="12.131352337277667"><ele>225.0</ele><time>2026-04-09T11:44:14.001Z</time></trkpt><trkpt lat="45.962701588508374" lon="12.131058888676892"><ele>223.0</ele><time>2026-04-09T11:44:15.001Z</time></trkpt><trkpt lat="45.96249626689238" lon="12.130778793432151"><ele>221.5</ele><time>2026-04-09T11:44:16.001Z</time></trkpt><trkpt lat="45.96231011438206" lon="12.13052167581331"><ele>220.0</ele><time>2026-04-09T11:44:17.001Z</time></trkpt><trkpt lat="45.962117487005834" lon="12.130263471624682"><ele>220.0</ele><time>2026-04-09T11:44:18.001Z</time></trkpt><trkpt lat="45.961903001416665" lon="12.129977349343124"><ele>220.0</ele><time>2026-04-09T11:44:19.001Z</time></trkpt><trkpt lat="45.96167962671673" lon="12.129674921492901"><ele>220.5</ele><time>2026-04-09T11:44:20.001Z</time></trkpt><trkpt lat="45.96146890578799" lon="12.129387719478322"><ele>221.0</ele><time>2026-04-09T11:44:21Z</time></trkpt><trkpt lat="45.96127875472055" lon="12.12913100629437"><ele>219.0</ele><time>2026-04-09T11:44:22Z</time></trkpt><trkpt lat="45.96110421243087" lon="12.12889994343696"><ele>217.0</ele><time>2026-04-09T11:44:23Z</time></trkpt><trkpt lat="45.960942875482594" lon="12.128684970046088"><ele>217.33333333333331</ele><time>2026-04-09T11:44:24Z</time></trkpt><trkpt lat="45.96079529496228" lon="12.128485357135947"><ele>217.66666666666669</ele><time>2026-04-09T11:44:25Z</time></trkpt><trkpt lat="45.96065203397412" lon="12.128283667790162"><ele>218.0</ele><time>2026-04-09T11:44:26Z</time></trkpt><trkpt lat="45.96050708164711" lon="12.1280661247406"><ele>218.0</ele><time>2026-04-09T11:44:27Z</time></trkpt><trkpt lat="45.960367998295254" lon="12.127836380407137"><ele>218.0</ele><time>2026-04-09T11:44:28Z</time></trkpt><trkpt lat="45.960246011066225" lon="12.127599366959224"><ele>218.0</ele><time>2026-04-09T11:44:29Z</time></trkpt><trkpt lat="45.96013584618908" lon="12.127351316994273"><ele>217.33333333333334</ele><time>2026-04-09T11:44:30Z</time></trkpt><trkpt lat="45.960040418318606" lon="12.12709092397541"><ele>216.66666666666669</ele><time>2026-04-09T11:44:31Z</time></trkpt><trkpt lat="45.95995516406755" lon="12.126847480529344"><ele>216.0</ele><time>2026-04-09T11:44:32Z</time></trkpt><trkpt lat="45.959880788876575" lon="12.126608709209668"><ele>215.66666666666669</ele><time>2026-04-09T11:44:33Z</time></trkpt><trkpt lat="45.959809857133635" lon="12.12637988517345"><ele>215.33333333333334</ele><time>2026-04-09T11:44:34Z</time></trkpt><trkpt lat="45.95973600196222" lon="12.126156398531"><ele>215.0</ele><time>2026-04-09T11:44:35Z</time></trkpt><trkpt lat="45.95965775492338" lon="12.125926250392927"><ele>214.66666666666669</ele><time>2026-04-09T11:44:36Z</time></trkpt><trkpt lat="45.95957504709023" lon="12.125695090690488"><ele>214.33333333333331</ele><time>2026-04-09T11:44:37Z</time></trkpt><trkpt lat="45.95948790570962" lon="12.125465862373018"><ele>214.0</ele><time>2026-04-09T11:44:38Z</time></trkpt><trkpt lat="45.95939303832057" lon="12.125236261168245"><ele>214.0</ele><time>2026-04-09T11:44:39Z</time></trkpt><trkpt lat="45.95929476264553" lon="12.125009804725893"><ele>214.0</ele><time>2026-04-09T11:44:40Z</time></trkpt><trkpt lat="45.95919948590779" lon="12.124801280003798"><ele>214.0</ele><time>2026-04-09T11:44:41Z</time></trkpt><trkpt lat="45.95909972404091" lon="12.124604882549223"><ele>213.33333333333331</ele><time>2026-04-09T11:44:42Z</time></trkpt><trkpt lat="45.958984379843386" lon="12.124409776941837"><ele>212.66666666666669</ele><time>2026-04-09T11:44:43Z</time></trkpt><trkpt lat="45.95885353127581" lon="12.124219532330109"><ele>212.0</ele><time>2026-04-09T11:44:44Z</time></trkpt><trkpt lat="45.958708579544655" lon="12.124029642929594"><ele>210.66666666666669</ele><time>2026-04-09T11:44:45Z</time></trkpt><trkpt lat="45.958554349880814" lon="12.123841555173783"><ele>209.33333333333331</ele><time>2026-04-09T11:44:46Z</time></trkpt><trkpt lat="45.958389807386524" lon="12.123664125368494"><ele>208.0</ele><time>2026-04-09T11:44:47Z</time></trkpt><trkpt lat="45.9582197617173" lon="12.12349613477848"><ele>207.66666666666666</ele><time>2026-04-09T11:44:48Z</time></trkpt><trkpt lat="45.958044582865426" lon="12.12333650628338"><ele>207.33333333333331</ele><time>2026-04-09T11:44:49Z</time></trkpt><trkpt lat="45.95786818476139" lon="12.123174226578636"><ele>207.0</ele><time>2026-04-09T11:44:50Z</time></trkpt><trkpt lat="45.95769124779101" lon="12.123006541228229"><ele>205.66666666666669</ele><time>2026-04-09T11:44:51Z</time></trkpt><trkpt lat="45.95751213014094" lon="12.122835701295758"><ele>204.33333333333334</ele><time>2026-04-09T11:44:52Z</time></trkpt><trkpt lat="45.95732315411739" lon="12.122659687962022"><ele>203.0</ele><time>2026-04-09T11:44:53Z</time></trkpt><trkpt lat="45.95712350529817" lon="12.122472715849034"><ele>203.0</ele><time>2026-04-09T11:44:54Z</time></trkpt><trkpt lat="45.956909288485186" lon="12.122273291090279"><ele>203.0</ele><time>2026-04-09T11:44:55Z</time></trkpt><trkpt lat="45.95668548632495" lon="12.122067485349854"><ele>202.0</ele><time>2026-04-09T11:44:56Z</time></trkpt><trkpt lat="45.95645967060033" lon="12.121860092363416"><ele>201.0</ele><time>2026-04-09T11:44:57Z</time></trkpt><trkpt lat="45.95625599776722" lon="12.121670011297443"><ele>201.66666666666669</ele><time>2026-04-09T11:44:58Z</time></trkpt><trkpt lat="45.956064553274835" lon="12.121494352593169"><ele>202.33333333333334</ele><time>2026-04-09T11:44:59Z</time></trkpt><trkpt lat="45.955884345974134" lon="12.121324699187618"><ele>203.0</ele><time>2026-04-09T11:45:00Z</time></trkpt><trkpt lat="45.955710944808004" lon="12.121164546293553"><ele>202.0</ele><time>2026-04-09T11:45:01Z</time></trkpt><trkpt lat="45.955546024301704" lon="12.121014094177115"><ele>201.0</ele><time>2026-04-09T11:45:02Z</time></trkpt><trkpt lat="45.95538831766629" lon="12.12087176042418"><ele>200.0</ele><time>2026-04-09T11:45:03Z</time></trkpt><trkpt lat="45.9552332890195" lon="12.120730253282732"><ele>200.0</ele><time>2026-04-09T11:45:04Z</time></trkpt><trkpt lat="45.955074372156595" lon="12.120575455573595"><ele>200.0</ele><time>2026-04-09T11:45:05Z</time></trkpt><trkpt lat="45.954907162457594" lon="12.120404263407906"><ele>200.0</ele><time>2026-04-09T11:45:06Z</time></trkpt><trkpt lat="45.95473118543177" lon="12.120226929765638"><ele>199.0</ele><time>2026-04-09T11:45:07Z</time></trkpt><trkpt lat="45.95455290282957" lon="12.120042509747577"><ele>198.0</ele><time>2026-04-09T11:45:08Z</time></trkpt><trkpt lat="45.95440399569253" lon="12.119862493550462"><ele>197.0</ele><time>2026-04-09T11:45:09Z</time></trkpt><trkpt lat="45.954254148247706" lon="12.11971134988247"><ele>198.0</ele><time>2026-04-09T11:45:10Z</time></trkpt><trkpt lat="45.95409939739281" lon="12.119574947024628"><ele>199.0</ele><time>2026-04-09T11:45:11Z</time></trkpt><trkpt lat="45.95396485116197" lon="12.11942305468359"><ele>200.0</ele><time>2026-04-09T11:45:12Z</time></trkpt><trkpt lat="45.953843191036384" lon="12.11926276232282"><ele>200.0</ele><time>2026-04-09T11:45:13Z</time></trkpt><trkpt lat="45.95373645697162" lon="12.11908497640247"><ele>200.0</ele><time>2026-04-09T11:45:14Z</time></trkpt><trkpt lat="45.953636862104304" lon="12.118889661256606"><ele>200.0</ele><time>2026-04-09T11:45:15Z</time></trkpt><trkpt lat="45.95356856015972" lon="12.118688287756878"><ele>201.25</ele><time>2026-04-09T11:45:16Z</time></trkpt><trkpt lat="45.95347359139143" lon="12.118536504052773"><ele>202.5</ele><time>2026-04-09T11:45:17Z</time></trkpt><trkpt lat="45.95337746752287" lon="12.118380966959958"><ele>203.75</ele><time>2026-04-09T11:45:18Z</time></trkpt><trkpt lat="45.95325865035821" lon="12.118234888883627"><ele>205.0</ele><time>2026-04-09T11:45:19Z</time></trkpt><trkpt lat="45.953119972072784" lon="12.118066303001639"><ele>201.33333333333331</ele><time>2026-04-09T11:45:20Z</time></trkpt><trkpt lat="45.953012279651226" lon="12.117835663152889"><ele>197.66666666666669</ele><time>2026-04-09T11:45:21Z</time></trkpt><trkpt lat="45.9528733955879" lon="12.117602439980484"><ele>194.0</ele><time>2026-04-09T11:45:22Z</time></trkpt><trkpt lat="45.952739913462445" lon="12.11732562583953"><ele>194.0</ele><time>2026-04-09T11:45:23Z</time></trkpt><trkpt lat="45.95262120064472" lon="12.1170883260731"><ele>194.0</ele><time>2026-04-09T11:45:24Z</time></trkpt><trkpt lat="45.95251132779506" lon="12.116866958303914"><ele>194.0</ele><time>2026-04-09T11:45:25Z</time></trkpt><trkpt lat="45.95240948654165" lon="12.1166570462187"><ele>194.66666666666669</ele><time>2026-04-09T11:45:26Z</time></trkpt><trkpt lat="45.952310827100256" lon="12.11645021733845"><ele>195.33333333333331</ele><time>2026-04-09T11:45:27Z</time></trkpt><trkpt lat="45.952211510332226" lon="12.116247273690707"><ele>196.0</ele><time>2026-04-09T11:45:28Z</time></trkpt><trkpt lat="45.95212568797871" lon="12.116058426172955"><ele>196.0</ele><time>2026-04-09T11:45:29Z</time></trkpt><trkpt lat="45.95205843975133" lon="12.1158727023648"><ele>196.0</ele><time>2026-04-09T11:45:30Z</time></trkpt><trkpt lat="45.95199633337242" lon="12.115687235163415"><ele>196.0</ele><time>2026-04-09T11:45:31Z</time></trkpt><trkpt lat="45.95194451183631" lon="12.115512944297617"><ele>196.0</ele><time>2026-04-09T11:45:32Z</time></trkpt><trkpt lat="45.95190026222377" lon="12.115339335510654"><ele>196.75</ele><time>2026-04-09T11:45:33Z</time></trkpt><trkpt lat="45.95186430310172" lon="12.115186818005085"><ele>197.5</ele><time>2026-04-09T11:45:34Z</time></trkpt><trkpt lat="45.95183470189891" lon="12.115034675527033"><ele>198.25</ele><time>2026-04-09T11:45:35Z</time></trkpt><trkpt lat="45.951810331349854" lon="12.114858941365704"><ele>199.0</ele><time>2026-04-09T11:45:36Z</time></trkpt><trkpt lat="45.951815804287975" lon="12.114636072825721"><ele>200.0</ele><time>2026-04-09T11:45:37Z</time></trkpt><trkpt lat="45.95179773332029" lon="12.114368384308188"><ele>201.0</ele><time>2026-04-09T11:45:38Z</time></trkpt><trkpt lat="45.95177968638745" lon="12.114073635952487"><ele>202.0</ele><time>2026-04-09T11:45:39Z</time></trkpt><trkpt lat="45.951762320016165" lon="12.113797540613906"><ele>203.33333333333331</ele><time>2026-04-09T11:45:40Z</time></trkpt><trkpt lat="45.95172812790245" lon="12.113514518280327"><ele>204.66666666666669</ele><time>2026-04-09T11:45:41Z</time></trkpt><trkpt lat="45.951708622447555" lon="12.113186088698377"><ele>206.0</ele><time>2026-04-09T11:45:42Z</time></trkpt><trkpt lat="45.95168832290365" lon="12.112840349420116"><ele>206.0</ele><time>2026-04-09T11:45:43Z</time></trkpt><trkpt lat="45.95167007227241" lon="12.112535449404987"><ele>206.0</ele><time>2026-04-09T11:45:44Z</time></trkpt><trkpt lat="45.95165233238314" lon="12.11225857826335"><ele>206.0</ele><time>2026-04-09T11:45:45Z</time></trkpt><trkpt lat="45.951632413827234" lon="12.112003683703614"><ele>207.0</ele><time>2026-04-09T11:45:46Z</time></trkpt><trkpt lat="45.9516049987369" lon="12.111764193199402"><ele>208.0</ele><time>2026-04-09T11:45:47Z</time></trkpt><trkpt lat="45.95156428319205" lon="12.111535373796801"><ele>209.0</ele><time>2026-04-09T11:45:48Z</time></trkpt><trkpt lat="45.951508188940146" lon="12.11131940641119"><ele>210.33333333333334</ele><time>2026-04-09T11:45:49Z</time></trkpt><trkpt lat="45.95143455792093" lon="12.111102194778901"><ele>211.66666666666669</ele><time>2026-04-09T11:45:50Z</time></trkpt><trkpt lat="45.95134286753273" lon="12.11088714906228"><ele>213.0</ele><time>2026-04-09T11:45:51Z</time></trkpt><trkpt lat="45.95124374612321" lon="12.110672707794725"><ele>214.66666666666669</ele><time>2026-04-09T11:45:52Z</time></trkpt><trkpt lat="45.95115921112546" lon="12.110432138167518"><ele>216.33333333333334</ele><time>2026-04-09T11:45:53Z</time></trkpt><trkpt lat="45.9510470049583" lon="12.110163806301902"><ele>218.0</ele><time>2026-04-09T11:45:54Z</time></trkpt><trkpt lat="45.95092311914615" lon="12.10987394432685"><ele>217.0</ele><time>2026-04-09T11:45:55Z</time></trkpt><trkpt lat="45.95080804723474" lon="12.109618130578138"><ele>216.0</ele><time>2026-04-09T11:45:56Z</time></trkpt><trkpt lat="45.95069569559799" lon="12.109387460590513"><ele>215.0</ele><time>2026-04-09T11:45:57Z</time></trkpt><trkpt lat="45.95056408286466" lon="12.109187028100301"><ele>216.0</ele><time>2026-04-09T11:45:58Z</time></trkpt><trkpt lat="45.95041845874126" lon="12.108980738097651"><ele>217.0</ele><time>2026-04-09T11:45:59Z</time></trkpt><trkpt lat="45.950247614682844" lon="12.108776552386228"><ele>218.0</ele><time>2026-04-09T11:46:00Z</time></trkpt><trkpt lat="45.950069625833" lon="12.108577903343868"><ele>218.0</ele><time>2026-04-09T11:46:01Z</time></trkpt><trkpt lat="45.94990358244392" lon="12.108391621884005"><ele>218.0</ele><time>2026-04-09T11:46:02Z</time></trkpt><trkpt lat="45.94975320997487" lon="12.108221884097649"><ele>218.0</ele><time>2026-04-09T11:46:03Z</time></trkpt><trkpt lat="45.949619074110444" lon="12.10806559135419"><ele>218.0</ele><time>2026-04-09T11:46:04Z</time></trkpt><trkpt lat="45.94949233445605" lon="12.107919260041836"><ele>218.0</ele><time>2026-04-09T11:46:05Z</time></trkpt><trkpt lat="45.94937166622997" lon="12.107783971884766"><ele>218.0</ele><time>2026-04-09T11:46:06Z</time></trkpt><trkpt lat="45.94925080988845" lon="12.107651207274987"><ele>218.0</ele><time>2026-04-09T11:46:07Z</time></trkpt><trkpt lat="45.949133401638875" lon="12.107512830832365"><ele>218.0</ele><time>2026-04-09T11:46:08Z</time></trkpt><trkpt lat="45.94901832222743" lon="12.107372228656649"><ele>218.0</ele><time>2026-04-09T11:46:09Z</time></trkpt><trkpt lat="45.94890213903579" lon="12.107237607854747"><ele>219.75</ele><time>2026-04-09T11:46:10Z</time></trkpt><trkpt lat="45.9487849270159" lon="12.107106208984327"><ele>221.5</ele><time>2026-04-09T11:46:11Z</time></trkpt><trkpt lat="45.94867001662161" lon="12.106972279860084"><ele>223.25</ele><time>2026-04-09T11:46:12Z</time></trkpt><trkpt lat="45.94855724287022" lon="12.106838506765634"><ele>225.0</ele><time>2026-04-09T11:46:13Z</time></trkpt><trkpt lat="45.9484407836421" lon="12.106704380593932"><ele>226.0</ele><time>2026-04-09T11:46:14Z</time></trkpt><trkpt lat="45.94832970166249" lon="12.10655706293578"><ele>227.0</ele><time>2026-04-09T11:46:15Z</time></trkpt><trkpt lat="45.94822466936784" lon="12.1063883435296"><ele>228.0</ele><time>2026-04-09T11:46:16.001Z</time></trkpt><trkpt lat="45.9481186611119" lon="12.106198547248413"><ele>228.0</ele><time>2026-04-09T11:46:17.001Z</time></trkpt><trkpt lat="45.94801620575844" lon="12.106012554392802"><ele>228.0</ele><time>2026-04-09T11:46:18.001Z</time></trkpt><trkpt lat="45.947949842259035" lon="12.10586789516732"><ele>228.0</ele><time>2026-04-09T11:46:19.001Z</time></trkpt><trkpt lat="45.947897919783685" lon="12.105743066803546"><ele>228.0</ele><time>2026-04-09T11:46:20.001Z</time></trkpt><trkpt lat="45.94784374722156" lon="12.105628362365525"><ele>228.83333333333334</ele><time>2026-04-09T11:46:21.001Z</time></trkpt><trkpt lat="45.9477925945425" lon="12.105524145146484"><ele>229.66666666666669</ele><time>2026-04-09T11:46:22.001Z</time></trkpt><trkpt lat="45.94774958688135" lon="12.105436707324781"><ele>230.5</ele><time>2026-04-09T11:46:23.001Z</time></trkpt><trkpt lat="45.947711263427436" lon="12.105360631947102"><ele>231.33333333333334</ele><time>2026-04-09T11:46:24.001Z</time></trkpt><trkpt lat="45.947673880387505" lon="12.105275245867343"><ele>232.16666666666669</ele><time>2026-04-09T11:46:25.001Z</time></trkpt><trkpt lat="45.94761757283312" lon="12.105167753375646"><ele>233.0</ele><time>2026-04-09T11:46:26.001Z</time></trkpt><trkpt lat="45.947535760671826" lon="12.105023749063395"><ele>233.75</ele><time>2026-04-09T11:46:27.001Z</time></trkpt><trkpt lat="45.94744093427603" lon="12.104841636543949"><ele>234.5</ele><time>2026-04-09T11:46:28.001Z</time></trkpt><trkpt lat="45.94736202512333" lon="12.104679964021416"><ele>235.25</ele><time>2026-04-09T11:46:29.001Z</time></trkpt><trkpt lat="45.947288111998496" lon="12.104536734756353"><ele>236.0</ele><time>2026-04-09T11:46:30.001Z</time></trkpt><trkpt lat="45.94720354175802" lon="12.10437251014227"><ele>236.0</ele><time>2026-04-09T11:46:31.001Z</time></trkpt><trkpt lat="45.94711947741221" lon="12.10418143112648"><ele>236.0</ele><time>2026-04-09T11:46:32.001Z</time></trkpt><trkpt lat="45.94703464422553" lon="12.103942941306434"><ele>236.0</ele><time>2026-04-09T11:46:33.001Z</time></trkpt><trkpt lat="45.94695131977945" lon="12.103681664484187"><ele>237.66666666666669</ele><time>2026-04-09T11:46:34.001Z</time></trkpt><trkpt lat="45.946866928184306" lon="12.103407660100375"><ele>239.33333333333331</ele><time>2026-04-09T11:46:35.001Z</time></trkpt><trkpt lat="45.94677379475421" lon="12.103095904420549"><ele>241.0</ele><time>2026-04-09T11:46:36.001Z</time></trkpt><trkpt lat="45.946685407979054" lon="12.102783674389551"><ele>242.0</ele><time>2026-04-09T11:46:37Z</time></trkpt><trkpt lat="45.94658625502044" lon="12.102442780127992"><ele>243.0</ele><time>2026-04-09T11:46:38Z</time></trkpt><trkpt lat="45.946478737276976" lon="12.102076319332154"><ele>244.5</ele><time>2026-04-09T11:46:39Z</time></trkpt><trkpt lat="45.94636756010662" lon="12.101692972896942"><ele>246.0</ele><time>2026-04-09T11:46:40Z</time></trkpt><trkpt lat="45.94626923893114" lon="12.101349291440158"><ele>247.66666666666669</ele><time>2026-04-09T11:46:41Z</time></trkpt><trkpt lat="45.94617953442475" lon="12.101049271056093"><ele>249.33333333333334</ele><time>2026-04-09T11:46:42Z</time></trkpt><trkpt lat="45.94609640204846" lon="12.100773671306785"><ele>251.0</ele><time>2026-04-09T11:46:43Z</time></trkpt><trkpt lat="45.94602146787189" lon="12.100513541392397"><ele>251.33333333333334</ele><time>2026-04-09T11:46:44Z</time></trkpt><trkpt lat="45.94594640666599" lon="12.10026158005761"><ele>251.66666666666669</ele><time>2026-04-09T11:46:45Z</time></trkpt><trkpt lat="45.94587262226626" lon="12.100006754725053"><ele>252.0</ele><time>2026-04-09T11:46:46Z</time></trkpt><trkpt lat="45.94579217030915" lon="12.099742576734274"><ele>253.0</ele><time>2026-04-09T11:46:47Z</time></trkpt><trkpt lat="45.94571059241787" lon="12.099469699469882"><ele>254.0</ele><time>2026-04-09T11:46:48Z</time></trkpt><trkpt lat="45.94562834418879" lon="12.099191769306348"><ele>255.0</ele><time>2026-04-09T11:46:49Z</time></trkpt><trkpt lat="45.94554757991344" lon="12.098909720177652"><ele>256.3333333333333</ele><time>2026-04-09T11:46:50Z</time></trkpt><trkpt lat="45.9454691713566" lon="12.098635729858312"><ele>257.66666666666663</ele><time>2026-04-09T11:46:51Z</time></trkpt><trkpt lat="45.945398425795474" lon="12.098400997128183"><ele>259.0</ele><time>2026-04-09T11:46:52Z</time></trkpt><trkpt lat="45.94533325072081" lon="12.098173472286788"><ele>260.25</ele><time>2026-04-09T11:46:53Z</time></trkpt><trkpt lat="45.94526833584653" lon="12.097963168677374"><ele>261.5</ele><time>2026-04-09T11:46:54Z</time></trkpt><trkpt lat="45.945211443141424" lon="12.097767670246494"><ele>262.75</ele><time>2026-04-09T11:46:55Z</time></trkpt><trkpt lat="45.94515940751459" lon="12.097583230911084"><ele>264.0</ele><time>2026-04-09T11:46:56Z</time></trkpt><trkpt lat="45.945110542223844" lon="12.097413823888132"><ele>264.5</ele><time>2026-04-09T11:46:57Z</time></trkpt><trkpt lat="45.945061273322686" lon="12.097243393254256"><ele>265.0</ele><time>2026-04-09T11:46:58Z</time></trkpt><trkpt lat="45.945010133918835" lon="12.09706222057951"><ele>265.5</ele><time>2026-04-09T11:46:59Z</time></trkpt><trkpt lat="45.94495482917821" lon="12.096878228259891"><ele>266.0</ele><time>2026-04-09T11:47:00Z</time></trkpt><trkpt lat="45.94489695023156" lon="12.09669132950323"><ele>265.0</ele><time>2026-04-09T11:47:01Z</time></trkpt><trkpt lat="45.94484027804477" lon="12.096494976660987"><ele>264.0</ele><time>2026-04-09T11:47:02Z</time></trkpt><trkpt lat="45.94478619854581" lon="12.096293982687007"><ele>263.0</ele><time>2026-04-09T11:47:03Z</time></trkpt><trkpt lat="45.94473009892404" lon="12.096102304410806"><ele>262.0</ele><time>2026-04-09T11:47:04Z</time></trkpt><trkpt lat="45.94467491160035" lon="12.095922192067814"><ele>262.0</ele><time>2026-04-09T11:47:05Z</time></trkpt><trkpt lat="45.944625614649745" lon="12.095757055006805"><ele>262.0</ele><time>2026-04-09T11:47:06Z</time></trkpt><trkpt lat="45.94457130169231" lon="12.09559193208122"><ele>262.0</ele><time>2026-04-09T11:47:07Z</time></trkpt><trkpt lat="45.94451971782023" lon="12.0954197212004"><ele>262.0</ele><time>2026-04-09T11:47:08Z</time></trkpt><trkpt lat="45.94446946829782" lon="12.095241964801582"><ele>262.25</ele><time>2026-04-09T11:47:09Z</time></trkpt><trkpt lat="45.94442308306349" lon="12.095057170161317"><ele>262.5</ele><time>2026-04-09T11:47:10Z</time></trkpt><trkpt lat="45.94439107728141" lon="12.094861097811977"><ele>262.75</ele><time>2026-04-09T11:47:11Z</time></trkpt><trkpt lat="45.94437271007301" lon="12.094658722954808"><ele>263.0</ele><time>2026-04-09T11:47:12Z</time></trkpt><trkpt lat="45.9443674675915" lon="12.094455398626485"><ele>263.0</ele><time>2026-04-09T11:47:13Z</time></trkpt><trkpt lat="45.944370392204746" lon="12.094271191988948"><ele>263.0</ele><time>2026-04-09T11:47:14Z</time></trkpt><trkpt lat="45.9443739419391" lon="12.094102716003675"><ele>263.0</ele><time>2026-04-09T11:47:15Z</time></trkpt><trkpt lat="45.944384443466596" lon="12.093945474414575"><ele>263.0</ele><time>2026-04-09T11:47:16Z</time></trkpt><trkpt lat="45.94434648718013" lon="12.093805838519035"><ele>263.2</ele><time>2026-04-09T11:47:17Z</time></trkpt><trkpt lat="45.944315482548674" lon="12.09368194932161"><ele>263.4</ele><time>2026-04-09T11:47:18Z</time></trkpt><trkpt lat="45.944261968661785" lon="12.093574910168234"><ele>263.59999999999997</ele><time>2026-04-09T11:47:19Z</time></trkpt><trkpt lat="45.94418945793437" lon="12.093481293182956"><ele>263.8</ele><time>2026-04-09T11:47:20Z</time></trkpt><trkpt lat="45.944093182847396" lon="12.093393631453477"><ele>264.0</ele><time>2026-04-09T11:47:21Z</time></trkpt><trkpt lat="45.94398261144241" lon="12.093274000951393"><ele>262.75</ele><time>2026-04-09T11:47:22Z</time></trkpt><trkpt lat="45.94386454286735" lon="12.093130989213575"><ele>261.5</ele><time>2026-04-09T11:47:23Z</time></trkpt><trkpt lat="45.9437594122864" lon="12.09297969491086"><ele>260.25</ele><time>2026-04-09T11:47:24Z</time></trkpt><trkpt lat="45.943672720372064" lon="12.0928296116993"><ele>259.0</ele><time>2026-04-09T11:47:25Z</time></trkpt><trkpt lat="45.943595098943156" lon="12.092690145539159"><ele>259.0</ele><time>2026-04-09T11:47:26Z</time></trkpt><trkpt lat="45.94351790634085" lon="12.092566677279665"><ele>259.0</ele><time>2026-04-09T11:47:27Z</time></trkpt><trkpt lat="45.94344783710298" lon="12.092450064015804"><ele>259.0</ele><time>2026-04-09T11:47:28Z</time></trkpt><trkpt lat="45.943383151152005" lon="12.092335012027375"><ele>259.0</ele><time>2026-04-09T11:47:29Z</time></trkpt><trkpt lat="45.943312290624306" lon="12.092208139152547"><ele>259.0</ele><time>2026-04-09T11:47:30Z</time></trkpt><trkpt lat="45.943235865258636" lon="12.092081536181343"><ele>259.25</ele><time>2026-04-09T11:47:31Z</time></trkpt><trkpt lat="45.94315574041937" lon="12.091951749026801"><ele>259.5</ele><time>2026-04-09T11:47:32Z</time></trkpt><trkpt lat="45.94307091876557" lon="12.091820017074404"><ele>259.75</ele><time>2026-04-09T11:47:33Z</time></trkpt><trkpt lat="45.942980245509446" lon="12.091686320548385"><ele>260.0</ele><time>2026-04-09T11:47:34Z</time></trkpt><trkpt lat="45.94288962763762" lon="12.091546766537379"><ele>260.5</ele><time>2026-04-09T11:47:35Z</time></trkpt><trkpt lat="45.942800339921675" lon="12.091409706442468"><ele>261.0</ele><time>2026-04-09T11:47:36Z</time></trkpt><trkpt lat="45.94272282965933" lon="12.091288449599544"><ele>261.5</ele><time>2026-04-09T11:47:37Z</time></trkpt><trkpt lat="45.94265171143179" lon="12.091168594739893"><ele>262.0</ele><time>2026-04-09T11:47:38Z</time></trkpt><trkpt lat="45.94257031137623" lon="12.091049476039926"><ele>261.8</ele><time>2026-04-09T11:47:39Z</time></trkpt><trkpt lat="45.94249588965388" lon="12.090933099302552"><ele>261.6</ele><time>2026-04-09T11:47:40Z</time></trkpt><trkpt lat="45.94243320831613" lon="12.090827368905424"><ele>261.40000000000003</ele><time>2026-04-09T11:47:41Z</time></trkpt><trkpt lat="45.94236653228118" lon="12.090715241580941"><ele>261.2</ele><time>2026-04-09T11:47:42Z</time></trkpt><trkpt lat="45.942284423857565" lon="12.090589321812725"><ele>261.0</ele><time>2026-04-09T11:47:43Z</time></trkpt><trkpt lat="45.94219294208811" lon="12.090450696663908"><ele>261.0</ele><time>2026-04-09T11:47:44Z</time></trkpt><trkpt lat="45.94208445759681" lon="12.090272103917352"><ele>261.0</ele><time>2026-04-09T11:47:45Z</time></trkpt><trkpt lat="45.9419732695786" lon="12.090094288562964"><ele>261.0</ele><time>2026-04-09T11:47:46Z</time></trkpt><trkpt lat="45.94186959125062" lon="12.089929359443449"><ele>261.6666666666667</ele><time>2026-04-09T11:47:47Z</time></trkpt><trkpt lat="45.94178884917211" lon="12.08973684890791"><ele>262.33333333333337</ele><time>2026-04-09T11:47:48Z</time></trkpt><trkpt lat="45.941683269020395" lon="12.089562272505491"><ele>263.0</ele><time>2026-04-09T11:47:49Z</time></trkpt><trkpt lat="45.941584799975345" lon="12.089361483431292"><ele>263.0</ele><time>2026-04-09T11:47:50Z</time></trkpt><trkpt lat="45.94146474430829" lon="12.089163751839434"><ele>263.0</ele><time>2026-04-09T11:47:51Z</time></trkpt><trkpt lat="45.941331875645346" lon="12.088965101649045"><ele>263.0</ele><time>2026-04-09T11:47:52Z</time></trkpt><trkpt lat="45.94120256623874" lon="12.088771963001722"><ele>263.6666666666667</ele><time>2026-04-09T11:47:53Z</time></trkpt><trkpt lat="45.94107080084449" lon="12.088606137642705"><ele>264.3333333333333</ele><time>2026-04-09T11:47:54Z</time></trkpt><trkpt lat="45.94096934737778" lon="12.088387013947546"><ele>265.0</ele><time>2026-04-09T11:47:55Z</time></trkpt><trkpt lat="45.94085844670299" lon="12.088208416676716"><ele>265.0</ele><time>2026-04-09T11:47:56Z</time></trkpt><trkpt lat="45.94076833712145" lon="12.088011116415151"><ele>265.0</ele><time>2026-04-09T11:47:57Z</time></trkpt><trkpt lat="45.94067996711907" lon="12.08780551932535"><ele>265.0</ele><time>2026-04-09T11:47:58Z</time></trkpt><trkpt lat="45.94059417521785" lon="12.087589595054217"><ele>266.0</ele><time>2026-04-09T11:47:59Z</time></trkpt><trkpt lat="45.94050153661724" lon="12.087362248256957"><ele>267.0</ele><time>2026-04-09T11:48:00Z</time></trkpt><trkpt lat="45.940416645056544" lon="12.0871522432682"><ele>268.0</ele><time>2026-04-09T11:48:01Z</time></trkpt><trkpt lat="45.940350178338" lon="12.086974640102577"><ele>268.0</ele><time>2026-04-09T11:48:02Z</time></trkpt><trkpt lat="45.9402861967185" lon="12.086811687266044"><ele>268.0</ele><time>2026-04-09T11:48:03Z</time></trkpt><trkpt lat="45.94022349012345" lon="12.086663347160972"><ele>268.0</ele><time>2026-04-09T11:48:04Z</time></trkpt><trkpt lat="45.940155787273504" lon="12.086533492804401"><ele>268.0</ele><time>2026-04-09T11:48:05Z</time></trkpt><trkpt lat="45.94006759627216" lon="12.086403176585312"><ele>268.3333333333333</ele><time>2026-04-09T11:48:06Z</time></trkpt><trkpt lat="45.93996019744269" lon="12.086271098684172"><ele>268.6666666666667</ele><time>2026-04-09T11:48:07Z</time></trkpt><trkpt lat="45.939832418528866" lon="12.086142668146971"><ele>269.0</ele><time>2026-04-09T11:48:08Z</time></trkpt><trkpt lat="45.939684278807015" lon="12.086015348953728"><ele>269.0</ele><time>2026-04-09T11:48:09Z</time></trkpt><trkpt lat="45.93951306813106" lon="12.085872022746686"><ele>269.0</ele><time>2026-04-09T11:48:10Z</time></trkpt><trkpt lat="45.93932997302943" lon="12.085709812612595"><ele>269.0</ele><time>2026-04-09T11:48:11Z</time></trkpt><trkpt lat="45.939167694508555" lon="12.08556439629417"><ele>271.6666666666667</ele><time>2026-04-09T11:48:12Z</time></trkpt><trkpt lat="45.93902497776629" lon="12.085436454926588"><ele>274.3333333333333</ele><time>2026-04-09T11:48:13Z</time></trkpt><trkpt lat="45.93888879675826" lon="12.085305328120025"><ele>277.0</ele><time>2026-04-09T11:48:14Z</time></trkpt><trkpt lat="45.93876004952709" lon="12.085158839619133"><ele>277.0</ele><time>2026-04-09T11:48:15Z</time></trkpt><trkpt lat="45.93864487973128" lon="12.085003405359473"><ele>277.0</ele><time>2026-04-09T11:48:16Z</time></trkpt><trkpt lat="45.93855489823503" lon="12.08486625116569"><ele>277.0</ele><time>2026-04-09T11:48:17Z</time></trkpt><trkpt lat="45.938467022067705" lon="12.084762633272922"><ele>277.0</ele><time>2026-04-09T11:48:18Z</time></trkpt><trkpt lat="45.93836456038549" lon="12.084680923394556"><ele>278.75</ele><time>2026-04-09T11:48:19Z</time></trkpt><trkpt lat="45.93824672464155" lon="12.084637989037029"><ele>280.5</ele><time>2026-04-09T11:48:20Z</time></trkpt><trkpt lat="45.938119914778866" lon="12.084609583617347"><ele>282.25</ele><time>2026-04-09T11:48:21Z</time></trkpt><trkpt lat="45.93801104603448" lon="12.084581292679946"><ele>284.0</ele><time>2026-04-09T11:48:22.001Z</time></trkpt><trkpt lat="45.937915958727885" lon="12.084539111449939"><ele>284.0</ele><time>2026-04-09T11:48:23.001Z</time></trkpt><trkpt lat="45.93781928062964" lon="12.084473654985608"><ele>284.0</ele><time>2026-04-09T11:48:24.001Z</time></trkpt><trkpt lat="45.93772962244125" lon="12.084371597652606"><ele>284.0</ele><time>2026-04-09T11:48:25.001Z</time></trkpt><trkpt lat="45.937656510121364" lon="12.084230367459705"><ele>284.0</ele><time>2026-04-09T11:48:26.001Z</time></trkpt><trkpt lat="45.93758718787268" lon="12.084059602069264"><ele>286.0</ele><time>2026-04-09T11:48:27.001Z</time></trkpt><trkpt lat="45.93752723623644" lon="12.083845711159224"><ele>288.0</ele><time>2026-04-09T11:48:28.001Z</time></trkpt><trkpt lat="45.93743007811567" lon="12.083624410107255"><ele>290.0</ele><time>2026-04-09T11:48:29.001Z</time></trkpt><trkpt lat="45.93732878803425" lon="12.08343118863176"><ele>292.0</ele><time>2026-04-09T11:48:30.001Z</time></trkpt><trkpt lat="45.937193897305285" lon="12.083221963007047"><ele>294.0</ele><time>2026-04-09T11:48:31.001Z</time></trkpt><trkpt lat="45.93707089300636" lon="12.083006193551155"><ele>296.0</ele><time>2026-04-09T11:48:32.001Z</time></trkpt><trkpt lat="45.936968426629605" lon="12.082822344486255"><ele>296.0</ele><time>2026-04-09T11:48:33.001Z</time></trkpt><trkpt lat="45.93688470316225" lon="12.082630587758512"><ele>296.0</ele><time>2026-04-09T11:48:34.001Z</time></trkpt><trkpt lat="45.93683746297674" lon="12.082427948117056"><ele>296.0</ele><time>2026-04-09T11:48:35.001Z</time></trkpt><trkpt lat="45.936774954221505" lon="12.082227262610395"><ele>297.6666666666667</ele><time>2026-04-09T11:48:36.001Z</time></trkpt><trkpt lat="45.93674710799777" lon="12.081998725057845"><ele>299.3333333333333</ele><time>2026-04-09T11:48:37.001Z</time></trkpt><trkpt lat="45.9367315866717" lon="12.081761841038356"><ele>301.0</ele><time>2026-04-09T11:48:38.001Z</time></trkpt><trkpt lat="45.93674453001234" lon="12.081528226256427"><ele>299.66666666666663</ele><time>2026-04-09T11:48:39.001Z</time></trkpt><trkpt lat="45.936748056787906" lon="12.081321618938329"><ele>298.3333333333333</ele><time>2026-04-09T11:48:40.001Z</time></trkpt><trkpt lat="45.9367425279399" lon="12.08109758558228"><ele>297.0</ele><time>2026-04-09T11:48:41.001Z</time></trkpt><trkpt lat="45.936713278129986" lon="12.080835648728755"><ele>301.6666666666667</ele><time>2026-04-09T11:48:42.001Z</time></trkpt><trkpt lat="45.93664479209689" lon="12.080608212064014"><ele>306.33333333333337</ele><time>2026-04-09T11:48:43Z</time></trkpt><trkpt lat="45.93657316812535" lon="12.080396254028553"><ele>311.0</ele><time>2026-04-09T11:48:44Z</time></trkpt><trkpt lat="45.936476551859684" lon="12.080173356524481"><ele>320.0</ele><time>2026-04-09T11:48:45Z</time></trkpt><trkpt lat="45.93635279413844" lon="12.07991909343818"><ele>329.0</ele><time>2026-04-09T11:48:46Z</time></trkpt><trkpt lat="45.93622152172168" lon="12.07961877296434"><ele>329.0</ele><time>2026-04-09T11:48:47Z</time></trkpt><trkpt lat="45.93606309256265" lon="12.07937382617601"><ele>329.0</ele><time>2026-04-09T11:48:48Z</time></trkpt><trkpt lat="45.93590102316899" lon="12.07913432987404"><ele>328.5</ele><time>2026-04-09T11:48:49Z</time></trkpt><trkpt lat="45.93571163990806" lon="12.078878085107458"><ele>328.0</ele><time>2026-04-09T11:48:50Z</time></trkpt><trkpt lat="45.93550689080207" lon="12.07859997513309"><ele>328.0</ele><time>2026-04-09T11:48:51Z</time></trkpt><trkpt lat="45.93529259450835" lon="12.078301042464448"><ele>328.0</ele><time>2026-04-09T11:48:52Z</time></trkpt><trkpt lat="45.935079671908746" lon="12.078006666002835"><ele>328.5</ele><time>2026-04-09T11:48:53Z</time></trkpt><trkpt lat="45.934855579843074" lon="12.077699416471049"><ele>329.0</ele><time>2026-04-09T11:48:54Z</time></trkpt><trkpt lat="45.93464032718105" lon="12.077366582198842"><ele>345.0</ele><time>2026-04-09T11:48:55Z</time></trkpt><trkpt lat="45.934426558635096" lon="12.077106127285642"><ele>361.0</ele><time>2026-04-09T11:48:56Z</time></trkpt><trkpt lat="45.93422328846772" lon="12.076842576459617"><ele>357.0</ele><time>2026-04-09T11:48:57Z</time></trkpt><trkpt lat="45.93400962999332" lon="12.076583253825229"><ele>353.0</ele><time>2026-04-09T11:48:58Z</time></trkpt><trkpt lat="45.933783658419706" lon="12.076327468931062"><ele>353.0</ele><time>2026-04-09T11:48:59Z</time></trkpt><trkpt lat="45.93354784198914" lon="12.076061554008701"><ele>353.0</ele><time>2026-04-09T11:49:00Z</time></trkpt><trkpt lat="45.93330806588787" lon="12.075787638071496"><ele>352.0</ele><time>2026-04-09T11:49:01Z</time></trkpt><trkpt lat="45.93309584986925" lon="12.07553916622533"><ele>351.0</ele><time>2026-04-09T11:49:02Z</time></trkpt><trkpt lat="45.93290870841103" lon="12.075323144891021"><ele>351.0</ele><time>2026-04-09T11:49:03Z</time></trkpt><trkpt lat="45.93274651598508" lon="12.075143421329706"><ele>351.0</ele><time>2026-04-09T11:49:04Z</time></trkpt><trkpt lat="45.932610117258136" lon="12.07498752263879"><ele>351.0</ele><time>2026-04-09T11:49:05Z</time></trkpt><trkpt lat="45.93248327218376" lon="12.07482445433459"><ele>352.0</ele><time>2026-04-09T11:49:06Z</time></trkpt><trkpt lat="45.9323628169151" lon="12.074632283266848"><ele>353.0</ele><time>2026-04-09T11:49:07Z</time></trkpt><trkpt lat="45.93226207011227" lon="12.074423501842793"><ele>354.0</ele><time>2026-04-09T11:49:08Z</time></trkpt><trkpt lat="45.932181097826415" lon="12.074235651298359"><ele>360.0</ele><time>2026-04-09T11:49:09Z</time></trkpt><trkpt lat="45.93207917080209" lon="12.07406194616847"><ele>366.0</ele><time>2026-04-09T11:49:10Z</time></trkpt><trkpt lat="45.93194927298147" lon="12.073907369437736"><ele>372.0</ele><time>2026-04-09T11:49:11Z</time></trkpt><trkpt lat="45.93183460639409" lon="12.07379516142178"><ele>372.0</ele><time>2026-04-09T11:49:12Z</time></trkpt><trkpt lat="45.931742784553876" lon="12.073685901980152"><ele>372.0</ele><time>2026-04-09T11:49:13Z</time></trkpt><trkpt lat="45.931670370496626" lon="12.0735427746703"><ele>372.0</ele><time>2026-04-09T11:49:14Z</time></trkpt><trkpt lat="45.93163692687803" lon="12.073356656127123"><ele>372.0</ele><time>2026-04-09T11:49:15Z</time></trkpt><trkpt lat="45.93159181580502" lon="12.073143207781811"><ele>374.0</ele><time>2026-04-09T11:49:16Z</time></trkpt><trkpt lat="45.931534508827866" lon="12.072939051854844"><ele>376.0</ele><time>2026-04-09T11:49:17Z</time></trkpt><trkpt lat="45.931483940474344" lon="12.072744544058459"><ele>378.0</ele><time>2026-04-09T11:49:18Z</time></trkpt><trkpt lat="45.931410401915166" lon="12.072570068835033"><ele>380.0</ele><time>2026-04-09T11:49:19Z</time></trkpt><trkpt lat="45.93130702194604" lon="12.072427247500793"><ele>382.0</ele><time>2026-04-09T11:49:20Z</time></trkpt><trkpt lat="45.93118349636836" lon="12.07231367480856"><ele>384.0</ele><time>2026-04-09T11:49:21Z</time></trkpt><trkpt lat="45.931085353295636" lon="12.072180682382786"><ele>386.0</ele><time>2026-04-09T11:49:22Z</time></trkpt><trkpt lat="45.93102591447569" lon="12.072063174014575"><ele>388.0</ele><time>2026-04-09T11:49:23Z</time></trkpt><trkpt lat="45.93098813185894" lon="12.071909999585088"><ele>388.0</ele><time>2026-04-09T11:49:24Z</time></trkpt><trkpt lat="45.93097359535002" lon="12.071765325526322"><ele>388.0</ele><time>2026-04-09T11:49:25Z</time></trkpt><trkpt lat="45.930993236821486" lon="12.071632542231278"><ele>388.0</ele><time>2026-04-09T11:49:26Z</time></trkpt><trkpt lat="45.931006693500855" lon="12.071454777601792"><ele>388.0</ele><time>2026-04-09T11:49:27Z</time></trkpt><trkpt lat="45.93100899500194" lon="12.071245971604464"><ele>390.0</ele><time>2026-04-09T11:49:28Z</time></trkpt><trkpt lat="45.93102588049404" lon="12.071026796573014"><ele>392.0</ele><time>2026-04-09T11:49:29Z</time></trkpt><trkpt lat="45.93103800592844" lon="12.070845302620969"><ele>394.0</ele><time>2026-04-09T11:49:30Z</time></trkpt><trkpt lat="45.931047521673044" lon="12.070719876572745"><ele>396.0</ele><time>2026-04-09T11:49:31Z</time></trkpt><trkpt lat="45.93104410166287" lon="12.070622383944333"><ele>398.0</ele><time>2026-04-09T11:49:32Z</time></trkpt><trkpt lat="45.931029401486306" lon="12.070532339113152"><ele>398.4</ele><time>2026-04-09T11:49:33Z</time></trkpt><trkpt lat="45.93094956290605" lon="12.070479929358203"><ele>398.79999999999995</ele><time>2026-04-09T11:49:34Z</time></trkpt><trkpt lat="45.930870779700136" lon="12.070461830787286"><ele>399.2</ele><time>2026-04-09T11:49:35Z</time></trkpt><trkpt lat="45.93078836963748" lon="12.070510159088663"><ele>399.6</ele><time>2026-04-09T11:49:36Z</time></trkpt><trkpt lat="45.930722763211385" lon="12.070605216467936"><ele>400.0</ele><time>2026-04-09T11:49:37Z</time></trkpt><trkpt lat="45.93067488541761" lon="12.070744525552332"><ele>397.83333333333337</ele><time>2026-04-09T11:49:38Z</time></trkpt><trkpt lat="45.93063421937896" lon="12.070875732816962"><ele>395.6666666666667</ele><time>2026-04-09T11:49:39Z</time></trkpt><trkpt lat="45.93060369727434" lon="12.070956627216423"><ele>393.5</ele><time>2026-04-09T11:49:40Z</time></trkpt><trkpt lat="45.93056630105344" lon="12.071029852797444"><ele>391.33333333333337</ele><time>2026-04-09T11:49:42Z</time></trkpt><trkpt lat="45.93050700728539" lon="12.07117362477469"><ele>389.1666666666667</ele><time>2026-04-09T11:49:47Z</time></trkpt><trkpt lat="45.93045522434143" lon="12.071269943959459"><ele>387.0</ele><time>2026-04-09T11:49:48Z</time></trkpt><trkpt lat="45.930379725904494" lon="12.071351003952678"><ele>387.0</ele><time>2026-04-09T11:49:49Z</time></trkpt><trkpt lat="45.9302889421747" lon="12.071395967022177"><ele>387.0</ele><time>2026-04-09T11:49:50Z</time></trkpt><trkpt lat="45.93020464584899" lon="12.07139741107836"><ele>387.0</ele><time>2026-04-09T11:49:51Z</time></trkpt><trkpt lat="45.93014234050468" lon="12.071333265113903"><ele>387.0</ele><time>2026-04-09T11:49:52Z</time></trkpt><trkpt lat="45.930090860246544" lon="12.07126800326432"><ele>387.0</ele><time>2026-04-09T11:49:53Z</time></trkpt><trkpt lat="45.93003836558061" lon="12.071206096722785"><ele>387.0</ele><time>2026-04-09T11:49:54Z</time></trkpt><trkpt lat="45.9299669464961" lon="12.071152347438831"><ele>387.6</ele><time>2026-04-09T11:49:55Z</time></trkpt><trkpt lat="45.9299319262337" lon="12.071024022210805"><ele>388.20000000000005</ele><time>2026-04-09T11:49:56Z</time></trkpt><trkpt lat="45.929876018113085" lon="12.070929976283015"><ele>388.8</ele><time>2026-04-09T11:49:57Z</time></trkpt><trkpt lat="45.929822891096165" lon="12.070807308830659"><ele>389.4</ele><time>2026-04-09T11:49:58Z</time></trkpt><trkpt lat="45.929756550020976" lon="12.07062390151573"><ele>390.0</ele><time>2026-04-09T11:49:59Z</time></trkpt><trkpt lat="45.92967450959451" lon="12.070413685412072"><ele>391.66666666666663</ele><time>2026-04-09T11:50:00Z</time></trkpt><trkpt lat="45.929596643224194" lon="12.070224164678681"><ele>393.3333333333333</ele><time>2026-04-09T11:50:01Z</time></trkpt><trkpt lat="45.92952021877357" lon="12.07003218651421"><ele>395.0</ele><time>2026-04-09T11:50:02Z</time></trkpt><trkpt lat="45.929433016263545" lon="12.06981672089028"><ele>396.3333333333333</ele><time>2026-04-09T11:50:03Z</time></trkpt><trkpt lat="45.92934228777848" lon="12.06958043858999"><ele>397.66666666666663</ele><time>2026-04-09T11:50:04Z</time></trkpt><trkpt lat="45.92925895368709" lon="12.069360758353406"><ele>399.0</ele><time>2026-04-09T11:50:05Z</time></trkpt><trkpt lat="45.92919803742122" lon="12.069157047908"><ele>397.5</ele><time>2026-04-09T11:50:06Z</time></trkpt><trkpt lat="45.92910879362184" lon="12.068994587828836"><ele>396.0</ele><time>2026-04-09T11:50:07Z</time></trkpt><trkpt lat="45.9290309158912" lon="12.068838187255821"><ele>394.5</ele><time>2026-04-09T11:50:08Z</time></trkpt><trkpt lat="45.92894577814423" lon="12.068692165717675"><ele>393.0</ele><time>2026-04-09T11:50:09Z</time></trkpt><trkpt lat="45.928859552896526" lon="12.068549620364813"><ele>393.0</ele><time>2026-04-09T11:50:10Z</time></trkpt><trkpt lat="45.928776954677936" lon="12.068409186195725"><ele>393.0</ele><time>2026-04-09T11:50:11Z</time></trkpt><trkpt lat="45.92869242682196" lon="12.068279769873183"><ele>393.0</ele><time>2026-04-09T11:50:12Z</time></trkpt><trkpt lat="45.92862326594642" lon="12.068131535997182"><ele>393.0</ele><time>2026-04-09T11:50:13Z</time></trkpt><trkpt lat="45.92853817883662" lon="12.068009556919712"><ele>394.0</ele><time>2026-04-09T11:50:14Z</time></trkpt><trkpt lat="45.92846965295443" lon="12.067897990630916"><ele>395.0</ele><time>2026-04-09T11:50:15Z</time></trkpt><trkpt lat="45.928395198595744" lon="12.067821950509526"><ele>396.0</ele><time>2026-04-09T11:50:16Z</time></trkpt><trkpt lat="45.92831426670045" lon="12.067782013270092"><ele>397.0</ele><time>2026-04-09T11:50:17Z</time></trkpt><trkpt lat="45.92821968113559" lon="12.0677846962759"><ele>398.0</ele><time>2026-04-09T11:50:18Z</time></trkpt><trkpt lat="45.92811956893741" lon="12.0678157568285"><ele>398.0</ele><time>2026-04-09T11:50:19Z</time></trkpt><trkpt lat="45.92801705893112" lon="12.067880454564863"><ele>398.0</ele><time>2026-04-09T11:50:20Z</time></trkpt><trkpt lat="45.92792304345022" lon="12.067967172626187"><ele>398.0</ele><time>2026-04-09T11:50:21Z</time></trkpt><trkpt lat="45.92784317586176" lon="12.068029503200295"><ele>398.0</ele><time>2026-04-09T11:50:22Z</time></trkpt><trkpt lat="45.927760914066454" lon="12.068061298485578"><ele>398.0</ele><time>2026-04-09T11:50:23Z</time></trkpt><trkpt lat="45.927673807205416" lon="12.068071198563619"><ele>398.0</ele><time>2026-04-09T11:50:24Z</time></trkpt><trkpt lat="45.927574553043975" lon="12.068063318588166"><ele>398.0</ele><time>2026-04-09T11:50:25Z</time></trkpt><trkpt lat="45.92746384535035" lon="12.06802095194853"><ele>398.0</ele><time>2026-04-09T11:50:26Z</time></trkpt><trkpt lat="45.927330969905384" lon="12.067946207317522"><ele>398.0</ele><time>2026-04-09T11:50:27Z</time></trkpt><trkpt lat="45.92720876283246" lon="12.067870861655686"><ele>397.0</ele><time>2026-04-09T11:50:28.001Z</time></trkpt><trkpt lat="45.92711699116411" lon="12.067779063083755"><ele>396.0</ele><time>2026-04-09T11:50:29.001Z</time></trkpt><trkpt lat="45.92705278339611" lon="12.067689070305539"><ele>395.0</ele><time>2026-04-09T11:50:30.001Z</time></trkpt><trkpt lat="45.92701565056906" lon="12.067577292330919"><ele>394.0</ele><time>2026-04-09T11:50:31.001Z</time></trkpt><trkpt lat="45.92698368851919" lon="12.06744228045259"><ele>393.0</ele><time>2026-04-09T11:50:32.001Z</time></trkpt><trkpt lat="45.92699850824568" lon="12.067299118320362"><ele>393.0</ele><time>2026-04-09T11:50:33.001Z</time></trkpt><trkpt lat="45.92706115161258" lon="12.067197852994283"><ele>393.0</ele><time>2026-04-09T11:50:34.001Z</time></trkpt><trkpt lat="45.92713860572129" lon="12.067109002269975"><ele>393.0</ele><time>2026-04-09T11:50:35.001Z</time></trkpt><trkpt lat="45.92723421409109" lon="12.066991503040388"><ele>393.0</ele><time>2026-04-09T11:50:36.001Z</time></trkpt><trkpt lat="45.927339308913226" lon="12.066858663440822"><ele>393.0</ele><time>2026-04-09T11:50:37.001Z</time></trkpt><trkpt lat="45.927439823336535" lon="12.066714213445131"><ele>393.0</ele><time>2026-04-09T11:50:38.001Z</time></trkpt><trkpt lat="45.927479047254806" lon="12.066559370328584"><ele>393.0</ele><time>2026-04-09T11:50:39.001Z</time></trkpt><trkpt lat="45.927484795697126" lon="12.066412368589322"><ele>393.0</ele><time>2026-04-09T11:50:40.001Z</time></trkpt><trkpt lat="45.92745739062278" lon="12.066262824289407"><ele>396.0</ele><time>2026-04-09T11:50:41.001Z</time></trkpt><trkpt lat="45.92739389686625" lon="12.066127353835276"><ele>399.0</ele><time>2026-04-09T11:50:42Z</time></trkpt><trkpt lat="45.92730090738537" lon="12.066010054624012"><ele>402.0</ele><time>2026-04-09T11:50:43Z</time></trkpt><trkpt lat="45.92719341257441" lon="12.065901522111528"><ele>405.0</ele><time>2026-04-09T11:50:44Z</time></trkpt><trkpt lat="45.92709889945856" lon="12.06581037858326"><ele>408.6</ele><time>2026-04-09T11:50:45Z</time></trkpt><trkpt lat="45.92706060661675" lon="12.065704644379718"><ele>412.2</ele><time>2026-04-09T11:50:46Z</time></trkpt><trkpt lat="45.927017848057204" lon="12.065602551710702"><ele>415.79999999999995</ele><time>2026-04-09T11:50:47Z</time></trkpt><trkpt lat="45.926973179907556" lon="12.065479958433992"><ele>419.4</ele><time>2026-04-09T11:50:48Z</time></trkpt><trkpt lat="45.9269033477851" lon="12.065370413492731"><ele>423.0</ele><time>2026-04-09T11:50:49Z</time></trkpt><trkpt lat="45.92683906088701" lon="12.06526398427821"><ele>423.0</ele><time>2026-04-09T11:50:50Z</time></trkpt><trkpt lat="45.92674043781369" lon="12.0652478381091"><ele>423.0</ele><time>2026-04-09T11:50:51Z</time></trkpt><trkpt lat="45.92666627471369" lon="12.065242852029902"><ele>423.0</ele><time>2026-04-09T11:50:52Z</time></trkpt><trkpt lat="45.926597558943214" lon="12.065242814452283"><ele>423.0</ele><time>2026-04-09T11:50:53Z</time></trkpt><trkpt lat="45.92653046731263" lon="12.065191355412901"><ele>423.0</ele><time>2026-04-09T11:50:54Z</time></trkpt><trkpt lat="45.926452056508325" lon="12.065128730344743"><ele>423.0</ele><time>2026-04-09T11:50:55Z</time></trkpt><trkpt lat="45.92638280060151" lon="12.065039152629552"><ele>422.59999999999997</ele><time>2026-04-09T11:50:56Z</time></trkpt><trkpt lat="45.92634922382792" lon="12.064921833637294"><ele>422.2</ele><time>2026-04-09T11:50:57Z</time></trkpt><trkpt lat="45.926326446120186" lon="12.064792363455227"><ele>421.8</ele><time>2026-04-09T11:50:58Z</time></trkpt><trkpt lat="45.926306087309854" lon="12.06461763251073"><ele>421.4</ele><time>2026-04-09T11:50:59Z</time></trkpt><trkpt lat="45.92628233644648" lon="12.064428573106657"><ele>421.0</ele><time>2026-04-09T11:51:00Z</time></trkpt><trkpt lat="45.926263377786" lon="12.064285603876373"><ele>421.0</ele><time>2026-04-09T11:51:01Z</time></trkpt><trkpt lat="45.92624726385661" lon="12.06416408707279"><ele>421.0</ele><time>2026-04-09T11:51:02Z</time></trkpt><trkpt lat="45.92621772921431" lon="12.064051143576032"><ele>421.0</ele><time>2026-04-09T11:51:03Z</time></trkpt><trkpt lat="45.92621686954889" lon="12.063921100081187"><ele>421.0</ele><time>2026-04-09T11:51:04Z</time></trkpt><trkpt lat="45.92618408672988" lon="12.063788067702898"><ele>421.0</ele><time>2026-04-09T11:51:05Z</time></trkpt><trkpt lat="45.926182494121385" lon="12.063643802688354"><ele>422.33333333333337</ele><time>2026-04-09T11:51:06Z</time></trkpt><trkpt lat="45.926165469352014" lon="12.063507887685807"><ele>423.6666666666667</ele><time>2026-04-09T11:51:07Z</time></trkpt><trkpt lat="45.92613510974201" lon="12.063398598357079"><ele>425.0</ele><time>2026-04-09T11:51:08Z</time></trkpt><trkpt lat="45.926123868128705" lon="12.063298147657083"><ele>426.33333333333337</ele><time>2026-04-09T11:51:09Z</time></trkpt><trkpt lat="45.92610476185223" lon="12.063202549947626"><ele>427.6666666666667</ele><time>2026-04-09T11:51:10Z</time></trkpt><trkpt lat="45.92606351272035" lon="12.06311216372377"><ele>429.0</ele><time>2026-04-09T11:51:11Z</time></trkpt><trkpt lat="45.925990166574444" lon="12.063050328572897"><ele>429.0</ele><time>2026-04-09T11:51:12Z</time></trkpt><trkpt lat="45.92592679399422" lon="12.062983719726065"><ele>429.0</ele><time>2026-04-09T11:51:13Z</time></trkpt><trkpt lat="45.92580996994159" lon="12.063070516124323"><ele>429.0</ele><time>2026-04-09T11:51:14Z</time></trkpt><trkpt lat="45.92571581183434" lon="12.063131853313834"><ele>429.0</ele><time>2026-04-09T11:51:15Z</time></trkpt><trkpt lat="45.925621205084134" lon="12.063148183608279"><ele>429.0</ele><time>2026-04-09T11:51:16Z</time></trkpt><trkpt lat="45.9255219326503" lon="12.063108355621951"><ele>429.0</ele><time>2026-04-09T11:51:17Z</time></trkpt><trkpt lat="45.9254365878617" lon="12.063009972207409"><ele>429.0</ele><time>2026-04-09T11:51:18Z</time></trkpt><trkpt lat="45.92535807417404" lon="12.062903549728102"><ele>429.0</ele><time>2026-04-09T11:51:19Z</time></trkpt><trkpt lat="45.925262847341806" lon="12.062798985828222"><ele>429.0</ele><time>2026-04-09T11:51:20Z</time></trkpt><trkpt lat="45.92516735167908" lon="12.062676516991223"><ele>431.25</ele><time>2026-04-09T11:51:21Z</time></trkpt><trkpt lat="45.925061164563665" lon="12.062558928807245"><ele>433.5</ele><time>2026-04-09T11:51:22Z</time></trkpt><trkpt lat="45.92493840997667" lon="12.062477666261126"><ele>435.75</ele><time>2026-04-09T11:51:23Z</time></trkpt><trkpt lat="45.924803458094175" lon="12.06243907098519"><ele>438.0</ele><time>2026-04-09T11:51:24Z</time></trkpt><trkpt lat="45.92466971204591" lon="12.062428496815844"><ele>438.0</ele><time>2026-04-09T11:51:25Z</time></trkpt><trkpt lat="45.924553783777434" lon="12.062420985216216"><ele>437.99999999999994</ele><time>2026-04-09T11:51:26Z</time></trkpt><trkpt lat="45.92446098388023" lon="12.062408595741765"><ele>437.99999999999994</ele><time>2026-04-09T11:51:27Z</time></trkpt><trkpt lat="45.92438249508652" lon="12.062369003665122"><ele>438.0</ele><time>2026-04-09T11:51:28Z</time></trkpt><trkpt lat="45.9243352452071" lon="12.062262010825847"><ele>438.0</ele><time>2026-04-09T11:51:29Z</time></trkpt><trkpt lat="45.92429995520568" lon="12.062148369128714"><ele>438.0</ele><time>2026-04-09T11:51:30Z</time></trkpt><trkpt lat="45.924295371962046" lon="12.062022159803837"><ele>437.99999999999994</ele><time>2026-04-09T11:51:31Z</time></trkpt><trkpt lat="45.92431316645058" lon="12.061879501049747"><ele>437.99999999999994</ele><time>2026-04-09T11:51:32Z</time></trkpt><trkpt lat="45.924335752405334" lon="12.061726318092543"><ele>438.0</ele><time>2026-04-09T11:51:33Z</time></trkpt><trkpt lat="45.92437210894504" lon="12.061566004561339"><ele>438.0</ele><time>2026-04-09T11:51:34Z</time></trkpt><trkpt lat="45.924402307159525" lon="12.061414449582939"><ele>439.1666666666667</ele><time>2026-04-09T11:51:35Z</time></trkpt><trkpt lat="45.92440684081151" lon="12.061287851342358"><ele>440.33333333333337</ele><time>2026-04-09T11:51:36Z</time></trkpt><trkpt lat="45.92438715552098" lon="12.06117650131649"><ele>441.5</ele><time>2026-04-09T11:51:37Z</time></trkpt><trkpt lat="45.92433391683587" lon="12.06108494291948"><ele>442.6666666666667</ele><time>2026-04-09T11:51:38Z</time></trkpt><trkpt lat="45.924253676726075" lon="12.061033573801673"><ele>443.83333333333337</ele><time>2026-04-09T11:51:39Z</time></trkpt><trkpt lat="45.92415462575244" lon="12.061024763666518"><ele>445.0</ele><time>2026-04-09T11:51:40Z</time></trkpt><trkpt lat="45.924068384819755" lon="12.061047347293961"><ele>441.25</ele><time>2026-04-09T11:51:41Z</time></trkpt><trkpt lat="45.92397656130509" lon="12.061131967498962"><ele>437.5</ele><time>2026-04-09T11:51:42Z</time></trkpt><trkpt lat="45.92389107711977" lon="12.061247658523687"><ele>433.75</ele><time>2026-04-09T11:51:43Z</time></trkpt><trkpt lat="45.923789277324325" lon="12.06137951676549"><ele>430.0</ele><time>2026-04-09T11:51:44Z</time></trkpt><trkpt lat="45.92369339101331" lon="12.06150097575823"><ele>430.0</ele><time>2026-04-09T11:51:45Z</time></trkpt><trkpt lat="45.92360320157143" lon="12.061604397916348"><ele>430.0</ele><time>2026-04-09T11:51:46Z</time></trkpt><trkpt lat="45.92350630931426" lon="12.061717174672257"><ele>430.0</ele><time>2026-04-09T11:51:47Z</time></trkpt><trkpt lat="45.923401195151634" lon="12.061844805593761"><ele>430.0</ele><time>2026-04-09T11:51:48Z</time></trkpt><trkpt lat="45.92328900864298" lon="12.061975699952965"><ele>430.6</ele><time>2026-04-09T11:51:49Z</time></trkpt><trkpt lat="45.923174932287786" lon="12.062095373759309"><ele>431.2</ele><time>2026-04-09T11:51:50Z</time></trkpt><trkpt lat="45.923090380687505" lon="12.06218897594309"><ele>431.79999999999995</ele><time>2026-04-09T11:51:51Z</time></trkpt><trkpt lat="45.92301479631797" lon="12.062234672237755"><ele>432.4</ele><time>2026-04-09T11:51:52Z</time></trkpt><trkpt lat="45.922919717026154" lon="12.062254247593415"><ele>433.0</ele><time>2026-04-09T11:51:53Z</time></trkpt><trkpt lat="45.92282123592955" lon="12.062314422974863"><ele>433.0</ele><time>2026-04-09T11:51:54Z</time></trkpt><trkpt lat="45.92272569123212" lon="12.062414820118738"><ele>433.0</ele><time>2026-04-09T11:51:55Z</time></trkpt><trkpt lat="45.922652487676245" lon="12.062558482184215"><ele>433.0</ele><time>2026-04-09T11:51:56Z</time></trkpt><trkpt lat="45.92259789274826" lon="12.062715879216551"><ele>433.0</ele><time>2026-04-09T11:51:57Z</time></trkpt><trkpt lat="45.922555257246806" lon="12.06287897094916"><ele>433.0</ele><time>2026-04-09T11:51:58Z</time></trkpt><trkpt lat="45.92252448727626" lon="12.063029488977467"><ele>432.99999999999994</ele><time>2026-04-09T11:51:59Z</time></trkpt><trkpt lat="45.92247347351186" lon="12.06313296510112"><ele>432.99999999999994</ele><time>2026-04-09T11:52:00Z</time></trkpt><trkpt lat="45.92240142831336" lon="12.063230888780199"><ele>433.0</ele><time>2026-04-09T11:52:01Z</time></trkpt><trkpt lat="45.92229451735079" lon="12.063308339337425"><ele>433.0</ele><time>2026-04-09T11:52:02Z</time></trkpt><trkpt lat="45.922181519133794" lon="12.063377526952062"><ele>429.83333333333337</ele><time>2026-04-09T11:52:03Z</time></trkpt><trkpt lat="45.92208821227645" lon="12.063436837198473"><ele>426.6666666666667</ele><time>2026-04-09T11:52:04Z</time></trkpt><trkpt lat="45.922006292226314" lon="12.06348237573173"><ele>423.5</ele><time>2026-04-09T11:52:05Z</time></trkpt><trkpt lat="45.92192263526601" lon="12.063497202852046"><ele>420.33333333333337</ele><time>2026-04-09T11:52:06Z</time></trkpt><trkpt lat="45.92184739367591" lon="12.063467060874883"><ele>417.1666666666667</ele><time>2026-04-09T11:52:07Z</time></trkpt><trkpt lat="45.92178674035443" lon="12.063395231265513"><ele>414.0</ele><time>2026-04-09T11:52:08Z</time></trkpt><trkpt lat="45.92173425418909" lon="12.0632898820742"><ele>414.5</ele><time>2026-04-09T11:52:09Z</time></trkpt><trkpt lat="45.92171601211218" lon="12.063145929082959"><ele>415.0</ele><time>2026-04-09T11:52:10Z</time></trkpt><trkpt lat="45.9216814584055" lon="12.062987922024627"><ele>415.5</ele><time>2026-04-09T11:52:11Z</time></trkpt><trkpt lat="45.92164274270641" lon="12.062804629927653"><ele>416.0</ele><time>2026-04-09T11:52:12Z</time></trkpt><trkpt lat="45.92159834295796" lon="12.06260182699937"><ele>420.0</ele><time>2026-04-09T11:52:13Z</time></trkpt><trkpt lat="45.92155254664354" lon="12.062392126801118"><ele>424.0</ele><time>2026-04-09T11:52:14Z</time></trkpt><trkpt lat="45.92151435305017" lon="12.062185103237098"><ele>428.0</ele><time>2026-04-09T11:52:15Z</time></trkpt><trkpt lat="45.92149852081706" lon="12.061997341239149"><ele>432.0</ele><time>2026-04-09T11:52:15.999Z</time></trkpt><trkpt lat="45.92149689159405" lon="12.061822712959833"><ele>432.0</ele><time>2026-04-09T11:52:16.999Z</time></trkpt><trkpt lat="45.921478782938" lon="12.061665331655927"><ele>432.00000000000006</ele><time>2026-04-09T11:52:17.999Z</time></trkpt><trkpt lat="45.92145229848242" lon="12.061529715773302"><ele>432.00000000000006</ele><time>2026-04-09T11:52:18.999Z</time></trkpt><trkpt lat="45.92139082095804" lon="12.06141011416153"><ele>432.0</ele><time>2026-04-09T11:52:19.999Z</time></trkpt><trkpt lat="45.921309032953374" lon="12.061319540810837"><ele>432.0</ele><time>2026-04-09T11:52:20.999Z</time></trkpt><trkpt lat="45.92121460083819" lon="12.061257413283046"><ele>434.0</ele><time>2026-04-09T11:52:21.999Z</time></trkpt><trkpt lat="45.921115639473825" lon="12.06125957028368"><ele>436.00000000000006</ele><time>2026-04-09T11:52:22.999Z</time></trkpt><trkpt lat="45.921019810565845" lon="12.061295531001239"><ele>438.00000000000006</ele><time>2026-04-09T11:52:23.999Z</time></trkpt><trkpt lat="45.920919194517914" lon="12.06137212745838"><ele>440.0</ele><time>2026-04-09T11:52:24.999Z</time></trkpt><trkpt lat="45.920810257413194" lon="12.061465241752332"><ele>442.0</ele><time>2026-04-09T11:52:25.999Z</time></trkpt><trkpt lat="45.92069884178532" lon="12.061582855326053"><ele>437.0</ele><time>2026-04-09T11:52:26.999Z</time></trkpt><trkpt lat="45.9206069650172" lon="12.061735208636966"><ele>432.0</ele><time>2026-04-09T11:52:27.999Z</time></trkpt><trkpt lat="45.92053956753976" lon="12.061922202675632"><ele>427.0</ele><time>2026-04-09T11:52:28.999Z</time></trkpt><trkpt lat="45.92049301039011" lon="12.062133369681993"><ele>422.0</ele><time>2026-04-09T11:52:29.999Z</time></trkpt><trkpt lat="45.92043737155278" lon="12.062338955208112"><ele>423.75</ele><time>2026-04-09T11:52:30.999Z</time></trkpt><trkpt lat="45.92034710330964" lon="12.062500407700908"><ele>425.5</ele><time>2026-04-09T11:52:31.999Z</time></trkpt><trkpt lat="45.92024318961524" lon="12.062626208056281"><ele>427.25</ele><time>2026-04-09T11:52:32.999Z</time></trkpt><trkpt lat="45.92011568287918" lon="12.062743431691125"><ele>429.0</ele><time>2026-04-09T11:52:34Z</time></trkpt><trkpt lat="45.91998288505374" lon="12.062886331075948"><ele>429.0</ele><time>2026-04-09T11:52:35Z</time></trkpt><trkpt lat="45.91988377327357" lon="12.06299964893379"><ele>429.0</ele><time>2026-04-09T11:52:36Z</time></trkpt><trkpt lat="45.919796191534104" lon="12.063087729518704"><ele>429.0</ele><time>2026-04-09T11:52:37Z</time></trkpt><trkpt lat="45.91970176493081" lon="12.063138538153446"><ele>429.0</ele><time>2026-04-09T11:52:38Z</time></trkpt><trkpt lat="45.919603749457636" lon="12.063116175778683"><ele>429.0</ele><time>2026-04-09T11:52:39Z</time></trkpt><trkpt lat="45.919510066319845" lon="12.06306834750099"><ele>429.0</ele><time>2026-04-09T11:52:40Z</time></trkpt><trkpt lat="45.91938300465276" lon="12.063013021472848"><ele>429.0</ele><time>2026-04-09T11:52:41Z</time></trkpt><trkpt lat="45.91923660225083" lon="12.062922060100648"><ele>429.0</ele><time>2026-04-09T11:52:42Z</time></trkpt><trkpt lat="45.91906074781" lon="12.062827361755557"><ele>427.66666666666663</ele><time>2026-04-09T11:52:43Z</time></trkpt><trkpt lat="45.91888617442234" lon="12.062699662790948"><ele>426.3333333333333</ele><time>2026-04-09T11:52:44Z</time></trkpt><trkpt lat="45.91872399117027" lon="12.062602943285443"><ele>425.0</ele><time>2026-04-09T11:52:45Z</time></trkpt><trkpt lat="45.91855535808559" lon="12.062501987361653"><ele>428.3333333333333</ele><time>2026-04-09T11:52:46Z</time></trkpt><trkpt lat="45.91838835553685" lon="12.062396260316211"><ele>431.66666666666663</ele><time>2026-04-09T11:52:47Z</time></trkpt><trkpt lat="45.918243530903695" lon="12.062295445757599"><ele>435.0</ele><time>2026-04-09T11:52:48Z</time></trkpt><trkpt lat="45.91812210524334" lon="12.06224309448358"><ele>435.0</ele><time>2026-04-09T11:52:49Z</time></trkpt><trkpt lat="45.91803729933452" lon="12.062192011829989"><ele>435.0</ele><time>2026-04-09T11:52:50Z</time></trkpt><trkpt lat="45.91795068283326" lon="12.062171672961046"><ele>435.0</ele><time>2026-04-09T11:52:51Z</time></trkpt><trkpt lat="45.91785739942723" lon="12.06218934596088"><ele>435.0</ele><time>2026-04-09T11:52:52Z</time></trkpt><trkpt lat="45.91776165778511" lon="12.062242590618192"><ele>435.0</ele><time>2026-04-09T11:52:53Z</time></trkpt><trkpt lat="45.91767349176296" lon="12.06234440033882"><ele>428.6</ele><time>2026-04-09T11:52:54Z</time></trkpt><trkpt lat="45.917597439272754" lon="12.06246365277067"><ele>422.2</ele><time>2026-04-09T11:52:55Z</time></trkpt><trkpt lat="45.91752483159853" lon="12.062546775711278"><ele>415.79999999999995</ele><time>2026-04-09T11:52:56Z</time></trkpt><trkpt lat="45.91744059806379" lon="12.062572274268748"><ele>409.4</ele><time>2026-04-09T11:52:57Z</time></trkpt><trkpt lat="45.91734835619849" lon="12.06251456489022"><ele>403.0</ele><time>2026-04-09T11:52:58Z</time></trkpt><trkpt lat="45.9172360268217" lon="12.06248158644244"><ele>404.2</ele><time>2026-04-09T11:52:59Z</time></trkpt><trkpt lat="45.91710173207125" lon="12.062462949562667"><ele>405.4</ele><time>2026-04-09T11:53:00Z</time></trkpt><trkpt lat="45.91699481552105" lon="12.062407427589276"><ele>406.59999999999997</ele><time>2026-04-09T11:53:01Z</time></trkpt><trkpt lat="45.91691353621883" lon="12.062349014058617"><ele>407.79999999999995</ele><time>2026-04-09T11:53:02Z</time></trkpt><trkpt lat="45.91685530810095" lon="12.062273804415385"><ele>409.0</ele><time>2026-04-09T11:53:03Z</time></trkpt><trkpt lat="45.91682288086356" lon="12.062174848415353"><ele>409.0</ele><time>2026-04-09T11:53:04Z</time></trkpt><trkpt lat="45.91680789489367" lon="12.062058037598327"><ele>409.0</ele><time>2026-04-09T11:53:05Z</time></trkpt><trkpt lat="45.91681682602085" lon="12.061917423828527"><ele>409.0</ele><time>2026-04-09T11:53:06Z</time></trkpt><trkpt lat="45.91682497037453" lon="12.061733859342583"><ele>409.0</ele><time>2026-04-09T11:53:07Z</time></trkpt><trkpt lat="45.91683483871122" lon="12.061515550401868"><ele>411.25</ele><time>2026-04-09T11:53:08Z</time></trkpt><trkpt lat="45.91684329723945" lon="12.061324793223294"><ele>413.5</ele><time>2026-04-09T11:53:09Z</time></trkpt><trkpt lat="45.91685224928807" lon="12.06112290627339"><ele>415.75</ele><time>2026-04-09T11:53:10Z</time></trkpt><trkpt lat="45.91686283916668" lon="12.060905885002297"><ele>418.0</ele><time>2026-04-09T11:53:11Z</time></trkpt><trkpt lat="45.91686831967329" lon="12.060706078767504"><ele>421.5</ele><time>2026-04-09T11:53:12Z</time></trkpt><trkpt lat="45.91685190108627" lon="12.06054351609911"><ele>425.0</ele><time>2026-04-09T11:53:13Z</time></trkpt><trkpt lat="45.916824365974115" lon="12.060392074179882"><ele>428.5</ele><time>2026-04-09T11:53:14Z</time></trkpt><trkpt lat="45.916764224491075" lon="12.060256061049179"><ele>432.0</ele><time>2026-04-09T11:53:15Z</time></trkpt><trkpt lat="45.91667021900768" lon="12.060135430251805"><ele>425.0</ele><time>2026-04-09T11:53:16Z</time></trkpt><trkpt lat="45.916546589901095" lon="12.060043393925493"><ele>418.0</ele><time>2026-04-09T11:53:17Z</time></trkpt><trkpt lat="45.91638848785114" lon="12.059964207322702"><ele>411.0</ele><time>2026-04-09T11:53:18Z</time></trkpt><trkpt lat="45.916210009872714" lon="12.059856507021905"><ele>411.0</ele><time>2026-04-09T11:53:19Z</time></trkpt><trkpt lat="45.9160439263215" lon="12.059741481703027"><ele>411.0</ele><time>2026-04-09T11:53:20Z</time></trkpt><trkpt lat="45.91589556818042" lon="12.05964041459738"><ele>411.0</ele><time>2026-04-09T11:53:21Z</time></trkpt><trkpt lat="45.91575768166346" lon="12.059546550754762"><ele>403.25</ele><time>2026-04-09T11:53:22Z</time></trkpt><trkpt lat="45.91563951721798" lon="12.05946217125032"><ele>395.5</ele><time>2026-04-09T11:53:23Z</time></trkpt><trkpt lat="45.915522657809035" lon="12.059406431713548"><ele>387.75</ele><time>2026-04-09T11:53:24Z</time></trkpt><trkpt lat="45.915402804422115" lon="12.059405499064422"><ele>380.0</ele><time>2026-04-09T11:53:25Z</time></trkpt><trkpt lat="45.91528705641412" lon="12.059433879578762"><ele>380.0</ele><time>2026-04-09T11:53:26Z</time></trkpt><trkpt lat="45.915179030948835" lon="12.059474247018954"><ele>380.0</ele><time>2026-04-09T11:53:27Z</time></trkpt><trkpt lat="45.915072901094625" lon="12.059473267492926"><ele>380.0</ele><time>2026-04-09T11:53:28Z</time></trkpt><trkpt lat="45.91498306065565" lon="12.059393304349845"><ele>380.0</ele><time>2026-04-09T11:53:29Z</time></trkpt><trkpt lat="45.91489429785017" lon="12.059316950731983"><ele>380.0</ele><time>2026-04-09T11:53:30Z</time></trkpt><trkpt lat="45.91483448241638" lon="12.05921267061527"><ele>375.4</ele><time>2026-04-09T11:53:31Z</time></trkpt><trkpt lat="45.91480060914781" lon="12.059103477569499"><ele>370.8</ele><time>2026-04-09T11:53:32Z</time></trkpt><trkpt lat="45.91479879637526" lon="12.05898152359947"><ele>366.20000000000005</ele><time>2026-04-09T11:53:33Z</time></trkpt><trkpt lat="45.91485400795717" lon="12.058881850741665"><ele>361.6</ele><time>2026-04-09T11:53:34Z</time></trkpt><trkpt lat="45.91492740574075" lon="12.05879947607981"><ele>357.0</ele><time>2026-04-09T11:53:35Z</time></trkpt><trkpt lat="45.914998442821776" lon="12.058670924383359"><ele>357.0</ele><time>2026-04-09T11:53:36Z</time></trkpt><trkpt lat="45.915060248050466" lon="12.058513540415486"><ele>357.0</ele><time>2026-04-09T11:53:37Z</time></trkpt><trkpt lat="45.91509024025193" lon="12.058316831188767"><ele>357.0</ele><time>2026-04-09T11:53:38Z</time></trkpt><trkpt lat="45.915097604255585" lon="12.058087335097985"><ele>357.0</ele><time>2026-04-09T11:53:39Z</time></trkpt><trkpt lat="45.915113125112036" lon="12.057838906462662"><ele>363.0</ele><time>2026-04-09T11:53:40Z</time></trkpt><trkpt lat="45.91511429516044" lon="12.057619475340985"><ele>369.0</ele><time>2026-04-09T11:53:41Z</time></trkpt><trkpt lat="45.91510034784373" lon="12.057434419201392"><ele>375.0</ele><time>2026-04-09T11:53:42Z</time></trkpt><trkpt lat="45.91510629074565" lon="12.057277563227986"><ele>381.0</ele><time>2026-04-09T11:53:43Z</time></trkpt><trkpt lat="45.91510322549961" lon="12.057130432700006"><ele>381.20000000000005</ele><time>2026-04-09T11:53:44Z</time></trkpt><trkpt lat="45.91508627651144" lon="12.057008901355177"><ele>381.40000000000003</ele><time>2026-04-09T11:53:45Z</time></trkpt><trkpt lat="45.91503563724203" lon="12.056897372323801"><ele>381.6</ele><time>2026-04-09T11:53:46Z</time></trkpt><trkpt lat="45.914952404967295" lon="12.056791693272213"><ele>381.8</ele><time>2026-04-09T11:53:47Z</time></trkpt><trkpt lat="45.91483734704875" lon="12.056686574328745"><ele>382.0</ele><time>2026-04-09T11:53:48Z</time></trkpt><trkpt lat="45.91470393125477" lon="12.056564546520068"><ele>375.40000000000003</ele><time>2026-04-09T11:53:49Z</time></trkpt><trkpt lat="45.91459117544839" lon="12.056444878206747"><ele>368.8</ele><time>2026-04-09T11:53:50Z</time></trkpt><trkpt lat="45.91449606731085" lon="12.05635099741383"><ele>362.2</ele><time>2026-04-09T11:53:51Z</time></trkpt><trkpt lat="45.91442136837253" lon="12.056281027907641"><ele>355.6</ele><time>2026-04-09T11:53:52Z</time></trkpt><trkpt lat="45.914358436651845" lon="12.0561954540661"><ele>349.0</ele><time>2026-04-09T11:53:53Z</time></trkpt><trkpt lat="45.91432617114197" lon="12.056079818343894"><ele>349.0</ele><time>2026-04-09T11:53:53.999Z</time></trkpt><trkpt lat="45.914333645104094" lon="12.055958782668702"><ele>349.0</ele><time>2026-04-09T11:53:54.999Z</time></trkpt><trkpt lat="45.91438294779137" lon="12.055863664029767"><ele>349.0</ele><time>2026-04-09T11:53:55.999Z</time></trkpt><trkpt lat="45.91446789821246" lon="12.055795333668195"><ele>349.0</ele><time>2026-04-09T11:53:56.999Z</time></trkpt><trkpt lat="45.91457416479707" lon="12.0557914909564"><ele>349.0</ele><time>2026-04-09T11:53:57.999Z</time></trkpt><trkpt lat="45.914685261457166" lon="12.055757820836352"><ele>347.66666666666663</ele><time>2026-04-09T11:53:58.999Z</time></trkpt><trkpt lat="45.9147768557042" lon="12.055744809423322"><ele>346.3333333333333</ele><time>2026-04-09T11:53:59.999Z</time></trkpt><trkpt lat="45.91485718839796" lon="12.05569290574174"><ele>345.0</ele><time>2026-04-09T11:54:00.999Z</time></trkpt><trkpt lat="45.91491668541487" lon="12.055616567022028"><ele>343.6666666666667</ele><time>2026-04-09T11:54:01.999Z</time></trkpt><trkpt lat="45.91494566407435" lon="12.055514568355756"><ele>342.33333333333337</ele><time>2026-04-09T11:54:02.999Z</time></trkpt><trkpt lat="45.91495091723108" lon="12.055388338553135"><ele>341.0</ele><time>2026-04-09T11:54:03.999Z</time></trkpt><trkpt lat="45.914926191307494" lon="12.055235246686788"><ele>341.0</ele><time>2026-04-09T11:54:04.999Z</time></trkpt><trkpt lat="45.914877780084055" lon="12.055044608377651"><ele>341.0</ele><time>2026-04-09T11:54:05.999Z</time></trkpt><trkpt lat="45.91483398091206" lon="12.054867029939684"><ele>341.0</ele><time>2026-04-09T11:54:06.999Z</time></trkpt><trkpt lat="45.91478772694159" lon="12.054672902764882"><ele>341.0</ele><time>2026-04-09T11:54:07.999Z</time></trkpt><trkpt lat="45.91474941824535" lon="12.054459129437952"><ele>340.4</ele><time>2026-04-09T11:54:08.999Z</time></trkpt><trkpt lat="45.914716201837145" lon="12.054272154430176"><ele>339.8</ele><time>2026-04-09T11:54:09.999Z</time></trkpt><trkpt lat="45.9146817591447" lon="12.054115486609218"><ele>339.2</ele><time>2026-04-09T11:54:10.999Z</time></trkpt><trkpt lat="45.91464515780898" lon="12.053982984513302"><ele>338.59999999999997</ele><time>2026-04-09T11:54:11.999Z</time></trkpt><trkpt lat="45.9145883375163" lon="12.053878289396303"><ele>338.0</ele><time>2026-04-09T11:54:12.999Z</time></trkpt><trkpt lat="45.91451102138847" lon="12.053771017011972"><ele>339.0</ele><time>2026-04-09T11:54:13.999Z</time></trkpt><trkpt lat="45.91443738485839" lon="12.053598985000853"><ele>340.0</ele><time>2026-04-09T11:54:14.999Z</time></trkpt><trkpt lat="45.914331753663575" lon="12.053405660048137"><ele>341.0</ele><time>2026-04-09T11:54:15.999Z</time></trkpt><trkpt lat="45.914230178459114" lon="12.053208622774763"><ele>341.0</ele><time>2026-04-09T11:54:16.999Z</time></trkpt><trkpt lat="45.914136307958806" lon="12.053045350376646"><ele>341.0</ele><time>2026-04-09T11:54:17.999Z</time></trkpt><trkpt lat="45.91405604457788" lon="12.052905701668529"><ele>341.0</ele><time>2026-04-09T11:54:18.999Z</time></trkpt><trkpt lat="45.91398007764402" lon="12.052791088799978"><ele>341.0</ele><time>2026-04-09T11:54:19.999Z</time></trkpt><trkpt lat="45.913886618454754" lon="12.052711717599013"><ele>341.0</ele><time>2026-04-09T11:54:20.999Z</time></trkpt><trkpt lat="45.91378563035108" lon="12.05267520912419"><ele>341.0</ele><time>2026-04-09T11:54:21.999Z</time></trkpt><trkpt lat="45.9136686280453" lon="12.052679179825969"><ele>341.0</ele><time>2026-04-09T11:54:22.999Z</time></trkpt><trkpt lat="45.913531954267825" lon="12.052721255632598"><ele>341.0</ele><time>2026-04-09T11:54:23.999Z</time></trkpt><trkpt lat="45.9133607958543" lon="12.052773099149505"><ele>337.33333333333337</ele><time>2026-04-09T11:54:24.999Z</time></trkpt><trkpt lat="45.91316450991324" lon="12.052813969943967"><ele>333.6666666666667</ele><time>2026-04-09T11:54:25.999Z</time></trkpt><trkpt lat="45.91297709810453" lon="12.052849828125867"><ele>330.0</ele><time>2026-04-09T11:54:26.999Z</time></trkpt><trkpt lat="45.91276761238124" lon="12.052896035172365"><ele>328.6666666666667</ele><time>2026-04-09T11:54:27.999Z</time></trkpt><trkpt lat="45.912572517709435" lon="12.052944748523174"><ele>327.33333333333337</ele><time>2026-04-09T11:54:28.999Z</time></trkpt><trkpt lat="45.91240317407784" lon="12.052980567245507"><ele>326.0</ele><time>2026-04-09T11:54:29.999Z</time></trkpt><trkpt lat="45.91225375853476" lon="12.053006423205836"><ele>326.0</ele><time>2026-04-09T11:54:30.999Z</time></trkpt><trkpt lat="45.91214002048237" lon="12.053030240230507"><ele>326.0</ele><time>2026-04-09T11:54:31.999Z</time></trkpt><trkpt lat="45.91203184237708" lon="12.053080148763897"><ele>326.0</ele><time>2026-04-09T11:54:32.999Z</time></trkpt><trkpt lat="45.91193436294302" lon="12.053177793755081"><ele>326.0</ele><time>2026-04-09T11:54:33.999Z</time></trkpt><trkpt lat="45.91183575865642" lon="12.053308760094092"><ele>323.5</ele><time>2026-04-09T11:54:34.999Z</time></trkpt><trkpt lat="45.91171624373767" lon="12.053421214235067"><ele>321.0</ele><time>2026-04-09T11:54:35.999Z</time></trkpt><trkpt lat="45.91158805897023" lon="12.053489599787378"><ele>318.5</ele><time>2026-04-09T11:54:36.999Z</time></trkpt><trkpt lat="45.91146109399575" lon="12.053525527892324"><ele>316.0</ele><time>2026-04-09T11:54:37.999Z</time></trkpt><trkpt lat="45.91132179733416" lon="12.053543084436884"><ele>316.0</ele><time>2026-04-09T11:54:38.999Z</time></trkpt><trkpt lat="45.91116534756196" lon="12.053539417967507"><ele>316.0</ele><time>2026-04-09T11:54:40Z</time></trkpt><trkpt lat="45.91100645485548" lon="12.053532323838741"><ele>316.0</ele><time>2026-04-09T11:54:41Z</time></trkpt><trkpt lat="45.91086335466271" lon="12.053536701670549"><ele>314.0</ele><time>2026-04-09T11:54:42Z</time></trkpt><trkpt lat="45.91073814048914" lon="12.053535971934602"><ele>312.0</ele><time>2026-04-09T11:54:43Z</time></trkpt><trkpt lat="45.910623374096154" lon="12.05350957656445"><ele>310.0</ele><time>2026-04-09T11:54:44Z</time></trkpt><trkpt lat="45.910523596451156" lon="12.053443784283099"><ele>308.0</ele><time>2026-04-09T11:54:45Z</time></trkpt><trkpt lat="45.910433981076075" lon="12.053352733211765"><ele>316.33333333333337</ele><time>2026-04-09T11:54:46Z</time></trkpt><trkpt lat="45.910337254176675" lon="12.053232619429865"><ele>324.6666666666667</ele><time>2026-04-09T11:54:47Z</time></trkpt><trkpt lat="45.910222482726674" lon="12.053081624013977"><ele>333.0</ele><time>2026-04-09T11:54:48Z</time></trkpt><trkpt lat="45.91009826133435" lon="12.052902877923309"><ele>332.3333333333333</ele><time>2026-04-09T11:54:49Z</time></trkpt><trkpt lat="45.909980956030445" lon="12.052731646146041"><ele>331.66666666666663</ele><time>2026-04-09T11:54:50Z</time></trkpt><trkpt lat="45.90988010988114" lon="12.052558767993307"><ele>331.0</ele><time>2026-04-09T11:54:51Z</time></trkpt><trkpt lat="45.90977949535514" lon="12.052360216327418"><ele>331.0</ele><time>2026-04-09T11:54:52Z</time></trkpt><trkpt lat="45.90969044061912" lon="12.052156105996234"><ele>331.0</ele><time>2026-04-09T11:54:53Z</time></trkpt><trkpt lat="45.90960494750466" lon="12.051976288540617"><ele>331.0</ele><time>2026-04-09T11:54:54Z</time></trkpt><trkpt lat="45.90950132623342" lon="12.051793114838434"><ele>326.3333333333333</ele><time>2026-04-09T11:54:55Z</time></trkpt><trkpt lat="45.90936426757359" lon="12.051585513553546"><ele>321.6666666666667</ele><time>2026-04-09T11:54:56Z</time></trkpt><trkpt lat="45.90920688413595" lon="12.051353411869734"><ele>317.0</ele><time>2026-04-09T11:54:57Z</time></trkpt><trkpt lat="45.90904968336048" lon="12.051087147327108"><ele>325.0</ele><time>2026-04-09T11:54:58Z</time></trkpt><trkpt lat="45.90888020786682" lon="12.05078011973213"><ele>333.0</ele><time>2026-04-09T11:54:59Z</time></trkpt><trkpt lat="45.90873786581319" lon="12.050525611447757"><ele>333.0</ele><time>2026-04-09T11:55:00Z</time></trkpt><trkpt lat="45.908604756093126" lon="12.0502915057287"><ele>333.0</ele><time>2026-04-09T11:55:01Z</time></trkpt><trkpt lat="45.90848249247662" lon="12.050088078649777"><ele>333.0</ele><time>2026-04-09T11:55:02Z</time></trkpt><trkpt lat="45.90834644950596" lon="12.049899710239824"><ele>329.6666666666667</ele><time>2026-04-09T11:55:03Z</time></trkpt><trkpt lat="45.90818085121557" lon="12.049709509848418"><ele>326.33333333333337</ele><time>2026-04-09T11:55:04Z</time></trkpt><trkpt lat="45.90800666271841" lon="12.049536724124703"><ele>323.0</ele><time>2026-04-09T11:55:05Z</time></trkpt><trkpt lat="45.90785132248237" lon="12.049393145659582"><ele>323.0</ele><time>2026-04-09T11:55:06Z</time></trkpt><trkpt lat="45.90770868832515" lon="12.049282981393828"><ele>323.0</ele><time>2026-04-09T11:55:07Z</time></trkpt><trkpt lat="45.907554867007775" lon="12.049196480090048"><ele>323.0</ele><time>2026-04-09T11:55:08Z</time></trkpt><trkpt lat="45.90737061479782" lon="12.049130312778754"><ele>324.33333333333337</ele><time>2026-04-09T11:55:09Z</time></trkpt><trkpt lat="45.90716535041976" lon="12.049085676745184"><ele>325.6666666666667</ele><time>2026-04-09T11:55:10Z</time></trkpt><trkpt lat="45.90700504552602" lon="12.049041425076954"><ele>327.0</ele><time>2026-04-09T11:55:11Z</time></trkpt><trkpt lat="45.906875093546866" lon="12.049006541556341"><ele>327.0</ele><time>2026-04-09T11:55:12Z</time></trkpt><trkpt lat="45.90675675299578" lon="12.048974440926"><ele>327.0</ele><time>2026-04-09T11:55:13Z</time></trkpt><trkpt lat="45.9066457637104" lon="12.048929932731344"><ele>327.0</ele><time>2026-04-09T11:55:14Z</time></trkpt><trkpt lat="45.906534630642625" lon="12.048869114664123"><ele>327.0</ele><time>2026-04-09T11:55:15Z</time></trkpt><trkpt lat="45.90643567895064" lon="12.048782889809337"><ele>324.0</ele><time>2026-04-09T11:55:16Z</time></trkpt><trkpt lat="45.906351897210655" lon="12.048666931784368"><ele>321.0</ele><time>2026-04-09T11:55:17Z</time></trkpt><trkpt lat="45.906275638622766" lon="12.04851437773143"><ele>318.0</ele><time>2026-04-09T11:55:18Z</time></trkpt><trkpt lat="45.906218569190024" lon="12.048327888591109"><ele>315.0</ele><time>2026-04-09T11:55:19Z</time></trkpt><trkpt lat="45.90618650683835" lon="12.048106461680028"><ele>315.0</ele><time>2026-04-09T11:55:20Z</time></trkpt><trkpt lat="45.90616602007769" lon="12.047851037960513"><ele>315.0</ele><time>2026-04-09T11:55:21Z</time></trkpt><trkpt lat="45.90614924042006" lon="12.047607512472098"><ele>315.0</ele><time>2026-04-09T11:55:22Z</time></trkpt><trkpt lat="45.90612669632032" lon="12.047388474027123"><ele>316.3333333333333</ele><time>2026-04-09T11:55:23Z</time></trkpt><trkpt lat="45.90609104276021" lon="12.047179494275687"><ele>317.66666666666663</ele><time>2026-04-09T11:55:24Z</time></trkpt><trkpt lat="45.906033789051534" lon="12.046967849219449"><ele>319.0</ele><time>2026-04-09T11:55:25Z</time></trkpt><trkpt lat="45.905958905053446" lon="12.046757370022481"><ele>312.3333333333333</ele><time>2026-04-09T11:55:26Z</time></trkpt><trkpt lat="45.9058867081472" lon="12.046567165783836"><ele>305.6666666666667</ele><time>2026-04-09T11:55:27Z</time></trkpt><trkpt lat="45.90583353619588" lon="12.046356155106606"><ele>299.0</ele><time>2026-04-09T11:55:28Z</time></trkpt><trkpt lat="45.90580392652385" lon="12.046140895228522"><ele>299.0</ele><time>2026-04-09T11:55:29Z</time></trkpt><trkpt lat="45.905788621589906" lon="12.04592519673704"><ele>299.0</ele><time>2026-04-09T11:55:30Z</time></trkpt><trkpt lat="45.90576807621903" lon="12.045698252071213"><ele>299.0</ele><time>2026-04-09T11:55:31Z</time></trkpt><trkpt lat="45.90571020339524" lon="12.04546647011039"><ele>301.33333333333337</ele><time>2026-04-09T11:55:32Z</time></trkpt><trkpt lat="45.90562633665047" lon="12.045258718200639"><ele>303.6666666666667</ele><time>2026-04-09T11:55:33Z</time></trkpt><trkpt lat="45.90555001062489" lon="12.045081246905733"><ele>306.0</ele><time>2026-04-09T11:55:34Z</time></trkpt><trkpt lat="45.90548128027228" lon="12.04490895599451"><ele>308.25</ele><time>2026-04-09T11:55:35Z</time></trkpt><trkpt lat="45.905414074573024" lon="12.044738336971298"><ele>310.5</ele><time>2026-04-09T11:55:36Z</time></trkpt><trkpt lat="45.90534385320507" lon="12.044547455822416"><ele>312.75</ele><time>2026-04-09T11:55:37Z</time></trkpt><trkpt lat="45.905290474722285" lon="12.044342640915888"><ele>315.0</ele><time>2026-04-09T11:55:38Z</time></trkpt><trkpt lat="45.90527106400739" lon="12.044111873176291"><ele>317.3333333333333</ele><time>2026-04-09T11:55:39Z</time></trkpt><trkpt lat="45.90522666034416" lon="12.043868841490607"><ele>319.66666666666663</ele><time>2026-04-09T11:55:40Z</time></trkpt><trkpt lat="45.90518043765995" lon="12.04364741604093"><ele>322.0</ele><time>2026-04-09T11:55:41Z</time></trkpt><trkpt lat="45.90510011952907" lon="12.043455916347831"><ele>317.0</ele><time>2026-04-09T11:55:42Z</time></trkpt><trkpt lat="45.905011023859075" lon="12.043291180081349"><ele>312.0</ele><time>2026-04-09T11:55:43Z</time></trkpt><trkpt lat="45.90493209281449" lon="12.043146116162651"><ele>307.0</ele><time>2026-04-09T11:55:44Z</time></trkpt><trkpt lat="45.90487790533515" lon="12.042976486370963"><ele>302.0</ele><time>2026-04-09T11:55:45Z</time></trkpt><trkpt lat="45.90484387444617" lon="12.042775493921258"><ele>302.0</ele><time>2026-04-09T11:55:46Z</time></trkpt><trkpt lat="45.90484756195724" lon="12.04259063036055"><ele>302.0</ele><time>2026-04-09T11:55:47Z</time></trkpt><trkpt lat="45.90485538359518" lon="12.042440747948893"><ele>302.0</ele><time>2026-04-09T11:55:48Z</time></trkpt><trkpt lat="45.90487993062445" lon="12.04229070565889"><ele>302.0</ele><time>2026-04-09T11:55:49Z</time></trkpt><trkpt lat="45.904934251983065" lon="12.042154473741656"><ele>300.5</ele><time>2026-04-09T11:55:50Z</time></trkpt><trkpt lat="45.9050120527934" lon="12.042032029944433"><ele>299.0</ele><time>2026-04-09T11:55:51Z</time></trkpt><trkpt lat="45.90511099229149" lon="12.04189899891013"><ele>297.5</ele><time>2026-04-09T11:55:52Z</time></trkpt><trkpt lat="45.90522291377574" lon="12.041750051090615"><ele>296.0</ele><time>2026-04-09T11:55:53Z</time></trkpt><trkpt lat="45.90530664522706" lon="12.041595302551697"><ele>303.75</ele><time>2026-04-09T11:55:54Z</time></trkpt><trkpt lat="45.90538034283631" lon="12.041459493958536"><ele>311.5</ele><time>2026-04-09T11:55:55Z</time></trkpt><trkpt lat="45.9054327273277" lon="12.041290174507047"><ele>319.25</ele><time>2026-04-09T11:55:56Z</time></trkpt><trkpt lat="45.90545985257203" lon="12.041104403437657"><ele>327.0</ele><time>2026-04-09T11:55:57Z</time></trkpt><trkpt lat="45.90545689649217" lon="12.040910951182253"><ele>329.0</ele><time>2026-04-09T11:55:57.999Z</time></trkpt><trkpt lat="45.90542196430414" lon="12.04070950561975"><ele>331.0</ele><time>2026-04-09T11:55:58.999Z</time></trkpt><trkpt lat="45.90535368420495" lon="12.040501710570709"><ele>333.0</ele><time>2026-04-09T11:55:59.999Z</time></trkpt><trkpt lat="45.90528052048933" lon="12.040321084920501"><ele>333.0</ele><time>2026-04-09T11:56:00.999Z</time></trkpt><trkpt lat="45.90522716271461" lon="12.04017411259244"><ele>333.0</ele><time>2026-04-09T11:56:01.999Z</time></trkpt><trkpt lat="45.90517971834499" lon="12.040028963973231"><ele>333.0</ele><time>2026-04-09T11:56:02.999Z</time></trkpt><trkpt lat="45.90512487948328" lon="12.03986725182715"><ele>333.0</ele><time>2026-04-09T11:56:03.999Z</time></trkpt><trkpt lat="45.905073152470386" lon="12.039680203531965"><ele>327.25</ele><time>2026-04-09T11:56:04.999Z</time></trkpt><trkpt lat="45.905042469304824" lon="12.039490833774073"><ele>321.5</ele><time>2026-04-09T11:56:05.999Z</time></trkpt><trkpt lat="45.90503787644897" lon="12.03930207520918"><ele>315.75</ele><time>2026-04-09T11:56:06.999Z</time></trkpt><trkpt lat="45.905053574051045" lon="12.03910927157672"><ele>310.0</ele><time>2026-04-09T11:56:07.999Z</time></trkpt><trkpt lat="45.90505763294156" lon="12.038923604681022"><ele>310.0</ele><time>2026-04-09T11:56:08.999Z</time></trkpt><trkpt lat="45.90507530793744" lon="12.038750007893503"><ele>310.0</ele><time>2026-04-09T11:56:09.999Z</time></trkpt><trkpt lat="45.90509475419767" lon="12.038587949103485"><ele>310.0</ele><time>2026-04-09T11:56:10.999Z</time></trkpt><trkpt lat="45.90512228838421" lon="12.038444189889061"><ele>310.0</ele><time>2026-04-09T11:56:11.999Z</time></trkpt><trkpt lat="45.90515155265319" lon="12.038280959780561"><ele>315.0</ele><time>2026-04-09T11:56:12.999Z</time></trkpt><trkpt lat="45.90522654303657" lon="12.038098331654929"><ele>320.0</ele><time>2026-04-09T11:56:13.999Z</time></trkpt><trkpt lat="45.90531721002054" lon="12.037868188030602"><ele>325.0</ele><time>2026-04-09T11:56:14.999Z</time></trkpt><trkpt lat="45.90538873147774" lon="12.037640030140837"><ele>324.0</ele><time>2026-04-09T11:56:15.999Z</time></trkpt><trkpt lat="45.90546215208327" lon="12.037464546090535"><ele>323.0</ele><time>2026-04-09T11:56:16.999Z</time></trkpt><trkpt lat="45.90553139581874" lon="12.03729467715881"><ele>322.0</ele><time>2026-04-09T11:56:17.999Z</time></trkpt><trkpt lat="45.90560673737839" lon="12.037119981078714"><ele>321.0</ele><time>2026-04-09T11:56:18.999Z</time></trkpt><trkpt lat="45.90568193547388" lon="12.036942650891364"><ele>321.0</ele><time>2026-04-09T11:56:19.999Z</time></trkpt><trkpt lat="45.90575261590412" lon="12.036763982665766"><ele>321.0</ele><time>2026-04-09T11:56:20.999Z</time></trkpt><trkpt lat="45.90583012497513" lon="12.036584535925092"><ele>321.0</ele><time>2026-04-09T11:56:21.999Z</time></trkpt><trkpt lat="45.90587770206768" lon="12.03635200618922"><ele>320.3333333333333</ele><time>2026-04-09T11:56:22.999Z</time></trkpt><trkpt lat="45.9059041646257" lon="12.036135937233935"><ele>319.66666666666663</ele><time>2026-04-09T11:56:23.999Z</time></trkpt><trkpt lat="45.90589512415262" lon="12.035927024298154"><ele>319.0</ele><time>2026-04-09T11:56:24.999Z</time></trkpt><trkpt lat="45.90589152782102" lon="12.035692623605271"><ele>320.3333333333333</ele><time>2026-04-09T11:56:25.999Z</time></trkpt><trkpt lat="45.905865845787474" lon="12.03542219457815"><ele>321.6666666666667</ele><time>2026-04-09T11:56:26.999Z</time></trkpt><trkpt lat="45.90584235709868" lon="12.035187198928742"><ele>323.0</ele><time>2026-04-09T11:56:27.999Z</time></trkpt><trkpt lat="45.90582019060558" lon="12.034984436161682"><ele>327.25</ele><time>2026-04-09T11:56:28.999Z</time></trkpt><trkpt lat="45.90578828472724" lon="12.034794699896247"><ele>331.5</ele><time>2026-04-09T11:56:29.999Z</time></trkpt><trkpt lat="45.90573624155718" lon="12.034620851558993"><ele>335.75</ele><time>2026-04-09T11:56:30.999Z</time></trkpt><trkpt lat="45.90566114045386" lon="12.034471547535151"><ele>340.0</ele><time>2026-04-09T11:56:31.999Z</time></trkpt><trkpt lat="45.90556834774495" lon="12.034349095882778"><ele>340.0</ele><time>2026-04-09T11:56:32.999Z</time></trkpt><trkpt lat="45.90546460903794" lon="12.034248179781919"><ele>340.0</ele><time>2026-04-09T11:56:33.999Z</time></trkpt><trkpt lat="45.90535546414291" lon="12.034162797807706"><ele>340.0</ele><time>2026-04-09T11:56:34.999Z</time></trkpt><trkpt lat="45.905247797986775" lon="12.034070112128148"><ele>340.0</ele><time>2026-04-09T11:56:35.999Z</time></trkpt><trkpt lat="45.90515338428465" lon="12.033946642544953"><ele>340.0</ele><time>2026-04-09T11:56:36.999Z</time></trkpt><trkpt lat="45.90506638939588" lon="12.033810548988141"><ele>340.0</ele><time>2026-04-09T11:56:37.999Z</time></trkpt><trkpt lat="45.904978855809794" lon="12.033651706773583"><ele>340.0</ele><time>2026-04-09T11:56:38.999Z</time></trkpt><trkpt lat="45.904881273188124" lon="12.033468293963988"><ele>340.0</ele><time>2026-04-09T11:56:39.999Z</time></trkpt><trkpt lat="45.904787558776576" lon="12.033274898418169"><ele>345.0</ele><time>2026-04-09T11:56:40.999Z</time></trkpt><trkpt lat="45.904709679039364" lon="12.033082561212733"><ele>350.0</ele><time>2026-04-09T11:56:41.999Z</time></trkpt><trkpt lat="45.90464409726077" lon="12.032884627456456"><ele>355.0</ele><time>2026-04-09T11:56:42.999Z</time></trkpt><trkpt lat="45.90459343042457" lon="12.032703598784723"><ele>360.0</ele><time>2026-04-09T11:56:43.999Z</time></trkpt><trkpt lat="45.904544045103606" lon="12.032531673357767"><ele>365.0</ele><time>2026-04-09T11:56:44.999Z</time></trkpt><trkpt lat="45.90449697572841" lon="12.03235841652412"><ele>370.0</ele><time>2026-04-09T11:56:46Z</time></trkpt><trkpt lat="45.90444804747224" lon="12.032177548242394"><ele>375.0</ele><time>2026-04-09T11:56:47Z</time></trkpt><trkpt lat="45.9044172177475" lon="12.031977965343383"><ele>380.0</ele><time>2026-04-09T11:56:48Z</time></trkpt><trkpt lat="45.90437023681891" lon="12.031783239211414"><ele>384.75</ele><time>2026-04-09T11:56:49Z</time></trkpt><trkpt lat="45.90432125002976" lon="12.031584710420933"><ele>389.5</ele><time>2026-04-09T11:56:50Z</time></trkpt><trkpt lat="45.90425754747299" lon="12.031401993304309"><ele>394.25</ele><time>2026-04-09T11:56:51Z</time></trkpt><trkpt lat="45.90419991146379" lon="12.031239206465099"><ele>399.0</ele><time>2026-04-09T11:56:52Z</time></trkpt><trkpt lat="45.90410728401958" lon="12.031089945192393"><ele>393.0</ele><time>2026-04-09T11:56:53Z</time></trkpt><trkpt lat="45.903987441460565" lon="12.030969272013332"><ele>387.0</ele><time>2026-04-09T11:56:54Z</time></trkpt><trkpt lat="45.90386972907425" lon="12.030874535819777"><ele>381.0</ele><time>2026-04-09T11:56:55Z</time></trkpt><trkpt lat="45.90376190534784" lon="12.03082053023824"><ele>375.0</ele><time>2026-04-09T11:56:56Z</time></trkpt><trkpt lat="45.90365289487412" lon="12.030771540406638"><ele>375.0</ele><time>2026-04-09T11:56:57Z</time></trkpt><trkpt lat="45.90353853560692" lon="12.030710151965922"><ele>375.0</ele><time>2026-04-09T11:56:58Z</time></trkpt><trkpt lat="45.903424814607604" lon="12.030632856677004"><ele>375.0</ele><time>2026-04-09T11:56:59Z</time></trkpt><trkpt lat="45.90332240505012" lon="12.030528429240814"><ele>375.0</ele><time>2026-04-09T11:57:00Z</time></trkpt><trkpt lat="45.90322967782167" lon="12.030401803390895"><ele>369.0</ele><time>2026-04-09T11:57:01Z</time></trkpt><trkpt lat="45.903153301044384" lon="12.030258358514828"><ele>363.0</ele><time>2026-04-09T11:57:02Z</time></trkpt><trkpt lat="45.90310913759736" lon="12.030094752609953"><ele>357.0</ele><time>2026-04-09T11:57:03Z</time></trkpt><trkpt lat="45.90307032832087" lon="12.029920891996802"><ele>351.0</ele><time>2026-04-09T11:57:04Z</time></trkpt><trkpt lat="45.90305528438116" lon="12.029750666135824"><ele>350.0</ele><time>2026-04-09T11:57:05Z</time></trkpt><trkpt lat="45.90306978529585" lon="12.029594482301611"><ele>349.0</ele><time>2026-04-09T11:57:06Z</time></trkpt><trkpt lat="45.90309995328048" lon="12.029436801798587"><ele>348.0</ele><time>2026-04-09T11:57:07Z</time></trkpt><trkpt lat="45.90316021661243" lon="12.029301261265553"><ele>347.0</ele><time>2026-04-09T11:57:08Z</time></trkpt><trkpt lat="45.9032426149044" lon="12.029176558710658"><ele>347.0</ele><time>2026-04-09T11:57:09Z</time></trkpt><trkpt lat="45.90334920727606" lon="12.029035203367362"><ele>347.0</ele><time>2026-04-09T11:57:10Z</time></trkpt><trkpt lat="45.903432005061745" lon="12.028895378385947"><ele>347.0</ele><time>2026-04-09T11:57:11Z</time></trkpt><trkpt lat="45.90351428509466" lon="12.028777014435658"><ele>347.0</ele><time>2026-04-09T11:57:12Z</time></trkpt><trkpt lat="45.90353896086531" lon="12.028614507943562"><ele>348.5</ele><time>2026-04-09T11:57:13Z</time></trkpt><trkpt lat="45.903541424694936" lon="12.028461421991867"><ele>350.0</ele><time>2026-04-09T11:57:14Z</time></trkpt><trkpt lat="45.903500610456554" lon="12.028313090556493"><ele>351.5</ele><time>2026-04-09T11:57:15Z</time></trkpt><trkpt lat="45.90343616307025" lon="12.02816791287504"><ele>353.0</ele><time>2026-04-09T11:57:16Z</time></trkpt><trkpt lat="45.90334439492086" lon="12.028013707336239"><ele>353.0</ele><time>2026-04-09T11:57:17Z</time></trkpt><trkpt lat="45.903265319720596" lon="12.027863702631505"><ele>353.0</ele><time>2026-04-09T11:57:18Z</time></trkpt><trkpt lat="45.90323535999368" lon="12.02772479068413"><ele>353.0</ele><time>2026-04-09T11:57:19Z</time></trkpt><trkpt lat="45.90322089016265" lon="12.027595125389972"><ele>353.0</ele><time>2026-04-09T11:57:20Z</time></trkpt><trkpt lat="45.903230146234314" lon="12.027452242522484"><ele>353.0</ele><time>2026-04-09T11:57:21Z</time></trkpt><trkpt lat="45.903251932381174" lon="12.027294879047453"><ele>354.0</ele><time>2026-04-09T11:57:22Z</time></trkpt><trkpt lat="45.90328513066281" lon="12.027136786155491"><ele>355.0</ele><time>2026-04-09T11:57:23Z</time></trkpt><trkpt lat="45.903334417153" lon="12.027000853727307"><ele>356.0</ele><time>2026-04-09T11:57:24Z</time></trkpt><trkpt lat="45.903396290098755" lon="12.026860937561015"><ele>357.0</ele><time>2026-04-09T11:57:25Z</time></trkpt><trkpt lat="45.90347385339749" lon="12.026731124011665"><ele>353.5</ele><time>2026-04-09T11:57:26Z</time></trkpt><trkpt lat="45.90356878858902" lon="12.02662014619015"><ele>350.0</ele><time>2026-04-09T11:57:27Z</time></trkpt><trkpt lat="45.90368276319964" lon="12.026506770495681"><ele>346.5</ele><time>2026-04-09T11:57:28Z</time></trkpt><trkpt lat="45.9038143600425" lon="12.02642105694169"><ele>343.0</ele><time>2026-04-09T11:57:29Z</time></trkpt><trkpt lat="45.903970205628575" lon="12.026358829383165"><ele>343.0</ele><time>2026-04-09T11:57:30Z</time></trkpt><trkpt lat="45.90413636636074" lon="12.026298455840777"><ele>343.0</ele><time>2026-04-09T11:57:31Z</time></trkpt><trkpt lat="45.90427327472001" lon="12.02623607644971"><ele>343.0</ele><time>2026-04-09T11:57:32Z</time></trkpt><trkpt lat="45.904376623829336" lon="12.026137180126907"><ele>343.0</ele><time>2026-04-09T11:57:33Z</time></trkpt><trkpt lat="45.90446284744985" lon="12.026032011026896"><ele>346.25</ele><time>2026-04-09T11:57:34Z</time></trkpt><trkpt lat="45.90453040724983" lon="12.025908191503852"><ele>349.5</ele><time>2026-04-09T11:57:35Z</time></trkpt><trkpt lat="45.904577248797914" lon="12.025767839395328"><ele>352.75</ele><time>2026-04-09T11:57:36Z</time></trkpt><trkpt lat="45.90460379171671" lon="12.025602518505195"><ele>356.0</ele><time>2026-04-09T11:57:37Z</time></trkpt><trkpt lat="45.9045872234375" lon="12.025428417132407"><ele>356.0</ele><time>2026-04-09T11:57:38Z</time></trkpt><trkpt lat="45.904574248666734" lon="12.02528255933697"><ele>356.0</ele><time>2026-04-09T11:57:39Z</time></trkpt><trkpt lat="45.90452422523069" lon="12.025149980171083"><ele>356.0</ele><time>2026-04-09T11:57:40Z</time></trkpt><trkpt lat="45.90444048211132" lon="12.025040835401263"><ele>356.0</ele><time>2026-04-09T11:57:41Z</time></trkpt><trkpt lat="45.90433321071766" lon="12.024956927284702"><ele>356.0</ele><time>2026-04-09T11:57:42Z</time></trkpt><trkpt lat="45.90419148207551" lon="12.02487636497965"><ele>355.25</ele><time>2026-04-09T11:57:43Z</time></trkpt><trkpt lat="45.90405000713962" lon="12.024786014979497"><ele>354.5</ele><time>2026-04-09T11:57:44Z</time></trkpt><trkpt lat="45.90393612735075" lon="12.024702603635786"><ele>353.75</ele><time>2026-04-09T11:57:45Z</time></trkpt><trkpt lat="45.9038350435874" lon="12.024604416071446"><ele>353.0</ele><time>2026-04-09T11:57:46Z</time></trkpt><trkpt lat="45.90375118614228" lon="12.024495571805028"><ele>353.0</ele><time>2026-04-09T11:57:47Z</time></trkpt><trkpt lat="45.90370017236861" lon="12.024338999151345"><ele>353.0</ele><time>2026-04-09T11:57:48Z</time></trkpt><trkpt lat="45.90363882885958" lon="12.024150584749762"><ele>353.0</ele><time>2026-04-09T11:57:49Z</time></trkpt><trkpt lat="45.90357209148852" lon="12.023929055282068"><ele>353.0</ele><time>2026-04-09T11:57:50Z</time></trkpt><trkpt lat="45.90350905656578" lon="12.023717578495145"><ele>352.0</ele><time>2026-04-09T11:57:51Z</time></trkpt><trkpt lat="45.903455594363514" lon="12.023538217236746"><ele>351.0</ele><time>2026-04-09T11:57:52Z</time></trkpt><trkpt lat="45.90339164835425" lon="12.023379202129458"><ele>350.0</ele><time>2026-04-09T11:57:53Z</time></trkpt><trkpt lat="45.903341227165186" lon="12.02321398818212"><ele>349.0</ele><time>2026-04-09T11:57:54Z</time></trkpt><trkpt lat="45.90328957964556" lon="12.02303943895782"><ele>349.0</ele><time>2026-04-09T11:57:55Z</time></trkpt><trkpt lat="45.903234399541944" lon="12.022872145412736"><ele>349.0</ele><time>2026-04-09T11:57:56Z</time></trkpt><trkpt lat="45.90318301877321" lon="12.02271572479985"><ele>349.0</ele><time>2026-04-09T11:57:57Z</time></trkpt><trkpt lat="45.903118604425345" lon="12.02257075311613"><ele>349.0</ele><time>2026-04-09T11:57:58Z</time></trkpt><trkpt lat="45.90307338140582" lon="12.022393065635699"><ele>350.66666666666663</ele><time>2026-04-09T11:57:59Z</time></trkpt><trkpt lat="45.902969106873826" lon="12.022265190737809"><ele>352.3333333333333</ele><time>2026-04-09T11:58:00Z</time></trkpt><trkpt lat="45.90279237934817" lon="12.022254217916666"><ele>354.0</ele><time>2026-04-09T11:58:00.999Z</time></trkpt><trkpt lat="45.90263477325763" lon="12.02215458597026"><ele>350.75</ele><time>2026-04-09T11:58:01.999Z</time></trkpt><trkpt lat="45.9024908716996" lon="12.022056484633456"><ele>347.5</ele><time>2026-04-09T11:58:02.999Z</time></trkpt><trkpt lat="45.90236225644925" lon="12.021966261142714"><ele>344.25</ele><time>2026-04-09T11:58:03.999Z</time></trkpt><trkpt lat="45.9022399240111" lon="12.02188038434622"><ele>341.0</ele><time>2026-04-09T11:58:04.999Z</time></trkpt><trkpt lat="45.90212458836464" lon="12.021795528895783"><ele>341.0</ele><time>2026-04-09T11:58:05.999Z</time></trkpt><trkpt lat="45.90201361103213" lon="12.02171250334226"><ele>341.0</ele><time>2026-04-09T11:58:06.999Z</time></trkpt><trkpt lat="45.90190170977097" lon="12.02163824088646"><ele>341.0</ele><time>2026-04-09T11:58:07.999Z</time></trkpt><trkpt lat="45.90179264022096" lon="12.021559125000218"><ele>341.0</ele><time>2026-04-09T11:58:08.999Z</time></trkpt><trkpt lat="45.901696920890316" lon="12.021467615132677"><ele>339.75</ele><time>2026-04-09T11:58:09.999Z</time></trkpt><trkpt lat="45.90163039802011" lon="12.021334094865884"><ele>338.5</ele><time>2026-04-09T11:58:10.999Z</time></trkpt><trkpt lat="45.90155426638613" lon="12.021182584119487"><ele>337.25</ele><time>2026-04-09T11:58:11.999Z</time></trkpt><trkpt lat="45.90145860675341" lon="12.021015724245066"><ele>336.0</ele><time>2026-04-09T11:58:12.999Z</time></trkpt><trkpt lat="45.901373961315386" lon="12.020843195462634"><ele>336.5</ele><time>2026-04-09T11:58:13.999Z</time></trkpt><trkpt lat="45.90130028632219" lon="12.02069285024048"><ele>337.0</ele><time>2026-04-09T11:58:14.999Z</time></trkpt><trkpt lat="45.9012300688218" lon="12.020540406279789"><ele>337.5</ele><time>2026-04-09T11:58:15.999Z</time></trkpt><trkpt lat="45.90115062146532" lon="12.020394926430258"><ele>338.0</ele><time>2026-04-09T11:58:16.999Z</time></trkpt><trkpt lat="45.90106985131825" lon="12.02023853332985"><ele>338.0</ele><time>2026-04-09T11:58:17.999Z</time></trkpt><trkpt lat="45.90099575510441" lon="12.020080017080357"><ele>338.0</ele><time>2026-04-09T11:58:18.999Z</time></trkpt><trkpt lat="45.90092947992742" lon="12.019935321769239"><ele>338.0</ele><time>2026-04-09T11:58:19.999Z</time></trkpt><trkpt lat="45.90086570184362" lon="12.019798940738081"><ele>338.0</ele><time>2026-04-09T11:58:20.999Z</time></trkpt><trkpt lat="45.90080806333189" lon="12.019666973317744"><ele>335.25</ele><time>2026-04-09T11:58:21.999Z</time></trkpt><trkpt lat="45.900776744000716" lon="12.019522213894549"><ele>332.5</ele><time>2026-04-09T11:58:22.999Z</time></trkpt><trkpt lat="45.90072743094394" lon="12.019371907667223"><ele>329.75</ele><time>2026-04-09T11:58:23.999Z</time></trkpt><trkpt lat="45.900732787762685" lon="12.019196749751245"><ele>327.0</ele><time>2026-04-09T11:58:24.999Z</time></trkpt><trkpt lat="45.900707475002655" lon="12.019045784855777"><ele>326.0</ele><time>2026-04-09T11:58:25.999Z</time></trkpt><trkpt lat="45.90070500057069" lon="12.018897550845733"><ele>325.0</ele><time>2026-04-09T11:58:26.999Z</time></trkpt><trkpt lat="45.90070974703854" lon="12.018756081327902"><ele>324.0</ele><time>2026-04-09T11:58:27.999Z</time></trkpt><trkpt lat="45.90069995177136" lon="12.01859549240878"><ele>323.0</ele><time>2026-04-09T11:58:28.999Z</time></trkpt><trkpt lat="45.900687015886795" lon="12.01841265211124"><ele>322.0</ele><time>2026-04-09T11:58:29.999Z</time></trkpt><trkpt lat="45.900661579320804" lon="12.018246444420662"><ele>321.66666666666663</ele><time>2026-04-09T11:58:30.999Z</time></trkpt><trkpt lat="45.90065216197986" lon="12.018100464303512"><ele>321.3333333333333</ele><time>2026-04-09T11:58:31.999Z</time></trkpt><trkpt lat="45.90064315718515" lon="12.017983400853101"><ele>321.0</ele><time>2026-04-09T11:58:32.999Z</time></trkpt><trkpt lat="45.90063559559985" lon="12.017884344521443"><ele>320.6666666666667</ele><time>2026-04-09T11:58:34.999Z</time></trkpt><trkpt lat="45.90063105735839" lon="12.017776664917887"><ele>320.33333333333337</ele><time>2026-04-09T11:58:36.999Z</time></trkpt><trkpt lat="45.90062040827803" lon="12.017616824089666"><ele>320.0</ele><time>2026-04-09T11:58:37.999Z</time></trkpt><trkpt lat="45.90062607517205" lon="12.017447773931952"><ele>318.6666666666667</ele><time>2026-04-09T11:58:38.999Z</time></trkpt><trkpt lat="45.90065302372767" lon="12.017268058997736"><ele>317.3333333333333</ele><time>2026-04-09T11:58:39.999Z</time></trkpt><trkpt lat="45.900681575239936" lon="12.017030476929223"><ele>316.0</ele><time>2026-04-09T11:58:40.999Z</time></trkpt><trkpt lat="45.90071295044836" lon="12.016772746962863"><ele>313.5</ele><time>2026-04-09T11:58:41.999Z</time></trkpt><trkpt lat="45.900753445928856" lon="12.016451260204553"><ele>311.0</ele><time>2026-04-09T11:58:42.999Z</time></trkpt><trkpt lat="45.900792807851715" lon="12.01613519340425"><ele>311.0</ele><time>2026-04-09T11:58:43.999Z</time></trkpt><trkpt lat="45.90082729648884" lon="12.015856762612854"><ele>311.0</ele><time>2026-04-09T11:58:44.999Z</time></trkpt><trkpt lat="45.90086031753901" lon="12.015584531794667"><ele>311.0</ele><time>2026-04-09T11:58:45.999Z</time></trkpt><trkpt lat="45.90089217498359" lon="12.015321893879682"><ele>311.33333333333337</ele><time>2026-04-09T11:58:46.999Z</time></trkpt><trkpt lat="45.90091353789162" lon="12.015053762192816"><ele>311.6666666666667</ele><time>2026-04-09T11:58:47.999Z</time></trkpt><trkpt lat="45.90097389765525" lon="12.014780487032574"><ele>312.0</ele><time>2026-04-09T11:58:48.999Z</time></trkpt><trkpt lat="45.901036583129574" lon="12.014511208991536"><ele>312.0</ele><time>2026-04-09T11:58:49.999Z</time></trkpt><trkpt lat="45.901100877283255" lon="12.01426006266684"><ele>312.0</ele><time>2026-04-09T11:58:50.999Z</time></trkpt><trkpt lat="45.90116781193468" lon="12.01400058126779"><ele>312.0</ele><time>2026-04-09T11:58:52Z</time></trkpt><trkpt lat="45.901240595012396" lon="12.013716340800919"><ele>310.3333333333333</ele><time>2026-04-09T11:58:53Z</time></trkpt><trkpt lat="45.90131195466635" lon="12.013437658281621"><ele>308.66666666666663</ele><time>2026-04-09T11:58:54Z</time></trkpt><trkpt lat="45.901377132488534" lon="12.013185340319543"><ele>307.0</ele><time>2026-04-09T11:58:55Z</time></trkpt><trkpt lat="45.901438998948095" lon="12.01294521338431"><ele>306.3333333333333</ele><time>2026-04-09T11:58:56Z</time></trkpt><trkpt lat="45.90150492173187" lon="12.012693309861335"><ele>305.6666666666667</ele><time>2026-04-09T11:58:57Z</time></trkpt><trkpt lat="45.90158032952193" lon="12.012412019107822"><ele>305.0</ele><time>2026-04-09T11:58:58Z</time></trkpt><trkpt lat="45.901651505769024" lon="12.012142566154036"><ele>304.0</ele><time>2026-04-09T11:58:59Z</time></trkpt><trkpt lat="45.90171637327657" lon="12.011896996211131"><ele>303.0</ele><time>2026-04-09T11:59:00Z</time></trkpt><trkpt lat="45.901764386635826" lon="12.011652878135106"><ele>302.0</ele><time>2026-04-09T11:59:01Z</time></trkpt><trkpt lat="45.901836535845334" lon="12.011427907771493"><ele>302.0</ele><time>2026-04-09T11:59:02Z</time></trkpt><trkpt lat="45.90190353392684" lon="12.01117668011054"><ele>302.0</ele><time>2026-04-09T11:59:03Z</time></trkpt><trkpt lat="45.90197400262042" lon="12.010895333319617"><ele>302.0</ele><time>2026-04-09T11:59:04Z</time></trkpt><trkpt lat="45.90205137612106" lon="12.010592817755736"><ele>300.6666666666667</ele><time>2026-04-09T11:59:05Z</time></trkpt><trkpt lat="45.90212032085837" lon="12.010325732892024"><ele>299.3333333333333</ele><time>2026-04-09T11:59:06Z</time></trkpt><trkpt lat="45.90218631249434" lon="12.010072491656775"><ele>298.0</ele><time>2026-04-09T11:59:07Z</time></trkpt><trkpt lat="45.90224918306468" lon="12.009832411246215"><ele>296.5</ele><time>2026-04-09T11:59:08Z</time></trkpt><trkpt lat="45.902307166934264" lon="12.009607430530531"><ele>295.0</ele><time>2026-04-09T11:59:09Z</time></trkpt><trkpt lat="45.902353693704576" lon="12.009418111976377"><ele>293.5</ele><time>2026-04-09T11:59:10Z</time></trkpt><trkpt lat="45.90239196471535" lon="12.009245482366204"><ele>292.0</ele><time>2026-04-09T11:59:11Z</time></trkpt><trkpt lat="45.90242043480374" lon="12.00906171060911"><ele>291.0</ele><time>2026-04-09T11:59:12Z</time></trkpt><trkpt lat="45.902423316592404" lon="12.008849306400922"><ele>290.0</ele><time>2026-04-09T11:59:13Z</time></trkpt><trkpt lat="45.90240581936245" lon="12.00861204324759"><ele>289.0</ele><time>2026-04-09T11:59:14Z</time></trkpt><trkpt lat="45.90238171082236" lon="12.008352876447873"><ele>288.66666666666663</ele><time>2026-04-09T11:59:15Z</time></trkpt><trkpt lat="45.902355912965824" lon="12.008098695676582"><ele>288.3333333333333</ele><time>2026-04-09T11:59:16Z</time></trkpt><trkpt lat="45.902320588771644" lon="12.007870804779365"><ele>288.0</ele><time>2026-04-09T11:59:17Z</time></trkpt><trkpt lat="45.90229683578515" lon="12.007653082189197"><ele>287.6</ele><time>2026-04-09T11:59:18Z</time></trkpt><trkpt lat="45.90229559041117" lon="12.007472977361399"><ele>287.20000000000005</ele><time>2026-04-09T11:59:19Z</time></trkpt><trkpt lat="45.90227762079062" lon="12.007307807775087"><ele>286.8</ele><time>2026-04-09T11:59:20Z</time></trkpt><trkpt lat="45.9022585172717" lon="12.007168829429633"><ele>286.40000000000003</ele><time>2026-04-09T11:59:21Z</time></trkpt><trkpt lat="45.90222593953061" lon="12.00703663069453"><ele>286.0</ele><time>2026-04-09T11:59:22Z</time></trkpt><trkpt lat="45.902184574855276" lon="12.006906172861706"><ele>286.0</ele><time>2026-04-09T11:59:23Z</time></trkpt><trkpt lat="45.90212212876481" lon="12.00677436192318"><ele>286.0</ele><time>2026-04-09T11:59:24Z</time></trkpt><trkpt lat="45.902047798300835" lon="12.006634288424788"><ele>286.0</ele><time>2026-04-09T11:59:25Z</time></trkpt><trkpt lat="45.90199661953454" lon="12.006495635732852"><ele>286.0</ele><time>2026-04-09T11:59:26Z</time></trkpt><trkpt lat="45.90196385792092" lon="12.006348921735343"><ele>285.25</ele><time>2026-04-09T11:59:27Z</time></trkpt><trkpt lat="45.90194504631331" lon="12.00619221437173"><ele>284.5</ele><time>2026-04-09T11:59:28Z</time></trkpt><trkpt lat="45.901945904069215" lon="12.006014675143769"><ele>283.75</ele><time>2026-04-09T11:59:29Z</time></trkpt><trkpt lat="45.90196789056036" lon="12.005809966122383"><ele>283.0</ele><time>2026-04-09T11:59:30Z</time></trkpt><trkpt lat="45.90199884823296" lon="12.005614526938661"><ele>282.4</ele><time>2026-04-09T11:59:31Z</time></trkpt><trkpt lat="45.90201938743651" lon="12.005455225059297"><ele>281.8</ele><time>2026-04-09T11:59:32Z</time></trkpt><trkpt lat="45.902013640610534" lon="12.005305991720201"><ele>281.2</ele><time>2026-04-09T11:59:33Z</time></trkpt><trkpt lat="45.90198993024022" lon="12.005160157856112"><ele>280.6</ele><time>2026-04-09T11:59:34Z</time></trkpt><trkpt lat="45.90195837793033" lon="12.004992490780454"><ele>280.0</ele><time>2026-04-09T11:59:35Z</time></trkpt><trkpt lat="45.901876743763026" lon="12.004816338789475"><ele>277.75</ele><time>2026-04-09T11:59:36Z</time></trkpt><trkpt lat="45.90180172614961" lon="12.004620194817523"><ele>275.5</ele><time>2026-04-09T11:59:37Z</time></trkpt><trkpt lat="45.90174711331827" lon="12.004431637199632"><ele>273.25</ele><time>2026-04-09T11:59:38Z</time></trkpt><trkpt lat="45.90169471362309" lon="12.004250186892383"><ele>271.0</ele><time>2026-04-09T11:59:39Z</time></trkpt><trkpt lat="45.90165330650683" lon="12.004091816592346"><ele>268.25</ele><time>2026-04-09T11:59:40Z</time></trkpt><trkpt lat="45.9015993009813" lon="12.003948715929997"><ele>265.5</ele><time>2026-04-09T11:59:41Z</time></trkpt><trkpt lat="45.90154338707428" lon="12.003799084931936"><ele>262.75</ele><time>2026-04-09T11:59:42Z</time></trkpt><trkpt lat="45.90148875794989" lon="12.00361575162592"><ele>260.0</ele><time>2026-04-09T11:59:43Z</time></trkpt><trkpt lat="45.901419774038544" lon="12.00340108291788"><ele>259.25</ele><time>2026-04-09T11:59:44Z</time></trkpt><trkpt lat="45.90135961921518" lon="12.003192999280465"><ele>258.5</ele><time>2026-04-09T11:59:45Z</time></trkpt><trkpt lat="45.90132084144605" lon="12.00300686982479"><ele>257.75</ele><time>2026-04-09T11:59:46Z</time></trkpt><trkpt lat="45.9012988823289" lon="12.00281969605424"><ele>257.0</ele><time>2026-04-09T11:59:47Z</time></trkpt><trkpt lat="45.90129081820171" lon="12.002607063932576"><ele>257.33333333333337</ele><time>2026-04-09T11:59:48Z</time></trkpt><trkpt lat="45.90128406346389" lon="12.00235723265133"><ele>257.6666666666667</ele><time>2026-04-09T11:59:49Z</time></trkpt><trkpt lat="45.90127245251495" lon="12.00211635044371"><ele>258.0</ele><time>2026-04-09T11:59:50Z</time></trkpt><trkpt lat="45.901267332038465" lon="12.001890372606304"><ele>257.3333333333333</ele><time>2026-04-09T11:59:51Z</time></trkpt><trkpt lat="45.90128497371312" lon="12.0016559352785"><ele>256.66666666666663</ele><time>2026-04-09T11:59:52Z</time></trkpt><trkpt lat="45.90130929116842" lon="12.001420259114692"><ele>256.0</ele><time>2026-04-09T11:59:53Z</time></trkpt><trkpt lat="45.90133639123669" lon="12.001197898302165"><ele>256.0</ele><time>2026-04-09T11:59:54Z</time></trkpt><trkpt lat="45.90135926955755" lon="12.00100504420167"><ele>256.0</ele><time>2026-04-09T11:59:55Z</time></trkpt><trkpt lat="45.901376626016756" lon="12.000849817803175"><ele>256.0</ele><time>2026-04-09T11:59:56Z</time></trkpt><trkpt lat="45.90139055957298" lon="12.000725669181081"><ele>256.0</ele><time>2026-04-09T11:59:57Z</time></trkpt><trkpt lat="45.901403239951925" lon="12.000615050809834"><ele>256.0</ele><time>2026-04-09T11:59:58Z</time></trkpt><trkpt lat="45.901414799235496" lon="12.000514212546474"><ele>255.4</ele><time>2026-04-09T11:59:59Z</time></trkpt><trkpt lat="45.90140992842389" lon="12.000421756754852"><ele>254.8</ele><time>2026-04-09T11:59:59.999Z</time></trkpt><trkpt lat="45.90144699033122" lon="12.000233391051008"><ele>254.20000000000002</ele><time>2026-04-09T12:00:01.999Z</time></trkpt><trkpt lat="45.90146316560472" lon="12.000092284225873"><ele>253.60000000000002</ele><time>2026-04-09T12:00:02.999Z</time></trkpt><trkpt lat="45.90148276580384" lon="11.99993646089917"><ele>253.0</ele><time>2026-04-09T12:00:03.999Z</time></trkpt><trkpt lat="45.90150600613817" lon="11.999746016864327"><ele>253.0</ele><time>2026-04-09T12:00:04.999Z</time></trkpt><trkpt lat="45.901532758744594" lon="11.999525878554318"><ele>253.0</ele><time>2026-04-09T12:00:05.999Z</time></trkpt><trkpt lat="45.90155629374523" lon="11.999332112031201"><ele>253.0</ele><time>2026-04-09T12:00:06.999Z</time></trkpt><trkpt lat="45.90157594134945" lon="11.999170350891914"><ele>253.0</ele><time>2026-04-09T12:00:07.999Z</time></trkpt><trkpt lat="45.90159280251573" lon="11.999031530827704"><ele>252.83333333333331</ele><time>2026-04-09T12:00:08.999Z</time></trkpt><trkpt lat="45.901607118934194" lon="11.998913661987201"><ele>252.66666666666666</ele><time>2026-04-09T12:00:09.999Z</time></trkpt><trkpt lat="45.90162023752249" lon="11.9988056549901"><ele>252.5</ele><time>2026-04-09T12:00:10.999Z</time></trkpt><trkpt lat="45.90163100128774" lon="11.998706364379245"><ele>252.33333333333331</ele><time>2026-04-09T12:00:11.999Z</time></trkpt><trkpt lat="45.901642131988936" lon="11.998603703540555"><ele>252.16666666666666</ele><time>2026-04-09T12:00:12.999Z</time></trkpt><trkpt lat="45.901655005871994" lon="11.998488321794536"><ele>252.0</ele><time>2026-04-09T12:00:13.999Z</time></trkpt><trkpt lat="45.901667248122415" lon="11.998378732307936"><ele>252.2</ele><time>2026-04-09T12:00:14.999Z</time></trkpt><trkpt lat="45.901678437463765" lon="11.998278568221739"><ele>252.39999999999998</ele><time>2026-04-09T12:00:15.999Z</time></trkpt><trkpt lat="45.901698427385654" lon="11.99811450402924"><ele>252.60000000000002</ele><time>2026-04-09T12:00:17.999Z</time></trkpt><trkpt lat="45.90172007337791" lon="11.997937202075937"><ele>252.8</ele><time>2026-04-09T12:00:19.999Z</time></trkpt><trkpt lat="45.901732394661096" lon="11.997836251172899"><ele>253.0</ele><time>2026-04-09T12:00:20.999Z</time></trkpt><trkpt lat="45.90174325684129" lon="11.997739266745812"><ele>254.66666666666666</ele><time>2026-04-09T12:00:21.999Z</time></trkpt><trkpt lat="45.90175269994917" lon="11.997647991599667"><ele>256.3333333333333</ele><time>2026-04-09T12:00:22.999Z</time></trkpt><trkpt lat="45.90176218780974" lon="11.997556283870358"><ele>258.0</ele><time>2026-04-09T12:00:23.999Z</time></trkpt><trkpt lat="45.90177189648668" lon="11.997462441767738"><ele>259.6666666666667</ele><time>2026-04-09T12:00:24.999Z</time></trkpt><trkpt lat="45.90178187614401" lon="11.997365979943996"><ele>261.33333333333337</ele><time>2026-04-09T12:00:25.999Z</time></trkpt><trkpt lat="45.901803961399125" lon="11.9972009454542"><ele>263.0</ele><time>2026-04-09T12:00:27.999Z</time></trkpt><trkpt lat="45.90181940587521" lon="11.997048074020642"><ele>263.2</ele><time>2026-04-09T12:00:29.999Z</time></trkpt><trkpt lat="45.901834654989" lon="11.996872787033162"><ele>263.4</ele><time>2026-04-09T12:00:31.999Z</time></trkpt><trkpt lat="45.901846718047935" lon="11.99670487584737"><ele>263.59999999999997</ele><time>2026-04-09T12:00:33.999Z</time></trkpt><trkpt lat="45.90185286790463" lon="11.996556174936298"><ele>263.8</ele><time>2026-04-09T12:00:35.999Z</time></trkpt><trkpt lat="45.901857543605026" lon="11.99640693408935"><ele>264.0</ele><time>2026-04-09T12:00:37.999Z</time></trkpt><trkpt lat="45.90185540874471" lon="11.996256970087288"><ele>264.0</ele><time>2026-04-09T12:00:39.999Z</time></trkpt><trkpt lat="45.90184912498079" lon="11.996141131934305"><ele>264.0</ele><time>2026-04-09T12:00:41.999Z</time></trkpt><trkpt lat="45.901841786769836" lon="11.996044071630914"><ele>264.0</ele><time>2026-04-09T12:00:43.999Z</time></trkpt><trkpt lat="45.901813926104765" lon="11.99595045405057"><ele>264.0</ele><time>2026-04-09T12:00:45.999Z</time></trkpt><trkpt lat="45.90179900125658" lon="11.99584344951638"><ele>264.0</ele><time>2026-04-09T12:00:47.999Z</time></trkpt><trkpt lat="45.90180199576353" lon="11.995744992418231"><ele>264.0</ele><time>2026-04-09T12:00:49.999Z</time></trkpt><trkpt lat="45.901810536599974" lon="11.995625318318769"><ele>264.0</ele><time>2026-04-09T12:00:51.999Z</time></trkpt><trkpt lat="45.901862842075715" lon="11.995515329692946"><ele>263.59999999999997</ele><time>2026-04-09T12:00:53.999Z</time></trkpt><trkpt lat="45.901890605379705" lon="11.995376605774892"><ele>263.2</ele><time>2026-04-09T12:00:55.999Z</time></trkpt><trkpt lat="45.90198578759987" lon="11.995300449897599"><ele>262.79999999999995</ele><time>2026-04-09T12:00:58Z</time></trkpt><trkpt lat="45.90206092265196" lon="11.99518546503726"><ele>262.4</ele><time>2026-04-09T12:01:00Z</time></trkpt><trkpt lat="45.90212438121838" lon="11.99509134831499"><ele>262.0</ele><time>2026-04-09T12:01:02Z</time></trkpt><trkpt lat="45.90218188467887" lon="11.995005727363345"><ele>262.0</ele><time>2026-04-09T12:01:04Z</time></trkpt><trkpt lat="45.902262545384566" lon="11.994886612165168"><ele>262.0</ele><time>2026-04-09T12:01:06Z</time></trkpt><trkpt lat="45.90234223370645" lon="11.994771456318452"><ele>262.0</ele><time>2026-04-09T12:01:08Z</time></trkpt><trkpt lat="45.90239348317527" lon="11.994697805109029"><ele>262.0</ele><time>2026-04-09T12:01:10Z</time></trkpt><trkpt lat="45.902451825166494" lon="11.994600532998415"><ele>262.0</ele><time>2026-04-09T12:01:13Z</time></trkpt><trkpt lat="45.90246796930055" lon="11.994504835727692"><ele>262.0</ele><time>2026-04-09T12:01:14Z</time></trkpt><trkpt lat="45.90246934397434" lon="11.99441340258894"><ele>262.0</ele><time>2026-04-09T12:01:15Z</time></trkpt><trkpt lat="45.902389497153266" lon="11.9943184943915"><ele>262.0</ele><time>2026-04-09T12:01:16Z</time></trkpt><trkpt lat="45.90233077140554" lon="11.994278706553315"><ele>262.0</ele><time>2026-04-09T12:01:17Z</time></trkpt><trkpt lat="45.902240586101" lon="11.994232496753625"><ele>262.0</ele><time>2026-04-09T12:01:19Z</time></trkpt><trkpt lat="45.90217743081903" lon="11.994243898321441"><ele>262.0</ele><time>2026-04-09T12:01:20Z</time></trkpt><trkpt lat="45.90207619679413" lon="11.994267854002615"><ele>262.0</ele><time>2026-04-09T12:01:21Z</time></trkpt><trkpt lat="45.90198838897909" lon="11.994313027900793"><ele>262.0</ele><time>2026-04-09T12:01:22Z</time></trkpt><trkpt lat="45.90190205266287" lon="11.994347135315262"><ele>262.0</ele><time>2026-04-09T12:01:23Z</time></trkpt><trkpt lat="45.901805215145146" lon="11.994379336540105"><ele>262.0</ele><time>2026-04-09T12:01:24Z</time></trkpt><trkpt lat="45.90170620335942" lon="11.994407210321091"><ele>262.0</ele><time>2026-04-09T12:01:25Z</time></trkpt><trkpt lat="45.90159725832194" lon="11.994430839518726"><ele>261.6</ele><time>2026-04-09T12:01:26Z</time></trkpt><trkpt lat="45.9014797602371" lon="11.994414296823367"><ele>261.2</ele><time>2026-04-09T12:01:27Z</time></trkpt><trkpt lat="45.90137331678219" lon="11.994424497752021"><ele>260.8</ele><time>2026-04-09T12:01:28Z</time></trkpt><trkpt lat="45.90128020153791" lon="11.99443267494141"><ele>260.4</ele><time>2026-04-09T12:01:29Z</time></trkpt><trkpt lat="45.90121375830704" lon="11.994442567769052"><ele>260.0</ele><time>2026-04-09T12:01:30Z</time></trkpt><trkpt lat="45.90111616677615" lon="11.99444418836626"><ele>260.0</ele><time>2026-04-09T12:01:32Z</time></trkpt><trkpt lat="45.90103359445711" lon="11.994326239935152"><ele>260.0</ele><time>2026-04-09T12:01:34Z</time></trkpt><trkpt lat="45.90096495233231" lon="11.994219726014986"><ele>260.0</ele><time>2026-04-09T12:01:35Z</time></trkpt><trkpt lat="45.90088260335191" lon="11.994103023669524"><ele>260.0</ele><time>2026-04-09T12:01:36Z</time></trkpt><trkpt lat="45.90080403786419" lon="11.99399119552793"><ele>260.0</ele><time>2026-04-09T12:01:37Z</time></trkpt><trkpt lat="45.90074171896343" lon="11.993903164110058"><ele>260.2</ele><time>2026-04-09T12:01:38Z</time></trkpt><trkpt lat="45.90068702482774" lon="11.993827817107471"><ele>260.4</ele><time>2026-04-09T12:01:39Z</time></trkpt><trkpt lat="45.90064441194097" lon="11.993729592151142"><ele>260.6</ele><time>2026-04-09T12:01:40Z</time></trkpt><trkpt lat="45.90061315054353" lon="11.993602898107069"><ele>260.8</ele><time>2026-04-09T12:01:41Z</time></trkpt><trkpt lat="45.90058983175393" lon="11.99345862256294"><ele>261.0</ele><time>2026-04-09T12:01:42Z</time></trkpt><trkpt lat="45.90057450484096" lon="11.99331161634109"><ele>261.6</ele><time>2026-04-09T12:01:43Z</time></trkpt><trkpt lat="45.90054372266273" lon="11.993211555273305"><ele>262.20000000000005</ele><time>2026-04-09T12:01:44Z</time></trkpt><trkpt lat="45.90051727007757" lon="11.993106723428149"><ele>262.79999999999995</ele><time>2026-04-09T12:01:45Z</time></trkpt><trkpt lat="45.90045927732545" lon="11.992984198539785"><ele>263.4</ele><time>2026-04-09T12:01:46Z</time></trkpt><trkpt lat="45.90041041327787" lon="11.99285927480918"><ele>264.0</ele><time>2026-04-09T12:01:47Z</time></trkpt><trkpt lat="45.90034739298378" lon="11.992733601172485"><ele>264.0</ele><time>2026-04-09T12:01:48Z</time></trkpt><trkpt lat="45.90027713292591" lon="11.99260344608697"><ele>264.0</ele><time>2026-04-09T12:01:49Z</time></trkpt><trkpt lat="45.90019317252203" lon="11.992470472169325"><ele>264.0</ele><time>2026-04-09T12:01:50Z</time></trkpt><trkpt lat="45.900113077793" lon="11.992344838842667"><ele>264.0</ele><time>2026-04-09T12:01:51Z</time></trkpt><trkpt lat="45.90003049424054" lon="11.992204554864843"><ele>263.5</ele><time>2026-04-09T12:01:52Z</time></trkpt><trkpt lat="45.89993632887393" lon="11.992041579880327"><ele>263.0</ele><time>2026-04-09T12:01:53Z</time></trkpt><trkpt lat="45.89984621905237" lon="11.991887837859194"><ele>262.5</ele><time>2026-04-09T12:01:54Z</time></trkpt><trkpt lat="45.899768957734814" lon="11.991749464919213"><ele>262.0</ele><time>2026-04-09T12:01:55Z</time></trkpt><trkpt lat="45.89969545437046" lon="11.991602806738706"><ele>262.0</ele><time>2026-04-09T12:01:56Z</time></trkpt><trkpt lat="45.89961981068856" lon="11.991447888771441"><ele>262.0</ele><time>2026-04-09T12:01:57Z</time></trkpt><trkpt lat="45.89955365833889" lon="11.991295864791205"><ele>262.0</ele><time>2026-04-09T12:01:58Z</time></trkpt><trkpt lat="45.8995040644695" lon="11.991155974191111"><ele>262.0</ele><time>2026-04-09T12:01:59Z</time></trkpt><trkpt lat="45.89947187090839" lon="11.991032906729021"><ele>262.0</ele><time>2026-04-09T12:02:00Z</time></trkpt><trkpt lat="45.89945061662162" lon="11.990938035989629"><ele>262.0</ele><time>2026-04-09T12:02:01Z</time></trkpt><trkpt lat="45.89943987088034" lon="11.99077666835616"><ele>262.0</ele><time>2026-04-09T12:02:03Z</time></trkpt><trkpt lat="45.899437243591265" lon="11.99062280103512"><ele>262.0</ele><time>2026-04-09T12:02:05Z</time></trkpt><trkpt lat="45.89942572832012" lon="11.990515590327208"><ele>262.0</ele><time>2026-04-09T12:02:05.999Z</time></trkpt><trkpt lat="45.89945294419579" lon="11.990346321084614"><ele>262.66666666666663</ele><time>2026-04-09T12:02:06.999Z</time></trkpt><trkpt lat="45.8994775236757" lon="11.990137398076834"><ele>263.3333333333333</ele><time>2026-04-09T12:02:07.999Z</time></trkpt><trkpt lat="45.89951318771525" lon="11.989886816967763"><ele>264.0</ele><time>2026-04-09T12:02:08.999Z</time></trkpt><trkpt lat="45.89954533746732" lon="11.989614441108403"><ele>264.0</ele><time>2026-04-09T12:02:09.999Z</time></trkpt><trkpt lat="45.89957276554971" lon="11.989382067752281"><ele>264.0</ele><time>2026-04-09T12:02:10.999Z</time></trkpt><trkpt lat="45.8995836285336" lon="11.989105641621503"><ele>264.0</ele><time>2026-04-09T12:02:11.999Z</time></trkpt><trkpt lat="45.899617684463884" lon="11.988816097867518"><ele>263.0</ele><time>2026-04-09T12:02:12.999Z</time></trkpt><trkpt lat="45.89965237050172" lon="11.98857450672115"><ele>262.0</ele><time>2026-04-09T12:02:13.999Z</time></trkpt><trkpt lat="45.89967224552689" lon="11.988327709827312"><ele>261.0</ele><time>2026-04-09T12:02:14.999Z</time></trkpt><trkpt lat="45.89971863284653" lon="11.988103572778884"><ele>259.40000000000003</ele><time>2026-04-09T12:02:15.999Z</time></trkpt><trkpt lat="45.89973928569281" lon="11.98790526145793"><ele>257.8</ele><time>2026-04-09T12:02:16.999Z</time></trkpt><trkpt lat="45.89975716502527" lon="11.987743946574774"><ele>256.20000000000005</ele><time>2026-04-09T12:02:17.999Z</time></trkpt><trkpt lat="45.8997582399312" lon="11.987592728552901"><ele>254.60000000000002</ele><time>2026-04-09T12:02:18.999Z</time></trkpt><trkpt lat="45.89975479737503" lon="11.987468584595268"><ele>253.0</ele><time>2026-04-09T12:02:19.999Z</time></trkpt><trkpt lat="45.89975051221968" lon="11.987338681436402"><ele>252.8</ele><time>2026-04-09T12:02:20.999Z</time></trkpt><trkpt lat="45.89969239448749" lon="11.987235017762229"><ele>252.60000000000002</ele><time>2026-04-09T12:02:21.999Z</time></trkpt><trkpt lat="45.89961563948299" lon="11.987153818299076"><ele>252.39999999999998</ele><time>2026-04-09T12:02:22.999Z</time></trkpt><trkpt lat="45.89950879733037" lon="11.987095830896443"><ele>252.2</ele><time>2026-04-09T12:02:23.999Z</time></trkpt><trkpt lat="45.899369650883465" lon="11.987049888629572"><ele>252.0</ele><time>2026-04-09T12:02:24.999Z</time></trkpt><trkpt lat="45.8992418886186" lon="11.986988513113738"><ele>252.0</ele><time>2026-04-09T12:02:25.999Z</time></trkpt><trkpt lat="45.899119886636385" lon="11.986880983494"><ele>252.0</ele><time>2026-04-09T12:02:26.999Z</time></trkpt><trkpt lat="45.898962363298104" lon="11.986743223540005"><ele>252.0</ele><time>2026-04-09T12:02:27.999Z</time></trkpt><trkpt lat="45.89880872169834" lon="11.986580488833967"><ele>250.66666666666669</ele><time>2026-04-09T12:02:28.999Z</time></trkpt><trkpt lat="45.89867251790831" lon="11.986457367484942"><ele>249.33333333333334</ele><time>2026-04-09T12:02:29.999Z</time></trkpt><trkpt lat="45.89852503894213" lon="11.986328650756102"><ele>248.0</ele><time>2026-04-09T12:02:30.999Z</time></trkpt><trkpt lat="45.89837274163877" lon="11.986184016078935"><ele>248.0</ele><time>2026-04-09T12:02:31.999Z</time></trkpt><trkpt lat="45.89825367856719" lon="11.98605355180318"><ele>248.0</ele><time>2026-04-09T12:02:32.999Z</time></trkpt><trkpt lat="45.89815737639935" lon="11.98593885679386"><ele>248.0</ele><time>2026-04-09T12:02:33.999Z</time></trkpt><trkpt lat="45.89804479520967" lon="11.985802761142061"><ele>248.0</ele><time>2026-04-09T12:02:34.999Z</time></trkpt><trkpt lat="45.89793598640754" lon="11.98571130948224"><ele>247.60000000000002</ele><time>2026-04-09T12:02:35.999Z</time></trkpt><trkpt lat="45.89784188850112" lon="11.985637400692916"><ele>247.20000000000002</ele><time>2026-04-09T12:02:36.999Z</time></trkpt><trkpt lat="45.89774282619521" lon="11.9855767752442"><ele>246.8</ele><time>2026-04-09T12:02:37.999Z</time></trkpt><trkpt lat="45.89764952275139" lon="11.985539810179521"><ele>246.4</ele><time>2026-04-09T12:02:38.999Z</time></trkpt><trkpt lat="45.89757253761514" lon="11.985510537125332"><ele>246.0</ele><time>2026-04-09T12:02:39.999Z</time></trkpt><trkpt lat="45.89745854999542" lon="11.985449184904624"><ele>245.60000000000002</ele><time>2026-04-09T12:02:41.999Z</time></trkpt><trkpt lat="45.89737482643363" lon="11.985416731740756"><ele>245.20000000000002</ele><time>2026-04-09T12:02:43.999Z</time></trkpt><trkpt lat="45.8973520479304" lon="11.985313783261564"><ele>244.79999999999998</ele><time>2026-04-09T12:02:46.999Z</time></trkpt><trkpt lat="45.897424507409625" lon="11.985147628775533"><ele>244.39999999999998</ele><time>2026-04-09T12:02:52.999Z</time></trkpt><trkpt lat="45.89744911665328" lon="11.984999919241256"><ele>244.0</ele><time>2026-04-09T12:02:53.999Z</time></trkpt><trkpt lat="45.897482130713875" lon="11.98489005734789"><ele>243.2</ele><time>2026-04-09T12:02:54.999Z</time></trkpt><trkpt lat="45.897510656511315" lon="11.98477337499919"><ele>242.39999999999998</ele><time>2026-04-09T12:02:55.999Z</time></trkpt><trkpt lat="45.897541904828714" lon="11.984620380660997"><ele>241.6</ele><time>2026-04-09T12:02:56.999Z</time></trkpt><trkpt lat="45.89761448812524" lon="11.984466681341935"><ele>240.8</ele><time>2026-04-09T12:02:57.999Z</time></trkpt><trkpt lat="45.897658130373934" lon="11.984316357445783"><ele>240.0</ele><time>2026-04-09T12:02:58.999Z</time></trkpt><trkpt lat="45.89770575450589" lon="11.984173428437014"><ele>239.5</ele><time>2026-04-09T12:02:59.999Z</time></trkpt><trkpt lat="45.897760354667064" lon="11.984019614456122"><ele>239.0</ele><time>2026-04-09T12:03:00.999Z</time></trkpt><trkpt lat="45.897827967002826" lon="11.98387070886455"><ele>238.5</ele><time>2026-04-09T12:03:01.999Z</time></trkpt><trkpt lat="45.89788139373604" lon="11.983727759473789"><ele>238.0</ele><time>2026-04-09T12:03:02.999Z</time></trkpt><trkpt lat="45.897897174390025" lon="11.983572691315091"><ele>238.0</ele><time>2026-04-09T12:03:04Z</time></trkpt><trkpt lat="45.89790393652139" lon="11.98343585263218"><ele>238.0</ele><time>2026-04-09T12:03:05Z</time></trkpt><trkpt lat="45.89788296338623" lon="11.983284355600968"><ele>238.0</ele><time>2026-04-09T12:03:06Z</time></trkpt><trkpt lat="45.897841804519814" lon="11.983117922425645"><ele>238.0</ele><time>2026-04-09T12:03:07Z</time></trkpt><trkpt lat="45.89778025588834" lon="11.982924177196821"><ele>238.33333333333331</ele><time>2026-04-09T12:03:08Z</time></trkpt><trkpt lat="45.89771048234088" lon="11.982690636548249"><ele>238.66666666666669</ele><time>2026-04-09T12:03:09Z</time></trkpt><trkpt lat="45.89763191255791" lon="11.982433536082548"><ele>239.0</ele><time>2026-04-09T12:03:10Z</time></trkpt><trkpt lat="45.89755741421705" lon="11.982190546528773"><ele>236.33333333333334</ele><time>2026-04-09T12:03:11Z</time></trkpt><trkpt lat="45.89748811496818" lon="11.981953677725059"><ele>233.66666666666669</ele><time>2026-04-09T12:03:12Z</time></trkpt><trkpt lat="45.897417606289736" lon="11.981703829084486"><ele>231.0</ele><time>2026-04-09T12:03:13Z</time></trkpt><trkpt lat="45.89734813387031" lon="11.981443610016237"><ele>231.0</ele><time>2026-04-09T12:03:14Z</time></trkpt><trkpt lat="45.897270661709356" lon="11.981178245624921"><ele>231.0</ele><time>2026-04-09T12:03:15Z</time></trkpt><trkpt lat="45.8971983052327" lon="11.980923610287473"><ele>231.0</ele><time>2026-04-09T12:03:16Z</time></trkpt><trkpt lat="45.897128122575495" lon="11.980670141551935"><ele>231.5</ele><time>2026-04-09T12:03:17Z</time></trkpt><trkpt lat="45.89704277996164" lon="11.980385883490257"><ele>232.0</ele><time>2026-04-09T12:03:18Z</time></trkpt><trkpt lat="45.896946149318346" lon="11.980056275550465"><ele>231.5</ele><time>2026-04-09T12:03:19Z</time></trkpt><trkpt lat="45.89684848764875" lon="11.979715486843482"><ele>231.0</ele><time>2026-04-09T12:03:20Z</time></trkpt><trkpt lat="45.8967583209302" lon="11.9794035473935"><ele>228.0</ele><time>2026-04-09T12:03:21Z</time></trkpt><trkpt lat="45.89666867813091" lon="11.979096329955254"><ele>225.0</ele><time>2026-04-09T12:03:22Z</time></trkpt><trkpt lat="45.89657079959443" lon="11.978757190721838"><ele>225.0</ele><time>2026-04-09T12:03:23Z</time></trkpt><trkpt lat="45.89646561572715" lon="11.97839732773874"><ele>225.0</ele><time>2026-04-09T12:03:24Z</time></trkpt><trkpt lat="45.89636870112787" lon="11.97805534516754"><ele>225.0</ele><time>2026-04-09T12:03:25Z</time></trkpt><trkpt lat="45.896282707464515" lon="11.97774756144197"><ele>225.0</ele><time>2026-04-09T12:03:26Z</time></trkpt><trkpt lat="45.89621190030544" lon="11.97744989665613"><ele>225.0</ele><time>2026-04-09T12:03:27Z</time></trkpt><trkpt lat="45.896129022059796" lon="11.977190962573527"><ele>225.0</ele><time>2026-04-09T12:03:28Z</time></trkpt><trkpt lat="45.896050719627475" lon="11.976932635328545"><ele>225.0</ele><time>2026-04-09T12:03:29Z</time></trkpt><trkpt lat="45.89597582138281" lon="11.976689192267667"><ele>226.0</ele><time>2026-04-09T12:03:30Z</time></trkpt><trkpt lat="45.89590404960875" lon="11.976459571465714"><ele>227.0</ele><time>2026-04-09T12:03:31Z</time></trkpt><trkpt lat="45.89584530627499" lon="11.976258988897229"><ele>228.0</ele><time>2026-04-09T12:03:32Z</time></trkpt><trkpt lat="45.89578758587638" lon="11.97604761502487"><ele>228.0</ele><time>2026-04-09T12:03:33Z</time></trkpt><trkpt lat="45.895732237762715" lon="11.975824160808788"><ele>228.0</ele><time>2026-04-09T12:03:34Z</time></trkpt><trkpt lat="45.89567051370645" lon="11.97558427454224"><ele>228.0</ele><time>2026-04-09T12:03:35Z</time></trkpt><trkpt lat="45.89560614288604" lon="11.975347710163607"><ele>228.0</ele><time>2026-04-09T12:03:36Z</time></trkpt><trkpt lat="45.89555007189031" lon="11.975124239544435"><ele>228.0</ele><time>2026-04-09T12:03:37Z</time></trkpt><trkpt lat="45.89551217653694" lon="11.97490616266148"><ele>228.0</ele><time>2026-04-09T12:03:38Z</time></trkpt><trkpt lat="45.89548774155613" lon="11.974697822014432"><ele>229.0</ele><time>2026-04-09T12:03:39Z</time></trkpt><trkpt lat="45.89547518293167" lon="11.974501477791929"><ele>230.0</ele><time>2026-04-09T12:03:40Z</time></trkpt><trkpt lat="45.89547565287172" lon="11.974310201160643"><ele>231.0</ele><time>2026-04-09T12:03:41Z</time></trkpt><trkpt lat="45.89548622285546" lon="11.974112947390731"><ele>232.0</ele><time>2026-04-09T12:03:42Z</time></trkpt><trkpt lat="45.89550707993201" lon="11.973892762062613"><ele>231.66666666666666</ele><time>2026-04-09T12:03:43Z</time></trkpt><trkpt lat="45.89556285752343" lon="11.973660552761922"><ele>231.33333333333331</ele><time>2026-04-09T12:03:44Z</time></trkpt><trkpt lat="45.89560699634186" lon="11.973406867190096"><ele>231.0</ele><time>2026-04-09T12:03:45Z</time></trkpt><trkpt lat="45.895642138250246" lon="11.973131066912053"><ele>231.0</ele><time>2026-04-09T12:03:46Z</time></trkpt><trkpt lat="45.89569384927348" lon="11.972844790957271"><ele>231.0</ele><time>2026-04-09T12:03:47Z</time></trkpt><trkpt lat="45.895743450399365" lon="11.972560125980184"><ele>231.0</ele><time>2026-04-09T12:03:48Z</time></trkpt><trkpt lat="45.89579134939989" lon="11.97230065838278"><ele>229.66666666666669</ele><time>2026-04-09T12:03:49Z</time></trkpt><trkpt lat="45.89584015739603" lon="11.972036899576546"><ele>228.33333333333334</ele><time>2026-04-09T12:03:50Z</time></trkpt><trkpt lat="45.895886954490024" lon="11.971760388671495"><ele>227.0</ele><time>2026-04-09T12:03:51Z</time></trkpt><trkpt lat="45.89593883368332" lon="11.971461766486197"><ele>232.0</ele><time>2026-04-09T12:03:52Z</time></trkpt><trkpt lat="45.89598829466171" lon="11.971177267495092"><ele>237.0</ele><time>2026-04-09T12:03:53Z</time></trkpt><trkpt lat="45.89603114879043" lon="11.970927665681785"><ele>242.0</ele><time>2026-04-09T12:03:54Z</time></trkpt><trkpt lat="45.89608240273755" lon="11.970675923740187"><ele>242.0</ele><time>2026-04-09T12:03:55Z</time></trkpt><trkpt lat="45.89607540795762" lon="11.970409396179772"><ele>242.0</ele><time>2026-04-09T12:03:56Z</time></trkpt><trkpt lat="45.89607706539433" lon="11.970133745038398"><ele>242.0</ele><time>2026-04-09T12:03:57Z</time></trkpt><trkpt lat="45.89609031438011" lon="11.969852318158464"><ele>242.0</ele><time>2026-04-09T12:03:58Z</time></trkpt><trkpt lat="45.89613809654701" lon="11.969553313303331"><ele>242.0</ele><time>2026-04-09T12:03:59Z</time></trkpt><trkpt lat="45.89617050015394" lon="11.969265247501598"><ele>242.0</ele><time>2026-04-09T12:04:00Z</time></trkpt><trkpt lat="45.89617038902946" lon="11.969021092969237"><ele>242.0</ele><time>2026-04-09T12:04:01Z</time></trkpt><trkpt lat="45.89619827402144" lon="11.968811946206628"><ele>242.0</ele><time>2026-04-09T12:04:02Z</time></trkpt><trkpt lat="45.89620809478872" lon="11.9685726768161"><ele>242.0</ele><time>2026-04-09T12:04:03Z</time></trkpt><trkpt lat="45.89621108534381" lon="11.968291747000125"><ele>241.33333333333334</ele><time>2026-04-09T12:04:04Z</time></trkpt><trkpt lat="45.89622922872563" lon="11.967987287205416"><ele>240.66666666666669</ele><time>2026-04-09T12:04:05Z</time></trkpt><trkpt lat="45.896258136362036" lon="11.967712313609034"><ele>240.0</ele><time>2026-04-09T12:04:06Z</time></trkpt><trkpt lat="45.896275144565664" lon="11.967469759922356"><ele>239.5</ele><time>2026-04-09T12:04:07Z</time></trkpt><trkpt lat="45.89629062002947" lon="11.967256569621032"><ele>239.0</ele><time>2026-04-09T12:04:08Z</time></trkpt><trkpt lat="45.89630709315828" lon="11.967057978487018"><ele>238.5</ele><time>2026-04-09T12:04:09Z</time></trkpt><trkpt lat="45.89632282278876" lon="11.966863008282647"><ele>238.0</ele><time>2026-04-09T12:04:09.999Z</time></trkpt><trkpt lat="45.896338225837084" lon="11.96665731931265"><ele>237.60000000000002</ele><time>2026-04-09T12:04:10.999Z</time></trkpt><trkpt lat="45.896330877398704" lon="11.966446378529502"><ele>237.20000000000002</ele><time>2026-04-09T12:04:11.999Z</time></trkpt><trkpt lat="45.89633572888533" lon="11.96627517525652"><ele>236.8</ele><time>2026-04-09T12:04:12.999Z</time></trkpt><trkpt lat="45.89634126905082" lon="11.966168584403945"><ele>236.4</ele><time>2026-04-09T12:04:13.999Z</time></trkpt><trkpt lat="45.89634254373313" lon="11.966063441992768"><ele>236.0</ele><time>2026-04-09T12:04:15.999Z</time></trkpt><trkpt lat="45.896340387049534" lon="11.965917117269154"><ele>235.33333333333334</ele><time>2026-04-09T12:04:17.999Z</time></trkpt><trkpt lat="45.896328387003585" lon="11.965805702384142"><ele>234.66666666666669</ele><time>2026-04-09T12:04:18.999Z</time></trkpt><trkpt lat="45.89629795739927" lon="11.96571009346971"><ele>234.0</ele><time>2026-04-09T12:04:19.999Z</time></trkpt><trkpt lat="45.896236157339544" lon="11.965617159931115"><ele>233.33333333333331</ele><time>2026-04-09T12:04:20.999Z</time></trkpt><trkpt lat="45.89615917508594" lon="11.96550913350358"><ele>232.66666666666666</ele><time>2026-04-09T12:04:21.999Z</time></trkpt><trkpt lat="45.89609228181849" lon="11.965404483465914"><ele>232.0</ele><time>2026-04-09T12:04:22.999Z</time></trkpt><trkpt lat="45.89605687589479" lon="11.965301084318545"><ele>232.0</ele><time>2026-04-09T12:04:23.999Z</time></trkpt><trkpt lat="45.89600340116261" lon="11.965192591957434"><ele>232.0</ele><time>2026-04-09T12:04:24.999Z</time></trkpt><trkpt lat="45.89596048609717" lon="11.965025969309774"><ele>232.0</ele><time>2026-04-09T12:04:25.999Z</time></trkpt><trkpt lat="45.89589657773152" lon="11.964807758220232"><ele>232.0</ele><time>2026-04-09T12:04:26.999Z</time></trkpt><trkpt lat="45.89583341274746" lon="11.964592951583668"><ele>229.0</ele><time>2026-04-09T12:04:27.999Z</time></trkpt><trkpt lat="45.895786864257154" lon="11.964370450185013"><ele>226.0</ele><time>2026-04-09T12:04:28.999Z</time></trkpt><trkpt lat="45.89571191476334" lon="11.96410996318805"><ele>223.0</ele><time>2026-04-09T12:04:29.999Z</time></trkpt><trkpt lat="45.89561579240381" lon="11.963826914388292"><ele>222.66666666666666</ele><time>2026-04-09T12:04:30.999Z</time></trkpt><trkpt lat="45.895541577179806" lon="11.963560856296994"><ele>222.33333333333331</ele><time>2026-04-09T12:04:31.999Z</time></trkpt><trkpt lat="45.89548922630806" lon="11.963324575933516"><ele>222.0</ele><time>2026-04-09T12:04:32.999Z</time></trkpt><trkpt lat="45.89543004781275" lon="11.963114555765458"><ele>222.6</ele><time>2026-04-09T12:04:33.999Z</time></trkpt><trkpt lat="45.89537456641773" lon="11.962967024700742"><ele>223.2</ele><time>2026-04-09T12:04:34.999Z</time></trkpt><trkpt lat="45.89534473216404" lon="11.962847901714913"><ele>223.8</ele><time>2026-04-09T12:04:35.999Z</time></trkpt><trkpt lat="45.895315731496126" lon="11.962742545848222"><ele>224.4</ele><time>2026-04-09T12:04:36.999Z</time></trkpt><trkpt lat="45.8953107878667" lon="11.962626281374087"><ele>225.0</ele><time>2026-04-09T12:04:37.999Z</time></trkpt><trkpt lat="45.89531775272744" lon="11.962504393396511"><ele>225.4</ele><time>2026-04-09T12:04:38.999Z</time></trkpt><trkpt lat="45.89534957036443" lon="11.962362982724454"><ele>225.8</ele><time>2026-04-09T12:04:39.999Z</time></trkpt><trkpt lat="45.89539784734322" lon="11.962194444382424"><ele>226.2</ele><time>2026-04-09T12:04:40.999Z</time></trkpt><trkpt lat="45.89545496246052" lon="11.962046581265728"><ele>226.6</ele><time>2026-04-09T12:04:41.999Z</time></trkpt><trkpt lat="45.89551533222114" lon="11.96193283640129"><ele>227.0</ele><time>2026-04-09T12:04:42.999Z</time></trkpt><trkpt lat="45.895581419458075" lon="11.961850388113213"><ele>227.0</ele><time>2026-04-09T12:04:43.999Z</time></trkpt><trkpt lat="45.89565826826237" lon="11.961776044687696"><ele>227.0</ele><time>2026-04-09T12:04:44.999Z</time></trkpt><trkpt lat="45.89576633961499" lon="11.96172305872642"><ele>227.0</ele><time>2026-04-09T12:04:45.999Z</time></trkpt><trkpt lat="45.89587129617474" lon="11.961604938330236"><ele>227.0</ele><time>2026-04-09T12:04:46.999Z</time></trkpt><trkpt lat="45.895964872119805" lon="11.961498114870295"><ele>227.39999999999998</ele><time>2026-04-09T12:04:47.999Z</time></trkpt><trkpt lat="45.89602634164673" lon="11.961410882028334"><ele>227.79999999999998</ele><time>2026-04-09T12:04:48.999Z</time></trkpt><trkpt lat="45.896072627987614" lon="11.96132275015101"><ele>228.2</ele><time>2026-04-09T12:04:49.999Z</time></trkpt><trkpt lat="45.896088932793916" lon="11.961210574921493"><ele>228.6</ele><time>2026-04-09T12:04:50.999Z</time></trkpt><trkpt lat="45.89617448669792" lon="11.961099920180498"><ele>229.0</ele><time>2026-04-09T12:04:51.999Z</time></trkpt><trkpt lat="45.89600610331062" lon="11.960950459507892"><ele>225.75</ele><time>2026-04-09T12:04:52.999Z</time></trkpt><trkpt lat="45.89590928775138" lon="11.960865591530071"><ele>222.5</ele><time>2026-04-09T12:04:53.999Z</time></trkpt><trkpt lat="45.89579954304434" lon="11.960821174221557"><ele>219.25</ele><time>2026-04-09T12:04:54.999Z</time></trkpt><trkpt lat="45.89567868979832" lon="11.960803842451215"><ele>216.0</ele><time>2026-04-09T12:04:55.999Z</time></trkpt><trkpt lat="45.8955541334027" lon="11.960819556992544"><ele>216.0</ele><time>2026-04-09T12:04:56.999Z</time></trkpt><trkpt lat="45.89544883517755" lon="11.960826446834703"><ele>216.00000000000003</ele><time>2026-04-09T12:04:57.999Z</time></trkpt><trkpt lat="45.895356090693625" lon="11.96079801266323"><ele>216.00000000000003</ele><time>2026-04-09T12:04:58.999Z</time></trkpt><trkpt lat="45.89527234300431" lon="11.96073730406227"><ele>216.0</ele><time>2026-04-09T12:04:59.999Z</time></trkpt><trkpt lat="45.895205424217615" lon="11.960647198656988"><ele>216.0</ele><time>2026-04-09T12:05:00.999Z</time></trkpt><trkpt lat="45.89519005059212" lon="11.960503514757209"><ele>216.0</ele><time>2026-04-09T12:05:01.999Z</time></trkpt><trkpt lat="45.895169209339336" lon="11.960349558299392"><ele>216.0</ele><time>2026-04-09T12:05:02.999Z</time></trkpt><trkpt lat="45.89516664374957" lon="11.960174932835704"><ele>216.0</ele><time>2026-04-09T12:05:03.999Z</time></trkpt><trkpt lat="45.89517841020463" lon="11.96001197503065"><ele>216.0</ele><time>2026-04-09T12:05:04.999Z</time></trkpt><trkpt lat="45.89520716508418" lon="11.959864861294193"><ele>216.75</ele><time>2026-04-09T12:05:05.999Z</time></trkpt><trkpt lat="45.8952365620518" lon="11.959713674606686"><ele>217.5</ele><time>2026-04-09T12:05:06.999Z</time></trkpt><trkpt lat="45.89530572011606" lon="11.959564134438944"><ele>218.25</ele><time>2026-04-09T12:05:07.999Z</time></trkpt><trkpt lat="45.895412120666066" lon="11.95940205377891"><ele>219.0</ele><time>2026-04-09T12:05:08.999Z</time></trkpt><trkpt lat="45.89552151731316" lon="11.95920643991296"><ele>215.33333333333331</ele><time>2026-04-09T12:05:10Z</time></trkpt><trkpt lat="45.89564352543261" lon="11.958986840226473"><ele>211.66666666666666</ele><time>2026-04-09T12:05:11Z</time></trkpt><trkpt lat="45.89575600397478" lon="11.95874368275168"><ele>208.0</ele><time>2026-04-09T12:05:12Z</time></trkpt><trkpt lat="45.89585493653001" lon="11.958539555684661"><ele>218.0</ele><time>2026-04-09T12:05:13Z</time></trkpt><trkpt lat="45.89592281309573" lon="11.958327295272932"><ele>228.0</ele><time>2026-04-09T12:05:14Z</time></trkpt><trkpt lat="45.89596300551875" lon="11.95809174623007"><ele>238.0</ele><time>2026-04-09T12:05:15Z</time></trkpt><trkpt lat="45.89598805268522" lon="11.957787483224184"><ele>233.5</ele><time>2026-04-09T12:05:16Z</time></trkpt><trkpt lat="45.89604383855755" lon="11.957445994811883"><ele>229.0</ele><time>2026-04-09T12:05:17Z</time></trkpt><trkpt lat="45.89609436134865" lon="11.957073837381996"><ele>229.0</ele><time>2026-04-09T12:05:18Z</time></trkpt><trkpt lat="45.89614447660952" lon="11.95672135130695"><ele>229.0</ele><time>2026-04-09T12:05:19Z</time></trkpt><trkpt lat="45.896189545076574" lon="11.956405131952026"><ele>226.0</ele><time>2026-04-09T12:05:20Z</time></trkpt><trkpt lat="45.896232040183975" lon="11.956110074061877"><ele>223.0</ele><time>2026-04-09T12:05:21Z</time></trkpt><trkpt lat="45.89627225105782" lon="11.955826225123346"><ele>220.0</ele><time>2026-04-09T12:05:22Z</time></trkpt><trkpt lat="45.89630984517453" lon="11.955563690772102"><ele>216.66666666666666</ele><time>2026-04-09T12:05:23Z</time></trkpt><trkpt lat="45.896353228376135" lon="11.95532600041024"><ele>213.33333333333331</ele><time>2026-04-09T12:05:24Z</time></trkpt><trkpt lat="45.896402428645956" lon="11.955094294177604"><ele>210.0</ele><time>2026-04-09T12:05:25Z</time></trkpt><trkpt lat="45.89644447571016" lon="11.954870238382286"><ele>205.66666666666669</ele><time>2026-04-09T12:05:26Z</time></trkpt><trkpt lat="45.896519039197855" lon="11.954675219912826"><ele>201.33333333333334</ele><time>2026-04-09T12:05:27Z</time></trkpt><trkpt lat="45.8966014058541" lon="11.954477514615641"><ele>197.0</ele><time>2026-04-09T12:05:28Z</time></trkpt><trkpt lat="45.89669533412434" lon="11.954276582152493"><ele>195.0</ele><time>2026-04-09T12:05:29Z</time></trkpt><trkpt lat="45.89679497520718" lon="11.954087382996834"><ele>193.0</ele><time>2026-04-09T12:05:30Z</time></trkpt><trkpt lat="45.89688973302702" lon="11.953914805900858"><ele>191.0</ele><time>2026-04-09T12:05:31Z</time></trkpt><trkpt lat="45.896973625664465" lon="11.953768589331728"><ele>191.0</ele><time>2026-04-09T12:05:32Z</time></trkpt><trkpt lat="45.897044391825446" lon="11.953654334482334"><ele>191.0</ele><time>2026-04-09T12:05:33Z</time></trkpt><trkpt lat="45.897104698646444" lon="11.953563291241815"><ele>191.0</ele><time>2026-04-09T12:05:34Z</time></trkpt><trkpt lat="45.897173558777176" lon="11.953461573456373"><ele>191.0</ele><time>2026-04-09T12:05:35Z</time></trkpt><trkpt lat="45.89723623253471" lon="11.953315556773141"><ele>191.0</ele><time>2026-04-09T12:05:36Z</time></trkpt><trkpt lat="45.8973802663301" lon="11.95319578420194"><ele>193.0</ele><time>2026-04-09T12:05:37Z</time></trkpt><trkpt lat="45.89751403468317" lon="11.95305566988347"><ele>195.0</ele><time>2026-04-09T12:05:38Z</time></trkpt><trkpt lat="45.8976371322395" lon="11.952944283291185"><ele>197.0</ele><time>2026-04-09T12:05:39Z</time></trkpt><trkpt lat="45.89777206330145" lon="11.95283158952912"><ele>197.0</ele><time>2026-04-09T12:05:40Z</time></trkpt><trkpt lat="45.89793156036555" lon="11.952722815414395"><ele>197.0</ele><time>2026-04-09T12:05:41Z</time></trkpt><trkpt lat="45.898114730622005" lon="11.952623511640686"><ele>197.0</ele><time>2026-04-09T12:05:42Z</time></trkpt><trkpt lat="45.898313644320226" lon="11.952526981913323"><ele>195.33333333333334</ele><time>2026-04-09T12:05:43Z</time></trkpt><trkpt lat="45.898515898853766" lon="11.952428281096985"><ele>193.66666666666669</ele><time>2026-04-09T12:05:44Z</time></trkpt><trkpt lat="45.89870166681473" lon="11.952361409681997"><ele>192.0</ele><time>2026-04-09T12:05:45Z</time></trkpt><trkpt lat="45.89887628888689" lon="11.9522771261316"><ele>192.0</ele><time>2026-04-09T12:05:46Z</time></trkpt><trkpt lat="45.89904782421433" lon="11.9521951341523"><ele>192.0</ele><time>2026-04-09T12:05:47Z</time></trkpt><trkpt lat="45.89921950670929" lon="11.952113027437397"><ele>192.0</ele><time>2026-04-09T12:05:48Z</time></trkpt><trkpt lat="45.89938975079235" lon="11.952031358791908"><ele>202.66666666666669</ele><time>2026-04-09T12:05:49Z</time></trkpt><trkpt lat="45.89955545677291" lon="11.95195186709724"><ele>213.33333333333334</ele><time>2026-04-09T12:05:50Z</time></trkpt><trkpt lat="45.89969553537655" lon="11.951862670865156"><ele>224.0</ele><time>2026-04-09T12:05:51Z</time></trkpt><trkpt lat="45.89981478548345" lon="11.951817003456759"><ele>224.00000000000003</ele><time>2026-04-09T12:05:52Z</time></trkpt><trkpt lat="45.89991861527133" lon="11.951774518915068"><ele>224.0</ele><time>2026-04-09T12:05:53Z</time></trkpt><trkpt lat="45.90001655209263" lon="11.951740218422893"><ele>224.0</ele><time>2026-04-09T12:05:54Z</time></trkpt><trkpt lat="45.900104510301695" lon="11.95171495513751"><ele>224.0</ele><time>2026-04-09T12:05:55Z</time></trkpt><trkpt lat="45.90018074272292" lon="11.951696089205521"><ele>224.00000000000003</ele><time>2026-04-09T12:05:56Z</time></trkpt><trkpt lat="45.90024652286411" lon="11.951665789274363"><ele>224.0</ele><time>2026-04-09T12:05:57Z</time></trkpt><trkpt lat="45.900329046586045" lon="11.951652848256122"><ele>218.2</ele><time>2026-04-09T12:05:59Z</time></trkpt><trkpt lat="45.900311822922426" lon="11.951477205918678"><ele>212.39999999999998</ele><time>2026-04-09T12:06:00Z</time></trkpt><trkpt lat="45.90029146148285" lon="11.951385296629708"><ele>206.6</ele><time>2026-04-09T12:06:01Z</time></trkpt><trkpt lat="45.90025216275301" lon="11.951279951396895"><ele>200.8</ele><time>2026-04-09T12:06:02Z</time></trkpt><trkpt lat="45.90023582924282" lon="11.951145994564255"><ele>195.0</ele><time>2026-04-09T12:06:03Z</time></trkpt><trkpt lat="45.90022607822084" lon="11.950975877714471"><ele>187.33333333333334</ele><time>2026-04-09T12:06:04Z</time></trkpt><trkpt lat="45.90021313827127" lon="11.950763714880607"><ele>179.66666666666669</ele><time>2026-04-09T12:06:05Z</time></trkpt><trkpt lat="45.90018219324554" lon="11.9505318908489"><ele>172.0</ele><time>2026-04-09T12:06:06Z</time></trkpt><trkpt lat="45.900184899805765" lon="11.950322853650173"><ele>172.0</ele><time>2026-04-09T12:06:07Z</time></trkpt><trkpt lat="45.90017096547876" lon="11.950110223934143"><ele>172.0</ele><time>2026-04-09T12:06:08Z</time></trkpt><trkpt lat="45.90013783524543" lon="11.949845888056046"><ele>172.0</ele><time>2026-04-09T12:06:09Z</time></trkpt><trkpt lat="45.900122132013486" lon="11.949561811545385"><ele>172.0</ele><time>2026-04-09T12:06:10Z</time></trkpt><trkpt lat="45.9001179024969" lon="11.94929440314737"><ele>172.0</ele><time>2026-04-09T12:06:11Z</time></trkpt><trkpt lat="45.90008049222082" lon="11.948998000898928"><ele>172.0</ele><time>2026-04-09T12:06:11.999Z</time></trkpt><trkpt lat="45.90007732170055" lon="11.948692553471174"><ele>172.0</ele><time>2026-04-09T12:06:12.999Z</time></trkpt><trkpt lat="45.90006014918192" lon="11.948421336080987"><ele>172.0</ele><time>2026-04-09T12:06:13.999Z</time></trkpt><trkpt lat="45.90002882218781" lon="11.948178047382214"><ele>172.0</ele><time>2026-04-09T12:06:14.999Z</time></trkpt><trkpt lat="45.90001491858513" lon="11.947942290443331"><ele>172.0</ele><time>2026-04-09T12:06:15.999Z</time></trkpt><trkpt lat="45.90000063312208" lon="11.947702350212273"><ele>172.0</ele><time>2026-04-09T12:06:16.999Z</time></trkpt><trkpt lat="45.8999858650627" lon="11.947459276995655"><ele>172.0</ele><time>2026-04-09T12:06:17.999Z</time></trkpt><trkpt lat="45.89997254196482" lon="11.947216599380885"><ele>171.66666666666669</ele><time>2026-04-09T12:06:18.999Z</time></trkpt><trkpt lat="45.899956139389026" lon="11.946974089909043"><ele>171.33333333333334</ele><time>2026-04-09T12:06:19.999Z</time></trkpt><trkpt lat="45.89994030517387" lon="11.946732534359851"><ele>171.0</ele><time>2026-04-09T12:06:20.999Z</time></trkpt><trkpt lat="45.899925123766195" lon="11.946502636533129"><ele>172.25</ele><time>2026-04-09T12:06:21.999Z</time></trkpt><trkpt lat="45.89991289113915" lon="11.946298133033034"><ele>173.5</ele><time>2026-04-09T12:06:22.999Z</time></trkpt><trkpt lat="45.89990476380639" lon="11.946104068281779"><ele>174.75</ele><time>2026-04-09T12:06:23.999Z</time></trkpt><trkpt lat="45.899893487919975" lon="11.945920027435788"><ele>176.0</ele><time>2026-04-09T12:06:24.999Z</time></trkpt><trkpt lat="45.899881565910114" lon="11.945737755178289"><ele>176.75</ele><time>2026-04-09T12:06:25.999Z</time></trkpt><trkpt lat="45.89986745344177" lon="11.945556859409033"><ele>177.5</ele><time>2026-04-09T12:06:26.999Z</time></trkpt><trkpt lat="45.89985205080667" lon="11.945377994631082"><ele>178.25</ele><time>2026-04-09T12:06:27.999Z</time></trkpt><trkpt lat="45.899843351396434" lon="11.945199967863035"><ele>179.0</ele><time>2026-04-09T12:06:28.999Z</time></trkpt><trkpt lat="45.899836488366596" lon="11.94501529095509"><ele>179.0</ele><time>2026-04-09T12:06:29.999Z</time></trkpt><trkpt lat="45.89982645190436" lon="11.944824357473804"><ele>179.0</ele><time>2026-04-09T12:06:30.999Z</time></trkpt><trkpt lat="45.89981372163966" lon="11.944630171381116"><ele>179.0</ele><time>2026-04-09T12:06:31.999Z</time></trkpt><trkpt lat="45.89979889284213" lon="11.944431155730284"><ele>179.0</ele><time>2026-04-09T12:06:32.999Z</time></trkpt><trkpt lat="45.89979632252153" lon="11.94422732072451"><ele>178.25</ele><time>2026-04-09T12:06:33.999Z</time></trkpt><trkpt lat="45.89977912730065" lon="11.944036464318867"><ele>177.5</ele><time>2026-04-09T12:06:34.999Z</time></trkpt><trkpt lat="45.89977311615839" lon="11.94385843536781"><ele>176.75</ele><time>2026-04-09T12:06:35.999Z</time></trkpt><trkpt lat="45.899768632377985" lon="11.943696384276755"><ele>176.0</ele><time>2026-04-09T12:06:36.999Z</time></trkpt><trkpt lat="45.89975602008358" lon="11.943558859738664"><ele>176.0</ele><time>2026-04-09T12:06:37.999Z</time></trkpt><trkpt lat="45.8997482628219" lon="11.943436360939627"><ele>176.0</ele><time>2026-04-09T12:06:38.999Z</time></trkpt><trkpt lat="45.89975065306546" lon="11.943321692357426"><ele>176.0</ele><time>2026-04-09T12:06:39.999Z</time></trkpt><trkpt lat="45.89977787120904" lon="11.943226259174494"><ele>176.0</ele><time>2026-04-09T12:06:40.999Z</time></trkpt><trkpt lat="45.899816020587224" lon="11.9431296621415"><ele>176.0</ele><time>2026-04-09T12:06:41.999Z</time></trkpt><trkpt lat="45.89987332782883" lon="11.943051769826834"><ele>176.0</ele><time>2026-04-09T12:06:42.999Z</time></trkpt><trkpt lat="45.89993901382443" lon="11.942998817553867"><ele>178.0</ele><time>2026-04-09T12:06:43.999Z</time></trkpt><trkpt lat="45.90002316919966" lon="11.942968888187975"><ele>180.0</ele><time>2026-04-09T12:06:44.999Z</time></trkpt><trkpt lat="45.900121873685414" lon="11.942987496513382"><ele>182.0</ele><time>2026-04-09T12:06:45.999Z</time></trkpt><trkpt lat="45.90026294793006" lon="11.942986546590694"><ele>184.0</ele><time>2026-04-09T12:06:46.999Z</time></trkpt><trkpt lat="45.900423331339205" lon="11.942970965677116"><ele>184.33333333333334</ele><time>2026-04-09T12:06:47.999Z</time></trkpt><trkpt lat="45.90057589934812" lon="11.942945450517048"><ele>184.66666666666666</ele><time>2026-04-09T12:06:48.999Z</time></trkpt><trkpt lat="45.9007488453532" lon="11.942910881736907"><ele>185.0</ele><time>2026-04-09T12:06:49.999Z</time></trkpt><trkpt lat="45.90093230730968" lon="11.942853371630216"><ele>185.0</ele><time>2026-04-09T12:06:50.999Z</time></trkpt><trkpt lat="45.9011154658407" lon="11.942822098022553"><ele>185.0</ele><time>2026-04-09T12:06:51.999Z</time></trkpt><trkpt lat="45.90128459478752" lon="11.942787213927417"><ele>185.0</ele><time>2026-04-09T12:06:52.999Z</time></trkpt><trkpt lat="45.901454438265795" lon="11.942747394501268"><ele>185.0</ele><time>2026-04-09T12:06:53.999Z</time></trkpt><trkpt lat="45.90163475237512" lon="11.942710002467141"><ele>185.0</ele><time>2026-04-09T12:06:54.999Z</time></trkpt><trkpt lat="45.90182831563024" lon="11.942665150341785"><ele>185.0</ele><time>2026-04-09T12:06:55.999Z</time></trkpt><trkpt lat="45.90202914740514" lon="11.942606484157748"><ele>186.0</ele><time>2026-04-09T12:06:56.999Z</time></trkpt><trkpt lat="45.90222065115109" lon="11.942578273069948"><ele>187.0</ele><time>2026-04-09T12:06:57.999Z</time></trkpt><trkpt lat="45.90238882335125" lon="11.942511194227249"><ele>188.0</ele><time>2026-04-09T12:06:58.999Z</time></trkpt><trkpt lat="45.902545756018704" lon="11.942470496848564"><ele>188.5</ele><time>2026-04-09T12:06:59.999Z</time></trkpt><trkpt lat="45.902693213617724" lon="11.942432089013275"><ele>189.0</ele><time>2026-04-09T12:07:00.999Z</time></trkpt><trkpt lat="45.90283443840225" lon="11.942387802142736"><ele>189.5</ele><time>2026-04-09T12:07:01.999Z</time></trkpt><trkpt lat="45.90297677105527" lon="11.942334700333305"><ele>190.0</ele><time>2026-04-09T12:07:02.999Z</time></trkpt><trkpt lat="45.90312562225988" lon="11.9422786797371"><ele>190.0</ele><time>2026-04-09T12:07:03.999Z</time></trkpt><trkpt lat="45.90327772493284" lon="11.94222378663495"><ele>190.0</ele><time>2026-04-09T12:07:04.999Z</time></trkpt><trkpt lat="45.9034337138863" lon="11.942166544102474"><ele>190.0</ele><time>2026-04-09T12:07:05.999Z</time></trkpt><trkpt lat="45.903591669221015" lon="11.942096531579924"><ele>189.66666666666669</ele><time>2026-04-09T12:07:06.999Z</time></trkpt><trkpt lat="45.90375220656463" lon="11.942021671884834"><ele>189.33333333333334</ele><time>2026-04-09T12:07:07.999Z</time></trkpt><trkpt lat="45.90391957113694" lon="11.941950891110366"><ele>189.0</ele><time>2026-04-09T12:07:08.999Z</time></trkpt><trkpt lat="45.90408071975812" lon="11.941883986106367"><ele>189.0</ele><time>2026-04-09T12:07:09.999Z</time></trkpt><trkpt lat="45.9042260542518" lon="11.941824364873868"><ele>189.0</ele><time>2026-04-09T12:07:10.999Z</time></trkpt><trkpt lat="45.90436675568062" lon="11.941765713895947"><ele>189.0</ele><time>2026-04-09T12:07:11.999Z</time></trkpt><trkpt lat="45.904498215502876" lon="11.941705719922556"><ele>189.0</ele><time>2026-04-09T12:07:12.999Z</time></trkpt><trkpt lat="45.904619797232435" lon="11.941665070651855"><ele>189.2</ele><time>2026-04-09T12:07:13.999Z</time></trkpt><trkpt lat="45.90472372175704" lon="11.941616527826273"><ele>189.39999999999998</ele><time>2026-04-09T12:07:14.999Z</time></trkpt><trkpt lat="45.904819588027685" lon="11.941560555456414"><ele>189.6</ele><time>2026-04-09T12:07:16Z</time></trkpt><trkpt lat="45.90490868884982" lon="11.941512356671106"><ele>189.8</ele><time>2026-04-09T12:07:17Z</time></trkpt><trkpt lat="45.90498082675664" lon="11.94146453941097"><ele>190.0</ele><time>2026-04-09T12:07:18Z</time></trkpt><trkpt lat="45.905040557972086" lon="11.94142890758075"><ele>188.6</ele><time>2026-04-09T12:07:19Z</time></trkpt><trkpt lat="45.905142926451134" lon="11.941393905294358"><ele>187.2</ele><time>2026-04-09T12:07:21Z</time></trkpt><trkpt lat="45.90525417511151" lon="11.941381853999317"><ele>185.8</ele><time>2026-04-09T12:07:23Z</time></trkpt><trkpt lat="45.905327500166685" lon="11.94137484198473"><ele>184.4</ele><time>2026-04-09T12:07:24Z</time></trkpt><trkpt lat="45.90541631662103" lon="11.941385542144847"><ele>183.0</ele><time>2026-04-09T12:07:25Z</time></trkpt><trkpt lat="45.90552446727742" lon="11.941409692182932"><ele>183.0</ele><time>2026-04-09T12:07:26Z</time></trkpt><trkpt lat="45.9056583658332" lon="11.941412876714347"><ele>183.0</ele><time>2026-04-09T12:07:27Z</time></trkpt><trkpt lat="45.905783181138716" lon="11.94147247666404"><ele>183.0</ele><time>2026-04-09T12:07:28Z</time></trkpt><trkpt lat="45.90590184116147" lon="11.941511037610164"><ele>183.0</ele><time>2026-04-09T12:07:29Z</time></trkpt><trkpt lat="45.90602981293819" lon="11.941566016568927"><ele>182.0</ele><time>2026-04-09T12:07:30Z</time></trkpt><trkpt lat="45.90615458924709" lon="11.941633928077858"><ele>181.0</ele><time>2026-04-09T12:07:31Z</time></trkpt><trkpt lat="45.906290133924124" lon="11.941704300156296"><ele>180.0</ele><time>2026-04-09T12:07:32Z</time></trkpt><trkpt lat="45.90643128959336" lon="11.941773968901467"><ele>179.0</ele><time>2026-04-09T12:07:33Z</time></trkpt><trkpt lat="45.906577608764785" lon="11.94183919521585"><ele>178.66666666666666</ele><time>2026-04-09T12:07:34Z</time></trkpt><trkpt lat="45.90673349725102" lon="11.941907668688795"><ele>178.33333333333334</ele><time>2026-04-09T12:07:35Z</time></trkpt><trkpt lat="45.90689345392077" lon="11.941979627105928"><ele>178.0</ele><time>2026-04-09T12:07:36Z</time></trkpt><trkpt lat="45.90705011643599" lon="11.942046769233109"><ele>178.0</ele><time>2026-04-09T12:07:37Z</time></trkpt><trkpt lat="45.9072025844387" lon="11.942114933816677"><ele>178.0</ele><time>2026-04-09T12:07:38Z</time></trkpt><trkpt lat="45.90736053266042" lon="11.942187956730551"><ele>178.0</ele><time>2026-04-09T12:07:39Z</time></trkpt><trkpt lat="45.90752402511412" lon="11.942262684000388"><ele>179.0</ele><time>2026-04-09T12:07:40Z</time></trkpt><trkpt lat="45.9076908115507" lon="11.942336118198853"><ele>180.0</ele><time>2026-04-09T12:07:41Z</time></trkpt><trkpt lat="45.9078599430136" lon="11.942400654481652"><ele>181.0</ele><time>2026-04-09T12:07:42Z</time></trkpt><trkpt lat="45.90802931370656" lon="11.94245006909873"><ele>181.0</ele><time>2026-04-09T12:07:43Z</time></trkpt><trkpt lat="45.908201167131715" lon="11.942468020519673"><ele>181.0</ele><time>2026-04-09T12:07:44Z</time></trkpt><trkpt lat="45.908375061942344" lon="11.942447762489984"><ele>181.0</ele><time>2026-04-09T12:07:45Z</time></trkpt><trkpt lat="45.908550975007884" lon="11.942392828517574"><ele>182.33333333333334</ele><time>2026-04-09T12:07:46Z</time></trkpt><trkpt lat="45.90872239646242" lon="11.942321271091826"><ele>183.66666666666666</ele><time>2026-04-09T12:07:47Z</time></trkpt><trkpt lat="45.90889438385526" lon="11.942276259096126"><ele>185.0</ele><time>2026-04-09T12:07:48Z</time></trkpt><trkpt lat="45.90906356948192" lon="11.942217491202276"><ele>185.0</ele><time>2026-04-09T12:07:49Z</time></trkpt><trkpt lat="45.9092360968051" lon="11.942157432347832"><ele>185.0</ele><time>2026-04-09T12:07:50Z</time></trkpt><trkpt lat="45.90944603236342" lon="11.942083362991104"><ele>185.0</ele><time>2026-04-09T12:07:51Z</time></trkpt><trkpt lat="45.90968858635068" lon="11.94199825820482"><ele>183.0</ele><time>2026-04-09T12:07:52Z</time></trkpt><trkpt lat="45.909926588437585" lon="11.941914750546752"><ele>181.0</ele><time>2026-04-09T12:07:53Z</time></trkpt><trkpt lat="45.91012601184431" lon="11.941845054707086"><ele>180.0</ele><time>2026-04-09T12:07:54Z</time></trkpt><trkpt lat="45.91030678855551" lon="11.941763275516976"><ele>179.0</ele><time>2026-04-09T12:07:55Z</time></trkpt><trkpt lat="45.91047732428622" lon="11.941712167170081"><ele>178.0</ele><time>2026-04-09T12:07:56Z</time></trkpt><trkpt lat="45.91064306123902" lon="11.941689032929299"><ele>182.66666666666669</ele><time>2026-04-09T12:07:57Z</time></trkpt><trkpt lat="45.910812718608845" lon="11.941645918374444"><ele>187.33333333333334</ele><time>2026-04-09T12:07:58Z</time></trkpt><trkpt lat="45.910987781158944" lon="11.94160787554539"><ele>192.0</ele><time>2026-04-09T12:07:59Z</time></trkpt><trkpt lat="45.91114755809935" lon="11.941574728178026"><ele>192.0</ele><time>2026-04-09T12:08:00Z</time></trkpt><trkpt lat="45.911289458479125" lon="11.941523287768923"><ele>192.0</ele><time>2026-04-09T12:08:01Z</time></trkpt><trkpt lat="45.91143337060877" lon="11.941495490257697"><ele>192.0</ele><time>2026-04-09T12:08:02Z</time></trkpt><trkpt lat="45.91158493419638" lon="11.941466946038402"><ele>192.0</ele><time>2026-04-09T12:08:03Z</time></trkpt><trkpt lat="45.91174359185416" lon="11.941438226338414"><ele>191.33333333333334</ele><time>2026-04-09T12:08:04Z</time></trkpt><trkpt lat="45.91190689802421" lon="11.94140512157275"><ele>190.66666666666669</ele><time>2026-04-09T12:08:05Z</time></trkpt><trkpt lat="45.91207034865064" lon="11.941373073087458"><ele>190.0</ele><time>2026-04-09T12:08:06Z</time></trkpt><trkpt lat="45.912227577367545" lon="11.941333734107662"><ele>190.0</ele><time>2026-04-09T12:08:07Z</time></trkpt><trkpt lat="45.91237950184018" lon="11.9413063905313"><ele>190.0</ele><time>2026-04-09T12:08:08Z</time></trkpt><trkpt lat="45.91253289528644" lon="11.941282908764284"><ele>190.0</ele><time>2026-04-09T12:08:09Z</time></trkpt><trkpt lat="45.91268422398807" lon="11.941268454822788"><ele>191.66666666666669</ele><time>2026-04-09T12:08:10Z</time></trkpt><trkpt lat="45.91286293343109" lon="11.941284683806991"><ele>193.33333333333334</ele><time>2026-04-09T12:08:11Z</time></trkpt><trkpt lat="45.91304750254438" lon="11.941299746479578"><ele>195.0</ele><time>2026-04-09T12:08:12Z</time></trkpt><trkpt lat="45.91325263042134" lon="11.94133071535557"><ele>196.0</ele><time>2026-04-09T12:08:13Z</time></trkpt><trkpt lat="45.91347152477974" lon="11.941365003234141"><ele>197.0</ele><time>2026-04-09T12:08:14Z</time></trkpt><trkpt lat="45.91365284792701" lon="11.941384332000185"><ele>198.0</ele><time>2026-04-09T12:08:15Z</time></trkpt><trkpt lat="45.913808970329065" lon="11.941412714689404"><ele>198.0</ele><time>2026-04-09T12:08:16Z</time></trkpt><trkpt lat="45.91396078554995" lon="11.941434288994802"><ele>198.0</ele><time>2026-04-09T12:08:17Z</time></trkpt><trkpt lat="45.91413226006442" lon="11.941463211377037"><ele>198.0</ele><time>2026-04-09T12:08:18Z</time></trkpt><trkpt lat="45.91432898482154" lon="11.941481430881332"><ele>203.0</ele><time>2026-04-09T12:08:18.999Z</time></trkpt><trkpt lat="45.91454572923069" lon="11.94153758638104"><ele>208.0</ele><time>2026-04-09T12:08:19.999Z</time></trkpt><trkpt lat="45.914782409248176" lon="11.94157533570867"><ele>208.0</ele><time>2026-04-09T12:08:20.999Z</time></trkpt><trkpt lat="45.91503985005841" lon="11.941593052548379"><ele>208.0</ele><time>2026-04-09T12:08:21.999Z</time></trkpt><trkpt lat="45.915319236989504" lon="11.941642968419188"><ele>206.5</ele><time>2026-04-09T12:08:22.999Z</time></trkpt><trkpt lat="45.915567582226366" lon="11.941691387873748"><ele>205.0</ele><time>2026-04-09T12:08:23.999Z</time></trkpt><trkpt lat="45.915834543072826" lon="11.941733824334777"><ele>207.5</ele><time>2026-04-09T12:08:24.999Z</time></trkpt><trkpt lat="45.916116429662935" lon="11.941772238654881"><ele>210.0</ele><time>2026-04-09T12:08:25.999Z</time></trkpt><trkpt lat="45.91640779761806" lon="11.941816373970145"><ele>210.0</ele><time>2026-04-09T12:08:26.999Z</time></trkpt><trkpt lat="45.916694396872536" lon="11.941864161545432"><ele>210.0</ele><time>2026-04-09T12:08:27.999Z</time></trkpt><trkpt lat="45.91694940392098" lon="11.94190568923359"><ele>214.5</ele><time>2026-04-09T12:08:28.999Z</time></trkpt><trkpt lat="45.917183749945146" lon="11.941939973324516"><ele>219.0</ele><time>2026-04-09T12:08:29.999Z</time></trkpt><trkpt lat="45.91740462878001" lon="11.94197772421178"><ele>220.0</ele><time>2026-04-09T12:08:30.999Z</time></trkpt><trkpt lat="45.91761843304439" lon="11.942028560256304"><ele>221.0</ele><time>2026-04-09T12:08:31.999Z</time></trkpt><trkpt lat="45.917818686217835" lon="11.942103752294605"><ele>222.0</ele><time>2026-04-09T12:08:32.999Z</time></trkpt><trkpt lat="45.91801622247661" lon="11.942205440999981"><ele>222.0</ele><time>2026-04-09T12:08:33.999Z</time></trkpt><trkpt lat="45.91820692206349" lon="11.942338739139048"><ele>222.0</ele><time>2026-04-09T12:08:34.999Z</time></trkpt><trkpt lat="45.918400422313624" lon="11.942502634782576"><ele>222.0</ele><time>2026-04-09T12:08:35.999Z</time></trkpt><trkpt lat="45.91860526777272" lon="11.942696303494946"><ele>221.0</ele><time>2026-04-09T12:08:36.999Z</time></trkpt><trkpt lat="45.91881618411554" lon="11.942908590650338"><ele>220.0</ele><time>2026-04-09T12:08:37.999Z</time></trkpt><trkpt lat="45.919032613103454" lon="11.943135730348601"><ele>222.5</ele><time>2026-04-09T12:08:38.999Z</time></trkpt><trkpt lat="45.919260570986665" lon="11.943360691953982"><ele>225.0</ele><time>2026-04-09T12:08:39.999Z</time></trkpt><trkpt lat="45.91948685632594" lon="11.943578440300476"><ele>225.0</ele><time>2026-04-09T12:08:40.999Z</time></trkpt><trkpt lat="45.919726948131476" lon="11.943800679694016"><ele>225.0</ele><time>2026-04-09T12:08:41.999Z</time></trkpt><trkpt lat="45.91995612010704" lon="11.94401977176936"><ele>225.5</ele><time>2026-04-09T12:08:42.999Z</time></trkpt><trkpt lat="45.920166344254575" lon="11.944226448606633"><ele>226.0</ele><time>2026-04-09T12:08:43.999Z</time></trkpt><trkpt lat="45.920355819688666" lon="11.944426512946563"><ele>226.0</ele><time>2026-04-09T12:08:44.999Z</time></trkpt><trkpt lat="45.920538882886845" lon="11.94462245993282"><ele>226.0</ele><time>2026-04-09T12:08:45.999Z</time></trkpt><trkpt lat="45.92071711949102" lon="11.944808929164079"><ele>226.0</ele><time>2026-04-09T12:08:46.999Z</time></trkpt><trkpt lat="45.92087555222273" lon="11.94497185670341"><ele>226.0</ele><time>2026-04-09T12:08:47.999Z</time></trkpt><trkpt lat="45.92103296339875" lon="11.94511642345033"><ele>226.0</ele><time>2026-04-09T12:08:48.999Z</time></trkpt><trkpt lat="45.92119311761731" lon="11.945242066714657"><ele>226.0</ele><time>2026-04-09T12:08:49.999Z</time></trkpt><trkpt lat="45.921357258953414" lon="11.945346823077365"><ele>226.0</ele><time>2026-04-09T12:08:50.999Z</time></trkpt><trkpt lat="45.92153075819759" lon="11.945426414658408"><ele>226.0</ele><time>2026-04-09T12:08:51.999Z</time></trkpt><trkpt lat="45.921714046692685" lon="11.945483869851016"><ele>226.0</ele><time>2026-04-09T12:08:52.999Z</time></trkpt><trkpt lat="45.92190968429023" lon="11.945521284317513"><ele>226.33333333333331</ele><time>2026-04-09T12:08:53.999Z</time></trkpt><trkpt lat="45.922108709016975" lon="11.945535749528833"><ele>226.66666666666669</ele><time>2026-04-09T12:08:54.999Z</time></trkpt><trkpt lat="45.922301783075035" lon="11.945532764488803"><ele>227.0</ele><time>2026-04-09T12:08:55.999Z</time></trkpt><trkpt lat="45.92248421278823" lon="11.945484078456841"><ele>225.33333333333334</ele><time>2026-04-09T12:08:56.999Z</time></trkpt><trkpt lat="45.92267589865048" lon="11.945414587702432"><ele>223.66666666666669</ele><time>2026-04-09T12:08:57.999Z</time></trkpt><trkpt lat="45.92286687438679" lon="11.945328857538376"><ele>222.0</ele><time>2026-04-09T12:08:58.999Z</time></trkpt><trkpt lat="45.92306257866466" lon="11.945233452936803"><ele>222.0</ele><time>2026-04-09T12:08:59.999Z</time></trkpt><trkpt lat="45.923239075170095" lon="11.945071637669649"><ele>222.0</ele><time>2026-04-09T12:09:00.999Z</time></trkpt><trkpt lat="45.92342021638093" lon="11.944901332442122"><ele>222.0</ele><time>2026-04-09T12:09:01.999Z</time></trkpt><trkpt lat="45.923613583268185" lon="11.944695494380511"><ele>223.5</ele><time>2026-04-09T12:09:02.999Z</time></trkpt><trkpt lat="45.92381831554522" lon="11.94445736651889"><ele>225.0</ele><time>2026-04-09T12:09:03.999Z</time></trkpt><trkpt lat="45.92403731215065" lon="11.944201059165964"><ele>225.5</ele><time>2026-04-09T12:09:04.999Z</time></trkpt><trkpt lat="45.924232173902915" lon="11.943983861453598"><ele>226.0</ele><time>2026-04-09T12:09:05.999Z</time></trkpt><trkpt lat="45.92441810556018" lon="11.94378258168853"><ele>226.0</ele><time>2026-04-09T12:09:06.999Z</time></trkpt><trkpt lat="45.92460435853299" lon="11.94357631399816"><ele>226.0</ele><time>2026-04-09T12:09:07.999Z</time></trkpt><trkpt lat="45.92480443051748" lon="11.943390950691262"><ele>227.0</ele><time>2026-04-09T12:09:08.999Z</time></trkpt><trkpt lat="45.92498893786293" lon="11.943185880932745"><ele>228.0</ele><time>2026-04-09T12:09:09.999Z</time></trkpt><trkpt lat="45.92516509013168" lon="11.942968756273041"><ele>227.0</ele><time>2026-04-09T12:09:10.999Z</time></trkpt><trkpt lat="45.925344496531125" lon="11.942774038307265"><ele>226.0</ele><time>2026-04-09T12:09:11.999Z</time></trkpt><trkpt lat="45.92552128481168" lon="11.942577082276571"><ele>225.0</ele><time>2026-04-09T12:09:12.999Z</time></trkpt><trkpt lat="45.92569152944202" lon="11.94237466046261"><ele>225.0</ele><time>2026-04-09T12:09:13.999Z</time></trkpt><trkpt lat="45.92585698157026" lon="11.942168051948334"><ele>225.0</ele><time>2026-04-09T12:09:14.999Z</time></trkpt><trkpt lat="45.92601749184563" lon="11.941949660027928"><ele>225.0</ele><time>2026-04-09T12:09:15.999Z</time></trkpt><trkpt lat="45.92617259249979" lon="11.941710072663959"><ele>221.5</ele><time>2026-04-09T12:09:16.999Z</time></trkpt><trkpt lat="45.92632210280337" lon="11.941447999562046"><ele>218.0</ele><time>2026-04-09T12:09:17.999Z</time></trkpt><trkpt lat="45.926468018933036" lon="11.941162687749294"><ele>218.0</ele><time>2026-04-09T12:09:18.999Z</time></trkpt><trkpt lat="45.926596186217814" lon="11.940883801662414"><ele>218.0</ele><time>2026-04-09T12:09:19.999Z</time></trkpt><trkpt lat="45.926721962065415" lon="11.940581140938681"><ele>215.5</ele><time>2026-04-09T12:09:20.999Z</time></trkpt><trkpt lat="45.92685133014634" lon="11.94023722580382"><ele>213.0</ele><time>2026-04-09T12:09:22Z</time></trkpt><trkpt lat="45.92698512351253" lon="11.939871571406437"><ele>213.0</ele><time>2026-04-09T12:09:23Z</time></trkpt><trkpt lat="45.92711837615163" lon="11.93952223403"><ele>213.0</ele><time>2026-04-09T12:09:24Z</time></trkpt><trkpt lat="45.927238626151336" lon="11.939204363150008"><ele>214.5</ele><time>2026-04-09T12:09:25Z</time></trkpt><trkpt lat="45.927349304949885" lon="11.938903098359155"><ele>216.0</ele><time>2026-04-09T12:09:26Z</time></trkpt><trkpt lat="45.92745774820557" lon="11.938624705637274"><ele>216.66666666666669</ele><time>2026-04-09T12:09:27Z</time></trkpt><trkpt lat="45.9275589046177" lon="11.938353276898738"><ele>217.33333333333334</ele><time>2026-04-09T12:09:28Z</time></trkpt><trkpt lat="45.92766292250308" lon="11.938102514729389"><ele>218.0</ele><time>2026-04-09T12:09:29Z</time></trkpt><trkpt lat="45.92776929363237" lon="11.937862028376383"><ele>217.0</ele><time>2026-04-09T12:09:30Z</time></trkpt><trkpt lat="45.92788312770313" lon="11.93763249123048"><ele>216.0</ele><time>2026-04-09T12:09:31Z</time></trkpt><trkpt lat="45.92801666670562" lon="11.937440073800138"><ele>215.0</ele><time>2026-04-09T12:09:32Z</time></trkpt><trkpt lat="45.928135335245926" lon="11.937247328177024"><ele>215.0</ele><time>2026-04-09T12:09:33Z</time></trkpt><trkpt lat="45.92826227582125" lon="11.937083367533267"><ele>215.0</ele><time>2026-04-09T12:09:34Z</time></trkpt><trkpt lat="45.92839459405865" lon="11.936924583624425"><ele>215.0</ele><time>2026-04-09T12:09:35Z</time></trkpt><trkpt lat="45.92854659530648" lon="11.93679413539124"><ele>215.33333333333334</ele><time>2026-04-09T12:09:36Z</time></trkpt><trkpt lat="45.928694620009516" lon="11.936665709058476"><ele>215.66666666666669</ele><time>2026-04-09T12:09:37Z</time></trkpt><trkpt lat="45.92882635159507" lon="11.936535036288458"><ele>216.0</ele><time>2026-04-09T12:09:38Z</time></trkpt><trkpt lat="45.92895904621579" lon="11.936438002673514"><ele>216.0</ele><time>2026-04-09T12:09:39Z</time></trkpt><trkpt lat="45.929084324992445" lon="11.936337874884249"><ele>216.0</ele><time>2026-04-09T12:09:40Z</time></trkpt><trkpt lat="45.9292094416787" lon="11.93623895712421"><ele>216.0</ele><time>2026-04-09T12:09:41Z</time></trkpt><trkpt lat="45.92933841355704" lon="11.936138942271121"><ele>216.0</ele><time>2026-04-09T12:09:42Z</time></trkpt><trkpt lat="45.92946226364367" lon="11.936041025444853"><ele>216.25</ele><time>2026-04-09T12:09:43Z</time></trkpt><trkpt lat="45.9295848105293" lon="11.935946833637685"><ele>216.5</ele><time>2026-04-09T12:09:44Z</time></trkpt><trkpt lat="45.92970859103336" lon="11.93585711958754"><ele>216.75</ele><time>2026-04-09T12:09:45Z</time></trkpt><trkpt lat="45.929842176426995" lon="11.93578303043505"><ele>217.0</ele><time>2026-04-09T12:09:46Z</time></trkpt><trkpt lat="45.92995782483146" lon="11.935654024218724"><ele>216.5</ele><time>2026-04-09T12:09:47Z</time></trkpt><trkpt lat="45.93007837809125" lon="11.935533330955444"><ele>216.0</ele><time>2026-04-09T12:09:48Z</time></trkpt><trkpt lat="45.93020619242272" lon="11.93542889628856"><ele>215.5</ele><time>2026-04-09T12:09:49Z</time></trkpt><trkpt lat="45.93029868504104" lon="11.935272476018278"><ele>215.0</ele><time>2026-04-09T12:09:50Z</time></trkpt><trkpt lat="45.930394516604565" lon="11.935140311578795"><ele>215.5</ele><time>2026-04-09T12:09:51Z</time></trkpt><trkpt lat="45.93048572770704" lon="11.935005310711755"><ele>216.0</ele><time>2026-04-09T12:09:52Z</time></trkpt><trkpt lat="45.930575455840625" lon="11.934862014086068"><ele>216.5</ele><time>2026-04-09T12:09:53Z</time></trkpt><trkpt lat="45.93067864076224" lon="11.93472539328915"><ele>217.0</ele><time>2026-04-09T12:09:54Z</time></trkpt><trkpt lat="45.93076168513987" lon="11.934556265699955"><ele>217.0</ele><time>2026-04-09T12:09:55Z</time></trkpt><trkpt lat="45.9308272598863" lon="11.934368457149015"><ele>217.0</ele><time>2026-04-09T12:09:56Z</time></trkpt><trkpt lat="45.93090877656863" lon="11.934216582607027"><ele>217.0</ele><time>2026-04-09T12:09:57Z</time></trkpt><trkpt lat="45.930966081043145" lon="11.934067260038871"><ele>217.0</ele><time>2026-04-09T12:09:58Z</time></trkpt><trkpt lat="45.93101641878564" lon="11.933912649163872"><ele>216.5</ele><time>2026-04-09T12:09:59Z</time></trkpt><trkpt lat="45.93108022647795" lon="11.933748821085736"><ele>216.0</ele><time>2026-04-09T12:10:00Z</time></trkpt><trkpt lat="45.93114857848837" lon="11.933559783711726"><ele>215.5</ele><time>2026-04-09T12:10:01Z</time></trkpt><trkpt lat="45.931220866846296" lon="11.933355448385347"><ele>215.0</ele><time>2026-04-09T12:10:02Z</time></trkpt><trkpt lat="45.93129719593699" lon="11.933151132584095"><ele>215.0</ele><time>2026-04-09T12:10:03Z</time></trkpt><trkpt lat="45.93137259965464" lon="11.932950460618695"><ele>215.0</ele><time>2026-04-09T12:10:04Z</time></trkpt><trkpt lat="45.93143998691466" lon="11.932766200797895"><ele>215.0</ele><time>2026-04-09T12:10:05Z</time></trkpt><trkpt lat="45.93150123133258" lon="11.93259296206897"><ele>215.0</ele><time>2026-04-09T12:10:06Z</time></trkpt><trkpt lat="45.93155966577954" lon="11.932406215660917"><ele>215.66666666666669</ele><time>2026-04-09T12:10:07Z</time></trkpt><trkpt lat="45.93162381466358" lon="11.932172762980164"><ele>216.33333333333331</ele><time>2026-04-09T12:10:08Z</time></trkpt><trkpt lat="45.93169295808451" lon="11.93190682721896"><ele>217.0</ele><time>2026-04-09T12:10:09Z</time></trkpt><trkpt lat="45.9317521795946" lon="11.931671468117603"><ele>215.66666666666666</ele><time>2026-04-09T12:10:10Z</time></trkpt><trkpt lat="45.93180575442594" lon="11.931451279034626"><ele>214.33333333333331</ele><time>2026-04-09T12:10:11Z</time></trkpt><trkpt lat="45.931849763019294" lon="11.931240992642124"><ele>213.0</ele><time>2026-04-09T12:10:12Z</time></trkpt><trkpt lat="45.931893278939036" lon="11.931041167268843"><ele>211.66666666666669</ele><time>2026-04-09T12:10:13Z</time></trkpt><trkpt lat="45.931938819888266" lon="11.930833989452452"><ele>210.33333333333334</ele><time>2026-04-09T12:10:14Z</time></trkpt><trkpt lat="45.931983610095266" lon="11.930610114562093"><ele>209.0</ele><time>2026-04-09T12:10:15Z</time></trkpt><trkpt lat="45.932030671444885" lon="11.930378012889415"><ele>209.0</ele><time>2026-04-09T12:10:16Z</time></trkpt><trkpt lat="45.93207640664421" lon="11.930132156525913"><ele>209.0</ele><time>2026-04-09T12:10:17Z</time></trkpt><trkpt lat="45.932126141688954" lon="11.929878186407837"><ele>209.0</ele><time>2026-04-09T12:10:18Z</time></trkpt><trkpt lat="45.93217797539107" lon="11.92962473604682"><ele>209.33333333333334</ele><time>2026-04-09T12:10:19Z</time></trkpt><trkpt lat="45.93222716216674" lon="11.929378199293875"><ele>209.66666666666669</ele><time>2026-04-09T12:10:20Z</time></trkpt><trkpt lat="45.93228010443925" lon="11.929122990574044"><ele>210.0</ele><time>2026-04-09T12:10:21Z</time></trkpt><trkpt lat="45.932339705516156" lon="11.928858093710454"><ele>210.0</ele><time>2026-04-09T12:10:22Z</time></trkpt><trkpt lat="45.93240591078478" lon="11.928592188638742"><ele>210.0</ele><time>2026-04-09T12:10:23Z</time></trkpt><trkpt lat="45.93248019627743" lon="11.92832991851825"><ele>210.0</ele><time>2026-04-09T12:10:23.999Z</time></trkpt><trkpt lat="45.932565519059125" lon="11.928070634283467"><ele>204.66666666666669</ele><time>2026-04-09T12:10:24.999Z</time></trkpt><trkpt lat="45.93265525542789" lon="11.927831671786464"><ele>199.33333333333334</ele><time>2026-04-09T12:10:25.999Z</time></trkpt><trkpt lat="45.932746554916186" lon="11.927599855001267"><ele>194.0</ele><time>2026-04-09T12:10:26.999Z</time></trkpt><trkpt lat="45.93285047684786" lon="11.927362922345635"><ele>194.0</ele><time>2026-04-09T12:10:27.999Z</time></trkpt><trkpt lat="45.93296961737883" lon="11.927125122788725"><ele>194.0</ele><time>2026-04-09T12:10:28.999Z</time></trkpt><trkpt lat="45.93309862064453" lon="11.926885967752487"><ele>194.0</ele><time>2026-04-09T12:10:29.999Z</time></trkpt><trkpt lat="45.93323006347102" lon="11.926646784077528"><ele>190.66666666666669</ele><time>2026-04-09T12:10:30.999Z</time></trkpt><trkpt lat="45.93335110184158" lon="11.926425469710052"><ele>187.33333333333334</ele><time>2026-04-09T12:10:31.999Z</time></trkpt><trkpt lat="45.93346396812153" lon="11.926208357434133"><ele>184.0</ele><time>2026-04-09T12:10:32.999Z</time></trkpt><trkpt lat="45.93357613070377" lon="11.92599591120557"><ele>187.0</ele><time>2026-04-09T12:10:33.999Z</time></trkpt><trkpt lat="45.93369957257911" lon="11.92576054566905"><ele>190.0</ele><time>2026-04-09T12:10:34.999Z</time></trkpt><trkpt lat="45.93383178849479" lon="11.92550901096574"><ele>193.0</ele><time>2026-04-09T12:10:35.999Z</time></trkpt><trkpt lat="45.93396911861623" lon="11.925255050027205"><ele>189.0</ele><time>2026-04-09T12:10:36.999Z</time></trkpt><trkpt lat="45.93410836522824" lon="11.924993177003696"><ele>185.0</ele><time>2026-04-09T12:10:37.999Z</time></trkpt><trkpt lat="45.934245722169294" lon="11.924733133090758"><ele>185.0</ele><time>2026-04-09T12:10:38.999Z</time></trkpt><trkpt lat="45.934382378235235" lon="11.924479364033298"><ele>185.0</ele><time>2026-04-09T12:10:39.999Z</time></trkpt><trkpt lat="45.934517660414784" lon="11.92423106124977"><ele>185.0</ele><time>2026-04-09T12:10:40.999Z</time></trkpt><trkpt lat="45.93464920277372" lon="11.923991262637369"><ele>187.33333333333331</ele><time>2026-04-09T12:10:41.999Z</time></trkpt><trkpt lat="45.934774305238555" lon="11.92375875380567"><ele>189.66666666666666</ele><time>2026-04-09T12:10:42.999Z</time></trkpt><trkpt lat="45.934896485544655" lon="11.923533766958446"><ele>192.0</ele><time>2026-04-09T12:10:43.999Z</time></trkpt><trkpt lat="45.9350173076248" lon="11.923311346247814"><ele>189.0</ele><time>2026-04-09T12:10:44.999Z</time></trkpt><trkpt lat="45.935142927219765" lon="11.92309054402319"><ele>186.0</ele><time>2026-04-09T12:10:45.999Z</time></trkpt><trkpt lat="45.93527472511415" lon="11.92287165741079"><ele>183.0</ele><time>2026-04-09T12:10:46.999Z</time></trkpt><trkpt lat="45.935406901422276" lon="11.922644049770698"><ele>187.33333333333331</ele><time>2026-04-09T12:10:47.999Z</time></trkpt><trkpt lat="45.93553257860984" lon="11.922397765162675"><ele>191.66666666666666</ele><time>2026-04-09T12:10:48.999Z</time></trkpt><trkpt lat="45.93565917534743" lon="11.92216514334453"><ele>196.0</ele><time>2026-04-09T12:10:49.999Z</time></trkpt><trkpt lat="45.9357862255825" lon="11.921949844846734"><ele>193.66666666666666</ele><time>2026-04-09T12:10:50.999Z</time></trkpt><trkpt lat="45.935912638842126" lon="11.921737716570407"><ele>191.33333333333331</ele><time>2026-04-09T12:10:51.999Z</time></trkpt><trkpt lat="45.936027123062516" lon="11.921529001714342"><ele>189.0</ele><time>2026-04-09T12:10:52.999Z</time></trkpt><trkpt lat="45.93613649697347" lon="11.921336826563346"><ele>189.0</ele><time>2026-04-09T12:10:53.999Z</time></trkpt><trkpt lat="45.93625651241289" lon="11.921158548961175"><ele>189.0</ele><time>2026-04-09T12:10:54.999Z</time></trkpt><trkpt lat="45.93639958596974" lon="11.920992719111782"><ele>189.0</ele><time>2026-04-09T12:10:55.999Z</time></trkpt><trkpt lat="45.936581286066534" lon="11.920860038677718"><ele>190.0</ele><time>2026-04-09T12:10:56.999Z</time></trkpt><trkpt lat="45.936765662148844" lon="11.920691170610104"><ele>191.0</ele><time>2026-04-09T12:10:57.999Z</time></trkpt><trkpt lat="45.936957132621" lon="11.920549969926633"><ele>192.0</ele><time>2026-04-09T12:10:58.999Z</time></trkpt><trkpt lat="45.93715101258898" lon="11.920420651090547"><ele>192.0</ele><time>2026-04-09T12:10:59.999Z</time></trkpt><trkpt lat="45.937352057449495" lon="11.920310042432531"><ele>192.0</ele><time>2026-04-09T12:11:00.999Z</time></trkpt><trkpt lat="45.93754939889397" lon="11.920215118962645"><ele>192.0</ele><time>2026-04-09T12:11:01.999Z</time></trkpt><trkpt lat="45.93773639983146" lon="11.92013369350482"><ele>195.33333333333331</ele><time>2026-04-09T12:11:02.999Z</time></trkpt><trkpt lat="45.937919308901414" lon="11.920053662014878"><ele>198.66666666666666</ele><time>2026-04-09T12:11:03.999Z</time></trkpt><trkpt lat="45.93809814226876" lon="11.919978475639578"><ele>202.0</ele><time>2026-04-09T12:11:04.999Z</time></trkpt><trkpt lat="45.93828400880631" lon="11.919911733830569"><ele>201.0</ele><time>2026-04-09T12:11:05.999Z</time></trkpt><trkpt lat="45.93847940988669" lon="11.919859258240232"><ele>200.0</ele><time>2026-04-09T12:11:06.999Z</time></trkpt><trkpt lat="45.938679009167295" lon="11.919825344619097"><ele>199.0</ele><time>2026-04-09T12:11:07.999Z</time></trkpt><trkpt lat="45.938898938762804" lon="11.919801916383928"><ele>199.0</ele><time>2026-04-09T12:11:08.999Z</time></trkpt><trkpt lat="45.93911030696808" lon="11.91978202500221"><ele>199.0</ele><time>2026-04-09T12:11:09.999Z</time></trkpt><trkpt lat="45.939308860020375" lon="11.919767604421871"><ele>199.0</ele><time>2026-04-09T12:11:10.999Z</time></trkpt><trkpt lat="45.93950658635515" lon="11.9197579295534"><ele>199.0</ele><time>2026-04-09T12:11:11.999Z</time></trkpt><trkpt lat="45.93970359135454" lon="11.919747632997794"><ele>199.0</ele><time>2026-04-09T12:11:12.999Z</time></trkpt><trkpt lat="45.9399036167989" lon="11.919740467421931"><ele>199.0</ele><time>2026-04-09T12:11:13.999Z</time></trkpt><trkpt lat="45.94010514253174" lon="11.919755920967582"><ele>200.33333333333331</ele><time>2026-04-09T12:11:14.999Z</time></trkpt><trkpt lat="45.94030834250317" lon="11.919802483091084"><ele>201.66666666666669</ele><time>2026-04-09T12:11:15.999Z</time></trkpt><trkpt lat="45.940510528399756" lon="11.919873694834914"><ele>203.0</ele><time>2026-04-09T12:11:16.999Z</time></trkpt><trkpt lat="45.94071149830148" lon="11.91995849302232"><ele>201.33333333333334</ele><time>2026-04-09T12:11:17.999Z</time></trkpt><trkpt lat="45.940912554242374" lon="11.920064942646409"><ele>199.66666666666669</ele><time>2026-04-09T12:11:18.999Z</time></trkpt><trkpt lat="45.94112781340164" lon="11.920198649729432"><ele>198.0</ele><time>2026-04-09T12:11:19.999Z</time></trkpt><trkpt lat="45.94136022020737" lon="11.920352595825372"><ele>198.0</ele><time>2026-04-09T12:11:20.999Z</time></trkpt><trkpt lat="45.94159556461916" lon="11.920551325197344"><ele>198.0</ele><time>2026-04-09T12:11:21.999Z</time></trkpt><trkpt lat="45.94184483502165" lon="11.920710328869786"><ele>199.0</ele><time>2026-04-09T12:11:22.999Z</time></trkpt><trkpt lat="45.94209884890174" lon="11.920907867813135"><ele>200.0</ele><time>2026-04-09T12:11:23.999Z</time></trkpt><trkpt lat="45.942325698836385" lon="11.92107000293266"><ele>200.0</ele><time>2026-04-09T12:11:24.999Z</time></trkpt><trkpt lat="45.94253196030715" lon="11.921215892829311"><ele>200.0</ele><time>2026-04-09T12:11:25.999Z</time></trkpt><trkpt lat="45.942726420378705" lon="11.921353824545731"><ele>200.0</ele><time>2026-04-09T12:11:26.999Z</time></trkpt><trkpt lat="45.94292251369684" lon="11.921492435740715"><ele>198.66666666666669</ele><time>2026-04-09T12:11:28Z</time></trkpt><trkpt lat="45.94312744381383" lon="11.921622082021537"><ele>197.33333333333331</ele><time>2026-04-09T12:11:29Z</time></trkpt><trkpt lat="45.94332457896339" lon="11.921724976231603"><ele>196.0</ele><time>2026-04-09T12:11:30Z</time></trkpt><trkpt lat="45.94351200992609" lon="11.921804986944263"><ele>196.0</ele><time>2026-04-09T12:11:31Z</time></trkpt><trkpt lat="45.943696085406955" lon="11.921868244936244"><ele>196.0</ele><time>2026-04-09T12:11:32Z</time></trkpt><trkpt lat="45.94387346612043" lon="11.921915037135799"><ele>196.0</ele><time>2026-04-09T12:11:33Z</time></trkpt><trkpt lat="45.94405929236865" lon="11.921949898633306"><ele>200.0</ele><time>2026-04-09T12:11:34Z</time></trkpt><trkpt lat="45.944242026091395" lon="11.921978943757285"><ele>204.0</ele><time>2026-04-09T12:11:35Z</time></trkpt><trkpt lat="45.944410254404964" lon="11.922011219664594"><ele>208.0</ele><time>2026-04-09T12:11:36Z</time></trkpt><trkpt lat="45.9445763253783" lon="11.922061641141324"><ele>208.0</ele><time>2026-04-09T12:11:37Z</time></trkpt><trkpt lat="45.94475583886898" lon="11.922131205276232"><ele>208.0</ele><time>2026-04-09T12:11:38Z</time></trkpt><trkpt lat="45.944930760924386" lon="11.922200832568478"><ele>208.0</ele><time>2026-04-09T12:11:39Z</time></trkpt><trkpt lat="45.945092598793494" lon="11.922268271102773"><ele>206.33333333333331</ele><time>2026-04-09T12:11:40Z</time></trkpt><trkpt lat="45.94524914587657" lon="11.92233128391531"><ele>204.66666666666669</ele><time>2026-04-09T12:11:41Z</time></trkpt><trkpt lat="45.94540779937455" lon="11.922387949140592"><ele>203.0</ele><time>2026-04-09T12:11:42Z</time></trkpt><trkpt lat="45.945572287057495" lon="11.92242725259007"><ele>203.0</ele><time>2026-04-09T12:11:43Z</time></trkpt><trkpt lat="45.9457460736245" lon="11.922431363993933"><ele>203.0</ele><time>2026-04-09T12:11:44Z</time></trkpt><trkpt lat="45.94591783877491" lon="11.922413815673636"><ele>203.0</ele><time>2026-04-09T12:11:45Z</time></trkpt><trkpt lat="45.946077139718625" lon="11.922410565079552"><ele>209.0</ele><time>2026-04-09T12:11:46Z</time></trkpt><trkpt lat="45.94624058719062" lon="11.922429566396055"><ele>215.0</ele><time>2026-04-09T12:11:47Z</time></trkpt><trkpt lat="45.9464248512044" lon="11.922471623595143"><ele>221.0</ele><time>2026-04-09T12:11:48Z</time></trkpt><trkpt lat="45.946612019828564" lon="11.92252685174587"><ele>215.33333333333334</ele><time>2026-04-09T12:11:49Z</time></trkpt><trkpt lat="45.94680774454596" lon="11.922601145825704"><ele>209.66666666666669</ele><time>2026-04-09T12:11:50Z</time></trkpt><trkpt lat="45.947008887883534" lon="11.922680371749063"><ele>204.0</ele><time>2026-04-09T12:11:51Z</time></trkpt><trkpt lat="45.94721417793472" lon="11.922755919806391"><ele>204.0</ele><time>2026-04-09T12:11:52Z</time></trkpt><trkpt lat="45.94740224274621" lon="11.922825105472539"><ele>204.0</ele><time>2026-04-09T12:11:53Z</time></trkpt><trkpt lat="45.947589964613414" lon="11.922900095967274"><ele>204.0</ele><time>2026-04-09T12:11:54Z</time></trkpt><trkpt lat="45.94777841302828" lon="11.922982756947652"><ele>208.66666666666669</ele><time>2026-04-09T12:11:55Z</time></trkpt><trkpt lat="45.94796830101132" lon="11.923090397222044"><ele>213.33333333333334</ele><time>2026-04-09T12:11:56Z</time></trkpt><trkpt lat="45.94814309460798" lon="11.923210665904314"><ele>218.0</ele><time>2026-04-09T12:11:57Z</time></trkpt><trkpt lat="45.94831396741869" lon="11.923350795190421"><ele>215.0</ele><time>2026-04-09T12:11:58Z</time></trkpt><trkpt lat="45.94848085169926" lon="11.923526159696378"><ele>212.0</ele><time>2026-04-09T12:11:59Z</time></trkpt><trkpt lat="45.948651916278244" lon="11.923715119942859"><ele>209.0</ele><time>2026-04-09T12:12:00Z</time></trkpt><trkpt lat="45.94882052337456" lon="11.923915643913176"><ele>209.0</ele><time>2026-04-09T12:12:01Z</time></trkpt><trkpt lat="45.948975277115274" lon="11.92411239623619"><ele>209.0</ele><time>2026-04-09T12:12:02Z</time></trkpt><trkpt lat="45.94912658089394" lon="11.924299853474285"><ele>209.0</ele><time>2026-04-09T12:12:03Z</time></trkpt><trkpt lat="45.94928834786294" lon="11.924494425272666"><ele>207.0</ele><time>2026-04-09T12:12:04Z</time></trkpt><trkpt lat="45.949447114141456" lon="11.924688582875358"><ele>205.0</ele><time>2026-04-09T12:12:05Z</time></trkpt><trkpt lat="45.94959623915552" lon="11.92487748644814"><ele>203.0</ele><time>2026-04-09T12:12:06Z</time></trkpt><trkpt lat="45.94974711969158" lon="11.925062708429792"><ele>203.0</ele><time>2026-04-09T12:12:07Z</time></trkpt><trkpt lat="45.94990028018046" lon="11.925247746066274"><ele>203.0</ele><time>2026-04-09T12:12:08Z</time></trkpt><trkpt lat="45.950063877901975" lon="11.92543820564969"><ele>203.0</ele><time>2026-04-09T12:12:09Z</time></trkpt><trkpt lat="45.950245094291354" lon="11.92562444665354"><ele>201.33333333333334</ele><time>2026-04-09T12:12:10Z</time></trkpt><trkpt lat="45.9504299420201" lon="11.925796600516112"><ele>199.66666666666669</ele><time>2026-04-09T12:12:11Z</time></trkpt><trkpt lat="45.95062773832619" lon="11.925957804098323"><ele>198.0</ele><time>2026-04-09T12:12:12Z</time></trkpt><trkpt lat="45.95084076935312" lon="11.926143879036717"><ele>203.0</ele><time>2026-04-09T12:12:13Z</time></trkpt><trkpt lat="45.951079587163115" lon="11.926326680630774"><ele>208.0</ele><time>2026-04-09T12:12:14Z</time></trkpt><trkpt lat="45.95132963601756" lon="11.92651809701051"><ele>208.0</ele><time>2026-04-09T12:12:15Z</time></trkpt><trkpt lat="45.9515762199693" lon="11.926682298339232"><ele>208.0</ele><time>2026-04-09T12:12:16Z</time></trkpt><trkpt lat="45.95180135553938" lon="11.926868758551228"><ele>207.0</ele><time>2026-04-09T12:12:17Z</time></trkpt><trkpt lat="45.95203668505883" lon="11.927065105508468"><ele>206.0</ele><time>2026-04-09T12:12:18Z</time></trkpt><trkpt lat="45.95226802194589" lon="11.927267625542282"><ele>206.0</ele><time>2026-04-09T12:12:19Z</time></trkpt><trkpt lat="45.9524911921778" lon="11.92748113848054"><ele>206.0</ele><time>2026-04-09T12:12:20Z</time></trkpt><trkpt lat="45.95271355272885" lon="11.927712350510008"><ele>208.5</ele><time>2026-04-09T12:12:21Z</time></trkpt><trkpt lat="45.952922353571935" lon="11.92793074018652"><ele>211.0</ele><time>2026-04-09T12:12:22Z</time></trkpt><trkpt lat="45.95312322606557" lon="11.928124873343739"><ele>211.0</ele><time>2026-04-09T12:12:23Z</time></trkpt><trkpt lat="45.95333211380629" lon="11.92830437307773"><ele>211.0</ele><time>2026-04-09T12:12:24Z</time></trkpt><trkpt lat="45.9535485405747" lon="11.928476629456343"><ele>209.0</ele><time>2026-04-09T12:12:25Z</time></trkpt><trkpt lat="45.95377999722363" lon="11.928647671946708"><ele>207.0</ele><time>2026-04-09T12:12:26Z</time></trkpt><trkpt lat="45.95402442009896" lon="11.928820390332923"><ele>206.66666666666669</ele><time>2026-04-09T12:12:27Z</time></trkpt><trkpt lat="45.95423515299995" lon="11.928976581087895"><ele>206.33333333333334</ele><time>2026-04-09T12:12:28Z</time></trkpt><trkpt lat="45.954421474526264" lon="11.929110876853157"><ele>206.0</ele><time>2026-04-09T12:12:29Z</time></trkpt><trkpt lat="45.95459225278584" lon="11.92923317592655"><ele>206.0</ele><time>2026-04-09T12:12:30Z</time></trkpt><trkpt lat="45.95475621826055" lon="11.929351119045986"><ele>206.0</ele><time>2026-04-09T12:12:31Z</time></trkpt><trkpt lat="45.954913550971426" lon="11.929482426696309"><ele>206.0</ele><time>2026-04-09T12:12:31.999Z</time></trkpt><trkpt lat="45.95506573804765" lon="11.929637394902482"><ele>211.0</ele><time>2026-04-09T12:12:32.999Z</time></trkpt><trkpt lat="45.95520481077449" lon="11.929818236669073"><ele>216.0</ele><time>2026-04-09T12:12:33.999Z</time></trkpt><trkpt lat="45.95532819919613" lon="11.930022964545595"><ele>221.0</ele><time>2026-04-09T12:12:34.999Z</time></trkpt><trkpt lat="45.95544287137272" lon="11.930251594539275"><ele>221.0</ele><time>2026-04-09T12:12:35.999Z</time></trkpt><trkpt lat="45.955550054902595" lon="11.930515787171165"><ele>221.0</ele><time>2026-04-09T12:12:36.999Z</time></trkpt><trkpt lat="45.955667130260636" lon="11.930807023685398"><ele>221.0</ele><time>2026-04-09T12:12:37.999Z</time></trkpt><trkpt lat="45.9558013747758" lon="11.93111148060408"><ele>228.5</ele><time>2026-04-09T12:12:38.999Z</time></trkpt><trkpt lat="45.95594496137135" lon="11.93141829306809"><ele>236.0</ele><time>2026-04-09T12:12:39.999Z</time></trkpt><trkpt lat="45.956085790612484" lon="11.931696488259293"><ele>226.0</ele><time>2026-04-09T12:12:40.999Z</time></trkpt><trkpt lat="45.95623825390946" lon="11.931956690736806"><ele>216.0</ele><time>2026-04-09T12:12:41.999Z</time></trkpt><trkpt lat="45.956413135714676" lon="11.932221639336117"><ele>216.0</ele><time>2026-04-09T12:12:42.999Z</time></trkpt><trkpt lat="45.95660070209079" lon="11.9324814065879"><ele>216.0</ele><time>2026-04-09T12:12:43.999Z</time></trkpt><trkpt lat="45.95677147504195" lon="11.932709271182837"><ele>215.66666666666669</ele><time>2026-04-09T12:12:44.999Z</time></trkpt><trkpt lat="45.95693533861969" lon="11.932915959590021"><ele>215.33333333333334</ele><time>2026-04-09T12:12:45.999Z</time></trkpt><trkpt lat="45.95710718050142" lon="11.933103794519068"><ele>215.0</ele><time>2026-04-09T12:12:46.999Z</time></trkpt><trkpt lat="45.957298060380786" lon="11.933284061688509"><ele>208.5</ele><time>2026-04-09T12:12:47.999Z</time></trkpt><trkpt lat="45.95751180232843" lon="11.93344826152468"><ele>202.0</ele><time>2026-04-09T12:12:48.999Z</time></trkpt><trkpt lat="45.95775233493734" lon="11.93360243313077"><ele>202.0</ele><time>2026-04-09T12:12:49.999Z</time></trkpt><trkpt lat="45.95797893716455" lon="11.93371922562883"><ele>202.0</ele><time>2026-04-09T12:12:50.999Z</time></trkpt><trkpt lat="45.958201939065745" lon="11.933821081607393"><ele>203.5</ele><time>2026-04-09T12:12:51.999Z</time></trkpt><trkpt lat="45.958428400323044" lon="11.933909225747138"><ele>205.0</ele><time>2026-04-09T12:12:52.999Z</time></trkpt><trkpt lat="45.95865144534014" lon="11.93396112711166"><ele>205.0</ele><time>2026-04-09T12:12:53.999Z</time></trkpt><trkpt lat="45.9588763390602" lon="11.933995531163488"><ele>205.0</ele><time>2026-04-09T12:12:54.999Z</time></trkpt><trkpt lat="45.95909949294623" lon="11.934008832980542"><ele>205.0</ele><time>2026-04-09T12:12:55.999Z</time></trkpt><trkpt lat="45.95932510819351" lon="11.933991440838671"><ele>205.5</ele><time>2026-04-09T12:12:56.999Z</time></trkpt><trkpt lat="45.95955494003096" lon="11.933954166348506"><ele>206.0</ele><time>2026-04-09T12:12:57.999Z</time></trkpt><trkpt lat="45.95979586809998" lon="11.933899258574833"><ele>203.0</ele><time>2026-04-09T12:12:58.999Z</time></trkpt><trkpt lat="45.96005842453744" lon="11.93382402907395"><ele>200.0</ele><time>2026-04-09T12:12:59.999Z</time></trkpt><trkpt lat="45.96035199598075" lon="11.933730065108014"><ele>200.0</ele><time>2026-04-09T12:13:00.999Z</time></trkpt><trkpt lat="45.960620606917054" lon="11.933644527010879"><ele>200.0</ele><time>2026-04-09T12:13:01.999Z</time></trkpt><trkpt lat="45.960910327140255" lon="11.933554602460548"><ele>198.0</ele><time>2026-04-09T12:13:02.999Z</time></trkpt><trkpt lat="45.96122132096532" lon="11.933460114833498"><ele>196.0</ele><time>2026-04-09T12:13:03.999Z</time></trkpt><trkpt lat="45.96153085292002" lon="11.933368579695173"><ele>199.5</ele><time>2026-04-09T12:13:04.999Z</time></trkpt><trkpt lat="45.96181288425383" lon="11.933285661759587"><ele>203.0</ele><time>2026-04-09T12:13:05.999Z</time></trkpt><trkpt lat="45.96208117678444" lon="11.93320792684687"><ele>203.0</ele><time>2026-04-09T12:13:06.999Z</time></trkpt><trkpt lat="45.96234275799469" lon="11.93312341013309"><ele>203.0</ele><time>2026-04-09T12:13:07.999Z</time></trkpt><trkpt lat="45.96260108974231" lon="11.933034300801621"><ele>199.5</ele><time>2026-04-09T12:13:08.999Z</time></trkpt><trkpt lat="45.962842883343605" lon="11.93293637185789"><ele>196.0</ele><time>2026-04-09T12:13:09.999Z</time></trkpt><trkpt lat="45.96307231112244" lon="11.932831246952514"><ele>196.0</ele><time>2026-04-09T12:13:10.999Z</time></trkpt><trkpt lat="45.96330645291909" lon="11.932713970404139"><ele>196.0</ele><time>2026-04-09T12:13:11.999Z</time></trkpt><trkpt lat="45.96353048200421" lon="11.932591355926933"><ele>198.33333333333331</ele><time>2026-04-09T12:13:12.999Z</time></trkpt><trkpt lat="45.96373543700579" lon="11.93247530083729"><ele>200.66666666666669</ele><time>2026-04-09T12:13:13.999Z</time></trkpt><trkpt lat="45.96393160854824" lon="11.932367267171742"><ele>203.0</ele><time>2026-04-09T12:13:14.999Z</time></trkpt><trkpt lat="45.96411939029608" lon="11.932262154433733"><ele>201.33333333333334</ele><time>2026-04-09T12:13:15.999Z</time></trkpt><trkpt lat="45.96429641750163" lon="11.932165493472509"><ele>199.66666666666669</ele><time>2026-04-09T12:13:16.999Z</time></trkpt><trkpt lat="45.964464167714965" lon="11.9320707455886"><ele>198.0</ele><time>2026-04-09T12:13:17.999Z</time></trkpt><trkpt lat="45.96462475985516" lon="11.931984914315578"><ele>198.0</ele><time>2026-04-09T12:13:18.999Z</time></trkpt><trkpt lat="45.96478968514444" lon="11.931927053074968"><ele>198.0</ele><time>2026-04-09T12:13:19.999Z</time></trkpt><trkpt lat="45.964960262834666" lon="11.931906559219861"><ele>198.0</ele><time>2026-04-09T12:13:20.999Z</time></trkpt><trkpt lat="45.9651386939224" lon="11.931911668320582"><ele>199.0</ele><time>2026-04-09T12:13:21.999Z</time></trkpt><trkpt lat="45.96532016118546" lon="11.931953105116023"><ele>200.0</ele><time>2026-04-09T12:13:22.999Z</time></trkpt><trkpt lat="45.96550144504533" lon="11.932045916462892"><ele>201.0</ele><time>2026-04-09T12:13:23.999Z</time></trkpt><trkpt lat="45.965682864081714" lon="11.932145809828704"><ele>203.0</ele><time>2026-04-09T12:13:24.999Z</time></trkpt><trkpt lat="45.96586751916085" lon="11.932255905519831"><ele>205.0</ele><time>2026-04-09T12:13:25.999Z</time></trkpt><trkpt lat="45.966024461454225" lon="11.932360114296563"><ele>207.0</ele><time>2026-04-09T12:13:26.999Z</time></trkpt><trkpt lat="45.96617290027637" lon="11.93246120959925"><ele>203.66666666666669</ele><time>2026-04-09T12:13:27.999Z</time></trkpt><trkpt lat="45.96632667434622" lon="11.93256182438653"><ele>200.33333333333334</ele><time>2026-04-09T12:13:28.999Z</time></trkpt><trkpt lat="45.96649011828794" lon="11.932662811231728"><ele>197.0</ele><time>2026-04-09T12:13:29.999Z</time></trkpt><trkpt lat="45.96665359078907" lon="11.93275566611584"><ele>199.0</ele><time>2026-04-09T12:13:30.999Z</time></trkpt><trkpt lat="45.96680326677156" lon="11.932840173987742"><ele>201.0</ele><time>2026-04-09T12:13:31.999Z</time></trkpt><trkpt lat="45.96696003859039" lon="11.93292535124987"><ele>203.0</ele><time>2026-04-09T12:13:32.999Z</time></trkpt><trkpt lat="45.96712384357316" lon="11.933007985503728"><ele>203.0</ele><time>2026-04-09T12:13:34Z</time></trkpt><trkpt lat="45.96728618331055" lon="11.933086373468342"><ele>203.0</ele><time>2026-04-09T12:13:35Z</time></trkpt><trkpt lat="45.96744798935244" lon="11.933161866790531"><ele>203.0</ele><time>2026-04-09T12:13:36Z</time></trkpt><trkpt lat="45.967601670782834" lon="11.933233642969126"><ele>206.0</ele><time>2026-04-09T12:13:37Z</time></trkpt><trkpt lat="45.9677621734688" lon="11.93329591212207"><ele>209.0</ele><time>2026-04-09T12:13:38Z</time></trkpt><trkpt lat="45.96793815207712" lon="11.933348283919631"><ele>212.0</ele><time>2026-04-09T12:13:39Z</time></trkpt><trkpt lat="45.96812202388714" lon="11.933384779385486"><ele>210.33333333333334</ele><time>2026-04-09T12:13:40Z</time></trkpt><trkpt lat="45.968305233653275" lon="11.933400513917771"><ele>208.66666666666669</ele><time>2026-04-09T12:13:41Z</time></trkpt><trkpt lat="45.96847615781182" lon="11.933394854482563"><ele>207.0</ele><time>2026-04-09T12:13:42Z</time></trkpt><trkpt lat="45.96863973454375" lon="11.93338420608524"><ele>207.0</ele><time>2026-04-09T12:13:43Z</time></trkpt><trkpt lat="45.968801917468774" lon="11.933371912274787"><ele>207.0</ele><time>2026-04-09T12:13:44Z</time></trkpt><trkpt lat="45.9689618921349" lon="11.933358353445557"><ele>207.0</ele><time>2026-04-09T12:13:45Z</time></trkpt><trkpt lat="45.96912052069795" lon="11.933347498787942"><ele>206.0</ele><time>2026-04-09T12:13:46Z</time></trkpt><trkpt lat="45.96928024291408" lon="11.933337673001466"><ele>205.0</ele><time>2026-04-09T12:13:47Z</time></trkpt><trkpt lat="45.969440788891674" lon="11.93332544875272"><ele>204.0</ele><time>2026-04-09T12:13:48Z</time></trkpt><trkpt lat="45.96960073066201" lon="11.93331727931183"><ele>204.0</ele><time>2026-04-09T12:13:49Z</time></trkpt><trkpt lat="45.96976162843394" lon="11.933320456149547"><ele>204.0</ele><time>2026-04-09T12:13:50Z</time></trkpt><trkpt lat="45.96992533350611" lon="11.933333576792304"><ele>204.0</ele><time>2026-04-09T12:13:51Z</time></trkpt><trkpt lat="45.97009140104539" lon="11.93335918271858"><ele>202.66666666666669</ele><time>2026-04-09T12:13:52Z</time></trkpt><trkpt lat="45.97025020931147" lon="11.933407448326648"><ele>201.33333333333334</ele><time>2026-04-09T12:13:53Z</time></trkpt><trkpt lat="45.970401992387224" lon="11.933475610836814"><ele>200.0</ele><time>2026-04-09T12:13:54Z</time></trkpt><trkpt lat="45.97055811806903" lon="11.933558289621"><ele>200.0</ele><time>2026-04-09T12:13:55Z</time></trkpt><trkpt lat="45.97071099732794" lon="11.933667991625743"><ele>200.0</ele><time>2026-04-09T12:13:56Z</time></trkpt><trkpt lat="45.97085262358072" lon="11.933789232063948"><ele>200.0</ele><time>2026-04-09T12:13:57Z</time></trkpt><trkpt lat="45.970983742188125" lon="11.933911282587923"><ele>201.66666666666669</ele><time>2026-04-09T12:13:58Z</time></trkpt><trkpt lat="45.97110975151973" lon="11.934036621497254"><ele>203.33333333333331</ele><time>2026-04-09T12:13:59Z</time></trkpt><trkpt lat="45.97123210467593" lon="11.934168422652427"><ele>205.0</ele><time>2026-04-09T12:14:00Z</time></trkpt><trkpt lat="45.97135843730877" lon="11.934306745302276"><ele>205.0</ele><time>2026-04-09T12:14:01Z</time></trkpt><trkpt lat="45.97148908779771" lon="11.934459984578977"><ele>205.0</ele><time>2026-04-09T12:14:02Z</time></trkpt><trkpt lat="45.971619106454696" lon="11.93462394180479"><ele>205.0</ele><time>2026-04-09T12:14:03Z</time></trkpt><trkpt lat="45.97174430418356" lon="11.934794575020074"><ele>206.66666666666666</ele><time>2026-04-09T12:14:04Z</time></trkpt><trkpt lat="45.9718624783947" lon="11.934968065786345"><ele>208.33333333333331</ele><time>2026-04-09T12:14:05Z</time></trkpt><trkpt lat="45.97197385849271" lon="11.935135022405616"><ele>210.0</ele><time>2026-04-09T12:14:06Z</time></trkpt><trkpt lat="45.97208132675507" lon="11.935295715975794"><ele>210.0</ele><time>2026-04-09T12:14:07Z</time></trkpt><trkpt lat="45.972185779121595" lon="11.935464429562426"><ele>210.0</ele><time>2026-04-09T12:14:08Z</time></trkpt><trkpt lat="45.97228420033655" lon="11.935641261257272"><ele>210.0</ele><time>2026-04-09T12:14:09Z</time></trkpt><trkpt lat="45.97238502241803" lon="11.935819509166635"><ele>210.66666666666669</ele><time>2026-04-09T12:14:10Z</time></trkpt><trkpt lat="45.97249986927366" lon="11.935987578215899"><ele>211.33333333333334</ele><time>2026-04-09T12:14:11Z</time></trkpt><trkpt lat="45.97262058630862" lon="11.936147277046668"><ele>212.0</ele><time>2026-04-09T12:14:12Z</time></trkpt><trkpt lat="45.97273323088616" lon="11.936296594218787"><ele>212.0</ele><time>2026-04-09T12:14:13Z</time></trkpt><trkpt lat="45.972843300554246" lon="11.936440979461208"><ele>212.0</ele><time>2026-04-09T12:14:14Z</time></trkpt><trkpt lat="45.97295545703692" lon="11.936580654403496"><ele>212.0</ele><time>2026-04-09T12:14:15Z</time></trkpt><trkpt lat="45.97307883224063" lon="11.93671104602955"><ele>210.33333333333334</ele><time>2026-04-09T12:14:16Z</time></trkpt><trkpt lat="45.97322269194678" lon="11.936813330364426"><ele>208.66666666666669</ele><time>2026-04-09T12:14:17Z</time></trkpt><trkpt lat="45.97338944600273" lon="11.936898866720236"><ele>207.0</ele><time>2026-04-09T12:14:18Z</time></trkpt><trkpt lat="45.973569541977746" lon="11.936986938563827"><ele>207.0</ele><time>2026-04-09T12:14:19Z</time></trkpt><trkpt lat="45.973729788983" lon="11.937071948614303"><ele>207.0</ele><time>2026-04-09T12:14:20Z</time></trkpt><trkpt lat="45.97388249243943" lon="11.93715310136113"><ele>207.0</ele><time>2026-04-09T12:14:21Z</time></trkpt><trkpt lat="45.97402989614049" lon="11.937230538489354"><ele>207.0</ele><time>2026-04-09T12:14:22Z</time></trkpt><trkpt lat="45.974181680863865" lon="11.937306585369305"><ele>207.0</ele><time>2026-04-09T12:14:23Z</time></trkpt><trkpt lat="45.97434128902532" lon="11.93738969177393"><ele>207.0</ele><time>2026-04-09T12:14:24Z</time></trkpt><trkpt lat="45.97450941885575" lon="11.937479081491954"><ele>207.0</ele><time>2026-04-09T12:14:25Z</time></trkpt><trkpt lat="45.97469163740941" lon="11.937562599408885"><ele>207.0</ele><time>2026-04-09T12:14:26Z</time></trkpt><trkpt lat="45.974871570959294" lon="11.93764982754432"><ele>207.0</ele><time>2026-04-09T12:14:27Z</time></trkpt><trkpt lat="45.97503663776672" lon="11.937733668707946"><ele>210.0</ele><time>2026-04-09T12:14:28Z</time></trkpt><trkpt lat="45.97519202845683" lon="11.937823937712366"><ele>213.0</ele><time>2026-04-09T12:14:29Z</time></trkpt><trkpt lat="45.97534287660964" lon="11.937925957752503"><ele>216.0</ele><time>2026-04-09T12:14:30Z</time></trkpt><trkpt lat="45.97549443245953" lon="11.938066108146167"><ele>216.0</ele><time>2026-04-09T12:14:31Z</time></trkpt><trkpt lat="45.97564106440651" lon="11.938235071383074"><ele>216.0</ele><time>2026-04-09T12:14:32Z</time></trkpt><trkpt lat="45.9757798756115" lon="11.938428911379987"><ele>216.0</ele><time>2026-04-09T12:14:33Z</time></trkpt><trkpt lat="45.97591654694672" lon="11.938656058330052"><ele>212.0</ele><time>2026-04-09T12:14:33.999Z</time></trkpt><trkpt lat="45.976087519247265" lon="11.938904467858396"><ele>208.0</ele><time>2026-04-09T12:14:34.999Z</time></trkpt><trkpt lat="45.97628031220295" lon="11.939184574872153"><ele>208.5</ele><time>2026-04-09T12:14:35.999Z</time></trkpt><trkpt lat="45.97649172809779" lon="11.939491738740617"><ele>209.0</ele><time>2026-04-09T12:14:36.999Z</time></trkpt><trkpt lat="45.97671820424694" lon="11.939820783576316"><ele>207.5</ele><time>2026-04-09T12:14:37.999Z</time></trkpt><trkpt lat="45.976930069263005" lon="11.940126597630847"><ele>206.0</ele><time>2026-04-09T12:14:38.999Z</time></trkpt><trkpt lat="45.977126250876395" lon="11.940407369965763"><ele>206.0</ele><time>2026-04-09T12:14:39.999Z</time></trkpt><trkpt lat="45.977328362294564" lon="11.940695934292052"><ele>206.0</ele><time>2026-04-09T12:14:40.999Z</time></trkpt><trkpt lat="45.97754483475644" lon="11.941010056033589"><ele>210.0</ele><time>2026-04-09T12:14:41.999Z</time></trkpt><trkpt lat="45.9777611288836" lon="11.941323288830283"><ele>214.0</ele><time>2026-04-09T12:14:42.999Z</time></trkpt><trkpt lat="45.97796933661046" lon="11.941589889384538"><ele>211.5</ele><time>2026-04-09T12:14:43.999Z</time></trkpt><trkpt lat="45.978151680432056" lon="11.9418639863131"><ele>209.0</ele><time>2026-04-09T12:14:44.999Z</time></trkpt><trkpt lat="45.97832712872464" lon="11.942130259593688"><ele>210.0</ele><time>2026-04-09T12:14:45.999Z</time></trkpt><trkpt lat="45.97850709235456" lon="11.942394186666215"><ele>211.0</ele><time>2026-04-09T12:14:46.999Z</time></trkpt><trkpt lat="45.97868759459852" lon="11.942657254109903"><ele>211.0</ele><time>2026-04-09T12:14:47.999Z</time></trkpt><trkpt lat="45.97887779292037" lon="11.942927811533297"><ele>211.0</ele><time>2026-04-09T12:14:48.999Z</time></trkpt><trkpt lat="45.979072024182145" lon="11.943212000214183"><ele>212.0</ele><time>2026-04-09T12:14:49.999Z</time></trkpt><trkpt lat="45.979276268360856" lon="11.943500796595124"><ele>213.0</ele><time>2026-04-09T12:14:50.999Z</time></trkpt><trkpt lat="45.97948905587907" lon="11.943804914412926"><ele>213.0</ele><time>2026-04-09T12:14:51.999Z</time></trkpt><trkpt lat="45.979710548926576" lon="11.944129109487765"><ele>213.0</ele><time>2026-04-09T12:14:52.999Z</time></trkpt><trkpt lat="45.97991721786096" lon="11.944432134095944"><ele>218.5</ele><time>2026-04-09T12:14:53.999Z</time></trkpt><trkpt lat="45.98011508333756" lon="11.944707205136238"><ele>224.0</ele><time>2026-04-09T12:14:54.999Z</time></trkpt><trkpt lat="45.98030194522665" lon="11.94497236816029"><ele>217.5</ele><time>2026-04-09T12:14:55.999Z</time></trkpt><trkpt lat="45.98048037735443" lon="11.945235435314274"><ele>211.0</ele><time>2026-04-09T12:14:56.999Z</time></trkpt><trkpt lat="45.980659118951955" lon="11.945509909636746"><ele>211.0</ele><time>2026-04-09T12:14:57.999Z</time></trkpt><trkpt lat="45.980833822248265" lon="11.945793655064715"><ele>211.0</ele><time>2026-04-09T12:14:58.999Z</time></trkpt><trkpt lat="45.98099860176108" lon="11.94607866252366"><ele>219.0</ele><time>2026-04-09T12:14:59.999Z</time></trkpt><trkpt lat="45.98115571593129" lon="11.946367435628565"><ele>227.0</ele><time>2026-04-09T12:15:00.999Z</time></trkpt><trkpt lat="45.98129582504829" lon="11.946660365559623"><ele>221.0</ele><time>2026-04-09T12:15:01.999Z</time></trkpt><trkpt lat="45.981429570554624" lon="11.946973524282093"><ele>215.0</ele><time>2026-04-09T12:15:02.999Z</time></trkpt><trkpt lat="45.98155470879389" lon="11.9473001171154"><ele>212.5</ele><time>2026-04-09T12:15:03.999Z</time></trkpt><trkpt lat="45.981676863507374" lon="11.947633909174916"><ele>210.0</ele><time>2026-04-09T12:15:04.999Z</time></trkpt><trkpt lat="45.9817834767263" lon="11.947986300843729"><ele>218.5</ele><time>2026-04-09T12:15:05.999Z</time></trkpt><trkpt lat="45.98190699549683" lon="11.948335743527894"><ele>227.0</ele><time>2026-04-09T12:15:06.999Z</time></trkpt><trkpt lat="45.98204751105424" lon="11.948684978534796"><ele>227.0</ele><time>2026-04-09T12:15:07.999Z</time></trkpt><trkpt lat="45.982158979240666" lon="11.949012353605706"><ele>227.0</ele><time>2026-04-09T12:15:08.999Z</time></trkpt><trkpt lat="45.98226771906666" lon="11.949313926343454"><ele>229.0</ele><time>2026-04-09T12:15:09.999Z</time></trkpt><trkpt lat="45.982367802499105" lon="11.949599505468168"><ele>231.0</ele><time>2026-04-09T12:15:10.999Z</time></trkpt><trkpt lat="45.98246587782173" lon="11.949875039157693"><ele>233.0</ele><time>2026-04-09T12:15:11.999Z</time></trkpt><trkpt lat="45.982569292726545" lon="11.950150128346245"><ele>233.0</ele><time>2026-04-09T12:15:12.999Z</time></trkpt><trkpt lat="45.98269600195463" lon="11.950425752816853"><ele>233.0</ele><time>2026-04-09T12:15:13.999Z</time></trkpt><trkpt lat="45.982847298755125" lon="11.950708177035612"><ele>222.5</ele><time>2026-04-09T12:15:14.999Z</time></trkpt><trkpt lat="45.9829990492609" lon="11.95097407506116"><ele>212.0</ele><time>2026-04-09T12:15:15.999Z</time></trkpt><trkpt lat="45.98314943862745" lon="11.951217146059173"><ele>212.0</ele><time>2026-04-09T12:15:16.999Z</time></trkpt><trkpt lat="45.98332191519702" lon="11.951464410931624"><ele>212.0</ele><time>2026-04-09T12:15:17.999Z</time></trkpt><trkpt lat="45.983521286031504" lon="11.951707647780967"><ele>213.0</ele><time>2026-04-09T12:15:18.999Z</time></trkpt><trkpt lat="45.983730123795596" lon="11.951980431800674"><ele>214.0</ele><time>2026-04-09T12:15:19.999Z</time></trkpt><trkpt lat="45.983955751621735" lon="11.952253186060478"><ele>214.0</ele><time>2026-04-09T12:15:20.999Z</time></trkpt><trkpt lat="45.98417218518276" lon="11.952486651288154"><ele>214.0</ele><time>2026-04-09T12:15:21.999Z</time></trkpt><trkpt lat="45.984353279298915" lon="11.952708112474594"><ele>214.0</ele><time>2026-04-09T12:15:22.999Z</time></trkpt><trkpt lat="45.98450583877367" lon="11.952895814415111"><ele>214.0</ele><time>2026-04-09T12:15:23.999Z</time></trkpt><trkpt lat="45.9846367630725" lon="11.953055000687016"><ele>214.0</ele><time>2026-04-09T12:15:24.999Z</time></trkpt><trkpt lat="45.984764729969164" lon="11.95318821452561"><ele>214.0</ele><time>2026-04-09T12:15:25.999Z</time></trkpt><trkpt lat="45.98489387074986" lon="11.953337468190243"><ele>214.0</ele><time>2026-04-09T12:15:26.999Z</time></trkpt><trkpt lat="45.98503486306761" lon="11.95348535086739"><ele>214.0</ele><time>2026-04-09T12:15:27.999Z</time></trkpt><trkpt lat="45.985290118657" lon="11.95341729690139"><ele>211.0</ele><time>2026-04-09T12:15:28.999Z</time></trkpt><trkpt lat="45.985506743554815" lon="11.953456380644587"><ele>208.0</ele><time>2026-04-09T12:15:29.999Z</time></trkpt><trkpt lat="45.98573963645432" lon="11.953475405163557"><ele>208.66666666666666</ele><time>2026-04-09T12:15:30.999Z</time></trkpt><trkpt lat="45.98595977256965" lon="11.95349428899532"><ele>209.33333333333331</ele><time>2026-04-09T12:15:31.999Z</time></trkpt><trkpt lat="45.986169858665114" lon="11.953494649947677"><ele>210.0</ele><time>2026-04-09T12:15:32.999Z</time></trkpt><trkpt lat="45.98636753709474" lon="11.95347229124277"><ele>210.0</ele><time>2026-04-09T12:15:33.999Z</time></trkpt><trkpt lat="45.986534019293295" lon="11.953466222650368"><ele>210.0</ele><time>2026-04-09T12:15:34.999Z</time></trkpt><trkpt lat="45.98670587532328" lon="11.953494657089676"><ele>210.0</ele><time>2026-04-09T12:15:35.999Z</time></trkpt><trkpt lat="45.986892869806375" lon="11.953555927603235"><ele>210.33333333333331</ele><time>2026-04-09T12:15:36.999Z</time></trkpt><trkpt lat="45.98707871052263" lon="11.953662090573062"><ele>210.66666666666666</ele><time>2026-04-09T12:15:37.999Z</time></trkpt><trkpt lat="45.98726662861261" lon="11.953791885416894"><ele>211.0</ele><time>2026-04-09T12:15:38.999Z</time></trkpt><trkpt lat="45.987446911839854" lon="11.953904164937919"><ele>212.33333333333331</ele><time>2026-04-09T12:15:40Z</time></trkpt><trkpt lat="45.98762228053728" lon="11.95397607071318"><ele>213.66666666666669</ele><time>2026-04-09T12:15:41Z</time></trkpt><trkpt lat="45.987807831911766" lon="11.9540153491364"><ele>215.0</ele><time>2026-04-09T12:15:42Z</time></trkpt><trkpt lat="45.988009594778795" lon="11.954018845351401"><ele>215.0</ele><time>2026-04-09T12:15:43Z</time></trkpt><trkpt lat="45.98823196952027" lon="11.954002926637946"><ele>215.0</ele><time>2026-04-09T12:15:44Z</time></trkpt><trkpt lat="45.98845516967169" lon="11.95397131924251"><ele>215.0</ele><time>2026-04-09T12:15:45Z</time></trkpt><trkpt lat="45.98865196668343" lon="11.953941763474628"><ele>214.0</ele><time>2026-04-09T12:15:46Z</time></trkpt><trkpt lat="45.988839047921324" lon="11.953885063536534"><ele>213.0</ele><time>2026-04-09T12:15:47Z</time></trkpt><trkpt lat="45.989029837964736" lon="11.953783352092243"><ele>212.0</ele><time>2026-04-09T12:15:48Z</time></trkpt><trkpt lat="45.989232664484284" lon="11.95365168431327"><ele>211.66666666666669</ele><time>2026-04-09T12:15:49Z</time></trkpt><trkpt lat="45.989431765612075" lon="11.95350804762475"><ele>211.33333333333331</ele><time>2026-04-09T12:15:50Z</time></trkpt><trkpt lat="45.98960855491178" lon="11.953393308940205"><ele>211.0</ele><time>2026-04-09T12:15:51Z</time></trkpt><trkpt lat="45.98977784061444" lon="11.953313629973907"><ele>213.0</ele><time>2026-04-09T12:15:52Z</time></trkpt><trkpt lat="45.9899641555294" lon="11.953255795715927"><ele>215.0</ele><time>2026-04-09T12:15:53Z</time></trkpt><trkpt lat="45.99018310708099" lon="11.953210726467798"><ele>217.0</ele><time>2026-04-09T12:15:54Z</time></trkpt><trkpt lat="45.99041698751933" lon="11.953173203379608"><ele>217.0</ele><time>2026-04-09T12:15:55Z</time></trkpt><trkpt lat="45.99062627879831" lon="11.953143383191673"><ele>217.0</ele><time>2026-04-09T12:15:56Z</time></trkpt><trkpt lat="45.990816630472835" lon="11.953102079953684"><ele>217.0</ele><time>2026-04-09T12:15:57Z</time></trkpt><trkpt lat="45.99100694305907" lon="11.953022688379503"><ele>215.5</ele><time>2026-04-09T12:15:58Z</time></trkpt><trkpt lat="45.991206267855766" lon="11.952899288538562"><ele>214.0</ele><time>2026-04-09T12:15:59Z</time></trkpt><trkpt lat="45.991428816539994" lon="11.952747437850423"><ele>214.0</ele><time>2026-04-09T12:16:00Z</time></trkpt><trkpt lat="45.9916648019789" lon="11.952584422503103"><ele>214.0</ele><time>2026-04-09T12:16:01Z</time></trkpt><trkpt lat="45.99188953103788" lon="11.952428011045278"><ele>215.5</ele><time>2026-04-09T12:16:02Z</time></trkpt><trkpt lat="45.99210045651874" lon="11.95227130868856"><ele>217.0</ele><time>2026-04-09T12:16:03Z</time></trkpt><trkpt lat="45.99231636576638" lon="11.952091762215854"><ele>216.5</ele><time>2026-04-09T12:16:04Z</time></trkpt><trkpt lat="45.99253905614391" lon="11.951868478279446"><ele>216.0</ele><time>2026-04-09T12:16:05Z</time></trkpt><trkpt lat="45.9927773078471" lon="11.951618984346963"><ele>216.0</ele><time>2026-04-09T12:16:06Z</time></trkpt><trkpt lat="45.99302876004729" lon="11.951358042829188"><ele>216.0</ele><time>2026-04-09T12:16:07Z</time></trkpt><trkpt lat="45.99327268277972" lon="11.951115329659249"><ele>217.0</ele><time>2026-04-09T12:16:08Z</time></trkpt><trkpt lat="45.99349409653683" lon="11.950885794893372"><ele>218.0</ele><time>2026-04-09T12:16:09Z</time></trkpt><trkpt lat="45.99370871578076" lon="11.95063418067771"><ele>218.0</ele><time>2026-04-09T12:16:10Z</time></trkpt><trkpt lat="45.99391213399774" lon="11.950382606002641"><ele>218.0</ele><time>2026-04-09T12:16:11Z</time></trkpt><trkpt lat="45.994097513816676" lon="11.950157356778863"><ele>218.66666666666669</ele><time>2026-04-09T12:16:12Z</time></trkpt><trkpt lat="45.994264118481716" lon="11.949946399109722"><ele>219.33333333333331</ele><time>2026-04-09T12:16:13Z</time></trkpt><trkpt lat="45.994438552935044" lon="11.949767616598896"><ele>220.0</ele><time>2026-04-09T12:16:14Z</time></trkpt><trkpt lat="45.99461773851547" lon="11.949606707867733"><ele>220.0</ele><time>2026-04-09T12:16:15Z</time></trkpt><trkpt lat="45.994827283174786" lon="11.949447681029184"><ele>220.0</ele><time>2026-04-09T12:16:16Z</time></trkpt><trkpt lat="45.99506594034891" lon="11.949290569358498"><ele>222.0</ele><time>2026-04-09T12:16:17Z</time></trkpt><trkpt lat="45.99531212361144" lon="11.949109115530613"><ele>224.0</ele><time>2026-04-09T12:16:18Z</time></trkpt><trkpt lat="45.995552010254514" lon="11.948959524703039"><ele>224.0</ele><time>2026-04-09T12:16:19Z</time></trkpt><trkpt lat="45.995768445789025" lon="11.948833010603787"><ele>224.0</ele><time>2026-04-09T12:16:20Z</time></trkpt><trkpt lat="45.99597602800201" lon="11.94873136498777"><ele>222.5</ele><time>2026-04-09T12:16:21Z</time></trkpt><trkpt lat="45.99618892070561" lon="11.948651441817042"><ele>221.0</ele><time>2026-04-09T12:16:22Z</time></trkpt><trkpt lat="45.99641693238212" lon="11.94858204273109"><ele>221.0</ele><time>2026-04-09T12:16:23Z</time></trkpt><trkpt lat="45.9966503322265" lon="11.948558939113521"><ele>221.0</ele><time>2026-04-09T12:16:24Z</time></trkpt><trkpt lat="45.99689642895815" lon="11.948525827565458"><ele>221.5</ele><time>2026-04-09T12:16:25Z</time></trkpt><trkpt lat="45.997157731064746" lon="11.948502371166766"><ele>222.0</ele><time>2026-04-09T12:16:26Z</time></trkpt><trkpt lat="45.997434995945284" lon="11.948475280973028"><ele>221.5</ele><time>2026-04-09T12:16:27Z</time></trkpt><trkpt lat="45.997713875351614" lon="11.948448280079502"><ele>221.0</ele><time>2026-04-09T12:16:28Z</time></trkpt><trkpt lat="45.99796197833081" lon="11.948426646709375"><ele>221.0</ele><time>2026-04-09T12:16:29Z</time></trkpt><trkpt lat="45.99818650029335" lon="11.948385039708713"><ele>221.0</ele><time>2026-04-09T12:16:30Z</time></trkpt><trkpt lat="45.9983971561272" lon="11.948373424809498"><ele>221.0</ele><time>2026-04-09T12:16:31Z</time></trkpt><trkpt lat="45.99858773441698" lon="11.948374821751582"><ele>221.33333333333334</ele><time>2026-04-09T12:16:32Z</time></trkpt><trkpt lat="45.99877206071368" lon="11.948385367218677"><ele>221.66666666666669</ele><time>2026-04-09T12:16:33Z</time></trkpt><trkpt lat="45.99895515845051" lon="11.948394940366615"><ele>222.0</ele><time>2026-04-09T12:16:34Z</time></trkpt><trkpt lat="45.99913699691231" lon="11.948397803339365"><ele>221.33333333333331</ele><time>2026-04-09T12:16:35Z</time></trkpt><trkpt lat="45.99930317788153" lon="11.948393275519352"><ele>220.66666666666666</ele><time>2026-04-09T12:16:36Z</time></trkpt><trkpt lat="45.99947311370081" lon="11.948361930040146"><ele>220.0</ele><time>2026-04-09T12:16:37Z</time></trkpt><trkpt lat="45.99964710964473" lon="11.948290723178594"><ele>221.66666666666666</ele><time>2026-04-09T12:16:38Z</time></trkpt><trkpt lat="45.999829655632986" lon="11.948193626340883"><ele>223.33333333333331</ele><time>2026-04-09T12:16:39Z</time></trkpt><trkpt lat="46.00000559788036" lon="11.94807404052027"><ele>225.0</ele><time>2026-04-09T12:16:40Z</time></trkpt><trkpt lat="46.000156625194535" lon="11.947936430868143"><ele>225.0</ele><time>2026-04-09T12:16:40.999Z</time></trkpt><trkpt lat="46.00027577388485" lon="11.947767080387543"><ele>225.0</ele><time>2026-04-09T12:16:41.999Z</time></trkpt><trkpt lat="46.00038259018752" lon="11.947576422511656"><ele>225.0</ele><time>2026-04-09T12:16:42.999Z</time></trkpt><trkpt lat="46.00047910774883" lon="11.947347517656459"><ele>226.0</ele><time>2026-04-09T12:16:43.999Z</time></trkpt><trkpt lat="46.000579987411555" lon="11.94708461804866"><ele>227.0</ele><time>2026-04-09T12:16:44.999Z</time></trkpt><trkpt lat="46.00069428311786" lon="11.946776440453666"><ele>228.0</ele><time>2026-04-09T12:16:45.999Z</time></trkpt><trkpt lat="46.00081510424253" lon="11.946496332457096"><ele>229.0</ele><time>2026-04-09T12:16:46.999Z</time></trkpt><trkpt lat="46.000905750474935" lon="11.946238290992554"><ele>230.0</ele><time>2026-04-09T12:16:47.999Z</time></trkpt><trkpt lat="46.00096946614691" lon="11.945982964880914"><ele>228.33333333333334</ele><time>2026-04-09T12:16:48.999Z</time></trkpt><trkpt lat="46.00101143049296" lon="11.945685085780344"><ele>226.66666666666669</ele><time>2026-04-09T12:16:49.999Z</time></trkpt><trkpt lat="46.001043695217035" lon="11.945360869993271"><ele>225.0</ele><time>2026-04-09T12:16:50.999Z</time></trkpt><trkpt lat="46.00106652536558" lon="11.945071555039732"><ele>225.0</ele><time>2026-04-09T12:16:51.999Z</time></trkpt><trkpt lat="46.00108396973461" lon="11.944816391826924"><ele>225.0</ele><time>2026-04-09T12:16:52.999Z</time></trkpt><trkpt lat="46.001080861843676" lon="11.944575596067764"><ele>225.0</ele><time>2026-04-09T12:16:53.999Z</time></trkpt><trkpt lat="46.00105440174791" lon="11.944339414619972"><ele>226.33333333333331</ele><time>2026-04-09T12:16:54.999Z</time></trkpt><trkpt lat="46.00100143259436" lon="11.944101949004557"><ele>227.66666666666666</ele><time>2026-04-09T12:16:55.999Z</time></trkpt><trkpt lat="46.00092701801738" lon="11.943860910008569"><ele>229.0</ele><time>2026-04-09T12:16:56.999Z</time></trkpt><trkpt lat="46.0008291653899" lon="11.943628819786186"><ele>229.0</ele><time>2026-04-09T12:16:57.999Z</time></trkpt><trkpt lat="46.000703115253636" lon="11.943404133737898"><ele>229.0</ele><time>2026-04-09T12:16:58.999Z</time></trkpt><trkpt lat="46.0005534002708" lon="11.943170904613687"><ele>229.0</ele><time>2026-04-09T12:16:59.999Z</time></trkpt><trkpt lat="46.0003903359732" lon="11.942938912362623"><ele>228.66666666666666</ele><time>2026-04-09T12:17:00.999Z</time></trkpt><trkpt lat="46.00024179293685" lon="11.942732503170648"><ele>228.33333333333331</ele><time>2026-04-09T12:17:01.999Z</time></trkpt><trkpt lat="46.00011019680915" lon="11.942531842968725"><ele>228.0</ele><time>2026-04-09T12:17:02.999Z</time></trkpt><trkpt lat="45.99999522084308" lon="11.942325322951817"><ele>228.66666666666669</ele><time>2026-04-09T12:17:03.999Z</time></trkpt><trkpt lat="45.99988952955183" lon="11.942109912625657"><ele>229.33333333333334</ele><time>2026-04-09T12:17:04.999Z</time></trkpt><trkpt lat="45.99980347915132" lon="11.941884713900365"><ele>230.0</ele><time>2026-04-09T12:17:05.999Z</time></trkpt><trkpt lat="45.99973966922911" lon="11.941664714882766"><ele>231.33333333333334</ele><time>2026-04-09T12:17:06.999Z</time></trkpt><trkpt lat="45.9996961531661" lon="11.941443585509948"><ele>232.66666666666669</ele><time>2026-04-09T12:17:07.999Z</time></trkpt><trkpt lat="45.999680793708535" lon="11.941221955002192"><ele>234.0</ele><time>2026-04-09T12:17:08.999Z</time></trkpt><trkpt lat="45.999692069567516" lon="11.940987980505158"><ele>234.33333333333331</ele><time>2026-04-09T12:17:09.999Z</time></trkpt><trkpt lat="45.999715291767906" lon="11.940754596644725"><ele>234.66666666666666</ele><time>2026-04-09T12:17:10.999Z</time></trkpt><trkpt lat="45.99975340097339" lon="11.940530616515861"><ele>235.0</ele><time>2026-04-09T12:17:11.999Z</time></trkpt><trkpt lat="45.99981606266983" lon="11.940315285019702"><ele>235.0</ele><time>2026-04-09T12:17:12.999Z</time></trkpt><trkpt lat="45.99989928188492" lon="11.9401164034402"><ele>235.0</ele><time>2026-04-09T12:17:13.999Z</time></trkpt><trkpt lat="46.00000173832647" lon="11.939928586148026"><ele>235.0</ele><time>2026-04-09T12:17:14.999Z</time></trkpt><trkpt lat="46.00012097446951" lon="11.939755965741137"><ele>233.33333333333331</ele><time>2026-04-09T12:17:15.999Z</time></trkpt><trkpt lat="46.000257931914206" lon="11.939611916647518"><ele>231.66666666666669</ele><time>2026-04-09T12:17:16.999Z</time></trkpt><trkpt lat="46.00041581701933" lon="11.939460563695107"><ele>230.0</ele><time>2026-04-09T12:17:17.999Z</time></trkpt><trkpt lat="46.00059996972585" lon="11.939331432121062"><ele>229.5</ele><time>2026-04-09T12:17:18.999Z</time></trkpt><trkpt lat="46.0007999297814" lon="11.93920977312809"><ele>229.0</ele><time>2026-04-09T12:17:19.999Z</time></trkpt><trkpt lat="46.00102180352356" lon="11.939091888215259"><ele>229.0</ele><time>2026-04-09T12:17:20.999Z</time></trkpt><trkpt lat="46.001269577047346" lon="11.938955608246447"><ele>229.0</ele><time>2026-04-09T12:17:21.999Z</time></trkpt><trkpt lat="46.001539847058574" lon="11.93880197908581"><ele>238.5</ele><time>2026-04-09T12:17:22.999Z</time></trkpt><trkpt lat="46.00182951277827" lon="11.93863770138392"><ele>248.0</ele><time>2026-04-09T12:17:23.999Z</time></trkpt><trkpt lat="46.00210690591424" lon="11.938494390609488"><ele>243.0</ele><time>2026-04-09T12:17:24.999Z</time></trkpt><trkpt lat="46.00235913536143" lon="11.938359960850741"><ele>238.0</ele><time>2026-04-09T12:17:25.999Z</time></trkpt><trkpt lat="46.00260596795109" lon="11.938223994851022"><ele>238.0</ele><time>2026-04-09T12:17:26.999Z</time></trkpt><trkpt lat="46.002869442884645" lon="11.938071469362026"><ele>238.0</ele><time>2026-04-09T12:17:27.999Z</time></trkpt><trkpt lat="46.00314517937002" lon="11.937908495500848"><ele>235.5</ele><time>2026-04-09T12:17:28.999Z</time></trkpt><trkpt lat="46.00343067997525" lon="11.93773737792194"><ele>233.0</ele><time>2026-04-09T12:17:29.999Z</time></trkpt><trkpt lat="46.00368610575777" lon="11.937590712836636"><ele>232.33333333333334</ele><time>2026-04-09T12:17:30.999Z</time></trkpt><trkpt lat="46.00390127512376" lon="11.937465181506166"><ele>231.66666666666669</ele><time>2026-04-09T12:17:31.999Z</time></trkpt><trkpt lat="46.00408991136567" lon="11.937350754584918"><ele>231.0</ele><time>2026-04-09T12:17:32.999Z</time></trkpt><trkpt lat="46.00425996784444" lon="11.937247891923354"><ele>231.0</ele><time>2026-04-09T12:17:33.999Z</time></trkpt><trkpt lat="46.004419665884804" lon="11.937133085487114"><ele>231.0</ele><time>2026-04-09T12:17:34.999Z</time></trkpt><trkpt lat="46.00456611898782" lon="11.936995999102319"><ele>231.0</ele><time>2026-04-09T12:17:35.999Z</time></trkpt><trkpt lat="46.004695059197054" lon="11.936829343000634"><ele>231.0</ele><time>2026-04-09T12:17:36.999Z</time></trkpt><trkpt lat="46.00480928889711" lon="11.93663754394823"><ele>231.0</ele><time>2026-04-09T12:17:37.999Z</time></trkpt><trkpt lat="46.00491196459481" lon="11.93640607307327"><ele>231.0</ele><time>2026-04-09T12:17:38.999Z</time></trkpt><trkpt lat="46.00502281303813" lon="11.936134940450412"><ele>231.0</ele><time>2026-04-09T12:17:39.999Z</time></trkpt><trkpt lat="46.005151376576" lon="11.93583377558384"><ele>231.0</ele><time>2026-04-09T12:17:40.999Z</time></trkpt><trkpt lat="46.00530512195561" lon="11.935515530022595"><ele>231.0</ele><time>2026-04-09T12:17:41.999Z</time></trkpt><trkpt lat="46.00547893027529" lon="11.935185772143434"><ele>231.0</ele><time>2026-04-09T12:17:42.999Z</time></trkpt><trkpt lat="46.00566785766084" lon="11.934837127535841"><ele>232.0</ele><time>2026-04-09T12:17:43.999Z</time></trkpt><trkpt lat="46.005864769091296" lon="11.934463574721654"><ele>233.0</ele><time>2026-04-09T12:17:44.999Z</time></trkpt><trkpt lat="46.00606545096613" lon="11.934091731382876"><ele>233.0</ele><time>2026-04-09T12:17:46Z</time></trkpt><trkpt lat="46.00626036677269" lon="11.933730700597431"><ele>233.0</ele><time>2026-04-09T12:17:47Z</time></trkpt><trkpt lat="46.00646638490317" lon="11.933339910457342"><ele>233.0</ele><time>2026-04-09T12:17:48Z</time></trkpt><trkpt lat="46.00668386468036" lon="11.932935923154881"><ele>233.0</ele><time>2026-04-09T12:17:49Z</time></trkpt><trkpt lat="46.00690931142452" lon="11.932519325112786"><ele>233.5</ele><time>2026-04-09T12:17:50Z</time></trkpt><trkpt lat="46.007141561385325" lon="11.932092463070793"><ele>234.0</ele><time>2026-04-09T12:17:51Z</time></trkpt><trkpt lat="46.00736589726955" lon="11.931676294717807"><ele>235.0</ele><time>2026-04-09T12:17:52Z</time></trkpt><trkpt lat="46.007553314466584" lon="11.931330858960827"><ele>236.0</ele><time>2026-04-09T12:17:53Z</time></trkpt><trkpt lat="46.00770235131762" lon="11.931057148641576"><ele>235.0</ele><time>2026-04-09T12:17:54Z</time></trkpt><trkpt lat="46.00782611743062" lon="11.930822839414517"><ele>234.0</ele><time>2026-04-09T12:17:55Z</time></trkpt><trkpt lat="46.007940792956944" lon="11.930611837717466"><ele>233.0</ele><time>2026-04-09T12:17:56Z</time></trkpt><trkpt lat="46.0080485721475" lon="11.93041401631713"><ele>233.0</ele><time>2026-04-09T12:17:57Z</time></trkpt><trkpt lat="46.00815004925285" lon="11.930227608578882"><ele>233.0</ele><time>2026-04-09T12:17:58Z</time></trkpt><trkpt lat="46.00823666881394" lon="11.930067768111693"><ele>233.0</ele><time>2026-04-09T12:17:59Z</time></trkpt><trkpt lat="46.00830555808556" lon="11.92993983234772"><ele>233.0</ele><time>2026-04-09T12:18:00Z</time></trkpt><trkpt lat="46.00836434594981" lon="11.929831957231974"><ele>233.50000000000003</ele><time>2026-04-09T12:18:01Z</time></trkpt><trkpt lat="46.00842482019221" lon="11.929734150698165"><ele>234.0</ele><time>2026-04-09T12:18:02Z</time></trkpt><trkpt lat="46.00849382492625" lon="11.929664814222258"><ele>234.5</ele><time>2026-04-09T12:18:03Z</time></trkpt><trkpt lat="46.00857327405952" lon="11.929634349903639"><ele>235.0</ele><time>2026-04-09T12:18:04Z</time></trkpt><trkpt lat="46.008661261604274" lon="11.929639642956534"><ele>235.50000000000003</ele><time>2026-04-09T12:18:05Z</time></trkpt><trkpt lat="46.00875132704385" lon="11.929680702166358"><ele>236.0</ele><time>2026-04-09T12:18:06Z</time></trkpt><trkpt lat="46.00884142701878" lon="11.92975733057033"><ele>236.0</ele><time>2026-04-09T12:18:07Z</time></trkpt><trkpt lat="46.00891756113852" lon="11.929818696833726"><ele>236.00000000000003</ele><time>2026-04-09T12:18:08Z</time></trkpt><trkpt lat="46.008983233007314" lon="11.929826415608678"><ele>236.00000000000003</ele><time>2026-04-09T12:18:09Z</time></trkpt><trkpt lat="46.009061769922816" lon="11.929798123077067"><ele>236.0</ele><time>2026-04-09T12:18:10Z</time></trkpt><trkpt lat="46.0091459743437" lon="11.929732118186495"><ele>236.0</ele><time>2026-04-09T12:18:11Z</time></trkpt><trkpt lat="46.00924616651036" lon="11.929631743061362"><ele>236.75</ele><time>2026-04-09T12:18:12Z</time></trkpt><trkpt lat="46.00936286738262" lon="11.929546322744303"><ele>237.5</ele><time>2026-04-09T12:18:13Z</time></trkpt><trkpt lat="46.00946869324914" lon="11.929489297612196"><ele>238.25</ele><time>2026-04-09T12:18:14Z</time></trkpt><trkpt lat="46.00956074816013" lon="11.92942332869315"><ele>239.0</ele><time>2026-04-09T12:18:15Z</time></trkpt><trkpt lat="46.0096468295652" lon="11.929308385892702"><ele>239.0</ele><time>2026-04-09T12:18:16Z</time></trkpt><trkpt lat="46.0097496139041" lon="11.92914155915943"><ele>239.0</ele><time>2026-04-09T12:18:17Z</time></trkpt><trkpt lat="46.009880334856554" lon="11.928921205141712"><ele>239.0</ele><time>2026-04-09T12:18:18Z</time></trkpt><trkpt lat="46.01001226085979" lon="11.928688565969386"><ele>238.5</ele><time>2026-04-09T12:18:19Z</time></trkpt><trkpt lat="46.01015818694873" lon="11.928440626682045"><ele>238.0</ele><time>2026-04-09T12:18:20Z</time></trkpt><trkpt lat="46.01032024438786" lon="11.92815938115859"><ele>239.5</ele><time>2026-04-09T12:18:21Z</time></trkpt><trkpt lat="46.0104844221077" lon="11.927917569591143"><ele>241.0</ele><time>2026-04-09T12:18:22Z</time></trkpt><trkpt lat="46.01063076934508" lon="11.927672482048797"><ele>240.5</ele><time>2026-04-09T12:18:23Z</time></trkpt><trkpt lat="46.010792309464954" lon="11.927395110290856"><ele>240.0</ele><time>2026-04-09T12:18:24Z</time></trkpt><trkpt lat="46.01094779991579" lon="11.927109923559053"><ele>240.0</ele><time>2026-04-09T12:18:25Z</time></trkpt><trkpt lat="46.01106750975874" lon="11.926837923595523"><ele>240.0</ele><time>2026-04-09T12:18:26Z</time></trkpt><trkpt lat="46.01118715560763" lon="11.926565623838151"><ele>240.0</ele><time>2026-04-09T12:18:27Z</time></trkpt><trkpt lat="46.01129318371815" lon="11.926261368422205"><ele>240.66666666666669</ele><time>2026-04-09T12:18:28Z</time></trkpt><trkpt lat="46.01138126735838" lon="11.925984345919936"><ele>241.33333333333334</ele><time>2026-04-09T12:18:29Z</time></trkpt><trkpt lat="46.011436948683944" lon="11.925766569480839"><ele>242.0</ele><time>2026-04-09T12:18:30Z</time></trkpt><trkpt lat="46.011474346321954" lon="11.925606823784452"><ele>242.0</ele><time>2026-04-09T12:18:31Z</time></trkpt><trkpt lat="46.01150620945756" lon="11.925428655119656"><ele>242.0</ele><time>2026-04-09T12:18:32Z</time></trkpt><trkpt lat="46.01154695192612" lon="11.92520277606807"><ele>242.0</ele><time>2026-04-09T12:18:33Z</time></trkpt><trkpt lat="46.01159777768601" lon="11.924947750400676"><ele>242.33333333333334</ele><time>2026-04-09T12:18:34Z</time></trkpt><trkpt lat="46.011649072074405" lon="11.924695014425577"><ele>242.66666666666669</ele><time>2026-04-09T12:18:35Z</time></trkpt><trkpt lat="46.01170349733937" lon="11.924482691624775"><ele>243.0</ele><time>2026-04-09T12:18:36Z</time></trkpt><trkpt lat="46.01176755549674" lon="11.924284777308422"><ele>244.0</ele><time>2026-04-09T12:18:37Z</time></trkpt><trkpt lat="46.01184749982566" lon="11.924117723222187"><ele>245.0</ele><time>2026-04-09T12:18:38Z</time></trkpt><trkpt lat="46.01194243318156" lon="11.92396738166492"><ele>246.0</ele><time>2026-04-09T12:18:39Z</time></trkpt><trkpt lat="46.01207011367146" lon="11.923856299766943"><ele>247.0</ele><time>2026-04-09T12:18:40Z</time></trkpt><trkpt lat="46.01221593829712" lon="11.92373090730097"><ele>247.0</ele><time>2026-04-09T12:18:41Z</time></trkpt><trkpt lat="46.01240134427364" lon="11.923572660937285"><ele>247.0</ele><time>2026-04-09T12:18:42Z</time></trkpt><trkpt lat="46.012566014713904" lon="11.923398820089375"><ele>247.0</ele><time>2026-04-09T12:18:43Z</time></trkpt><trkpt lat="46.01272157136403" lon="11.923203720576058"><ele>247.33333333333331</ele><time>2026-04-09T12:18:44Z</time></trkpt><trkpt lat="46.01287039715454" lon="11.922987235094029"><ele>247.66666666666669</ele><time>2026-04-09T12:18:44.999Z</time></trkpt><trkpt lat="46.01300728948394" lon="11.922762517879734"><ele>248.0</ele><time>2026-04-09T12:18:45.999Z</time></trkpt><trkpt lat="46.013140449146256" lon="11.922495439906644"><ele>248.0</ele><time>2026-04-09T12:18:46.999Z</time></trkpt><trkpt lat="46.01326140399136" lon="11.922209324310339"><ele>248.0</ele><time>2026-04-09T12:18:47.999Z</time></trkpt><trkpt lat="46.01334196734156" lon="11.921926269318412"><ele>248.0</ele><time>2026-04-09T12:18:48.999Z</time></trkpt><trkpt lat="46.01342208524253" lon="11.921652669047793"><ele>249.33333333333334</ele><time>2026-04-09T12:18:49.999Z</time></trkpt><trkpt lat="46.01349428035223" lon="11.921364842011979"><ele>250.66666666666669</ele><time>2026-04-09T12:18:50.999Z</time></trkpt><trkpt lat="46.013548947409596" lon="11.921056022114813"><ele>252.0</ele><time>2026-04-09T12:18:51.999Z</time></trkpt><trkpt lat="46.01358810037951" lon="11.92073805651933"><ele>254.0</ele><time>2026-04-09T12:18:52.999Z</time></trkpt><trkpt lat="46.013604166371316" lon="11.920371414679677"><ele>256.0</ele><time>2026-04-09T12:18:53.999Z</time></trkpt><trkpt lat="46.013615510695665" lon="11.919993822866644"><ele>258.5</ele><time>2026-04-09T12:18:54.999Z</time></trkpt><trkpt lat="46.01361895475173" lon="11.919662819007005"><ele>261.0</ele><time>2026-04-09T12:18:55.999Z</time></trkpt><trkpt lat="46.01362293830875" lon="11.919342006417967"><ele>260.0</ele><time>2026-04-09T12:18:56.999Z</time></trkpt><trkpt lat="46.01360889548841" lon="11.918994884282549"><ele>259.0</ele><time>2026-04-09T12:18:57.999Z</time></trkpt><trkpt lat="46.01358224764971" lon="11.918647627087735"><ele>257.3333333333333</ele><time>2026-04-09T12:18:58.999Z</time></trkpt><trkpt lat="46.013546444758305" lon="11.918342360146788"><ele>255.66666666666669</ele><time>2026-04-09T12:18:59.999Z</time></trkpt><trkpt lat="46.01351914619774" lon="11.918066792521707"><ele>254.0</ele><time>2026-04-09T12:19:00.999Z</time></trkpt><trkpt lat="46.01350189294293" lon="11.91781411414521"><ele>255.66666666666669</ele><time>2026-04-09T12:19:01.999Z</time></trkpt><trkpt lat="46.01349734467003" lon="11.917563014588815"><ele>257.3333333333333</ele><time>2026-04-09T12:19:02.999Z</time></trkpt><trkpt lat="46.0135064091147" lon="11.91728480165934"><ele>259.0</ele><time>2026-04-09T12:19:03.999Z</time></trkpt><trkpt lat="46.01355146172478" lon="11.916983580098025"><ele>258.5</ele><time>2026-04-09T12:19:04.999Z</time></trkpt><trkpt lat="46.01359485882049" lon="11.916654303284062"><ele>258.0</ele><time>2026-04-09T12:19:05.999Z</time></trkpt><trkpt lat="46.013636368346724" lon="11.916303493510394"><ele>258.0</ele><time>2026-04-09T12:19:06.999Z</time></trkpt><trkpt lat="46.01368516359104" lon="11.915988377083737"><ele>258.0</ele><time>2026-04-09T12:19:07.999Z</time></trkpt><trkpt lat="46.01373148828607" lon="11.91571219834962"><ele>258.0</ele><time>2026-04-09T12:19:08.999Z</time></trkpt><trkpt lat="46.01376743543554" lon="11.915453153308793"><ele>256.0</ele><time>2026-04-09T12:19:09.999Z</time></trkpt><trkpt lat="46.01379611627143" lon="11.915225425158555"><ele>254.0</ele><time>2026-04-09T12:19:10.999Z</time></trkpt><trkpt lat="46.01382701918556" lon="11.915009138534161"><ele>252.0</ele><time>2026-04-09T12:19:11.999Z</time></trkpt><trkpt lat="46.01385386665045" lon="11.91480527161008"><ele>251.75</ele><time>2026-04-09T12:19:12.999Z</time></trkpt><trkpt lat="46.01387516150854" lon="11.914613807217677"><ele>251.5</ele><time>2026-04-09T12:19:13.999Z</time></trkpt><trkpt lat="46.013883996574556" lon="11.914433898422804"><ele>251.25</ele><time>2026-04-09T12:19:14.999Z</time></trkpt><trkpt lat="46.01388651242291" lon="11.914260277766253"><ele>251.0</ele><time>2026-04-09T12:19:15.999Z</time></trkpt><trkpt lat="46.01389058723982" lon="11.914098193562769"><ele>251.0</ele><time>2026-04-09T12:19:16.999Z</time></trkpt><trkpt lat="46.013889258011275" lon="11.913933749381922"><ele>251.00000000000003</ele><time>2026-04-09T12:19:17.999Z</time></trkpt><trkpt lat="46.0138768541043" lon="11.91376894998266"><ele>251.00000000000003</ele><time>2026-04-09T12:19:18.999Z</time></trkpt><trkpt lat="46.01386067565013" lon="11.913623343491338"><ele>251.0</ele><time>2026-04-09T12:19:19.999Z</time></trkpt><trkpt lat="46.01384745812132" lon="11.913500215246502"><ele>251.0</ele><time>2026-04-09T12:19:20.999Z</time></trkpt><trkpt lat="46.01383158085234" lon="11.913392355868018"><ele>251.00000000000003</ele><time>2026-04-09T12:19:21.999Z</time></trkpt><trkpt lat="46.01381582916267" lon="11.91329961758562"><ele>251.0</ele><time>2026-04-09T12:19:22.999Z</time></trkpt><trkpt lat="46.01379837584848" lon="11.913193083993418"><ele>251.0</ele><time>2026-04-09T12:19:23.999Z</time></trkpt><trkpt lat="46.01378415491027" lon="11.913096600860031"><ele>251.0</ele><time>2026-04-09T12:19:24.999Z</time></trkpt><trkpt lat="46.013767150283215" lon="11.912975591812712"><ele>251.00000000000003</ele><time>2026-04-09T12:19:26.999Z</time></trkpt><trkpt lat="46.01376930305617" lon="11.912879162067563"><ele>251.0</ele><time>2026-04-09T12:19:28.999Z</time></trkpt><trkpt lat="46.0138123079733" lon="11.912716143027728"><ele>251.0</ele><time>2026-04-09T12:19:30.999Z</time></trkpt><trkpt lat="46.013860101419574" lon="11.912604250212611"><ele>251.00000000000003</ele><time>2026-04-09T12:19:32.999Z</time></trkpt><trkpt lat="46.01382481655971" lon="11.912479035360278"><ele>251.00000000000003</ele><time>2026-04-09T12:19:34.999Z</time></trkpt><trkpt lat="46.01370371992468" lon="11.912397657262193"><ele>251.0</ele><time>2026-04-09T12:19:36.999Z</time></trkpt><trkpt lat="46.01362999562024" lon="11.91234966746206"><ele>251.0</ele><time>2026-04-09T12:19:37.999Z</time></trkpt><trkpt lat="46.01358306781205" lon="11.912274814962254"><ele>251.5</ele><time>2026-04-09T12:19:38.999Z</time></trkpt><trkpt lat="46.01355335632497" lon="11.912174550528205"><ele>252.0</ele><time>2026-04-09T12:19:39.999Z</time></trkpt><trkpt lat="46.01349529625376" lon="11.912018140802047"><ele>252.5</ele><time>2026-04-09T12:19:40.999Z</time></trkpt><trkpt lat="46.013450429895535" lon="11.91182257861393"><ele>253.0</ele><time>2026-04-09T12:19:41.999Z</time></trkpt><trkpt lat="46.01341393396713" lon="11.911670776394972"><ele>253.33333333333331</ele><time>2026-04-09T12:19:42.999Z</time></trkpt><trkpt lat="46.01337373498522" lon="11.91156588933032"><ele>253.66666666666666</ele><time>2026-04-09T12:19:43.999Z</time></trkpt><trkpt lat="46.013360711345705" lon="11.911468608390896"><ele>254.0</ele><time>2026-04-09T12:19:44.999Z</time></trkpt><trkpt lat="46.01334012386387" lon="11.911360197505156"><ele>254.33333333333331</ele><time>2026-04-09T12:19:45.999Z</time></trkpt><trkpt lat="46.01331439060988" lon="11.911234846535947"><ele>254.66666666666666</ele><time>2026-04-09T12:19:46.999Z</time></trkpt><trkpt lat="46.013289760151615" lon="11.911104939068132"><ele>255.0</ele><time>2026-04-09T12:19:47.999Z</time></trkpt><trkpt lat="46.01327004126022" lon="11.911004171039757"><ele>255.0</ele><time>2026-04-09T12:19:48.999Z</time></trkpt><trkpt lat="46.013243138673076" lon="11.910904591648407"><ele>255.0</ele><time>2026-04-09T12:19:49.999Z</time></trkpt><trkpt lat="46.01321746873213" lon="11.910798703644314"><ele>255.0</ele><time>2026-04-09T12:19:50.999Z</time></trkpt><trkpt lat="46.01319729961674" lon="11.910696188583394"><ele>255.0</ele><time>2026-04-09T12:19:52Z</time></trkpt><trkpt lat="46.013175562623" lon="11.910584838206153"><ele>255.0</ele><time>2026-04-09T12:19:53Z</time></trkpt><trkpt lat="46.013145998816725" lon="11.910460965629076"><ele>255.0</ele><time>2026-04-09T12:19:54Z</time></trkpt><trkpt lat="46.01311352010092" lon="11.910335268244483"><ele>255.0</ele><time>2026-04-09T12:19:55Z</time></trkpt><trkpt lat="46.01308400076141" lon="11.910215825842181"><ele>255.0</ele><time>2026-04-09T12:19:56Z</time></trkpt><trkpt lat="46.013061017522354" lon="11.910107526603511"><ele>255.0</ele><time>2026-04-09T12:19:57Z</time></trkpt><trkpt lat="46.01303771861512" lon="11.910005651100935"><ele>255.0</ele><time>2026-04-09T12:19:58Z</time></trkpt><trkpt lat="46.01301233981763" lon="11.909900736650567"><ele>255.0</ele><time>2026-04-09T12:19:59Z</time></trkpt><trkpt lat="46.012973300640795" lon="11.909776615213584"><ele>255.0</ele><time>2026-04-09T12:20:01Z</time></trkpt><trkpt lat="46.01295372355542" lon="11.909628835652255"><ele>254.83333333333334</ele><time>2026-04-09T12:20:03Z</time></trkpt><trkpt lat="46.01296031248832" lon="11.909531192704286"><ele>254.66666666666669</ele><time>2026-04-09T12:20:04Z</time></trkpt><trkpt lat="46.0129669714055" lon="11.9094259421517"><ele>254.5</ele><time>2026-04-09T12:20:05Z</time></trkpt><trkpt lat="46.01297494646799" lon="11.909316218054098"><ele>254.33333333333334</ele><time>2026-04-09T12:20:06Z</time></trkpt><trkpt lat="46.0129900289951" lon="11.909211567325162"><ele>254.16666666666669</ele><time>2026-04-09T12:20:07Z</time></trkpt><trkpt lat="46.01302443608243" lon="11.909103270891617"><ele>254.0</ele><time>2026-04-09T12:20:08Z</time></trkpt><trkpt lat="46.01307825215135" lon="11.908991740262124"><ele>254.0</ele><time>2026-04-09T12:20:09Z</time></trkpt><trkpt lat="46.013142083344796" lon="11.908882589451482"><ele>253.99999999999997</ele><time>2026-04-09T12:20:10Z</time></trkpt><trkpt lat="46.0132115910377" lon="11.908772988551618"><ele>253.99999999999997</ele><time>2026-04-09T12:20:11Z</time></trkpt><trkpt lat="46.013283765817704" lon="11.908672377853552"><ele>254.0</ele><time>2026-04-09T12:20:12Z</time></trkpt><trkpt lat="46.013346266370114" lon="11.908584023091239"><ele>254.0</ele><time>2026-04-09T12:20:13Z</time></trkpt><trkpt lat="46.01339808774854" lon="11.908508158057574"><ele>254.2</ele><time>2026-04-09T12:20:14Z</time></trkpt><trkpt lat="46.01345073217086" lon="11.90842705707986"><ele>254.39999999999998</ele><time>2026-04-09T12:20:15Z</time></trkpt><trkpt lat="46.013519799704255" lon="11.908341802618654"><ele>254.6</ele><time>2026-04-09T12:20:16Z</time></trkpt><trkpt lat="46.01359242269715" lon="11.908243155261674"><ele>254.8</ele><time>2026-04-09T12:20:17Z</time></trkpt><trkpt lat="46.013663818600605" lon="11.908140679802248"><ele>255.0</ele><time>2026-04-09T12:20:18Z</time></trkpt><trkpt lat="46.013735706142214" lon="11.908035693258038"><ele>255.16666666666666</ele><time>2026-04-09T12:20:19Z</time></trkpt><trkpt lat="46.01380245360664" lon="11.907940665950965"><ele>255.33333333333331</ele><time>2026-04-09T12:20:20Z</time></trkpt><trkpt lat="46.01386482258908" lon="11.907858786221398"><ele>255.5</ele><time>2026-04-09T12:20:21Z</time></trkpt><trkpt lat="46.013919499235236" lon="11.907779271531478"><ele>255.66666666666666</ele><time>2026-04-09T12:20:22Z</time></trkpt><trkpt lat="46.01396847646723" lon="11.907713424093647"><ele>255.83333333333331</ele><time>2026-04-09T12:20:23Z</time></trkpt><trkpt lat="46.01401780440467" lon="11.907643934191974"><ele>256.0</ele><time>2026-04-09T12:20:24Z</time></trkpt><trkpt lat="46.01407173702671" lon="11.907566678620718"><ele>255.99999999999997</ele><time>2026-04-09T12:20:25Z</time></trkpt><trkpt lat="46.01412582115127" lon="11.90749253362494"><ele>256.0</ele><time>2026-04-09T12:20:26Z</time></trkpt><trkpt lat="46.01417342215314" lon="11.907425095454805"><ele>256.0</ele><time>2026-04-09T12:20:27Z</time></trkpt><trkpt lat="46.014254478847356" lon="11.90734722230457"><ele>256.0</ele><time>2026-04-09T12:20:29Z</time></trkpt><trkpt lat="46.01433072449634" lon="11.907240646402744"><ele>255.99999999999997</ele><time>2026-04-09T12:20:31Z</time></trkpt><trkpt lat="46.01440288494976" lon="11.907139872189218"><ele>256.0</ele><time>2026-04-09T12:20:33Z</time></trkpt><trkpt lat="46.01449783049" lon="11.907005577194784"><ele>255.99999999999997</ele><time>2026-04-09T12:20:35Z</time></trkpt><trkpt lat="46.01455334727154" lon="11.906926741779051"><ele>256.0</ele><time>2026-04-09T12:20:36Z</time></trkpt><trkpt lat="46.01461131819229" lon="11.906844421711368"><ele>256.0</ele><time>2026-04-09T12:20:37Z</time></trkpt><trkpt lat="46.014664880945816" lon="11.906729154407024"><ele>256.0</ele><time>2026-04-09T12:20:38Z</time></trkpt><trkpt lat="46.01473763324505" lon="11.906626709209643"><ele>255.99999999999997</ele><time>2026-04-09T12:20:39Z</time></trkpt><trkpt lat="46.01479759601418" lon="11.906540889718617"><ele>256.0</ele><time>2026-04-09T12:20:40Z</time></trkpt><trkpt lat="46.014860804774564" lon="11.906452203506646"><ele>256.40000000000003</ele><time>2026-04-09T12:20:41Z</time></trkpt><trkpt lat="46.0149252447848" lon="11.906358554677094"><ele>256.8</ele><time>2026-04-09T12:20:42Z</time></trkpt><trkpt lat="46.014985431094004" lon="11.906262209004977"><ele>257.20000000000005</ele><time>2026-04-09T12:20:43Z</time></trkpt><trkpt lat="46.015041153285644" lon="11.906163369607235"><ele>257.6</ele><time>2026-04-09T12:20:44Z</time></trkpt><trkpt lat="46.0150861770146" lon="11.906045087238818"><ele>258.0</ele><time>2026-04-09T12:20:45Z</time></trkpt><trkpt lat="46.01512250636433" lon="11.905927000007535"><ele>258.8</ele><time>2026-04-09T12:20:46Z</time></trkpt><trkpt lat="46.01515074511421" lon="11.905784624403244"><ele>259.6</ele><time>2026-04-09T12:20:47Z</time></trkpt><trkpt lat="46.01517748941921" lon="11.905641634307779"><ele>260.4</ele><time>2026-04-09T12:20:48Z</time></trkpt><trkpt lat="46.015218343584664" lon="11.905500109228909"><ele>261.2</ele><time>2026-04-09T12:20:48.999Z</time></trkpt><trkpt lat="46.01523846490848" lon="11.905374229678273"><ele>262.0</ele><time>2026-04-09T12:20:49.999Z</time></trkpt><trkpt lat="46.01525245789728" lon="11.905281952168057"><ele>262.0</ele><time>2026-04-09T12:20:50.999Z</time></trkpt><trkpt lat="46.01526000311856" lon="11.905115394941607"><ele>262.0</ele><time>2026-04-09T12:20:52.999Z</time></trkpt><trkpt lat="46.0152918163868" lon="11.90493165202106"><ele>262.0</ele><time>2026-04-09T12:20:54.999Z</time></trkpt><trkpt lat="46.01531015920051" lon="11.904821851064284"><ele>262.0</ele><time>2026-04-09T12:20:55.999Z</time></trkpt><trkpt lat="46.01532871127645" lon="11.904701879469812"><ele>262.0</ele><time>2026-04-09T12:20:56.999Z</time></trkpt><trkpt lat="46.015351705020656" lon="11.904576077987702"><ele>262.2</ele><time>2026-04-09T12:20:57.999Z</time></trkpt><trkpt lat="46.015378632895604" lon="11.904448230876797"><ele>262.4</ele><time>2026-04-09T12:20:58.999Z</time></trkpt><trkpt lat="46.015402028157716" lon="11.904314091575028"><ele>262.6</ele><time>2026-04-09T12:20:59.999Z</time></trkpt><trkpt lat="46.0154229656574" lon="11.904178313965549"><ele>262.8</ele><time>2026-04-09T12:21:00.999Z</time></trkpt><trkpt lat="46.015444852146985" lon="11.904040737145847"><ele>263.0</ele><time>2026-04-09T12:21:01.999Z</time></trkpt><trkpt lat="46.015467768346156" lon="11.903901797535097"><ele>263.0</ele><time>2026-04-09T12:21:02.999Z</time></trkpt><trkpt lat="46.0154906324547" lon="11.90375943575876"><ele>263.0</ele><time>2026-04-09T12:21:03.999Z</time></trkpt><trkpt lat="46.01551458635959" lon="11.903618028258176"><ele>263.0</ele><time>2026-04-09T12:21:04.999Z</time></trkpt><trkpt lat="46.01553692103089" lon="11.903476074690174"><ele>263.0</ele><time>2026-04-09T12:21:05.999Z</time></trkpt><trkpt lat="46.01555818694992" lon="11.903343496046073"><ele>263.0</ele><time>2026-04-09T12:21:06.999Z</time></trkpt><trkpt lat="46.01558018134498" lon="11.903219242857112"><ele>263.0</ele><time>2026-04-09T12:21:07.999Z</time></trkpt><trkpt lat="46.0156050440119" lon="11.903092654062393"><ele>263.0</ele><time>2026-04-09T12:21:08.999Z</time></trkpt><trkpt lat="46.01563054767984" lon="11.902964772700642"><ele>263.0</ele><time>2026-04-09T12:21:09.999Z</time></trkpt><trkpt lat="46.015650801809294" lon="11.902834405549616"><ele>263.0</ele><time>2026-04-09T12:21:10.999Z</time></trkpt><trkpt lat="46.01567094469424" lon="11.902714896063781"><ele>263.0</ele><time>2026-04-09T12:21:11.999Z</time></trkpt><trkpt lat="46.01568831617952" lon="11.90259660499855"><ele>263.0</ele><time>2026-04-09T12:21:12.999Z</time></trkpt><trkpt lat="46.015706588154664" lon="11.902479206799196"><ele>263.0</ele><time>2026-04-09T12:21:13.999Z</time></trkpt><trkpt lat="46.01572419757664" lon="11.902356088330231"><ele>263.0</ele><time>2026-04-09T12:21:14.999Z</time></trkpt><trkpt lat="46.01574388158393" lon="11.902231774763695"><ele>263.0</ele><time>2026-04-09T12:21:15.999Z</time></trkpt><trkpt lat="46.01575103914043" lon="11.902100121705054"><ele>263.0</ele><time>2026-04-09T12:21:16.999Z</time></trkpt><trkpt lat="46.01575959807414" lon="11.901972399355989"><ele>263.0</ele><time>2026-04-09T12:21:17.999Z</time></trkpt><trkpt lat="46.01578469377724" lon="11.901846558992588"><ele>263.0</ele><time>2026-04-09T12:21:18.999Z</time></trkpt><trkpt lat="46.01583306905078" lon="11.90173073216571"><ele>263.8</ele><time>2026-04-09T12:21:19.999Z</time></trkpt><trkpt lat="46.01589160651766" lon="11.90162571762078"><ele>264.6</ele><time>2026-04-09T12:21:20.999Z</time></trkpt><trkpt lat="46.01596287175153" lon="11.901535304562936"><ele>265.4</ele><time>2026-04-09T12:21:21.999Z</time></trkpt><trkpt lat="46.01604941223505" lon="11.901475849981052"><ele>266.2</ele><time>2026-04-09T12:21:22.999Z</time></trkpt><trkpt lat="46.016139014831964" lon="11.901430282010201"><ele>267.0</ele><time>2026-04-09T12:21:23.999Z</time></trkpt><trkpt lat="46.016228675201546" lon="11.901389108145635"><ele>267.0</ele><time>2026-04-09T12:21:24.999Z</time></trkpt><trkpt lat="46.016313533307816" lon="11.901342711779234"><ele>267.0</ele><time>2026-04-09T12:21:25.999Z</time></trkpt><trkpt lat="46.01640464419979" lon="11.901300406157672"><ele>267.0</ele><time>2026-04-09T12:21:26.999Z</time></trkpt><trkpt lat="46.01649192461515" lon="11.90124810792821"><ele>267.0</ele><time>2026-04-09T12:21:27.999Z</time></trkpt><trkpt lat="46.016581066313506" lon="11.901197544345857"><ele>267.0</ele><time>2026-04-09T12:21:28.999Z</time></trkpt><trkpt lat="46.01667236882089" lon="11.901147338924218"><ele>266.8</ele><time>2026-04-09T12:21:29.999Z</time></trkpt><trkpt lat="46.01676826781809" lon="11.901099676434736"><ele>266.6</ele><time>2026-04-09T12:21:30.999Z</time></trkpt><trkpt lat="46.016859926221926" lon="11.901048379904097"><ele>266.40000000000003</ele><time>2026-04-09T12:21:31.999Z</time></trkpt><trkpt lat="46.01694845318284" lon="11.90099411862154"><ele>266.2</ele><time>2026-04-09T12:21:32.999Z</time></trkpt><trkpt lat="46.01704136243498" lon="11.900942918200142"><ele>266.0</ele><time>2026-04-09T12:21:33.999Z</time></trkpt><trkpt lat="46.01712875987362" lon="11.900896248192444"><ele>266.0</ele><time>2026-04-09T12:21:34.999Z</time></trkpt><trkpt lat="46.01719366152474" lon="11.90085866485623"><ele>266.0</ele><time>2026-04-09T12:21:35.999Z</time></trkpt><trkpt lat="46.01729085823587" lon="11.900779887844743"><ele>266.0</ele><time>2026-04-09T12:21:37.999Z</time></trkpt><trkpt lat="46.017353752612536" lon="11.900725378185204"><ele>266.0</ele><time>2026-04-09T12:21:40.999Z</time></trkpt><trkpt lat="46.017456942148414" lon="11.90071100657116"><ele>266.0</ele><time>2026-04-09T12:21:43.999Z</time></trkpt><trkpt lat="46.017574433235296" lon="11.900675008803766"><ele>266.40000000000003</ele><time>2026-04-09T12:21:45.999Z</time></trkpt><trkpt lat="46.01763801043055" lon="11.900634300506363"><ele>266.8</ele><time>2026-04-09T12:21:46.999Z</time></trkpt><trkpt lat="46.01774794908648" lon="11.900557943354528"><ele>267.20000000000005</ele><time>2026-04-09T12:21:48.999Z</time></trkpt><trkpt lat="46.01783534927275" lon="11.900478593106744"><ele>267.6</ele><time>2026-04-09T12:21:50.999Z</time></trkpt><trkpt lat="46.01793322481193" lon="11.900352437654801"><ele>268.0</ele><time>2026-04-09T12:21:52.999Z</time></trkpt><trkpt lat="46.01797739629366" lon="11.90026629743671"><ele>268.0</ele><time>2026-04-09T12:21:53.999Z</time></trkpt><trkpt lat="46.018018242032625" lon="11.900178596009125"><ele>268.0</ele><time>2026-04-09T12:21:54.999Z</time></trkpt><trkpt lat="46.01805739563114" lon="11.900095948318372"><ele>268.0</ele><time>2026-04-09T12:21:55.999Z</time></trkpt><trkpt lat="46.01809007759125" lon="11.900008631687728"><ele>268.0</ele><time>2026-04-09T12:21:56.999Z</time></trkpt><trkpt lat="46.0181317377706" lon="11.899929517138867"><ele>268.0</ele><time>2026-04-09T12:21:58Z</time></trkpt><trkpt lat="46.01809113967574" lon="11.899788778766007"><ele>268.0</ele><time>2026-04-09T12:21:59Z</time></trkpt><trkpt lat="46.01806182319189" lon="11.899681597191432"><ele>268.3333333333333</ele><time>2026-04-09T12:22:00Z</time></trkpt><trkpt lat="46.018030351439116" lon="11.89957173376832"><ele>268.66666666666663</ele><time>2026-04-09T12:22:01Z</time></trkpt><trkpt lat="46.01800845116487" lon="11.899448817606462"><ele>269.0</ele><time>2026-04-09T12:22:02Z</time></trkpt><trkpt lat="46.0179924416461" lon="11.899334846364242"><ele>269.3333333333333</ele><time>2026-04-09T12:22:03Z</time></trkpt><trkpt lat="46.01797408988761" lon="11.899226105879475"><ele>269.6666666666667</ele><time>2026-04-09T12:22:04Z</time></trkpt><trkpt lat="46.01795508065611" lon="11.89910570348344"><ele>270.0</ele><time>2026-04-09T12:22:05Z</time></trkpt><trkpt lat="46.017954407583794" lon="11.898974468156535"><ele>270.0</ele><time>2026-04-09T12:22:06Z</time></trkpt><trkpt lat="46.017940169980804" lon="11.89883773407741"><ele>270.0</ele><time>2026-04-09T12:22:07Z</time></trkpt><trkpt lat="46.017913376488146" lon="11.898696117267551"><ele>270.0</ele><time>2026-04-09T12:22:08Z</time></trkpt><trkpt lat="46.017899330384026" lon="11.898541805990826"><ele>270.0</ele><time>2026-04-09T12:22:09Z</time></trkpt><trkpt lat="46.017878894599875" lon="11.898364946792968"><ele>270.0</ele><time>2026-04-09T12:22:10Z</time></trkpt><trkpt lat="46.017855116147324" lon="11.898165839317329"><ele>270.2</ele><time>2026-04-09T12:22:11Z</time></trkpt><trkpt lat="46.0178530667106" lon="11.89799179302276"><ele>270.4</ele><time>2026-04-09T12:22:12Z</time></trkpt><trkpt lat="46.01783598557299" lon="11.897820864680066"><ele>270.6</ele><time>2026-04-09T12:22:13Z</time></trkpt><trkpt lat="46.017818893022394" lon="11.897671773563596"><ele>270.8</ele><time>2026-04-09T12:22:14Z</time></trkpt><trkpt lat="46.01780692708938" lon="11.897528924020765"><ele>271.0</ele><time>2026-04-09T12:22:15Z</time></trkpt><trkpt lat="46.017791202141375" lon="11.897395465271204"><ele>271.0</ele><time>2026-04-09T12:22:16Z</time></trkpt><trkpt lat="46.01777318740759" lon="11.897265108145612"><ele>271.0</ele><time>2026-04-09T12:22:17Z</time></trkpt><trkpt lat="46.0177547044013" lon="11.897131566387456"><ele>271.0</ele><time>2026-04-09T12:22:18Z</time></trkpt><trkpt lat="46.017726180240864" lon="11.896990124256353"><ele>271.0</ele><time>2026-04-09T12:22:19Z</time></trkpt><trkpt lat="46.01769068344516" lon="11.896841523268485"><ele>271.0</ele><time>2026-04-09T12:22:20Z</time></trkpt><trkpt lat="46.017655400386936" lon="11.896691371649895"><ele>270.5</ele><time>2026-04-09T12:22:21Z</time></trkpt><trkpt lat="46.017620270037895" lon="11.896535606859405"><ele>270.0</ele><time>2026-04-09T12:22:22Z</time></trkpt><trkpt lat="46.01758781310332" lon="11.89637615709981"><ele>269.5</ele><time>2026-04-09T12:22:23Z</time></trkpt><trkpt lat="46.01755328130193" lon="11.896215097082699"><ele>269.0</ele><time>2026-04-09T12:22:24Z</time></trkpt><trkpt lat="46.01751843804064" lon="11.896048474490808"><ele>268.25</ele><time>2026-04-09T12:22:25Z</time></trkpt><trkpt lat="46.01747939790605" lon="11.895879539140791"><ele>267.5</ele><time>2026-04-09T12:22:26Z</time></trkpt><trkpt lat="46.0174398578176" lon="11.895706469659306"><ele>266.75</ele><time>2026-04-09T12:22:27Z</time></trkpt><trkpt lat="46.01740160632642" lon="11.895528259576885"><ele>266.0</ele><time>2026-04-09T12:22:28Z</time></trkpt><trkpt lat="46.0173628957963" lon="11.895345026394597"><ele>266.0</ele><time>2026-04-09T12:22:29Z</time></trkpt><trkpt lat="46.017323244937266" lon="11.895158750577131"><ele>266.0</ele><time>2026-04-09T12:22:30Z</time></trkpt><trkpt lat="46.017285141999935" lon="11.894967183540816"><ele>266.0</ele><time>2026-04-09T12:22:31Z</time></trkpt><trkpt lat="46.01724648089151" lon="11.894772678865968"><ele>266.0</ele><time>2026-04-09T12:22:32Z</time></trkpt><trkpt lat="46.01720625550705" lon="11.894580473412814"><ele>266.25</ele><time>2026-04-09T12:22:33Z</time></trkpt><trkpt lat="46.0171807223697" lon="11.894376724995453"><ele>266.5</ele><time>2026-04-09T12:22:34Z</time></trkpt><trkpt lat="46.017139818173845" lon="11.894173488335484"><ele>266.75</ele><time>2026-04-09T12:22:35Z</time></trkpt><trkpt lat="46.01708147074199" lon="11.893972452304794"><ele>267.0</ele><time>2026-04-09T12:22:36Z</time></trkpt><trkpt lat="46.01705081431495" lon="11.893745728789265"><ele>267.0</ele><time>2026-04-09T12:22:37Z</time></trkpt><trkpt lat="46.017011909753855" lon="11.893568951173783"><ele>267.0</ele><time>2026-04-09T12:22:38Z</time></trkpt><trkpt lat="46.016964901185176" lon="11.893421883684145"><ele>267.0</ele><time>2026-04-09T12:22:39Z</time></trkpt><trkpt lat="46.01694325519822" lon="11.893312727821792"><ele>267.0</ele><time>2026-04-09T12:22:40Z</time></trkpt><trkpt lat="46.01693289753852" lon="11.893217430418497"><ele>267.0</ele><time>2026-04-09T12:22:41Z</time></trkpt><trkpt lat="46.016935447340735" lon="11.893111947558692"><ele>267.25</ele><time>2026-04-09T12:22:43Z</time></trkpt><trkpt lat="46.01708796685107" lon="11.893066129681591"><ele>267.5</ele><time>2026-04-09T12:22:44Z</time></trkpt><trkpt lat="46.0171923746551" lon="11.892993014685404"><ele>267.75</ele><time>2026-04-09T12:22:45Z</time></trkpt><trkpt lat="46.017334263172664" lon="11.8929214961562"><ele>268.0</ele><time>2026-04-09T12:22:46Z</time></trkpt><trkpt lat="46.017491636092615" lon="11.892840877793367"><ele>268.5</ele><time>2026-04-09T12:22:47Z</time></trkpt><trkpt lat="46.01762013552091" lon="11.892768740319415"><ele>269.0</ele><time>2026-04-09T12:22:48Z</time></trkpt><trkpt lat="46.017743123058615" lon="11.892702391315806"><ele>269.5</ele><time>2026-04-09T12:22:49Z</time></trkpt><trkpt lat="46.01787427344125" lon="11.892638719663205"><ele>270.0</ele><time>2026-04-09T12:22:50Z</time></trkpt><trkpt lat="46.01801679543016" lon="11.89255868188017"><ele>270.0</ele><time>2026-04-09T12:22:51Z</time></trkpt><trkpt lat="46.0181670844735" lon="11.892462720728982"><ele>270.0</ele><time>2026-04-09T12:22:52Z</time></trkpt><trkpt lat="46.01832797034132" lon="11.892374772212142"><ele>270.0</ele><time>2026-04-09T12:22:52.999Z</time></trkpt><trkpt lat="46.01848345353309" lon="11.89229729536362"><ele>270.4</ele><time>2026-04-09T12:22:53.999Z</time></trkpt><trkpt lat="46.018606407550315" lon="11.89224821566716"><ele>270.8</ele><time>2026-04-09T12:22:54.999Z</time></trkpt><trkpt lat="46.01870973571348" lon="11.892211960301156"><ele>271.2</ele><time>2026-04-09T12:22:55.999Z</time></trkpt><trkpt lat="46.01880343100857" lon="11.892195413107345"><ele>271.6</ele><time>2026-04-09T12:22:56.999Z</time></trkpt><trkpt lat="46.018886124955614" lon="11.892199753376271"><ele>272.0</ele><time>2026-04-09T12:22:57.999Z</time></trkpt><trkpt lat="46.01895114961362" lon="11.892229458275585"><ele>272.0</ele><time>2026-04-09T12:22:58.999Z</time></trkpt><trkpt lat="46.01901228106539" lon="11.892305086130161"><ele>272.0</ele><time>2026-04-09T12:23:00.999Z</time></trkpt><trkpt lat="46.01906695205185" lon="11.892373584364977"><ele>272.0</ele><time>2026-04-09T12:23:02.999Z</time></trkpt><trkpt lat="46.01907790395563" lon="11.892545987354799"><ele>272.0</ele><time>2026-04-09T12:23:03.999Z</time></trkpt><trkpt lat="46.019106473870366" lon="11.892726445663042"><ele>272.0</ele><time>2026-04-09T12:23:04.999Z</time></trkpt><trkpt lat="46.019128159825634" lon="11.892894654148273"><ele>272.33333333333337</ele><time>2026-04-09T12:23:05.999Z</time></trkpt><trkpt lat="46.01915774585962" lon="11.893102377154582"><ele>272.6666666666667</ele><time>2026-04-09T12:23:06.999Z</time></trkpt><trkpt lat="46.019184840758" lon="11.893348806106264"><ele>273.0</ele><time>2026-04-09T12:23:07.999Z</time></trkpt><trkpt lat="46.01921859867531" lon="11.893584183296214"><ele>273.0</ele><time>2026-04-09T12:23:08.999Z</time></trkpt><trkpt lat="46.01925652887068" lon="11.89373304976081"><ele>273.0</ele><time>2026-04-09T12:23:09.999Z</time></trkpt><trkpt lat="46.0192698716664" lon="11.893862274601904"><ele>273.0</ele><time>2026-04-09T12:23:10.999Z</time></trkpt><trkpt lat="46.01928920082574" lon="11.8939869209435"><ele>273.0</ele><time>2026-04-09T12:23:11.999Z</time></trkpt><trkpt lat="46.019309362283366" lon="11.894106370630098"><ele>273.0</ele><time>2026-04-09T12:23:12.999Z</time></trkpt><trkpt lat="46.019332932590466" lon="11.894240726506345"><ele>273.0</ele><time>2026-04-09T12:23:13.999Z</time></trkpt><trkpt lat="46.0193487734232" lon="11.894385533499266"><ele>273.0</ele><time>2026-04-09T12:23:14.999Z</time></trkpt><trkpt lat="46.01936890099157" lon="11.894523120098066"><ele>273.0</ele><time>2026-04-09T12:23:15.999Z</time></trkpt><trkpt lat="46.019393100779865" lon="11.894645267725451"><ele>273.0</ele><time>2026-04-09T12:23:16.999Z</time></trkpt><trkpt lat="46.0194117789798" lon="11.894759307594406"><ele>273.0</ele><time>2026-04-09T12:23:17.999Z</time></trkpt><trkpt lat="46.019435102989796" lon="11.894876062837353"><ele>273.0</ele><time>2026-04-09T12:23:18.999Z</time></trkpt><trkpt lat="46.019444542838" lon="11.894994005092157"><ele>273.0</ele><time>2026-04-09T12:23:19.999Z</time></trkpt><trkpt lat="46.01944373300129" lon="11.895114441452868"><ele>273.0</ele><time>2026-04-09T12:23:20.999Z</time></trkpt><trkpt lat="46.01943566482556" lon="11.895227639764766"><ele>273.0</ele><time>2026-04-09T12:23:21.999Z</time></trkpt><trkpt lat="46.01942709343299" lon="11.895329486313347"><ele>273.0</ele><time>2026-04-09T12:23:22.999Z</time></trkpt><trkpt lat="46.019411445418825" lon="11.895430748292425"><ele>273.0</ele><time>2026-04-09T12:23:23.999Z</time></trkpt><trkpt lat="46.019406210586304" lon="11.89554605240093"><ele>273.3333333333333</ele><time>2026-04-09T12:23:24.999Z</time></trkpt><trkpt lat="46.01941779013656" lon="11.89572492937947"><ele>273.66666666666663</ele><time>2026-04-09T12:23:25.999Z</time></trkpt><trkpt lat="46.019404702639335" lon="11.895958570684865"><ele>274.0</ele><time>2026-04-09T12:23:26.999Z</time></trkpt><trkpt lat="46.019373944747805" lon="11.896192454757845"><ele>274.0</ele><time>2026-04-09T12:23:27.999Z</time></trkpt><trkpt lat="46.0193290862896" lon="11.896476560176804"><ele>274.0</ele><time>2026-04-09T12:23:28.999Z</time></trkpt><trkpt lat="46.01927977766587" lon="11.896776114168443"><ele>274.0</ele><time>2026-04-09T12:23:29.999Z</time></trkpt><trkpt lat="46.01921834912625" lon="11.897092822008606"><ele>272.5</ele><time>2026-04-09T12:23:30.999Z</time></trkpt><trkpt lat="46.01914673780358" lon="11.89743124830421"><ele>271.0</ele><time>2026-04-09T12:23:31.999Z</time></trkpt><trkpt lat="46.01908736947077" lon="11.897733112949846"><ele>271.0</ele><time>2026-04-09T12:23:32.999Z</time></trkpt><trkpt lat="46.01903530188201" lon="11.898003092834424"><ele>271.0</ele><time>2026-04-09T12:23:33.999Z</time></trkpt><trkpt lat="46.01898288178244" lon="11.898241690882115"><ele>271.0</ele><time>2026-04-09T12:23:34.999Z</time></trkpt><trkpt lat="46.01891849479326" lon="11.89844719974952"><ele>270.75</ele><time>2026-04-09T12:23:35.999Z</time></trkpt><trkpt lat="46.01884188724325" lon="11.89862118096046"><ele>270.5</ele><time>2026-04-09T12:23:36.999Z</time></trkpt><trkpt lat="46.01875042788141" lon="11.898781597309545"><ele>270.25</ele><time>2026-04-09T12:23:37.999Z</time></trkpt><trkpt lat="46.01864889084974" lon="11.898936959672968"><ele>270.0</ele><time>2026-04-09T12:23:38.999Z</time></trkpt><trkpt lat="46.01854891923305" lon="11.89910345846355"><ele>270.0</ele><time>2026-04-09T12:23:39.999Z</time></trkpt><trkpt lat="46.01844417066665" lon="11.89927380643147"><ele>270.0</ele><time>2026-04-09T12:23:40.999Z</time></trkpt><trkpt lat="46.01833563961765" lon="11.899457989635644"><ele>270.0</ele><time>2026-04-09T12:23:41.999Z</time></trkpt><trkpt lat="46.018224031173546" lon="11.899661038188782"><ele>270.0</ele><time>2026-04-09T12:23:42.999Z</time></trkpt><trkpt lat="46.018120667242705" lon="11.899867848670572"><ele>270.0</ele><time>2026-04-09T12:23:43.999Z</time></trkpt><trkpt lat="46.01803636622841" lon="11.900045893056335"><ele>270.0</ele><time>2026-04-09T12:23:44.999Z</time></trkpt><trkpt lat="46.017974571479826" lon="11.90017491339133"><ele>270.0</ele><time>2026-04-09T12:23:45.999Z</time></trkpt><trkpt lat="46.01793795178292" lon="11.900258466436954"><ele>269.6</ele><time>2026-04-09T12:23:46.999Z</time></trkpt><trkpt lat="46.01785301006164" lon="11.900365076107558"><ele>269.2</ele><time>2026-04-09T12:23:48.999Z</time></trkpt><trkpt lat="46.017783100249154" lon="11.900449403028826"><ele>268.8</ele><time>2026-04-09T12:23:50.999Z</time></trkpt><trkpt lat="46.0178369849427" lon="11.900639137435615"><ele>268.4</ele><time>2026-04-09T12:23:51.999Z</time></trkpt><trkpt lat="46.01783811935392" lon="11.900769493134174"><ele>268.0</ele><time>2026-04-09T12:23:53.999Z</time></trkpt><trkpt lat="46.017836683415844" lon="11.900921973998786"><ele>268.0</ele><time>2026-04-09T12:23:55.999Z</time></trkpt><trkpt lat="46.017838060952634" lon="11.901019412225661"><ele>268.0</ele><time>2026-04-09T12:23:56.999Z</time></trkpt><trkpt lat="46.017843718175726" lon="11.901124348658513"><ele>268.0</ele><time>2026-04-09T12:23:57.999Z</time></trkpt><trkpt lat="46.01784844085457" lon="11.90123579491122"><ele>268.0</ele><time>2026-04-09T12:23:58.999Z</time></trkpt><trkpt lat="46.01785577774394" lon="11.901352440260345"><ele>268.0</ele><time>2026-04-09T12:23:59.999Z</time></trkpt><trkpt lat="46.01786745976329" lon="11.901466834698482"><ele>268.0</ele><time>2026-04-09T12:24:00.999Z</time></trkpt><trkpt lat="46.017878237422806" lon="11.901570187909098"><ele>268.0</ele><time>2026-04-09T12:24:01.999Z</time></trkpt><trkpt lat="46.01789017266173" lon="11.901683392977557"><ele>268.0</ele><time>2026-04-09T12:24:02.999Z</time></trkpt><trkpt lat="46.0179074968998" lon="11.901817220291543"><ele>268.0</ele><time>2026-04-09T12:24:04Z</time></trkpt><trkpt lat="46.01792044072867" lon="11.901960054820668"><ele>268.0</ele><time>2026-04-09T12:24:05Z</time></trkpt><trkpt lat="46.017932192062574" lon="11.902097903431635"><ele>268.0</ele><time>2026-04-09T12:24:06Z</time></trkpt><trkpt lat="46.01794094476943" lon="11.902212768131381"><ele>268.2</ele><time>2026-04-09T12:24:07Z</time></trkpt><trkpt lat="46.01794415524033" lon="11.90231466434685"><ele>268.4</ele><time>2026-04-09T12:24:08Z</time></trkpt><trkpt lat="46.01795297586819" lon="11.902416417780458"><ele>268.59999999999997</ele><time>2026-04-09T12:24:09Z</time></trkpt><trkpt lat="46.017958052651075" lon="11.90251180751545"><ele>268.8</ele><time>2026-04-09T12:24:10Z</time></trkpt><trkpt lat="46.01794961579338" lon="11.902651919201906"><ele>269.0</ele><time>2026-04-09T12:24:12Z</time></trkpt><trkpt lat="46.018105197384024" lon="11.902592765596646"><ele>269.0</ele><time>2026-04-09T12:24:15Z</time></trkpt><trkpt lat="46.018155403417694" lon="11.902524493843998"><ele>269.0</ele><time>2026-04-09T12:24:16Z</time></trkpt><trkpt lat="46.01821631107015" lon="11.902428870978133"><ele>269.0</ele><time>2026-04-09T12:24:17Z</time></trkpt><trkpt lat="46.018318705633234" lon="11.902309467127669"><ele>269.0</ele><time>2026-04-09T12:24:18Z</time></trkpt><trkpt lat="46.01841829403134" lon="11.902196481823994"><ele>269.0</ele><time>2026-04-09T12:24:19Z</time></trkpt><trkpt lat="46.01851274314368" lon="11.90207397396181"><ele>269.0</ele><time>2026-04-09T12:24:20Z</time></trkpt><trkpt lat="46.01860004573854" lon="11.901970934096655"><ele>269.0</ele><time>2026-04-09T12:24:21Z</time></trkpt><trkpt lat="46.01870509361954" lon="11.90185624300851"><ele>269.0</ele><time>2026-04-09T12:24:22Z</time></trkpt><trkpt lat="46.01881996962676" lon="11.901739782929736"><ele>269.0</ele><time>2026-04-09T12:24:23Z</time></trkpt><trkpt lat="46.018942058774904" lon="11.901618161326303"><ele>270.0</ele><time>2026-04-09T12:24:24Z</time></trkpt><trkpt lat="46.01909981508989" lon="11.90151115801348"><ele>271.0</ele><time>2026-04-09T12:24:25Z</time></trkpt><trkpt lat="46.01925407863012" lon="11.901361843406205"><ele>272.0</ele><time>2026-04-09T12:24:26Z</time></trkpt><trkpt lat="46.01938934048974" lon="11.901235443456764"><ele>272.0</ele><time>2026-04-09T12:24:27Z</time></trkpt><trkpt lat="46.01951942020199" lon="11.901114900699648"><ele>272.0</ele><time>2026-04-09T12:24:28Z</time></trkpt><trkpt lat="46.01965991910172" lon="11.90098514315791"><ele>272.0</ele><time>2026-04-09T12:24:29Z</time></trkpt><trkpt lat="46.01981006460918" lon="11.900846320388062"><ele>272.0</ele><time>2026-04-09T12:24:30Z</time></trkpt><trkpt lat="46.01997211570429" lon="11.900692616044719"><ele>272.0</ele><time>2026-04-09T12:24:31Z</time></trkpt><trkpt lat="46.02010355994178" lon="11.9005473631225"><ele>272.0</ele><time>2026-04-09T12:24:32Z</time></trkpt><trkpt lat="46.02022761449513" lon="11.900438068474864"><ele>272.4</ele><time>2026-04-09T12:24:33Z</time></trkpt><trkpt lat="46.020334118762" lon="11.900333709585514"><ele>272.79999999999995</ele><time>2026-04-09T12:24:34Z</time></trkpt><trkpt lat="46.020424822251265" lon="11.900250797744183"><ele>273.2</ele><time>2026-04-09T12:24:35Z</time></trkpt><trkpt lat="46.0205009332983" lon="11.900181616079163"><ele>273.59999999999997</ele><time>2026-04-09T12:24:36Z</time></trkpt><trkpt lat="46.020564680981295" lon="11.900122630737178"><ele>274.0</ele><time>2026-04-09T12:24:37Z</time></trkpt><trkpt lat="46.02062135213875" lon="11.900079037240996"><ele>274.0</ele><time>2026-04-09T12:24:38Z</time></trkpt><trkpt lat="46.020727515762694" lon="11.90009251319868"><ele>274.0</ele><time>2026-04-09T12:24:40Z</time></trkpt><trkpt lat="46.02076925644156" lon="11.900164641700826"><ele>274.0</ele><time>2026-04-09T12:24:42Z</time></trkpt><trkpt lat="46.02082773074118" lon="11.900281781070657"><ele>274.0</ele><time>2026-04-09T12:24:47Z</time></trkpt><trkpt lat="46.020862764460546" lon="11.90037246298189"><ele>274.0</ele><time>2026-04-09T12:24:48Z</time></trkpt><trkpt lat="46.0209183437924" lon="11.9004874206542"><ele>274.0</ele><time>2026-04-09T12:24:50Z</time></trkpt><trkpt lat="46.020968752392925" lon="11.900693065355858"><ele>274.0</ele><time>2026-04-09T12:24:52Z</time></trkpt><trkpt lat="46.02100726201726" lon="11.900796783921637"><ele>274.0</ele><time>2026-04-09T12:24:53Z</time></trkpt><trkpt lat="46.02104043986381" lon="11.900884641158768"><ele>274.0</ele><time>2026-04-09T12:24:54Z</time></trkpt><trkpt lat="46.021089459454686" lon="11.901009175473668"><ele>274.0</ele><time>2026-04-09T12:24:55Z</time></trkpt><trkpt lat="46.02115767931076" lon="11.901143722276663"><ele>274.0</ele><time>2026-04-09T12:24:56Z</time></trkpt><trkpt lat="46.02120057464022" lon="11.901266267628122"><ele>274.0</ele><time>2026-04-09T12:24:56.999Z</time></trkpt><trkpt lat="46.02124026069953" lon="11.901369892053223"><ele>274.0</ele><time>2026-04-09T12:24:57.999Z</time></trkpt><trkpt lat="46.02127576398392" lon="11.901468526401246"><ele>274.0</ele><time>2026-04-09T12:24:58.999Z</time></trkpt><trkpt lat="46.02130621803085" lon="11.901572247440866"><ele>274.0</ele><time>2026-04-09T12:24:59.999Z</time></trkpt><trkpt lat="46.021326036594566" lon="11.901660099544713"><ele>274.0</ele><time>2026-04-09T12:25:00.999Z</time></trkpt><trkpt lat="46.0213469965196" lon="11.90181069762246"><ele>274.0</ele><time>2026-04-09T12:25:02.999Z</time></trkpt><trkpt lat="46.02136466295383" lon="11.901910005970125"><ele>273.8333333333333</ele><time>2026-04-09T12:25:03.999Z</time></trkpt><trkpt lat="46.021381451895024" lon="11.902030857911274"><ele>273.66666666666663</ele><time>2026-04-09T12:25:04.999Z</time></trkpt><trkpt lat="46.021371979300056" lon="11.902144679898752"><ele>273.5</ele><time>2026-04-09T12:25:05.999Z</time></trkpt><trkpt lat="46.02137726776539" lon="11.902237053730646"><ele>273.3333333333333</ele><time>2026-04-09T12:25:06.999Z</time></trkpt><trkpt lat="46.02138347417179" lon="11.90234546119154"><ele>273.1666666666667</ele><time>2026-04-09T12:25:07.999Z</time></trkpt><trkpt lat="46.02139150479135" lon="11.902485732265378"><ele>273.0</ele><time>2026-04-09T12:25:08.999Z</time></trkpt><trkpt lat="46.021400527039894" lon="11.902643324196733"><ele>272.8333333333333</ele><time>2026-04-09T12:25:09.999Z</time></trkpt><trkpt lat="46.021409511167725" lon="11.902807722048495"><ele>272.6666666666667</ele><time>2026-04-09T12:25:10.999Z</time></trkpt><trkpt lat="46.02143216357176" lon="11.902949178157796"><ele>272.5</ele><time>2026-04-09T12:25:11.999Z</time></trkpt><trkpt lat="46.0214357515767" lon="11.903064053211068"><ele>272.33333333333337</ele><time>2026-04-09T12:25:12.999Z</time></trkpt><trkpt lat="46.0214394073027" lon="11.903160285276522"><ele>272.1666666666667</ele><time>2026-04-09T12:25:13.999Z</time></trkpt><trkpt lat="46.021443610673835" lon="11.903251974421009"><ele>272.0</ele><time>2026-04-09T12:25:14.999Z</time></trkpt><trkpt lat="46.02144507200871" lon="11.90335991386285"><ele>271.99999999999994</ele><time>2026-04-09T12:25:15.999Z</time></trkpt><trkpt lat="46.021449568698976" lon="11.903481283677838"><ele>272.0</ele><time>2026-04-09T12:25:16.999Z</time></trkpt><trkpt lat="46.02145797426446" lon="11.903597920083133"><ele>272.0</ele><time>2026-04-09T12:25:17.999Z</time></trkpt><trkpt lat="46.02146611564846" lon="11.903702512990186"><ele>272.0</ele><time>2026-04-09T12:25:18.999Z</time></trkpt><trkpt lat="46.02147150551247" lon="11.903800879423995"><ele>272.0</ele><time>2026-04-09T12:25:19.999Z</time></trkpt><trkpt lat="46.0214755475578" lon="11.903895782253064"><ele>271.99999999999994</ele><time>2026-04-09T12:25:20.999Z</time></trkpt><trkpt lat="46.021480837547955" lon="11.90399479468108"><ele>272.0</ele><time>2026-04-09T12:25:21.999Z</time></trkpt><trkpt lat="46.02147786760772" lon="11.904098086483858"><ele>272.0</ele><time>2026-04-09T12:25:22.999Z</time></trkpt><trkpt lat="46.021475672739754" lon="11.904207906218527"><ele>272.0</ele><time>2026-04-09T12:25:23.999Z</time></trkpt><trkpt lat="46.021478955963495" lon="11.904323487487838"><ele>272.0</ele><time>2026-04-09T12:25:24.999Z</time></trkpt><trkpt lat="46.02148326628322" lon="11.90443710040756"><ele>272.0</ele><time>2026-04-09T12:25:25.999Z</time></trkpt><trkpt lat="46.021488918470766" lon="11.904547586821794"><ele>272.0</ele><time>2026-04-09T12:25:26.999Z</time></trkpt><trkpt lat="46.02150056979243" lon="11.904655751253944"><ele>272.0</ele><time>2026-04-09T12:25:27.999Z</time></trkpt><trkpt lat="46.021506224293006" lon="11.904758382185936"><ele>272.1666666666667</ele><time>2026-04-09T12:25:28.999Z</time></trkpt><trkpt lat="46.02151061636404" lon="11.904853605060488"><ele>272.33333333333337</ele><time>2026-04-09T12:25:29.999Z</time></trkpt><trkpt lat="46.0214997481821" lon="11.90497270479043"><ele>272.5</ele><time>2026-04-09T12:25:31.999Z</time></trkpt><trkpt lat="46.021450945734294" lon="11.90511102030648"><ele>272.6666666666667</ele><time>2026-04-09T12:25:33.999Z</time></trkpt><trkpt lat="46.02139169525128" lon="11.905177676811487"><ele>272.8333333333333</ele><time>2026-04-09T12:25:34.999Z</time></trkpt><trkpt lat="46.02131806509436" lon="11.905214419235296"><ele>273.0</ele><time>2026-04-09T12:25:35.999Z</time></trkpt><trkpt lat="46.02121936267269" lon="11.90524684170031"><ele>273.25</ele><time>2026-04-09T12:25:36.999Z</time></trkpt><trkpt lat="46.02112357890124" lon="11.905273027098543"><ele>273.5</ele><time>2026-04-09T12:25:37.999Z</time></trkpt><trkpt lat="46.02101419705693" lon="11.905317381375738"><ele>273.75</ele><time>2026-04-09T12:25:38.999Z</time></trkpt><trkpt lat="46.0208644609145" lon="11.905376384988848"><ele>274.0</ele><time>2026-04-09T12:25:39.999Z</time></trkpt><trkpt lat="46.0207143667747" lon="11.905438895989795"><ele>273.3333333333333</ele><time>2026-04-09T12:25:40.999Z</time></trkpt><trkpt lat="46.02054188495117" lon="11.905515670486562"><ele>272.6666666666667</ele><time>2026-04-09T12:25:41.999Z</time></trkpt><trkpt lat="46.02038037722292" lon="11.90558378093956"><ele>272.0</ele><time>2026-04-09T12:25:42.999Z</time></trkpt><trkpt lat="46.020241116606016" lon="11.905635331785122"><ele>272.0</ele><time>2026-04-09T12:25:43.999Z</time></trkpt><trkpt lat="46.02009442321344" lon="11.905692008616763"><ele>272.0</ele><time>2026-04-09T12:25:44.999Z</time></trkpt><trkpt lat="46.019935129996675" lon="11.90575711642063"><ele>272.0</ele><time>2026-04-09T12:25:45.999Z</time></trkpt><trkpt lat="46.019768888827436" lon="11.905834894789558"><ele>271.6666666666667</ele><time>2026-04-09T12:25:46.999Z</time></trkpt><trkpt lat="46.019594103973205" lon="11.90590412452938"><ele>271.3333333333333</ele><time>2026-04-09T12:25:47.999Z</time></trkpt><trkpt lat="46.01942984662089" lon="11.905960828675303"><ele>271.0</ele><time>2026-04-09T12:25:48.999Z</time></trkpt><trkpt lat="46.01928943306881" lon="11.906019758411496"><ele>272.0</ele><time>2026-04-09T12:25:49.999Z</time></trkpt><trkpt lat="46.01915882974777" lon="11.906075862205737"><ele>273.0</ele><time>2026-04-09T12:25:50.999Z</time></trkpt><trkpt lat="46.01904138407635" lon="11.906123108405346"><ele>274.0</ele><time>2026-04-09T12:25:51.999Z</time></trkpt><trkpt lat="46.018955727459876" lon="11.906159034503867"><ele>275.0</ele><time>2026-04-09T12:25:52.999Z</time></trkpt><trkpt lat="46.01888687631772" lon="11.906190443399252"><ele>276.0</ele><time>2026-04-09T12:25:53.999Z</time></trkpt><trkpt lat="46.0188193751488" lon="11.906220643825534"><ele>278.6666666666667</ele><time>2026-04-09T12:25:55.999Z</time></trkpt><trkpt lat="46.01880163909307" lon="11.906359531506498"><ele>281.3333333333333</ele><time>2026-04-09T12:26:25Z</time></trkpt><trkpt lat="46.01883639401301" lon="11.906435711721771"><ele>284.0</ele><time>2026-04-09T12:26:26Z</time></trkpt><trkpt lat="46.0188907005104" lon="11.906525406233293"><ele>286.66666666666663</ele><time>2026-04-09T12:26:27Z</time></trkpt><trkpt lat="46.01895089276929" lon="11.906628678330865"><ele>289.3333333333333</ele><time>2026-04-09T12:26:28Z</time></trkpt><trkpt lat="46.01899316322115" lon="11.90672590765448"><ele>292.0</ele><time>2026-04-09T12:26:29Z</time></trkpt><trkpt lat="46.01905529267416" lon="11.906858276320648"><ele>293.0</ele><time>2026-04-09T12:26:30Z</time></trkpt><trkpt lat="46.019141177392434" lon="11.907038150969655"><ele>294.0</ele><time>2026-04-09T12:26:31Z</time></trkpt><trkpt lat="46.0192088678863" lon="11.907192697225009"><ele>295.0</ele><time>2026-04-09T12:26:32Z</time></trkpt><trkpt lat="46.01924807789794" lon="11.907336742298394"><ele>296.0</ele><time>2026-04-09T12:26:33Z</time></trkpt><trkpt lat="46.019303136177996" lon="11.907451622179996"><ele>297.0</ele><time>2026-04-09T12:26:34Z</time></trkpt><trkpt lat="46.01934316968226" lon="11.907564184221455"><ele>298.0</ele><time>2026-04-09T12:26:35Z</time></trkpt><trkpt lat="46.01939288661245" lon="11.907692069099403"><ele>299.0</ele><time>2026-04-09T12:26:36Z</time></trkpt><trkpt lat="46.01943985082499" lon="11.907877579640786"><ele>300.0</ele><time>2026-04-09T12:26:37Z</time></trkpt><trkpt lat="46.01952352633947" lon="11.908063527454138"><ele>300.0</ele><time>2026-04-09T12:26:38Z</time></trkpt><trkpt lat="46.01958895698651" lon="11.908260389505383"><ele>300.0</ele><time>2026-04-09T12:26:39Z</time></trkpt><trkpt lat="46.01965161176728" lon="11.908429923083608"><ele>300.0</ele><time>2026-04-09T12:26:40Z</time></trkpt><trkpt lat="46.01969324128426" lon="11.90859501378699"><ele>300.0</ele><time>2026-04-09T12:26:41Z</time></trkpt><trkpt lat="46.01975678375337" lon="11.908731826125367"><ele>301.75</ele><time>2026-04-09T12:26:42Z</time></trkpt><trkpt lat="46.019812035558516" lon="11.908888100651474"><ele>303.5</ele><time>2026-04-09T12:26:43Z</time></trkpt><trkpt lat="46.01987183291358" lon="11.909074551520188"><ele>305.25</ele><time>2026-04-09T12:26:44Z</time></trkpt><trkpt lat="46.019951570661604" lon="11.909304875344477"><ele>307.0</ele><time>2026-04-09T12:26:45Z</time></trkpt><trkpt lat="46.020038333281164" lon="11.90954908849827"><ele>301.75</ele><time>2026-04-09T12:26:46Z</time></trkpt><trkpt lat="46.020120188508365" lon="11.90976011622629"><ele>296.5</ele><time>2026-04-09T12:26:47Z</time></trkpt><trkpt lat="46.0201713562474" lon="11.909958054894584"><ele>291.25</ele><time>2026-04-09T12:26:48Z</time></trkpt><trkpt lat="46.02023097394057" lon="11.910128418147698"><ele>286.0</ele><time>2026-04-09T12:26:49Z</time></trkpt><trkpt lat="46.020301912390096" lon="11.91028643541379"><ele>286.0</ele><time>2026-04-09T12:26:50Z</time></trkpt><trkpt lat="46.02035095562321" lon="11.910460037434417"><ele>286.0</ele><time>2026-04-09T12:26:51Z</time></trkpt><trkpt lat="46.02041026226923" lon="11.910626994799"><ele>286.0</ele><time>2026-04-09T12:26:52Z</time></trkpt><trkpt lat="46.02046835932055" lon="11.910790283473757"><ele>286.0</ele><time>2026-04-09T12:26:53Z</time></trkpt><trkpt lat="46.02051982646666" lon="11.910938866278572"><ele>285.0</ele><time>2026-04-09T12:26:54Z</time></trkpt><trkpt lat="46.020574195465414" lon="11.91107745283844"><ele>284.0</ele><time>2026-04-09T12:26:55Z</time></trkpt><trkpt lat="46.02062961878767" lon="11.91123277421766"><ele>283.0</ele><time>2026-04-09T12:26:56Z</time></trkpt><trkpt lat="46.02069060903285" lon="11.911401034228735"><ele>282.0</ele><time>2026-04-09T12:26:57Z</time></trkpt><trkpt lat="46.0207426433327" lon="11.911586390326894"><ele>281.5</ele><time>2026-04-09T12:26:58Z</time></trkpt><trkpt lat="46.02082235050406" lon="11.911762659925598"><ele>281.0</ele><time>2026-04-09T12:26:59Z</time></trkpt><trkpt lat="46.02087987052277" lon="11.911927332106531"><ele>280.5</ele><time>2026-04-09T12:27:00Z</time></trkpt><trkpt lat="46.02091904383539" lon="11.91206259628036"><ele>280.0</ele><time>2026-04-09T12:27:01Z</time></trkpt><trkpt lat="46.020954881493964" lon="11.912162220490275"><ele>280.0</ele><time>2026-04-09T12:27:02Z</time></trkpt><trkpt lat="46.02099163176615" lon="11.912297577086939"><ele>280.0</ele><time>2026-04-09T12:27:04Z</time></trkpt><trkpt lat="46.02099628315178" lon="11.912391964898122"><ele>280.0</ele><time>2026-04-09T12:27:06.999Z</time></trkpt><trkpt lat="46.02085534191222" lon="11.912477488096442"><ele>280.0</ele><time>2026-04-09T12:27:07.999Z</time></trkpt><trkpt lat="46.02078167362601" lon="11.912492772666603"><ele>280.0</ele><time>2026-04-09T12:27:08.999Z</time></trkpt><trkpt lat="46.02069288356783" lon="11.912529092423473"><ele>281.2</ele><time>2026-04-09T12:27:09.999Z</time></trkpt><trkpt lat="46.02061987073344" lon="11.912561468848313"><ele>282.4</ele><time>2026-04-09T12:27:10.999Z</time></trkpt><trkpt lat="46.02054418080082" lon="11.912620144029304"><ele>283.6</ele><time>2026-04-09T12:27:11.999Z</time></trkpt><trkpt lat="46.02046451645284" lon="11.912707810772382"><ele>284.8</ele><time>2026-04-09T12:27:12.999Z</time></trkpt><trkpt lat="46.020393840789986" lon="11.912805268284027"><ele>286.0</ele><time>2026-04-09T12:27:13.999Z</time></trkpt><trkpt lat="46.02033251888398" lon="11.912900007284497"><ele>286.0</ele><time>2026-04-09T12:27:14.999Z</time></trkpt><trkpt lat="46.02029166053836" lon="11.912997221622586"><ele>286.0</ele><time>2026-04-09T12:27:15.999Z</time></trkpt><trkpt lat="46.02025496420385" lon="11.913102877834923"><ele>286.0</ele><time>2026-04-09T12:27:17.999Z</time></trkpt><trkpt lat="46.0201682620555" lon="11.913152165211265"><ele>286.0</ele><time>2026-04-09T12:27:19.999Z</time></trkpt><trkpt lat="46.02010779986741" lon="11.913218177186298"><ele>286.0</ele><time>2026-04-09T12:27:20.999Z</time></trkpt><trkpt lat="46.02005509149845" lon="11.913329551970335"><ele>286.0</ele><time>2026-04-09T12:27:21.999Z</time></trkpt><trkpt lat="46.01999627488412" lon="11.913403559747364"><ele>284.3333333333333</ele><time>2026-04-09T12:27:22.999Z</time></trkpt><trkpt lat="46.019974062803364" lon="11.913502197732976"><ele>282.66666666666663</ele><time>2026-04-09T12:27:23.999Z</time></trkpt><trkpt lat="46.01992563265595" lon="11.913600175389185"><ele>281.0</ele><time>2026-04-09T12:27:24.999Z</time></trkpt><trkpt lat="46.01987925963964" lon="11.913674756805019"><ele>279.3333333333333</ele><time>2026-04-09T12:27:25.999Z</time></trkpt><trkpt lat="46.01977097119205" lon="11.913737078305376"><ele>277.6666666666667</ele><time>2026-04-09T12:27:27.999Z</time></trkpt><trkpt lat="46.019690952417015" lon="11.913702316142768"><ele>276.0</ele><time>2026-04-09T12:27:28.999Z</time></trkpt><trkpt lat="46.01957582197952" lon="11.913662183659866"><ele>276.0</ele><time>2026-04-09T12:27:29.999Z</time></trkpt><trkpt lat="46.01947916096394" lon="11.913613209639816"><ele>276.0</ele><time>2026-04-09T12:27:30.999Z</time></trkpt><trkpt lat="46.01937745799544" lon="11.913542868002487"><ele>276.0</ele><time>2026-04-09T12:27:31.999Z</time></trkpt><trkpt lat="46.019250862848516" lon="11.913435099902005"><ele>276.0</ele><time>2026-04-09T12:27:32.999Z</time></trkpt><trkpt lat="46.019116454764976" lon="11.913321627230468"><ele>275.75</ele><time>2026-04-09T12:27:33.999Z</time></trkpt><trkpt lat="46.019000041889605" lon="11.913222642040518"><ele>275.5</ele><time>2026-04-09T12:27:34.999Z</time></trkpt><trkpt lat="46.018889362153544" lon="11.913118661116743"><ele>275.25</ele><time>2026-04-09T12:27:35.999Z</time></trkpt><trkpt lat="46.01879576295356" lon="11.912999615128097"><ele>275.0</ele><time>2026-04-09T12:27:36.999Z</time></trkpt><trkpt lat="46.01871268991029" lon="11.912887473642106"><ele>275.0</ele><time>2026-04-09T12:27:37.999Z</time></trkpt><trkpt lat="46.018626187971854" lon="11.912775253593766"><ele>275.0</ele><time>2026-04-09T12:27:38.999Z</time></trkpt><trkpt lat="46.01853332231702" lon="11.912656617831875"><ele>275.0</ele><time>2026-04-09T12:27:39.999Z</time></trkpt><trkpt lat="46.01844341913507" lon="11.912518354555074"><ele>275.0</ele><time>2026-04-09T12:27:40.999Z</time></trkpt><trkpt lat="46.01834906151187" lon="11.912370025154067"><ele>274.0</ele><time>2026-04-09T12:27:41.999Z</time></trkpt><trkpt lat="46.01824121425465" lon="11.912212170177952"><ele>273.0</ele><time>2026-04-09T12:27:42.999Z</time></trkpt><trkpt lat="46.018135153593995" lon="11.912050732840225"><ele>272.0</ele><time>2026-04-09T12:27:43.999Z</time></trkpt><trkpt lat="46.0180370020915" lon="11.911890527896237"><ele>273.75</ele><time>2026-04-09T12:27:44.999Z</time></trkpt><trkpt lat="46.0179435431385" lon="11.911731405646668"><ele>275.5</ele><time>2026-04-09T12:27:45.999Z</time></trkpt><trkpt lat="46.01784943518851" lon="11.911579756909273"><ele>277.25</ele><time>2026-04-09T12:27:46.999Z</time></trkpt><trkpt lat="46.01775152149013" lon="11.911432395656199"><ele>279.0</ele><time>2026-04-09T12:27:47.999Z</time></trkpt><trkpt lat="46.01765521616483" lon="11.911292450600813"><ele>279.0</ele><time>2026-04-09T12:27:48.999Z</time></trkpt><trkpt lat="46.01756671264436" lon="11.91115724652505"><ele>279.0</ele><time>2026-04-09T12:27:49.999Z</time></trkpt><trkpt lat="46.01748505149357" lon="11.911033036202248"><ele>279.0</ele><time>2026-04-09T12:27:50.999Z</time></trkpt><trkpt lat="46.01742593741414" lon="11.910921111372366"><ele>279.0</ele><time>2026-04-09T12:27:51.999Z</time></trkpt><trkpt lat="46.01737679056312" lon="11.910801921371931"><ele>279.0</ele><time>2026-04-09T12:27:52.999Z</time></trkpt><trkpt lat="46.01734139656896" lon="11.910678096257437"><ele>277.25</ele><time>2026-04-09T12:27:53.999Z</time></trkpt><trkpt lat="46.01732397211467" lon="11.910537789264218"><ele>275.5</ele><time>2026-04-09T12:27:54.999Z</time></trkpt><trkpt lat="46.017313699263205" lon="11.910357337195594"><ele>273.75</ele><time>2026-04-09T12:27:55.999Z</time></trkpt><trkpt lat="46.017291227826846" lon="11.910132482832879"><ele>272.0</ele><time>2026-04-09T12:27:56.999Z</time></trkpt><trkpt lat="46.01726742326155" lon="11.909880585564869"><ele>272.0</ele><time>2026-04-09T12:27:57.999Z</time></trkpt><trkpt lat="46.01724725094349" lon="11.90964431509919"><ele>272.0</ele><time>2026-04-09T12:27:58.999Z</time></trkpt><trkpt lat="46.01722691000732" lon="11.909403430955052"><ele>272.0</ele><time>2026-04-09T12:27:59.999Z</time></trkpt><trkpt lat="46.01720695753761" lon="11.90915608858854"><ele>271.33333333333337</ele><time>2026-04-09T12:28:00.999Z</time></trkpt><trkpt lat="46.017184217728406" lon="11.908917390375757"><ele>270.6666666666667</ele><time>2026-04-09T12:28:01.999Z</time></trkpt><trkpt lat="46.01716292256679" lon="11.908693921634331"><ele>270.0</ele><time>2026-04-09T12:28:02.999Z</time></trkpt><trkpt lat="46.01714112383519" lon="11.90847267696001"><ele>270.0</ele><time>2026-04-09T12:28:03.999Z</time></trkpt><trkpt lat="46.01711651171827" lon="11.908247733002312"><ele>270.0</ele><time>2026-04-09T12:28:04.999Z</time></trkpt><trkpt lat="46.01708974509839" lon="11.908031143231932"><ele>270.0</ele><time>2026-04-09T12:28:05.999Z</time></trkpt><trkpt lat="46.017060291146414" lon="11.907829451299907"><ele>270.0</ele><time>2026-04-09T12:28:06.999Z</time></trkpt><trkpt lat="46.017029787017236" lon="11.907632107720422"><ele>270.0</ele><time>2026-04-09T12:28:07.999Z</time></trkpt><trkpt lat="46.016996864702826" lon="11.907423356194624"><ele>270.0</ele><time>2026-04-09T12:28:08.999Z</time></trkpt><trkpt lat="46.016957678234846" lon="11.907212190785495"><ele>270.0</ele><time>2026-04-09T12:28:09.999Z</time></trkpt><trkpt lat="46.01691177506476" lon="11.907000072500407"><ele>270.0</ele><time>2026-04-09T12:28:10.999Z</time></trkpt><trkpt lat="46.016865870090434" lon="11.906802555829588"><ele>270.0</ele><time>2026-04-09T12:28:11.999Z</time></trkpt><trkpt lat="46.01683479300776" lon="11.906642353915432"><ele>270.0</ele><time>2026-04-09T12:28:12.999Z</time></trkpt><trkpt lat="46.01679854184521" lon="11.906506098158335"><ele>270.0</ele><time>2026-04-09T12:28:13.999Z</time></trkpt><trkpt lat="46.01676256402298" lon="11.906403926651004"><ele>270.0</ele><time>2026-04-09T12:28:14.999Z</time></trkpt><trkpt lat="46.016723691120944" lon="11.906331362336617"><ele>269.2</ele><time>2026-04-09T12:28:16Z</time></trkpt><trkpt lat="46.01660745303046" lon="11.90626938617423"><ele>268.4</ele><time>2026-04-09T12:28:18Z</time></trkpt><trkpt lat="46.01652672044186" lon="11.906277967077896"><ele>267.6</ele><time>2026-04-09T12:28:19Z</time></trkpt><trkpt lat="46.0164438959498" lon="11.906297540292098"><ele>266.8</ele><time>2026-04-09T12:28:20Z</time></trkpt><trkpt lat="46.01638268672778" lon="11.906319068899206"><ele>266.0</ele><time>2026-04-09T12:28:21Z</time></trkpt><trkpt lat="46.016277867655596" lon="11.906374163866714"><ele>266.0</ele><time>2026-04-09T12:28:23Z</time></trkpt><trkpt lat="46.01622829526538" lon="11.906450621267386"><ele>266.0</ele><time>2026-04-09T12:28:24Z</time></trkpt><trkpt lat="46.01618603912481" lon="11.906551077814775"><ele>266.0</ele><time>2026-04-09T12:28:25Z</time></trkpt><trkpt lat="46.016148572485335" lon="11.906664029948024"><ele>266.0</ele><time>2026-04-09T12:28:26Z</time></trkpt><trkpt lat="46.01611412179924" lon="11.90675592995937"><ele>266.0</ele><time>2026-04-09T12:28:27Z</time></trkpt><trkpt lat="46.016082466731945" lon="11.906838990640649"><ele>266.0</ele><time>2026-04-09T12:28:28Z</time></trkpt><trkpt lat="46.016051649413924" lon="11.906924139596871"><ele>266.0</ele><time>2026-04-09T12:28:29Z</time></trkpt><trkpt lat="46.01601858590981" lon="11.907029945845897"><ele>266.0</ele><time>2026-04-09T12:28:30Z</time></trkpt><trkpt lat="46.01598250531758" lon="11.90714150637999"><ele>266.0</ele><time>2026-04-09T12:28:31Z</time></trkpt><trkpt lat="46.015946747664564" lon="11.907244031215955"><ele>266.0</ele><time>2026-04-09T12:28:32Z</time></trkpt><trkpt lat="46.01591368859142" lon="11.90733814015063"><ele>266.0</ele><time>2026-04-09T12:28:33Z</time></trkpt><trkpt lat="46.01587053249895" lon="11.907411997861153"><ele>266.0</ele><time>2026-04-09T12:28:34Z</time></trkpt><trkpt lat="46.015831552632925" lon="11.907497811861164"><ele>266.0</ele><time>2026-04-09T12:28:35Z</time></trkpt><trkpt lat="46.01578828193346" lon="11.907608663519158"><ele>265.2</ele><time>2026-04-09T12:28:36Z</time></trkpt><trkpt lat="46.015729425453145" lon="11.907730232940306"><ele>264.40000000000003</ele><time>2026-04-09T12:28:37Z</time></trkpt><trkpt lat="46.01568147891422" lon="11.907833576926018"><ele>263.6</ele><time>2026-04-09T12:28:38Z</time></trkpt><trkpt lat="46.01563026613527" lon="11.907931679489302"><ele>262.8</ele><time>2026-04-09T12:28:39Z</time></trkpt><trkpt lat="46.015583190931004" lon="11.908043034471953"><ele>262.0</ele><time>2026-04-09T12:28:40Z</time></trkpt><trkpt lat="46.015550749538704" lon="11.908167510806361"><ele>262.0</ele><time>2026-04-09T12:28:41Z</time></trkpt><trkpt lat="46.015520391467355" lon="11.90829333171948"><ele>262.0</ele><time>2026-04-09T12:28:42Z</time></trkpt><trkpt lat="46.01548613227735" lon="11.908419183065162"><ele>262.0</ele><time>2026-04-09T12:28:43Z</time></trkpt><trkpt lat="46.01544140856722" lon="11.908541623193015"><ele>262.0</ele><time>2026-04-09T12:28:44Z</time></trkpt><trkpt lat="46.015384028440394" lon="11.908660561437681"><ele>262.0</ele><time>2026-04-09T12:28:45Z</time></trkpt><trkpt lat="46.0153328898628" lon="11.908779959511271"><ele>262.0</ele><time>2026-04-09T12:28:46Z</time></trkpt><trkpt lat="46.015289205510314" lon="11.908886485638531"><ele>262.0</ele><time>2026-04-09T12:28:47Z</time></trkpt><trkpt lat="46.01524037770963" lon="11.908987202647477"><ele>262.0</ele><time>2026-04-09T12:28:48Z</time></trkpt><trkpt lat="46.015189805490316" lon="11.909103875257209"><ele>262.0</ele><time>2026-04-09T12:28:49Z</time></trkpt><trkpt lat="46.0151410873861" lon="11.909221680530262"><ele>262.0</ele><time>2026-04-09T12:28:50Z</time></trkpt><trkpt lat="46.01509435781488" lon="11.909328945338185"><ele>262.16666666666663</ele><time>2026-04-09T12:28:51Z</time></trkpt><trkpt lat="46.0150500265063" lon="11.909422759965073"><ele>262.3333333333333</ele><time>2026-04-09T12:28:52Z</time></trkpt><trkpt lat="46.015012334532656" lon="11.909510796739331"><ele>262.5</ele><time>2026-04-09T12:28:53Z</time></trkpt><trkpt lat="46.01497509170481" lon="11.909593931907567"><ele>262.6666666666667</ele><time>2026-04-09T12:28:54Z</time></trkpt><trkpt lat="46.01493783773122" lon="11.909681158153063"><ele>262.83333333333337</ele><time>2026-04-09T12:28:55Z</time></trkpt><trkpt lat="46.01489983989816" lon="11.909778997451221"><ele>263.0</ele><time>2026-04-09T12:28:56Z</time></trkpt><trkpt lat="46.01485763361969" lon="11.90987952175096"><ele>262.83333333333337</ele><time>2026-04-09T12:28:57Z</time></trkpt><trkpt lat="46.014819011157385" lon="11.909968645401335"><ele>262.6666666666667</ele><time>2026-04-09T12:28:58Z</time></trkpt><trkpt lat="46.014769588758426" lon="11.91004525167756"><ele>262.5</ele><time>2026-04-09T12:28:59Z</time></trkpt><trkpt lat="46.0146963293987" lon="11.910118507795266"><ele>262.3333333333333</ele><time>2026-04-09T12:29:00Z</time></trkpt><trkpt lat="46.01461693330758" lon="11.910175000837727"><ele>262.16666666666663</ele><time>2026-04-09T12:29:01Z</time></trkpt><trkpt lat="46.01455914431954" lon="11.910245464401145"><ele>262.0</ele><time>2026-04-09T12:29:02Z</time></trkpt><trkpt lat="46.01451314777366" lon="11.910350480556506"><ele>262.0</ele><time>2026-04-09T12:29:02.999Z</time></trkpt><trkpt lat="46.01445179654843" lon="11.91046486581412"><ele>262.0</ele><time>2026-04-09T12:29:03.999Z</time></trkpt><trkpt lat="46.0143620703673" lon="11.910549639431975"><ele>262.0</ele><time>2026-04-09T12:29:04.999Z</time></trkpt><trkpt lat="46.01424897912126" lon="11.910614626682289"><ele>262.0</ele><time>2026-04-09T12:29:05.999Z</time></trkpt><trkpt lat="46.01412476934815" lon="11.910677051905965"><ele>261.4</ele><time>2026-04-09T12:29:06.999Z</time></trkpt><trkpt lat="46.014016722311105" lon="11.910740419004528"><ele>260.79999999999995</ele><time>2026-04-09T12:29:07.999Z</time></trkpt><trkpt lat="46.01393259895281" lon="11.9107901945136"><ele>260.2</ele><time>2026-04-09T12:29:08.999Z</time></trkpt><trkpt lat="46.013842844059376" lon="11.91085013463284"><ele>259.59999999999997</ele><time>2026-04-09T12:29:09.999Z</time></trkpt><trkpt lat="46.01373299368977" lon="11.910932664258311"><ele>259.0</ele><time>2026-04-09T12:29:10.999Z</time></trkpt><trkpt lat="46.01361407426483" lon="11.911003381558928"><ele>258.59999999999997</ele><time>2026-04-09T12:29:11.999Z</time></trkpt><trkpt lat="46.0135275906686" lon="11.911061455274499"><ele>258.2</ele><time>2026-04-09T12:29:12.999Z</time></trkpt><trkpt lat="46.01345662442168" lon="11.911093552460873"><ele>257.79999999999995</ele><time>2026-04-09T12:29:13.999Z</time></trkpt><trkpt lat="46.01336033304581" lon="11.911127156533599"><ele>257.4</ele><time>2026-04-09T12:29:15.999Z</time></trkpt><trkpt lat="46.01329373629921" lon="11.911042273266911"><ele>257.0</ele><time>2026-04-09T12:29:17.999Z</time></trkpt><trkpt lat="46.0132360505562" lon="11.910888473602974"><ele>256.5</ele><time>2026-04-09T12:29:19.999Z</time></trkpt><trkpt lat="46.01320251291277" lon="11.910720671016474"><ele>256.0</ele><time>2026-04-09T12:29:20.999Z</time></trkpt><trkpt lat="46.01316460922238" lon="11.910558595368455"><ele>255.5</ele><time>2026-04-09T12:29:21.999Z</time></trkpt><trkpt lat="46.01312417694228" lon="11.910385108098549"><ele>255.0</ele><time>2026-04-09T12:29:22.999Z</time></trkpt><trkpt lat="46.013078169173056" lon="11.910176335719404"><ele>254.8</ele><time>2026-04-09T12:29:23.999Z</time></trkpt><trkpt lat="46.01304615700958" lon="11.910013360384268"><ele>254.6</ele><time>2026-04-09T12:29:24.999Z</time></trkpt><trkpt lat="46.01300127639595" lon="11.909879860619965"><ele>254.39999999999998</ele><time>2026-04-09T12:29:25.999Z</time></trkpt><trkpt lat="46.012968889528686" lon="11.909760099528048"><ele>254.2</ele><time>2026-04-09T12:29:26.999Z</time></trkpt><trkpt lat="46.01296232706337" lon="11.90962463505959"><ele>254.0</ele><time>2026-04-09T12:29:27.999Z</time></trkpt><trkpt lat="46.01296207625353" lon="11.909447147253028"><ele>254.0</ele><time>2026-04-09T12:29:28.999Z</time></trkpt><trkpt lat="46.01297996481957" lon="11.90929287376003"><ele>253.99999999999997</ele><time>2026-04-09T12:29:29.999Z</time></trkpt><trkpt lat="46.013008773508616" lon="11.90916241502145"><ele>253.99999999999997</ele><time>2026-04-09T12:29:30.999Z</time></trkpt><trkpt lat="46.013063943311224" lon="11.909039119293034"><ele>254.0</ele><time>2026-04-09T12:29:31.999Z</time></trkpt><trkpt lat="46.01314913793637" lon="11.90888505202449"><ele>254.0</ele><time>2026-04-09T12:29:32.999Z</time></trkpt><trkpt lat="46.01325802432136" lon="11.908712398117828"><ele>254.2</ele><time>2026-04-09T12:29:33.999Z</time></trkpt><trkpt lat="46.01335483586547" lon="11.90858854053791"><ele>254.39999999999998</ele><time>2026-04-09T12:29:34.999Z</time></trkpt><trkpt lat="46.01342650276884" lon="11.908503780267738"><ele>254.6</ele><time>2026-04-09T12:29:35.999Z</time></trkpt><trkpt lat="46.013482541667045" lon="11.90840743255812"><ele>254.8</ele><time>2026-04-09T12:29:36.999Z</time></trkpt><trkpt lat="46.013544510692775" lon="11.908311545641997"><ele>255.0</ele><time>2026-04-09T12:29:37.999Z</time></trkpt><trkpt lat="46.0136326316523" lon="11.908181644929908"><ele>255.25</ele><time>2026-04-09T12:29:38.999Z</time></trkpt><trkpt lat="46.013748711087146" lon="11.908020281736455"><ele>255.5</ele><time>2026-04-09T12:29:39.999Z</time></trkpt><trkpt lat="46.0138537877952" lon="11.90788475223032"><ele>255.75</ele><time>2026-04-09T12:29:40.999Z</time></trkpt><trkpt lat="46.0139296912987" lon="11.907768713259975"><ele>256.0</ele><time>2026-04-09T12:29:41.999Z</time></trkpt><trkpt lat="46.014000103665595" lon="11.907683647516112"><ele>256.0</ele><time>2026-04-09T12:29:42.999Z</time></trkpt><trkpt lat="46.01406372787019" lon="11.90759933400767"><ele>256.0</ele><time>2026-04-09T12:29:43.999Z</time></trkpt><trkpt lat="46.01412615722379" lon="11.907501407713468"><ele>256.0</ele><time>2026-04-09T12:29:44.999Z</time></trkpt><trkpt lat="46.01420291302261" lon="11.907386298227339"><ele>256.0</ele><time>2026-04-09T12:29:45.999Z</time></trkpt><trkpt lat="46.014293648531776" lon="11.907292424050503"><ele>256.0</ele><time>2026-04-09T12:29:46.999Z</time></trkpt><trkpt lat="46.014357181931395" lon="11.907203697783157"><ele>256.0</ele><time>2026-04-09T12:29:47.999Z</time></trkpt><trkpt lat="46.01441415067389" lon="11.907124139249428"><ele>256.0</ele><time>2026-04-09T12:29:48.999Z</time></trkpt><trkpt lat="46.014475854437" lon="11.907036783800539"><ele>256.0</ele><time>2026-04-09T12:29:49.999Z</time></trkpt><trkpt lat="46.01454566633948" lon="11.90693764888714"><ele>256.0</ele><time>2026-04-09T12:29:50.999Z</time></trkpt><trkpt lat="46.01462489184475" lon="11.90682433142742"><ele>256.0</ele><time>2026-04-09T12:29:51.999Z</time></trkpt><trkpt lat="46.01473619018617" lon="11.906664786783457"><ele>256.66666666666663</ele><time>2026-04-09T12:29:52.999Z</time></trkpt><trkpt lat="46.01486361639604" lon="11.906482428916046"><ele>257.3333333333333</ele><time>2026-04-09T12:29:53.999Z</time></trkpt><trkpt lat="46.01497401979222" lon="11.906313223297632"><ele>258.0</ele><time>2026-04-09T12:29:54.999Z</time></trkpt><trkpt lat="46.01504400372664" lon="11.906160204768506"><ele>258.75</ele><time>2026-04-09T12:29:55.999Z</time></trkpt><trkpt lat="46.015104700010816" lon="11.90602719182634"><ele>259.5</ele><time>2026-04-09T12:29:56.999Z</time></trkpt><trkpt lat="46.015142411658125" lon="11.905879782230762"><ele>260.25</ele><time>2026-04-09T12:29:57.999Z</time></trkpt><trkpt lat="46.01516395442638" lon="11.905708023433577"><ele>261.0</ele><time>2026-04-09T12:29:58.999Z</time></trkpt><trkpt lat="46.015215356911426" lon="11.905543081372475"><ele>261.2</ele><time>2026-04-09T12:29:59.999Z</time></trkpt><trkpt lat="46.01523831475365" lon="11.905385274918856"><ele>261.40000000000003</ele><time>2026-04-09T12:30:00.999Z</time></trkpt><trkpt lat="46.015256970252004" lon="11.905252195176319"><ele>261.6</ele><time>2026-04-09T12:30:01.999Z</time></trkpt><trkpt lat="46.01526180614273" lon="11.905117147775213"><ele>261.8</ele><time>2026-04-09T12:30:02.999Z</time></trkpt><trkpt lat="46.01528717855401" lon="11.904959491977978"><ele>262.0</ele><time>2026-04-09T12:30:03.999Z</time></trkpt><trkpt lat="46.015310314343864" lon="11.904813220405897"><ele>262.2</ele><time>2026-04-09T12:30:04.999Z</time></trkpt><trkpt lat="46.01533415026627" lon="11.904690278116039"><ele>262.4</ele><time>2026-04-09T12:30:05.999Z</time></trkpt><trkpt lat="46.01536171148735" lon="11.904563733606967"><ele>262.6</ele><time>2026-04-09T12:30:06.999Z</time></trkpt><trkpt lat="46.015385729142174" lon="11.904423296402097"><ele>262.8</ele><time>2026-04-09T12:30:07.999Z</time></trkpt><trkpt lat="46.015411320534696" lon="11.904285579026638"><ele>263.0</ele><time>2026-04-09T12:30:08.999Z</time></trkpt><trkpt lat="46.01543475660551" lon="11.90415171133726"><ele>263.0</ele><time>2026-04-09T12:30:09.999Z</time></trkpt><trkpt lat="46.015455773697894" lon="11.904020693442645"><ele>263.0</ele><time>2026-04-09T12:30:10.999Z</time></trkpt><trkpt lat="46.01547708039033" lon="11.903891893249428"><ele>263.0</ele><time>2026-04-09T12:30:11.999Z</time></trkpt><trkpt lat="46.01549713204227" lon="11.903765419597873"><ele>263.0</ele><time>2026-04-09T12:30:12.999Z</time></trkpt><trkpt lat="46.01551521458147" lon="11.90364534376423"><ele>263.0</ele><time>2026-04-09T12:30:13.999Z</time></trkpt><trkpt lat="46.01553096188795" lon="11.903550766898867"><ele>263.0</ele><time>2026-04-09T12:30:14.999Z</time></trkpt><trkpt lat="46.015564988879426" lon="11.903384642367502"><ele>262.83333333333337</ele><time>2026-04-09T12:30:16.999Z</time></trkpt><trkpt lat="46.01558019329021" lon="11.903285107903267"><ele>262.6666666666667</ele><time>2026-04-09T12:30:17.999Z</time></trkpt><trkpt lat="46.01559513433358" lon="11.903164914034981"><ele>262.5</ele><time>2026-04-09T12:30:18.999Z</time></trkpt><trkpt lat="46.01561638495896" lon="11.903035973585443"><ele>262.3333333333333</ele><time>2026-04-09T12:30:19.999Z</time></trkpt><trkpt lat="46.01563821976288" lon="11.902900797503476"><ele>262.16666666666663</ele><time>2026-04-09T12:30:20.999Z</time></trkpt><trkpt lat="46.01565614797333" lon="11.90276098203745"><ele>262.0</ele><time>2026-04-09T12:30:22Z</time></trkpt><trkpt lat="46.01567985391808" lon="11.902620824578742"><ele>262.2</ele><time>2026-04-09T12:30:23Z</time></trkpt><trkpt lat="46.015704338789604" lon="11.902488568039557"><ele>262.4</ele><time>2026-04-09T12:30:24Z</time></trkpt><trkpt lat="46.01572694215566" lon="11.902356747407294"><ele>262.6</ele><time>2026-04-09T12:30:25Z</time></trkpt><trkpt lat="46.01574469746158" lon="11.902232053170728"><ele>262.8</ele><time>2026-04-09T12:30:26Z</time></trkpt><trkpt lat="46.01575344900343" lon="11.902112797730064"><ele>263.0</ele><time>2026-04-09T12:30:27Z</time></trkpt><trkpt lat="46.015758128976074" lon="11.901981595306617"><ele>263.0</ele><time>2026-04-09T12:30:28Z</time></trkpt><trkpt lat="46.01578420736793" lon="11.901848012618117"><ele>263.0</ele><time>2026-04-09T12:30:29Z</time></trkpt><trkpt lat="46.01584531574068" lon="11.901725743123638"><ele>263.0</ele><time>2026-04-09T12:30:30Z</time></trkpt><trkpt lat="46.01591679397741" lon="11.901598008571018"><ele>263.0</ele><time>2026-04-09T12:30:31Z</time></trkpt><trkpt lat="46.0160120959677" lon="11.90149739122713"><ele>263.0</ele><time>2026-04-09T12:30:32Z</time></trkpt><trkpt lat="46.01612853962194" lon="11.90142259604564"><ele>264.0</ele><time>2026-04-09T12:30:33Z</time></trkpt><trkpt lat="46.01627071585063" lon="11.90135678416037"><ele>265.0</ele><time>2026-04-09T12:30:34Z</time></trkpt><trkpt lat="46.01645834828665" lon="11.90126450029087"><ele>266.0</ele><time>2026-04-09T12:30:35Z</time></trkpt><trkpt lat="46.016658398267296" lon="11.901159646065935"><ele>266.0</ele><time>2026-04-09T12:30:36Z</time></trkpt><trkpt lat="46.01684569833663" lon="11.901073853718486"><ele>266.0</ele><time>2026-04-09T12:30:37Z</time></trkpt><trkpt lat="46.01698434441885" lon="11.900993198051639"><ele>266.0</ele><time>2026-04-09T12:30:38Z</time></trkpt><trkpt lat="46.01709257499456" lon="11.90092667205625"><ele>266.0</ele><time>2026-04-09T12:30:39Z</time></trkpt><trkpt lat="46.017188730955766" lon="11.900860693719604"><ele>266.0</ele><time>2026-04-09T12:30:40Z</time></trkpt><trkpt lat="46.01727249474013" lon="11.900798583946557"><ele>266.0</ele><time>2026-04-09T12:30:41Z</time></trkpt><trkpt lat="46.017384529874406" lon="11.90073081256562"><ele>266.0</ele><time>2026-04-09T12:30:43Z</time></trkpt><trkpt lat="46.0175217738898" lon="11.900684728573882"><ele>266.40000000000003</ele><time>2026-04-09T12:30:45Z</time></trkpt><trkpt lat="46.01763130312593" lon="11.900629149877458"><ele>266.8</ele><time>2026-04-09T12:30:46Z</time></trkpt><trkpt lat="46.01771191734144" lon="11.90057814292614"><ele>267.20000000000005</ele><time>2026-04-09T12:30:47Z</time></trkpt><trkpt lat="46.01779382172291" lon="11.900508766761241"><ele>267.6</ele><time>2026-04-09T12:30:48Z</time></trkpt><trkpt lat="46.01787250803683" lon="11.900423181436157"><ele>268.0</ele><time>2026-04-09T12:30:49Z</time></trkpt><trkpt lat="46.01794860207268" lon="11.90033113092963"><ele>268.0</ele><time>2026-04-09T12:30:50Z</time></trkpt><trkpt lat="46.01801756054182" lon="11.900219246249979"><ele>268.0</ele><time>2026-04-09T12:30:51Z</time></trkpt><trkpt lat="46.018099809923385" lon="11.90005989563924"><ele>268.0</ele><time>2026-04-09T12:30:52Z</time></trkpt><trkpt lat="46.01819665812981" lon="11.899844376615073"><ele>268.0</ele><time>2026-04-09T12:30:53Z</time></trkpt><trkpt lat="46.01831017105661" lon="11.899590479772831"><ele>268.66666666666663</ele><time>2026-04-09T12:30:54Z</time></trkpt><trkpt lat="46.018420718305535" lon="11.899391278592026"><ele>269.3333333333333</ele><time>2026-04-09T12:30:55Z</time></trkpt><trkpt lat="46.01852659795274" lon="11.899238268110908"><ele>270.0</ele><time>2026-04-09T12:30:56Z</time></trkpt><trkpt lat="46.018622406789895" lon="11.899106055335135"><ele>270.0</ele><time>2026-04-09T12:30:57Z</time></trkpt><trkpt lat="46.01870541162026" lon="11.898968719140466"><ele>270.0</ele><time>2026-04-09T12:30:58Z</time></trkpt><trkpt lat="46.01878437849895" lon="11.898834826209244"><ele>270.0</ele><time>2026-04-09T12:30:59Z</time></trkpt><trkpt lat="46.01886475542759" lon="11.8986796043348"><ele>270.0</ele><time>2026-04-09T12:31:00Z</time></trkpt><trkpt lat="46.018929879043924" lon="11.89850594668227"><ele>270.3333333333333</ele><time>2026-04-09T12:31:01Z</time></trkpt><trkpt lat="46.018996810078" lon="11.898317964520384"><ele>270.66666666666663</ele><time>2026-04-09T12:31:02Z</time></trkpt><trkpt lat="46.01904953217865" lon="11.898081727432364"><ele>271.0</ele><time>2026-04-09T12:31:03Z</time></trkpt><trkpt lat="46.01910553185908" lon="11.897798674493748"><ele>272.5</ele><time>2026-04-09T12:31:04Z</time></trkpt><trkpt lat="46.019164838748466" lon="11.897497263355472"><ele>274.0</ele><time>2026-04-09T12:31:05Z</time></trkpt><trkpt lat="46.0192152743451" lon="11.897171136350606"><ele>274.0</ele><time>2026-04-09T12:31:06Z</time></trkpt><trkpt lat="46.019276904734184" lon="11.896898103649294"><ele>274.0</ele><time>2026-04-09T12:31:07Z</time></trkpt><trkpt lat="46.019323136465346" lon="11.896644471868061"><ele>274.0</ele><time>2026-04-09T12:31:08Z</time></trkpt><trkpt lat="46.01935431180501" lon="11.896424218468699"><ele>274.0</ele><time>2026-04-09T12:31:09Z</time></trkpt><trkpt lat="46.01939644622964" lon="11.896254746633902"><ele>274.0</ele><time>2026-04-09T12:31:10Z</time></trkpt><trkpt lat="46.01939377574701" lon="11.89609358653166"><ele>274.0</ele><time>2026-04-09T12:31:11Z</time></trkpt><trkpt lat="46.01941089525612" lon="11.895970423120037"><ele>274.0</ele><time>2026-04-09T12:31:12Z</time></trkpt><trkpt lat="46.01944623256191" lon="11.895864537213678"><ele>274.0</ele><time>2026-04-09T12:31:13Z</time></trkpt><trkpt lat="46.01950096989557" lon="11.895788072884276"><ele>274.0</ele><time>2026-04-09T12:31:14Z</time></trkpt><trkpt lat="46.01957034568836" lon="11.895735467567075"><ele>274.0</ele><time>2026-04-09T12:31:15Z</time></trkpt><trkpt lat="46.019631133781736" lon="11.89567601402533"><ele>274.0</ele><time>2026-04-09T12:31:16Z</time></trkpt><trkpt lat="46.0196624091477" lon="11.895589765456943"><ele>274.0</ele><time>2026-04-09T12:31:17Z</time></trkpt><trkpt lat="46.01967414581521" lon="11.895484474901988"><ele>274.0</ele><time>2026-04-09T12:31:18Z</time></trkpt><trkpt lat="46.01965514959041" lon="11.895374343883754"><ele>274.0</ele><time>2026-04-09T12:31:19Z</time></trkpt><trkpt lat="46.01961174956764" lon="11.895255991950673"><ele>274.0</ele><time>2026-04-09T12:31:20Z</time></trkpt><trkpt lat="46.01955088580041" lon="11.895111212626688"><ele>274.0</ele><time>2026-04-09T12:31:21Z</time></trkpt><trkpt lat="46.01948671857286" lon="11.894920256800544"><ele>274.0</ele><time>2026-04-09T12:31:21.999Z</time></trkpt><trkpt lat="46.01944147849763" lon="11.894728651284996"><ele>274.0</ele><time>2026-04-09T12:31:22.999Z</time></trkpt><trkpt lat="46.0194066319435" lon="11.894518354132538"><ele>273.66666666666663</ele><time>2026-04-09T12:31:23.999Z</time></trkpt><trkpt lat="46.01935550726998" lon="11.894250343217948"><ele>273.3333333333333</ele><time>2026-04-09T12:31:24.999Z</time></trkpt><trkpt lat="46.01930648267516" lon="11.893966555806484"><ele>273.0</ele><time>2026-04-09T12:31:25.999Z</time></trkpt><trkpt lat="46.01926316711219" lon="11.893674041227168"><ele>273.3333333333333</ele><time>2026-04-09T12:31:26.999Z</time></trkpt><trkpt lat="46.01922910662351" lon="11.89341980772928"><ele>273.66666666666663</ele><time>2026-04-09T12:31:27.999Z</time></trkpt><trkpt lat="46.01919666953153" lon="11.89318507427297"><ele>274.0</ele><time>2026-04-09T12:31:28.999Z</time></trkpt><trkpt lat="46.0191733128025" lon="11.892973422096121"><ele>274.0</ele><time>2026-04-09T12:31:29.999Z</time></trkpt><trkpt lat="46.01915264188445" lon="11.89277457771268"><ele>274.0</ele><time>2026-04-09T12:31:30.999Z</time></trkpt><trkpt lat="46.019122973850536" lon="11.892576320966244"><ele>274.0</ele><time>2026-04-09T12:31:31.999Z</time></trkpt><trkpt lat="46.019087166790314" lon="11.892368860540222"><ele>274.0</ele><time>2026-04-09T12:31:32.999Z</time></trkpt><trkpt lat="46.01905276662218" lon="11.892137719827387"><ele>273.5</ele><time>2026-04-09T12:31:33.999Z</time></trkpt><trkpt lat="46.01902567921271" lon="11.891895202725115"><ele>273.0</ele><time>2026-04-09T12:31:34.999Z</time></trkpt><trkpt lat="46.01900776875175" lon="11.891686373638523"><ele>272.5</ele><time>2026-04-09T12:31:35.999Z</time></trkpt><trkpt lat="46.01899274125701" lon="11.891508719756459"><ele>272.0</ele><time>2026-04-09T12:31:36.999Z</time></trkpt><trkpt lat="46.01898147867936" lon="11.891384388271131"><ele>272.0</ele><time>2026-04-09T12:31:37.999Z</time></trkpt><trkpt lat="46.01897354226779" lon="11.89129222945151"><ele>272.0</ele><time>2026-04-09T12:31:38.999Z</time></trkpt><trkpt lat="46.01896877181864" lon="11.891173618062755"><ele>272.0</ele><time>2026-04-09T12:31:40.999Z</time></trkpt><trkpt lat="46.018786795515275" lon="11.89120424607892"><ele>272.0</ele><time>2026-04-09T12:31:42.999Z</time></trkpt><trkpt lat="46.01869316718719" lon="11.891248791265728"><ele>272.0</ele><time>2026-04-09T12:31:43.999Z</time></trkpt><trkpt lat="46.018573171333394" lon="11.891282898979728"><ele>272.0</ele><time>2026-04-09T12:31:44.999Z</time></trkpt><trkpt lat="46.01843166602135" lon="11.891317376837014"><ele>272.0</ele><time>2026-04-09T12:31:45.999Z</time></trkpt><trkpt lat="46.018311378780645" lon="11.89132651510486"><ele>272.0</ele><time>2026-04-09T12:31:46.999Z</time></trkpt><trkpt lat="46.01820622970533" lon="11.891360901883436"><ele>272.0</ele><time>2026-04-09T12:31:47.999Z</time></trkpt><trkpt lat="46.018087940815946" lon="11.891387728271466"><ele>271.75</ele><time>2026-04-09T12:31:48.999Z</time></trkpt><trkpt lat="46.01795160112801" lon="11.891420820787484"><ele>271.5</ele><time>2026-04-09T12:31:49.999Z</time></trkpt><trkpt lat="46.017810565173896" lon="11.89147264565012"><ele>271.25</ele><time>2026-04-09T12:31:50.999Z</time></trkpt><trkpt lat="46.01769286983954" lon="11.891504149583984"><ele>271.0</ele><time>2026-04-09T12:31:51.999Z</time></trkpt><trkpt lat="46.0175834619609" lon="11.891528538679275"><ele>271.0</ele><time>2026-04-09T12:31:52.999Z</time></trkpt><trkpt lat="46.01748899403755" lon="11.891555521709918"><ele>271.0</ele><time>2026-04-09T12:31:53.999Z</time></trkpt><trkpt lat="46.017400747069345" lon="11.891585017560546"><ele>271.0</ele><time>2026-04-09T12:31:55.999Z</time></trkpt><trkpt lat="46.017364480411494" lon="11.891452120927203"><ele>271.0</ele><time>2026-04-09T12:31:58.999Z</time></trkpt><trkpt lat="46.017352340134735" lon="11.891338811768582"><ele>271.0</ele><time>2026-04-09T12:31:59.999Z</time></trkpt><trkpt lat="46.01733750889824" lon="11.891195621961907"><ele>270.5</ele><time>2026-04-09T12:32:00.999Z</time></trkpt><trkpt lat="46.01732298282029" lon="11.891057054763829"><ele>270.0</ele><time>2026-04-09T12:32:01.999Z</time></trkpt><trkpt lat="46.01731005874395" lon="11.890933769382054"><ele>269.5</ele><time>2026-04-09T12:32:02.999Z</time></trkpt><trkpt lat="46.01729634247678" lon="11.890802927123591"><ele>269.0</ele><time>2026-04-09T12:32:03.999Z</time></trkpt><trkpt lat="46.01728502091344" lon="11.89069524178904"><ele>268.5</ele><time>2026-04-09T12:32:04.999Z</time></trkpt><trkpt lat="46.01721197229958" lon="11.890615923018009"><ele>268.0</ele><time>2026-04-09T12:32:05.999Z</time></trkpt><trkpt lat="46.01714884090063" lon="11.890521841042222"><ele>268.0</ele><time>2026-04-09T12:32:06.999Z</time></trkpt><trkpt lat="46.01707059965368" lon="11.890441515739026"><ele>268.0</ele><time>2026-04-09T12:32:07.999Z</time></trkpt><trkpt lat="46.01701327963716" lon="11.890373240101459"><ele>268.0</ele><time>2026-04-09T12:32:08.999Z</time></trkpt><trkpt lat="46.01699628046648" lon="11.890237868642481"><ele>268.0</ele><time>2026-04-09T12:32:10.999Z</time></trkpt><trkpt lat="46.01701220213632" lon="11.890130379368115"><ele>268.0</ele><time>2026-04-09T12:32:11.999Z</time></trkpt><trkpt lat="46.017028924897495" lon="11.89001748180822"><ele>268.0</ele><time>2026-04-09T12:32:12.999Z</time></trkpt><trkpt lat="46.01704220306941" lon="11.889927839127239"><ele>268.16666666666663</ele><time>2026-04-09T12:32:13.999Z</time></trkpt><trkpt lat="46.01706395718478" lon="11.889781206895435"><ele>268.3333333333333</ele><time>2026-04-09T12:32:15.999Z</time></trkpt><trkpt lat="46.01715660465915" lon="11.88977170445185"><ele>268.5</ele><time>2026-04-09T12:32:17.999Z</time></trkpt><trkpt lat="46.017256587382" lon="11.889751229445988"><ele>268.6666666666667</ele><time>2026-04-09T12:32:20.999Z</time></trkpt><trkpt lat="46.017333224504405" lon="11.889725559028992"><ele>268.83333333333337</ele><time>2026-04-09T12:32:22.999Z</time></trkpt><trkpt lat="46.017401331670605" lon="11.889712694369008"><ele>269.0</ele><time>2026-04-09T12:32:25.999Z</time></trkpt><trkpt lat="46.01736662149554" lon="11.889969150269863"><ele>268.8</ele><time>2026-04-09T12:32:26.999Z</time></trkpt><trkpt lat="46.0173457009546" lon="11.890106698421029"><ele>268.59999999999997</ele><time>2026-04-09T12:32:30Z</time></trkpt><trkpt lat="46.017366311209884" lon="11.890217979818066"><ele>268.4</ele><time>2026-04-09T12:32:32Z</time></trkpt><trkpt lat="46.017396178647545" lon="11.890312711976936"><ele>268.2</ele><time>2026-04-09T12:32:34Z</time></trkpt><trkpt lat="46.017395639359066" lon="11.890447930209513"><ele>268.0</ele><time>2026-04-09T12:32:36Z</time></trkpt><trkpt lat="46.01727239492351" lon="11.890465384637604"><ele>268.0</ele><time>2026-04-09T12:32:37Z</time></trkpt><trkpt lat="46.01737841770365" lon="11.890428657357672"><ele>268.0</ele><time>2026-04-09T12:33:02Z</time></trkpt><trkpt lat="46.01729766682805" lon="11.890443567235037"><ele>268.0</ele><time>2026-04-09T12:33:29Z</time></trkpt><trkpt lat="46.01736058656028" lon="11.890440522457158"><ele>268.0</ele><time>2026-04-09T12:33:45.999Z</time></trkpt></trkseg></trk></gpx>